<?xml version="1.0" encoding="UTF-8" standalone="no" ?>
<gpx xmlns="http://www.topografix.com/GPX/1/1" xmlns:xsi="http://www.w3.org/2001/XMLSchema-instance" xsi:schemaLocation="http://www.topografix.com/GPX/1/1 http://www.topografix.com/GPX/1/1/gpx.xsd" version="1.1" creator="VisuGPX - https://www.visugpx.com">
  <metadata>
    <name>Champagnat Cyclisme sur route</name>
  </metadata>
  <trk>
    <name><![CDATA[Champagnat Cyclisme sur route_1]]></name>
    <trkseg>
      <trkpt lat="46.48733" lon="5.38211">
        <ele>289</ele>
        <time>2022-03-19T12:07:31Z</time>
      </trkpt>
      <trkpt lat="46.4874" lon="5.3822">
        <ele>288.2</ele>
        <time>2022-03-19T12:07:32Z</time>
      </trkpt>
      <trkpt lat="46.48751" lon="5.38234">
        <ele>286.6</ele>
        <time>2022-03-19T12:07:33Z</time>
      </trkpt>
      <trkpt lat="46.4876" lon="5.38246">
        <ele>285.4</ele>
        <time>2022-03-19T12:07:34Z</time>
      </trkpt>
      <trkpt lat="46.4878" lon="5.38265">
        <ele>283.6</ele>
        <time>2022-03-19T12:07:36Z</time>
      </trkpt>
      <trkpt lat="46.48791" lon="5.38274">
        <ele>282.6</ele>
        <time>2022-03-19T12:07:37Z</time>
      </trkpt>
      <trkpt lat="46.48802" lon="5.38282">
        <ele>281.2</ele>
        <time>2022-03-19T12:07:38Z</time>
      </trkpt>
      <trkpt lat="46.48823" lon="5.38299">
        <ele>280</ele>
        <time>2022-03-19T12:07:40Z</time>
      </trkpt>
      <trkpt lat="46.48856" lon="5.38326">
        <ele>278.2</ele>
        <time>2022-03-19T12:07:43Z</time>
      </trkpt>
      <trkpt lat="46.48868" lon="5.38335">
        <ele>277.6</ele>
        <time>2022-03-19T12:07:44Z</time>
      </trkpt>
      <trkpt lat="46.4888" lon="5.38342">
        <ele>276.6</ele>
        <time>2022-03-19T12:07:45Z</time>
      </trkpt>
      <trkpt lat="46.48904" lon="5.38356">
        <ele>275</ele>
        <time>2022-03-19T12:07:47Z</time>
      </trkpt>
      <trkpt lat="46.48916" lon="5.38363">
        <ele>273.8</ele>
        <time>2022-03-19T12:07:48Z</time>
      </trkpt>
      <trkpt lat="46.48927" lon="5.38373">
        <ele>272.6</ele>
        <time>2022-03-19T12:07:49Z</time>
      </trkpt>
      <trkpt lat="46.48935" lon="5.38387">
        <ele>271.8</ele>
        <time>2022-03-19T12:07:50Z</time>
      </trkpt>
      <trkpt lat="46.48942" lon="5.38402">
        <ele>271.4</ele>
        <time>2022-03-19T12:07:51Z</time>
      </trkpt>
      <trkpt lat="46.48947" lon="5.38418">
        <ele>270.6</ele>
        <time>2022-03-19T12:07:52Z</time>
      </trkpt>
      <trkpt lat="46.48951" lon="5.38434">
        <ele>270</ele>
        <time>2022-03-19T12:07:53Z</time>
      </trkpt>
      <trkpt lat="46.48955" lon="5.3845">
        <ele>269.2</ele>
        <time>2022-03-19T12:07:54Z</time>
      </trkpt>
      <trkpt lat="46.48961" lon="5.38463">
        <ele>268.8</ele>
        <time>2022-03-19T12:07:55Z</time>
      </trkpt>
      <trkpt lat="46.48969" lon="5.38474">
        <ele>268.4</ele>
        <time>2022-03-19T12:07:56Z</time>
      </trkpt>
      <trkpt lat="46.48978" lon="5.38483">
        <ele>268.2</ele>
        <time>2022-03-19T12:07:57Z</time>
      </trkpt>
      <trkpt lat="46.48988" lon="5.3849">
        <ele>268.2</ele>
        <time>2022-03-19T12:07:58Z</time>
      </trkpt>
      <trkpt lat="46.49007" lon="5.385">
        <ele>268.2</ele>
        <time>2022-03-19T12:08:00Z</time>
      </trkpt>
      <trkpt lat="46.49057" lon="5.38517">
        <ele>267.8</ele>
        <time>2022-03-19T12:08:05Z</time>
      </trkpt>
      <trkpt lat="46.49067" lon="5.38518">
        <ele>267.2</ele>
        <time>2022-03-19T12:08:06Z</time>
      </trkpt>
      <trkpt lat="46.49086" lon="5.38521">
        <ele>266.8</ele>
        <time>2022-03-19T12:08:08Z</time>
      </trkpt>
      <trkpt lat="46.49121" lon="5.38524">
        <ele>265.8</ele>
        <time>2022-03-19T12:08:12Z</time>
      </trkpt>
      <trkpt lat="46.49129" lon="5.38526">
        <ele>265.8</ele>
        <time>2022-03-19T12:08:13Z</time>
      </trkpt>
      <trkpt lat="46.4915" lon="5.38536">
        <ele>265.6</ele>
        <time>2022-03-19T12:08:16Z</time>
      </trkpt>
      <trkpt lat="46.49156" lon="5.38539">
        <ele>265.6</ele>
        <time>2022-03-19T12:08:17Z</time>
      </trkpt>
      <trkpt lat="46.49168" lon="5.3854">
        <ele>266</ele>
        <time>2022-03-19T12:08:19Z</time>
      </trkpt>
      <trkpt lat="46.49172" lon="5.38541">
        <ele>266.4</ele>
        <time>2022-03-19T12:08:20Z</time>
      </trkpt>
      <trkpt lat="46.49176" lon="5.38545">
        <ele>266.6</ele>
        <time>2022-03-19T12:08:21Z</time>
      </trkpt>
      <trkpt lat="46.49178" lon="5.38551">
        <ele>267</ele>
        <time>2022-03-19T12:08:22Z</time>
      </trkpt>
      <trkpt lat="46.49186" lon="5.38575">
        <ele>268.2</ele>
        <time>2022-03-19T12:08:26Z</time>
      </trkpt>
      <trkpt lat="46.4919" lon="5.38586">
        <ele>268.6</ele>
        <time>2022-03-19T12:08:28Z</time>
      </trkpt>
      <trkpt lat="46.49193" lon="5.38598">
        <ele>269.2</ele>
        <time>2022-03-19T12:08:30Z</time>
      </trkpt>
      <trkpt lat="46.49195" lon="5.38603">
        <ele>269.6</ele>
        <time>2022-03-19T12:08:31Z</time>
      </trkpt>
      <trkpt lat="46.49197" lon="5.38608">
        <ele>269.8</ele>
        <time>2022-03-19T12:08:32Z</time>
      </trkpt>
      <trkpt lat="46.49204" lon="5.38622">
        <ele>270.8</ele>
        <time>2022-03-19T12:08:35Z</time>
      </trkpt>
      <trkpt lat="46.49206" lon="5.38641">
        <ele>271.8</ele>
        <time>2022-03-19T12:08:38Z</time>
      </trkpt>
      <trkpt lat="46.49206" lon="5.38648">
        <ele>272</ele>
        <time>2022-03-19T12:08:39Z</time>
      </trkpt>
      <trkpt lat="46.49208" lon="5.38669">
        <ele>272.6</ele>
        <time>2022-03-19T12:08:42Z</time>
      </trkpt>
      <trkpt lat="46.49212" lon="5.38681">
        <ele>272.8</ele>
        <time>2022-03-19T12:08:44Z</time>
      </trkpt>
      <trkpt lat="46.49219" lon="5.38692">
        <ele>273</ele>
        <time>2022-03-19T12:08:46Z</time>
      </trkpt>
      <trkpt lat="46.4923" lon="5.38705">
        <ele>273</ele>
        <time>2022-03-19T12:08:49Z</time>
      </trkpt>
      <trkpt lat="46.49257" lon="5.3872">
        <ele>273.6</ele>
        <time>2022-03-19T12:08:55Z</time>
      </trkpt>
      <trkpt lat="46.49266" lon="5.38725">
        <ele>274</ele>
        <time>2022-03-19T12:08:57Z</time>
      </trkpt>
      <trkpt lat="46.49289" lon="5.38734">
        <ele>274.6</ele>
        <time>2022-03-19T12:09:02Z</time>
      </trkpt>
      <trkpt lat="46.49303" lon="5.38737">
        <ele>275</ele>
        <time>2022-03-19T12:09:05Z</time>
      </trkpt>
      <trkpt lat="46.49312" lon="5.3874">
        <ele>275.4</ele>
        <time>2022-03-19T12:09:07Z</time>
      </trkpt>
      <trkpt lat="46.49321" lon="5.38743">
        <ele>275.6</ele>
        <time>2022-03-19T12:09:09Z</time>
      </trkpt>
      <trkpt lat="46.4933" lon="5.38746">
        <ele>276</ele>
        <time>2022-03-19T12:09:11Z</time>
      </trkpt>
      <trkpt lat="46.49334" lon="5.38747">
        <ele>276.4</ele>
        <time>2022-03-19T12:09:12Z</time>
      </trkpt>
      <trkpt lat="46.49361" lon="5.38757">
        <ele>277.6</ele>
        <time>2022-03-19T12:09:18Z</time>
      </trkpt>
      <trkpt lat="46.4937" lon="5.3876">
        <ele>277.8</ele>
        <time>2022-03-19T12:09:20Z</time>
      </trkpt>
      <trkpt lat="46.49389" lon="5.38767">
        <ele>278.2</ele>
        <time>2022-03-19T12:09:24Z</time>
      </trkpt>
      <trkpt lat="46.49408" lon="5.38772">
        <ele>278.6</ele>
        <time>2022-03-19T12:09:28Z</time>
      </trkpt>
      <trkpt lat="46.49431" lon="5.38776">
        <ele>279.6</ele>
        <time>2022-03-19T12:09:33Z</time>
      </trkpt>
      <trkpt lat="46.49436" lon="5.38778">
        <ele>279.8</ele>
        <time>2022-03-19T12:09:34Z</time>
      </trkpt>
      <trkpt lat="46.4944" lon="5.38779">
        <ele>279.8</ele>
        <time>2022-03-19T12:09:35Z</time>
      </trkpt>
      <trkpt lat="46.49479" lon="5.38786">
        <ele>280.2</ele>
        <time>2022-03-19T12:09:43Z</time>
      </trkpt>
      <trkpt lat="46.49525" lon="5.38794">
        <ele>279.8</ele>
        <time>2022-03-19T12:09:51Z</time>
      </trkpt>
      <trkpt lat="46.49574" lon="5.38804">
        <ele>279.2</ele>
        <time>2022-03-19T12:09:59Z</time>
      </trkpt>
      <trkpt lat="46.49595" lon="5.38804">
        <ele>279</ele>
        <time>2022-03-19T12:10:02Z</time>
      </trkpt>
      <trkpt lat="46.49608" lon="5.38801">
        <ele>278.6</ele>
        <time>2022-03-19T12:10:04Z</time>
      </trkpt>
      <trkpt lat="46.49639" lon="5.38794">
        <ele>277.6</ele>
        <time>2022-03-19T12:10:08Z</time>
      </trkpt>
      <trkpt lat="46.49669" lon="5.38787">
        <ele>276.6</ele>
        <time>2022-03-19T12:10:12Z</time>
      </trkpt>
      <trkpt lat="46.49676" lon="5.38785">
        <ele>276.4</ele>
        <time>2022-03-19T12:10:13Z</time>
      </trkpt>
      <trkpt lat="46.49732" lon="5.38775">
        <ele>275.8</ele>
        <time>2022-03-19T12:10:21Z</time>
      </trkpt>
      <trkpt lat="46.49775" lon="5.38767">
        <ele>275.8</ele>
        <time>2022-03-19T12:10:28Z</time>
      </trkpt>
      <trkpt lat="46.49815" lon="5.38757">
        <ele>276.6</ele>
        <time>2022-03-19T12:10:35Z</time>
      </trkpt>
      <trkpt lat="46.49864" lon="5.38747">
        <ele>277.8</ele>
        <time>2022-03-19T12:10:44Z</time>
      </trkpt>
      <trkpt lat="46.49909" lon="5.38737">
        <ele>278.6</ele>
        <time>2022-03-19T12:10:52Z</time>
      </trkpt>
      <trkpt lat="46.49963" lon="5.38728">
        <ele>278.8</ele>
        <time>2022-03-19T12:11:01Z</time>
      </trkpt>
      <trkpt lat="46.49969" lon="5.38726">
        <ele>278.6</ele>
        <time>2022-03-19T12:11:02Z</time>
      </trkpt>
      <trkpt lat="46.50016" lon="5.38718">
        <ele>277.4</ele>
        <time>2022-03-19T12:11:09Z</time>
      </trkpt>
      <trkpt lat="46.50039" lon="5.38714">
        <ele>276.6</ele>
        <time>2022-03-19T12:11:12Z</time>
      </trkpt>
      <trkpt lat="46.50079" lon="5.38706">
        <ele>275.8</ele>
        <time>2022-03-19T12:11:18Z</time>
      </trkpt>
      <trkpt lat="46.50093" lon="5.38704">
        <ele>275.6</ele>
        <time>2022-03-19T12:11:20Z</time>
      </trkpt>
      <trkpt lat="46.5011" lon="5.38703">
        <ele>275.4</ele>
        <time>2022-03-19T12:11:23Z</time>
      </trkpt>
      <trkpt lat="46.50125" lon="5.38707">
        <ele>275.4</ele>
        <time>2022-03-19T12:11:26Z</time>
      </trkpt>
      <trkpt lat="46.50134" lon="5.38711">
        <ele>275.6</ele>
        <time>2022-03-19T12:11:28Z</time>
      </trkpt>
      <trkpt lat="46.50143" lon="5.38712">
        <ele>275.8</ele>
        <time>2022-03-19T12:11:30Z</time>
      </trkpt>
      <trkpt lat="46.50151" lon="5.38706">
        <ele>276.2</ele>
        <time>2022-03-19T12:11:32Z</time>
      </trkpt>
      <trkpt lat="46.50154" lon="5.38693">
        <ele>276.6</ele>
        <time>2022-03-19T12:11:34Z</time>
      </trkpt>
      <trkpt lat="46.50152" lon="5.38685">
        <ele>276.6</ele>
        <time>2022-03-19T12:11:35Z</time>
      </trkpt>
      <trkpt lat="46.5015" lon="5.38679">
        <ele>276.6</ele>
        <time>2022-03-19T12:11:36Z</time>
      </trkpt>
      <trkpt lat="46.50147" lon="5.38671">
        <ele>276.6</ele>
        <time>2022-03-19T12:11:37Z</time>
      </trkpt>
      <trkpt lat="46.50144" lon="5.38661">
        <ele>276.6</ele>
        <time>2022-03-19T12:11:38Z</time>
      </trkpt>
      <trkpt lat="46.50143" lon="5.38651">
        <ele>276.4</ele>
        <time>2022-03-19T12:11:39Z</time>
      </trkpt>
      <trkpt lat="46.50143" lon="5.38642">
        <ele>275.8</ele>
        <time>2022-03-19T12:11:40Z</time>
      </trkpt>
      <trkpt lat="46.50145" lon="5.38622">
        <ele>275.2</ele>
        <time>2022-03-19T12:11:42Z</time>
      </trkpt>
      <trkpt lat="46.50147" lon="5.38612">
        <ele>275.2</ele>
        <time>2022-03-19T12:11:43Z</time>
      </trkpt>
      <trkpt lat="46.50157" lon="5.38582">
        <ele>273.6</ele>
        <time>2022-03-19T12:11:46Z</time>
      </trkpt>
      <trkpt lat="46.50166" lon="5.38552">
        <ele>272.2</ele>
        <time>2022-03-19T12:11:49Z</time>
      </trkpt>
      <trkpt lat="46.50179" lon="5.38511">
        <ele>270.6</ele>
        <time>2022-03-19T12:11:53Z</time>
      </trkpt>
      <trkpt lat="46.50188" lon="5.38479">
        <ele>268.8</ele>
        <time>2022-03-19T12:11:56Z</time>
      </trkpt>
      <trkpt lat="46.50192" lon="5.38468">
        <ele>268.6</ele>
        <time>2022-03-19T12:11:57Z</time>
      </trkpt>
      <trkpt lat="46.50195" lon="5.38458">
        <ele>267.8</ele>
        <time>2022-03-19T12:11:58Z</time>
      </trkpt>
      <trkpt lat="46.50205" lon="5.38429">
        <ele>266.8</ele>
        <time>2022-03-19T12:12:01Z</time>
      </trkpt>
      <trkpt lat="46.50213" lon="5.38402">
        <ele>265.6</ele>
        <time>2022-03-19T12:12:04Z</time>
      </trkpt>
      <trkpt lat="46.50216" lon="5.38396">
        <ele>265.4</ele>
        <time>2022-03-19T12:12:05Z</time>
      </trkpt>
      <trkpt lat="46.50224" lon="5.38384">
        <ele>265</ele>
        <time>2022-03-19T12:12:07Z</time>
      </trkpt>
      <trkpt lat="46.50229" lon="5.38385">
        <ele>264.8</ele>
        <time>2022-03-19T12:12:08Z</time>
      </trkpt>
      <trkpt lat="46.50234" lon="5.38389">
        <ele>264.6</ele>
        <time>2022-03-19T12:12:09Z</time>
      </trkpt>
      <trkpt lat="46.50256" lon="5.38415">
        <ele>263.4</ele>
        <time>2022-03-19T12:12:14Z</time>
      </trkpt>
      <trkpt lat="46.5026" lon="5.3842">
        <ele>263.2</ele>
        <time>2022-03-19T12:12:15Z</time>
      </trkpt>
      <trkpt lat="46.50289" lon="5.38451">
        <ele>263</ele>
        <time>2022-03-19T12:12:21Z</time>
      </trkpt>
      <trkpt lat="46.50305" lon="5.38477">
        <ele>264.4</ele>
        <time>2022-03-19T12:12:26Z</time>
      </trkpt>
      <trkpt lat="46.50309" lon="5.38482">
        <ele>264.6</ele>
        <time>2022-03-19T12:12:27Z</time>
      </trkpt>
      <trkpt lat="46.50324" lon="5.38504">
        <ele>265.6</ele>
        <time>2022-03-19T12:12:31Z</time>
      </trkpt>
      <trkpt lat="46.5033" lon="5.38514">
        <ele>266.2</ele>
        <time>2022-03-19T12:12:33Z</time>
      </trkpt>
      <trkpt lat="46.50343" lon="5.38529">
        <ele>266.8</ele>
        <time>2022-03-19T12:12:36Z</time>
      </trkpt>
      <trkpt lat="46.50347" lon="5.38533">
        <ele>267</ele>
        <time>2022-03-19T12:12:37Z</time>
      </trkpt>
      <trkpt lat="46.5036" lon="5.38544">
        <ele>267.4</ele>
        <time>2022-03-19T12:12:40Z</time>
      </trkpt>
      <trkpt lat="46.50389" lon="5.38565">
        <ele>268</ele>
        <time>2022-03-19T12:12:46Z</time>
      </trkpt>
      <trkpt lat="46.50399" lon="5.38572">
        <ele>268</ele>
        <time>2022-03-19T12:12:48Z</time>
      </trkpt>
      <trkpt lat="46.50429" lon="5.38596">
        <ele>268</ele>
        <time>2022-03-19T12:12:53Z</time>
      </trkpt>
      <trkpt lat="46.50458" lon="5.3862">
        <ele>267</ele>
        <time>2022-03-19T12:12:57Z</time>
      </trkpt>
      <trkpt lat="46.50468" lon="5.38626">
        <ele>266.8</ele>
        <time>2022-03-19T12:12:58Z</time>
      </trkpt>
      <trkpt lat="46.50487" lon="5.38634">
        <ele>264.4</ele>
        <time>2022-03-19T12:13:00Z</time>
      </trkpt>
      <trkpt lat="46.50498" lon="5.38639">
        <ele>263.6</ele>
        <time>2022-03-19T12:13:01Z</time>
      </trkpt>
      <trkpt lat="46.5051" lon="5.38643">
        <ele>261.6</ele>
        <time>2022-03-19T12:13:02Z</time>
      </trkpt>
      <trkpt lat="46.50533" lon="5.3865">
        <ele>259.2</ele>
        <time>2022-03-19T12:13:04Z</time>
      </trkpt>
      <trkpt lat="46.50544" lon="5.38653">
        <ele>257.8</ele>
        <time>2022-03-19T12:13:05Z</time>
      </trkpt>
      <trkpt lat="46.50565" lon="5.38658">
        <ele>255.6</ele>
        <time>2022-03-19T12:13:07Z</time>
      </trkpt>
      <trkpt lat="46.50587" lon="5.38663">
        <ele>253.6</ele>
        <time>2022-03-19T12:13:09Z</time>
      </trkpt>
      <trkpt lat="46.50608" lon="5.38667">
        <ele>252</ele>
        <time>2022-03-19T12:13:11Z</time>
      </trkpt>
      <trkpt lat="46.50627" lon="5.38672">
        <ele>251.2</ele>
        <time>2022-03-19T12:13:13Z</time>
      </trkpt>
      <trkpt lat="46.50636" lon="5.38674">
        <ele>250.8</ele>
        <time>2022-03-19T12:13:14Z</time>
      </trkpt>
      <trkpt lat="46.50666" lon="5.38686">
        <ele>250.8</ele>
        <time>2022-03-19T12:13:18Z</time>
      </trkpt>
      <trkpt lat="46.50697" lon="5.387">
        <ele>252.8</ele>
        <time>2022-03-19T12:13:23Z</time>
      </trkpt>
      <trkpt lat="46.50708" lon="5.38704">
        <ele>253.8</ele>
        <time>2022-03-19T12:13:25Z</time>
      </trkpt>
      <trkpt lat="46.50726" lon="5.3871">
        <ele>255.2</ele>
        <time>2022-03-19T12:13:28Z</time>
      </trkpt>
      <trkpt lat="46.50749" lon="5.38713">
        <ele>256.6</ele>
        <time>2022-03-19T12:13:32Z</time>
      </trkpt>
      <trkpt lat="46.50755" lon="5.38714">
        <ele>256.8</ele>
        <time>2022-03-19T12:13:33Z</time>
      </trkpt>
      <trkpt lat="46.50779" lon="5.38718">
        <ele>257.8</ele>
        <time>2022-03-19T12:13:37Z</time>
      </trkpt>
      <trkpt lat="46.50801" lon="5.38722">
        <ele>257.8</ele>
        <time>2022-03-19T12:13:40Z</time>
      </trkpt>
      <trkpt lat="46.50836" lon="5.3873">
        <ele>256.6</ele>
        <time>2022-03-19T12:13:45Z</time>
      </trkpt>
      <trkpt lat="46.50856" lon="5.38735">
        <ele>255.4</ele>
        <time>2022-03-19T12:13:48Z</time>
      </trkpt>
      <trkpt lat="46.50869" lon="5.38739">
        <ele>255.2</ele>
        <time>2022-03-19T12:13:50Z</time>
      </trkpt>
      <trkpt lat="46.5092" lon="5.38752">
        <ele>256</ele>
        <time>2022-03-19T12:13:58Z</time>
      </trkpt>
      <trkpt lat="46.50964" lon="5.38762">
        <ele>256.4</ele>
        <time>2022-03-19T12:14:05Z</time>
      </trkpt>
      <trkpt lat="46.50996" lon="5.38768">
        <ele>256.4</ele>
        <time>2022-03-19T12:14:10Z</time>
      </trkpt>
      <trkpt lat="46.51015" lon="5.38772">
        <ele>256.4</ele>
        <time>2022-03-19T12:14:13Z</time>
      </trkpt>
      <trkpt lat="46.51055" lon="5.38782">
        <ele>257</ele>
        <time>2022-03-19T12:14:20Z</time>
      </trkpt>
      <trkpt lat="46.51081" lon="5.38787">
        <ele>257.4</ele>
        <time>2022-03-19T12:14:25Z</time>
      </trkpt>
      <trkpt lat="46.51097" lon="5.3879">
        <ele>258</ele>
        <time>2022-03-19T12:14:28Z</time>
      </trkpt>
      <trkpt lat="46.51112" lon="5.38793">
        <ele>258.4</ele>
        <time>2022-03-19T12:14:31Z</time>
      </trkpt>
      <trkpt lat="46.51142" lon="5.38797">
        <ele>259.6</ele>
        <time>2022-03-19T12:14:37Z</time>
      </trkpt>
      <trkpt lat="46.51166" lon="5.38798">
        <ele>260.6</ele>
        <time>2022-03-19T12:14:42Z</time>
      </trkpt>
      <trkpt lat="46.51175" lon="5.38798">
        <ele>261.6</ele>
        <time>2022-03-19T12:14:44Z</time>
      </trkpt>
      <trkpt lat="46.51179" lon="5.38798">
        <ele>261.8</ele>
        <time>2022-03-19T12:14:45Z</time>
      </trkpt>
      <trkpt lat="46.51188" lon="5.38799">
        <ele>262.4</ele>
        <time>2022-03-19T12:14:47Z</time>
      </trkpt>
      <trkpt lat="46.51193" lon="5.38799">
        <ele>262.8</ele>
        <time>2022-03-19T12:14:48Z</time>
      </trkpt>
      <trkpt lat="46.51208" lon="5.38801">
        <ele>263.2</ele>
        <time>2022-03-19T12:14:51Z</time>
      </trkpt>
      <trkpt lat="46.51237" lon="5.38803">
        <ele>263.8</ele>
        <time>2022-03-19T12:14:57Z</time>
      </trkpt>
      <trkpt lat="46.51248" lon="5.38803">
        <ele>263.8</ele>
        <time>2022-03-19T12:14:59Z</time>
      </trkpt>
      <trkpt lat="46.51294" lon="5.38804">
        <ele>263.2</ele>
        <time>2022-03-19T12:15:07Z</time>
      </trkpt>
      <trkpt lat="46.5133" lon="5.38805">
        <ele>262.8</ele>
        <time>2022-03-19T12:15:13Z</time>
      </trkpt>
      <trkpt lat="46.51354" lon="5.38807">
        <ele>262.2</ele>
        <time>2022-03-19T12:15:17Z</time>
      </trkpt>
      <trkpt lat="46.51393" lon="5.38811">
        <ele>261.6</ele>
        <time>2022-03-19T12:15:23Z</time>
      </trkpt>
      <trkpt lat="46.514" lon="5.38812">
        <ele>261.4</ele>
        <time>2022-03-19T12:15:24Z</time>
      </trkpt>
      <trkpt lat="46.51407" lon="5.38812">
        <ele>260.8</ele>
        <time>2022-03-19T12:15:25Z</time>
      </trkpt>
      <trkpt lat="46.51414" lon="5.38811">
        <ele>260.4</ele>
        <time>2022-03-19T12:15:26Z</time>
      </trkpt>
      <trkpt lat="46.5143" lon="5.38807">
        <ele>259.8</ele>
        <time>2022-03-19T12:15:28Z</time>
      </trkpt>
      <trkpt lat="46.51448" lon="5.38803">
        <ele>259.2</ele>
        <time>2022-03-19T12:15:30Z</time>
      </trkpt>
      <trkpt lat="46.51467" lon="5.38801">
        <ele>257.6</ele>
        <time>2022-03-19T12:15:32Z</time>
      </trkpt>
      <trkpt lat="46.51486" lon="5.38802">
        <ele>256</ele>
        <time>2022-03-19T12:15:34Z</time>
      </trkpt>
      <trkpt lat="46.51504" lon="5.38803">
        <ele>254.2</ele>
        <time>2022-03-19T12:15:36Z</time>
      </trkpt>
      <trkpt lat="46.51511" lon="5.38804">
        <ele>254</ele>
        <time>2022-03-19T12:15:37Z</time>
      </trkpt>
      <trkpt lat="46.51544" lon="5.38806">
        <ele>253.6</ele>
        <time>2022-03-19T12:15:42Z</time>
      </trkpt>
      <trkpt lat="46.51577" lon="5.38802">
        <ele>255.2</ele>
        <time>2022-03-19T12:15:48Z</time>
      </trkpt>
      <trkpt lat="46.51603" lon="5.38796">
        <ele>256.2</ele>
        <time>2022-03-19T12:15:53Z</time>
      </trkpt>
      <trkpt lat="46.51612" lon="5.38795">
        <ele>256.4</ele>
        <time>2022-03-19T12:15:55Z</time>
      </trkpt>
      <trkpt lat="46.51632" lon="5.3879">
        <ele>257</ele>
        <time>2022-03-19T12:15:59Z</time>
      </trkpt>
      <trkpt lat="46.51636" lon="5.38789">
        <ele>257.2</ele>
        <time>2022-03-19T12:16:00Z</time>
      </trkpt>
      <trkpt lat="46.51641" lon="5.38787">
        <ele>257.4</ele>
        <time>2022-03-19T12:16:01Z</time>
      </trkpt>
      <trkpt lat="46.5165" lon="5.38785">
        <ele>258.6</ele>
        <time>2022-03-19T12:16:03Z</time>
      </trkpt>
      <trkpt lat="46.51667" lon="5.38781">
        <ele>259.6</ele>
        <time>2022-03-19T12:16:07Z</time>
      </trkpt>
      <trkpt lat="46.51671" lon="5.38781">
        <ele>259.8</ele>
        <time>2022-03-19T12:16:08Z</time>
      </trkpt>
      <trkpt lat="46.51687" lon="5.38784">
        <ele>261</ele>
        <time>2022-03-19T12:16:13Z</time>
      </trkpt>
      <trkpt lat="46.5169" lon="5.38787">
        <ele>261</ele>
        <time>2022-03-19T12:16:14Z</time>
      </trkpt>
      <trkpt lat="46.51692" lon="5.38795">
        <ele>261.4</ele>
        <time>2022-03-19T12:16:16Z</time>
      </trkpt>
      <trkpt lat="46.51697" lon="5.38814">
        <ele>261.6</ele>
        <time>2022-03-19T12:16:20Z</time>
      </trkpt>
      <trkpt lat="46.51713" lon="5.3882">
        <ele>261.8</ele>
        <time>2022-03-19T12:16:24Z</time>
      </trkpt>
      <trkpt lat="46.51754" lon="5.38822">
        <ele>261.6</ele>
        <time>2022-03-19T12:16:32Z</time>
      </trkpt>
      <trkpt lat="46.51801" lon="5.38822">
        <ele>259.6</ele>
        <time>2022-03-19T12:16:40Z</time>
      </trkpt>
      <trkpt lat="46.51829" lon="5.38823">
        <ele>258.6</ele>
        <time>2022-03-19T12:16:44Z</time>
      </trkpt>
      <trkpt lat="46.51844" lon="5.38823">
        <ele>257.4</ele>
        <time>2022-03-19T12:16:46Z</time>
      </trkpt>
      <trkpt lat="46.51859" lon="5.38823">
        <ele>256.2</ele>
        <time>2022-03-19T12:16:48Z</time>
      </trkpt>
      <trkpt lat="46.51884" lon="5.38824">
        <ele>254.8</ele>
        <time>2022-03-19T12:16:51Z</time>
      </trkpt>
      <trkpt lat="46.51893" lon="5.38824">
        <ele>254.4</ele>
        <time>2022-03-19T12:16:52Z</time>
      </trkpt>
      <trkpt lat="46.51911" lon="5.38824">
        <ele>253.6</ele>
        <time>2022-03-19T12:16:54Z</time>
      </trkpt>
      <trkpt lat="46.51938" lon="5.38824">
        <ele>252.2</ele>
        <time>2022-03-19T12:16:57Z</time>
      </trkpt>
      <trkpt lat="46.51957" lon="5.38824">
        <ele>251.4</ele>
        <time>2022-03-19T12:16:59Z</time>
      </trkpt>
      <trkpt lat="46.51966" lon="5.38824">
        <ele>251</ele>
        <time>2022-03-19T12:17:00Z</time>
      </trkpt>
      <trkpt lat="46.51985" lon="5.38825">
        <ele>249.8</ele>
        <time>2022-03-19T12:17:02Z</time>
      </trkpt>
      <trkpt lat="46.52005" lon="5.38827">
        <ele>248.4</ele>
        <time>2022-03-19T12:17:04Z</time>
      </trkpt>
      <trkpt lat="46.52025" lon="5.3883">
        <ele>247</ele>
        <time>2022-03-19T12:17:06Z</time>
      </trkpt>
      <trkpt lat="46.52045" lon="5.38833">
        <ele>245.4</ele>
        <time>2022-03-19T12:17:08Z</time>
      </trkpt>
      <trkpt lat="46.52065" lon="5.38836">
        <ele>244.4</ele>
        <time>2022-03-19T12:17:10Z</time>
      </trkpt>
      <trkpt lat="46.52084" lon="5.38838">
        <ele>243</ele>
        <time>2022-03-19T12:17:12Z</time>
      </trkpt>
      <trkpt lat="46.52094" lon="5.38839">
        <ele>242.6</ele>
        <time>2022-03-19T12:17:13Z</time>
      </trkpt>
      <trkpt lat="46.52123" lon="5.38842">
        <ele>242</ele>
        <time>2022-03-19T12:17:16Z</time>
      </trkpt>
      <trkpt lat="46.52159" lon="5.38845">
        <ele>241.4</ele>
        <time>2022-03-19T12:17:20Z</time>
      </trkpt>
      <trkpt lat="46.52175" lon="5.38847">
        <ele>241</ele>
        <time>2022-03-19T12:17:22Z</time>
      </trkpt>
      <trkpt lat="46.52207" lon="5.38858">
        <ele>240.6</ele>
        <time>2022-03-19T12:17:26Z</time>
      </trkpt>
      <trkpt lat="46.52265" lon="5.38885">
        <ele>240.8</ele>
        <time>2022-03-19T12:17:34Z</time>
      </trkpt>
      <trkpt lat="46.52272" lon="5.38888">
        <ele>240.8</ele>
        <time>2022-03-19T12:17:35Z</time>
      </trkpt>
      <trkpt lat="46.52327" lon="5.38915">
        <ele>240.8</ele>
        <time>2022-03-19T12:17:43Z</time>
      </trkpt>
      <trkpt lat="46.52334" lon="5.38919">
        <ele>240.8</ele>
        <time>2022-03-19T12:17:44Z</time>
      </trkpt>
      <trkpt lat="46.52393" lon="5.38946">
        <ele>240.4</ele>
        <time>2022-03-19T12:17:52Z</time>
      </trkpt>
      <trkpt lat="46.52408" lon="5.38953">
        <ele>240.2</ele>
        <time>2022-03-19T12:17:54Z</time>
      </trkpt>
      <trkpt lat="46.5243" lon="5.38963">
        <ele>239.8</ele>
        <time>2022-03-19T12:17:57Z</time>
      </trkpt>
      <trkpt lat="46.52467" lon="5.38981">
        <ele>238.8</ele>
        <time>2022-03-19T12:18:02Z</time>
      </trkpt>
      <trkpt lat="46.52476" lon="5.38985">
        <ele>238.4</ele>
        <time>2022-03-19T12:18:03Z</time>
      </trkpt>
      <trkpt lat="46.52513" lon="5.39004">
        <ele>237.4</ele>
        <time>2022-03-19T12:18:08Z</time>
      </trkpt>
      <trkpt lat="46.52533" lon="5.39017">
        <ele>236.8</ele>
        <time>2022-03-19T12:18:11Z</time>
      </trkpt>
      <trkpt lat="46.52541" lon="5.39022">
        <ele>236.6</ele>
        <time>2022-03-19T12:18:12Z</time>
      </trkpt>
      <trkpt lat="46.52548" lon="5.39027">
        <ele>236</ele>
        <time>2022-03-19T12:18:13Z</time>
      </trkpt>
      <trkpt lat="46.5257" lon="5.39043">
        <ele>234.8</ele>
        <time>2022-03-19T12:18:16Z</time>
      </trkpt>
      <trkpt lat="46.52591" lon="5.39061">
        <ele>234</ele>
        <time>2022-03-19T12:18:19Z</time>
      </trkpt>
      <trkpt lat="46.52599" lon="5.39067">
        <ele>233.8</ele>
        <time>2022-03-19T12:18:20Z</time>
      </trkpt>
      <trkpt lat="46.52634" lon="5.391">
        <ele>232.8</ele>
        <time>2022-03-19T12:18:25Z</time>
      </trkpt>
      <trkpt lat="46.52657" lon="5.39119">
        <ele>231.6</ele>
        <time>2022-03-19T12:18:28Z</time>
      </trkpt>
      <trkpt lat="46.5268" lon="5.39136">
        <ele>229.8</ele>
        <time>2022-03-19T12:18:31Z</time>
      </trkpt>
      <trkpt lat="46.52704" lon="5.39151">
        <ele>228.4</ele>
        <time>2022-03-19T12:18:34Z</time>
      </trkpt>
      <trkpt lat="46.52713" lon="5.39155">
        <ele>228.4</ele>
        <time>2022-03-19T12:18:35Z</time>
      </trkpt>
      <trkpt lat="46.52738" lon="5.39166">
        <ele>227</ele>
        <time>2022-03-19T12:18:38Z</time>
      </trkpt>
      <trkpt lat="46.52755" lon="5.39171">
        <ele>226</ele>
        <time>2022-03-19T12:18:40Z</time>
      </trkpt>
      <trkpt lat="46.52772" lon="5.39176">
        <ele>225.4</ele>
        <time>2022-03-19T12:18:42Z</time>
      </trkpt>
      <trkpt lat="46.52788" lon="5.39177">
        <ele>225</ele>
        <time>2022-03-19T12:18:44Z</time>
      </trkpt>
      <trkpt lat="46.52795" lon="5.39176">
        <ele>224.8</ele>
        <time>2022-03-19T12:18:45Z</time>
      </trkpt>
      <trkpt lat="46.5283" lon="5.39165">
        <ele>224.8</ele>
        <time>2022-03-19T12:18:50Z</time>
      </trkpt>
      <trkpt lat="46.52869" lon="5.39152">
        <ele>226.2</ele>
        <time>2022-03-19T12:18:57Z</time>
      </trkpt>
      <trkpt lat="46.52883" lon="5.39148">
        <ele>227.4</ele>
        <time>2022-03-19T12:19:00Z</time>
      </trkpt>
      <trkpt lat="46.52896" lon="5.39143">
        <ele>228.4</ele>
        <time>2022-03-19T12:19:03Z</time>
      </trkpt>
      <trkpt lat="46.52901" lon="5.39141">
        <ele>228.4</ele>
        <time>2022-03-19T12:19:04Z</time>
      </trkpt>
      <trkpt lat="46.52919" lon="5.39136">
        <ele>229.8</ele>
        <time>2022-03-19T12:19:08Z</time>
      </trkpt>
      <trkpt lat="46.52937" lon="5.3913">
        <ele>230.6</ele>
        <time>2022-03-19T12:19:12Z</time>
      </trkpt>
      <trkpt lat="46.5294" lon="5.39128">
        <ele>230.8</ele>
        <time>2022-03-19T12:19:13Z</time>
      </trkpt>
      <trkpt lat="46.52949" lon="5.39122">
        <ele>231.4</ele>
        <time>2022-03-19T12:19:15Z</time>
      </trkpt>
      <trkpt lat="46.52955" lon="5.39116">
        <ele>231.6</ele>
        <time>2022-03-19T12:19:17Z</time>
      </trkpt>
      <trkpt lat="46.52959" lon="5.39112">
        <ele>231.8</ele>
        <time>2022-03-19T12:19:18Z</time>
      </trkpt>
      <trkpt lat="46.52972" lon="5.39095">
        <ele>233</ele>
        <time>2022-03-19T12:19:22Z</time>
      </trkpt>
      <trkpt lat="46.52981" lon="5.39082">
        <ele>233.6</ele>
        <time>2022-03-19T12:19:25Z</time>
      </trkpt>
      <trkpt lat="46.52987" lon="5.39074">
        <ele>234</ele>
        <time>2022-03-19T12:19:27Z</time>
      </trkpt>
      <trkpt lat="46.52996" lon="5.39062">
        <ele>235.2</ele>
        <time>2022-03-19T12:19:30Z</time>
      </trkpt>
      <trkpt lat="46.53003" lon="5.39057">
        <ele>235.6</ele>
        <time>2022-03-19T12:19:32Z</time>
      </trkpt>
      <trkpt lat="46.5301" lon="5.39055">
        <ele>236.2</ele>
        <time>2022-03-19T12:19:34Z</time>
      </trkpt>
      <trkpt lat="46.53017" lon="5.39057">
        <ele>236.6</ele>
        <time>2022-03-19T12:19:36Z</time>
      </trkpt>
      <trkpt lat="46.53029" lon="5.39066">
        <ele>237.2</ele>
        <time>2022-03-19T12:19:40Z</time>
      </trkpt>
      <trkpt lat="46.53041" lon="5.39075">
        <ele>238.4</ele>
        <time>2022-03-19T12:19:44Z</time>
      </trkpt>
      <trkpt lat="46.5305" lon="5.3908">
        <ele>239.6</ele>
        <time>2022-03-19T12:19:47Z</time>
      </trkpt>
      <trkpt lat="46.53061" lon="5.39083">
        <ele>240.4</ele>
        <time>2022-03-19T12:19:51Z</time>
      </trkpt>
      <trkpt lat="46.53063" lon="5.39084">
        <ele>240.8</ele>
        <time>2022-03-19T12:19:52Z</time>
      </trkpt>
      <trkpt lat="46.53066" lon="5.39086">
        <ele>241</ele>
        <time>2022-03-19T12:19:54Z</time>
      </trkpt>
      <trkpt lat="46.53067" lon="5.39088">
        <ele>241</ele>
        <time>2022-03-19T12:19:55Z</time>
      </trkpt>
      <trkpt lat="46.53067" lon="5.39089">
        <ele>241.2</ele>
        <time>2022-03-19T12:19:56Z</time>
      </trkpt>
      <trkpt lat="46.53066" lon="5.39091">
        <ele>241.4</ele>
        <time>2022-03-19T12:19:58Z</time>
      </trkpt>
      <trkpt lat="46.53063" lon="5.39096">
        <ele>241.4</ele>
        <time>2022-03-19T12:20:02Z</time>
      </trkpt>
      <trkpt lat="46.53063" lon="5.39097">
        <ele>241.4</ele>
        <time>2022-03-19T12:20:04Z</time>
      </trkpt>
      <trkpt lat="46.53063" lon="5.39097">
        <ele>241.6</ele>
        <time>2022-03-19T12:20:07Z</time>
      </trkpt>
      <trkpt lat="46.53071" lon="5.39089">
        <ele>244.4</ele>
        <time>2022-03-19T12:34:06Z</time>
      </trkpt>
      <trkpt lat="46.53073" lon="5.39088">
        <ele>244.4</ele>
        <time>2022-03-19T12:34:07Z</time>
      </trkpt>
      <trkpt lat="46.53084" lon="5.3909">
        <ele>244.4</ele>
        <time>2022-03-19T12:34:13Z</time>
      </trkpt>
      <trkpt lat="46.53098" lon="5.39092">
        <ele>244.6</ele>
        <time>2022-03-19T12:34:19Z</time>
      </trkpt>
      <trkpt lat="46.53112" lon="5.39094">
        <ele>245</ele>
        <time>2022-03-19T12:34:24Z</time>
      </trkpt>
      <trkpt lat="46.53135" lon="5.39104">
        <ele>245.4</ele>
        <time>2022-03-19T12:34:32Z</time>
      </trkpt>
      <trkpt lat="46.53158" lon="5.39114">
        <ele>245.8</ele>
        <time>2022-03-19T12:34:39Z</time>
      </trkpt>
      <trkpt lat="46.53171" lon="5.39121">
        <ele>246.4</ele>
        <time>2022-03-19T12:34:43Z</time>
      </trkpt>
      <trkpt lat="46.53183" lon="5.39128">
        <ele>246.6</ele>
        <time>2022-03-19T12:34:47Z</time>
      </trkpt>
      <trkpt lat="46.53211" lon="5.39146">
        <ele>246.6</ele>
        <time>2022-03-19T12:34:55Z</time>
      </trkpt>
      <trkpt lat="46.53228" lon="5.39156">
        <ele>246.4</ele>
        <time>2022-03-19T12:35:00Z</time>
      </trkpt>
      <trkpt lat="46.53239" lon="5.39163">
        <ele>246.6</ele>
        <time>2022-03-19T12:35:03Z</time>
      </trkpt>
      <trkpt lat="46.53268" lon="5.39182">
        <ele>246.8</ele>
        <time>2022-03-19T12:35:11Z</time>
      </trkpt>
      <trkpt lat="46.53311" lon="5.39207">
        <ele>247.4</ele>
        <time>2022-03-19T12:35:22Z</time>
      </trkpt>
      <trkpt lat="46.53317" lon="5.39212">
        <ele>247.6</ele>
        <time>2022-03-19T12:35:24Z</time>
      </trkpt>
      <trkpt lat="46.53345" lon="5.39231">
        <ele>248</ele>
        <time>2022-03-19T12:35:32Z</time>
      </trkpt>
      <trkpt lat="46.53358" lon="5.3923">
        <ele>248.4</ele>
        <time>2022-03-19T12:35:36Z</time>
      </trkpt>
      <trkpt lat="46.53366" lon="5.39207">
        <ele>248.2</ele>
        <time>2022-03-19T12:35:41Z</time>
      </trkpt>
      <trkpt lat="46.53369" lon="5.39194">
        <ele>248</ele>
        <time>2022-03-19T12:35:43Z</time>
      </trkpt>
      <trkpt lat="46.53375" lon="5.39174">
        <ele>247.6</ele>
        <time>2022-03-19T12:35:46Z</time>
      </trkpt>
      <trkpt lat="46.53389" lon="5.39129">
        <ele>246.4</ele>
        <time>2022-03-19T12:35:52Z</time>
      </trkpt>
      <trkpt lat="46.53405" lon="5.39079">
        <ele>245.4</ele>
        <time>2022-03-19T12:35:58Z</time>
      </trkpt>
      <trkpt lat="46.5341" lon="5.39063">
        <ele>245</ele>
        <time>2022-03-19T12:36:00Z</time>
      </trkpt>
      <trkpt lat="46.53419" lon="5.39033">
        <ele>244.2</ele>
        <time>2022-03-19T12:36:03Z</time>
      </trkpt>
      <trkpt lat="46.53428" lon="5.39005">
        <ele>243.2</ele>
        <time>2022-03-19T12:36:06Z</time>
      </trkpt>
      <trkpt lat="46.53434" lon="5.38985">
        <ele>242.8</ele>
        <time>2022-03-19T12:36:08Z</time>
      </trkpt>
      <trkpt lat="46.53452" lon="5.38927">
        <ele>241.6</ele>
        <time>2022-03-19T12:36:14Z</time>
      </trkpt>
      <trkpt lat="46.5346" lon="5.38897">
        <ele>240.4</ele>
        <time>2022-03-19T12:36:17Z</time>
      </trkpt>
      <trkpt lat="46.53463" lon="5.38887">
        <ele>239.8</ele>
        <time>2022-03-19T12:36:18Z</time>
      </trkpt>
      <trkpt lat="46.53469" lon="5.38867">
        <ele>239.2</ele>
        <time>2022-03-19T12:36:20Z</time>
      </trkpt>
      <trkpt lat="46.53482" lon="5.38827">
        <ele>238</ele>
        <time>2022-03-19T12:36:24Z</time>
      </trkpt>
      <trkpt lat="46.5349" lon="5.38798">
        <ele>237.2</ele>
        <time>2022-03-19T12:36:27Z</time>
      </trkpt>
      <trkpt lat="46.53494" lon="5.38778">
        <ele>236.8</ele>
        <time>2022-03-19T12:36:29Z</time>
      </trkpt>
      <trkpt lat="46.53498" lon="5.38759">
        <ele>236.2</ele>
        <time>2022-03-19T12:36:31Z</time>
      </trkpt>
      <trkpt lat="46.53502" lon="5.38752">
        <ele>235.8</ele>
        <time>2022-03-19T12:36:32Z</time>
      </trkpt>
      <trkpt lat="46.53508" lon="5.38747">
        <ele>235.6</ele>
        <time>2022-03-19T12:36:33Z</time>
      </trkpt>
      <trkpt lat="46.53522" lon="5.38746">
        <ele>235.2</ele>
        <time>2022-03-19T12:36:35Z</time>
      </trkpt>
      <trkpt lat="46.53528" lon="5.3875">
        <ele>235</ele>
        <time>2022-03-19T12:36:36Z</time>
      </trkpt>
      <trkpt lat="46.53534" lon="5.38756">
        <ele>235</ele>
        <time>2022-03-19T12:36:37Z</time>
      </trkpt>
      <trkpt lat="46.53542" lon="5.3877">
        <ele>234.8</ele>
        <time>2022-03-19T12:36:39Z</time>
      </trkpt>
      <trkpt lat="46.53555" lon="5.38793">
        <ele>234.8</ele>
        <time>2022-03-19T12:36:43Z</time>
      </trkpt>
      <trkpt lat="46.53562" lon="5.38801">
        <ele>235</ele>
        <time>2022-03-19T12:36:45Z</time>
      </trkpt>
      <trkpt lat="46.53573" lon="5.3881">
        <ele>235.8</ele>
        <time>2022-03-19T12:36:48Z</time>
      </trkpt>
      <trkpt lat="46.53598" lon="5.38824">
        <ele>236.8</ele>
        <time>2022-03-19T12:36:54Z</time>
      </trkpt>
      <trkpt lat="46.53602" lon="5.38826">
        <ele>237</ele>
        <time>2022-03-19T12:36:55Z</time>
      </trkpt>
      <trkpt lat="46.53628" lon="5.38842">
        <ele>237.4</ele>
        <time>2022-03-19T12:37:01Z</time>
      </trkpt>
      <trkpt lat="46.53637" lon="5.38848">
        <ele>237.6</ele>
        <time>2022-03-19T12:37:04Z</time>
      </trkpt>
      <trkpt lat="46.53676" lon="5.38867">
        <ele>237.2</ele>
        <time>2022-03-19T12:37:11Z</time>
      </trkpt>
      <trkpt lat="46.53712" lon="5.38882">
        <ele>236.8</ele>
        <time>2022-03-19T12:37:18Z</time>
      </trkpt>
      <trkpt lat="46.53756" lon="5.38898">
        <ele>236.2</ele>
        <time>2022-03-19T12:37:26Z</time>
      </trkpt>
      <trkpt lat="46.5379" lon="5.38907">
        <ele>235.8</ele>
        <time>2022-03-19T12:37:32Z</time>
      </trkpt>
      <trkpt lat="46.53818" lon="5.38916">
        <ele>236.2</ele>
        <time>2022-03-19T12:37:37Z</time>
      </trkpt>
      <trkpt lat="46.53849" lon="5.3893">
        <ele>236.4</ele>
        <time>2022-03-19T12:37:43Z</time>
      </trkpt>
      <trkpt lat="46.5386" lon="5.38933">
        <ele>236.4</ele>
        <time>2022-03-19T12:37:45Z</time>
      </trkpt>
      <trkpt lat="46.53895" lon="5.38936">
        <ele>236</ele>
        <time>2022-03-19T12:37:51Z</time>
      </trkpt>
      <trkpt lat="46.53907" lon="5.38936">
        <ele>236</ele>
        <time>2022-03-19T12:37:53Z</time>
      </trkpt>
      <trkpt lat="46.53938" lon="5.38939">
        <ele>235.4</ele>
        <time>2022-03-19T12:37:58Z</time>
      </trkpt>
      <trkpt lat="46.53961" lon="5.38941">
        <ele>235</ele>
        <time>2022-03-19T12:38:02Z</time>
      </trkpt>
      <trkpt lat="46.54008" lon="5.3895">
        <ele>234.4</ele>
        <time>2022-03-19T12:38:10Z</time>
      </trkpt>
      <trkpt lat="46.54053" lon="5.38963">
        <ele>234.2</ele>
        <time>2022-03-19T12:38:18Z</time>
      </trkpt>
      <trkpt lat="46.54075" lon="5.38974">
        <ele>233.8</ele>
        <time>2022-03-19T12:38:22Z</time>
      </trkpt>
      <trkpt lat="46.54098" lon="5.38983">
        <ele>233.4</ele>
        <time>2022-03-19T12:38:26Z</time>
      </trkpt>
      <trkpt lat="46.54156" lon="5.39004">
        <ele>233.6</ele>
        <time>2022-03-19T12:38:36Z</time>
      </trkpt>
      <trkpt lat="46.54161" lon="5.39007">
        <ele>233.6</ele>
        <time>2022-03-19T12:38:37Z</time>
      </trkpt>
      <trkpt lat="46.54215" lon="5.39029">
        <ele>233.6</ele>
        <time>2022-03-19T12:38:46Z</time>
      </trkpt>
      <trkpt lat="46.54227" lon="5.39036">
        <ele>233.6</ele>
        <time>2022-03-19T12:38:48Z</time>
      </trkpt>
      <trkpt lat="46.54269" lon="5.39058">
        <ele>233</ele>
        <time>2022-03-19T12:38:55Z</time>
      </trkpt>
      <trkpt lat="46.54275" lon="5.39061">
        <ele>233</ele>
        <time>2022-03-19T12:38:56Z</time>
      </trkpt>
      <trkpt lat="46.54299" lon="5.39074">
        <ele>232.6</ele>
        <time>2022-03-19T12:39:00Z</time>
      </trkpt>
      <trkpt lat="46.54351" lon="5.39099">
        <ele>232.2</ele>
        <time>2022-03-19T12:39:09Z</time>
      </trkpt>
      <trkpt lat="46.54402" lon="5.39118">
        <ele>232.4</ele>
        <time>2022-03-19T12:39:18Z</time>
      </trkpt>
      <trkpt lat="46.54427" lon="5.39126">
        <ele>232.6</ele>
        <time>2022-03-19T12:39:23Z</time>
      </trkpt>
      <trkpt lat="46.54449" lon="5.39132">
        <ele>233.8</ele>
        <time>2022-03-19T12:39:28Z</time>
      </trkpt>
      <trkpt lat="46.54453" lon="5.39134">
        <ele>234.4</ele>
        <time>2022-03-19T12:39:29Z</time>
      </trkpt>
      <trkpt lat="46.54458" lon="5.39135">
        <ele>234.6</ele>
        <time>2022-03-19T12:39:30Z</time>
      </trkpt>
      <trkpt lat="46.5447" lon="5.39139">
        <ele>235.2</ele>
        <time>2022-03-19T12:39:33Z</time>
      </trkpt>
      <trkpt lat="46.54473" lon="5.39141">
        <ele>235.6</ele>
        <time>2022-03-19T12:39:34Z</time>
      </trkpt>
      <trkpt lat="46.54476" lon="5.39143">
        <ele>235.8</ele>
        <time>2022-03-19T12:39:35Z</time>
      </trkpt>
      <trkpt lat="46.54479" lon="5.39144">
        <ele>236.6</ele>
        <time>2022-03-19T12:39:36Z</time>
      </trkpt>
      <trkpt lat="46.54488" lon="5.39148">
        <ele>237.4</ele>
        <time>2022-03-19T12:39:40Z</time>
      </trkpt>
      <trkpt lat="46.54491" lon="5.39148">
        <ele>237.8</ele>
        <time>2022-03-19T12:39:41Z</time>
      </trkpt>
      <trkpt lat="46.545" lon="5.39141">
        <ele>238.8</ele>
        <time>2022-03-19T12:39:45Z</time>
      </trkpt>
      <trkpt lat="46.54501" lon="5.39137">
        <ele>239</ele>
        <time>2022-03-19T12:39:46Z</time>
      </trkpt>
      <trkpt lat="46.54506" lon="5.39118">
        <ele>239.6</ele>
        <time>2022-03-19T12:39:51Z</time>
      </trkpt>
      <trkpt lat="46.54514" lon="5.39113">
        <ele>239.6</ele>
        <time>2022-03-19T12:39:53Z</time>
      </trkpt>
      <trkpt lat="46.54517" lon="5.39114">
        <ele>239.6</ele>
        <time>2022-03-19T12:39:54Z</time>
      </trkpt>
      <trkpt lat="46.54522" lon="5.39115">
        <ele>239.6</ele>
        <time>2022-03-19T12:39:55Z</time>
      </trkpt>
      <trkpt lat="46.54542" lon="5.39128">
        <ele>239.4</ele>
        <time>2022-03-19T12:39:59Z</time>
      </trkpt>
      <trkpt lat="46.54575" lon="5.39147">
        <ele>237.8</ele>
        <time>2022-03-19T12:40:05Z</time>
      </trkpt>
      <trkpt lat="46.54581" lon="5.3915">
        <ele>237.6</ele>
        <time>2022-03-19T12:40:06Z</time>
      </trkpt>
      <trkpt lat="46.54599" lon="5.39158">
        <ele>236.6</ele>
        <time>2022-03-19T12:40:09Z</time>
      </trkpt>
      <trkpt lat="46.54611" lon="5.39164">
        <ele>236.4</ele>
        <time>2022-03-19T12:40:11Z</time>
      </trkpt>
      <trkpt lat="46.54646" lon="5.39179">
        <ele>236</ele>
        <time>2022-03-19T12:40:17Z</time>
      </trkpt>
      <trkpt lat="46.54698" lon="5.39204">
        <ele>236.2</ele>
        <time>2022-03-19T12:40:26Z</time>
      </trkpt>
      <trkpt lat="46.54704" lon="5.39206">
        <ele>236.2</ele>
        <time>2022-03-19T12:40:27Z</time>
      </trkpt>
      <trkpt lat="46.54758" lon="5.39233">
        <ele>236</ele>
        <time>2022-03-19T12:40:36Z</time>
      </trkpt>
      <trkpt lat="46.54764" lon="5.39236">
        <ele>236</ele>
        <time>2022-03-19T12:40:37Z</time>
      </trkpt>
      <trkpt lat="46.5477" lon="5.39239">
        <ele>235.8</ele>
        <time>2022-03-19T12:40:38Z</time>
      </trkpt>
      <trkpt lat="46.54795" lon="5.39252">
        <ele>234.8</ele>
        <time>2022-03-19T12:40:42Z</time>
      </trkpt>
      <trkpt lat="46.54826" lon="5.39267">
        <ele>233.8</ele>
        <time>2022-03-19T12:40:47Z</time>
      </trkpt>
      <trkpt lat="46.5488" lon="5.3929">
        <ele>232.8</ele>
        <time>2022-03-19T12:40:55Z</time>
      </trkpt>
      <trkpt lat="46.54887" lon="5.39293">
        <ele>232.6</ele>
        <time>2022-03-19T12:40:56Z</time>
      </trkpt>
      <trkpt lat="46.54904" lon="5.39298">
        <ele>231.6</ele>
        <time>2022-03-19T12:40:58Z</time>
      </trkpt>
      <trkpt lat="46.54929" lon="5.39306">
        <ele>230</ele>
        <time>2022-03-19T12:41:01Z</time>
      </trkpt>
      <trkpt lat="46.54938" lon="5.3931">
        <ele>229.6</ele>
        <time>2022-03-19T12:41:02Z</time>
      </trkpt>
      <trkpt lat="46.54954" lon="5.39316">
        <ele>229.4</ele>
        <time>2022-03-19T12:41:04Z</time>
      </trkpt>
      <trkpt lat="46.54962" lon="5.39319">
        <ele>229.2</ele>
        <time>2022-03-19T12:41:05Z</time>
      </trkpt>
      <trkpt lat="46.54981" lon="5.39328">
        <ele>228.2</ele>
        <time>2022-03-19T12:41:07Z</time>
      </trkpt>
      <trkpt lat="46.54995" lon="5.39334">
        <ele>226.8</ele>
        <time>2022-03-19T12:41:09Z</time>
      </trkpt>
      <trkpt lat="46.5502" lon="5.39349">
        <ele>226.6</ele>
        <time>2022-03-19T12:41:13Z</time>
      </trkpt>
      <trkpt lat="46.55033" lon="5.39358">
        <ele>226.6</ele>
        <time>2022-03-19T12:41:16Z</time>
      </trkpt>
      <trkpt lat="46.55039" lon="5.39362">
        <ele>227.2</ele>
        <time>2022-03-19T12:41:18Z</time>
      </trkpt>
      <trkpt lat="46.55047" lon="5.39368">
        <ele>228.2</ele>
        <time>2022-03-19T12:41:20Z</time>
      </trkpt>
      <trkpt lat="46.55063" lon="5.39378">
        <ele>229.4</ele>
        <time>2022-03-19T12:41:24Z</time>
      </trkpt>
      <trkpt lat="46.55067" lon="5.3938">
        <ele>229.8</ele>
        <time>2022-03-19T12:41:25Z</time>
      </trkpt>
      <trkpt lat="46.55071" lon="5.39382">
        <ele>230</ele>
        <time>2022-03-19T12:41:26Z</time>
      </trkpt>
      <trkpt lat="46.55085" lon="5.39387">
        <ele>230.6</ele>
        <time>2022-03-19T12:41:29Z</time>
      </trkpt>
      <trkpt lat="46.55094" lon="5.39391">
        <ele>231.2</ele>
        <time>2022-03-19T12:41:31Z</time>
      </trkpt>
      <trkpt lat="46.55108" lon="5.39398">
        <ele>231.8</ele>
        <time>2022-03-19T12:41:34Z</time>
      </trkpt>
      <trkpt lat="46.55133" lon="5.3941">
        <ele>232</ele>
        <time>2022-03-19T12:41:39Z</time>
      </trkpt>
      <trkpt lat="46.55172" lon="5.39424">
        <ele>232.4</ele>
        <time>2022-03-19T12:41:47Z</time>
      </trkpt>
      <trkpt lat="46.55195" lon="5.39426">
        <ele>232.4</ele>
        <time>2022-03-19T12:41:51Z</time>
      </trkpt>
      <trkpt lat="46.55215" lon="5.39428">
        <ele>232.2</ele>
        <time>2022-03-19T12:41:54Z</time>
      </trkpt>
      <trkpt lat="46.55225" lon="5.39434">
        <ele>232.2</ele>
        <time>2022-03-19T12:41:56Z</time>
      </trkpt>
      <trkpt lat="46.55235" lon="5.39446">
        <ele>231.6</ele>
        <time>2022-03-19T12:41:58Z</time>
      </trkpt>
      <trkpt lat="46.55247" lon="5.39463">
        <ele>231.2</ele>
        <time>2022-03-19T12:42:01Z</time>
      </trkpt>
      <trkpt lat="46.55257" lon="5.39472">
        <ele>231</ele>
        <time>2022-03-19T12:42:03Z</time>
      </trkpt>
      <trkpt lat="46.55299" lon="5.39505">
        <ele>231.6</ele>
        <time>2022-03-19T12:42:11Z</time>
      </trkpt>
      <trkpt lat="46.55349" lon="5.39544">
        <ele>232.4</ele>
        <time>2022-03-19T12:42:21Z</time>
      </trkpt>
      <trkpt lat="46.55368" lon="5.39559">
        <ele>232.8</ele>
        <time>2022-03-19T12:42:25Z</time>
      </trkpt>
      <trkpt lat="46.55383" lon="5.39571">
        <ele>232.8</ele>
        <time>2022-03-19T12:42:28Z</time>
      </trkpt>
      <trkpt lat="46.55431" lon="5.39613">
        <ele>232</ele>
        <time>2022-03-19T12:42:37Z</time>
      </trkpt>
      <trkpt lat="46.55438" lon="5.39619">
        <ele>231.8</ele>
        <time>2022-03-19T12:42:38Z</time>
      </trkpt>
      <trkpt lat="46.5547" lon="5.39646">
        <ele>230.4</ele>
        <time>2022-03-19T12:42:43Z</time>
      </trkpt>
      <trkpt lat="46.55484" lon="5.39658">
        <ele>229.8</ele>
        <time>2022-03-19T12:42:45Z</time>
      </trkpt>
      <trkpt lat="46.55498" lon="5.39669">
        <ele>229.4</ele>
        <time>2022-03-19T12:42:47Z</time>
      </trkpt>
      <trkpt lat="46.55528" lon="5.39692">
        <ele>228.6</ele>
        <time>2022-03-19T12:42:52Z</time>
      </trkpt>
      <trkpt lat="46.55556" lon="5.39715">
        <ele>228.6</ele>
        <time>2022-03-19T12:42:57Z</time>
      </trkpt>
      <trkpt lat="46.55573" lon="5.3973">
        <ele>228.6</ele>
        <time>2022-03-19T12:43:00Z</time>
      </trkpt>
      <trkpt lat="46.5559" lon="5.39744">
        <ele>228.2</ele>
        <time>2022-03-19T12:43:03Z</time>
      </trkpt>
      <trkpt lat="46.5562" lon="5.39767">
        <ele>227.6</ele>
        <time>2022-03-19T12:43:08Z</time>
      </trkpt>
      <trkpt lat="46.55644" lon="5.39784">
        <ele>227.8</ele>
        <time>2022-03-19T12:43:13Z</time>
      </trkpt>
      <trkpt lat="46.55654" lon="5.39791">
        <ele>228.2</ele>
        <time>2022-03-19T12:43:15Z</time>
      </trkpt>
      <trkpt lat="46.55679" lon="5.39808">
        <ele>229.4</ele>
        <time>2022-03-19T12:43:20Z</time>
      </trkpt>
      <trkpt lat="46.55711" lon="5.39837">
        <ele>230.2</ele>
        <time>2022-03-19T12:43:27Z</time>
      </trkpt>
      <trkpt lat="46.55716" lon="5.39841">
        <ele>230.2</ele>
        <time>2022-03-19T12:43:28Z</time>
      </trkpt>
      <trkpt lat="46.55748" lon="5.39873">
        <ele>228.8</ele>
        <time>2022-03-19T12:43:34Z</time>
      </trkpt>
      <trkpt lat="46.5576" lon="5.39882">
        <ele>228</ele>
        <time>2022-03-19T12:43:36Z</time>
      </trkpt>
      <trkpt lat="46.55776" lon="5.39894">
        <ele>227.2</ele>
        <time>2022-03-19T12:43:39Z</time>
      </trkpt>
      <trkpt lat="46.55781" lon="5.39898">
        <ele>226.8</ele>
        <time>2022-03-19T12:43:40Z</time>
      </trkpt>
      <trkpt lat="46.55796" lon="5.39908">
        <ele>226.4</ele>
        <time>2022-03-19T12:43:43Z</time>
      </trkpt>
      <trkpt lat="46.55805" lon="5.39914">
        <ele>226</ele>
        <time>2022-03-19T12:43:45Z</time>
      </trkpt>
      <trkpt lat="46.55814" lon="5.39912">
        <ele>225.8</ele>
        <time>2022-03-19T12:43:47Z</time>
      </trkpt>
      <trkpt lat="46.55817" lon="5.39908">
        <ele>225.8</ele>
        <time>2022-03-19T12:43:48Z</time>
      </trkpt>
      <trkpt lat="46.55827" lon="5.39875">
        <ele>225.2</ele>
        <time>2022-03-19T12:43:52Z</time>
      </trkpt>
      <trkpt lat="46.55835" lon="5.39843">
        <ele>225</ele>
        <time>2022-03-19T12:43:56Z</time>
      </trkpt>
      <trkpt lat="46.55845" lon="5.39802">
        <ele>225</ele>
        <time>2022-03-19T12:44:01Z</time>
      </trkpt>
      <trkpt lat="46.55861" lon="5.39744">
        <ele>225.4</ele>
        <time>2022-03-19T12:44:08Z</time>
      </trkpt>
      <trkpt lat="46.55879" lon="5.39673">
        <ele>224.4</ele>
        <time>2022-03-19T12:44:16Z</time>
      </trkpt>
      <trkpt lat="46.55888" lon="5.39634">
        <ele>223.8</ele>
        <time>2022-03-19T12:44:20Z</time>
      </trkpt>
      <trkpt lat="46.55895" lon="5.39588">
        <ele>222.8</ele>
        <time>2022-03-19T12:44:25Z</time>
      </trkpt>
      <trkpt lat="46.55897" lon="5.39579">
        <ele>222.6</ele>
        <time>2022-03-19T12:44:26Z</time>
      </trkpt>
      <trkpt lat="46.55906" lon="5.39498">
        <ele>222</ele>
        <time>2022-03-19T12:44:35Z</time>
      </trkpt>
      <trkpt lat="46.55908" lon="5.39489">
        <ele>221.8</ele>
        <time>2022-03-19T12:44:36Z</time>
      </trkpt>
      <trkpt lat="46.55912" lon="5.3945">
        <ele>221.4</ele>
        <time>2022-03-19T12:44:40Z</time>
      </trkpt>
      <trkpt lat="46.5592" lon="5.39372">
        <ele>220.6</ele>
        <time>2022-03-19T12:44:48Z</time>
      </trkpt>
      <trkpt lat="46.55922" lon="5.39353">
        <ele>220.4</ele>
        <time>2022-03-19T12:44:50Z</time>
      </trkpt>
      <trkpt lat="46.55927" lon="5.39314">
        <ele>219</ele>
        <time>2022-03-19T12:44:54Z</time>
      </trkpt>
      <trkpt lat="46.55935" lon="5.39255">
        <ele>218.2</ele>
        <time>2022-03-19T12:45:00Z</time>
      </trkpt>
      <trkpt lat="46.55937" lon="5.39225">
        <ele>218</ele>
        <time>2022-03-19T12:45:03Z</time>
      </trkpt>
      <trkpt lat="46.55939" lon="5.39176">
        <ele>217.6</ele>
        <time>2022-03-19T12:45:08Z</time>
      </trkpt>
      <trkpt lat="46.55943" lon="5.39091">
        <ele>217.6</ele>
        <time>2022-03-19T12:45:17Z</time>
      </trkpt>
      <trkpt lat="46.55947" lon="5.39039">
        <ele>216.6</ele>
        <time>2022-03-19T12:45:22Z</time>
      </trkpt>
      <trkpt lat="46.55949" lon="5.39028">
        <ele>216.4</ele>
        <time>2022-03-19T12:45:23Z</time>
      </trkpt>
      <trkpt lat="46.55957" lon="5.38994">
        <ele>215.4</ele>
        <time>2022-03-19T12:45:26Z</time>
      </trkpt>
      <trkpt lat="46.5596" lon="5.38983">
        <ele>215</ele>
        <time>2022-03-19T12:45:27Z</time>
      </trkpt>
      <trkpt lat="46.55967" lon="5.38963">
        <ele>214</ele>
        <time>2022-03-19T12:45:29Z</time>
      </trkpt>
      <trkpt lat="46.55984" lon="5.38916">
        <ele>212.8</ele>
        <time>2022-03-19T12:45:34Z</time>
      </trkpt>
      <trkpt lat="46.56" lon="5.38864">
        <ele>212.4</ele>
        <time>2022-03-19T12:45:40Z</time>
      </trkpt>
      <trkpt lat="46.56012" lon="5.38806">
        <ele>212.8</ele>
        <time>2022-03-19T12:45:47Z</time>
      </trkpt>
      <trkpt lat="46.56012" lon="5.3877">
        <ele>214</ele>
        <time>2022-03-19T12:45:52Z</time>
      </trkpt>
      <trkpt lat="46.56009" lon="5.38744">
        <ele>215.4</ele>
        <time>2022-03-19T12:45:56Z</time>
      </trkpt>
      <trkpt lat="46.56006" lon="5.38724">
        <ele>216</ele>
        <time>2022-03-19T12:45:59Z</time>
      </trkpt>
      <trkpt lat="46.56005" lon="5.3871">
        <ele>217</ele>
        <time>2022-03-19T12:46:01Z</time>
      </trkpt>
      <trkpt lat="46.56003" lon="5.38678">
        <ele>217.8</ele>
        <time>2022-03-19T12:46:05Z</time>
      </trkpt>
      <trkpt lat="46.56003" lon="5.38671">
        <ele>218</ele>
        <time>2022-03-19T12:46:06Z</time>
      </trkpt>
      <trkpt lat="46.56003" lon="5.38656">
        <ele>218.2</ele>
        <time>2022-03-19T12:46:08Z</time>
      </trkpt>
      <trkpt lat="46.55994" lon="5.38599">
        <ele>218.4</ele>
        <time>2022-03-19T12:46:15Z</time>
      </trkpt>
      <trkpt lat="46.55985" lon="5.38533">
        <ele>218.6</ele>
        <time>2022-03-19T12:46:23Z</time>
      </trkpt>
      <trkpt lat="46.55981" lon="5.38477">
        <ele>219</ele>
        <time>2022-03-19T12:46:30Z</time>
      </trkpt>
      <trkpt lat="46.55981" lon="5.38467">
        <ele>219.2</ele>
        <time>2022-03-19T12:46:31Z</time>
      </trkpt>
      <trkpt lat="46.55987" lon="5.38406">
        <ele>219.2</ele>
        <time>2022-03-19T12:46:38Z</time>
      </trkpt>
      <trkpt lat="46.55994" lon="5.38342">
        <ele>218.4</ele>
        <time>2022-03-19T12:46:45Z</time>
      </trkpt>
      <trkpt lat="46.56" lon="5.38304">
        <ele>218</ele>
        <time>2022-03-19T12:46:49Z</time>
      </trkpt>
      <trkpt lat="46.56005" lon="5.38272">
        <ele>217.2</ele>
        <time>2022-03-19T12:46:52Z</time>
      </trkpt>
      <trkpt lat="46.56007" lon="5.38255">
        <ele>216.8</ele>
        <time>2022-03-19T12:46:54Z</time>
      </trkpt>
      <trkpt lat="46.56014" lon="5.38215">
        <ele>216.4</ele>
        <time>2022-03-19T12:46:58Z</time>
      </trkpt>
      <trkpt lat="46.56016" lon="5.38206">
        <ele>216.4</ele>
        <time>2022-03-19T12:46:59Z</time>
      </trkpt>
      <trkpt lat="46.56024" lon="5.38192">
        <ele>216.4</ele>
        <time>2022-03-19T12:47:01Z</time>
      </trkpt>
      <trkpt lat="46.5605" lon="5.38168">
        <ele>216</ele>
        <time>2022-03-19T12:47:06Z</time>
      </trkpt>
      <trkpt lat="46.56061" lon="5.3816">
        <ele>215.8</ele>
        <time>2022-03-19T12:47:08Z</time>
      </trkpt>
      <trkpt lat="46.56111" lon="5.38126">
        <ele>215.4</ele>
        <time>2022-03-19T12:47:17Z</time>
      </trkpt>
      <trkpt lat="46.56141" lon="5.38102">
        <ele>215.2</ele>
        <time>2022-03-19T12:47:22Z</time>
      </trkpt>
      <trkpt lat="46.56152" lon="5.38091">
        <ele>215.2</ele>
        <time>2022-03-19T12:47:24Z</time>
      </trkpt>
      <trkpt lat="46.56177" lon="5.38049">
        <ele>215</ele>
        <time>2022-03-19T12:47:30Z</time>
      </trkpt>
      <trkpt lat="46.56188" lon="5.38027">
        <ele>214.8</ele>
        <time>2022-03-19T12:47:33Z</time>
      </trkpt>
      <trkpt lat="46.56205" lon="5.37998">
        <ele>214.6</ele>
        <time>2022-03-19T12:47:37Z</time>
      </trkpt>
      <trkpt lat="46.56215" lon="5.37988">
        <ele>214.6</ele>
        <time>2022-03-19T12:47:39Z</time>
      </trkpt>
      <trkpt lat="46.56235" lon="5.37974">
        <ele>214.4</ele>
        <time>2022-03-19T12:47:42Z</time>
      </trkpt>
      <trkpt lat="46.56287" lon="5.37951">
        <ele>214.2</ele>
        <time>2022-03-19T12:47:50Z</time>
      </trkpt>
      <trkpt lat="46.56293" lon="5.37949">
        <ele>214</ele>
        <time>2022-03-19T12:47:51Z</time>
      </trkpt>
      <trkpt lat="46.56324" lon="5.3795">
        <ele>214</ele>
        <time>2022-03-19T12:47:56Z</time>
      </trkpt>
      <trkpt lat="46.56343" lon="5.3795">
        <ele>214</ele>
        <time>2022-03-19T12:47:59Z</time>
      </trkpt>
      <trkpt lat="46.56354" lon="5.37947">
        <ele>214</ele>
        <time>2022-03-19T12:48:01Z</time>
      </trkpt>
      <trkpt lat="46.5639" lon="5.3793">
        <ele>214.2</ele>
        <time>2022-03-19T12:48:07Z</time>
      </trkpt>
      <trkpt lat="46.56402" lon="5.37928">
        <ele>214.4</ele>
        <time>2022-03-19T12:48:09Z</time>
      </trkpt>
      <trkpt lat="46.5642" lon="5.37932">
        <ele>214.6</ele>
        <time>2022-03-19T12:48:12Z</time>
      </trkpt>
      <trkpt lat="46.56459" lon="5.37942">
        <ele>215.8</ele>
        <time>2022-03-19T12:48:19Z</time>
      </trkpt>
      <trkpt lat="46.56482" lon="5.37947">
        <ele>216.4</ele>
        <time>2022-03-19T12:48:23Z</time>
      </trkpt>
      <trkpt lat="46.56512" lon="5.3795">
        <ele>216.8</ele>
        <time>2022-03-19T12:48:28Z</time>
      </trkpt>
      <trkpt lat="46.56517" lon="5.37948">
        <ele>216.8</ele>
        <time>2022-03-19T12:48:29Z</time>
      </trkpt>
      <trkpt lat="46.56523" lon="5.37945">
        <ele>217</ele>
        <time>2022-03-19T12:48:30Z</time>
      </trkpt>
      <trkpt lat="46.56545" lon="5.37931">
        <ele>217</ele>
        <time>2022-03-19T12:48:34Z</time>
      </trkpt>
      <trkpt lat="46.5657" lon="5.37916">
        <ele>217.2</ele>
        <time>2022-03-19T12:48:39Z</time>
      </trkpt>
      <trkpt lat="46.56577" lon="5.37915">
        <ele>217.4</ele>
        <time>2022-03-19T12:48:40Z</time>
      </trkpt>
      <trkpt lat="46.5661" lon="5.37916">
        <ele>218</ele>
        <time>2022-03-19T12:48:46Z</time>
      </trkpt>
      <trkpt lat="46.56616" lon="5.37917">
        <ele>218</ele>
        <time>2022-03-19T12:48:47Z</time>
      </trkpt>
      <trkpt lat="46.56666" lon="5.37928">
        <ele>218.4</ele>
        <time>2022-03-19T12:48:55Z</time>
      </trkpt>
      <trkpt lat="46.56684" lon="5.37931">
        <ele>218.4</ele>
        <time>2022-03-19T12:48:58Z</time>
      </trkpt>
      <trkpt lat="46.56708" lon="5.37937">
        <ele>218</ele>
        <time>2022-03-19T12:49:02Z</time>
      </trkpt>
      <trkpt lat="46.5676" lon="5.37949">
        <ele>217.2</ele>
        <time>2022-03-19T12:49:10Z</time>
      </trkpt>
      <trkpt lat="46.5678" lon="5.37954">
        <ele>217</ele>
        <time>2022-03-19T12:49:13Z</time>
      </trkpt>
      <trkpt lat="46.56824" lon="5.37964">
        <ele>216.6</ele>
        <time>2022-03-19T12:49:20Z</time>
      </trkpt>
      <trkpt lat="46.56881" lon="5.37976">
        <ele>216.4</ele>
        <time>2022-03-19T12:49:29Z</time>
      </trkpt>
      <trkpt lat="46.56888" lon="5.37977">
        <ele>216.4</ele>
        <time>2022-03-19T12:49:30Z</time>
      </trkpt>
      <trkpt lat="46.56937" lon="5.37988">
        <ele>216</ele>
        <time>2022-03-19T12:49:37Z</time>
      </trkpt>
      <trkpt lat="46.56943" lon="5.37987">
        <ele>215.8</ele>
        <time>2022-03-19T12:49:38Z</time>
      </trkpt>
      <trkpt lat="46.5695" lon="5.37986">
        <ele>215.6</ele>
        <time>2022-03-19T12:49:39Z</time>
      </trkpt>
      <trkpt lat="46.56973" lon="5.37974">
        <ele>215</ele>
        <time>2022-03-19T12:49:42Z</time>
      </trkpt>
      <trkpt lat="46.56979" lon="5.3797">
        <ele>214.8</ele>
        <time>2022-03-19T12:49:43Z</time>
      </trkpt>
      <trkpt lat="46.56999" lon="5.37956">
        <ele>213.4</ele>
        <time>2022-03-19T12:49:46Z</time>
      </trkpt>
      <trkpt lat="46.5704" lon="5.37926">
        <ele>212.6</ele>
        <time>2022-03-19T12:49:52Z</time>
      </trkpt>
      <trkpt lat="46.57047" lon="5.3792">
        <ele>212.4</ele>
        <time>2022-03-19T12:49:53Z</time>
      </trkpt>
      <trkpt lat="46.57074" lon="5.37896">
        <ele>211.8</ele>
        <time>2022-03-19T12:49:57Z</time>
      </trkpt>
      <trkpt lat="46.57092" lon="5.37882">
        <ele>211.4</ele>
        <time>2022-03-19T12:50:00Z</time>
      </trkpt>
      <trkpt lat="46.57104" lon="5.37871">
        <ele>211.4</ele>
        <time>2022-03-19T12:50:02Z</time>
      </trkpt>
      <trkpt lat="46.5714" lon="5.37838">
        <ele>211</ele>
        <time>2022-03-19T12:50:08Z</time>
      </trkpt>
      <trkpt lat="46.57167" lon="5.37811">
        <ele>212.4</ele>
        <time>2022-03-19T12:50:14Z</time>
      </trkpt>
      <trkpt lat="46.57172" lon="5.37806">
        <ele>212.4</ele>
        <time>2022-03-19T12:50:15Z</time>
      </trkpt>
      <trkpt lat="46.57176" lon="5.37801">
        <ele>212.8</ele>
        <time>2022-03-19T12:50:16Z</time>
      </trkpt>
      <trkpt lat="46.57189" lon="5.37785">
        <ele>213.4</ele>
        <time>2022-03-19T12:50:19Z</time>
      </trkpt>
      <trkpt lat="46.57193" lon="5.37781">
        <ele>213.6</ele>
        <time>2022-03-19T12:50:20Z</time>
      </trkpt>
      <trkpt lat="46.57209" lon="5.37763">
        <ele>214.6</ele>
        <time>2022-03-19T12:50:24Z</time>
      </trkpt>
      <trkpt lat="46.57212" lon="5.3776">
        <ele>214.6</ele>
        <time>2022-03-19T12:50:25Z</time>
      </trkpt>
      <trkpt lat="46.57216" lon="5.37757">
        <ele>214.8</ele>
        <time>2022-03-19T12:50:26Z</time>
      </trkpt>
      <trkpt lat="46.57226" lon="5.37757">
        <ele>214.8</ele>
        <time>2022-03-19T12:50:28Z</time>
      </trkpt>
      <trkpt lat="46.57233" lon="5.37765">
        <ele>214.8</ele>
        <time>2022-03-19T12:50:30Z</time>
      </trkpt>
      <trkpt lat="46.57242" lon="5.3778">
        <ele>214.8</ele>
        <time>2022-03-19T12:50:32Z</time>
      </trkpt>
      <trkpt lat="46.57262" lon="5.37821">
        <ele>213.8</ele>
        <time>2022-03-19T12:50:37Z</time>
      </trkpt>
      <trkpt lat="46.57275" lon="5.37849">
        <ele>213.4</ele>
        <time>2022-03-19T12:50:40Z</time>
      </trkpt>
      <trkpt lat="46.57289" lon="5.37878">
        <ele>212.4</ele>
        <time>2022-03-19T12:50:43Z</time>
      </trkpt>
      <trkpt lat="46.57306" lon="5.37913">
        <ele>211.2</ele>
        <time>2022-03-19T12:50:46Z</time>
      </trkpt>
      <trkpt lat="46.57322" lon="5.37945">
        <ele>210.4</ele>
        <time>2022-03-19T12:50:49Z</time>
      </trkpt>
      <trkpt lat="46.57328" lon="5.37955">
        <ele>210.2</ele>
        <time>2022-03-19T12:50:50Z</time>
      </trkpt>
      <trkpt lat="46.57341" lon="5.37984">
        <ele>208.6</ele>
        <time>2022-03-19T12:50:53Z</time>
      </trkpt>
      <trkpt lat="46.5735" lon="5.38003">
        <ele>207.8</ele>
        <time>2022-03-19T12:50:55Z</time>
      </trkpt>
      <trkpt lat="46.57359" lon="5.38024">
        <ele>207.4</ele>
        <time>2022-03-19T12:50:57Z</time>
      </trkpt>
      <trkpt lat="46.57374" lon="5.38055">
        <ele>206</ele>
        <time>2022-03-19T12:51:00Z</time>
      </trkpt>
      <trkpt lat="46.57379" lon="5.38065">
        <ele>205.8</ele>
        <time>2022-03-19T12:51:01Z</time>
      </trkpt>
      <trkpt lat="46.57385" lon="5.38075">
        <ele>205.4</ele>
        <time>2022-03-19T12:51:02Z</time>
      </trkpt>
      <trkpt lat="46.57399" lon="5.38091">
        <ele>204.8</ele>
        <time>2022-03-19T12:51:04Z</time>
      </trkpt>
      <trkpt lat="46.57423" lon="5.38109">
        <ele>203.4</ele>
        <time>2022-03-19T12:51:07Z</time>
      </trkpt>
      <trkpt lat="46.57446" lon="5.38127">
        <ele>202.2</ele>
        <time>2022-03-19T12:51:10Z</time>
      </trkpt>
      <trkpt lat="46.57453" lon="5.38133">
        <ele>201.8</ele>
        <time>2022-03-19T12:51:11Z</time>
      </trkpt>
      <trkpt lat="46.57487" lon="5.38159">
        <ele>201.4</ele>
        <time>2022-03-19T12:51:16Z</time>
      </trkpt>
      <trkpt lat="46.57531" lon="5.38193">
        <ele>201.2</ele>
        <time>2022-03-19T12:51:23Z</time>
      </trkpt>
      <trkpt lat="46.57563" lon="5.38218">
        <ele>201.2</ele>
        <time>2022-03-19T12:51:28Z</time>
      </trkpt>
      <trkpt lat="46.57579" lon="5.38235">
        <ele>201.2</ele>
        <time>2022-03-19T12:51:31Z</time>
      </trkpt>
      <trkpt lat="46.57585" lon="5.38242">
        <ele>201.6</ele>
        <time>2022-03-19T12:51:32Z</time>
      </trkpt>
      <trkpt lat="46.57602" lon="5.38267">
        <ele>201.6</ele>
        <time>2022-03-19T12:51:36Z</time>
      </trkpt>
      <trkpt lat="46.57606" lon="5.38274">
        <ele>201.8</ele>
        <time>2022-03-19T12:51:37Z</time>
      </trkpt>
      <trkpt lat="46.57617" lon="5.383">
        <ele>202.4</ele>
        <time>2022-03-19T12:51:41Z</time>
      </trkpt>
      <trkpt lat="46.57621" lon="5.38312">
        <ele>203</ele>
        <time>2022-03-19T12:51:43Z</time>
      </trkpt>
      <trkpt lat="46.57628" lon="5.38319">
        <ele>203.4</ele>
        <time>2022-03-19T12:51:45Z</time>
      </trkpt>
      <trkpt lat="46.57637" lon="5.38322">
        <ele>204</ele>
        <time>2022-03-19T12:51:47Z</time>
      </trkpt>
      <trkpt lat="46.57641" lon="5.3832">
        <ele>204.2</ele>
        <time>2022-03-19T12:51:48Z</time>
      </trkpt>
      <trkpt lat="46.5765" lon="5.38316">
        <ele>204.6</ele>
        <time>2022-03-19T12:51:50Z</time>
      </trkpt>
      <trkpt lat="46.57655" lon="5.38313">
        <ele>204.8</ele>
        <time>2022-03-19T12:51:51Z</time>
      </trkpt>
      <trkpt lat="46.57666" lon="5.38311">
        <ele>205.6</ele>
        <time>2022-03-19T12:51:53Z</time>
      </trkpt>
      <trkpt lat="46.5767" lon="5.3831">
        <ele>205.8</ele>
        <time>2022-03-19T12:51:54Z</time>
      </trkpt>
      <trkpt lat="46.57709" lon="5.38302">
        <ele>206.6</ele>
        <time>2022-03-19T12:52:01Z</time>
      </trkpt>
      <trkpt lat="46.57714" lon="5.383">
        <ele>206.8</ele>
        <time>2022-03-19T12:52:02Z</time>
      </trkpt>
      <trkpt lat="46.57754" lon="5.3828">
        <ele>207.4</ele>
        <time>2022-03-19T12:52:09Z</time>
      </trkpt>
      <trkpt lat="46.57792" lon="5.38244">
        <ele>207</ele>
        <time>2022-03-19T12:52:16Z</time>
      </trkpt>
      <trkpt lat="46.57843" lon="5.38197">
        <ele>205.8</ele>
        <time>2022-03-19T12:52:25Z</time>
      </trkpt>
      <trkpt lat="46.57852" lon="5.38183">
        <ele>205.8</ele>
        <time>2022-03-19T12:52:27Z</time>
      </trkpt>
      <trkpt lat="46.57859" lon="5.38168">
        <ele>205.6</ele>
        <time>2022-03-19T12:52:29Z</time>
      </trkpt>
      <trkpt lat="46.57883" lon="5.38103">
        <ele>205.2</ele>
        <time>2022-03-19T12:52:37Z</time>
      </trkpt>
      <trkpt lat="46.57907" lon="5.38031">
        <ele>205.2</ele>
        <time>2022-03-19T12:52:46Z</time>
      </trkpt>
      <trkpt lat="46.57912" lon="5.38022">
        <ele>205.4</ele>
        <time>2022-03-19T12:52:47Z</time>
      </trkpt>
      <trkpt lat="46.57915" lon="5.38016">
        <ele>205.4</ele>
        <time>2022-03-19T12:52:48Z</time>
      </trkpt>
      <trkpt lat="46.57932" lon="5.37997">
        <ele>205.2</ele>
        <time>2022-03-19T12:52:51Z</time>
      </trkpt>
      <trkpt lat="46.57967" lon="5.37975">
        <ele>204.4</ele>
        <time>2022-03-19T12:52:56Z</time>
      </trkpt>
      <trkpt lat="46.57974" lon="5.37969">
        <ele>204</ele>
        <time>2022-03-19T12:52:57Z</time>
      </trkpt>
      <trkpt lat="46.57996" lon="5.37951">
        <ele>203.4</ele>
        <time>2022-03-19T12:53:00Z</time>
      </trkpt>
      <trkpt lat="46.58003" lon="5.37946">
        <ele>203</ele>
        <time>2022-03-19T12:53:01Z</time>
      </trkpt>
      <trkpt lat="46.58016" lon="5.37939">
        <ele>202.4</ele>
        <time>2022-03-19T12:53:03Z</time>
      </trkpt>
      <trkpt lat="46.58024" lon="5.37935">
        <ele>202.2</ele>
        <time>2022-03-19T12:53:04Z</time>
      </trkpt>
      <trkpt lat="46.58038" lon="5.37931">
        <ele>202</ele>
        <time>2022-03-19T12:53:06Z</time>
      </trkpt>
      <trkpt lat="46.58097" lon="5.37914">
        <ele>201.8</ele>
        <time>2022-03-19T12:53:14Z</time>
      </trkpt>
      <trkpt lat="46.58104" lon="5.37912">
        <ele>201.6</ele>
        <time>2022-03-19T12:53:15Z</time>
      </trkpt>
      <trkpt lat="46.58129" lon="5.37899">
        <ele>201.6</ele>
        <time>2022-03-19T12:53:19Z</time>
      </trkpt>
      <trkpt lat="46.58152" lon="5.3788">
        <ele>201.6</ele>
        <time>2022-03-19T12:53:23Z</time>
      </trkpt>
      <trkpt lat="46.58157" lon="5.37877">
        <ele>201.6</ele>
        <time>2022-03-19T12:53:24Z</time>
      </trkpt>
      <trkpt lat="46.58164" lon="5.37876">
        <ele>201.6</ele>
        <time>2022-03-19T12:53:25Z</time>
      </trkpt>
      <trkpt lat="46.58178" lon="5.37876">
        <ele>201.6</ele>
        <time>2022-03-19T12:53:27Z</time>
      </trkpt>
      <trkpt lat="46.58183" lon="5.37878">
        <ele>201.8</ele>
        <time>2022-03-19T12:53:28Z</time>
      </trkpt>
      <trkpt lat="46.58189" lon="5.3788">
        <ele>201.8</ele>
        <time>2022-03-19T12:53:29Z</time>
      </trkpt>
      <trkpt lat="46.58211" lon="5.37893">
        <ele>202.2</ele>
        <time>2022-03-19T12:53:33Z</time>
      </trkpt>
      <trkpt lat="46.58244" lon="5.37915">
        <ele>203.2</ele>
        <time>2022-03-19T12:53:40Z</time>
      </trkpt>
      <trkpt lat="46.58249" lon="5.37918">
        <ele>203.4</ele>
        <time>2022-03-19T12:53:41Z</time>
      </trkpt>
      <trkpt lat="46.5828" lon="5.37938">
        <ele>204.6</ele>
        <time>2022-03-19T12:53:48Z</time>
      </trkpt>
      <trkpt lat="46.5829" lon="5.37945">
        <ele>204.6</ele>
        <time>2022-03-19T12:53:50Z</time>
      </trkpt>
      <trkpt lat="46.58294" lon="5.37947">
        <ele>204.8</ele>
        <time>2022-03-19T12:53:51Z</time>
      </trkpt>
      <trkpt lat="46.58323" lon="5.37965">
        <ele>205.6</ele>
        <time>2022-03-19T12:53:57Z</time>
      </trkpt>
      <trkpt lat="46.58328" lon="5.37968">
        <ele>205.6</ele>
        <time>2022-03-19T12:53:58Z</time>
      </trkpt>
      <trkpt lat="46.58342" lon="5.37975">
        <ele>206</ele>
        <time>2022-03-19T12:54:01Z</time>
      </trkpt>
      <trkpt lat="46.5838" lon="5.37989">
        <ele>206.8</ele>
        <time>2022-03-19T12:54:08Z</time>
      </trkpt>
      <trkpt lat="46.58394" lon="5.37995">
        <ele>207.4</ele>
        <time>2022-03-19T12:54:11Z</time>
      </trkpt>
      <trkpt lat="46.58419" lon="5.38004">
        <ele>208</ele>
        <time>2022-03-19T12:54:16Z</time>
      </trkpt>
      <trkpt lat="46.58433" lon="5.3801">
        <ele>208.8</ele>
        <time>2022-03-19T12:54:19Z</time>
      </trkpt>
      <trkpt lat="46.58437" lon="5.38012">
        <ele>209</ele>
        <time>2022-03-19T12:54:20Z</time>
      </trkpt>
      <trkpt lat="46.58454" lon="5.38019">
        <ele>210</ele>
        <time>2022-03-19T12:54:24Z</time>
      </trkpt>
      <trkpt lat="46.5847" lon="5.38027">
        <ele>210.8</ele>
        <time>2022-03-19T12:54:28Z</time>
      </trkpt>
      <trkpt lat="46.5848" lon="5.3803">
        <ele>211</ele>
        <time>2022-03-19T12:54:30Z</time>
      </trkpt>
      <trkpt lat="46.5849" lon="5.38031">
        <ele>211.4</ele>
        <time>2022-03-19T12:54:32Z</time>
      </trkpt>
      <trkpt lat="46.58499" lon="5.38031">
        <ele>212</ele>
        <time>2022-03-19T12:54:34Z</time>
      </trkpt>
      <trkpt lat="46.58505" lon="5.3803">
        <ele>212.2</ele>
        <time>2022-03-19T12:54:35Z</time>
      </trkpt>
      <trkpt lat="46.5851" lon="5.38029">
        <ele>212.2</ele>
        <time>2022-03-19T12:54:36Z</time>
      </trkpt>
      <trkpt lat="46.58535" lon="5.38016">
        <ele>213.2</ele>
        <time>2022-03-19T12:54:41Z</time>
      </trkpt>
      <trkpt lat="46.5855" lon="5.38007">
        <ele>213.4</ele>
        <time>2022-03-19T12:54:44Z</time>
      </trkpt>
      <trkpt lat="46.58557" lon="5.38004">
        <ele>213.4</ele>
        <time>2022-03-19T12:54:45Z</time>
      </trkpt>
      <trkpt lat="46.58563" lon="5.38002">
        <ele>213.4</ele>
        <time>2022-03-19T12:54:46Z</time>
      </trkpt>
      <trkpt lat="46.58568" lon="5.38002">
        <ele>213.2</ele>
        <time>2022-03-19T12:54:47Z</time>
      </trkpt>
      <trkpt lat="46.58581" lon="5.38007">
        <ele>213.2</ele>
        <time>2022-03-19T12:54:49Z</time>
      </trkpt>
      <trkpt lat="46.58611" lon="5.38033">
        <ele>213</ele>
        <time>2022-03-19T12:54:55Z</time>
      </trkpt>
      <trkpt lat="46.58621" lon="5.38041">
        <ele>213.2</ele>
        <time>2022-03-19T12:54:57Z</time>
      </trkpt>
      <trkpt lat="46.58637" lon="5.38048">
        <ele>213.2</ele>
        <time>2022-03-19T12:55:00Z</time>
      </trkpt>
      <trkpt lat="46.58649" lon="5.38051">
        <ele>213.4</ele>
        <time>2022-03-19T12:55:02Z</time>
      </trkpt>
      <trkpt lat="46.58666" lon="5.38052">
        <ele>213.6</ele>
        <time>2022-03-19T12:55:05Z</time>
      </trkpt>
      <trkpt lat="46.58706" lon="5.38055">
        <ele>214.4</ele>
        <time>2022-03-19T12:55:12Z</time>
      </trkpt>
      <trkpt lat="46.58716" lon="5.38056">
        <ele>214.6</ele>
        <time>2022-03-19T12:55:14Z</time>
      </trkpt>
      <trkpt lat="46.58767" lon="5.38063">
        <ele>215.4</ele>
        <time>2022-03-19T12:55:23Z</time>
      </trkpt>
      <trkpt lat="46.58773" lon="5.38065">
        <ele>215.4</ele>
        <time>2022-03-19T12:55:24Z</time>
      </trkpt>
      <trkpt lat="46.58784" lon="5.38072">
        <ele>215.8</ele>
        <time>2022-03-19T12:55:26Z</time>
      </trkpt>
      <trkpt lat="46.58793" lon="5.3808">
        <ele>216</ele>
        <time>2022-03-19T12:55:28Z</time>
      </trkpt>
      <trkpt lat="46.58824" lon="5.38119">
        <ele>216.4</ele>
        <time>2022-03-19T12:55:35Z</time>
      </trkpt>
      <trkpt lat="46.58828" lon="5.38124">
        <ele>216.6</ele>
        <time>2022-03-19T12:55:36Z</time>
      </trkpt>
      <trkpt lat="46.58872" lon="5.38179">
        <ele>216.4</ele>
        <time>2022-03-19T12:55:45Z</time>
      </trkpt>
      <trkpt lat="46.58917" lon="5.38236">
        <ele>215.4</ele>
        <time>2022-03-19T12:55:54Z</time>
      </trkpt>
      <trkpt lat="46.58956" lon="5.38276">
        <ele>214.2</ele>
        <time>2022-03-19T12:56:01Z</time>
      </trkpt>
      <trkpt lat="46.58964" lon="5.38282">
        <ele>214.2</ele>
        <time>2022-03-19T12:56:02Z</time>
      </trkpt>
      <trkpt lat="46.58987" lon="5.38302">
        <ele>213.2</ele>
        <time>2022-03-19T12:56:06Z</time>
      </trkpt>
      <trkpt lat="46.59024" lon="5.38333">
        <ele>212.6</ele>
        <time>2022-03-19T12:56:12Z</time>
      </trkpt>
      <trkpt lat="46.59071" lon="5.38371">
        <ele>213</ele>
        <time>2022-03-19T12:56:21Z</time>
      </trkpt>
      <trkpt lat="46.5911" lon="5.38404">
        <ele>214.4</ele>
        <time>2022-03-19T12:56:29Z</time>
      </trkpt>
      <trkpt lat="46.59128" lon="5.38422">
        <ele>214.8</ele>
        <time>2022-03-19T12:56:33Z</time>
      </trkpt>
      <trkpt lat="46.59136" lon="5.38433">
        <ele>215.2</ele>
        <time>2022-03-19T12:56:35Z</time>
      </trkpt>
      <trkpt lat="46.59143" lon="5.38443">
        <ele>215.8</ele>
        <time>2022-03-19T12:56:37Z</time>
      </trkpt>
      <trkpt lat="46.59158" lon="5.38473">
        <ele>216.8</ele>
        <time>2022-03-19T12:56:42Z</time>
      </trkpt>
      <trkpt lat="46.59162" lon="5.38479">
        <ele>216.8</ele>
        <time>2022-03-19T12:56:43Z</time>
      </trkpt>
      <trkpt lat="46.59176" lon="5.38501">
        <ele>217.6</ele>
        <time>2022-03-19T12:56:47Z</time>
      </trkpt>
      <trkpt lat="46.59185" lon="5.38511">
        <ele>218</ele>
        <time>2022-03-19T12:56:49Z</time>
      </trkpt>
      <trkpt lat="46.59213" lon="5.38544">
        <ele>219.2</ele>
        <time>2022-03-19T12:56:56Z</time>
      </trkpt>
      <trkpt lat="46.59222" lon="5.38554">
        <ele>219.8</ele>
        <time>2022-03-19T12:56:58Z</time>
      </trkpt>
      <trkpt lat="46.5927" lon="5.38606">
        <ele>220</ele>
        <time>2022-03-19T12:57:08Z</time>
      </trkpt>
      <trkpt lat="46.59314" lon="5.38654">
        <ele>219.6</ele>
        <time>2022-03-19T12:57:17Z</time>
      </trkpt>
      <trkpt lat="46.59319" lon="5.3866">
        <ele>219.4</ele>
        <time>2022-03-19T12:57:18Z</time>
      </trkpt>
      <trkpt lat="46.59357" lon="5.387">
        <ele>219.8</ele>
        <time>2022-03-19T12:57:26Z</time>
      </trkpt>
      <trkpt lat="46.59405" lon="5.38753">
        <ele>220.4</ele>
        <time>2022-03-19T12:57:36Z</time>
      </trkpt>
      <trkpt lat="46.59409" lon="5.38757">
        <ele>220.4</ele>
        <time>2022-03-19T12:57:37Z</time>
      </trkpt>
      <trkpt lat="46.59423" lon="5.38771">
        <ele>220.4</ele>
        <time>2022-03-19T12:57:40Z</time>
      </trkpt>
      <trkpt lat="46.59428" lon="5.38776">
        <ele>220.6</ele>
        <time>2022-03-19T12:57:41Z</time>
      </trkpt>
      <trkpt lat="46.59432" lon="5.38782">
        <ele>220.6</ele>
        <time>2022-03-19T12:57:42Z</time>
      </trkpt>
      <trkpt lat="46.59436" lon="5.38789">
        <ele>220.6</ele>
        <time>2022-03-19T12:57:43Z</time>
      </trkpt>
      <trkpt lat="46.59439" lon="5.38796">
        <ele>220.6</ele>
        <time>2022-03-19T12:57:44Z</time>
      </trkpt>
      <trkpt lat="46.59444" lon="5.38811">
        <ele>220.6</ele>
        <time>2022-03-19T12:57:46Z</time>
      </trkpt>
      <trkpt lat="46.59446" lon="5.38821">
        <ele>220.6</ele>
        <time>2022-03-19T12:57:47Z</time>
      </trkpt>
      <trkpt lat="46.59451" lon="5.38868">
        <ele>220.6</ele>
        <time>2022-03-19T12:57:53Z</time>
      </trkpt>
      <trkpt lat="46.59452" lon="5.38877">
        <ele>220.6</ele>
        <time>2022-03-19T12:57:54Z</time>
      </trkpt>
      <trkpt lat="46.59453" lon="5.38893">
        <ele>220.6</ele>
        <time>2022-03-19T12:57:56Z</time>
      </trkpt>
      <trkpt lat="46.59455" lon="5.38901">
        <ele>220.6</ele>
        <time>2022-03-19T12:57:57Z</time>
      </trkpt>
      <trkpt lat="46.59457" lon="5.38909">
        <ele>220.6</ele>
        <time>2022-03-19T12:57:58Z</time>
      </trkpt>
      <trkpt lat="46.59471" lon="5.38941">
        <ele>220.6</ele>
        <time>2022-03-19T12:58:02Z</time>
      </trkpt>
      <trkpt lat="46.59474" lon="5.38951">
        <ele>220.4</ele>
        <time>2022-03-19T12:58:03Z</time>
      </trkpt>
      <trkpt lat="46.5948" lon="5.38977">
        <ele>220.2</ele>
        <time>2022-03-19T12:58:06Z</time>
      </trkpt>
      <trkpt lat="46.59489" lon="5.39049">
        <ele>219.6</ele>
        <time>2022-03-19T12:58:14Z</time>
      </trkpt>
      <trkpt lat="46.59498" lon="5.39127">
        <ele>219.8</ele>
        <time>2022-03-19T12:58:23Z</time>
      </trkpt>
      <trkpt lat="46.59506" lon="5.39177">
        <ele>220.2</ele>
        <time>2022-03-19T12:58:29Z</time>
      </trkpt>
      <trkpt lat="46.59509" lon="5.39184">
        <ele>220.4</ele>
        <time>2022-03-19T12:58:30Z</time>
      </trkpt>
      <trkpt lat="46.59513" lon="5.3919">
        <ele>220.4</ele>
        <time>2022-03-19T12:58:31Z</time>
      </trkpt>
      <trkpt lat="46.59523" lon="5.39201">
        <ele>220.4</ele>
        <time>2022-03-19T12:58:33Z</time>
      </trkpt>
      <trkpt lat="46.59528" lon="5.39205">
        <ele>220.6</ele>
        <time>2022-03-19T12:58:34Z</time>
      </trkpt>
      <trkpt lat="46.59534" lon="5.39207">
        <ele>220.6</ele>
        <time>2022-03-19T12:58:35Z</time>
      </trkpt>
      <trkpt lat="46.59546" lon="5.39208">
        <ele>220.6</ele>
        <time>2022-03-19T12:58:37Z</time>
      </trkpt>
      <trkpt lat="46.59552" lon="5.39208">
        <ele>220.6</ele>
        <time>2022-03-19T12:58:38Z</time>
      </trkpt>
      <trkpt lat="46.59595" lon="5.39195">
        <ele>220.8</ele>
        <time>2022-03-19T12:58:45Z</time>
      </trkpt>
      <trkpt lat="46.59631" lon="5.39185">
        <ele>221</ele>
        <time>2022-03-19T12:58:51Z</time>
      </trkpt>
      <trkpt lat="46.59672" lon="5.39191">
        <ele>221.6</ele>
        <time>2022-03-19T12:58:58Z</time>
      </trkpt>
      <trkpt lat="46.59677" lon="5.39192">
        <ele>221.8</ele>
        <time>2022-03-19T12:58:59Z</time>
      </trkpt>
      <trkpt lat="46.59718" lon="5.39201">
        <ele>222.4</ele>
        <time>2022-03-19T12:59:07Z</time>
      </trkpt>
      <trkpt lat="46.59726" lon="5.39206">
        <ele>222.6</ele>
        <time>2022-03-19T12:59:09Z</time>
      </trkpt>
      <trkpt lat="46.59733" lon="5.39214">
        <ele>222.6</ele>
        <time>2022-03-19T12:59:11Z</time>
      </trkpt>
      <trkpt lat="46.59735" lon="5.39218">
        <ele>222.6</ele>
        <time>2022-03-19T12:59:12Z</time>
      </trkpt>
      <trkpt lat="46.59738" lon="5.39222">
        <ele>223</ele>
        <time>2022-03-19T12:59:13Z</time>
      </trkpt>
      <trkpt lat="46.59745" lon="5.39221">
        <ele>223</ele>
        <time>2022-03-19T12:59:15Z</time>
      </trkpt>
      <trkpt lat="46.59749" lon="5.39219">
        <ele>222.8</ele>
        <time>2022-03-19T12:59:16Z</time>
      </trkpt>
      <trkpt lat="46.59762" lon="5.39207">
        <ele>222.4</ele>
        <time>2022-03-19T12:59:19Z</time>
      </trkpt>
      <trkpt lat="46.59788" lon="5.39195">
        <ele>222</ele>
        <time>2022-03-19T12:59:24Z</time>
      </trkpt>
      <trkpt lat="46.59799" lon="5.39192">
        <ele>221.8</ele>
        <time>2022-03-19T12:59:26Z</time>
      </trkpt>
      <trkpt lat="46.59805" lon="5.39191">
        <ele>221.8</ele>
        <time>2022-03-19T12:59:27Z</time>
      </trkpt>
      <trkpt lat="46.59817" lon="5.3919">
        <ele>221.8</ele>
        <time>2022-03-19T12:59:29Z</time>
      </trkpt>
      <trkpt lat="46.59823" lon="5.39191">
        <ele>221.6</ele>
        <time>2022-03-19T12:59:30Z</time>
      </trkpt>
      <trkpt lat="46.59865" lon="5.39196">
        <ele>221.2</ele>
        <time>2022-03-19T12:59:37Z</time>
      </trkpt>
      <trkpt lat="46.59902" lon="5.39188">
        <ele>221.2</ele>
        <time>2022-03-19T12:59:43Z</time>
      </trkpt>
      <trkpt lat="46.59927" lon="5.39182">
        <ele>221</ele>
        <time>2022-03-19T12:59:47Z</time>
      </trkpt>
      <trkpt lat="46.59934" lon="5.39182">
        <ele>221</ele>
        <time>2022-03-19T12:59:48Z</time>
      </trkpt>
      <trkpt lat="46.59956" lon="5.39182">
        <ele>220.8</ele>
        <time>2022-03-19T12:59:51Z</time>
      </trkpt>
      <trkpt lat="46.59971" lon="5.39182">
        <ele>220</ele>
        <time>2022-03-19T12:59:53Z</time>
      </trkpt>
      <trkpt lat="46.59978" lon="5.39184">
        <ele>219.8</ele>
        <time>2022-03-19T12:59:54Z</time>
      </trkpt>
      <trkpt lat="46.59992" lon="5.39188">
        <ele>219</ele>
        <time>2022-03-19T12:59:56Z</time>
      </trkpt>
      <trkpt lat="46.60005" lon="5.39196">
        <ele>218.6</ele>
        <time>2022-03-19T12:59:58Z</time>
      </trkpt>
      <trkpt lat="46.60012" lon="5.392">
        <ele>218.4</ele>
        <time>2022-03-19T12:59:59Z</time>
      </trkpt>
      <trkpt lat="46.60024" lon="5.39211">
        <ele>218.2</ele>
        <time>2022-03-19T13:00:01Z</time>
      </trkpt>
      <trkpt lat="46.60029" lon="5.39219">
        <ele>218</ele>
        <time>2022-03-19T13:00:02Z</time>
      </trkpt>
      <trkpt lat="46.6004" lon="5.39236">
        <ele>217.6</ele>
        <time>2022-03-19T13:00:04Z</time>
      </trkpt>
      <trkpt lat="46.60048" lon="5.39257">
        <ele>217.4</ele>
        <time>2022-03-19T13:00:06Z</time>
      </trkpt>
      <trkpt lat="46.60054" lon="5.39296">
        <ele>216.8</ele>
        <time>2022-03-19T13:00:09Z</time>
      </trkpt>
      <trkpt lat="46.60053" lon="5.39323">
        <ele>216.4</ele>
        <time>2022-03-19T13:00:11Z</time>
      </trkpt>
      <trkpt lat="46.60052" lon="5.39337">
        <ele>215</ele>
        <time>2022-03-19T13:00:12Z</time>
      </trkpt>
      <trkpt lat="46.60051" lon="5.39351">
        <ele>214.4</ele>
        <time>2022-03-19T13:00:13Z</time>
      </trkpt>
      <trkpt lat="46.60049" lon="5.39364">
        <ele>213.2</ele>
        <time>2022-03-19T13:00:14Z</time>
      </trkpt>
      <trkpt lat="46.60045" lon="5.39389">
        <ele>212.2</ele>
        <time>2022-03-19T13:00:16Z</time>
      </trkpt>
      <trkpt lat="46.60041" lon="5.39411">
        <ele>211.8</ele>
        <time>2022-03-19T13:00:18Z</time>
      </trkpt>
      <trkpt lat="46.60036" lon="5.3945">
        <ele>211.6</ele>
        <time>2022-03-19T13:00:22Z</time>
      </trkpt>
      <trkpt lat="46.60036" lon="5.39459">
        <ele>211.6</ele>
        <time>2022-03-19T13:00:23Z</time>
      </trkpt>
      <trkpt lat="46.60037" lon="5.39479">
        <ele>211.8</ele>
        <time>2022-03-19T13:00:25Z</time>
      </trkpt>
      <trkpt lat="46.60038" lon="5.39486">
        <ele>211.8</ele>
        <time>2022-03-19T13:00:26Z</time>
      </trkpt>
      <trkpt lat="46.6004" lon="5.39495">
        <ele>211.8</ele>
        <time>2022-03-19T13:00:27Z</time>
      </trkpt>
      <trkpt lat="46.60046" lon="5.39512">
        <ele>212</ele>
        <time>2022-03-19T13:00:29Z</time>
      </trkpt>
      <trkpt lat="46.6007" lon="5.39561">
        <ele>211</ele>
        <time>2022-03-19T13:00:34Z</time>
      </trkpt>
      <trkpt lat="46.60078" lon="5.39578">
        <ele>209.8</ele>
        <time>2022-03-19T13:00:36Z</time>
      </trkpt>
      <trkpt lat="46.60086" lon="5.39602">
        <ele>209.2</ele>
        <time>2022-03-19T13:00:38Z</time>
      </trkpt>
      <trkpt lat="46.60088" lon="5.39611">
        <ele>209</ele>
        <time>2022-03-19T13:00:39Z</time>
      </trkpt>
      <trkpt lat="46.60089" lon="5.39623">
        <ele>208.8</ele>
        <time>2022-03-19T13:00:40Z</time>
      </trkpt>
      <trkpt lat="46.6009" lon="5.39636">
        <ele>208.6</ele>
        <time>2022-03-19T13:00:41Z</time>
      </trkpt>
      <trkpt lat="46.60089" lon="5.39649">
        <ele>208.6</ele>
        <time>2022-03-19T13:00:42Z</time>
      </trkpt>
      <trkpt lat="46.60087" lon="5.39661">
        <ele>208</ele>
        <time>2022-03-19T13:00:43Z</time>
      </trkpt>
      <trkpt lat="46.60083" lon="5.39676">
        <ele>207.4</ele>
        <time>2022-03-19T13:00:44Z</time>
      </trkpt>
      <trkpt lat="46.60074" lon="5.39696">
        <ele>206.8</ele>
        <time>2022-03-19T13:00:46Z</time>
      </trkpt>
      <trkpt lat="46.60068" lon="5.3971">
        <ele>206.6</ele>
        <time>2022-03-19T13:00:47Z</time>
      </trkpt>
      <trkpt lat="46.60065" lon="5.39722">
        <ele>206.2</ele>
        <time>2022-03-19T13:00:48Z</time>
      </trkpt>
      <trkpt lat="46.60064" lon="5.39733">
        <ele>206</ele>
        <time>2022-03-19T13:00:49Z</time>
      </trkpt>
      <trkpt lat="46.60065" lon="5.39745">
        <ele>205.2</ele>
        <time>2022-03-19T13:00:50Z</time>
      </trkpt>
      <trkpt lat="46.60068" lon="5.39757">
        <ele>204.6</ele>
        <time>2022-03-19T13:00:51Z</time>
      </trkpt>
      <trkpt lat="46.60072" lon="5.39769">
        <ele>204.4</ele>
        <time>2022-03-19T13:00:52Z</time>
      </trkpt>
      <trkpt lat="46.60081" lon="5.39791">
        <ele>204</ele>
        <time>2022-03-19T13:00:54Z</time>
      </trkpt>
      <trkpt lat="46.6009" lon="5.39811">
        <ele>203.6</ele>
        <time>2022-03-19T13:00:56Z</time>
      </trkpt>
      <trkpt lat="46.60097" lon="5.39821">
        <ele>203.4</ele>
        <time>2022-03-19T13:00:57Z</time>
      </trkpt>
      <trkpt lat="46.60128" lon="5.39851">
        <ele>203</ele>
        <time>2022-03-19T13:01:02Z</time>
      </trkpt>
      <trkpt lat="46.60172" lon="5.39894">
        <ele>203.6</ele>
        <time>2022-03-19T13:01:09Z</time>
      </trkpt>
      <trkpt lat="46.60177" lon="5.39904">
        <ele>203.6</ele>
        <time>2022-03-19T13:01:10Z</time>
      </trkpt>
      <trkpt lat="46.6018" lon="5.39913">
        <ele>203.4</ele>
        <time>2022-03-19T13:01:11Z</time>
      </trkpt>
      <trkpt lat="46.60186" lon="5.39938">
        <ele>203.4</ele>
        <time>2022-03-19T13:01:14Z</time>
      </trkpt>
      <trkpt lat="46.60187" lon="5.39947">
        <ele>203.4</ele>
        <time>2022-03-19T13:01:15Z</time>
      </trkpt>
      <trkpt lat="46.60188" lon="5.39984">
        <ele>203.4</ele>
        <time>2022-03-19T13:01:19Z</time>
      </trkpt>
      <trkpt lat="46.6019" lon="5.40036">
        <ele>204.6</ele>
        <time>2022-03-19T13:01:25Z</time>
      </trkpt>
      <trkpt lat="46.6019" lon="5.40051">
        <ele>205.2</ele>
        <time>2022-03-19T13:01:27Z</time>
      </trkpt>
      <trkpt lat="46.60192" lon="5.40094">
        <ele>206.4</ele>
        <time>2022-03-19T13:01:32Z</time>
      </trkpt>
      <trkpt lat="46.60192" lon="5.40104">
        <ele>206.4</ele>
        <time>2022-03-19T13:01:33Z</time>
      </trkpt>
      <trkpt lat="46.60186" lon="5.40149">
        <ele>207.4</ele>
        <time>2022-03-19T13:01:39Z</time>
      </trkpt>
      <trkpt lat="46.60185" lon="5.40155">
        <ele>207.4</ele>
        <time>2022-03-19T13:01:40Z</time>
      </trkpt>
      <trkpt lat="46.60176" lon="5.40205">
        <ele>208</ele>
        <time>2022-03-19T13:01:46Z</time>
      </trkpt>
      <trkpt lat="46.60176" lon="5.40214">
        <ele>208</ele>
        <time>2022-03-19T13:01:47Z</time>
      </trkpt>
      <trkpt lat="46.60177" lon="5.40234">
        <ele>208</ele>
        <time>2022-03-19T13:01:49Z</time>
      </trkpt>
      <trkpt lat="46.60179" lon="5.40241">
        <ele>208</ele>
        <time>2022-03-19T13:01:50Z</time>
      </trkpt>
      <trkpt lat="46.60181" lon="5.40248">
        <ele>208</ele>
        <time>2022-03-19T13:01:51Z</time>
      </trkpt>
      <trkpt lat="46.60196" lon="5.40286">
        <ele>207.6</ele>
        <time>2022-03-19T13:01:56Z</time>
      </trkpt>
      <trkpt lat="46.60216" lon="5.4035">
        <ele>207.8</ele>
        <time>2022-03-19T13:02:04Z</time>
      </trkpt>
      <trkpt lat="46.60219" lon="5.40375">
        <ele>208</ele>
        <time>2022-03-19T13:02:07Z</time>
      </trkpt>
      <trkpt lat="46.60219" lon="5.40405">
        <ele>208</ele>
        <time>2022-03-19T13:02:10Z</time>
      </trkpt>
      <trkpt lat="46.60217" lon="5.40466">
        <ele>206.8</ele>
        <time>2022-03-19T13:02:15Z</time>
      </trkpt>
      <trkpt lat="46.60218" lon="5.40479">
        <ele>206.4</ele>
        <time>2022-03-19T13:02:16Z</time>
      </trkpt>
      <trkpt lat="46.60223" lon="5.40516">
        <ele>205.6</ele>
        <time>2022-03-19T13:02:19Z</time>
      </trkpt>
      <trkpt lat="46.60226" lon="5.40528">
        <ele>205</ele>
        <time>2022-03-19T13:02:20Z</time>
      </trkpt>
      <trkpt lat="46.60233" lon="5.40562">
        <ele>203.8</ele>
        <time>2022-03-19T13:02:23Z</time>
      </trkpt>
      <trkpt lat="46.60234" lon="5.40573">
        <ele>203.8</ele>
        <time>2022-03-19T13:02:24Z</time>
      </trkpt>
      <trkpt lat="46.60233" lon="5.40599">
        <ele>203.4</ele>
        <time>2022-03-19T13:02:26Z</time>
      </trkpt>
      <trkpt lat="46.60231" lon="5.40608">
        <ele>203.2</ele>
        <time>2022-03-19T13:02:27Z</time>
      </trkpt>
      <trkpt lat="46.60228" lon="5.40619">
        <ele>203</ele>
        <time>2022-03-19T13:02:28Z</time>
      </trkpt>
      <trkpt lat="46.60218" lon="5.4064">
        <ele>202.8</ele>
        <time>2022-03-19T13:02:30Z</time>
      </trkpt>
      <trkpt lat="46.60214" lon="5.40647">
        <ele>202.8</ele>
        <time>2022-03-19T13:02:31Z</time>
      </trkpt>
      <trkpt lat="46.60181" lon="5.40706">
        <ele>202</ele>
        <time>2022-03-19T13:02:38Z</time>
      </trkpt>
      <trkpt lat="46.60178" lon="5.40716">
        <ele>202.2</ele>
        <time>2022-03-19T13:02:39Z</time>
      </trkpt>
      <trkpt lat="46.60174" lon="5.40736">
        <ele>202.2</ele>
        <time>2022-03-19T13:02:41Z</time>
      </trkpt>
      <trkpt lat="46.60172" lon="5.40747">
        <ele>202.2</ele>
        <time>2022-03-19T13:02:42Z</time>
      </trkpt>
      <trkpt lat="46.60172" lon="5.40758">
        <ele>202</ele>
        <time>2022-03-19T13:02:43Z</time>
      </trkpt>
      <trkpt lat="46.60174" lon="5.40779">
        <ele>202</ele>
        <time>2022-03-19T13:02:45Z</time>
      </trkpt>
      <trkpt lat="46.60176" lon="5.40789">
        <ele>202</ele>
        <time>2022-03-19T13:02:46Z</time>
      </trkpt>
      <trkpt lat="46.6018" lon="5.40798">
        <ele>202</ele>
        <time>2022-03-19T13:02:47Z</time>
      </trkpt>
      <trkpt lat="46.60189" lon="5.40816">
        <ele>202</ele>
        <time>2022-03-19T13:02:49Z</time>
      </trkpt>
      <trkpt lat="46.60217" lon="5.40844">
        <ele>202</ele>
        <time>2022-03-19T13:02:54Z</time>
      </trkpt>
      <trkpt lat="46.60257" lon="5.40875">
        <ele>203.2</ele>
        <time>2022-03-19T13:03:01Z</time>
      </trkpt>
      <trkpt lat="46.60269" lon="5.40884">
        <ele>203.4</ele>
        <time>2022-03-19T13:03:03Z</time>
      </trkpt>
      <trkpt lat="46.60284" lon="5.40897">
        <ele>203.8</ele>
        <time>2022-03-19T13:03:06Z</time>
      </trkpt>
      <trkpt lat="46.60291" lon="5.40906">
        <ele>204</ele>
        <time>2022-03-19T13:03:08Z</time>
      </trkpt>
      <trkpt lat="46.60299" lon="5.40916">
        <ele>204.2</ele>
        <time>2022-03-19T13:03:10Z</time>
      </trkpt>
      <trkpt lat="46.60312" lon="5.40939">
        <ele>205.2</ele>
        <time>2022-03-19T13:03:14Z</time>
      </trkpt>
      <trkpt lat="46.60315" lon="5.40945">
        <ele>205.6</ele>
        <time>2022-03-19T13:03:15Z</time>
      </trkpt>
      <trkpt lat="46.60322" lon="5.4096">
        <ele>206.6</ele>
        <time>2022-03-19T13:03:18Z</time>
      </trkpt>
      <trkpt lat="46.60328" lon="5.4097">
        <ele>207</ele>
        <time>2022-03-19T13:03:20Z</time>
      </trkpt>
      <trkpt lat="46.60342" lon="5.40989">
        <ele>207.8</ele>
        <time>2022-03-19T13:03:24Z</time>
      </trkpt>
      <trkpt lat="46.60345" lon="5.40993">
        <ele>208.2</ele>
        <time>2022-03-19T13:03:25Z</time>
      </trkpt>
      <trkpt lat="46.60352" lon="5.41">
        <ele>209.2</ele>
        <time>2022-03-19T13:03:27Z</time>
      </trkpt>
      <trkpt lat="46.60357" lon="5.41002">
        <ele>209.6</ele>
        <time>2022-03-19T13:03:28Z</time>
      </trkpt>
      <trkpt lat="46.60361" lon="5.41005">
        <ele>210.4</ele>
        <time>2022-03-19T13:03:29Z</time>
      </trkpt>
      <trkpt lat="46.60373" lon="5.41013">
        <ele>211.6</ele>
        <time>2022-03-19T13:03:32Z</time>
      </trkpt>
      <trkpt lat="46.60382" lon="5.41019">
        <ele>212</ele>
        <time>2022-03-19T13:03:34Z</time>
      </trkpt>
      <trkpt lat="46.60385" lon="5.41022">
        <ele>212.2</ele>
        <time>2022-03-19T13:03:35Z</time>
      </trkpt>
      <trkpt lat="46.60393" lon="5.41028">
        <ele>212.8</ele>
        <time>2022-03-19T13:03:37Z</time>
      </trkpt>
      <trkpt lat="46.604" lon="5.41037">
        <ele>213.4</ele>
        <time>2022-03-19T13:03:39Z</time>
      </trkpt>
      <trkpt lat="46.60404" lon="5.41043">
        <ele>213.6</ele>
        <time>2022-03-19T13:03:40Z</time>
      </trkpt>
      <trkpt lat="46.60406" lon="5.41047">
        <ele>214</ele>
        <time>2022-03-19T13:03:41Z</time>
      </trkpt>
      <trkpt lat="46.6042" lon="5.41083">
        <ele>215</ele>
        <time>2022-03-19T13:03:47Z</time>
      </trkpt>
      <trkpt lat="46.60422" lon="5.4109">
        <ele>215</ele>
        <time>2022-03-19T13:03:48Z</time>
      </trkpt>
      <trkpt lat="46.60429" lon="5.41105">
        <ele>215.2</ele>
        <time>2022-03-19T13:03:50Z</time>
      </trkpt>
      <trkpt lat="46.60437" lon="5.41116">
        <ele>215.2</ele>
        <time>2022-03-19T13:03:52Z</time>
      </trkpt>
      <trkpt lat="46.6046" lon="5.41132">
        <ele>214.8</ele>
        <time>2022-03-19T13:03:56Z</time>
      </trkpt>
      <trkpt lat="46.60472" lon="5.41137">
        <ele>214.6</ele>
        <time>2022-03-19T13:03:58Z</time>
      </trkpt>
      <trkpt lat="46.60492" lon="5.41139">
        <ele>214.2</ele>
        <time>2022-03-19T13:04:01Z</time>
      </trkpt>
      <trkpt lat="46.60499" lon="5.41139">
        <ele>214</ele>
        <time>2022-03-19T13:04:02Z</time>
      </trkpt>
      <trkpt lat="46.60542" lon="5.41141">
        <ele>212.4</ele>
        <time>2022-03-19T13:04:08Z</time>
      </trkpt>
      <trkpt lat="46.60556" lon="5.41142">
        <ele>211.6</ele>
        <time>2022-03-19T13:04:10Z</time>
      </trkpt>
      <trkpt lat="46.60608" lon="5.41156">
        <ele>210.6</ele>
        <time>2022-03-19T13:04:17Z</time>
      </trkpt>
      <trkpt lat="46.60658" lon="5.41173">
        <ele>209.4</ele>
        <time>2022-03-19T13:04:24Z</time>
      </trkpt>
      <trkpt lat="46.60679" lon="5.41182">
        <ele>208.6</ele>
        <time>2022-03-19T13:04:27Z</time>
      </trkpt>
      <trkpt lat="46.60685" lon="5.41185">
        <ele>208.4</ele>
        <time>2022-03-19T13:04:28Z</time>
      </trkpt>
      <trkpt lat="46.60691" lon="5.4119">
        <ele>208.2</ele>
        <time>2022-03-19T13:04:29Z</time>
      </trkpt>
      <trkpt lat="46.60703" lon="5.41201">
        <ele>208.2</ele>
        <time>2022-03-19T13:04:31Z</time>
      </trkpt>
      <trkpt lat="46.60739" lon="5.41246">
        <ele>208.2</ele>
        <time>2022-03-19T13:04:38Z</time>
      </trkpt>
      <trkpt lat="46.60778" lon="5.4129">
        <ele>208.4</ele>
        <time>2022-03-19T13:04:46Z</time>
      </trkpt>
      <trkpt lat="46.60815" lon="5.41325">
        <ele>208</ele>
        <time>2022-03-19T13:04:52Z</time>
      </trkpt>
      <trkpt lat="46.60823" lon="5.4133">
        <ele>207.6</ele>
        <time>2022-03-19T13:04:53Z</time>
      </trkpt>
      <trkpt lat="46.6083" lon="5.41333">
        <ele>207</ele>
        <time>2022-03-19T13:04:54Z</time>
      </trkpt>
      <trkpt lat="46.60841" lon="5.41337">
        <ele>206</ele>
        <time>2022-03-19T13:04:56Z</time>
      </trkpt>
      <trkpt lat="46.60852" lon="5.41334">
        <ele>205.2</ele>
        <time>2022-03-19T13:04:58Z</time>
      </trkpt>
      <trkpt lat="46.60858" lon="5.41329">
        <ele>204.6</ele>
        <time>2022-03-19T13:04:59Z</time>
      </trkpt>
      <trkpt lat="46.60862" lon="5.41325">
        <ele>204.4</ele>
        <time>2022-03-19T13:05:00Z</time>
      </trkpt>
      <trkpt lat="46.60877" lon="5.41305">
        <ele>203.6</ele>
        <time>2022-03-19T13:05:03Z</time>
      </trkpt>
      <trkpt lat="46.60881" lon="5.41299">
        <ele>203.4</ele>
        <time>2022-03-19T13:05:04Z</time>
      </trkpt>
      <trkpt lat="46.60912" lon="5.4126">
        <ele>202.8</ele>
        <time>2022-03-19T13:05:10Z</time>
      </trkpt>
      <trkpt lat="46.60929" lon="5.41239">
        <ele>202.4</ele>
        <time>2022-03-19T13:05:13Z</time>
      </trkpt>
      <trkpt lat="46.60947" lon="5.41218">
        <ele>201.8</ele>
        <time>2022-03-19T13:05:16Z</time>
      </trkpt>
      <trkpt lat="46.6096" lon="5.41206">
        <ele>201</ele>
        <time>2022-03-19T13:05:18Z</time>
      </trkpt>
      <trkpt lat="46.60991" lon="5.41178">
        <ele>200.4</ele>
        <time>2022-03-19T13:05:23Z</time>
      </trkpt>
      <trkpt lat="46.61004" lon="5.41167">
        <ele>200</ele>
        <time>2022-03-19T13:05:25Z</time>
      </trkpt>
      <trkpt lat="46.6103" lon="5.41154">
        <ele>199.8</ele>
        <time>2022-03-19T13:05:29Z</time>
      </trkpt>
      <trkpt lat="46.61044" lon="5.41153">
        <ele>200</ele>
        <time>2022-03-19T13:05:31Z</time>
      </trkpt>
      <trkpt lat="46.61058" lon="5.41156">
        <ele>200</ele>
        <time>2022-03-19T13:05:33Z</time>
      </trkpt>
      <trkpt lat="46.61117" lon="5.41174">
        <ele>200.6</ele>
        <time>2022-03-19T13:05:41Z</time>
      </trkpt>
      <trkpt lat="46.61129" lon="5.41178">
        <ele>200.6</ele>
        <time>2022-03-19T13:05:43Z</time>
      </trkpt>
      <trkpt lat="46.61187" lon="5.41194">
        <ele>201</ele>
        <time>2022-03-19T13:05:51Z</time>
      </trkpt>
      <trkpt lat="46.61209" lon="5.412">
        <ele>200.8</ele>
        <time>2022-03-19T13:05:54Z</time>
      </trkpt>
      <trkpt lat="46.61258" lon="5.41214">
        <ele>200.6</ele>
        <time>2022-03-19T13:06:01Z</time>
      </trkpt>
      <trkpt lat="46.61314" lon="5.41229">
        <ele>200.8</ele>
        <time>2022-03-19T13:06:09Z</time>
      </trkpt>
      <trkpt lat="46.61327" lon="5.41233">
        <ele>201</ele>
        <time>2022-03-19T13:06:11Z</time>
      </trkpt>
      <trkpt lat="46.61382" lon="5.41248">
        <ele>200.8</ele>
        <time>2022-03-19T13:06:19Z</time>
      </trkpt>
      <trkpt lat="46.61422" lon="5.41259">
        <ele>200.4</ele>
        <time>2022-03-19T13:06:25Z</time>
      </trkpt>
      <trkpt lat="46.61482" lon="5.41276">
        <ele>200.6</ele>
        <time>2022-03-19T13:06:34Z</time>
      </trkpt>
      <trkpt lat="46.61488" lon="5.41278">
        <ele>200.6</ele>
        <time>2022-03-19T13:06:35Z</time>
      </trkpt>
      <trkpt lat="46.61533" lon="5.41299">
        <ele>200.4</ele>
        <time>2022-03-19T13:06:42Z</time>
      </trkpt>
      <trkpt lat="46.61583" lon="5.41334">
        <ele>200.4</ele>
        <time>2022-03-19T13:06:50Z</time>
      </trkpt>
      <trkpt lat="46.61605" lon="5.41351">
        <ele>200.6</ele>
        <time>2022-03-19T13:06:54Z</time>
      </trkpt>
      <trkpt lat="46.61642" lon="5.41393">
        <ele>200.6</ele>
        <time>2022-03-19T13:07:01Z</time>
      </trkpt>
      <trkpt lat="46.61682" lon="5.4143">
        <ele>200.6</ele>
        <time>2022-03-19T13:07:08Z</time>
      </trkpt>
      <trkpt lat="46.61714" lon="5.41439">
        <ele>201</ele>
        <time>2022-03-19T13:07:13Z</time>
      </trkpt>
      <trkpt lat="46.61721" lon="5.41439">
        <ele>201</ele>
        <time>2022-03-19T13:07:14Z</time>
      </trkpt>
      <trkpt lat="46.61748" lon="5.41431">
        <ele>201</ele>
        <time>2022-03-19T13:07:18Z</time>
      </trkpt>
      <trkpt lat="46.61754" lon="5.41427">
        <ele>200.8</ele>
        <time>2022-03-19T13:07:19Z</time>
      </trkpt>
      <trkpt lat="46.61772" lon="5.41411">
        <ele>200.6</ele>
        <time>2022-03-19T13:07:22Z</time>
      </trkpt>
      <trkpt lat="46.61801" lon="5.41368">
        <ele>200.4</ele>
        <time>2022-03-19T13:07:28Z</time>
      </trkpt>
      <trkpt lat="46.61814" lon="5.41345">
        <ele>200.4</ele>
        <time>2022-03-19T13:07:31Z</time>
      </trkpt>
      <trkpt lat="46.6184" lon="5.41297">
        <ele>200.4</ele>
        <time>2022-03-19T13:07:37Z</time>
      </trkpt>
      <trkpt lat="46.61878" lon="5.41233">
        <ele>200.4</ele>
        <time>2022-03-19T13:07:45Z</time>
      </trkpt>
      <trkpt lat="46.61919" lon="5.41175">
        <ele>200.6</ele>
        <time>2022-03-19T13:07:53Z</time>
      </trkpt>
      <trkpt lat="46.61929" lon="5.41163">
        <ele>200.4</ele>
        <time>2022-03-19T13:07:55Z</time>
      </trkpt>
      <trkpt lat="46.61971" lon="5.41105">
        <ele>200.4</ele>
        <time>2022-03-19T13:08:03Z</time>
      </trkpt>
      <trkpt lat="46.6198" lon="5.41093">
        <ele>200.4</ele>
        <time>2022-03-19T13:08:05Z</time>
      </trkpt>
      <trkpt lat="46.62018" lon="5.4103">
        <ele>200.4</ele>
        <time>2022-03-19T13:08:13Z</time>
      </trkpt>
      <trkpt lat="46.62043" lon="5.40959">
        <ele>200.2</ele>
        <time>2022-03-19T13:08:21Z</time>
      </trkpt>
      <trkpt lat="46.62067" lon="5.40887">
        <ele>200.2</ele>
        <time>2022-03-19T13:08:29Z</time>
      </trkpt>
      <trkpt lat="46.6208" lon="5.4085">
        <ele>200.6</ele>
        <time>2022-03-19T13:08:33Z</time>
      </trkpt>
      <trkpt lat="46.62105" lon="5.4078">
        <ele>201.2</ele>
        <time>2022-03-19T13:08:41Z</time>
      </trkpt>
      <trkpt lat="46.62108" lon="5.40771">
        <ele>201.6</ele>
        <time>2022-03-19T13:08:42Z</time>
      </trkpt>
      <trkpt lat="46.62116" lon="5.40754">
        <ele>201.8</ele>
        <time>2022-03-19T13:08:44Z</time>
      </trkpt>
      <trkpt lat="46.62128" lon="5.40733">
        <ele>202</ele>
        <time>2022-03-19T13:08:47Z</time>
      </trkpt>
      <trkpt lat="46.62135" lon="5.40726">
        <ele>202</ele>
        <time>2022-03-19T13:08:48Z</time>
      </trkpt>
      <trkpt lat="46.62146" lon="5.40717">
        <ele>202</ele>
        <time>2022-03-19T13:08:50Z</time>
      </trkpt>
      <trkpt lat="46.62151" lon="5.40714">
        <ele>202</ele>
        <time>2022-03-19T13:08:51Z</time>
      </trkpt>
      <trkpt lat="46.62158" lon="5.40712">
        <ele>202</ele>
        <time>2022-03-19T13:08:52Z</time>
      </trkpt>
      <trkpt lat="46.62178" lon="5.40709">
        <ele>202</ele>
        <time>2022-03-19T13:08:55Z</time>
      </trkpt>
      <trkpt lat="46.62185" lon="5.4071">
        <ele>202</ele>
        <time>2022-03-19T13:08:56Z</time>
      </trkpt>
      <trkpt lat="46.622" lon="5.40716">
        <ele>202</ele>
        <time>2022-03-19T13:08:58Z</time>
      </trkpt>
      <trkpt lat="46.62204" lon="5.40719">
        <ele>202</ele>
        <time>2022-03-19T13:08:59Z</time>
      </trkpt>
      <trkpt lat="46.62211" lon="5.40724">
        <ele>202</ele>
        <time>2022-03-19T13:09:00Z</time>
      </trkpt>
      <trkpt lat="46.6224" lon="5.40753">
        <ele>202.2</ele>
        <time>2022-03-19T13:09:05Z</time>
      </trkpt>
      <trkpt lat="46.62287" lon="5.408">
        <ele>202</ele>
        <time>2022-03-19T13:09:13Z</time>
      </trkpt>
      <trkpt lat="46.62315" lon="5.4084">
        <ele>202</ele>
        <time>2022-03-19T13:09:19Z</time>
      </trkpt>
      <trkpt lat="46.62332" lon="5.4087">
        <ele>202.2</ele>
        <time>2022-03-19T13:09:23Z</time>
      </trkpt>
      <trkpt lat="46.62343" lon="5.40882">
        <ele>202.4</ele>
        <time>2022-03-19T13:09:25Z</time>
      </trkpt>
      <trkpt lat="46.62384" lon="5.40921">
        <ele>202.6</ele>
        <time>2022-03-19T13:09:32Z</time>
      </trkpt>
      <trkpt lat="46.62389" lon="5.40927">
        <ele>202.8</ele>
        <time>2022-03-19T13:09:33Z</time>
      </trkpt>
      <trkpt lat="46.62396" lon="5.40935">
        <ele>202.8</ele>
        <time>2022-03-19T13:09:34Z</time>
      </trkpt>
      <trkpt lat="46.62407" lon="5.40957">
        <ele>202.8</ele>
        <time>2022-03-19T13:09:37Z</time>
      </trkpt>
      <trkpt lat="46.62435" lon="5.41028">
        <ele>203.2</ele>
        <time>2022-03-19T13:09:45Z</time>
      </trkpt>
      <trkpt lat="46.62457" lon="5.41086">
        <ele>203.8</ele>
        <time>2022-03-19T13:09:52Z</time>
      </trkpt>
      <trkpt lat="46.6248" lon="5.41121">
        <ele>204</ele>
        <time>2022-03-19T13:09:57Z</time>
      </trkpt>
      <trkpt lat="46.62486" lon="5.41128">
        <ele>204</ele>
        <time>2022-03-19T13:09:58Z</time>
      </trkpt>
      <trkpt lat="46.62509" lon="5.41142">
        <ele>204.4</ele>
        <time>2022-03-19T13:10:02Z</time>
      </trkpt>
      <trkpt lat="46.62534" lon="5.41153">
        <ele>204.8</ele>
        <time>2022-03-19T13:10:06Z</time>
      </trkpt>
      <trkpt lat="46.62571" lon="5.4117">
        <ele>206</ele>
        <time>2022-03-19T13:10:12Z</time>
      </trkpt>
      <trkpt lat="46.62619" lon="5.4119">
        <ele>206.8</ele>
        <time>2022-03-19T13:10:20Z</time>
      </trkpt>
      <trkpt lat="46.62637" lon="5.41198">
        <ele>207.2</ele>
        <time>2022-03-19T13:10:23Z</time>
      </trkpt>
      <trkpt lat="46.62672" lon="5.41213">
        <ele>207.8</ele>
        <time>2022-03-19T13:10:29Z</time>
      </trkpt>
      <trkpt lat="46.62695" lon="5.41223">
        <ele>208.2</ele>
        <time>2022-03-19T13:10:33Z</time>
      </trkpt>
      <trkpt lat="46.6274" lon="5.41243">
        <ele>209.2</ele>
        <time>2022-03-19T13:10:41Z</time>
      </trkpt>
      <trkpt lat="46.62752" lon="5.41248">
        <ele>209.6</ele>
        <time>2022-03-19T13:10:43Z</time>
      </trkpt>
      <trkpt lat="46.62774" lon="5.41257">
        <ele>210.4</ele>
        <time>2022-03-19T13:10:47Z</time>
      </trkpt>
      <trkpt lat="46.62805" lon="5.41271">
        <ele>211.2</ele>
        <time>2022-03-19T13:10:53Z</time>
      </trkpt>
      <trkpt lat="46.6282" lon="5.41277">
        <ele>211.6</ele>
        <time>2022-03-19T13:10:56Z</time>
      </trkpt>
      <trkpt lat="46.62839" lon="5.41285">
        <ele>212.2</ele>
        <time>2022-03-19T13:11:00Z</time>
      </trkpt>
      <trkpt lat="46.62853" lon="5.4129">
        <ele>212.6</ele>
        <time>2022-03-19T13:11:03Z</time>
      </trkpt>
      <trkpt lat="46.62872" lon="5.41298">
        <ele>213.8</ele>
        <time>2022-03-19T13:11:07Z</time>
      </trkpt>
      <trkpt lat="46.6288" lon="5.41301">
        <ele>214.2</ele>
        <time>2022-03-19T13:11:09Z</time>
      </trkpt>
      <trkpt lat="46.62892" lon="5.41306">
        <ele>214.8</ele>
        <time>2022-03-19T13:11:12Z</time>
      </trkpt>
      <trkpt lat="46.62914" lon="5.41314">
        <ele>216.2</ele>
        <time>2022-03-19T13:11:17Z</time>
      </trkpt>
      <trkpt lat="46.62919" lon="5.41316">
        <ele>216.4</ele>
        <time>2022-03-19T13:11:18Z</time>
      </trkpt>
      <trkpt lat="46.62945" lon="5.41326">
        <ele>217.2</ele>
        <time>2022-03-19T13:11:24Z</time>
      </trkpt>
      <trkpt lat="46.62958" lon="5.41332">
        <ele>218</ele>
        <time>2022-03-19T13:11:27Z</time>
      </trkpt>
      <trkpt lat="46.62965" lon="5.41336">
        <ele>218.4</ele>
        <time>2022-03-19T13:11:29Z</time>
      </trkpt>
      <trkpt lat="46.62978" lon="5.41343">
        <ele>219.4</ele>
        <time>2022-03-19T13:11:32Z</time>
      </trkpt>
      <trkpt lat="46.62986" lon="5.41346">
        <ele>220</ele>
        <time>2022-03-19T13:11:34Z</time>
      </trkpt>
      <trkpt lat="46.62994" lon="5.41351">
        <ele>220.4</ele>
        <time>2022-03-19T13:11:36Z</time>
      </trkpt>
      <trkpt lat="46.63008" lon="5.41357">
        <ele>221.6</ele>
        <time>2022-03-19T13:11:40Z</time>
      </trkpt>
      <trkpt lat="46.63021" lon="5.41363">
        <ele>222.2</ele>
        <time>2022-03-19T13:11:43Z</time>
      </trkpt>
      <trkpt lat="46.63033" lon="5.4137">
        <ele>222.8</ele>
        <time>2022-03-19T13:11:46Z</time>
      </trkpt>
      <trkpt lat="46.6304" lon="5.41377">
        <ele>223.2</ele>
        <time>2022-03-19T13:11:48Z</time>
      </trkpt>
      <trkpt lat="46.63044" lon="5.41381">
        <ele>223.6</ele>
        <time>2022-03-19T13:11:49Z</time>
      </trkpt>
      <trkpt lat="46.63052" lon="5.41389">
        <ele>224</ele>
        <time>2022-03-19T13:11:51Z</time>
      </trkpt>
      <trkpt lat="46.63068" lon="5.41409">
        <ele>224.6</ele>
        <time>2022-03-19T13:11:55Z</time>
      </trkpt>
      <trkpt lat="46.63078" lon="5.41423">
        <ele>225</ele>
        <time>2022-03-19T13:11:58Z</time>
      </trkpt>
      <trkpt lat="46.6309" lon="5.41439">
        <ele>225.2</ele>
        <time>2022-03-19T13:12:01Z</time>
      </trkpt>
      <trkpt lat="46.6312" lon="5.41481">
        <ele>225.2</ele>
        <time>2022-03-19T13:12:08Z</time>
      </trkpt>
      <trkpt lat="46.63147" lon="5.41541">
        <ele>224.4</ele>
        <time>2022-03-19T13:12:16Z</time>
      </trkpt>
      <trkpt lat="46.6318" lon="5.41609">
        <ele>224.8</ele>
        <time>2022-03-19T13:12:25Z</time>
      </trkpt>
      <trkpt lat="46.63212" lon="5.41681">
        <ele>224.6</ele>
        <time>2022-03-19T13:12:34Z</time>
      </trkpt>
      <trkpt lat="46.63241" lon="5.41732">
        <ele>225.2</ele>
        <time>2022-03-19T13:12:41Z</time>
      </trkpt>
      <trkpt lat="46.63273" lon="5.41773">
        <ele>226</ele>
        <time>2022-03-19T13:12:48Z</time>
      </trkpt>
      <trkpt lat="46.63312" lon="5.4183">
        <ele>225.4</ele>
        <time>2022-03-19T13:12:56Z</time>
      </trkpt>
      <trkpt lat="46.63318" lon="5.41838">
        <ele>225.4</ele>
        <time>2022-03-19T13:12:57Z</time>
      </trkpt>
      <trkpt lat="46.63358" lon="5.41897">
        <ele>224</ele>
        <time>2022-03-19T13:13:05Z</time>
      </trkpt>
      <trkpt lat="46.63374" lon="5.41915">
        <ele>223.6</ele>
        <time>2022-03-19T13:13:08Z</time>
      </trkpt>
      <trkpt lat="46.63384" lon="5.41923">
        <ele>223.4</ele>
        <time>2022-03-19T13:13:10Z</time>
      </trkpt>
      <trkpt lat="46.63416" lon="5.41948">
        <ele>224</ele>
        <time>2022-03-19T13:13:16Z</time>
      </trkpt>
      <trkpt lat="46.6345" lon="5.41966">
        <ele>224.6</ele>
        <time>2022-03-19T13:13:22Z</time>
      </trkpt>
      <trkpt lat="46.63466" lon="5.41977">
        <ele>225</ele>
        <time>2022-03-19T13:13:25Z</time>
      </trkpt>
      <trkpt lat="46.63486" lon="5.41996">
        <ele>225.2</ele>
        <time>2022-03-19T13:13:29Z</time>
      </trkpt>
      <trkpt lat="46.63529" lon="5.42026">
        <ele>225.6</ele>
        <time>2022-03-19T13:13:37Z</time>
      </trkpt>
      <trkpt lat="46.63546" lon="5.42034">
        <ele>225.6</ele>
        <time>2022-03-19T13:13:40Z</time>
      </trkpt>
      <trkpt lat="46.63557" lon="5.42042">
        <ele>226</ele>
        <time>2022-03-19T13:13:42Z</time>
      </trkpt>
      <trkpt lat="46.63578" lon="5.42067">
        <ele>226.2</ele>
        <time>2022-03-19T13:13:46Z</time>
      </trkpt>
      <trkpt lat="46.63585" lon="5.42081">
        <ele>226.4</ele>
        <time>2022-03-19T13:13:48Z</time>
      </trkpt>
      <trkpt lat="46.63597" lon="5.42117">
        <ele>226.4</ele>
        <time>2022-03-19T13:13:52Z</time>
      </trkpt>
      <trkpt lat="46.63605" lon="5.42131">
        <ele>226.4</ele>
        <time>2022-03-19T13:13:54Z</time>
      </trkpt>
      <trkpt lat="46.63611" lon="5.42137">
        <ele>226.4</ele>
        <time>2022-03-19T13:13:55Z</time>
      </trkpt>
      <trkpt lat="46.63616" lon="5.4214">
        <ele>226.4</ele>
        <time>2022-03-19T13:13:56Z</time>
      </trkpt>
      <trkpt lat="46.63634" lon="5.42148">
        <ele>226.4</ele>
        <time>2022-03-19T13:13:59Z</time>
      </trkpt>
      <trkpt lat="46.6364" lon="5.4215">
        <ele>226.4</ele>
        <time>2022-03-19T13:14:00Z</time>
      </trkpt>
      <trkpt lat="46.63664" lon="5.42158">
        <ele>227.2</ele>
        <time>2022-03-19T13:14:04Z</time>
      </trkpt>
      <trkpt lat="46.63668" lon="5.42161">
        <ele>227.2</ele>
        <time>2022-03-19T13:14:05Z</time>
      </trkpt>
      <trkpt lat="46.63674" lon="5.42164">
        <ele>227.4</ele>
        <time>2022-03-19T13:14:06Z</time>
      </trkpt>
      <trkpt lat="46.63713" lon="5.42193">
        <ele>228.2</ele>
        <time>2022-03-19T13:14:13Z</time>
      </trkpt>
      <trkpt lat="46.63728" lon="5.42205">
        <ele>228.4</ele>
        <time>2022-03-19T13:14:16Z</time>
      </trkpt>
      <trkpt lat="46.63742" lon="5.4222">
        <ele>228.6</ele>
        <time>2022-03-19T13:14:19Z</time>
      </trkpt>
      <trkpt lat="46.63747" lon="5.42226">
        <ele>228.8</ele>
        <time>2022-03-19T13:14:20Z</time>
      </trkpt>
      <trkpt lat="46.6375" lon="5.42232">
        <ele>228.8</ele>
        <time>2022-03-19T13:14:21Z</time>
      </trkpt>
      <trkpt lat="46.63753" lon="5.42248">
        <ele>229</ele>
        <time>2022-03-19T13:14:23Z</time>
      </trkpt>
      <trkpt lat="46.63753" lon="5.42266">
        <ele>229.2</ele>
        <time>2022-03-19T13:14:25Z</time>
      </trkpt>
      <trkpt lat="46.63759" lon="5.42283">
        <ele>229.4</ele>
        <time>2022-03-19T13:14:27Z</time>
      </trkpt>
      <trkpt lat="46.63769" lon="5.42297">
        <ele>229.4</ele>
        <time>2022-03-19T13:14:29Z</time>
      </trkpt>
      <trkpt lat="46.6378" lon="5.42308">
        <ele>229.6</ele>
        <time>2022-03-19T13:14:31Z</time>
      </trkpt>
      <trkpt lat="46.63814" lon="5.42343">
        <ele>229.2</ele>
        <time>2022-03-19T13:14:37Z</time>
      </trkpt>
      <trkpt lat="46.63818" lon="5.42348">
        <ele>229.2</ele>
        <time>2022-03-19T13:14:38Z</time>
      </trkpt>
      <trkpt lat="46.63848" lon="5.42398">
        <ele>229.6</ele>
        <time>2022-03-19T13:14:45Z</time>
      </trkpt>
      <trkpt lat="46.63877" lon="5.42452">
        <ele>230</ele>
        <time>2022-03-19T13:14:52Z</time>
      </trkpt>
      <trkpt lat="46.63891" lon="5.4249">
        <ele>229.8</ele>
        <time>2022-03-19T13:14:56Z</time>
      </trkpt>
      <trkpt lat="46.63893" lon="5.425">
        <ele>229.6</ele>
        <time>2022-03-19T13:14:57Z</time>
      </trkpt>
      <trkpt lat="46.63896" lon="5.42511">
        <ele>229.4</ele>
        <time>2022-03-19T13:14:58Z</time>
      </trkpt>
      <trkpt lat="46.63905" lon="5.42531">
        <ele>229.2</ele>
        <time>2022-03-19T13:15:00Z</time>
      </trkpt>
      <trkpt lat="46.63909" lon="5.42537">
        <ele>228.8</ele>
        <time>2022-03-19T13:15:01Z</time>
      </trkpt>
      <trkpt lat="46.63928" lon="5.42561">
        <ele>228.6</ele>
        <time>2022-03-19T13:15:04Z</time>
      </trkpt>
      <trkpt lat="46.6396" lon="5.42597">
        <ele>227.4</ele>
        <time>2022-03-19T13:15:09Z</time>
      </trkpt>
      <trkpt lat="46.64004" lon="5.42643">
        <ele>226.2</ele>
        <time>2022-03-19T13:15:16Z</time>
      </trkpt>
      <trkpt lat="46.64009" lon="5.42652">
        <ele>226.2</ele>
        <time>2022-03-19T13:15:17Z</time>
      </trkpt>
      <trkpt lat="46.64027" lon="5.4269">
        <ele>226</ele>
        <time>2022-03-19T13:15:21Z</time>
      </trkpt>
      <trkpt lat="46.64037" lon="5.42707">
        <ele>225.6</ele>
        <time>2022-03-19T13:15:23Z</time>
      </trkpt>
      <trkpt lat="46.64058" lon="5.42738">
        <ele>225.6</ele>
        <time>2022-03-19T13:15:27Z</time>
      </trkpt>
      <trkpt lat="46.64076" lon="5.42761">
        <ele>225.4</ele>
        <time>2022-03-19T13:15:30Z</time>
      </trkpt>
      <trkpt lat="46.64089" lon="5.42773">
        <ele>224.8</ele>
        <time>2022-03-19T13:15:32Z</time>
      </trkpt>
      <trkpt lat="46.6411" lon="5.42788">
        <ele>224.2</ele>
        <time>2022-03-19T13:15:35Z</time>
      </trkpt>
      <trkpt lat="46.64132" lon="5.428">
        <ele>223.8</ele>
        <time>2022-03-19T13:15:38Z</time>
      </trkpt>
      <trkpt lat="46.64139" lon="5.42804">
        <ele>223.8</ele>
        <time>2022-03-19T13:15:39Z</time>
      </trkpt>
      <trkpt lat="46.6415" lon="5.42817">
        <ele>223.6</ele>
        <time>2022-03-19T13:15:41Z</time>
      </trkpt>
      <trkpt lat="46.64155" lon="5.42825">
        <ele>223.6</ele>
        <time>2022-03-19T13:15:42Z</time>
      </trkpt>
      <trkpt lat="46.64179" lon="5.42878">
        <ele>223.6</ele>
        <time>2022-03-19T13:15:48Z</time>
      </trkpt>
      <trkpt lat="46.64204" lon="5.42953">
        <ele>224</ele>
        <time>2022-03-19T13:15:56Z</time>
      </trkpt>
      <trkpt lat="46.6421" lon="5.42972">
        <ele>224.2</ele>
        <time>2022-03-19T13:15:58Z</time>
      </trkpt>
      <trkpt lat="46.64212" lon="5.42991">
        <ele>224.6</ele>
        <time>2022-03-19T13:16:00Z</time>
      </trkpt>
      <trkpt lat="46.6421" lon="5.43011">
        <ele>224.8</ele>
        <time>2022-03-19T13:16:02Z</time>
      </trkpt>
      <trkpt lat="46.64207" lon="5.4302">
        <ele>225</ele>
        <time>2022-03-19T13:16:03Z</time>
      </trkpt>
      <trkpt lat="46.64193" lon="5.43066">
        <ele>225.2</ele>
        <time>2022-03-19T13:16:08Z</time>
      </trkpt>
      <trkpt lat="46.64191" lon="5.43076">
        <ele>225.4</ele>
        <time>2022-03-19T13:16:09Z</time>
      </trkpt>
      <trkpt lat="46.64189" lon="5.43085">
        <ele>225.4</ele>
        <time>2022-03-19T13:16:10Z</time>
      </trkpt>
      <trkpt lat="46.64186" lon="5.43104">
        <ele>225.4</ele>
        <time>2022-03-19T13:16:12Z</time>
      </trkpt>
      <trkpt lat="46.64188" lon="5.43133">
        <ele>225.8</ele>
        <time>2022-03-19T13:16:15Z</time>
      </trkpt>
      <trkpt lat="46.64192" lon="5.4315">
        <ele>226.4</ele>
        <time>2022-03-19T13:16:17Z</time>
      </trkpt>
      <trkpt lat="46.642" lon="5.43177">
        <ele>227</ele>
        <time>2022-03-19T13:16:20Z</time>
      </trkpt>
      <trkpt lat="46.64225" lon="5.43232">
        <ele>226.8</ele>
        <time>2022-03-19T13:16:26Z</time>
      </trkpt>
      <trkpt lat="46.64255" lon="5.43285">
        <ele>225.2</ele>
        <time>2022-03-19T13:16:32Z</time>
      </trkpt>
      <trkpt lat="46.6426" lon="5.43294">
        <ele>225</ele>
        <time>2022-03-19T13:16:33Z</time>
      </trkpt>
      <trkpt lat="46.64276" lon="5.4332">
        <ele>223.8</ele>
        <time>2022-03-19T13:16:36Z</time>
      </trkpt>
      <trkpt lat="46.64303" lon="5.43362">
        <ele>222.8</ele>
        <time>2022-03-19T13:16:41Z</time>
      </trkpt>
      <trkpt lat="46.64308" lon="5.4337">
        <ele>222.6</ele>
        <time>2022-03-19T13:16:42Z</time>
      </trkpt>
      <trkpt lat="46.64333" lon="5.43398">
        <ele>221.6</ele>
        <time>2022-03-19T13:16:46Z</time>
      </trkpt>
      <trkpt lat="46.64339" lon="5.43404">
        <ele>221.4</ele>
        <time>2022-03-19T13:16:47Z</time>
      </trkpt>
      <trkpt lat="46.64374" lon="5.43425">
        <ele>221.2</ele>
        <time>2022-03-19T13:16:52Z</time>
      </trkpt>
      <trkpt lat="46.64422" lon="5.4344">
        <ele>221.2</ele>
        <time>2022-03-19T13:16:59Z</time>
      </trkpt>
      <trkpt lat="46.64447" lon="5.4345">
        <ele>221.4</ele>
        <time>2022-03-19T13:17:03Z</time>
      </trkpt>
      <trkpt lat="46.64459" lon="5.43458">
        <ele>221.8</ele>
        <time>2022-03-19T13:17:05Z</time>
      </trkpt>
      <trkpt lat="46.64476" lon="5.43472">
        <ele>222.6</ele>
        <time>2022-03-19T13:17:08Z</time>
      </trkpt>
      <trkpt lat="46.64499" lon="5.43494">
        <ele>223.6</ele>
        <time>2022-03-19T13:17:12Z</time>
      </trkpt>
      <trkpt lat="46.64535" lon="5.43528">
        <ele>223.6</ele>
        <time>2022-03-19T13:17:18Z</time>
      </trkpt>
      <trkpt lat="46.64546" lon="5.43542">
        <ele>223.6</ele>
        <time>2022-03-19T13:17:20Z</time>
      </trkpt>
      <trkpt lat="46.64575" lon="5.43567">
        <ele>223.6</ele>
        <time>2022-03-19T13:17:25Z</time>
      </trkpt>
      <trkpt lat="46.64587" lon="5.43573">
        <ele>223.8</ele>
        <time>2022-03-19T13:17:27Z</time>
      </trkpt>
      <trkpt lat="46.64605" lon="5.43579">
        <ele>224</ele>
        <time>2022-03-19T13:17:30Z</time>
      </trkpt>
      <trkpt lat="46.64633" lon="5.43592">
        <ele>225</ele>
        <time>2022-03-19T13:17:35Z</time>
      </trkpt>
      <trkpt lat="46.64638" lon="5.43596">
        <ele>225.4</ele>
        <time>2022-03-19T13:17:36Z</time>
      </trkpt>
      <trkpt lat="46.64653" lon="5.4361">
        <ele>226.2</ele>
        <time>2022-03-19T13:17:40Z</time>
      </trkpt>
      <trkpt lat="46.64659" lon="5.43615">
        <ele>226.6</ele>
        <time>2022-03-19T13:17:42Z</time>
      </trkpt>
      <trkpt lat="46.64668" lon="5.43622">
        <ele>227.2</ele>
        <time>2022-03-19T13:17:45Z</time>
      </trkpt>
      <trkpt lat="46.6468" lon="5.43629">
        <ele>227.6</ele>
        <time>2022-03-19T13:17:49Z</time>
      </trkpt>
      <trkpt lat="46.64688" lon="5.43632">
        <ele>227.8</ele>
        <time>2022-03-19T13:17:51Z</time>
      </trkpt>
      <trkpt lat="46.64697" lon="5.43639">
        <ele>228</ele>
        <time>2022-03-19T13:17:53Z</time>
      </trkpt>
      <trkpt lat="46.64706" lon="5.43647">
        <ele>228.2</ele>
        <time>2022-03-19T13:17:55Z</time>
      </trkpt>
      <trkpt lat="46.64711" lon="5.4365">
        <ele>228.4</ele>
        <time>2022-03-19T13:17:56Z</time>
      </trkpt>
      <trkpt lat="46.64725" lon="5.43657">
        <ele>229</ele>
        <time>2022-03-19T13:17:59Z</time>
      </trkpt>
      <trkpt lat="46.64733" lon="5.43661">
        <ele>229.2</ele>
        <time>2022-03-19T13:18:01Z</time>
      </trkpt>
      <trkpt lat="46.64751" lon="5.4367">
        <ele>230</ele>
        <time>2022-03-19T13:18:05Z</time>
      </trkpt>
      <trkpt lat="46.64759" lon="5.43674">
        <ele>230.2</ele>
        <time>2022-03-19T13:18:07Z</time>
      </trkpt>
      <trkpt lat="46.64771" lon="5.43682">
        <ele>230.8</ele>
        <time>2022-03-19T13:18:10Z</time>
      </trkpt>
      <trkpt lat="46.64779" lon="5.4369">
        <ele>231</ele>
        <time>2022-03-19T13:18:12Z</time>
      </trkpt>
      <trkpt lat="46.64783" lon="5.43695">
        <ele>231.2</ele>
        <time>2022-03-19T13:18:13Z</time>
      </trkpt>
      <trkpt lat="46.64787" lon="5.437">
        <ele>231.4</ele>
        <time>2022-03-19T13:18:14Z</time>
      </trkpt>
      <trkpt lat="46.64791" lon="5.43706">
        <ele>231.4</ele>
        <time>2022-03-19T13:18:15Z</time>
      </trkpt>
      <trkpt lat="46.64797" lon="5.43718">
        <ele>231.4</ele>
        <time>2022-03-19T13:18:17Z</time>
      </trkpt>
      <trkpt lat="46.648" lon="5.43725">
        <ele>231.4</ele>
        <time>2022-03-19T13:18:18Z</time>
      </trkpt>
      <trkpt lat="46.64806" lon="5.43742">
        <ele>231.4</ele>
        <time>2022-03-19T13:18:20Z</time>
      </trkpt>
      <trkpt lat="46.6481" lon="5.4376">
        <ele>231</ele>
        <time>2022-03-19T13:18:22Z</time>
      </trkpt>
      <trkpt lat="46.64814" lon="5.43778">
        <ele>230.6</ele>
        <time>2022-03-19T13:18:24Z</time>
      </trkpt>
      <trkpt lat="46.64817" lon="5.43787">
        <ele>230.2</ele>
        <time>2022-03-19T13:18:25Z</time>
      </trkpt>
      <trkpt lat="46.64821" lon="5.43796">
        <ele>230.2</ele>
        <time>2022-03-19T13:18:26Z</time>
      </trkpt>
      <trkpt lat="46.64826" lon="5.43805">
        <ele>230</ele>
        <time>2022-03-19T13:18:27Z</time>
      </trkpt>
      <trkpt lat="46.64831" lon="5.43812">
        <ele>229.8</ele>
        <time>2022-03-19T13:18:28Z</time>
      </trkpt>
      <trkpt lat="46.6485" lon="5.43832">
        <ele>229.6</ele>
        <time>2022-03-19T13:18:31Z</time>
      </trkpt>
      <trkpt lat="46.64871" lon="5.43848">
        <ele>229.2</ele>
        <time>2022-03-19T13:18:34Z</time>
      </trkpt>
      <trkpt lat="46.64878" lon="5.43854">
        <ele>229</ele>
        <time>2022-03-19T13:18:35Z</time>
      </trkpt>
      <trkpt lat="46.64885" lon="5.43861">
        <ele>229</ele>
        <time>2022-03-19T13:18:36Z</time>
      </trkpt>
      <trkpt lat="46.64895" lon="5.43874">
        <ele>228.4</ele>
        <time>2022-03-19T13:18:38Z</time>
      </trkpt>
      <trkpt lat="46.64907" lon="5.43883">
        <ele>227.8</ele>
        <time>2022-03-19T13:18:40Z</time>
      </trkpt>
      <trkpt lat="46.64918" lon="5.4389">
        <ele>227.6</ele>
        <time>2022-03-19T13:18:42Z</time>
      </trkpt>
      <trkpt lat="46.64928" lon="5.439">
        <ele>227.6</ele>
        <time>2022-03-19T13:18:44Z</time>
      </trkpt>
      <trkpt lat="46.64951" lon="5.43923">
        <ele>228.2</ele>
        <time>2022-03-19T13:18:49Z</time>
      </trkpt>
      <trkpt lat="46.64955" lon="5.43928">
        <ele>228.4</ele>
        <time>2022-03-19T13:18:50Z</time>
      </trkpt>
      <trkpt lat="46.64972" lon="5.43946">
        <ele>229</ele>
        <time>2022-03-19T13:18:54Z</time>
      </trkpt>
      <trkpt lat="46.64991" lon="5.43965">
        <ele>229.4</ele>
        <time>2022-03-19T13:18:58Z</time>
      </trkpt>
      <trkpt lat="46.65014" lon="5.43988">
        <ele>230.2</ele>
        <time>2022-03-19T13:19:03Z</time>
      </trkpt>
      <trkpt lat="46.65028" lon="5.44001">
        <ele>230.6</ele>
        <time>2022-03-19T13:19:06Z</time>
      </trkpt>
      <trkpt lat="46.65037" lon="5.44008">
        <ele>231</ele>
        <time>2022-03-19T13:19:08Z</time>
      </trkpt>
      <trkpt lat="46.65048" lon="5.44012">
        <ele>231</ele>
        <time>2022-03-19T13:19:10Z</time>
      </trkpt>
      <trkpt lat="46.65053" lon="5.44013">
        <ele>231.2</ele>
        <time>2022-03-19T13:19:11Z</time>
      </trkpt>
      <trkpt lat="46.65058" lon="5.44014">
        <ele>231.2</ele>
        <time>2022-03-19T13:19:12Z</time>
      </trkpt>
      <trkpt lat="46.65093" lon="5.44017">
        <ele>231.4</ele>
        <time>2022-03-19T13:19:18Z</time>
      </trkpt>
      <trkpt lat="46.65104" lon="5.44022">
        <ele>231.6</ele>
        <time>2022-03-19T13:19:20Z</time>
      </trkpt>
      <trkpt lat="46.65114" lon="5.4403">
        <ele>231.8</ele>
        <time>2022-03-19T13:19:22Z</time>
      </trkpt>
      <trkpt lat="46.65118" lon="5.44036">
        <ele>231.8</ele>
        <time>2022-03-19T13:19:23Z</time>
      </trkpt>
      <trkpt lat="46.65144" lon="5.44073">
        <ele>232.2</ele>
        <time>2022-03-19T13:19:29Z</time>
      </trkpt>
      <trkpt lat="46.65153" lon="5.44086">
        <ele>232.2</ele>
        <time>2022-03-19T13:19:31Z</time>
      </trkpt>
      <trkpt lat="46.65194" lon="5.44149">
        <ele>232.2</ele>
        <time>2022-03-19T13:19:40Z</time>
      </trkpt>
      <trkpt lat="46.65232" lon="5.4421">
        <ele>231.8</ele>
        <time>2022-03-19T13:19:49Z</time>
      </trkpt>
      <trkpt lat="46.65269" lon="5.44251">
        <ele>231.8</ele>
        <time>2022-03-19T13:19:56Z</time>
      </trkpt>
      <trkpt lat="46.65316" lon="5.44283">
        <ele>231.4</ele>
        <time>2022-03-19T13:20:04Z</time>
      </trkpt>
      <trkpt lat="46.65326" lon="5.44291">
        <ele>231.4</ele>
        <time>2022-03-19T13:20:06Z</time>
      </trkpt>
      <trkpt lat="46.65347" lon="5.44309">
        <ele>231.2</ele>
        <time>2022-03-19T13:20:10Z</time>
      </trkpt>
      <trkpt lat="46.65381" lon="5.44342">
        <ele>231.4</ele>
        <time>2022-03-19T13:20:16Z</time>
      </trkpt>
      <trkpt lat="46.65414" lon="5.44384">
        <ele>231.4</ele>
        <time>2022-03-19T13:20:22Z</time>
      </trkpt>
      <trkpt lat="46.65444" lon="5.44433">
        <ele>231.2</ele>
        <time>2022-03-19T13:20:28Z</time>
      </trkpt>
      <trkpt lat="46.65449" lon="5.44441">
        <ele>231</ele>
        <time>2022-03-19T13:20:29Z</time>
      </trkpt>
      <trkpt lat="46.65455" lon="5.44449">
        <ele>231</ele>
        <time>2022-03-19T13:20:30Z</time>
      </trkpt>
      <trkpt lat="46.65476" lon="5.44468">
        <ele>230.8</ele>
        <time>2022-03-19T13:20:33Z</time>
      </trkpt>
      <trkpt lat="46.65526" lon="5.44496">
        <ele>230.8</ele>
        <time>2022-03-19T13:20:40Z</time>
      </trkpt>
      <trkpt lat="46.65534" lon="5.44498">
        <ele>230.8</ele>
        <time>2022-03-19T13:20:41Z</time>
      </trkpt>
      <trkpt lat="46.65569" lon="5.44506">
        <ele>230.8</ele>
        <time>2022-03-19T13:20:46Z</time>
      </trkpt>
      <trkpt lat="46.65576" lon="5.4451">
        <ele>231.2</ele>
        <time>2022-03-19T13:20:47Z</time>
      </trkpt>
      <trkpt lat="46.65582" lon="5.44515">
        <ele>231.2</ele>
        <time>2022-03-19T13:20:48Z</time>
      </trkpt>
      <trkpt lat="46.65605" lon="5.44538">
        <ele>231.8</ele>
        <time>2022-03-19T13:20:52Z</time>
      </trkpt>
      <trkpt lat="46.65626" lon="5.44562">
        <ele>232.4</ele>
        <time>2022-03-19T13:20:56Z</time>
      </trkpt>
      <trkpt lat="46.65653" lon="5.44594">
        <ele>232.6</ele>
        <time>2022-03-19T13:21:01Z</time>
      </trkpt>
      <trkpt lat="46.65694" lon="5.4465">
        <ele>232.8</ele>
        <time>2022-03-19T13:21:09Z</time>
      </trkpt>
      <trkpt lat="46.65725" lon="5.44701">
        <ele>233</ele>
        <time>2022-03-19T13:21:16Z</time>
      </trkpt>
      <trkpt lat="46.65735" lon="5.44748">
        <ele>233.6</ele>
        <time>2022-03-19T13:21:21Z</time>
      </trkpt>
      <trkpt lat="46.6575" lon="5.44825">
        <ele>234</ele>
        <time>2022-03-19T13:21:29Z</time>
      </trkpt>
      <trkpt lat="46.65765" lon="5.44894">
        <ele>234</ele>
        <time>2022-03-19T13:21:36Z</time>
      </trkpt>
      <trkpt lat="46.65765" lon="5.44902">
        <ele>234</ele>
        <time>2022-03-19T13:21:37Z</time>
      </trkpt>
      <trkpt lat="46.65769" lon="5.44986">
        <ele>233.4</ele>
        <time>2022-03-19T13:21:45Z</time>
      </trkpt>
      <trkpt lat="46.65771" lon="5.44996">
        <ele>233.4</ele>
        <time>2022-03-19T13:21:46Z</time>
      </trkpt>
      <trkpt lat="46.65777" lon="5.45017">
        <ele>232.8</ele>
        <time>2022-03-19T13:21:48Z</time>
      </trkpt>
      <trkpt lat="46.65782" lon="5.45026">
        <ele>232.4</ele>
        <time>2022-03-19T13:21:49Z</time>
      </trkpt>
      <trkpt lat="46.65789" lon="5.45036">
        <ele>232.4</ele>
        <time>2022-03-19T13:21:50Z</time>
      </trkpt>
      <trkpt lat="46.65808" lon="5.45057">
        <ele>231.6</ele>
        <time>2022-03-19T13:21:53Z</time>
      </trkpt>
      <trkpt lat="46.65814" lon="5.45064">
        <ele>231.4</ele>
        <time>2022-03-19T13:21:54Z</time>
      </trkpt>
      <trkpt lat="46.65852" lon="5.45103">
        <ele>230.6</ele>
        <time>2022-03-19T13:22:00Z</time>
      </trkpt>
      <trkpt lat="46.65884" lon="5.45141">
        <ele>231.2</ele>
        <time>2022-03-19T13:22:06Z</time>
      </trkpt>
      <trkpt lat="46.65889" lon="5.45148">
        <ele>231.6</ele>
        <time>2022-03-19T13:22:07Z</time>
      </trkpt>
      <trkpt lat="46.65903" lon="5.45167">
        <ele>232.2</ele>
        <time>2022-03-19T13:22:10Z</time>
      </trkpt>
      <trkpt lat="46.6592" lon="5.45187">
        <ele>232.6</ele>
        <time>2022-03-19T13:22:13Z</time>
      </trkpt>
      <trkpt lat="46.65937" lon="5.45203">
        <ele>232.6</ele>
        <time>2022-03-19T13:22:16Z</time>
      </trkpt>
      <trkpt lat="46.65975" lon="5.45244">
        <ele>233</ele>
        <time>2022-03-19T13:22:23Z</time>
      </trkpt>
      <trkpt lat="46.65984" lon="5.4526">
        <ele>233</ele>
        <time>2022-03-19T13:22:25Z</time>
      </trkpt>
      <trkpt lat="46.6599" lon="5.45277">
        <ele>233.2</ele>
        <time>2022-03-19T13:22:27Z</time>
      </trkpt>
      <trkpt lat="46.65994" lon="5.45286">
        <ele>233.2</ele>
        <time>2022-03-19T13:22:28Z</time>
      </trkpt>
      <trkpt lat="46.66003" lon="5.45313">
        <ele>233.2</ele>
        <time>2022-03-19T13:22:31Z</time>
      </trkpt>
      <trkpt lat="46.66029" lon="5.45359">
        <ele>233.2</ele>
        <time>2022-03-19T13:22:37Z</time>
      </trkpt>
      <trkpt lat="46.66068" lon="5.45421">
        <ele>233</ele>
        <time>2022-03-19T13:22:45Z</time>
      </trkpt>
      <trkpt lat="46.66084" lon="5.45444">
        <ele>232.8</ele>
        <time>2022-03-19T13:22:48Z</time>
      </trkpt>
      <trkpt lat="46.66109" lon="5.4547">
        <ele>232.4</ele>
        <time>2022-03-19T13:22:52Z</time>
      </trkpt>
      <trkpt lat="46.66116" lon="5.45475">
        <ele>232</ele>
        <time>2022-03-19T13:22:53Z</time>
      </trkpt>
      <trkpt lat="46.66136" lon="5.45485">
        <ele>231.6</ele>
        <time>2022-03-19T13:22:56Z</time>
      </trkpt>
      <trkpt lat="46.6616" lon="5.45494">
        <ele>231</ele>
        <time>2022-03-19T13:22:59Z</time>
      </trkpt>
      <trkpt lat="46.66191" lon="5.45507">
        <ele>230.6</ele>
        <time>2022-03-19T13:23:03Z</time>
      </trkpt>
      <trkpt lat="46.66229" lon="5.45523">
        <ele>230</ele>
        <time>2022-03-19T13:23:08Z</time>
      </trkpt>
      <trkpt lat="46.66269" lon="5.45551">
        <ele>229.4</ele>
        <time>2022-03-19T13:23:14Z</time>
      </trkpt>
      <trkpt lat="46.66315" lon="5.45596">
        <ele>229.4</ele>
        <time>2022-03-19T13:23:21Z</time>
      </trkpt>
      <trkpt lat="46.66319" lon="5.45601">
        <ele>229.4</ele>
        <time>2022-03-19T13:23:22Z</time>
      </trkpt>
      <trkpt lat="46.6635" lon="5.4565">
        <ele>229.6</ele>
        <time>2022-03-19T13:23:28Z</time>
      </trkpt>
      <trkpt lat="46.66383" lon="5.45716">
        <ele>229</ele>
        <time>2022-03-19T13:23:35Z</time>
      </trkpt>
      <trkpt lat="46.66396" lon="5.45744">
        <ele>228.6</ele>
        <time>2022-03-19T13:23:38Z</time>
      </trkpt>
      <trkpt lat="46.66422" lon="5.45797">
        <ele>228</ele>
        <time>2022-03-19T13:23:44Z</time>
      </trkpt>
      <trkpt lat="46.66457" lon="5.45866">
        <ele>227.8</ele>
        <time>2022-03-19T13:23:52Z</time>
      </trkpt>
      <trkpt lat="46.66461" lon="5.45875">
        <ele>227.8</ele>
        <time>2022-03-19T13:23:53Z</time>
      </trkpt>
      <trkpt lat="46.66489" lon="5.45929">
        <ele>228.2</ele>
        <time>2022-03-19T13:24:00Z</time>
      </trkpt>
      <trkpt lat="46.66494" lon="5.45934">
        <ele>228.2</ele>
        <time>2022-03-19T13:24:01Z</time>
      </trkpt>
      <trkpt lat="46.66499" lon="5.45935">
        <ele>228.2</ele>
        <time>2022-03-19T13:24:02Z</time>
      </trkpt>
      <trkpt lat="46.66512" lon="5.45933">
        <ele>228.4</ele>
        <time>2022-03-19T13:24:04Z</time>
      </trkpt>
      <trkpt lat="46.66555" lon="5.459">
        <ele>229</ele>
        <time>2022-03-19T13:24:11Z</time>
      </trkpt>
      <trkpt lat="46.66581" lon="5.45882">
        <ele>229.6</ele>
        <time>2022-03-19T13:24:15Z</time>
      </trkpt>
      <trkpt lat="46.66629" lon="5.4585">
        <ele>230.6</ele>
        <time>2022-03-19T13:24:23Z</time>
      </trkpt>
      <trkpt lat="46.66673" lon="5.45828">
        <ele>231.8</ele>
        <time>2022-03-19T13:24:30Z</time>
      </trkpt>
      <trkpt lat="46.66697" lon="5.4582">
        <ele>232.8</ele>
        <time>2022-03-19T13:24:34Z</time>
      </trkpt>
      <trkpt lat="46.66734" lon="5.45808">
        <ele>233.2</ele>
        <time>2022-03-19T13:24:40Z</time>
      </trkpt>
      <trkpt lat="46.66775" lon="5.45798">
        <ele>233.8</ele>
        <time>2022-03-19T13:24:46Z</time>
      </trkpt>
      <trkpt lat="46.66789" lon="5.45795">
        <ele>234</ele>
        <time>2022-03-19T13:24:48Z</time>
      </trkpt>
      <trkpt lat="46.668" lon="5.45796">
        <ele>234.4</ele>
        <time>2022-03-19T13:24:50Z</time>
      </trkpt>
      <trkpt lat="46.66814" lon="5.45802">
        <ele>234.4</ele>
        <time>2022-03-19T13:24:52Z</time>
      </trkpt>
      <trkpt lat="46.66824" lon="5.45812">
        <ele>234.4</ele>
        <time>2022-03-19T13:24:54Z</time>
      </trkpt>
      <trkpt lat="46.66834" lon="5.45827">
        <ele>234.4</ele>
        <time>2022-03-19T13:24:56Z</time>
      </trkpt>
      <trkpt lat="46.66864" lon="5.45881">
        <ele>234.6</ele>
        <time>2022-03-19T13:25:04Z</time>
      </trkpt>
      <trkpt lat="46.66886" lon="5.45935">
        <ele>234.8</ele>
        <time>2022-03-19T13:25:11Z</time>
      </trkpt>
      <trkpt lat="46.6689" lon="5.45941">
        <ele>235</ele>
        <time>2022-03-19T13:25:12Z</time>
      </trkpt>
      <trkpt lat="46.66899" lon="5.45955">
        <ele>235.2</ele>
        <time>2022-03-19T13:25:14Z</time>
      </trkpt>
      <trkpt lat="46.66905" lon="5.4596">
        <ele>235.2</ele>
        <time>2022-03-19T13:25:15Z</time>
      </trkpt>
      <trkpt lat="46.66945" lon="5.45987">
        <ele>235.4</ele>
        <time>2022-03-19T13:25:22Z</time>
      </trkpt>
      <trkpt lat="46.66984" lon="5.46007">
        <ele>235.4</ele>
        <time>2022-03-19T13:25:29Z</time>
      </trkpt>
      <trkpt lat="46.67032" lon="5.46041">
        <ele>235.8</ele>
        <time>2022-03-19T13:25:37Z</time>
      </trkpt>
      <trkpt lat="46.67038" lon="5.46044">
        <ele>235.8</ele>
        <time>2022-03-19T13:25:38Z</time>
      </trkpt>
      <trkpt lat="46.67057" lon="5.46048">
        <ele>236</ele>
        <time>2022-03-19T13:25:41Z</time>
      </trkpt>
      <trkpt lat="46.6709" lon="5.46047">
        <ele>236</ele>
        <time>2022-03-19T13:25:46Z</time>
      </trkpt>
      <trkpt lat="46.67107" lon="5.46046">
        <ele>236.2</ele>
        <time>2022-03-19T13:25:49Z</time>
      </trkpt>
      <trkpt lat="46.67148" lon="5.46044">
        <ele>236.4</ele>
        <time>2022-03-19T13:25:56Z</time>
      </trkpt>
      <trkpt lat="46.67161" lon="5.46046">
        <ele>236.4</ele>
        <time>2022-03-19T13:26:00Z</time>
      </trkpt>
      <trkpt lat="46.67167" lon="5.46048">
        <ele>236.4</ele>
        <time>2022-03-19T13:26:05Z</time>
      </trkpt>
      <trkpt lat="46.67167" lon="5.46048">
        <ele>236.4</ele>
        <time>2022-03-19T13:26:06Z</time>
      </trkpt>
      <trkpt lat="46.6717" lon="5.46051">
        <ele>236.8</ele>
        <time>2022-03-19T13:26:13Z</time>
      </trkpt>
      <trkpt lat="46.67175" lon="5.46052">
        <ele>236.8</ele>
        <time>2022-03-19T13:26:15Z</time>
      </trkpt>
      <trkpt lat="46.67188" lon="5.46051">
        <ele>236.8</ele>
        <time>2022-03-19T13:26:18Z</time>
      </trkpt>
      <trkpt lat="46.67197" lon="5.46051">
        <ele>236.8</ele>
        <time>2022-03-19T13:26:20Z</time>
      </trkpt>
      <trkpt lat="46.67213" lon="5.46056">
        <ele>236.6</ele>
        <time>2022-03-19T13:26:23Z</time>
      </trkpt>
      <trkpt lat="46.67246" lon="5.46071">
        <ele>236.4</ele>
        <time>2022-03-19T13:26:29Z</time>
      </trkpt>
      <trkpt lat="46.67288" lon="5.46092">
        <ele>236.4</ele>
        <time>2022-03-19T13:26:36Z</time>
      </trkpt>
      <trkpt lat="46.67312" lon="5.46105">
        <ele>236.2</ele>
        <time>2022-03-19T13:26:40Z</time>
      </trkpt>
      <trkpt lat="46.67348" lon="5.46123">
        <ele>236.2</ele>
        <time>2022-03-19T13:26:46Z</time>
      </trkpt>
      <trkpt lat="46.67379" lon="5.46138">
        <ele>236.8</ele>
        <time>2022-03-19T13:26:51Z</time>
      </trkpt>
      <trkpt lat="46.67404" lon="5.4615">
        <ele>237.2</ele>
        <time>2022-03-19T13:26:55Z</time>
      </trkpt>
      <trkpt lat="46.67435" lon="5.46165">
        <ele>237.4</ele>
        <time>2022-03-19T13:27:00Z</time>
      </trkpt>
      <trkpt lat="46.67484" lon="5.46189">
        <ele>237.4</ele>
        <time>2022-03-19T13:27:08Z</time>
      </trkpt>
      <trkpt lat="46.67529" lon="5.46211">
        <ele>237.6</ele>
        <time>2022-03-19T13:27:16Z</time>
      </trkpt>
      <trkpt lat="46.67585" lon="5.46239">
        <ele>238.2</ele>
        <time>2022-03-19T13:27:25Z</time>
      </trkpt>
      <trkpt lat="46.67642" lon="5.46266">
        <ele>237.6</ele>
        <time>2022-03-19T13:27:34Z</time>
      </trkpt>
      <trkpt lat="46.67648" lon="5.4627">
        <ele>237.6</ele>
        <time>2022-03-19T13:27:35Z</time>
      </trkpt>
      <trkpt lat="46.6766" lon="5.46276">
        <ele>237.2</ele>
        <time>2022-03-19T13:27:37Z</time>
      </trkpt>
      <trkpt lat="46.6771" lon="5.46299">
        <ele>237.6</ele>
        <time>2022-03-19T13:27:45Z</time>
      </trkpt>
      <trkpt lat="46.67766" lon="5.46328">
        <ele>238.4</ele>
        <time>2022-03-19T13:27:54Z</time>
      </trkpt>
      <trkpt lat="46.67819" lon="5.46354">
        <ele>238.6</ele>
        <time>2022-03-19T13:28:02Z</time>
      </trkpt>
      <trkpt lat="46.67833" lon="5.46361">
        <ele>238.6</ele>
        <time>2022-03-19T13:28:04Z</time>
      </trkpt>
      <trkpt lat="46.67891" lon="5.46389">
        <ele>239.2</ele>
        <time>2022-03-19T13:28:12Z</time>
      </trkpt>
      <trkpt lat="46.67948" lon="5.46417">
        <ele>238.8</ele>
        <time>2022-03-19T13:28:20Z</time>
      </trkpt>
      <trkpt lat="46.67977" lon="5.46432">
        <ele>238.8</ele>
        <time>2022-03-19T13:28:24Z</time>
      </trkpt>
      <trkpt lat="46.68034" lon="5.4646">
        <ele>238.4</ele>
        <time>2022-03-19T13:28:32Z</time>
      </trkpt>
      <trkpt lat="46.68091" lon="5.46488">
        <ele>238</ele>
        <time>2022-03-19T13:28:40Z</time>
      </trkpt>
      <trkpt lat="46.68147" lon="5.46516">
        <ele>238.4</ele>
        <time>2022-03-19T13:28:48Z</time>
      </trkpt>
      <trkpt lat="46.68175" lon="5.46533">
        <ele>238.4</ele>
        <time>2022-03-19T13:28:52Z</time>
      </trkpt>
      <trkpt lat="46.68224" lon="5.4657">
        <ele>238.2</ele>
        <time>2022-03-19T13:28:59Z</time>
      </trkpt>
      <trkpt lat="46.68231" lon="5.46575">
        <ele>238</ele>
        <time>2022-03-19T13:29:00Z</time>
      </trkpt>
      <trkpt lat="46.68274" lon="5.46609">
        <ele>237.4</ele>
        <time>2022-03-19T13:29:06Z</time>
      </trkpt>
      <trkpt lat="46.68296" lon="5.46626">
        <ele>236.6</ele>
        <time>2022-03-19T13:29:09Z</time>
      </trkpt>
      <trkpt lat="46.68304" lon="5.46632">
        <ele>236.2</ele>
        <time>2022-03-19T13:29:10Z</time>
      </trkpt>
      <trkpt lat="46.68327" lon="5.46653">
        <ele>235.2</ele>
        <time>2022-03-19T13:29:13Z</time>
      </trkpt>
      <trkpt lat="46.68341" lon="5.46669">
        <ele>234.2</ele>
        <time>2022-03-19T13:29:15Z</time>
      </trkpt>
      <trkpt lat="46.68348" lon="5.46678">
        <ele>234</ele>
        <time>2022-03-19T13:29:16Z</time>
      </trkpt>
      <trkpt lat="46.68367" lon="5.46702">
        <ele>233</ele>
        <time>2022-03-19T13:29:19Z</time>
      </trkpt>
      <trkpt lat="46.68385" lon="5.4673">
        <ele>232.2</ele>
        <time>2022-03-19T13:29:22Z</time>
      </trkpt>
      <trkpt lat="46.6839" lon="5.46738">
        <ele>232</ele>
        <time>2022-03-19T13:29:23Z</time>
      </trkpt>
      <trkpt lat="46.68413" lon="5.46777">
        <ele>231.8</ele>
        <time>2022-03-19T13:29:28Z</time>
      </trkpt>
      <trkpt lat="46.6844" lon="5.46819">
        <ele>233.2</ele>
        <time>2022-03-19T13:29:34Z</time>
      </trkpt>
      <trkpt lat="46.68444" lon="5.46826">
        <ele>233.4</ele>
        <time>2022-03-19T13:29:35Z</time>
      </trkpt>
      <trkpt lat="46.68456" lon="5.46848">
        <ele>234.4</ele>
        <time>2022-03-19T13:29:38Z</time>
      </trkpt>
      <trkpt lat="46.68474" lon="5.46878">
        <ele>235.2</ele>
        <time>2022-03-19T13:29:42Z</time>
      </trkpt>
      <trkpt lat="46.68483" lon="5.46893">
        <ele>235.4</ele>
        <time>2022-03-19T13:29:44Z</time>
      </trkpt>
      <trkpt lat="46.68499" lon="5.46923">
        <ele>236.2</ele>
        <time>2022-03-19T13:29:48Z</time>
      </trkpt>
      <trkpt lat="46.68512" lon="5.46945">
        <ele>236.4</ele>
        <time>2022-03-19T13:29:51Z</time>
      </trkpt>
      <trkpt lat="46.68532" lon="5.4698">
        <ele>236.6</ele>
        <time>2022-03-19T13:29:56Z</time>
      </trkpt>
      <trkpt lat="46.68552" lon="5.47016">
        <ele>237.8</ele>
        <time>2022-03-19T13:30:01Z</time>
      </trkpt>
      <trkpt lat="46.68585" lon="5.47074">
        <ele>238.4</ele>
        <time>2022-03-19T13:30:09Z</time>
      </trkpt>
      <trkpt lat="46.68621" lon="5.47136">
        <ele>238.2</ele>
        <time>2022-03-19T13:30:17Z</time>
      </trkpt>
      <trkpt lat="46.68633" lon="5.4716">
        <ele>238</ele>
        <time>2022-03-19T13:30:20Z</time>
      </trkpt>
      <trkpt lat="46.68668" lon="5.47222">
        <ele>238.2</ele>
        <time>2022-03-19T13:30:28Z</time>
      </trkpt>
      <trkpt lat="46.68681" lon="5.47248">
        <ele>238</ele>
        <time>2022-03-19T13:30:31Z</time>
      </trkpt>
      <trkpt lat="46.68714" lon="5.4731">
        <ele>236.8</ele>
        <time>2022-03-19T13:30:38Z</time>
      </trkpt>
      <trkpt lat="46.68724" lon="5.47327">
        <ele>236.4</ele>
        <time>2022-03-19T13:30:40Z</time>
      </trkpt>
      <trkpt lat="46.68736" lon="5.47341">
        <ele>236.2</ele>
        <time>2022-03-19T13:30:42Z</time>
      </trkpt>
      <trkpt lat="46.6875" lon="5.4735">
        <ele>236</ele>
        <time>2022-03-19T13:30:44Z</time>
      </trkpt>
      <trkpt lat="46.68783" lon="5.47353">
        <ele>235.8</ele>
        <time>2022-03-19T13:30:48Z</time>
      </trkpt>
      <trkpt lat="46.6879" lon="5.47353">
        <ele>235.6</ele>
        <time>2022-03-19T13:30:49Z</time>
      </trkpt>
      <trkpt lat="46.68836" lon="5.47365">
        <ele>235</ele>
        <time>2022-03-19T13:30:55Z</time>
      </trkpt>
      <trkpt lat="46.68865" lon="5.47386">
        <ele>235</ele>
        <time>2022-03-19T13:31:00Z</time>
      </trkpt>
      <trkpt lat="46.68885" lon="5.47405">
        <ele>235.6</ele>
        <time>2022-03-19T13:31:04Z</time>
      </trkpt>
      <trkpt lat="46.68894" lon="5.47417">
        <ele>236.8</ele>
        <time>2022-03-19T13:31:06Z</time>
      </trkpt>
      <trkpt lat="46.68909" lon="5.47439">
        <ele>238</ele>
        <time>2022-03-19T13:31:10Z</time>
      </trkpt>
      <trkpt lat="46.68913" lon="5.47444">
        <ele>238.2</ele>
        <time>2022-03-19T13:31:11Z</time>
      </trkpt>
      <trkpt lat="46.68937" lon="5.47484">
        <ele>239.2</ele>
        <time>2022-03-19T13:31:17Z</time>
      </trkpt>
      <trkpt lat="46.68958" lon="5.47517">
        <ele>239.8</ele>
        <time>2022-03-19T13:31:22Z</time>
      </trkpt>
      <trkpt lat="46.68996" lon="5.47581">
        <ele>240</ele>
        <time>2022-03-19T13:31:31Z</time>
      </trkpt>
      <trkpt lat="46.69023" lon="5.47625">
        <ele>240.4</ele>
        <time>2022-03-19T13:31:37Z</time>
      </trkpt>
      <trkpt lat="46.69041" lon="5.47654">
        <ele>240.4</ele>
        <time>2022-03-19T13:31:41Z</time>
      </trkpt>
      <trkpt lat="46.69083" lon="5.47719">
        <ele>240</ele>
        <time>2022-03-19T13:31:50Z</time>
      </trkpt>
      <trkpt lat="46.69087" lon="5.47726">
        <ele>240</ele>
        <time>2022-03-19T13:31:51Z</time>
      </trkpt>
      <trkpt lat="46.69124" lon="5.47785">
        <ele>240.4</ele>
        <time>2022-03-19T13:31:59Z</time>
      </trkpt>
      <trkpt lat="46.69128" lon="5.47792">
        <ele>240.6</ele>
        <time>2022-03-19T13:32:00Z</time>
      </trkpt>
      <trkpt lat="46.69166" lon="5.47854">
        <ele>240.6</ele>
        <time>2022-03-19T13:32:08Z</time>
      </trkpt>
      <trkpt lat="46.69186" lon="5.47886">
        <ele>240.2</ele>
        <time>2022-03-19T13:32:12Z</time>
      </trkpt>
      <trkpt lat="46.69216" lon="5.47933">
        <ele>239.4</ele>
        <time>2022-03-19T13:32:18Z</time>
      </trkpt>
      <trkpt lat="46.69226" lon="5.47948">
        <ele>239</ele>
        <time>2022-03-19T13:32:20Z</time>
      </trkpt>
      <trkpt lat="46.69232" lon="5.47953">
        <ele>238.8</ele>
        <time>2022-03-19T13:32:21Z</time>
      </trkpt>
      <trkpt lat="46.69239" lon="5.47957">
        <ele>238.8</ele>
        <time>2022-03-19T13:32:22Z</time>
      </trkpt>
      <trkpt lat="46.69251" lon="5.47955">
        <ele>238.2</ele>
        <time>2022-03-19T13:32:24Z</time>
      </trkpt>
      <trkpt lat="46.69271" lon="5.47936">
        <ele>237.8</ele>
        <time>2022-03-19T13:32:27Z</time>
      </trkpt>
      <trkpt lat="46.69291" lon="5.47916">
        <ele>236.6</ele>
        <time>2022-03-19T13:32:30Z</time>
      </trkpt>
      <trkpt lat="46.69304" lon="5.47906">
        <ele>236</ele>
        <time>2022-03-19T13:32:32Z</time>
      </trkpt>
      <trkpt lat="46.69321" lon="5.47898">
        <ele>235.6</ele>
        <time>2022-03-19T13:32:34Z</time>
      </trkpt>
      <trkpt lat="46.69361" lon="5.47894">
        <ele>234.4</ele>
        <time>2022-03-19T13:32:39Z</time>
      </trkpt>
      <trkpt lat="46.69369" lon="5.47894">
        <ele>234.4</ele>
        <time>2022-03-19T13:32:40Z</time>
      </trkpt>
      <trkpt lat="46.69428" lon="5.47884">
        <ele>234.8</ele>
        <time>2022-03-19T13:32:48Z</time>
      </trkpt>
      <trkpt lat="46.69435" lon="5.47882">
        <ele>234.8</ele>
        <time>2022-03-19T13:32:49Z</time>
      </trkpt>
      <trkpt lat="46.6949" lon="5.47876">
        <ele>235.2</ele>
        <time>2022-03-19T13:32:57Z</time>
      </trkpt>
      <trkpt lat="46.69514" lon="5.47883">
        <ele>235.2</ele>
        <time>2022-03-19T13:33:01Z</time>
      </trkpt>
      <trkpt lat="46.69526" lon="5.47888">
        <ele>235</ele>
        <time>2022-03-19T13:33:03Z</time>
      </trkpt>
      <trkpt lat="46.69537" lon="5.47891">
        <ele>235</ele>
        <time>2022-03-19T13:33:05Z</time>
      </trkpt>
      <trkpt lat="46.69543" lon="5.47893">
        <ele>235</ele>
        <time>2022-03-19T13:33:06Z</time>
      </trkpt>
      <trkpt lat="46.69557" lon="5.47903">
        <ele>235.2</ele>
        <time>2022-03-19T13:33:09Z</time>
      </trkpt>
      <trkpt lat="46.69563" lon="5.47909">
        <ele>235.4</ele>
        <time>2022-03-19T13:33:10Z</time>
      </trkpt>
      <trkpt lat="46.69567" lon="5.47914">
        <ele>235.8</ele>
        <time>2022-03-19T13:33:11Z</time>
      </trkpt>
      <trkpt lat="46.69576" lon="5.47925">
        <ele>236.6</ele>
        <time>2022-03-19T13:33:13Z</time>
      </trkpt>
      <trkpt lat="46.69589" lon="5.47943">
        <ele>237.6</ele>
        <time>2022-03-19T13:33:16Z</time>
      </trkpt>
      <trkpt lat="46.69597" lon="5.47956">
        <ele>238</ele>
        <time>2022-03-19T13:33:18Z</time>
      </trkpt>
      <trkpt lat="46.69611" lon="5.47976">
        <ele>238.2</ele>
        <time>2022-03-19T13:33:21Z</time>
      </trkpt>
      <trkpt lat="46.69619" lon="5.47989">
        <ele>238.6</ele>
        <time>2022-03-19T13:33:23Z</time>
      </trkpt>
      <trkpt lat="46.69623" lon="5.47997">
        <ele>238.6</ele>
        <time>2022-03-19T13:33:24Z</time>
      </trkpt>
      <trkpt lat="46.69648" lon="5.48039">
        <ele>239.4</ele>
        <time>2022-03-19T13:33:30Z</time>
      </trkpt>
      <trkpt lat="46.69686" lon="5.48102">
        <ele>239.6</ele>
        <time>2022-03-19T13:33:39Z</time>
      </trkpt>
      <trkpt lat="46.69689" lon="5.48108">
        <ele>239.8</ele>
        <time>2022-03-19T13:33:40Z</time>
      </trkpt>
      <trkpt lat="46.69712" lon="5.48145">
        <ele>240</ele>
        <time>2022-03-19T13:33:45Z</time>
      </trkpt>
      <trkpt lat="46.69721" lon="5.48159">
        <ele>240.4</ele>
        <time>2022-03-19T13:33:47Z</time>
      </trkpt>
      <trkpt lat="46.69734" lon="5.48179">
        <ele>240.6</ele>
        <time>2022-03-19T13:33:50Z</time>
      </trkpt>
      <trkpt lat="46.69749" lon="5.48202">
        <ele>240.8</ele>
        <time>2022-03-19T13:33:53Z</time>
      </trkpt>
      <trkpt lat="46.69767" lon="5.48229">
        <ele>241.2</ele>
        <time>2022-03-19T13:33:57Z</time>
      </trkpt>
      <trkpt lat="46.69786" lon="5.48261">
        <ele>241.4</ele>
        <time>2022-03-19T13:34:02Z</time>
      </trkpt>
      <trkpt lat="46.69812" lon="5.48299">
        <ele>241.8</ele>
        <time>2022-03-19T13:34:08Z</time>
      </trkpt>
      <trkpt lat="46.69831" lon="5.48327">
        <ele>242</ele>
        <time>2022-03-19T13:34:12Z</time>
      </trkpt>
      <trkpt lat="46.69835" lon="5.48334">
        <ele>242</ele>
        <time>2022-03-19T13:34:13Z</time>
      </trkpt>
      <trkpt lat="46.6984" lon="5.48342">
        <ele>241.8</ele>
        <time>2022-03-19T13:34:14Z</time>
      </trkpt>
      <trkpt lat="46.69862" lon="5.48373">
        <ele>241.2</ele>
        <time>2022-03-19T13:34:18Z</time>
      </trkpt>
      <trkpt lat="46.69897" lon="5.48425">
        <ele>240.8</ele>
        <time>2022-03-19T13:34:25Z</time>
      </trkpt>
      <trkpt lat="46.69915" lon="5.48453">
        <ele>241.2</ele>
        <time>2022-03-19T13:34:29Z</time>
      </trkpt>
      <trkpt lat="46.69924" lon="5.48466">
        <ele>241.4</ele>
        <time>2022-03-19T13:34:31Z</time>
      </trkpt>
      <trkpt lat="46.69949" lon="5.48505">
        <ele>242.2</ele>
        <time>2022-03-19T13:34:37Z</time>
      </trkpt>
      <trkpt lat="46.69972" lon="5.4854">
        <ele>242.8</ele>
        <time>2022-03-19T13:34:43Z</time>
      </trkpt>
      <trkpt lat="46.69976" lon="5.48545">
        <ele>242.8</ele>
        <time>2022-03-19T13:34:44Z</time>
      </trkpt>
      <trkpt lat="46.69989" lon="5.48569">
        <ele>243.6</ele>
        <time>2022-03-19T13:34:49Z</time>
      </trkpt>
      <trkpt lat="46.69987" lon="5.48575">
        <ele>243.8</ele>
        <time>2022-03-19T13:34:52Z</time>
      </trkpt>
      <trkpt lat="46.69986" lon="5.48576">
        <ele>244</ele>
        <time>2022-03-19T13:34:53Z</time>
      </trkpt>
      <trkpt lat="46.69983" lon="5.48578">
        <ele>244.6</ele>
        <time>2022-03-19T13:34:58Z</time>
      </trkpt>
      <trkpt lat="46.69986" lon="5.48577">
        <ele>244</ele>
        <time>2022-03-19T13:35:59Z</time>
      </trkpt>
      <trkpt lat="46.69988" lon="5.48574">
        <ele>244</ele>
        <time>2022-03-19T13:36:02Z</time>
      </trkpt>
      <trkpt lat="46.69988" lon="5.48574">
        <ele>244</ele>
        <time>2022-03-19T13:36:03Z</time>
      </trkpt>
      <trkpt lat="46.69998" lon="5.48584">
        <ele>244.2</ele>
        <time>2022-03-19T13:36:40Z</time>
      </trkpt>
      <trkpt lat="46.70003" lon="5.48589">
        <ele>244.2</ele>
        <time>2022-03-19T13:36:42Z</time>
      </trkpt>
      <trkpt lat="46.70019" lon="5.48613">
        <ele>244.4</ele>
        <time>2022-03-19T13:36:48Z</time>
      </trkpt>
      <trkpt lat="46.7004" lon="5.4863">
        <ele>244.6</ele>
        <time>2022-03-19T13:36:55Z</time>
      </trkpt>
      <trkpt lat="46.70052" lon="5.48615">
        <ele>244.2</ele>
        <time>2022-03-19T13:36:59Z</time>
      </trkpt>
      <trkpt lat="46.70073" lon="5.48585">
        <ele>243.6</ele>
        <time>2022-03-19T13:37:06Z</time>
      </trkpt>
      <trkpt lat="46.70094" lon="5.48559">
        <ele>243.4</ele>
        <time>2022-03-19T13:37:13Z</time>
      </trkpt>
      <trkpt lat="46.7013" lon="5.48522">
        <ele>243.2</ele>
        <time>2022-03-19T13:37:23Z</time>
      </trkpt>
      <trkpt lat="46.7016" lon="5.48501">
        <ele>244</ele>
        <time>2022-03-19T13:37:30Z</time>
      </trkpt>
      <trkpt lat="46.70199" lon="5.48477">
        <ele>243.8</ele>
        <time>2022-03-19T13:37:39Z</time>
      </trkpt>
      <trkpt lat="46.70209" lon="5.48472">
        <ele>243.8</ele>
        <time>2022-03-19T13:37:41Z</time>
      </trkpt>
      <trkpt lat="46.7023" lon="5.48461">
        <ele>243.6</ele>
        <time>2022-03-19T13:37:45Z</time>
      </trkpt>
      <trkpt lat="46.70273" lon="5.48439">
        <ele>243.4</ele>
        <time>2022-03-19T13:37:53Z</time>
      </trkpt>
      <trkpt lat="46.70314" lon="5.48418">
        <ele>243</ele>
        <time>2022-03-19T13:38:01Z</time>
      </trkpt>
      <trkpt lat="46.70328" lon="5.48412">
        <ele>242.8</ele>
        <time>2022-03-19T13:38:03Z</time>
      </trkpt>
      <trkpt lat="46.70385" lon="5.48381">
        <ele>242.4</ele>
        <time>2022-03-19T13:38:12Z</time>
      </trkpt>
      <trkpt lat="46.70398" lon="5.48373">
        <ele>242.4</ele>
        <time>2022-03-19T13:38:14Z</time>
      </trkpt>
      <trkpt lat="46.70446" lon="5.48344">
        <ele>241.8</ele>
        <time>2022-03-19T13:38:21Z</time>
      </trkpt>
      <trkpt lat="46.70465" lon="5.48332">
        <ele>241.8</ele>
        <time>2022-03-19T13:38:24Z</time>
      </trkpt>
      <trkpt lat="46.7051" lon="5.48305">
        <ele>240.8</ele>
        <time>2022-03-19T13:38:30Z</time>
      </trkpt>
      <trkpt lat="46.70525" lon="5.48297">
        <ele>240.6</ele>
        <time>2022-03-19T13:38:32Z</time>
      </trkpt>
      <trkpt lat="46.70569" lon="5.48273">
        <ele>239.8</ele>
        <time>2022-03-19T13:38:38Z</time>
      </trkpt>
      <trkpt lat="46.70595" lon="5.4826">
        <ele>239.4</ele>
        <time>2022-03-19T13:38:41Z</time>
      </trkpt>
      <trkpt lat="46.70617" lon="5.48246">
        <ele>238.8</ele>
        <time>2022-03-19T13:38:44Z</time>
      </trkpt>
      <trkpt lat="46.70655" lon="5.48225">
        <ele>238</ele>
        <time>2022-03-19T13:38:49Z</time>
      </trkpt>
      <trkpt lat="46.70669" lon="5.48216">
        <ele>237.6</ele>
        <time>2022-03-19T13:38:51Z</time>
      </trkpt>
      <trkpt lat="46.70724" lon="5.48182">
        <ele>237</ele>
        <time>2022-03-19T13:38:58Z</time>
      </trkpt>
      <trkpt lat="46.70745" lon="5.48169">
        <ele>236.6</ele>
        <time>2022-03-19T13:39:01Z</time>
      </trkpt>
      <trkpt lat="46.70794" lon="5.48137">
        <ele>235.4</ele>
        <time>2022-03-19T13:39:07Z</time>
      </trkpt>
      <trkpt lat="46.70818" lon="5.48123">
        <ele>235.2</ele>
        <time>2022-03-19T13:39:10Z</time>
      </trkpt>
      <trkpt lat="46.70853" lon="5.48102">
        <ele>234.4</ele>
        <time>2022-03-19T13:39:14Z</time>
      </trkpt>
      <trkpt lat="46.70873" lon="5.48091">
        <ele>233.6</ele>
        <time>2022-03-19T13:39:16Z</time>
      </trkpt>
      <trkpt lat="46.70882" lon="5.48086">
        <ele>233</ele>
        <time>2022-03-19T13:39:17Z</time>
      </trkpt>
      <trkpt lat="46.70911" lon="5.4807">
        <ele>231.8</ele>
        <time>2022-03-19T13:39:20Z</time>
      </trkpt>
      <trkpt lat="46.70938" lon="5.48054">
        <ele>230.2</ele>
        <time>2022-03-19T13:39:23Z</time>
      </trkpt>
      <trkpt lat="46.70948" lon="5.48048">
        <ele>229.8</ele>
        <time>2022-03-19T13:39:24Z</time>
      </trkpt>
      <trkpt lat="46.7096" lon="5.48041">
        <ele>229.2</ele>
        <time>2022-03-19T13:39:25Z</time>
      </trkpt>
      <trkpt lat="46.70988" lon="5.48023">
        <ele>227.8</ele>
        <time>2022-03-19T13:39:28Z</time>
      </trkpt>
      <trkpt lat="46.71008" lon="5.48011">
        <ele>226.6</ele>
        <time>2022-03-19T13:39:30Z</time>
      </trkpt>
      <trkpt lat="46.71048" lon="5.47985">
        <ele>225.6</ele>
        <time>2022-03-19T13:39:34Z</time>
      </trkpt>
      <trkpt lat="46.71074" lon="5.47968">
        <ele>224.4</ele>
        <time>2022-03-19T13:39:37Z</time>
      </trkpt>
      <trkpt lat="46.71082" lon="5.47963">
        <ele>224.2</ele>
        <time>2022-03-19T13:39:38Z</time>
      </trkpt>
      <trkpt lat="46.71134" lon="5.47926">
        <ele>223.2</ele>
        <time>2022-03-19T13:39:44Z</time>
      </trkpt>
      <trkpt lat="46.71148" lon="5.47916">
        <ele>223.2</ele>
        <time>2022-03-19T13:39:46Z</time>
      </trkpt>
      <trkpt lat="46.71204" lon="5.47875">
        <ele>222.6</ele>
        <time>2022-03-19T13:39:53Z</time>
      </trkpt>
      <trkpt lat="46.71218" lon="5.47866">
        <ele>222.6</ele>
        <time>2022-03-19T13:39:55Z</time>
      </trkpt>
      <trkpt lat="46.71272" lon="5.47828">
        <ele>222.4</ele>
        <time>2022-03-19T13:40:02Z</time>
      </trkpt>
      <trkpt lat="46.71284" lon="5.47818">
        <ele>222.4</ele>
        <time>2022-03-19T13:40:04Z</time>
      </trkpt>
      <trkpt lat="46.71332" lon="5.47772">
        <ele>222.4</ele>
        <time>2022-03-19T13:40:11Z</time>
      </trkpt>
      <trkpt lat="46.71338" lon="5.47765">
        <ele>222.4</ele>
        <time>2022-03-19T13:40:12Z</time>
      </trkpt>
      <trkpt lat="46.71367" lon="5.47728">
        <ele>222.2</ele>
        <time>2022-03-19T13:40:17Z</time>
      </trkpt>
      <trkpt lat="46.71371" lon="5.47722">
        <ele>222.2</ele>
        <time>2022-03-19T13:40:18Z</time>
      </trkpt>
      <trkpt lat="46.71384" lon="5.47707">
        <ele>222.2</ele>
        <time>2022-03-19T13:40:20Z</time>
      </trkpt>
      <trkpt lat="46.71391" lon="5.47703">
        <ele>222.2</ele>
        <time>2022-03-19T13:40:21Z</time>
      </trkpt>
      <trkpt lat="46.71397" lon="5.47702">
        <ele>222.2</ele>
        <time>2022-03-19T13:40:22Z</time>
      </trkpt>
      <trkpt lat="46.71414" lon="5.47706">
        <ele>222.2</ele>
        <time>2022-03-19T13:40:24Z</time>
      </trkpt>
      <trkpt lat="46.7142" lon="5.47708">
        <ele>222.2</ele>
        <time>2022-03-19T13:40:25Z</time>
      </trkpt>
      <trkpt lat="46.71434" lon="5.47708">
        <ele>222.2</ele>
        <time>2022-03-19T13:40:27Z</time>
      </trkpt>
      <trkpt lat="46.71442" lon="5.47706">
        <ele>222.4</ele>
        <time>2022-03-19T13:40:28Z</time>
      </trkpt>
      <trkpt lat="46.71449" lon="5.47703">
        <ele>222.4</ele>
        <time>2022-03-19T13:40:29Z</time>
      </trkpt>
      <trkpt lat="46.71477" lon="5.47685">
        <ele>222.2</ele>
        <time>2022-03-19T13:40:33Z</time>
      </trkpt>
      <trkpt lat="46.71527" lon="5.4765">
        <ele>222</ele>
        <time>2022-03-19T13:40:40Z</time>
      </trkpt>
      <trkpt lat="46.71566" lon="5.47621">
        <ele>221.4</ele>
        <time>2022-03-19T13:40:46Z</time>
      </trkpt>
      <trkpt lat="46.71594" lon="5.47601">
        <ele>221.2</ele>
        <time>2022-03-19T13:40:50Z</time>
      </trkpt>
      <trkpt lat="46.71608" lon="5.47593">
        <ele>221</ele>
        <time>2022-03-19T13:40:52Z</time>
      </trkpt>
      <trkpt lat="46.71636" lon="5.47582">
        <ele>221</ele>
        <time>2022-03-19T13:40:56Z</time>
      </trkpt>
      <trkpt lat="46.71644" lon="5.47582">
        <ele>221</ele>
        <time>2022-03-19T13:40:57Z</time>
      </trkpt>
      <trkpt lat="46.7168" lon="5.47585">
        <ele>221.2</ele>
        <time>2022-03-19T13:41:02Z</time>
      </trkpt>
      <trkpt lat="46.71687" lon="5.47584">
        <ele>221.4</ele>
        <time>2022-03-19T13:41:03Z</time>
      </trkpt>
      <trkpt lat="46.71719" lon="5.47575">
        <ele>221.6</ele>
        <time>2022-03-19T13:41:08Z</time>
      </trkpt>
      <trkpt lat="46.71733" lon="5.47578">
        <ele>221.6</ele>
        <time>2022-03-19T13:41:10Z</time>
      </trkpt>
      <trkpt lat="46.71739" lon="5.47587">
        <ele>221.6</ele>
        <time>2022-03-19T13:41:11Z</time>
      </trkpt>
      <trkpt lat="46.71746" lon="5.47609">
        <ele>221</ele>
        <time>2022-03-19T13:41:13Z</time>
      </trkpt>
      <trkpt lat="46.7175" lon="5.47618">
        <ele>221</ele>
        <time>2022-03-19T13:41:14Z</time>
      </trkpt>
      <trkpt lat="46.71758" lon="5.47628">
        <ele>220.6</ele>
        <time>2022-03-19T13:41:15Z</time>
      </trkpt>
      <trkpt lat="46.71773" lon="5.4764">
        <ele>220.2</ele>
        <time>2022-03-19T13:41:17Z</time>
      </trkpt>
      <trkpt lat="46.71788" lon="5.47647">
        <ele>219.2</ele>
        <time>2022-03-19T13:41:19Z</time>
      </trkpt>
      <trkpt lat="46.71814" lon="5.47657">
        <ele>218</ele>
        <time>2022-03-19T13:41:22Z</time>
      </trkpt>
      <trkpt lat="46.7182" lon="5.47659">
        <ele>217.8</ele>
        <time>2022-03-19T13:41:23Z</time>
      </trkpt>
      <trkpt lat="46.71858" lon="5.47664">
        <ele>217.2</ele>
        <time>2022-03-19T13:41:28Z</time>
      </trkpt>
      <trkpt lat="46.71866" lon="5.47664">
        <ele>217</ele>
        <time>2022-03-19T13:41:29Z</time>
      </trkpt>
      <trkpt lat="46.71878" lon="5.47672">
        <ele>217</ele>
        <time>2022-03-19T13:41:31Z</time>
      </trkpt>
      <trkpt lat="46.71885" lon="5.47689">
        <ele>217</ele>
        <time>2022-03-19T13:41:33Z</time>
      </trkpt>
      <trkpt lat="46.71888" lon="5.47717">
        <ele>217.4</ele>
        <time>2022-03-19T13:41:36Z</time>
      </trkpt>
      <trkpt lat="46.71894" lon="5.47735">
        <ele>217.6</ele>
        <time>2022-03-19T13:41:38Z</time>
      </trkpt>
      <trkpt lat="46.71901" lon="5.47751">
        <ele>217.6</ele>
        <time>2022-03-19T13:41:40Z</time>
      </trkpt>
      <trkpt lat="46.71913" lon="5.47774">
        <ele>217.8</ele>
        <time>2022-03-19T13:41:43Z</time>
      </trkpt>
      <trkpt lat="46.71939" lon="5.47817">
        <ele>217.8</ele>
        <time>2022-03-19T13:41:49Z</time>
      </trkpt>
      <trkpt lat="46.7197" lon="5.47871">
        <ele>217.4</ele>
        <time>2022-03-19T13:41:56Z</time>
      </trkpt>
      <trkpt lat="46.71983" lon="5.47907">
        <ele>217.4</ele>
        <time>2022-03-19T13:42:00Z</time>
      </trkpt>
      <trkpt lat="46.71985" lon="5.47916">
        <ele>217.4</ele>
        <time>2022-03-19T13:42:01Z</time>
      </trkpt>
      <trkpt lat="46.72002" lon="5.47982">
        <ele>217.6</ele>
        <time>2022-03-19T13:42:08Z</time>
      </trkpt>
      <trkpt lat="46.72006" lon="5.48002">
        <ele>217.6</ele>
        <time>2022-03-19T13:42:10Z</time>
      </trkpt>
      <trkpt lat="46.72011" lon="5.48021">
        <ele>217.6</ele>
        <time>2022-03-19T13:42:12Z</time>
      </trkpt>
      <trkpt lat="46.72023" lon="5.48081">
        <ele>217.8</ele>
        <time>2022-03-19T13:42:18Z</time>
      </trkpt>
      <trkpt lat="46.72023" lon="5.48089">
        <ele>217.8</ele>
        <time>2022-03-19T13:42:19Z</time>
      </trkpt>
      <trkpt lat="46.72022" lon="5.48117">
        <ele>218</ele>
        <time>2022-03-19T13:42:22Z</time>
      </trkpt>
      <trkpt lat="46.7202" lon="5.48142">
        <ele>218.4</ele>
        <time>2022-03-19T13:42:25Z</time>
      </trkpt>
      <trkpt lat="46.72017" lon="5.48158">
        <ele>219</ele>
        <time>2022-03-19T13:42:27Z</time>
      </trkpt>
      <trkpt lat="46.72015" lon="5.4818">
        <ele>219.6</ele>
        <time>2022-03-19T13:42:30Z</time>
      </trkpt>
      <trkpt lat="46.72013" lon="5.48204">
        <ele>220.4</ele>
        <time>2022-03-19T13:42:33Z</time>
      </trkpt>
      <trkpt lat="46.7201" lon="5.48228">
        <ele>221.4</ele>
        <time>2022-03-19T13:42:36Z</time>
      </trkpt>
      <trkpt lat="46.72009" lon="5.48236">
        <ele>221.6</ele>
        <time>2022-03-19T13:42:37Z</time>
      </trkpt>
      <trkpt lat="46.72008" lon="5.48251">
        <ele>222</ele>
        <time>2022-03-19T13:42:39Z</time>
      </trkpt>
      <trkpt lat="46.72008" lon="5.48258">
        <ele>222.4</ele>
        <time>2022-03-19T13:42:40Z</time>
      </trkpt>
      <trkpt lat="46.72008" lon="5.48265">
        <ele>223</ele>
        <time>2022-03-19T13:42:41Z</time>
      </trkpt>
      <trkpt lat="46.72009" lon="5.48289">
        <ele>223.4</ele>
        <time>2022-03-19T13:42:44Z</time>
      </trkpt>
      <trkpt lat="46.72014" lon="5.4834">
        <ele>224</ele>
        <time>2022-03-19T13:42:50Z</time>
      </trkpt>
      <trkpt lat="46.72016" lon="5.48364">
        <ele>224.4</ele>
        <time>2022-03-19T13:42:53Z</time>
      </trkpt>
      <trkpt lat="46.72016" lon="5.48382">
        <ele>224.8</ele>
        <time>2022-03-19T13:42:56Z</time>
      </trkpt>
      <trkpt lat="46.72017" lon="5.48394">
        <ele>225</ele>
        <time>2022-03-19T13:42:58Z</time>
      </trkpt>
      <trkpt lat="46.72017" lon="5.48401">
        <ele>225.4</ele>
        <time>2022-03-19T13:42:59Z</time>
      </trkpt>
      <trkpt lat="46.72017" lon="5.48407">
        <ele>225.4</ele>
        <time>2022-03-19T13:43:00Z</time>
      </trkpt>
      <trkpt lat="46.72017" lon="5.48424">
        <ele>226</ele>
        <time>2022-03-19T13:43:03Z</time>
      </trkpt>
      <trkpt lat="46.72017" lon="5.48437">
        <ele>226.4</ele>
        <time>2022-03-19T13:43:05Z</time>
      </trkpt>
      <trkpt lat="46.72018" lon="5.48451">
        <ele>226.6</ele>
        <time>2022-03-19T13:43:07Z</time>
      </trkpt>
      <trkpt lat="46.72019" lon="5.48466">
        <ele>226.6</ele>
        <time>2022-03-19T13:43:09Z</time>
      </trkpt>
      <trkpt lat="46.72019" lon="5.48473">
        <ele>226.6</ele>
        <time>2022-03-19T13:43:10Z</time>
      </trkpt>
      <trkpt lat="46.7202" lon="5.48509">
        <ele>226.6</ele>
        <time>2022-03-19T13:43:14Z</time>
      </trkpt>
      <trkpt lat="46.72022" lon="5.48544">
        <ele>226.8</ele>
        <time>2022-03-19T13:43:18Z</time>
      </trkpt>
      <trkpt lat="46.72023" lon="5.48559">
        <ele>227</ele>
        <time>2022-03-19T13:43:20Z</time>
      </trkpt>
      <trkpt lat="46.72024" lon="5.48572">
        <ele>227.4</ele>
        <time>2022-03-19T13:43:22Z</time>
      </trkpt>
      <trkpt lat="46.72024" lon="5.48595">
        <ele>228.4</ele>
        <time>2022-03-19T13:43:25Z</time>
      </trkpt>
      <trkpt lat="46.72024" lon="5.48601">
        <ele>228.8</ele>
        <time>2022-03-19T13:43:26Z</time>
      </trkpt>
      <trkpt lat="46.72025" lon="5.48621">
        <ele>229.6</ele>
        <time>2022-03-19T13:43:29Z</time>
      </trkpt>
      <trkpt lat="46.72027" lon="5.48636">
        <ele>230.2</ele>
        <time>2022-03-19T13:43:31Z</time>
      </trkpt>
      <trkpt lat="46.72027" lon="5.48658">
        <ele>231.4</ele>
        <time>2022-03-19T13:43:34Z</time>
      </trkpt>
      <trkpt lat="46.72029" lon="5.48682">
        <ele>232.6</ele>
        <time>2022-03-19T13:43:37Z</time>
      </trkpt>
      <trkpt lat="46.72031" lon="5.487">
        <ele>234</ele>
        <time>2022-03-19T13:43:40Z</time>
      </trkpt>
      <trkpt lat="46.72032" lon="5.48715">
        <ele>235.2</ele>
        <time>2022-03-19T13:43:43Z</time>
      </trkpt>
      <trkpt lat="46.72032" lon="5.48721">
        <ele>235.4</ele>
        <time>2022-03-19T13:43:44Z</time>
      </trkpt>
      <trkpt lat="46.72035" lon="5.48747">
        <ele>236.2</ele>
        <time>2022-03-19T13:43:48Z</time>
      </trkpt>
      <trkpt lat="46.72036" lon="5.48752">
        <ele>236.8</ele>
        <time>2022-03-19T13:43:49Z</time>
      </trkpt>
      <trkpt lat="46.72041" lon="5.48774">
        <ele>237.8</ele>
        <time>2022-03-19T13:43:53Z</time>
      </trkpt>
      <trkpt lat="46.72043" lon="5.48781">
        <ele>238.2</ele>
        <time>2022-03-19T13:43:54Z</time>
      </trkpt>
      <trkpt lat="46.72051" lon="5.4882">
        <ele>239</ele>
        <time>2022-03-19T13:43:59Z</time>
      </trkpt>
      <trkpt lat="46.72057" lon="5.48859">
        <ele>240</ele>
        <time>2022-03-19T13:44:04Z</time>
      </trkpt>
      <trkpt lat="46.72058" lon="5.48866">
        <ele>240.2</ele>
        <time>2022-03-19T13:44:05Z</time>
      </trkpt>
      <trkpt lat="46.72064" lon="5.4891">
        <ele>240.8</ele>
        <time>2022-03-19T13:44:10Z</time>
      </trkpt>
      <trkpt lat="46.72066" lon="5.48926">
        <ele>240.8</ele>
        <time>2022-03-19T13:44:12Z</time>
      </trkpt>
      <trkpt lat="46.72069" lon="5.48942">
        <ele>241</ele>
        <time>2022-03-19T13:44:14Z</time>
      </trkpt>
      <trkpt lat="46.72072" lon="5.48956">
        <ele>241</ele>
        <time>2022-03-19T13:44:16Z</time>
      </trkpt>
      <trkpt lat="46.72078" lon="5.48979">
        <ele>241.2</ele>
        <time>2022-03-19T13:44:19Z</time>
      </trkpt>
      <trkpt lat="46.72081" lon="5.48998">
        <ele>241.4</ele>
        <time>2022-03-19T13:44:22Z</time>
      </trkpt>
      <trkpt lat="46.72082" lon="5.49004">
        <ele>241.4</ele>
        <time>2022-03-19T13:44:23Z</time>
      </trkpt>
      <trkpt lat="46.72093" lon="5.49056">
        <ele>241.4</ele>
        <time>2022-03-19T13:44:30Z</time>
      </trkpt>
      <trkpt lat="46.72103" lon="5.491">
        <ele>241.8</ele>
        <time>2022-03-19T13:44:36Z</time>
      </trkpt>
      <trkpt lat="46.72105" lon="5.49118">
        <ele>241.8</ele>
        <time>2022-03-19T13:44:38Z</time>
      </trkpt>
      <trkpt lat="46.72107" lon="5.49129">
        <ele>241.8</ele>
        <time>2022-03-19T13:44:39Z</time>
      </trkpt>
      <trkpt lat="46.72108" lon="5.49135">
        <ele>241.8</ele>
        <time>2022-03-19T13:44:40Z</time>
      </trkpt>
      <trkpt lat="46.7211" lon="5.49145">
        <ele>241.8</ele>
        <time>2022-03-19T13:44:41Z</time>
      </trkpt>
      <trkpt lat="46.72115" lon="5.49179">
        <ele>241.8</ele>
        <time>2022-03-19T13:44:45Z</time>
      </trkpt>
      <trkpt lat="46.72116" lon="5.4919">
        <ele>241.8</ele>
        <time>2022-03-19T13:44:46Z</time>
      </trkpt>
      <trkpt lat="46.72125" lon="5.4925">
        <ele>241.2</ele>
        <time>2022-03-19T13:44:52Z</time>
      </trkpt>
      <trkpt lat="46.72138" lon="5.49307">
        <ele>240.6</ele>
        <time>2022-03-19T13:44:58Z</time>
      </trkpt>
      <trkpt lat="46.7216" lon="5.49362">
        <ele>241.4</ele>
        <time>2022-03-19T13:45:05Z</time>
      </trkpt>
      <trkpt lat="46.72182" lon="5.49398">
        <ele>242</ele>
        <time>2022-03-19T13:45:11Z</time>
      </trkpt>
      <trkpt lat="46.72185" lon="5.49405">
        <ele>242.2</ele>
        <time>2022-03-19T13:45:12Z</time>
      </trkpt>
      <trkpt lat="46.72212" lon="5.49447">
        <ele>242.4</ele>
        <time>2022-03-19T13:45:18Z</time>
      </trkpt>
      <trkpt lat="46.72252" lon="5.49498">
        <ele>242.2</ele>
        <time>2022-03-19T13:45:26Z</time>
      </trkpt>
      <trkpt lat="46.7229" lon="5.49554">
        <ele>242.2</ele>
        <time>2022-03-19T13:45:34Z</time>
      </trkpt>
      <trkpt lat="46.72295" lon="5.49562">
        <ele>242.2</ele>
        <time>2022-03-19T13:45:35Z</time>
      </trkpt>
      <trkpt lat="46.72329" lon="5.49616">
        <ele>242.2</ele>
        <time>2022-03-19T13:45:42Z</time>
      </trkpt>
      <trkpt lat="46.72362" lon="5.49655">
        <ele>242</ele>
        <time>2022-03-19T13:45:48Z</time>
      </trkpt>
      <trkpt lat="46.72373" lon="5.49668">
        <ele>242</ele>
        <time>2022-03-19T13:45:50Z</time>
      </trkpt>
      <trkpt lat="46.72382" lon="5.49684">
        <ele>242</ele>
        <time>2022-03-19T13:45:52Z</time>
      </trkpt>
      <trkpt lat="46.72384" lon="5.49694">
        <ele>242</ele>
        <time>2022-03-19T13:45:53Z</time>
      </trkpt>
      <trkpt lat="46.72385" lon="5.49704">
        <ele>242</ele>
        <time>2022-03-19T13:45:54Z</time>
      </trkpt>
      <trkpt lat="46.72389" lon="5.49723">
        <ele>242</ele>
        <time>2022-03-19T13:45:56Z</time>
      </trkpt>
      <trkpt lat="46.72392" lon="5.49732">
        <ele>242</ele>
        <time>2022-03-19T13:45:57Z</time>
      </trkpt>
      <trkpt lat="46.72396" lon="5.49741">
        <ele>242</ele>
        <time>2022-03-19T13:45:58Z</time>
      </trkpt>
      <trkpt lat="46.72408" lon="5.49755">
        <ele>241.8</ele>
        <time>2022-03-19T13:46:00Z</time>
      </trkpt>
      <trkpt lat="46.72437" lon="5.4978">
        <ele>241.4</ele>
        <time>2022-03-19T13:46:04Z</time>
      </trkpt>
      <trkpt lat="46.72444" lon="5.49786">
        <ele>241</ele>
        <time>2022-03-19T13:46:05Z</time>
      </trkpt>
      <trkpt lat="46.72458" lon="5.49797">
        <ele>240.2</ele>
        <time>2022-03-19T13:46:07Z</time>
      </trkpt>
      <trkpt lat="46.72481" lon="5.49812">
        <ele>239</ele>
        <time>2022-03-19T13:46:10Z</time>
      </trkpt>
      <trkpt lat="46.72488" lon="5.49817">
        <ele>238.8</ele>
        <time>2022-03-19T13:46:11Z</time>
      </trkpt>
      <trkpt lat="46.72537" lon="5.49858">
        <ele>238.2</ele>
        <time>2022-03-19T13:46:18Z</time>
      </trkpt>
      <trkpt lat="46.72543" lon="5.49864">
        <ele>238</ele>
        <time>2022-03-19T13:46:19Z</time>
      </trkpt>
      <trkpt lat="46.72595" lon="5.49913">
        <ele>238.2</ele>
        <time>2022-03-19T13:46:27Z</time>
      </trkpt>
      <trkpt lat="46.72601" lon="5.49919">
        <ele>238.2</ele>
        <time>2022-03-19T13:46:28Z</time>
      </trkpt>
      <trkpt lat="46.7265" lon="5.49964">
        <ele>238.2</ele>
        <time>2022-03-19T13:46:36Z</time>
      </trkpt>
      <trkpt lat="46.72665" lon="5.49978">
        <ele>238.4</ele>
        <time>2022-03-19T13:46:39Z</time>
      </trkpt>
      <trkpt lat="46.72674" lon="5.49988">
        <ele>238.4</ele>
        <time>2022-03-19T13:46:41Z</time>
      </trkpt>
      <trkpt lat="46.7268" lon="5.50001">
        <ele>238.8</ele>
        <time>2022-03-19T13:46:43Z</time>
      </trkpt>
      <trkpt lat="46.72682" lon="5.50009">
        <ele>238.8</ele>
        <time>2022-03-19T13:46:44Z</time>
      </trkpt>
      <trkpt lat="46.72686" lon="5.50036">
        <ele>238.8</ele>
        <time>2022-03-19T13:46:47Z</time>
      </trkpt>
      <trkpt lat="46.72693" lon="5.50054">
        <ele>238.8</ele>
        <time>2022-03-19T13:46:49Z</time>
      </trkpt>
      <trkpt lat="46.72716" lon="5.50088">
        <ele>237.6</ele>
        <time>2022-03-19T13:46:53Z</time>
      </trkpt>
      <trkpt lat="46.72737" lon="5.50115">
        <ele>236</ele>
        <time>2022-03-19T13:46:56Z</time>
      </trkpt>
      <trkpt lat="46.72751" lon="5.50135">
        <ele>234.8</ele>
        <time>2022-03-19T13:46:58Z</time>
      </trkpt>
      <trkpt lat="46.72765" lon="5.50157">
        <ele>233.8</ele>
        <time>2022-03-19T13:47:00Z</time>
      </trkpt>
      <trkpt lat="46.72777" lon="5.50182">
        <ele>232.4</ele>
        <time>2022-03-19T13:47:02Z</time>
      </trkpt>
      <trkpt lat="46.72783" lon="5.50209">
        <ele>231.2</ele>
        <time>2022-03-19T13:47:04Z</time>
      </trkpt>
      <trkpt lat="46.72785" lon="5.50223">
        <ele>230.6</ele>
        <time>2022-03-19T13:47:05Z</time>
      </trkpt>
      <trkpt lat="46.72791" lon="5.5025">
        <ele>229.8</ele>
        <time>2022-03-19T13:47:07Z</time>
      </trkpt>
      <trkpt lat="46.72799" lon="5.50271">
        <ele>229.6</ele>
        <time>2022-03-19T13:47:09Z</time>
      </trkpt>
      <trkpt lat="46.72821" lon="5.50313">
        <ele>230.6</ele>
        <time>2022-03-19T13:47:14Z</time>
      </trkpt>
      <trkpt lat="46.72829" lon="5.50327">
        <ele>231.4</ele>
        <time>2022-03-19T13:47:16Z</time>
      </trkpt>
      <trkpt lat="46.72838" lon="5.5034">
        <ele>232.6</ele>
        <time>2022-03-19T13:47:18Z</time>
      </trkpt>
      <trkpt lat="46.72846" lon="5.50352">
        <ele>233.4</ele>
        <time>2022-03-19T13:47:20Z</time>
      </trkpt>
      <trkpt lat="46.72851" lon="5.50358">
        <ele>234</ele>
        <time>2022-03-19T13:47:21Z</time>
      </trkpt>
      <trkpt lat="46.72864" lon="5.50375">
        <ele>235.4</ele>
        <time>2022-03-19T13:47:24Z</time>
      </trkpt>
      <trkpt lat="46.72874" lon="5.50386">
        <ele>236</ele>
        <time>2022-03-19T13:47:26Z</time>
      </trkpt>
      <trkpt lat="46.72882" lon="5.50396">
        <ele>236.8</ele>
        <time>2022-03-19T13:47:28Z</time>
      </trkpt>
      <trkpt lat="46.72899" lon="5.50418">
        <ele>238</ele>
        <time>2022-03-19T13:47:32Z</time>
      </trkpt>
      <trkpt lat="46.72908" lon="5.50428">
        <ele>238.6</ele>
        <time>2022-03-19T13:47:34Z</time>
      </trkpt>
      <trkpt lat="46.72916" lon="5.50438">
        <ele>239.2</ele>
        <time>2022-03-19T13:47:36Z</time>
      </trkpt>
      <trkpt lat="46.72927" lon="5.50452">
        <ele>240.2</ele>
        <time>2022-03-19T13:47:39Z</time>
      </trkpt>
      <trkpt lat="46.72941" lon="5.50472">
        <ele>241</ele>
        <time>2022-03-19T13:47:43Z</time>
      </trkpt>
      <trkpt lat="46.72945" lon="5.50477">
        <ele>241.4</ele>
        <time>2022-03-19T13:47:44Z</time>
      </trkpt>
      <trkpt lat="46.72957" lon="5.50495">
        <ele>242.4</ele>
        <time>2022-03-19T13:47:48Z</time>
      </trkpt>
      <trkpt lat="46.72963" lon="5.50503">
        <ele>242.8</ele>
        <time>2022-03-19T13:47:50Z</time>
      </trkpt>
      <trkpt lat="46.72974" lon="5.50523">
        <ele>243.2</ele>
        <time>2022-03-19T13:47:56Z</time>
      </trkpt>
      <trkpt lat="46.72975" lon="5.50526">
        <ele>243.4</ele>
        <time>2022-03-19T13:47:57Z</time>
      </trkpt>
      <trkpt lat="46.72983" lon="5.50542">
        <ele>243.4</ele>
        <time>2022-03-19T13:48:02Z</time>
      </trkpt>
      <trkpt lat="46.72986" lon="5.50546">
        <ele>243.4</ele>
        <time>2022-03-19T13:48:03Z</time>
      </trkpt>
      <trkpt lat="46.72989" lon="5.50551">
        <ele>243.4</ele>
        <time>2022-03-19T13:48:04Z</time>
      </trkpt>
      <trkpt lat="46.72997" lon="5.5057">
        <ele>243.2</ele>
        <time>2022-03-19T13:48:07Z</time>
      </trkpt>
      <trkpt lat="46.73003" lon="5.50585">
        <ele>242.8</ele>
        <time>2022-03-19T13:48:09Z</time>
      </trkpt>
      <trkpt lat="46.7301" lon="5.506">
        <ele>242.4</ele>
        <time>2022-03-19T13:48:11Z</time>
      </trkpt>
      <trkpt lat="46.73014" lon="5.50608">
        <ele>242</ele>
        <time>2022-03-19T13:48:12Z</time>
      </trkpt>
      <trkpt lat="46.73022" lon="5.50626">
        <ele>241.2</ele>
        <time>2022-03-19T13:48:14Z</time>
      </trkpt>
      <trkpt lat="46.73033" lon="5.50655">
        <ele>240.4</ele>
        <time>2022-03-19T13:48:17Z</time>
      </trkpt>
      <trkpt lat="46.73037" lon="5.50666">
        <ele>239.8</ele>
        <time>2022-03-19T13:48:18Z</time>
      </trkpt>
      <trkpt lat="46.73048" lon="5.50699">
        <ele>238.4</ele>
        <time>2022-03-19T13:48:21Z</time>
      </trkpt>
      <trkpt lat="46.73052" lon="5.50722">
        <ele>237.4</ele>
        <time>2022-03-19T13:48:23Z</time>
      </trkpt>
      <trkpt lat="46.73053" lon="5.50733">
        <ele>237.2</ele>
        <time>2022-03-19T13:48:24Z</time>
      </trkpt>
      <trkpt lat="46.73053" lon="5.50745">
        <ele>236.8</ele>
        <time>2022-03-19T13:48:25Z</time>
      </trkpt>
      <trkpt lat="46.73053" lon="5.50756">
        <ele>236.4</ele>
        <time>2022-03-19T13:48:26Z</time>
      </trkpt>
      <trkpt lat="46.73052" lon="5.50787">
        <ele>236.4</ele>
        <time>2022-03-19T13:48:29Z</time>
      </trkpt>
      <trkpt lat="46.73045" lon="5.50823">
        <ele>236.4</ele>
        <time>2022-03-19T13:48:32Z</time>
      </trkpt>
      <trkpt lat="46.73046" lon="5.5083">
        <ele>236.4</ele>
        <time>2022-03-19T13:48:33Z</time>
      </trkpt>
      <trkpt lat="46.7305" lon="5.5084">
        <ele>236.4</ele>
        <time>2022-03-19T13:48:34Z</time>
      </trkpt>
      <trkpt lat="46.73058" lon="5.50861">
        <ele>236.8</ele>
        <time>2022-03-19T13:48:37Z</time>
      </trkpt>
      <trkpt lat="46.73069" lon="5.50884">
        <ele>237.4</ele>
        <time>2022-03-19T13:48:40Z</time>
      </trkpt>
      <trkpt lat="46.73075" lon="5.509">
        <ele>237.8</ele>
        <time>2022-03-19T13:48:42Z</time>
      </trkpt>
      <trkpt lat="46.73076" lon="5.50908">
        <ele>238</ele>
        <time>2022-03-19T13:48:43Z</time>
      </trkpt>
      <trkpt lat="46.73078" lon="5.50933">
        <ele>238.4</ele>
        <time>2022-03-19T13:48:46Z</time>
      </trkpt>
      <trkpt lat="46.7308" lon="5.50958">
        <ele>239.6</ele>
        <time>2022-03-19T13:48:49Z</time>
      </trkpt>
      <trkpt lat="46.73084" lon="5.50998">
        <ele>240.6</ele>
        <time>2022-03-19T13:48:54Z</time>
      </trkpt>
      <trkpt lat="46.73088" lon="5.51023">
        <ele>241.4</ele>
        <time>2022-03-19T13:48:57Z</time>
      </trkpt>
      <trkpt lat="46.7309" lon="5.51041">
        <ele>241.8</ele>
        <time>2022-03-19T13:48:59Z</time>
      </trkpt>
      <trkpt lat="46.73097" lon="5.51084">
        <ele>242.8</ele>
        <time>2022-03-19T13:49:05Z</time>
      </trkpt>
      <trkpt lat="46.73098" lon="5.51091">
        <ele>243</ele>
        <time>2022-03-19T13:49:06Z</time>
      </trkpt>
      <trkpt lat="46.73103" lon="5.51129">
        <ele>244.2</ele>
        <time>2022-03-19T13:49:11Z</time>
      </trkpt>
      <trkpt lat="46.73109" lon="5.5116">
        <ele>245.6</ele>
        <time>2022-03-19T13:49:15Z</time>
      </trkpt>
      <trkpt lat="46.73122" lon="5.51206">
        <ele>246.4</ele>
        <time>2022-03-19T13:49:21Z</time>
      </trkpt>
      <trkpt lat="46.73124" lon="5.51214">
        <ele>246.4</ele>
        <time>2022-03-19T13:49:22Z</time>
      </trkpt>
      <trkpt lat="46.73141" lon="5.51274">
        <ele>247.6</ele>
        <time>2022-03-19T13:49:30Z</time>
      </trkpt>
      <trkpt lat="46.73157" lon="5.51344">
        <ele>248.8</ele>
        <time>2022-03-19T13:49:39Z</time>
      </trkpt>
      <trkpt lat="46.73162" lon="5.51361">
        <ele>249.2</ele>
        <time>2022-03-19T13:49:41Z</time>
      </trkpt>
      <trkpt lat="46.73174" lon="5.51398">
        <ele>249.8</ele>
        <time>2022-03-19T13:49:46Z</time>
      </trkpt>
      <trkpt lat="46.73184" lon="5.51428">
        <ele>250</ele>
        <time>2022-03-19T13:49:50Z</time>
      </trkpt>
      <trkpt lat="46.73205" lon="5.51493">
        <ele>250.4</ele>
        <time>2022-03-19T13:49:59Z</time>
      </trkpt>
      <trkpt lat="46.7322" lon="5.51552">
        <ele>250.8</ele>
        <time>2022-03-19T13:50:06Z</time>
      </trkpt>
      <trkpt lat="46.73221" lon="5.5156">
        <ele>250.8</ele>
        <time>2022-03-19T13:50:07Z</time>
      </trkpt>
      <trkpt lat="46.7323" lon="5.51625">
        <ele>250.8</ele>
        <time>2022-03-19T13:50:14Z</time>
      </trkpt>
      <trkpt lat="46.7324" lon="5.51699">
        <ele>250.4</ele>
        <time>2022-03-19T13:50:22Z</time>
      </trkpt>
      <trkpt lat="46.73249" lon="5.51761">
        <ele>250</ele>
        <time>2022-03-19T13:50:28Z</time>
      </trkpt>
      <trkpt lat="46.73252" lon="5.51784">
        <ele>249.8</ele>
        <time>2022-03-19T13:50:30Z</time>
      </trkpt>
      <trkpt lat="46.73258" lon="5.51816">
        <ele>248.8</ele>
        <time>2022-03-19T13:50:33Z</time>
      </trkpt>
      <trkpt lat="46.73261" lon="5.51826">
        <ele>248.4</ele>
        <time>2022-03-19T13:50:34Z</time>
      </trkpt>
      <trkpt lat="46.73264" lon="5.51836">
        <ele>248</ele>
        <time>2022-03-19T13:50:35Z</time>
      </trkpt>
      <trkpt lat="46.73272" lon="5.51853">
        <ele>247.6</ele>
        <time>2022-03-19T13:50:37Z</time>
      </trkpt>
      <trkpt lat="46.73277" lon="5.51862">
        <ele>247.6</ele>
        <time>2022-03-19T13:50:38Z</time>
      </trkpt>
      <trkpt lat="46.73291" lon="5.5189">
        <ele>247.2</ele>
        <time>2022-03-19T13:50:41Z</time>
      </trkpt>
      <trkpt lat="46.73298" lon="5.5191">
        <ele>247.2</ele>
        <time>2022-03-19T13:50:43Z</time>
      </trkpt>
      <trkpt lat="46.73311" lon="5.51973">
        <ele>246.8</ele>
        <time>2022-03-19T13:50:49Z</time>
      </trkpt>
      <trkpt lat="46.73327" lon="5.52044">
        <ele>247.6</ele>
        <time>2022-03-19T13:50:56Z</time>
      </trkpt>
      <trkpt lat="46.73334" lon="5.5209">
        <ele>248.2</ele>
        <time>2022-03-19T13:51:01Z</time>
      </trkpt>
      <trkpt lat="46.73335" lon="5.52118">
        <ele>248.8</ele>
        <time>2022-03-19T13:51:04Z</time>
      </trkpt>
      <trkpt lat="46.73334" lon="5.52135">
        <ele>249.2</ele>
        <time>2022-03-19T13:51:06Z</time>
      </trkpt>
      <trkpt lat="46.73333" lon="5.52144">
        <ele>249.6</ele>
        <time>2022-03-19T13:51:07Z</time>
      </trkpt>
      <trkpt lat="46.73333" lon="5.52162">
        <ele>250.2</ele>
        <time>2022-03-19T13:51:09Z</time>
      </trkpt>
      <trkpt lat="46.73334" lon="5.5219">
        <ele>250.8</ele>
        <time>2022-03-19T13:51:12Z</time>
      </trkpt>
      <trkpt lat="46.73341" lon="5.52208">
        <ele>251</ele>
        <time>2022-03-19T13:51:14Z</time>
      </trkpt>
      <trkpt lat="46.73344" lon="5.52214">
        <ele>251</ele>
        <time>2022-03-19T13:51:15Z</time>
      </trkpt>
      <trkpt lat="46.73378" lon="5.52266">
        <ele>250.8</ele>
        <time>2022-03-19T13:51:22Z</time>
      </trkpt>
      <trkpt lat="46.73414" lon="5.52327">
        <ele>251</ele>
        <time>2022-03-19T13:51:30Z</time>
      </trkpt>
      <trkpt lat="46.73434" lon="5.52367">
        <ele>251.4</ele>
        <time>2022-03-19T13:51:35Z</time>
      </trkpt>
      <trkpt lat="46.73442" lon="5.52384">
        <ele>251.4</ele>
        <time>2022-03-19T13:51:37Z</time>
      </trkpt>
      <trkpt lat="46.73454" lon="5.52425">
        <ele>251.4</ele>
        <time>2022-03-19T13:51:41Z</time>
      </trkpt>
      <trkpt lat="46.7346" lon="5.52458">
        <ele>251.2</ele>
        <time>2022-03-19T13:51:44Z</time>
      </trkpt>
      <trkpt lat="46.73461" lon="5.52481">
        <ele>251</ele>
        <time>2022-03-19T13:51:46Z</time>
      </trkpt>
      <trkpt lat="46.73458" lon="5.52503">
        <ele>250.6</ele>
        <time>2022-03-19T13:51:48Z</time>
      </trkpt>
      <trkpt lat="46.73455" lon="5.52512">
        <ele>250.4</ele>
        <time>2022-03-19T13:51:49Z</time>
      </trkpt>
      <trkpt lat="46.73451" lon="5.5252">
        <ele>250.4</ele>
        <time>2022-03-19T13:51:50Z</time>
      </trkpt>
      <trkpt lat="46.73441" lon="5.52533">
        <ele>250.4</ele>
        <time>2022-03-19T13:51:52Z</time>
      </trkpt>
      <trkpt lat="46.73423" lon="5.52566">
        <ele>251</ele>
        <time>2022-03-19T13:51:57Z</time>
      </trkpt>
      <trkpt lat="46.7341" lon="5.52596">
        <ele>252.2</ele>
        <time>2022-03-19T13:52:02Z</time>
      </trkpt>
      <trkpt lat="46.73407" lon="5.52601">
        <ele>252.6</ele>
        <time>2022-03-19T13:52:03Z</time>
      </trkpt>
      <trkpt lat="46.73396" lon="5.52622">
        <ele>253.8</ele>
        <time>2022-03-19T13:52:07Z</time>
      </trkpt>
      <trkpt lat="46.73394" lon="5.52628">
        <ele>254</ele>
        <time>2022-03-19T13:52:08Z</time>
      </trkpt>
      <trkpt lat="46.73391" lon="5.52633">
        <ele>254.4</ele>
        <time>2022-03-19T13:52:09Z</time>
      </trkpt>
      <trkpt lat="46.73384" lon="5.52649">
        <ele>254.8</ele>
        <time>2022-03-19T13:52:12Z</time>
      </trkpt>
      <trkpt lat="46.73375" lon="5.5267">
        <ele>256.2</ele>
        <time>2022-03-19T13:52:16Z</time>
      </trkpt>
      <trkpt lat="46.73366" lon="5.52692">
        <ele>257.2</ele>
        <time>2022-03-19T13:52:20Z</time>
      </trkpt>
      <trkpt lat="46.73364" lon="5.52703">
        <ele>258.2</ele>
        <time>2022-03-19T13:52:22Z</time>
      </trkpt>
      <trkpt lat="46.73365" lon="5.52708">
        <ele>258.6</ele>
        <time>2022-03-19T13:52:23Z</time>
      </trkpt>
      <trkpt lat="46.73371" lon="5.52717">
        <ele>259</ele>
        <time>2022-03-19T13:52:25Z</time>
      </trkpt>
      <trkpt lat="46.73381" lon="5.52723">
        <ele>259.4</ele>
        <time>2022-03-19T13:52:27Z</time>
      </trkpt>
      <trkpt lat="46.73408" lon="5.52741">
        <ele>259.4</ele>
        <time>2022-03-19T13:52:32Z</time>
      </trkpt>
      <trkpt lat="46.73446" lon="5.52778">
        <ele>258.8</ele>
        <time>2022-03-19T13:52:39Z</time>
      </trkpt>
      <trkpt lat="46.73484" lon="5.52824">
        <ele>258.2</ele>
        <time>2022-03-19T13:52:46Z</time>
      </trkpt>
      <trkpt lat="46.7349" lon="5.52831">
        <ele>258.2</ele>
        <time>2022-03-19T13:52:47Z</time>
      </trkpt>
      <trkpt lat="46.73516" lon="5.52863">
        <ele>257.8</ele>
        <time>2022-03-19T13:52:52Z</time>
      </trkpt>
      <trkpt lat="46.73529" lon="5.52869">
        <ele>257.8</ele>
        <time>2022-03-19T13:52:54Z</time>
      </trkpt>
      <trkpt lat="46.73544" lon="5.52869">
        <ele>257.8</ele>
        <time>2022-03-19T13:52:56Z</time>
      </trkpt>
      <trkpt lat="46.73551" lon="5.52865">
        <ele>257.6</ele>
        <time>2022-03-19T13:52:57Z</time>
      </trkpt>
      <trkpt lat="46.73584" lon="5.52839">
        <ele>257.4</ele>
        <time>2022-03-19T13:53:02Z</time>
      </trkpt>
      <trkpt lat="46.73599" lon="5.52835">
        <ele>257.2</ele>
        <time>2022-03-19T13:53:04Z</time>
      </trkpt>
      <trkpt lat="46.73606" lon="5.52835">
        <ele>257.2</ele>
        <time>2022-03-19T13:53:05Z</time>
      </trkpt>
      <trkpt lat="46.73613" lon="5.52837">
        <ele>257</ele>
        <time>2022-03-19T13:53:06Z</time>
      </trkpt>
      <trkpt lat="46.73626" lon="5.52847">
        <ele>256.6</ele>
        <time>2022-03-19T13:53:08Z</time>
      </trkpt>
      <trkpt lat="46.73672" lon="5.529">
        <ele>257</ele>
        <time>2022-03-19T13:53:16Z</time>
      </trkpt>
      <trkpt lat="46.73678" lon="5.52906">
        <ele>257.2</ele>
        <time>2022-03-19T13:53:17Z</time>
      </trkpt>
      <trkpt lat="46.73728" lon="5.52959">
        <ele>257.6</ele>
        <time>2022-03-19T13:53:25Z</time>
      </trkpt>
      <trkpt lat="46.73734" lon="5.52965">
        <ele>257.6</ele>
        <time>2022-03-19T13:53:26Z</time>
      </trkpt>
      <trkpt lat="46.73783" lon="5.53005">
        <ele>257</ele>
        <time>2022-03-19T13:53:33Z</time>
      </trkpt>
      <trkpt lat="46.73833" lon="5.53038">
        <ele>257</ele>
        <time>2022-03-19T13:53:40Z</time>
      </trkpt>
      <trkpt lat="46.73854" lon="5.53051">
        <ele>257</ele>
        <time>2022-03-19T13:53:43Z</time>
      </trkpt>
      <trkpt lat="46.73883" lon="5.53059">
        <ele>257.2</ele>
        <time>2022-03-19T13:53:47Z</time>
      </trkpt>
      <trkpt lat="46.73891" lon="5.53059">
        <ele>257.2</ele>
        <time>2022-03-19T13:53:48Z</time>
      </trkpt>
      <trkpt lat="46.73904" lon="5.53053">
        <ele>257.2</ele>
        <time>2022-03-19T13:53:50Z</time>
      </trkpt>
      <trkpt lat="46.73916" lon="5.53045">
        <ele>257.2</ele>
        <time>2022-03-19T13:53:52Z</time>
      </trkpt>
      <trkpt lat="46.7393" lon="5.53043">
        <ele>257.2</ele>
        <time>2022-03-19T13:53:54Z</time>
      </trkpt>
      <trkpt lat="46.73945" lon="5.53044">
        <ele>257.4</ele>
        <time>2022-03-19T13:53:56Z</time>
      </trkpt>
      <trkpt lat="46.73958" lon="5.53049">
        <ele>257.6</ele>
        <time>2022-03-19T13:53:58Z</time>
      </trkpt>
      <trkpt lat="46.73986" lon="5.53065">
        <ele>258.4</ele>
        <time>2022-03-19T13:54:03Z</time>
      </trkpt>
      <trkpt lat="46.74013" lon="5.53083">
        <ele>259.8</ele>
        <time>2022-03-19T13:54:08Z</time>
      </trkpt>
      <trkpt lat="46.7403" lon="5.53093">
        <ele>260</ele>
        <time>2022-03-19T13:54:11Z</time>
      </trkpt>
      <trkpt lat="46.74079" lon="5.53122">
        <ele>260.8</ele>
        <time>2022-03-19T13:54:20Z</time>
      </trkpt>
      <trkpt lat="46.74112" lon="5.5314">
        <ele>261.8</ele>
        <time>2022-03-19T13:54:26Z</time>
      </trkpt>
      <trkpt lat="46.74129" lon="5.53148">
        <ele>262.6</ele>
        <time>2022-03-19T13:54:29Z</time>
      </trkpt>
      <trkpt lat="46.74141" lon="5.53153">
        <ele>263</ele>
        <time>2022-03-19T13:54:31Z</time>
      </trkpt>
      <trkpt lat="46.74175" lon="5.53162">
        <ele>263.6</ele>
        <time>2022-03-19T13:54:37Z</time>
      </trkpt>
      <trkpt lat="46.74195" lon="5.53167">
        <ele>264.2</ele>
        <time>2022-03-19T13:54:41Z</time>
      </trkpt>
      <trkpt lat="46.742" lon="5.53169">
        <ele>264.4</ele>
        <time>2022-03-19T13:54:42Z</time>
      </trkpt>
      <trkpt lat="46.74205" lon="5.5317">
        <ele>264.8</ele>
        <time>2022-03-19T13:54:43Z</time>
      </trkpt>
      <trkpt lat="46.74212" lon="5.53172">
        <ele>265.2</ele>
        <time>2022-03-19T13:54:45Z</time>
      </trkpt>
      <trkpt lat="46.74228" lon="5.53178">
        <ele>266.2</ele>
        <time>2022-03-19T13:54:49Z</time>
      </trkpt>
      <trkpt lat="46.74233" lon="5.53179">
        <ele>266.6</ele>
        <time>2022-03-19T13:54:50Z</time>
      </trkpt>
      <trkpt lat="46.74253" lon="5.53187">
        <ele>267.4</ele>
        <time>2022-03-19T13:54:55Z</time>
      </trkpt>
      <trkpt lat="46.74257" lon="5.53189">
        <ele>267.8</ele>
        <time>2022-03-19T13:54:56Z</time>
      </trkpt>
      <trkpt lat="46.7426" lon="5.5319">
        <ele>268</ele>
        <time>2022-03-19T13:54:57Z</time>
      </trkpt>
      <trkpt lat="46.74273" lon="5.53194">
        <ele>268.4</ele>
        <time>2022-03-19T13:55:00Z</time>
      </trkpt>
      <trkpt lat="46.74286" lon="5.53198">
        <ele>268.8</ele>
        <time>2022-03-19T13:55:03Z</time>
      </trkpt>
      <trkpt lat="46.74307" lon="5.53203">
        <ele>270</ele>
        <time>2022-03-19T13:55:08Z</time>
      </trkpt>
      <trkpt lat="46.74316" lon="5.53205">
        <ele>270.6</ele>
        <time>2022-03-19T13:55:10Z</time>
      </trkpt>
      <trkpt lat="46.74328" lon="5.53209">
        <ele>271</ele>
        <time>2022-03-19T13:55:13Z</time>
      </trkpt>
      <trkpt lat="46.74332" lon="5.5321">
        <ele>271.4</ele>
        <time>2022-03-19T13:55:14Z</time>
      </trkpt>
      <trkpt lat="46.74344" lon="5.53213">
        <ele>272.2</ele>
        <time>2022-03-19T13:55:17Z</time>
      </trkpt>
      <trkpt lat="46.74355" lon="5.53216">
        <ele>273</ele>
        <time>2022-03-19T13:55:20Z</time>
      </trkpt>
      <trkpt lat="46.74363" lon="5.53218">
        <ele>273.4</ele>
        <time>2022-03-19T13:55:22Z</time>
      </trkpt>
      <trkpt lat="46.74379" lon="5.53223">
        <ele>274.4</ele>
        <time>2022-03-19T13:55:26Z</time>
      </trkpt>
      <trkpt lat="46.74387" lon="5.53225">
        <ele>274.6</ele>
        <time>2022-03-19T13:55:28Z</time>
      </trkpt>
      <trkpt lat="46.74398" lon="5.53228">
        <ele>275.2</ele>
        <time>2022-03-19T13:55:31Z</time>
      </trkpt>
      <trkpt lat="46.74406" lon="5.53229">
        <ele>275.6</ele>
        <time>2022-03-19T13:55:33Z</time>
      </trkpt>
      <trkpt lat="46.74417" lon="5.53231">
        <ele>276.4</ele>
        <time>2022-03-19T13:55:36Z</time>
      </trkpt>
      <trkpt lat="46.74422" lon="5.53231">
        <ele>276.6</ele>
        <time>2022-03-19T13:55:37Z</time>
      </trkpt>
      <trkpt lat="46.7444" lon="5.53235">
        <ele>277.6</ele>
        <time>2022-03-19T13:55:41Z</time>
      </trkpt>
      <trkpt lat="46.74445" lon="5.53236">
        <ele>278</ele>
        <time>2022-03-19T13:55:42Z</time>
      </trkpt>
      <trkpt lat="46.74469" lon="5.53241">
        <ele>278.8</ele>
        <time>2022-03-19T13:55:47Z</time>
      </trkpt>
      <trkpt lat="46.74473" lon="5.53242">
        <ele>279</ele>
        <time>2022-03-19T13:55:48Z</time>
      </trkpt>
      <trkpt lat="46.74477" lon="5.53244">
        <ele>279.4</ele>
        <time>2022-03-19T13:55:49Z</time>
      </trkpt>
      <trkpt lat="46.74488" lon="5.53248">
        <ele>279.8</ele>
        <time>2022-03-19T13:55:51Z</time>
      </trkpt>
      <trkpt lat="46.74502" lon="5.53254">
        <ele>281</ele>
        <time>2022-03-19T13:55:54Z</time>
      </trkpt>
      <trkpt lat="46.74525" lon="5.53264">
        <ele>282</ele>
        <time>2022-03-19T13:55:59Z</time>
      </trkpt>
      <trkpt lat="46.74533" lon="5.53267">
        <ele>282.6</ele>
        <time>2022-03-19T13:56:01Z</time>
      </trkpt>
      <trkpt lat="46.74549" lon="5.53272">
        <ele>283.4</ele>
        <time>2022-03-19T13:56:05Z</time>
      </trkpt>
      <trkpt lat="46.74553" lon="5.53274">
        <ele>283.4</ele>
        <time>2022-03-19T13:56:06Z</time>
      </trkpt>
      <trkpt lat="46.74569" lon="5.53279">
        <ele>284.6</ele>
        <time>2022-03-19T13:56:10Z</time>
      </trkpt>
      <trkpt lat="46.74573" lon="5.5328">
        <ele>284.8</ele>
        <time>2022-03-19T13:56:11Z</time>
      </trkpt>
      <trkpt lat="46.74592" lon="5.53287">
        <ele>285.8</ele>
        <time>2022-03-19T13:56:15Z</time>
      </trkpt>
      <trkpt lat="46.74602" lon="5.53291">
        <ele>286.2</ele>
        <time>2022-03-19T13:56:17Z</time>
      </trkpt>
      <trkpt lat="46.74612" lon="5.53297">
        <ele>286.8</ele>
        <time>2022-03-19T13:56:19Z</time>
      </trkpt>
      <trkpt lat="46.74616" lon="5.53301">
        <ele>286.8</ele>
        <time>2022-03-19T13:56:20Z</time>
      </trkpt>
      <trkpt lat="46.74624" lon="5.53308">
        <ele>287.4</ele>
        <time>2022-03-19T13:56:22Z</time>
      </trkpt>
      <trkpt lat="46.74633" lon="5.53315">
        <ele>288</ele>
        <time>2022-03-19T13:56:24Z</time>
      </trkpt>
      <trkpt lat="46.74652" lon="5.53327">
        <ele>289</ele>
        <time>2022-03-19T13:56:29Z</time>
      </trkpt>
      <trkpt lat="46.74659" lon="5.5333">
        <ele>290</ele>
        <time>2022-03-19T13:56:31Z</time>
      </trkpt>
      <trkpt lat="46.7467" lon="5.53337">
        <ele>291</ele>
        <time>2022-03-19T13:56:35Z</time>
      </trkpt>
      <trkpt lat="46.7468" lon="5.53344">
        <ele>292.2</ele>
        <time>2022-03-19T13:56:40Z</time>
      </trkpt>
      <trkpt lat="46.74681" lon="5.53346">
        <ele>292.2</ele>
        <time>2022-03-19T13:56:41Z</time>
      </trkpt>
      <trkpt lat="46.74692" lon="5.53362">
        <ele>293.2</ele>
        <time>2022-03-19T13:56:47Z</time>
      </trkpt>
      <trkpt lat="46.74694" lon="5.53364">
        <ele>293.2</ele>
        <time>2022-03-19T13:56:48Z</time>
      </trkpt>
      <trkpt lat="46.74706" lon="5.53376">
        <ele>294</ele>
        <time>2022-03-19T13:56:53Z</time>
      </trkpt>
      <trkpt lat="46.74712" lon="5.53383">
        <ele>294.2</ele>
        <time>2022-03-19T13:56:55Z</time>
      </trkpt>
      <trkpt lat="46.74724" lon="5.53392">
        <ele>295</ele>
        <time>2022-03-19T13:56:58Z</time>
      </trkpt>
      <trkpt lat="46.74733" lon="5.53395">
        <ele>295.4</ele>
        <time>2022-03-19T13:57:00Z</time>
      </trkpt>
      <trkpt lat="46.74741" lon="5.534">
        <ele>295.8</ele>
        <time>2022-03-19T13:57:02Z</time>
      </trkpt>
      <trkpt lat="46.74762" lon="5.53408">
        <ele>296.8</ele>
        <time>2022-03-19T13:57:07Z</time>
      </trkpt>
      <trkpt lat="46.74773" lon="5.53414">
        <ele>297.4</ele>
        <time>2022-03-19T13:57:09Z</time>
      </trkpt>
      <trkpt lat="46.74778" lon="5.53416">
        <ele>297.8</ele>
        <time>2022-03-19T13:57:10Z</time>
      </trkpt>
      <trkpt lat="46.74806" lon="5.53429">
        <ele>299</ele>
        <time>2022-03-19T13:57:16Z</time>
      </trkpt>
      <trkpt lat="46.74811" lon="5.53432">
        <ele>299.2</ele>
        <time>2022-03-19T13:57:17Z</time>
      </trkpt>
      <trkpt lat="46.74828" lon="5.5344">
        <ele>299.8</ele>
        <time>2022-03-19T13:57:21Z</time>
      </trkpt>
      <trkpt lat="46.74833" lon="5.53442">
        <ele>300</ele>
        <time>2022-03-19T13:57:22Z</time>
      </trkpt>
      <trkpt lat="46.74863" lon="5.53454">
        <ele>300.8</ele>
        <time>2022-03-19T13:57:28Z</time>
      </trkpt>
      <trkpt lat="46.74879" lon="5.5346">
        <ele>301</ele>
        <time>2022-03-19T13:57:31Z</time>
      </trkpt>
      <trkpt lat="46.74897" lon="5.53467">
        <ele>301</ele>
        <time>2022-03-19T13:57:34Z</time>
      </trkpt>
      <trkpt lat="46.74928" lon="5.53479">
        <ele>300.8</ele>
        <time>2022-03-19T13:57:39Z</time>
      </trkpt>
      <trkpt lat="46.74973" lon="5.53499">
        <ele>300</ele>
        <time>2022-03-19T13:57:46Z</time>
      </trkpt>
      <trkpt lat="46.74984" lon="5.53513">
        <ele>299.6</ele>
        <time>2022-03-19T13:57:48Z</time>
      </trkpt>
      <trkpt lat="46.74988" lon="5.53523">
        <ele>299.2</ele>
        <time>2022-03-19T13:57:49Z</time>
      </trkpt>
      <trkpt lat="46.74993" lon="5.53533">
        <ele>298.8</ele>
        <time>2022-03-19T13:57:50Z</time>
      </trkpt>
      <trkpt lat="46.75008" lon="5.53569">
        <ele>297.2</ele>
        <time>2022-03-19T13:57:53Z</time>
      </trkpt>
      <trkpt lat="46.75011" lon="5.53581">
        <ele>296.8</ele>
        <time>2022-03-19T13:57:54Z</time>
      </trkpt>
      <trkpt lat="46.75012" lon="5.53594">
        <ele>295.6</ele>
        <time>2022-03-19T13:57:55Z</time>
      </trkpt>
      <trkpt lat="46.75012" lon="5.53605">
        <ele>294.8</ele>
        <time>2022-03-19T13:57:56Z</time>
      </trkpt>
      <trkpt lat="46.7501" lon="5.53617">
        <ele>294.6</ele>
        <time>2022-03-19T13:57:57Z</time>
      </trkpt>
      <trkpt lat="46.75004" lon="5.53673">
        <ele>294</ele>
        <time>2022-03-19T13:58:02Z</time>
      </trkpt>
      <trkpt lat="46.75" lon="5.53722">
        <ele>294.8</ele>
        <time>2022-03-19T13:58:07Z</time>
      </trkpt>
      <trkpt lat="46.74995" lon="5.53765">
        <ele>295.6</ele>
        <time>2022-03-19T13:58:12Z</time>
      </trkpt>
      <trkpt lat="46.74994" lon="5.53774">
        <ele>295.6</ele>
        <time>2022-03-19T13:58:13Z</time>
      </trkpt>
      <trkpt lat="46.74991" lon="5.53794">
        <ele>296</ele>
        <time>2022-03-19T13:58:16Z</time>
      </trkpt>
      <trkpt lat="46.74987" lon="5.53808">
        <ele>296.6</ele>
        <time>2022-03-19T13:58:18Z</time>
      </trkpt>
      <trkpt lat="46.7498" lon="5.53834">
        <ele>298</ele>
        <time>2022-03-19T13:58:22Z</time>
      </trkpt>
      <trkpt lat="46.74976" lon="5.53853">
        <ele>298.6</ele>
        <time>2022-03-19T13:58:25Z</time>
      </trkpt>
      <trkpt lat="46.74978" lon="5.53866">
        <ele>299.2</ele>
        <time>2022-03-19T13:58:27Z</time>
      </trkpt>
      <trkpt lat="46.74981" lon="5.53873">
        <ele>299.6</ele>
        <time>2022-03-19T13:58:28Z</time>
      </trkpt>
      <trkpt lat="46.74984" lon="5.53877">
        <ele>299.8</ele>
        <time>2022-03-19T13:58:29Z</time>
      </trkpt>
      <trkpt lat="46.74993" lon="5.53884">
        <ele>300.2</ele>
        <time>2022-03-19T13:58:31Z</time>
      </trkpt>
      <trkpt lat="46.74998" lon="5.53886">
        <ele>300.6</ele>
        <time>2022-03-19T13:58:32Z</time>
      </trkpt>
      <trkpt lat="46.75031" lon="5.53904">
        <ele>301</ele>
        <time>2022-03-19T13:58:39Z</time>
      </trkpt>
      <trkpt lat="46.75055" lon="5.53916">
        <ele>300.4</ele>
        <time>2022-03-19T13:58:43Z</time>
      </trkpt>
      <trkpt lat="46.7507" lon="5.53923">
        <ele>300</ele>
        <time>2022-03-19T13:58:45Z</time>
      </trkpt>
      <trkpt lat="46.75075" lon="5.53926">
        <ele>299.4</ele>
        <time>2022-03-19T13:58:46Z</time>
      </trkpt>
      <trkpt lat="46.75097" lon="5.53938">
        <ele>298.4</ele>
        <time>2022-03-19T13:58:49Z</time>
      </trkpt>
      <trkpt lat="46.75106" lon="5.53943">
        <ele>297.8</ele>
        <time>2022-03-19T13:58:50Z</time>
      </trkpt>
      <trkpt lat="46.75129" lon="5.53955">
        <ele>296.8</ele>
        <time>2022-03-19T13:58:53Z</time>
      </trkpt>
      <trkpt lat="46.75156" lon="5.53969">
        <ele>295.8</ele>
        <time>2022-03-19T13:58:56Z</time>
      </trkpt>
      <trkpt lat="46.75163" lon="5.53973">
        <ele>295.2</ele>
        <time>2022-03-19T13:58:57Z</time>
      </trkpt>
      <trkpt lat="46.75172" lon="5.53977">
        <ele>294.6</ele>
        <time>2022-03-19T13:58:58Z</time>
      </trkpt>
      <trkpt lat="46.75207" lon="5.53995">
        <ele>293</ele>
        <time>2022-03-19T13:59:02Z</time>
      </trkpt>
      <trkpt lat="46.75216" lon="5.54">
        <ele>292.8</ele>
        <time>2022-03-19T13:59:03Z</time>
      </trkpt>
      <trkpt lat="46.75225" lon="5.54005">
        <ele>292</ele>
        <time>2022-03-19T13:59:04Z</time>
      </trkpt>
      <trkpt lat="46.75245" lon="5.54015">
        <ele>290.8</ele>
        <time>2022-03-19T13:59:06Z</time>
      </trkpt>
      <trkpt lat="46.75264" lon="5.54025">
        <ele>289.8</ele>
        <time>2022-03-19T13:59:08Z</time>
      </trkpt>
      <trkpt lat="46.75274" lon="5.5403">
        <ele>289.2</ele>
        <time>2022-03-19T13:59:09Z</time>
      </trkpt>
      <trkpt lat="46.75302" lon="5.54044">
        <ele>288</ele>
        <time>2022-03-19T13:59:12Z</time>
      </trkpt>
      <trkpt lat="46.75323" lon="5.54056">
        <ele>286.6</ele>
        <time>2022-03-19T13:59:14Z</time>
      </trkpt>
      <trkpt lat="46.75333" lon="5.54062">
        <ele>285.8</ele>
        <time>2022-03-19T13:59:15Z</time>
      </trkpt>
      <trkpt lat="46.75341" lon="5.54066">
        <ele>285</ele>
        <time>2022-03-19T13:59:16Z</time>
      </trkpt>
      <trkpt lat="46.75365" lon="5.5408">
        <ele>283.6</ele>
        <time>2022-03-19T13:59:18Z</time>
      </trkpt>
      <trkpt lat="46.75385" lon="5.54094">
        <ele>282.6</ele>
        <time>2022-03-19T13:59:20Z</time>
      </trkpt>
      <trkpt lat="46.75396" lon="5.54101">
        <ele>281.8</ele>
        <time>2022-03-19T13:59:21Z</time>
      </trkpt>
      <trkpt lat="46.75408" lon="5.54109">
        <ele>280.8</ele>
        <time>2022-03-19T13:59:22Z</time>
      </trkpt>
      <trkpt lat="46.75423" lon="5.54118">
        <ele>279.2</ele>
        <time>2022-03-19T13:59:23Z</time>
      </trkpt>
      <trkpt lat="46.75446" lon="5.54127">
        <ele>277.4</ele>
        <time>2022-03-19T13:59:25Z</time>
      </trkpt>
      <trkpt lat="46.75473" lon="5.54132">
        <ele>274</ele>
        <time>2022-03-19T13:59:27Z</time>
      </trkpt>
      <trkpt lat="46.75499" lon="5.54134">
        <ele>271.8</ele>
        <time>2022-03-19T13:59:29Z</time>
      </trkpt>
      <trkpt lat="46.75511" lon="5.54136">
        <ele>270</ele>
        <time>2022-03-19T13:59:30Z</time>
      </trkpt>
      <trkpt lat="46.75538" lon="5.54139">
        <ele>268.4</ele>
        <time>2022-03-19T13:59:32Z</time>
      </trkpt>
      <trkpt lat="46.75571" lon="5.54144">
        <ele>267.4</ele>
        <time>2022-03-19T13:59:35Z</time>
      </trkpt>
      <trkpt lat="46.75596" lon="5.5415">
        <ele>266.2</ele>
        <time>2022-03-19T13:59:37Z</time>
      </trkpt>
      <trkpt lat="46.75626" lon="5.54161">
        <ele>265.4</ele>
        <time>2022-03-19T13:59:40Z</time>
      </trkpt>
      <trkpt lat="46.75638" lon="5.54165">
        <ele>265.2</ele>
        <time>2022-03-19T13:59:41Z</time>
      </trkpt>
      <trkpt lat="46.75688" lon="5.54185">
        <ele>264</ele>
        <time>2022-03-19T13:59:46Z</time>
      </trkpt>
      <trkpt lat="46.75728" lon="5.54209">
        <ele>262.6</ele>
        <time>2022-03-19T13:59:50Z</time>
      </trkpt>
      <trkpt lat="46.75738" lon="5.54213">
        <ele>262.2</ele>
        <time>2022-03-19T13:59:51Z</time>
      </trkpt>
      <trkpt lat="46.75747" lon="5.54215">
        <ele>261.6</ele>
        <time>2022-03-19T13:59:52Z</time>
      </trkpt>
      <trkpt lat="46.75757" lon="5.54217">
        <ele>261</ele>
        <time>2022-03-19T13:59:53Z</time>
      </trkpt>
      <trkpt lat="46.75793" lon="5.54222">
        <ele>260</ele>
        <time>2022-03-19T13:59:56Z</time>
      </trkpt>
      <trkpt lat="46.75802" lon="5.54223">
        <ele>259.4</ele>
        <time>2022-03-19T13:59:57Z</time>
      </trkpt>
      <trkpt lat="46.75828" lon="5.54227">
        <ele>258.4</ele>
        <time>2022-03-19T13:59:59Z</time>
      </trkpt>
      <trkpt lat="46.75849" lon="5.54231">
        <ele>257</ele>
        <time>2022-03-19T14:00:01Z</time>
      </trkpt>
      <trkpt lat="46.75875" lon="5.54237">
        <ele>256</ele>
        <time>2022-03-19T14:00:03Z</time>
      </trkpt>
      <trkpt lat="46.75886" lon="5.5424">
        <ele>254.2</ele>
        <time>2022-03-19T14:00:04Z</time>
      </trkpt>
      <trkpt lat="46.75898" lon="5.54242">
        <ele>253.6</ele>
        <time>2022-03-19T14:00:05Z</time>
      </trkpt>
      <trkpt lat="46.75907" lon="5.54242">
        <ele>252.4</ele>
        <time>2022-03-19T14:00:06Z</time>
      </trkpt>
      <trkpt lat="46.75928" lon="5.54243">
        <ele>251.4</ele>
        <time>2022-03-19T14:00:08Z</time>
      </trkpt>
      <trkpt lat="46.75954" lon="5.54242">
        <ele>249.8</ele>
        <time>2022-03-19T14:00:11Z</time>
      </trkpt>
      <trkpt lat="46.75962" lon="5.54242">
        <ele>249.6</ele>
        <time>2022-03-19T14:00:12Z</time>
      </trkpt>
      <trkpt lat="46.75978" lon="5.54241">
        <ele>248</ele>
        <time>2022-03-19T14:00:15Z</time>
      </trkpt>
      <trkpt lat="46.75981" lon="5.54241">
        <ele>247.4</ele>
        <time>2022-03-19T14:00:16Z</time>
      </trkpt>
      <trkpt lat="46.75986" lon="5.54242">
        <ele>246.6</ele>
        <time>2022-03-19T14:00:18Z</time>
      </trkpt>
      <trkpt lat="46.75987" lon="5.54242">
        <ele>246.4</ele>
        <time>2022-03-19T14:00:19Z</time>
      </trkpt>
      <trkpt lat="46.75987" lon="5.54242">
        <ele>246</ele>
        <time>2022-03-19T14:00:20Z</time>
      </trkpt>
      <trkpt lat="46.75989" lon="5.54247">
        <ele>244.2</ele>
        <time>2022-03-19T14:00:33Z</time>
      </trkpt>
      <trkpt lat="46.75991" lon="5.54256">
        <ele>244.2</ele>
        <time>2022-03-19T14:00:35Z</time>
      </trkpt>
      <trkpt lat="46.75993" lon="5.54272">
        <ele>244.2</ele>
        <time>2022-03-19T14:00:38Z</time>
      </trkpt>
      <trkpt lat="46.75994" lon="5.5428">
        <ele>244.2</ele>
        <time>2022-03-19T14:00:39Z</time>
      </trkpt>
      <trkpt lat="46.75999" lon="5.54322">
        <ele>244</ele>
        <time>2022-03-19T14:00:44Z</time>
      </trkpt>
      <trkpt lat="46.76003" lon="5.54366">
        <ele>243.2</ele>
        <time>2022-03-19T14:00:49Z</time>
      </trkpt>
      <trkpt lat="46.76004" lon="5.54376">
        <ele>243.2</ele>
        <time>2022-03-19T14:00:50Z</time>
      </trkpt>
      <trkpt lat="46.76013" lon="5.54454">
        <ele>243.2</ele>
        <time>2022-03-19T14:00:58Z</time>
      </trkpt>
      <trkpt lat="46.76024" lon="5.54537">
        <ele>244.6</ele>
        <time>2022-03-19T14:01:07Z</time>
      </trkpt>
      <trkpt lat="46.76024" lon="5.54546">
        <ele>244.8</ele>
        <time>2022-03-19T14:01:08Z</time>
      </trkpt>
      <trkpt lat="46.76031" lon="5.54619">
        <ele>245.8</ele>
        <time>2022-03-19T14:01:16Z</time>
      </trkpt>
      <trkpt lat="46.76031" lon="5.54637">
        <ele>246.4</ele>
        <time>2022-03-19T14:01:18Z</time>
      </trkpt>
      <trkpt lat="46.76029" lon="5.54663">
        <ele>246.8</ele>
        <time>2022-03-19T14:01:21Z</time>
      </trkpt>
      <trkpt lat="46.76024" lon="5.54704">
        <ele>247.2</ele>
        <time>2022-03-19T14:01:26Z</time>
      </trkpt>
      <trkpt lat="46.76012" lon="5.54788">
        <ele>247.4</ele>
        <time>2022-03-19T14:01:35Z</time>
      </trkpt>
      <trkpt lat="46.76003" lon="5.54866">
        <ele>247.2</ele>
        <time>2022-03-19T14:01:43Z</time>
      </trkpt>
      <trkpt lat="46.76001" lon="5.54948">
        <ele>246.8</ele>
        <time>2022-03-19T14:01:51Z</time>
      </trkpt>
      <trkpt lat="46.76002" lon="5.55028">
        <ele>247.6</ele>
        <time>2022-03-19T14:01:59Z</time>
      </trkpt>
      <trkpt lat="46.76003" lon="5.55056">
        <ele>247.6</ele>
        <time>2022-03-19T14:02:02Z</time>
      </trkpt>
      <trkpt lat="46.76003" lon="5.55078">
        <ele>247.8</ele>
        <time>2022-03-19T14:02:04Z</time>
      </trkpt>
      <trkpt lat="46.76003" lon="5.55168">
        <ele>248.4</ele>
        <time>2022-03-19T14:02:13Z</time>
      </trkpt>
      <trkpt lat="46.76004" lon="5.55227">
        <ele>249.2</ele>
        <time>2022-03-19T14:02:19Z</time>
      </trkpt>
      <trkpt lat="46.76003" lon="5.55268">
        <ele>249.6</ele>
        <time>2022-03-19T14:02:23Z</time>
      </trkpt>
      <trkpt lat="46.76004" lon="5.55347">
        <ele>250</ele>
        <time>2022-03-19T14:02:31Z</time>
      </trkpt>
      <trkpt lat="46.76003" lon="5.55367">
        <ele>250.2</ele>
        <time>2022-03-19T14:02:33Z</time>
      </trkpt>
      <trkpt lat="46.76003" lon="5.55377">
        <ele>250.4</ele>
        <time>2022-03-19T14:02:34Z</time>
      </trkpt>
      <trkpt lat="46.75997" lon="5.55458">
        <ele>251</ele>
        <time>2022-03-19T14:02:42Z</time>
      </trkpt>
      <trkpt lat="46.75995" lon="5.5548">
        <ele>251</ele>
        <time>2022-03-19T14:02:44Z</time>
      </trkpt>
      <trkpt lat="46.75993" lon="5.55508">
        <ele>251.4</ele>
        <time>2022-03-19T14:02:47Z</time>
      </trkpt>
      <trkpt lat="46.75987" lon="5.55568">
        <ele>252</ele>
        <time>2022-03-19T14:02:53Z</time>
      </trkpt>
      <trkpt lat="46.75981" lon="5.55639">
        <ele>252.4</ele>
        <time>2022-03-19T14:03:01Z</time>
      </trkpt>
      <trkpt lat="46.7598" lon="5.55646">
        <ele>252.6</ele>
        <time>2022-03-19T14:03:02Z</time>
      </trkpt>
      <trkpt lat="46.75979" lon="5.55655">
        <ele>252.8</ele>
        <time>2022-03-19T14:03:03Z</time>
      </trkpt>
      <trkpt lat="46.75978" lon="5.55664">
        <ele>252.8</ele>
        <time>2022-03-19T14:03:04Z</time>
      </trkpt>
      <trkpt lat="46.75975" lon="5.55691">
        <ele>253.4</ele>
        <time>2022-03-19T14:03:07Z</time>
      </trkpt>
      <trkpt lat="46.75972" lon="5.55721">
        <ele>253.8</ele>
        <time>2022-03-19T14:03:10Z</time>
      </trkpt>
      <trkpt lat="46.75966" lon="5.55757">
        <ele>254</ele>
        <time>2022-03-19T14:03:14Z</time>
      </trkpt>
      <trkpt lat="46.75962" lon="5.55772">
        <ele>254.2</ele>
        <time>2022-03-19T14:03:16Z</time>
      </trkpt>
      <trkpt lat="46.75955" lon="5.55798">
        <ele>254.4</ele>
        <time>2022-03-19T14:03:19Z</time>
      </trkpt>
      <trkpt lat="46.75943" lon="5.55839">
        <ele>254.8</ele>
        <time>2022-03-19T14:03:24Z</time>
      </trkpt>
      <trkpt lat="46.75941" lon="5.55847">
        <ele>254.8</ele>
        <time>2022-03-19T14:03:25Z</time>
      </trkpt>
      <trkpt lat="46.75937" lon="5.55863">
        <ele>255.6</ele>
        <time>2022-03-19T14:03:27Z</time>
      </trkpt>
      <trkpt lat="46.75937" lon="5.55877">
        <ele>255.8</ele>
        <time>2022-03-19T14:03:29Z</time>
      </trkpt>
      <trkpt lat="46.75939" lon="5.55885">
        <ele>256</ele>
        <time>2022-03-19T14:03:30Z</time>
      </trkpt>
      <trkpt lat="46.75942" lon="5.55891">
        <ele>256.4</ele>
        <time>2022-03-19T14:03:31Z</time>
      </trkpt>
      <trkpt lat="46.75963" lon="5.55907">
        <ele>256.6</ele>
        <time>2022-03-19T14:03:35Z</time>
      </trkpt>
      <trkpt lat="46.75977" lon="5.55918">
        <ele>256.6</ele>
        <time>2022-03-19T14:03:38Z</time>
      </trkpt>
      <trkpt lat="46.7598" lon="5.55929">
        <ele>256.2</ele>
        <time>2022-03-19T14:03:40Z</time>
      </trkpt>
      <trkpt lat="46.75977" lon="5.55939">
        <ele>255.8</ele>
        <time>2022-03-19T14:03:42Z</time>
      </trkpt>
      <trkpt lat="46.75974" lon="5.55942">
        <ele>255.6</ele>
        <time>2022-03-19T14:03:43Z</time>
      </trkpt>
      <trkpt lat="46.75966" lon="5.55949">
        <ele>255.2</ele>
        <time>2022-03-19T14:03:45Z</time>
      </trkpt>
      <trkpt lat="46.75957" lon="5.55962">
        <ele>255</ele>
        <time>2022-03-19T14:03:48Z</time>
      </trkpt>
      <trkpt lat="46.7595" lon="5.55972">
        <ele>255</ele>
        <time>2022-03-19T14:03:50Z</time>
      </trkpt>
      <trkpt lat="46.75946" lon="5.55981">
        <ele>255.4</ele>
        <time>2022-03-19T14:03:52Z</time>
      </trkpt>
      <trkpt lat="46.75937" lon="5.55995">
        <ele>256</ele>
        <time>2022-03-19T14:03:55Z</time>
      </trkpt>
      <trkpt lat="46.75932" lon="5.56003">
        <ele>256.8</ele>
        <time>2022-03-19T14:03:57Z</time>
      </trkpt>
      <trkpt lat="46.7593" lon="5.56007">
        <ele>257</ele>
        <time>2022-03-19T14:03:58Z</time>
      </trkpt>
      <trkpt lat="46.75927" lon="5.56013">
        <ele>257.2</ele>
        <time>2022-03-19T14:03:59Z</time>
      </trkpt>
      <trkpt lat="46.75916" lon="5.56028">
        <ele>258.4</ele>
        <time>2022-03-19T14:04:03Z</time>
      </trkpt>
      <trkpt lat="46.75902" lon="5.56042">
        <ele>259.6</ele>
        <time>2022-03-19T14:04:07Z</time>
      </trkpt>
      <trkpt lat="46.75893" lon="5.56054">
        <ele>260</ele>
        <time>2022-03-19T14:04:10Z</time>
      </trkpt>
      <trkpt lat="46.7589" lon="5.56058">
        <ele>260.2</ele>
        <time>2022-03-19T14:04:11Z</time>
      </trkpt>
      <trkpt lat="46.75886" lon="5.56065">
        <ele>260.6</ele>
        <time>2022-03-19T14:04:12Z</time>
      </trkpt>
      <trkpt lat="46.75875" lon="5.56086">
        <ele>261.4</ele>
        <time>2022-03-19T14:04:16Z</time>
      </trkpt>
      <trkpt lat="46.75873" lon="5.56091">
        <ele>262</ele>
        <time>2022-03-19T14:04:17Z</time>
      </trkpt>
      <trkpt lat="46.75872" lon="5.56097">
        <ele>262</ele>
        <time>2022-03-19T14:04:18Z</time>
      </trkpt>
      <trkpt lat="46.75869" lon="5.56117">
        <ele>263.2</ele>
        <time>2022-03-19T14:04:21Z</time>
      </trkpt>
      <trkpt lat="46.75869" lon="5.56128">
        <ele>263.4</ele>
        <time>2022-03-19T14:04:23Z</time>
      </trkpt>
      <trkpt lat="46.75872" lon="5.56152">
        <ele>263.8</ele>
        <time>2022-03-19T14:04:27Z</time>
      </trkpt>
      <trkpt lat="46.75872" lon="5.56157">
        <ele>264.2</ele>
        <time>2022-03-19T14:04:28Z</time>
      </trkpt>
      <trkpt lat="46.75875" lon="5.56171">
        <ele>264.8</ele>
        <time>2022-03-19T14:04:30Z</time>
      </trkpt>
      <trkpt lat="46.75877" lon="5.56176">
        <ele>265.2</ele>
        <time>2022-03-19T14:04:31Z</time>
      </trkpt>
      <trkpt lat="46.7588" lon="5.56182">
        <ele>265.4</ele>
        <time>2022-03-19T14:04:32Z</time>
      </trkpt>
      <trkpt lat="46.75885" lon="5.56189">
        <ele>265.8</ele>
        <time>2022-03-19T14:04:34Z</time>
      </trkpt>
      <trkpt lat="46.75898" lon="5.56201">
        <ele>266</ele>
        <time>2022-03-19T14:04:37Z</time>
      </trkpt>
      <trkpt lat="46.75902" lon="5.56204">
        <ele>266.4</ele>
        <time>2022-03-19T14:04:38Z</time>
      </trkpt>
      <trkpt lat="46.75925" lon="5.56222">
        <ele>267</ele>
        <time>2022-03-19T14:04:43Z</time>
      </trkpt>
      <trkpt lat="46.75929" lon="5.56226">
        <ele>267.2</ele>
        <time>2022-03-19T14:04:44Z</time>
      </trkpt>
      <trkpt lat="46.75934" lon="5.56233">
        <ele>267</ele>
        <time>2022-03-19T14:04:45Z</time>
      </trkpt>
      <trkpt lat="46.75939" lon="5.56247">
        <ele>266.8</ele>
        <time>2022-03-19T14:04:47Z</time>
      </trkpt>
      <trkpt lat="46.7595" lon="5.56282">
        <ele>266.4</ele>
        <time>2022-03-19T14:04:51Z</time>
      </trkpt>
      <trkpt lat="46.75953" lon="5.56291">
        <ele>266.4</ele>
        <time>2022-03-19T14:04:52Z</time>
      </trkpt>
      <trkpt lat="46.75956" lon="5.56301">
        <ele>266.4</ele>
        <time>2022-03-19T14:04:53Z</time>
      </trkpt>
      <trkpt lat="46.7596" lon="5.56324">
        <ele>266.2</ele>
        <time>2022-03-19T14:04:55Z</time>
      </trkpt>
      <trkpt lat="46.7596" lon="5.56344">
        <ele>265.4</ele>
        <time>2022-03-19T14:04:57Z</time>
      </trkpt>
      <trkpt lat="46.75958" lon="5.56355">
        <ele>265</ele>
        <time>2022-03-19T14:04:58Z</time>
      </trkpt>
      <trkpt lat="46.75957" lon="5.56367">
        <ele>264.6</ele>
        <time>2022-03-19T14:04:59Z</time>
      </trkpt>
      <trkpt lat="46.75943" lon="5.56427">
        <ele>264</ele>
        <time>2022-03-19T14:05:04Z</time>
      </trkpt>
      <trkpt lat="46.75937" lon="5.5645">
        <ele>262.8</ele>
        <time>2022-03-19T14:05:06Z</time>
      </trkpt>
      <trkpt lat="46.7593" lon="5.56477">
        <ele>261.2</ele>
        <time>2022-03-19T14:05:08Z</time>
      </trkpt>
      <trkpt lat="46.75917" lon="5.56523">
        <ele>260</ele>
        <time>2022-03-19T14:05:12Z</time>
      </trkpt>
      <trkpt lat="46.75892" lon="5.56601">
        <ele>258.8</ele>
        <time>2022-03-19T14:05:19Z</time>
      </trkpt>
      <trkpt lat="46.75876" lon="5.5666">
        <ele>259.8</ele>
        <time>2022-03-19T14:05:25Z</time>
      </trkpt>
      <trkpt lat="46.75876" lon="5.56669">
        <ele>260.2</ele>
        <time>2022-03-19T14:05:26Z</time>
      </trkpt>
      <trkpt lat="46.75876" lon="5.56677">
        <ele>260.2</ele>
        <time>2022-03-19T14:05:27Z</time>
      </trkpt>
      <trkpt lat="46.75878" lon="5.56698">
        <ele>260.4</ele>
        <time>2022-03-19T14:05:29Z</time>
      </trkpt>
      <trkpt lat="46.75888" lon="5.56778">
        <ele>260.6</ele>
        <time>2022-03-19T14:05:36Z</time>
      </trkpt>
      <trkpt lat="46.7589" lon="5.56786">
        <ele>260.8</ele>
        <time>2022-03-19T14:05:37Z</time>
      </trkpt>
      <trkpt lat="46.75894" lon="5.56808">
        <ele>260.4</ele>
        <time>2022-03-19T14:05:39Z</time>
      </trkpt>
      <trkpt lat="46.75904" lon="5.56876">
        <ele>259.8</ele>
        <time>2022-03-19T14:05:45Z</time>
      </trkpt>
      <trkpt lat="46.75905" lon="5.56888">
        <ele>259.6</ele>
        <time>2022-03-19T14:05:46Z</time>
      </trkpt>
      <trkpt lat="46.75901" lon="5.56912">
        <ele>259</ele>
        <time>2022-03-19T14:05:48Z</time>
      </trkpt>
      <trkpt lat="46.75896" lon="5.56922">
        <ele>258.6</ele>
        <time>2022-03-19T14:05:49Z</time>
      </trkpt>
      <trkpt lat="46.75889" lon="5.56932">
        <ele>258.2</ele>
        <time>2022-03-19T14:05:50Z</time>
      </trkpt>
      <trkpt lat="46.75875" lon="5.56945">
        <ele>257.8</ele>
        <time>2022-03-19T14:05:52Z</time>
      </trkpt>
      <trkpt lat="46.75856" lon="5.56966">
        <ele>257.2</ele>
        <time>2022-03-19T14:05:55Z</time>
      </trkpt>
      <trkpt lat="46.75834" lon="5.56986">
        <ele>257</ele>
        <time>2022-03-19T14:05:58Z</time>
      </trkpt>
      <trkpt lat="46.75828" lon="5.56994">
        <ele>256.8</ele>
        <time>2022-03-19T14:05:59Z</time>
      </trkpt>
      <trkpt lat="46.75819" lon="5.57011">
        <ele>256.6</ele>
        <time>2022-03-19T14:06:01Z</time>
      </trkpt>
      <trkpt lat="46.75814" lon="5.57029">
        <ele>256.6</ele>
        <time>2022-03-19T14:06:03Z</time>
      </trkpt>
      <trkpt lat="46.75805" lon="5.57093">
        <ele>255.6</ele>
        <time>2022-03-19T14:06:08Z</time>
      </trkpt>
      <trkpt lat="46.75804" lon="5.57103">
        <ele>255.4</ele>
        <time>2022-03-19T14:06:09Z</time>
      </trkpt>
      <trkpt lat="46.75798" lon="5.57156">
        <ele>254.4</ele>
        <time>2022-03-19T14:06:13Z</time>
      </trkpt>
      <trkpt lat="46.75795" lon="5.57184">
        <ele>253</ele>
        <time>2022-03-19T14:06:15Z</time>
      </trkpt>
      <trkpt lat="46.75786" lon="5.57203">
        <ele>252.4</ele>
        <time>2022-03-19T14:06:17Z</time>
      </trkpt>
      <trkpt lat="46.75781" lon="5.57207">
        <ele>252.4</ele>
        <time>2022-03-19T14:06:18Z</time>
      </trkpt>
      <trkpt lat="46.75765" lon="5.57214">
        <ele>252</ele>
        <time>2022-03-19T14:06:20Z</time>
      </trkpt>
      <trkpt lat="46.75746" lon="5.57224">
        <ele>251.8</ele>
        <time>2022-03-19T14:06:23Z</time>
      </trkpt>
      <trkpt lat="46.75723" lon="5.5724">
        <ele>253.2</ele>
        <time>2022-03-19T14:06:27Z</time>
      </trkpt>
      <trkpt lat="46.75711" lon="5.57249">
        <ele>254</ele>
        <time>2022-03-19T14:06:29Z</time>
      </trkpt>
      <trkpt lat="46.75705" lon="5.57254">
        <ele>254.8</ele>
        <time>2022-03-19T14:06:30Z</time>
      </trkpt>
      <trkpt lat="46.75684" lon="5.57267">
        <ele>255.8</ele>
        <time>2022-03-19T14:06:34Z</time>
      </trkpt>
      <trkpt lat="46.75679" lon="5.5727">
        <ele>256</ele>
        <time>2022-03-19T14:06:35Z</time>
      </trkpt>
      <trkpt lat="46.75667" lon="5.57277">
        <ele>256.8</ele>
        <time>2022-03-19T14:06:37Z</time>
      </trkpt>
      <trkpt lat="46.75656" lon="5.57288">
        <ele>257.2</ele>
        <time>2022-03-19T14:06:39Z</time>
      </trkpt>
      <trkpt lat="46.75635" lon="5.57323">
        <ele>258.2</ele>
        <time>2022-03-19T14:06:44Z</time>
      </trkpt>
      <trkpt lat="46.75628" lon="5.57336">
        <ele>258.8</ele>
        <time>2022-03-19T14:06:46Z</time>
      </trkpt>
      <trkpt lat="46.756" lon="5.57386">
        <ele>259.2</ele>
        <time>2022-03-19T14:06:53Z</time>
      </trkpt>
      <trkpt lat="46.75593" lon="5.57397">
        <ele>259.2</ele>
        <time>2022-03-19T14:06:55Z</time>
      </trkpt>
      <trkpt lat="46.75587" lon="5.57412">
        <ele>259.4</ele>
        <time>2022-03-19T14:06:57Z</time>
      </trkpt>
      <trkpt lat="46.75586" lon="5.5742">
        <ele>259.2</ele>
        <time>2022-03-19T14:06:58Z</time>
      </trkpt>
      <trkpt lat="46.75586" lon="5.57427">
        <ele>259.2</ele>
        <time>2022-03-19T14:06:59Z</time>
      </trkpt>
      <trkpt lat="46.75585" lon="5.57449">
        <ele>259.2</ele>
        <time>2022-03-19T14:07:02Z</time>
      </trkpt>
      <trkpt lat="46.75588" lon="5.57463">
        <ele>259.4</ele>
        <time>2022-03-19T14:07:04Z</time>
      </trkpt>
      <trkpt lat="46.75594" lon="5.57478">
        <ele>259.4</ele>
        <time>2022-03-19T14:07:06Z</time>
      </trkpt>
      <trkpt lat="46.75597" lon="5.57483">
        <ele>259.6</ele>
        <time>2022-03-19T14:07:07Z</time>
      </trkpt>
      <trkpt lat="46.75601" lon="5.57487">
        <ele>259.6</ele>
        <time>2022-03-19T14:07:08Z</time>
      </trkpt>
      <trkpt lat="46.75614" lon="5.575">
        <ele>260.2</ele>
        <time>2022-03-19T14:07:11Z</time>
      </trkpt>
      <trkpt lat="46.75632" lon="5.57516">
        <ele>260.6</ele>
        <time>2022-03-19T14:07:15Z</time>
      </trkpt>
      <trkpt lat="46.75642" lon="5.57524">
        <ele>261</ele>
        <time>2022-03-19T14:07:17Z</time>
      </trkpt>
      <trkpt lat="46.75662" lon="5.57539">
        <ele>261.6</ele>
        <time>2022-03-19T14:07:21Z</time>
      </trkpt>
      <trkpt lat="46.75681" lon="5.57557">
        <ele>261.8</ele>
        <time>2022-03-19T14:07:25Z</time>
      </trkpt>
      <trkpt lat="46.75711" lon="5.57581">
        <ele>262</ele>
        <time>2022-03-19T14:07:31Z</time>
      </trkpt>
      <trkpt lat="46.75723" lon="5.57591">
        <ele>262</ele>
        <time>2022-03-19T14:07:33Z</time>
      </trkpt>
      <trkpt lat="46.75756" lon="5.57631">
        <ele>262.8</ele>
        <time>2022-03-19T14:07:40Z</time>
      </trkpt>
      <trkpt lat="46.75759" lon="5.57636">
        <ele>263</ele>
        <time>2022-03-19T14:07:41Z</time>
      </trkpt>
      <trkpt lat="46.75794" lon="5.57686">
        <ele>263.4</ele>
        <time>2022-03-19T14:07:49Z</time>
      </trkpt>
      <trkpt lat="46.75815" lon="5.57716">
        <ele>264</ele>
        <time>2022-03-19T14:07:54Z</time>
      </trkpt>
      <trkpt lat="46.75831" lon="5.57741">
        <ele>264.2</ele>
        <time>2022-03-19T14:07:58Z</time>
      </trkpt>
      <trkpt lat="46.7587" lon="5.57801">
        <ele>264.8</ele>
        <time>2022-03-19T14:08:07Z</time>
      </trkpt>
      <trkpt lat="46.75883" lon="5.5782">
        <ele>265</ele>
        <time>2022-03-19T14:08:10Z</time>
      </trkpt>
      <trkpt lat="46.75908" lon="5.5786">
        <ele>265.4</ele>
        <time>2022-03-19T14:08:16Z</time>
      </trkpt>
      <trkpt lat="46.75947" lon="5.57919">
        <ele>265.6</ele>
        <time>2022-03-19T14:08:25Z</time>
      </trkpt>
      <trkpt lat="46.7595" lon="5.57924">
        <ele>265.6</ele>
        <time>2022-03-19T14:08:26Z</time>
      </trkpt>
      <trkpt lat="46.75989" lon="5.57986">
        <ele>265.4</ele>
        <time>2022-03-19T14:08:35Z</time>
      </trkpt>
      <trkpt lat="46.75994" lon="5.57992">
        <ele>265.4</ele>
        <time>2022-03-19T14:08:36Z</time>
      </trkpt>
      <trkpt lat="46.7602" lon="5.58035">
        <ele>265.8</ele>
        <time>2022-03-19T14:08:42Z</time>
      </trkpt>
      <trkpt lat="46.7605" lon="5.58086">
        <ele>265.8</ele>
        <time>2022-03-19T14:08:49Z</time>
      </trkpt>
      <trkpt lat="46.76067" lon="5.58115">
        <ele>266</ele>
        <time>2022-03-19T14:08:53Z</time>
      </trkpt>
      <trkpt lat="46.76075" lon="5.58126">
        <ele>266.4</ele>
        <time>2022-03-19T14:08:55Z</time>
      </trkpt>
      <trkpt lat="46.76085" lon="5.58139">
        <ele>266.6</ele>
        <time>2022-03-19T14:08:58Z</time>
      </trkpt>
      <trkpt lat="46.76088" lon="5.58145">
        <ele>266.6</ele>
        <time>2022-03-19T14:08:59Z</time>
      </trkpt>
      <trkpt lat="46.76089" lon="5.58153">
        <ele>266.6</ele>
        <time>2022-03-19T14:09:00Z</time>
      </trkpt>
      <trkpt lat="46.76091" lon="5.58172">
        <ele>266.8</ele>
        <time>2022-03-19T14:09:03Z</time>
      </trkpt>
      <trkpt lat="46.76093" lon="5.58182">
        <ele>266.8</ele>
        <time>2022-03-19T14:09:04Z</time>
      </trkpt>
      <trkpt lat="46.76099" lon="5.58202">
        <ele>266.8</ele>
        <time>2022-03-19T14:09:07Z</time>
      </trkpt>
      <trkpt lat="46.76117" lon="5.58256">
        <ele>266.6</ele>
        <time>2022-03-19T14:09:14Z</time>
      </trkpt>
      <trkpt lat="46.76132" lon="5.58321">
        <ele>266.8</ele>
        <time>2022-03-19T14:09:22Z</time>
      </trkpt>
      <trkpt lat="46.76145" lon="5.58375">
        <ele>266.4</ele>
        <time>2022-03-19T14:09:28Z</time>
      </trkpt>
      <trkpt lat="46.76165" lon="5.58458">
        <ele>266</ele>
        <time>2022-03-19T14:09:37Z</time>
      </trkpt>
      <trkpt lat="46.76168" lon="5.58466">
        <ele>266</ele>
        <time>2022-03-19T14:09:38Z</time>
      </trkpt>
      <trkpt lat="46.7619" lon="5.58541">
        <ele>267.4</ele>
        <time>2022-03-19T14:09:47Z</time>
      </trkpt>
      <trkpt lat="46.76192" lon="5.5855">
        <ele>267.4</ele>
        <time>2022-03-19T14:09:48Z</time>
      </trkpt>
      <trkpt lat="46.7621" lon="5.58629">
        <ele>267.8</ele>
        <time>2022-03-19T14:09:57Z</time>
      </trkpt>
      <trkpt lat="46.76214" lon="5.58647">
        <ele>267.8</ele>
        <time>2022-03-19T14:09:59Z</time>
      </trkpt>
      <trkpt lat="46.76231" lon="5.58726">
        <ele>268.2</ele>
        <time>2022-03-19T14:10:08Z</time>
      </trkpt>
      <trkpt lat="46.76232" lon="5.58733">
        <ele>268.2</ele>
        <time>2022-03-19T14:10:09Z</time>
      </trkpt>
      <trkpt lat="46.76236" lon="5.58753">
        <ele>268.6</ele>
        <time>2022-03-19T14:10:11Z</time>
      </trkpt>
      <trkpt lat="46.76253" lon="5.58831">
        <ele>269</ele>
        <time>2022-03-19T14:10:20Z</time>
      </trkpt>
      <trkpt lat="46.76268" lon="5.58901">
        <ele>269.4</ele>
        <time>2022-03-19T14:10:28Z</time>
      </trkpt>
      <trkpt lat="46.76286" lon="5.5898">
        <ele>269.4</ele>
        <time>2022-03-19T14:10:37Z</time>
      </trkpt>
      <trkpt lat="46.763" lon="5.59047">
        <ele>269.6</ele>
        <time>2022-03-19T14:10:44Z</time>
      </trkpt>
      <trkpt lat="46.76306" lon="5.59073">
        <ele>270</ele>
        <time>2022-03-19T14:10:47Z</time>
      </trkpt>
      <trkpt lat="46.76324" lon="5.5915">
        <ele>270</ele>
        <time>2022-03-19T14:10:55Z</time>
      </trkpt>
      <trkpt lat="46.76328" lon="5.59167">
        <ele>270</ele>
        <time>2022-03-19T14:10:57Z</time>
      </trkpt>
      <trkpt lat="46.76346" lon="5.59242">
        <ele>269</ele>
        <time>2022-03-19T14:11:05Z</time>
      </trkpt>
      <trkpt lat="46.7635" lon="5.59261">
        <ele>269</ele>
        <time>2022-03-19T14:11:07Z</time>
      </trkpt>
      <trkpt lat="46.76367" lon="5.59345">
        <ele>269</ele>
        <time>2022-03-19T14:11:16Z</time>
      </trkpt>
      <trkpt lat="46.76369" lon="5.59354">
        <ele>269.2</ele>
        <time>2022-03-19T14:11:17Z</time>
      </trkpt>
      <trkpt lat="46.76378" lon="5.59391">
        <ele>269.2</ele>
        <time>2022-03-19T14:11:22Z</time>
      </trkpt>
      <trkpt lat="46.76389" lon="5.59415">
        <ele>269.8</ele>
        <time>2022-03-19T14:11:27Z</time>
      </trkpt>
      <trkpt lat="46.7639" lon="5.59418">
        <ele>270</ele>
        <time>2022-03-19T14:11:30Z</time>
      </trkpt>
      <trkpt lat="46.7639" lon="5.5942">
        <ele>270</ele>
        <time>2022-03-19T14:11:31Z</time>
      </trkpt>
      <trkpt lat="46.7639" lon="5.59434">
        <ele>270.2</ele>
        <time>2022-03-19T14:11:35Z</time>
      </trkpt>
      <trkpt lat="46.76389" lon="5.59461">
        <ele>270.2</ele>
        <time>2022-03-19T14:11:39Z</time>
      </trkpt>
      <trkpt lat="46.76385" lon="5.59508">
        <ele>270</ele>
        <time>2022-03-19T14:11:45Z</time>
      </trkpt>
      <trkpt lat="46.76378" lon="5.59579">
        <ele>269.8</ele>
        <time>2022-03-19T14:11:53Z</time>
      </trkpt>
      <trkpt lat="46.76367" lon="5.59665">
        <ele>269.4</ele>
        <time>2022-03-19T14:12:02Z</time>
      </trkpt>
      <trkpt lat="46.76352" lon="5.59734">
        <ele>269.4</ele>
        <time>2022-03-19T14:12:10Z</time>
      </trkpt>
      <trkpt lat="46.76348" lon="5.5975">
        <ele>269.6</ele>
        <time>2022-03-19T14:12:14Z</time>
      </trkpt>
      <trkpt lat="46.76348" lon="5.59753">
        <ele>270</ele>
        <time>2022-03-19T14:12:18Z</time>
      </trkpt>
      <trkpt lat="46.76346" lon="5.59758">
        <ele>270</ele>
        <time>2022-03-19T14:12:21Z</time>
      </trkpt>
      <trkpt lat="46.76343" lon="5.59767">
        <ele>270.2</ele>
        <time>2022-03-19T14:12:25Z</time>
      </trkpt>
      <trkpt lat="46.76341" lon="5.59777">
        <ele>270.4</ele>
        <time>2022-03-19T14:12:32Z</time>
      </trkpt>
      <trkpt lat="46.76339" lon="5.59789">
        <ele>270.4</ele>
        <time>2022-03-19T14:13:21Z</time>
      </trkpt>
      <trkpt lat="46.76335" lon="5.598">
        <ele>270.2</ele>
        <time>2022-03-19T14:13:23Z</time>
      </trkpt>
      <trkpt lat="46.76325" lon="5.59832">
        <ele>269.8</ele>
        <time>2022-03-19T14:13:29Z</time>
      </trkpt>
      <trkpt lat="46.76311" lon="5.59881">
        <ele>269.6</ele>
        <time>2022-03-19T14:13:37Z</time>
      </trkpt>
      <trkpt lat="46.7629" lon="5.59937">
        <ele>269.4</ele>
        <time>2022-03-19T14:13:46Z</time>
      </trkpt>
      <trkpt lat="46.76263" lon="5.60003">
        <ele>270</ele>
        <time>2022-03-19T14:13:57Z</time>
      </trkpt>
      <trkpt lat="46.76261" lon="5.60009">
        <ele>270.2</ele>
        <time>2022-03-19T14:13:58Z</time>
      </trkpt>
      <trkpt lat="46.76247" lon="5.6004">
        <ele>270.4</ele>
        <time>2022-03-19T14:14:04Z</time>
      </trkpt>
      <trkpt lat="46.76225" lon="5.60084">
        <ele>271.2</ele>
        <time>2022-03-19T14:14:12Z</time>
      </trkpt>
      <trkpt lat="46.76204" lon="5.6013">
        <ele>271.4</ele>
        <time>2022-03-19T14:14:20Z</time>
      </trkpt>
      <trkpt lat="46.76173" lon="5.60189">
        <ele>271.6</ele>
        <time>2022-03-19T14:14:30Z</time>
      </trkpt>
      <trkpt lat="46.76143" lon="5.60249">
        <ele>271.6</ele>
        <time>2022-03-19T14:14:39Z</time>
      </trkpt>
      <trkpt lat="46.76118" lon="5.60295">
        <ele>270.8</ele>
        <time>2022-03-19T14:14:45Z</time>
      </trkpt>
      <trkpt lat="46.7611" lon="5.60311">
        <ele>270.4</ele>
        <time>2022-03-19T14:14:47Z</time>
      </trkpt>
      <trkpt lat="46.76098" lon="5.60336">
        <ele>269.6</ele>
        <time>2022-03-19T14:14:51Z</time>
      </trkpt>
      <trkpt lat="46.76095" lon="5.60342">
        <ele>269.4</ele>
        <time>2022-03-19T14:14:52Z</time>
      </trkpt>
      <trkpt lat="46.76088" lon="5.60355">
        <ele>269.2</ele>
        <time>2022-03-19T14:14:54Z</time>
      </trkpt>
      <trkpt lat="46.76085" lon="5.60363">
        <ele>269.2</ele>
        <time>2022-03-19T14:14:55Z</time>
      </trkpt>
      <trkpt lat="46.76076" lon="5.60386">
        <ele>268.6</ele>
        <time>2022-03-19T14:14:58Z</time>
      </trkpt>
      <trkpt lat="46.76066" lon="5.60412">
        <ele>268.2</ele>
        <time>2022-03-19T14:15:01Z</time>
      </trkpt>
      <trkpt lat="46.76063" lon="5.60421">
        <ele>268</ele>
        <time>2022-03-19T14:15:02Z</time>
      </trkpt>
      <trkpt lat="46.76046" lon="5.60479">
        <ele>267.2</ele>
        <time>2022-03-19T14:15:08Z</time>
      </trkpt>
      <trkpt lat="46.76032" lon="5.60544">
        <ele>267</ele>
        <time>2022-03-19T14:15:15Z</time>
      </trkpt>
      <trkpt lat="46.76019" lon="5.60608">
        <ele>267</ele>
        <time>2022-03-19T14:15:22Z</time>
      </trkpt>
      <trkpt lat="46.75999" lon="5.60688">
        <ele>267</ele>
        <time>2022-03-19T14:15:31Z</time>
      </trkpt>
      <trkpt lat="46.75978" lon="5.60737">
        <ele>266.6</ele>
        <time>2022-03-19T14:15:37Z</time>
      </trkpt>
      <trkpt lat="46.75944" lon="5.60791">
        <ele>267.4</ele>
        <time>2022-03-19T14:15:45Z</time>
      </trkpt>
      <trkpt lat="46.759" lon="5.60844">
        <ele>267.8</ele>
        <time>2022-03-19T14:15:54Z</time>
      </trkpt>
      <trkpt lat="46.75895" lon="5.6085">
        <ele>268</ele>
        <time>2022-03-19T14:15:55Z</time>
      </trkpt>
      <trkpt lat="46.75845" lon="5.60897">
        <ele>268.2</ele>
        <time>2022-03-19T14:16:04Z</time>
      </trkpt>
      <trkpt lat="46.75822" lon="5.60917">
        <ele>268.4</ele>
        <time>2022-03-19T14:16:08Z</time>
      </trkpt>
      <trkpt lat="46.75773" lon="5.60956">
        <ele>269</ele>
        <time>2022-03-19T14:16:17Z</time>
      </trkpt>
      <trkpt lat="46.75734" lon="5.60983">
        <ele>269.6</ele>
        <time>2022-03-19T14:16:24Z</time>
      </trkpt>
      <trkpt lat="46.75692" lon="5.61015">
        <ele>270</ele>
        <time>2022-03-19T14:16:32Z</time>
      </trkpt>
      <trkpt lat="46.75657" lon="5.61044">
        <ele>270.6</ele>
        <time>2022-03-19T14:16:39Z</time>
      </trkpt>
      <trkpt lat="46.75652" lon="5.61048">
        <ele>270.8</ele>
        <time>2022-03-19T14:16:40Z</time>
      </trkpt>
      <trkpt lat="46.75609" lon="5.61091">
        <ele>271.6</ele>
        <time>2022-03-19T14:16:49Z</time>
      </trkpt>
      <trkpt lat="46.75595" lon="5.61104">
        <ele>271.8</ele>
        <time>2022-03-19T14:16:52Z</time>
      </trkpt>
      <trkpt lat="46.75572" lon="5.61127">
        <ele>272.2</ele>
        <time>2022-03-19T14:16:57Z</time>
      </trkpt>
      <trkpt lat="46.75549" lon="5.61153">
        <ele>272.6</ele>
        <time>2022-03-19T14:17:04Z</time>
      </trkpt>
      <trkpt lat="46.75534" lon="5.61163">
        <ele>272.8</ele>
        <time>2022-03-19T14:17:09Z</time>
      </trkpt>
      <trkpt lat="46.75508" lon="5.61179">
        <ele>273</ele>
        <time>2022-03-19T14:17:15Z</time>
      </trkpt>
      <trkpt lat="46.75494" lon="5.61188">
        <ele>273</ele>
        <time>2022-03-19T14:17:18Z</time>
      </trkpt>
      <trkpt lat="46.75481" lon="5.61202">
        <ele>273.2</ele>
        <time>2022-03-19T14:17:21Z</time>
      </trkpt>
      <trkpt lat="46.7547" lon="5.61216">
        <ele>273.2</ele>
        <time>2022-03-19T14:17:24Z</time>
      </trkpt>
      <trkpt lat="46.75463" lon="5.61224">
        <ele>273.4</ele>
        <time>2022-03-19T14:17:26Z</time>
      </trkpt>
      <trkpt lat="46.75443" lon="5.61246">
        <ele>273.8</ele>
        <time>2022-03-19T14:17:31Z</time>
      </trkpt>
      <trkpt lat="46.75439" lon="5.61249">
        <ele>273.8</ele>
        <time>2022-03-19T14:17:32Z</time>
      </trkpt>
      <trkpt lat="46.75434" lon="5.61251">
        <ele>274</ele>
        <time>2022-03-19T14:17:33Z</time>
      </trkpt>
      <trkpt lat="46.75424" lon="5.61256">
        <ele>274.4</ele>
        <time>2022-03-19T14:17:35Z</time>
      </trkpt>
      <trkpt lat="46.75416" lon="5.61263">
        <ele>274.6</ele>
        <time>2022-03-19T14:17:37Z</time>
      </trkpt>
      <trkpt lat="46.7538" lon="5.61306">
        <ele>275</ele>
        <time>2022-03-19T14:17:46Z</time>
      </trkpt>
      <trkpt lat="46.75367" lon="5.61325">
        <ele>275</ele>
        <time>2022-03-19T14:17:49Z</time>
      </trkpt>
      <trkpt lat="46.75348" lon="5.61352">
        <ele>274.8</ele>
        <time>2022-03-19T14:17:54Z</time>
      </trkpt>
      <trkpt lat="46.75337" lon="5.61369">
        <ele>274.8</ele>
        <time>2022-03-19T14:17:57Z</time>
      </trkpt>
      <trkpt lat="46.75333" lon="5.61382">
        <ele>274.8</ele>
        <time>2022-03-19T14:17:59Z</time>
      </trkpt>
      <trkpt lat="46.75327" lon="5.61432">
        <ele>275</ele>
        <time>2022-03-19T14:18:06Z</time>
      </trkpt>
      <trkpt lat="46.75319" lon="5.61471">
        <ele>275.4</ele>
        <time>2022-03-19T14:18:11Z</time>
      </trkpt>
      <trkpt lat="46.753" lon="5.61549">
        <ele>276</ele>
        <time>2022-03-19T14:18:21Z</time>
      </trkpt>
      <trkpt lat="46.75297" lon="5.61565">
        <ele>276.2</ele>
        <time>2022-03-19T14:18:23Z</time>
      </trkpt>
      <trkpt lat="46.75293" lon="5.61583">
        <ele>276.2</ele>
        <time>2022-03-19T14:18:25Z</time>
      </trkpt>
      <trkpt lat="46.75289" lon="5.61599">
        <ele>276.2</ele>
        <time>2022-03-19T14:18:27Z</time>
      </trkpt>
      <trkpt lat="46.75272" lon="5.61644">
        <ele>276.4</ele>
        <time>2022-03-19T14:18:33Z</time>
      </trkpt>
      <trkpt lat="46.75267" lon="5.61652">
        <ele>276.4</ele>
        <time>2022-03-19T14:18:34Z</time>
      </trkpt>
      <trkpt lat="46.75242" lon="5.61676">
        <ele>276.4</ele>
        <time>2022-03-19T14:18:39Z</time>
      </trkpt>
      <trkpt lat="46.7519" lon="5.61719">
        <ele>277.2</ele>
        <time>2022-03-19T14:18:49Z</time>
      </trkpt>
      <trkpt lat="46.75185" lon="5.61724">
        <ele>277.2</ele>
        <time>2022-03-19T14:18:50Z</time>
      </trkpt>
      <trkpt lat="46.7518" lon="5.61729">
        <ele>277.2</ele>
        <time>2022-03-19T14:18:51Z</time>
      </trkpt>
      <trkpt lat="46.75152" lon="5.61766">
        <ele>277.4</ele>
        <time>2022-03-19T14:18:57Z</time>
      </trkpt>
      <trkpt lat="46.75115" lon="5.61824">
        <ele>277.6</ele>
        <time>2022-03-19T14:19:06Z</time>
      </trkpt>
      <trkpt lat="46.7511" lon="5.6183">
        <ele>277.8</ele>
        <time>2022-03-19T14:19:07Z</time>
      </trkpt>
      <trkpt lat="46.75095" lon="5.61849">
        <ele>278.4</ele>
        <time>2022-03-19T14:19:10Z</time>
      </trkpt>
      <trkpt lat="46.7507" lon="5.61875">
        <ele>278.4</ele>
        <time>2022-03-19T14:19:15Z</time>
      </trkpt>
      <trkpt lat="46.75024" lon="5.6192">
        <ele>278.4</ele>
        <time>2022-03-19T14:19:24Z</time>
      </trkpt>
      <trkpt lat="46.74978" lon="5.61972">
        <ele>278.8</ele>
        <time>2022-03-19T14:19:33Z</time>
      </trkpt>
      <trkpt lat="46.74969" lon="5.61985">
        <ele>278.8</ele>
        <time>2022-03-19T14:19:35Z</time>
      </trkpt>
      <trkpt lat="46.74959" lon="5.62007">
        <ele>279</ele>
        <time>2022-03-19T14:19:38Z</time>
      </trkpt>
      <trkpt lat="46.74937" lon="5.62046">
        <ele>279</ele>
        <time>2022-03-19T14:19:43Z</time>
      </trkpt>
      <trkpt lat="46.74903" lon="5.62086">
        <ele>278.8</ele>
        <time>2022-03-19T14:19:49Z</time>
      </trkpt>
      <trkpt lat="46.7486" lon="5.62134">
        <ele>278.6</ele>
        <time>2022-03-19T14:19:57Z</time>
      </trkpt>
      <trkpt lat="46.74855" lon="5.62141">
        <ele>278.6</ele>
        <time>2022-03-19T14:19:58Z</time>
      </trkpt>
      <trkpt lat="46.7482" lon="5.62204">
        <ele>278.6</ele>
        <time>2022-03-19T14:20:06Z</time>
      </trkpt>
      <trkpt lat="46.74816" lon="5.62211">
        <ele>278.6</ele>
        <time>2022-03-19T14:20:07Z</time>
      </trkpt>
      <trkpt lat="46.7478" lon="5.62278">
        <ele>278.8</ele>
        <time>2022-03-19T14:20:16Z</time>
      </trkpt>
      <trkpt lat="46.74765" lon="5.6233">
        <ele>279.6</ele>
        <time>2022-03-19T14:20:22Z</time>
      </trkpt>
      <trkpt lat="46.74763" lon="5.62339">
        <ele>279.8</ele>
        <time>2022-03-19T14:20:23Z</time>
      </trkpt>
      <trkpt lat="46.7475" lon="5.62391">
        <ele>280</ele>
        <time>2022-03-19T14:20:29Z</time>
      </trkpt>
      <trkpt lat="46.74735" lon="5.62432">
        <ele>280.4</ele>
        <time>2022-03-19T14:20:34Z</time>
      </trkpt>
      <trkpt lat="46.74727" lon="5.62449">
        <ele>280.4</ele>
        <time>2022-03-19T14:20:36Z</time>
      </trkpt>
      <trkpt lat="46.74714" lon="5.62471">
        <ele>280.6</ele>
        <time>2022-03-19T14:20:39Z</time>
      </trkpt>
      <trkpt lat="46.7471" lon="5.62478">
        <ele>280.8</ele>
        <time>2022-03-19T14:20:40Z</time>
      </trkpt>
      <trkpt lat="46.74702" lon="5.62488">
        <ele>280.8</ele>
        <time>2022-03-19T14:20:42Z</time>
      </trkpt>
      <trkpt lat="46.74663" lon="5.62532">
        <ele>281.6</ele>
        <time>2022-03-19T14:20:50Z</time>
      </trkpt>
      <trkpt lat="46.74658" lon="5.62537">
        <ele>282</ele>
        <time>2022-03-19T14:20:51Z</time>
      </trkpt>
      <trkpt lat="46.74619" lon="5.62568">
        <ele>283</ele>
        <time>2022-03-19T14:20:58Z</time>
      </trkpt>
      <trkpt lat="46.74578" lon="5.62589">
        <ele>283.6</ele>
        <time>2022-03-19T14:21:05Z</time>
      </trkpt>
      <trkpt lat="46.74521" lon="5.62617">
        <ele>283.6</ele>
        <time>2022-03-19T14:21:14Z</time>
      </trkpt>
      <trkpt lat="46.74515" lon="5.6262">
        <ele>283.6</ele>
        <time>2022-03-19T14:21:15Z</time>
      </trkpt>
      <trkpt lat="46.74488" lon="5.62645">
        <ele>283.4</ele>
        <time>2022-03-19T14:21:20Z</time>
      </trkpt>
      <trkpt lat="46.74449" lon="5.62691">
        <ele>283.6</ele>
        <time>2022-03-19T14:21:28Z</time>
      </trkpt>
      <trkpt lat="46.74436" lon="5.62704">
        <ele>284</ele>
        <time>2022-03-19T14:21:31Z</time>
      </trkpt>
      <trkpt lat="46.74432" lon="5.62707">
        <ele>284.4</ele>
        <time>2022-03-19T14:21:32Z</time>
      </trkpt>
      <trkpt lat="46.74426" lon="5.6271">
        <ele>284.6</ele>
        <time>2022-03-19T14:21:33Z</time>
      </trkpt>
      <trkpt lat="46.74404" lon="5.62721">
        <ele>285</ele>
        <time>2022-03-19T14:21:37Z</time>
      </trkpt>
      <trkpt lat="46.74392" lon="5.62725">
        <ele>285.2</ele>
        <time>2022-03-19T14:21:39Z</time>
      </trkpt>
      <trkpt lat="46.74381" lon="5.62729">
        <ele>285.4</ele>
        <time>2022-03-19T14:21:41Z</time>
      </trkpt>
      <trkpt lat="46.74375" lon="5.62732">
        <ele>285.8</ele>
        <time>2022-03-19T14:21:42Z</time>
      </trkpt>
      <trkpt lat="46.74336" lon="5.62755">
        <ele>286</ele>
        <time>2022-03-19T14:21:49Z</time>
      </trkpt>
      <trkpt lat="46.7433" lon="5.62759">
        <ele>286</ele>
        <time>2022-03-19T14:21:50Z</time>
      </trkpt>
      <trkpt lat="46.74315" lon="5.62771">
        <ele>286.2</ele>
        <time>2022-03-19T14:21:53Z</time>
      </trkpt>
      <trkpt lat="46.74311" lon="5.62775">
        <ele>286.4</ele>
        <time>2022-03-19T14:21:54Z</time>
      </trkpt>
      <trkpt lat="46.74308" lon="5.6278">
        <ele>286.6</ele>
        <time>2022-03-19T14:21:55Z</time>
      </trkpt>
      <trkpt lat="46.743" lon="5.62798">
        <ele>287.4</ele>
        <time>2022-03-19T14:21:58Z</time>
      </trkpt>
      <trkpt lat="46.74296" lon="5.62811">
        <ele>287.8</ele>
        <time>2022-03-19T14:22:00Z</time>
      </trkpt>
      <trkpt lat="46.7429" lon="5.62828">
        <ele>289</ele>
        <time>2022-03-19T14:22:03Z</time>
      </trkpt>
      <trkpt lat="46.74288" lon="5.62833">
        <ele>289.4</ele>
        <time>2022-03-19T14:22:04Z</time>
      </trkpt>
      <trkpt lat="46.74283" lon="5.62853">
        <ele>290.2</ele>
        <time>2022-03-19T14:22:07Z</time>
      </trkpt>
      <trkpt lat="46.74275" lon="5.62879">
        <ele>291.4</ele>
        <time>2022-03-19T14:22:11Z</time>
      </trkpt>
      <trkpt lat="46.74271" lon="5.6289">
        <ele>292</ele>
        <time>2022-03-19T14:22:13Z</time>
      </trkpt>
      <trkpt lat="46.74264" lon="5.62905">
        <ele>292.6</ele>
        <time>2022-03-19T14:22:16Z</time>
      </trkpt>
      <trkpt lat="46.74253" lon="5.62927">
        <ele>293.8</ele>
        <time>2022-03-19T14:22:20Z</time>
      </trkpt>
      <trkpt lat="46.74246" lon="5.62939">
        <ele>294.2</ele>
        <time>2022-03-19T14:22:22Z</time>
      </trkpt>
      <trkpt lat="46.74233" lon="5.62958">
        <ele>294.8</ele>
        <time>2022-03-19T14:22:25Z</time>
      </trkpt>
      <trkpt lat="46.74219" lon="5.62974">
        <ele>295.8</ele>
        <time>2022-03-19T14:22:28Z</time>
      </trkpt>
      <trkpt lat="46.74188" lon="5.63007">
        <ele>296.8</ele>
        <time>2022-03-19T14:22:35Z</time>
      </trkpt>
      <trkpt lat="46.74182" lon="5.63012">
        <ele>296.8</ele>
        <time>2022-03-19T14:22:36Z</time>
      </trkpt>
      <trkpt lat="46.74153" lon="5.63038">
        <ele>296.6</ele>
        <time>2022-03-19T14:22:42Z</time>
      </trkpt>
      <trkpt lat="46.74148" lon="5.63043">
        <ele>296.6</ele>
        <time>2022-03-19T14:22:43Z</time>
      </trkpt>
      <trkpt lat="46.74111" lon="5.63077">
        <ele>296.2</ele>
        <time>2022-03-19T14:22:50Z</time>
      </trkpt>
      <trkpt lat="46.74061" lon="5.63111">
        <ele>296</ele>
        <time>2022-03-19T14:22:59Z</time>
      </trkpt>
      <trkpt lat="46.74056" lon="5.63114">
        <ele>296</ele>
        <time>2022-03-19T14:23:00Z</time>
      </trkpt>
      <trkpt lat="46.74032" lon="5.63129">
        <ele>296.8</ele>
        <time>2022-03-19T14:23:05Z</time>
      </trkpt>
      <trkpt lat="46.74027" lon="5.63133">
        <ele>296.8</ele>
        <time>2022-03-19T14:23:06Z</time>
      </trkpt>
      <trkpt lat="46.74021" lon="5.63137">
        <ele>296.8</ele>
        <time>2022-03-19T14:23:07Z</time>
      </trkpt>
      <trkpt lat="46.74005" lon="5.63146">
        <ele>297</ele>
        <time>2022-03-19T14:23:10Z</time>
      </trkpt>
      <trkpt lat="46.73995" lon="5.63152">
        <ele>297</ele>
        <time>2022-03-19T14:23:12Z</time>
      </trkpt>
      <trkpt lat="46.73959" lon="5.63175">
        <ele>297.2</ele>
        <time>2022-03-19T14:23:18Z</time>
      </trkpt>
      <trkpt lat="46.73947" lon="5.63187">
        <ele>297</ele>
        <time>2022-03-19T14:23:20Z</time>
      </trkpt>
      <trkpt lat="46.73938" lon="5.63202">
        <ele>296.6</ele>
        <time>2022-03-19T14:23:22Z</time>
      </trkpt>
      <trkpt lat="46.73934" lon="5.6321">
        <ele>296.2</ele>
        <time>2022-03-19T14:23:23Z</time>
      </trkpt>
      <trkpt lat="46.73927" lon="5.63228">
        <ele>295.6</ele>
        <time>2022-03-19T14:23:25Z</time>
      </trkpt>
      <trkpt lat="46.73923" lon="5.63237">
        <ele>295.4</ele>
        <time>2022-03-19T14:23:26Z</time>
      </trkpt>
      <trkpt lat="46.739" lon="5.63275">
        <ele>294.8</ele>
        <time>2022-03-19T14:23:31Z</time>
      </trkpt>
      <trkpt lat="46.73861" lon="5.6333">
        <ele>294.6</ele>
        <time>2022-03-19T14:23:39Z</time>
      </trkpt>
      <trkpt lat="46.73846" lon="5.63351">
        <ele>294.6</ele>
        <time>2022-03-19T14:23:42Z</time>
      </trkpt>
      <trkpt lat="46.73802" lon="5.63399">
        <ele>294.4</ele>
        <time>2022-03-19T14:23:50Z</time>
      </trkpt>
      <trkpt lat="46.73755" lon="5.63448">
        <ele>293.6</ele>
        <time>2022-03-19T14:23:58Z</time>
      </trkpt>
      <trkpt lat="46.7375" lon="5.63453">
        <ele>293.4</ele>
        <time>2022-03-19T14:23:59Z</time>
      </trkpt>
      <trkpt lat="46.73721" lon="5.63476">
        <ele>293</ele>
        <time>2022-03-19T14:24:04Z</time>
      </trkpt>
      <trkpt lat="46.73706" lon="5.63484">
        <ele>292.8</ele>
        <time>2022-03-19T14:24:07Z</time>
      </trkpt>
      <trkpt lat="46.73702" lon="5.63488">
        <ele>292.8</ele>
        <time>2022-03-19T14:24:08Z</time>
      </trkpt>
      <trkpt lat="46.73698" lon="5.63493">
        <ele>292.8</ele>
        <time>2022-03-19T14:24:09Z</time>
      </trkpt>
      <trkpt lat="46.73693" lon="5.63506">
        <ele>292.8</ele>
        <time>2022-03-19T14:24:11Z</time>
      </trkpt>
      <trkpt lat="46.73691" lon="5.63514">
        <ele>293</ele>
        <time>2022-03-19T14:24:12Z</time>
      </trkpt>
      <trkpt lat="46.7369" lon="5.63522">
        <ele>293</ele>
        <time>2022-03-19T14:24:13Z</time>
      </trkpt>
      <trkpt lat="46.73689" lon="5.6354">
        <ele>293</ele>
        <time>2022-03-19T14:24:15Z</time>
      </trkpt>
      <trkpt lat="46.7369" lon="5.63557">
        <ele>293</ele>
        <time>2022-03-19T14:24:17Z</time>
      </trkpt>
      <trkpt lat="46.73695" lon="5.63629">
        <ele>293.2</ele>
        <time>2022-03-19T14:24:25Z</time>
      </trkpt>
      <trkpt lat="46.73698" lon="5.63697">
        <ele>293.8</ele>
        <time>2022-03-19T14:24:33Z</time>
      </trkpt>
      <trkpt lat="46.73697" lon="5.63776">
        <ele>294.6</ele>
        <time>2022-03-19T14:24:42Z</time>
      </trkpt>
      <trkpt lat="46.73696" lon="5.63784">
        <ele>294.6</ele>
        <time>2022-03-19T14:24:43Z</time>
      </trkpt>
      <trkpt lat="46.73688" lon="5.63845">
        <ele>294.8</ele>
        <time>2022-03-19T14:24:50Z</time>
      </trkpt>
      <trkpt lat="46.73683" lon="5.63906">
        <ele>295.4</ele>
        <time>2022-03-19T14:24:57Z</time>
      </trkpt>
      <trkpt lat="46.73678" lon="5.63978">
        <ele>295.6</ele>
        <time>2022-03-19T14:25:05Z</time>
      </trkpt>
      <trkpt lat="46.73677" lon="5.63984">
        <ele>295.6</ele>
        <time>2022-03-19T14:25:06Z</time>
      </trkpt>
      <trkpt lat="46.73671" lon="5.64023">
        <ele>296.8</ele>
        <time>2022-03-19T14:25:11Z</time>
      </trkpt>
      <trkpt lat="46.73666" lon="5.64042">
        <ele>297.2</ele>
        <time>2022-03-19T14:25:14Z</time>
      </trkpt>
      <trkpt lat="46.73662" lon="5.64055">
        <ele>298.2</ele>
        <time>2022-03-19T14:25:16Z</time>
      </trkpt>
      <trkpt lat="46.73646" lon="5.64099">
        <ele>299.2</ele>
        <time>2022-03-19T14:25:22Z</time>
      </trkpt>
      <trkpt lat="46.73643" lon="5.64106">
        <ele>299.4</ele>
        <time>2022-03-19T14:25:23Z</time>
      </trkpt>
      <trkpt lat="46.73628" lon="5.64134">
        <ele>299.8</ele>
        <time>2022-03-19T14:25:28Z</time>
      </trkpt>
      <trkpt lat="46.73623" lon="5.64147">
        <ele>300.2</ele>
        <time>2022-03-19T14:25:30Z</time>
      </trkpt>
      <trkpt lat="46.73619" lon="5.6416">
        <ele>301.2</ele>
        <time>2022-03-19T14:25:32Z</time>
      </trkpt>
      <trkpt lat="46.73613" lon="5.6418">
        <ele>301.8</ele>
        <time>2022-03-19T14:25:35Z</time>
      </trkpt>
      <trkpt lat="46.73607" lon="5.64195">
        <ele>302.2</ele>
        <time>2022-03-19T14:25:37Z</time>
      </trkpt>
      <trkpt lat="46.73597" lon="5.64209">
        <ele>302.2</ele>
        <time>2022-03-19T14:25:39Z</time>
      </trkpt>
      <trkpt lat="46.7357" lon="5.64223">
        <ele>301.4</ele>
        <time>2022-03-19T14:25:43Z</time>
      </trkpt>
      <trkpt lat="46.73557" lon="5.6423">
        <ele>300.8</ele>
        <time>2022-03-19T14:25:45Z</time>
      </trkpt>
      <trkpt lat="46.7354" lon="5.64243">
        <ele>300.2</ele>
        <time>2022-03-19T14:25:48Z</time>
      </trkpt>
      <trkpt lat="46.73519" lon="5.64268">
        <ele>299.8</ele>
        <time>2022-03-19T14:25:53Z</time>
      </trkpt>
      <trkpt lat="46.73505" lon="5.6429">
        <ele>300.2</ele>
        <time>2022-03-19T14:25:57Z</time>
      </trkpt>
      <trkpt lat="46.735" lon="5.64301">
        <ele>300.6</ele>
        <time>2022-03-19T14:25:59Z</time>
      </trkpt>
      <trkpt lat="46.73495" lon="5.64319">
        <ele>301.4</ele>
        <time>2022-03-19T14:26:02Z</time>
      </trkpt>
      <trkpt lat="46.73493" lon="5.64326">
        <ele>301.4</ele>
        <time>2022-03-19T14:26:03Z</time>
      </trkpt>
      <trkpt lat="46.73492" lon="5.64339">
        <ele>302</ele>
        <time>2022-03-19T14:26:05Z</time>
      </trkpt>
      <trkpt lat="46.73492" lon="5.64345">
        <ele>302.4</ele>
        <time>2022-03-19T14:26:06Z</time>
      </trkpt>
      <trkpt lat="46.73496" lon="5.64363">
        <ele>303.6</ele>
        <time>2022-03-19T14:26:09Z</time>
      </trkpt>
      <trkpt lat="46.73498" lon="5.64371">
        <ele>303.8</ele>
        <time>2022-03-19T14:26:10Z</time>
      </trkpt>
      <trkpt lat="46.73506" lon="5.64396">
        <ele>304.6</ele>
        <time>2022-03-19T14:26:14Z</time>
      </trkpt>
      <trkpt lat="46.7351" lon="5.64408">
        <ele>305</ele>
        <time>2022-03-19T14:26:16Z</time>
      </trkpt>
      <trkpt lat="46.73516" lon="5.64427">
        <ele>305.6</ele>
        <time>2022-03-19T14:26:19Z</time>
      </trkpt>
      <trkpt lat="46.73518" lon="5.64433">
        <ele>305.6</ele>
        <time>2022-03-19T14:26:20Z</time>
      </trkpt>
      <trkpt lat="46.73522" lon="5.64446">
        <ele>305.8</ele>
        <time>2022-03-19T14:26:22Z</time>
      </trkpt>
      <trkpt lat="46.73527" lon="5.64463">
        <ele>306.6</ele>
        <time>2022-03-19T14:26:25Z</time>
      </trkpt>
      <trkpt lat="46.73533" lon="5.64487">
        <ele>307.8</ele>
        <time>2022-03-19T14:26:29Z</time>
      </trkpt>
      <trkpt lat="46.73536" lon="5.64498">
        <ele>308.2</ele>
        <time>2022-03-19T14:26:31Z</time>
      </trkpt>
      <trkpt lat="46.7354" lon="5.64507">
        <ele>309</ele>
        <time>2022-03-19T14:26:33Z</time>
      </trkpt>
      <trkpt lat="46.73542" lon="5.64511">
        <ele>309.4</ele>
        <time>2022-03-19T14:26:34Z</time>
      </trkpt>
      <trkpt lat="46.73549" lon="5.64527">
        <ele>310.2</ele>
        <time>2022-03-19T14:26:37Z</time>
      </trkpt>
      <trkpt lat="46.73555" lon="5.64544">
        <ele>311.2</ele>
        <time>2022-03-19T14:26:40Z</time>
      </trkpt>
      <trkpt lat="46.73562" lon="5.64562">
        <ele>311.6</ele>
        <time>2022-03-19T14:26:43Z</time>
      </trkpt>
      <trkpt lat="46.73579" lon="5.646">
        <ele>311.4</ele>
        <time>2022-03-19T14:26:48Z</time>
      </trkpt>
      <trkpt lat="46.73607" lon="5.64652">
        <ele>310.6</ele>
        <time>2022-03-19T14:26:55Z</time>
      </trkpt>
      <trkpt lat="46.73633" lon="5.64695">
        <ele>311.2</ele>
        <time>2022-03-19T14:27:02Z</time>
      </trkpt>
      <trkpt lat="46.73637" lon="5.647">
        <ele>311.2</ele>
        <time>2022-03-19T14:27:03Z</time>
      </trkpt>
      <trkpt lat="46.73662" lon="5.64728">
        <ele>312</ele>
        <time>2022-03-19T14:27:08Z</time>
      </trkpt>
      <trkpt lat="46.737" lon="5.64767">
        <ele>312.2</ele>
        <time>2022-03-19T14:27:15Z</time>
      </trkpt>
      <trkpt lat="46.73731" lon="5.64808">
        <ele>312.6</ele>
        <time>2022-03-19T14:27:22Z</time>
      </trkpt>
      <trkpt lat="46.7374" lon="5.64827">
        <ele>313.4</ele>
        <time>2022-03-19T14:27:25Z</time>
      </trkpt>
      <trkpt lat="46.73741" lon="5.64833">
        <ele>313.6</ele>
        <time>2022-03-19T14:27:26Z</time>
      </trkpt>
      <trkpt lat="46.73743" lon="5.6484">
        <ele>314.2</ele>
        <time>2022-03-19T14:27:27Z</time>
      </trkpt>
      <trkpt lat="46.73746" lon="5.64852">
        <ele>314.4</ele>
        <time>2022-03-19T14:27:29Z</time>
      </trkpt>
      <trkpt lat="46.73747" lon="5.64858">
        <ele>314.6</ele>
        <time>2022-03-19T14:27:30Z</time>
      </trkpt>
      <trkpt lat="46.73748" lon="5.6487">
        <ele>315.6</ele>
        <time>2022-03-19T14:27:32Z</time>
      </trkpt>
      <trkpt lat="46.73753" lon="5.64896">
        <ele>316.8</ele>
        <time>2022-03-19T14:27:36Z</time>
      </trkpt>
      <trkpt lat="46.73761" lon="5.64918">
        <ele>317.8</ele>
        <time>2022-03-19T14:27:40Z</time>
      </trkpt>
      <trkpt lat="46.73767" lon="5.64936">
        <ele>319</ele>
        <time>2022-03-19T14:27:43Z</time>
      </trkpt>
      <trkpt lat="46.73775" lon="5.64952">
        <ele>319.4</ele>
        <time>2022-03-19T14:27:46Z</time>
      </trkpt>
      <trkpt lat="46.73778" lon="5.64958">
        <ele>319.6</ele>
        <time>2022-03-19T14:27:47Z</time>
      </trkpt>
      <trkpt lat="46.7378" lon="5.64963">
        <ele>320</ele>
        <time>2022-03-19T14:27:48Z</time>
      </trkpt>
      <trkpt lat="46.73795" lon="5.64988">
        <ele>320.2</ele>
        <time>2022-03-19T14:27:52Z</time>
      </trkpt>
      <trkpt lat="46.73803" lon="5.65002">
        <ele>320.2</ele>
        <time>2022-03-19T14:27:54Z</time>
      </trkpt>
      <trkpt lat="46.73817" lon="5.65027">
        <ele>319.8</ele>
        <time>2022-03-19T14:27:57Z</time>
      </trkpt>
      <trkpt lat="46.73842" lon="5.65079">
        <ele>319.6</ele>
        <time>2022-03-19T14:28:04Z</time>
      </trkpt>
      <trkpt lat="46.73864" lon="5.65119">
        <ele>321.2</ele>
        <time>2022-03-19T14:28:11Z</time>
      </trkpt>
      <trkpt lat="46.73886" lon="5.65147">
        <ele>322.4</ele>
        <time>2022-03-19T14:28:17Z</time>
      </trkpt>
      <trkpt lat="46.73889" lon="5.6515">
        <ele>322.8</ele>
        <time>2022-03-19T14:28:18Z</time>
      </trkpt>
      <trkpt lat="46.73899" lon="5.65162">
        <ele>323.4</ele>
        <time>2022-03-19T14:28:21Z</time>
      </trkpt>
      <trkpt lat="46.73914" lon="5.65175">
        <ele>324.4</ele>
        <time>2022-03-19T14:28:25Z</time>
      </trkpt>
      <trkpt lat="46.73918" lon="5.65177">
        <ele>324.8</ele>
        <time>2022-03-19T14:28:26Z</time>
      </trkpt>
      <trkpt lat="46.73923" lon="5.65178">
        <ele>325</ele>
        <time>2022-03-19T14:28:27Z</time>
      </trkpt>
      <trkpt lat="46.73942" lon="5.65179">
        <ele>325.8</ele>
        <time>2022-03-19T14:28:31Z</time>
      </trkpt>
      <trkpt lat="46.73957" lon="5.65179">
        <ele>326.2</ele>
        <time>2022-03-19T14:28:34Z</time>
      </trkpt>
      <trkpt lat="46.73971" lon="5.65178">
        <ele>326.8</ele>
        <time>2022-03-19T14:28:37Z</time>
      </trkpt>
      <trkpt lat="46.73995" lon="5.65174">
        <ele>327.4</ele>
        <time>2022-03-19T14:28:42Z</time>
      </trkpt>
      <trkpt lat="46.74" lon="5.65174">
        <ele>327.6</ele>
        <time>2022-03-19T14:28:43Z</time>
      </trkpt>
      <trkpt lat="46.7401" lon="5.65173">
        <ele>327.8</ele>
        <time>2022-03-19T14:28:45Z</time>
      </trkpt>
      <trkpt lat="46.74024" lon="5.65174">
        <ele>328.2</ele>
        <time>2022-03-19T14:28:48Z</time>
      </trkpt>
      <trkpt lat="46.74029" lon="5.65176">
        <ele>328.2</ele>
        <time>2022-03-19T14:28:49Z</time>
      </trkpt>
      <trkpt lat="46.74038" lon="5.65181">
        <ele>328.8</ele>
        <time>2022-03-19T14:28:51Z</time>
      </trkpt>
      <trkpt lat="46.74042" lon="5.65185">
        <ele>329</ele>
        <time>2022-03-19T14:28:52Z</time>
      </trkpt>
      <trkpt lat="46.74046" lon="5.65188">
        <ele>329.2</ele>
        <time>2022-03-19T14:28:53Z</time>
      </trkpt>
      <trkpt lat="46.7405" lon="5.65192">
        <ele>329.4</ele>
        <time>2022-03-19T14:28:54Z</time>
      </trkpt>
      <trkpt lat="46.74061" lon="5.65203">
        <ele>330.2</ele>
        <time>2022-03-19T14:28:57Z</time>
      </trkpt>
      <trkpt lat="46.74085" lon="5.65228">
        <ele>331.2</ele>
        <time>2022-03-19T14:29:03Z</time>
      </trkpt>
      <trkpt lat="46.74088" lon="5.65231">
        <ele>331.6</ele>
        <time>2022-03-19T14:29:04Z</time>
      </trkpt>
      <trkpt lat="46.74101" lon="5.65244">
        <ele>332.2</ele>
        <time>2022-03-19T14:29:07Z</time>
      </trkpt>
      <trkpt lat="46.74109" lon="5.65253">
        <ele>332.4</ele>
        <time>2022-03-19T14:29:09Z</time>
      </trkpt>
      <trkpt lat="46.74117" lon="5.65261">
        <ele>333.2</ele>
        <time>2022-03-19T14:29:11Z</time>
      </trkpt>
      <trkpt lat="46.74126" lon="5.65271">
        <ele>333.8</ele>
        <time>2022-03-19T14:29:13Z</time>
      </trkpt>
      <trkpt lat="46.74135" lon="5.6528">
        <ele>334.4</ele>
        <time>2022-03-19T14:29:15Z</time>
      </trkpt>
      <trkpt lat="46.74139" lon="5.65285">
        <ele>334.6</ele>
        <time>2022-03-19T14:29:16Z</time>
      </trkpt>
      <trkpt lat="46.74144" lon="5.6529">
        <ele>334.6</ele>
        <time>2022-03-19T14:29:17Z</time>
      </trkpt>
      <trkpt lat="46.74165" lon="5.65314">
        <ele>335.6</ele>
        <time>2022-03-19T14:29:22Z</time>
      </trkpt>
      <trkpt lat="46.74186" lon="5.65338">
        <ele>336.6</ele>
        <time>2022-03-19T14:29:27Z</time>
      </trkpt>
      <trkpt lat="46.7419" lon="5.65343">
        <ele>336.6</ele>
        <time>2022-03-19T14:29:28Z</time>
      </trkpt>
      <trkpt lat="46.74231" lon="5.6539">
        <ele>337.6</ele>
        <time>2022-03-19T14:29:38Z</time>
      </trkpt>
      <trkpt lat="46.74241" lon="5.65401">
        <ele>337.6</ele>
        <time>2022-03-19T14:29:40Z</time>
      </trkpt>
      <trkpt lat="46.74267" lon="5.65432">
        <ele>338.6</ele>
        <time>2022-03-19T14:29:46Z</time>
      </trkpt>
      <trkpt lat="46.74272" lon="5.65437">
        <ele>338.8</ele>
        <time>2022-03-19T14:29:47Z</time>
      </trkpt>
      <trkpt lat="46.74318" lon="5.6549">
        <ele>339.8</ele>
        <time>2022-03-19T14:29:57Z</time>
      </trkpt>
      <trkpt lat="46.74323" lon="5.65495">
        <ele>339.8</ele>
        <time>2022-03-19T14:29:58Z</time>
      </trkpt>
      <trkpt lat="46.74338" lon="5.65511">
        <ele>340</ele>
        <time>2022-03-19T14:30:01Z</time>
      </trkpt>
      <trkpt lat="46.7438" lon="5.65552">
        <ele>340.4</ele>
        <time>2022-03-19T14:30:09Z</time>
      </trkpt>
      <trkpt lat="46.74429" lon="5.65596">
        <ele>339.8</ele>
        <time>2022-03-19T14:30:17Z</time>
      </trkpt>
      <trkpt lat="46.74449" lon="5.65615">
        <ele>338.8</ele>
        <time>2022-03-19T14:30:20Z</time>
      </trkpt>
      <trkpt lat="46.74463" lon="5.6563">
        <ele>338</ele>
        <time>2022-03-19T14:30:22Z</time>
      </trkpt>
      <trkpt lat="46.74477" lon="5.65646">
        <ele>337.6</ele>
        <time>2022-03-19T14:30:24Z</time>
      </trkpt>
      <trkpt lat="46.74518" lon="5.65694">
        <ele>336.6</ele>
        <time>2022-03-19T14:30:30Z</time>
      </trkpt>
      <trkpt lat="46.74561" lon="5.65748">
        <ele>336</ele>
        <time>2022-03-19T14:30:37Z</time>
      </trkpt>
      <trkpt lat="46.74581" lon="5.65789">
        <ele>336.4</ele>
        <time>2022-03-19T14:30:42Z</time>
      </trkpt>
      <trkpt lat="46.74596" lon="5.65826">
        <ele>337.8</ele>
        <time>2022-03-19T14:30:47Z</time>
      </trkpt>
      <trkpt lat="46.74599" lon="5.65832">
        <ele>338</ele>
        <time>2022-03-19T14:30:48Z</time>
      </trkpt>
      <trkpt lat="46.74608" lon="5.65853">
        <ele>339</ele>
        <time>2022-03-19T14:30:51Z</time>
      </trkpt>
      <trkpt lat="46.74614" lon="5.65868">
        <ele>340</ele>
        <time>2022-03-19T14:30:53Z</time>
      </trkpt>
      <trkpt lat="46.74618" lon="5.65875">
        <ele>340.6</ele>
        <time>2022-03-19T14:30:54Z</time>
      </trkpt>
      <trkpt lat="46.74626" lon="5.65891">
        <ele>341.2</ele>
        <time>2022-03-19T14:30:56Z</time>
      </trkpt>
      <trkpt lat="46.74648" lon="5.65931">
        <ele>341.4</ele>
        <time>2022-03-19T14:31:01Z</time>
      </trkpt>
      <trkpt lat="46.74677" lon="5.65983">
        <ele>340.4</ele>
        <time>2022-03-19T14:31:07Z</time>
      </trkpt>
      <trkpt lat="46.74685" lon="5.65999">
        <ele>340.2</ele>
        <time>2022-03-19T14:31:09Z</time>
      </trkpt>
      <trkpt lat="46.74697" lon="5.66023">
        <ele>340</ele>
        <time>2022-03-19T14:31:12Z</time>
      </trkpt>
      <trkpt lat="46.74728" lon="5.66092">
        <ele>340</ele>
        <time>2022-03-19T14:31:20Z</time>
      </trkpt>
      <trkpt lat="46.74745" lon="5.66132">
        <ele>339.6</ele>
        <time>2022-03-19T14:31:24Z</time>
      </trkpt>
      <trkpt lat="46.74751" lon="5.66157">
        <ele>339.2</ele>
        <time>2022-03-19T14:31:26Z</time>
      </trkpt>
      <trkpt lat="46.74756" lon="5.66192">
        <ele>338.6</ele>
        <time>2022-03-19T14:31:29Z</time>
      </trkpt>
      <trkpt lat="46.74759" lon="5.66216">
        <ele>338</ele>
        <time>2022-03-19T14:31:31Z</time>
      </trkpt>
      <trkpt lat="46.74765" lon="5.66286">
        <ele>337.6</ele>
        <time>2022-03-19T14:31:37Z</time>
      </trkpt>
      <trkpt lat="46.74771" lon="5.66375">
        <ele>337.6</ele>
        <time>2022-03-19T14:31:45Z</time>
      </trkpt>
      <trkpt lat="46.74768" lon="5.66455">
        <ele>337</ele>
        <time>2022-03-19T14:31:52Z</time>
      </trkpt>
      <trkpt lat="46.74768" lon="5.6647">
        <ele>336.6</ele>
        <time>2022-03-19T14:31:53Z</time>
      </trkpt>
      <trkpt lat="46.7477" lon="5.66509">
        <ele>335.8</ele>
        <time>2022-03-19T14:31:56Z</time>
      </trkpt>
      <trkpt lat="46.7477" lon="5.66523">
        <ele>335.8</ele>
        <time>2022-03-19T14:31:57Z</time>
      </trkpt>
      <trkpt lat="46.74769" lon="5.66534">
        <ele>335.6</ele>
        <time>2022-03-19T14:31:58Z</time>
      </trkpt>
      <trkpt lat="46.74766" lon="5.66551">
        <ele>335.4</ele>
        <time>2022-03-19T14:31:59Z</time>
      </trkpt>
      <trkpt lat="46.74751" lon="5.66604">
        <ele>333.4</ele>
        <time>2022-03-19T14:32:03Z</time>
      </trkpt>
      <trkpt lat="46.74749" lon="5.66614">
        <ele>332.8</ele>
        <time>2022-03-19T14:32:04Z</time>
      </trkpt>
      <trkpt lat="46.74746" lon="5.66642">
        <ele>332.2</ele>
        <time>2022-03-19T14:32:06Z</time>
      </trkpt>
      <trkpt lat="46.74747" lon="5.66651">
        <ele>332</ele>
        <time>2022-03-19T14:32:07Z</time>
      </trkpt>
      <trkpt lat="46.74748" lon="5.66663">
        <ele>331.8</ele>
        <time>2022-03-19T14:32:08Z</time>
      </trkpt>
      <trkpt lat="46.74754" lon="5.66697">
        <ele>331.8</ele>
        <time>2022-03-19T14:32:11Z</time>
      </trkpt>
      <trkpt lat="46.74764" lon="5.6675">
        <ele>332.4</ele>
        <time>2022-03-19T14:32:17Z</time>
      </trkpt>
      <trkpt lat="46.74772" lon="5.6679">
        <ele>333.4</ele>
        <time>2022-03-19T14:32:22Z</time>
      </trkpt>
      <trkpt lat="46.74775" lon="5.66808">
        <ele>333.6</ele>
        <time>2022-03-19T14:32:24Z</time>
      </trkpt>
      <trkpt lat="46.74779" lon="5.6683">
        <ele>334</ele>
        <time>2022-03-19T14:32:27Z</time>
      </trkpt>
      <trkpt lat="46.74785" lon="5.66845">
        <ele>334</ele>
        <time>2022-03-19T14:32:29Z</time>
      </trkpt>
      <trkpt lat="46.7479" lon="5.66857">
        <ele>334.6</ele>
        <time>2022-03-19T14:32:31Z</time>
      </trkpt>
      <trkpt lat="46.74801" lon="5.66881">
        <ele>335.4</ele>
        <time>2022-03-19T14:32:35Z</time>
      </trkpt>
      <trkpt lat="46.74806" lon="5.66891">
        <ele>335.8</ele>
        <time>2022-03-19T14:32:37Z</time>
      </trkpt>
      <trkpt lat="46.74818" lon="5.66907">
        <ele>336.4</ele>
        <time>2022-03-19T14:32:41Z</time>
      </trkpt>
      <trkpt lat="46.74825" lon="5.66916">
        <ele>337</ele>
        <time>2022-03-19T14:32:43Z</time>
      </trkpt>
      <trkpt lat="46.7483" lon="5.66927">
        <ele>338.2</ele>
        <time>2022-03-19T14:32:45Z</time>
      </trkpt>
      <trkpt lat="46.74842" lon="5.66949">
        <ele>338.8</ele>
        <time>2022-03-19T14:32:49Z</time>
      </trkpt>
      <trkpt lat="46.74846" lon="5.66957">
        <ele>338.8</ele>
        <time>2022-03-19T14:32:50Z</time>
      </trkpt>
      <trkpt lat="46.74857" lon="5.66982">
        <ele>339</ele>
        <time>2022-03-19T14:32:54Z</time>
      </trkpt>
      <trkpt lat="46.74859" lon="5.66989">
        <ele>339</ele>
        <time>2022-03-19T14:32:55Z</time>
      </trkpt>
      <trkpt lat="46.74859" lon="5.66995">
        <ele>338.8</ele>
        <time>2022-03-19T14:32:56Z</time>
      </trkpt>
      <trkpt lat="46.74858" lon="5.67007">
        <ele>338.8</ele>
        <time>2022-03-19T14:32:59Z</time>
      </trkpt>
      <trkpt lat="46.74855" lon="5.67018">
        <ele>339</ele>
        <time>2022-03-19T14:33:04Z</time>
      </trkpt>
      <trkpt lat="46.74852" lon="5.67035">
        <ele>339</ele>
        <time>2022-03-19T14:33:11Z</time>
      </trkpt>
      <trkpt lat="46.74852" lon="5.67039">
        <ele>339</ele>
        <time>2022-03-19T14:33:13Z</time>
      </trkpt>
      <trkpt lat="46.74853" lon="5.67038">
        <ele>339</ele>
        <time>2022-03-19T14:33:15Z</time>
      </trkpt>
      <trkpt lat="46.74853" lon="5.67035">
        <ele>339.2</ele>
        <time>2022-03-19T14:33:17Z</time>
      </trkpt>
      <trkpt lat="46.74856" lon="5.67024">
        <ele>339.2</ele>
        <time>2022-03-19T14:33:23Z</time>
      </trkpt>
      <trkpt lat="46.74858" lon="5.67016">
        <ele>339.2</ele>
        <time>2022-03-19T14:33:27Z</time>
      </trkpt>
      <trkpt lat="46.74862" lon="5.67012">
        <ele>339.2</ele>
        <time>2022-03-19T14:33:29Z</time>
      </trkpt>
      <trkpt lat="46.74866" lon="5.67018">
        <ele>338.8</ele>
        <time>2022-03-19T14:33:31Z</time>
      </trkpt>
      <trkpt lat="46.74868" lon="5.67023">
        <ele>338.8</ele>
        <time>2022-03-19T14:33:32Z</time>
      </trkpt>
      <trkpt lat="46.74873" lon="5.67043">
        <ele>338.6</ele>
        <time>2022-03-19T14:33:35Z</time>
      </trkpt>
      <trkpt lat="46.74876" lon="5.67049">
        <ele>338.6</ele>
        <time>2022-03-19T14:33:36Z</time>
      </trkpt>
      <trkpt lat="46.74889" lon="5.67082">
        <ele>338.4</ele>
        <time>2022-03-19T14:33:42Z</time>
      </trkpt>
      <trkpt lat="46.74902" lon="5.67095">
        <ele>338.8</ele>
        <time>2022-03-19T14:33:47Z</time>
      </trkpt>
      <trkpt lat="46.74917" lon="5.67109">
        <ele>340.2</ele>
        <time>2022-03-19T14:33:53Z</time>
      </trkpt>
      <trkpt lat="46.74917" lon="5.67113">
        <ele>340.4</ele>
        <time>2022-03-19T14:33:54Z</time>
      </trkpt>
      <trkpt lat="46.74912" lon="5.67121">
        <ele>340.8</ele>
        <time>2022-03-19T14:33:56Z</time>
      </trkpt>
      <trkpt lat="46.74898" lon="5.67138">
        <ele>341</ele>
        <time>2022-03-19T14:34:00Z</time>
      </trkpt>
      <trkpt lat="46.74896" lon="5.67144">
        <ele>341</ele>
        <time>2022-03-19T14:34:01Z</time>
      </trkpt>
      <trkpt lat="46.74895" lon="5.6715">
        <ele>341</ele>
        <time>2022-03-19T14:34:02Z</time>
      </trkpt>
      <trkpt lat="46.74896" lon="5.67163">
        <ele>341</ele>
        <time>2022-03-19T14:34:04Z</time>
      </trkpt>
      <trkpt lat="46.74912" lon="5.672">
        <ele>340.8</ele>
        <time>2022-03-19T14:34:10Z</time>
      </trkpt>
      <trkpt lat="46.74926" lon="5.67217">
        <ele>341</ele>
        <time>2022-03-19T14:34:14Z</time>
      </trkpt>
      <trkpt lat="46.74929" lon="5.67222">
        <ele>341</ele>
        <time>2022-03-19T14:34:15Z</time>
      </trkpt>
      <trkpt lat="46.74932" lon="5.67228">
        <ele>341</ele>
        <time>2022-03-19T14:34:16Z</time>
      </trkpt>
      <trkpt lat="46.74935" lon="5.6725">
        <ele>341.2</ele>
        <time>2022-03-19T14:34:19Z</time>
      </trkpt>
      <trkpt lat="46.74936" lon="5.67271">
        <ele>341.4</ele>
        <time>2022-03-19T14:34:22Z</time>
      </trkpt>
      <trkpt lat="46.74935" lon="5.67319">
        <ele>342.2</ele>
        <time>2022-03-19T14:34:29Z</time>
      </trkpt>
      <trkpt lat="46.74935" lon="5.67338">
        <ele>342.6</ele>
        <time>2022-03-19T14:34:32Z</time>
      </trkpt>
      <trkpt lat="46.74934" lon="5.67372">
        <ele>343.8</ele>
        <time>2022-03-19T14:34:38Z</time>
      </trkpt>
      <trkpt lat="46.74933" lon="5.67387">
        <ele>345</ele>
        <time>2022-03-19T14:34:41Z</time>
      </trkpt>
      <trkpt lat="46.74932" lon="5.67412">
        <ele>346.2</ele>
        <time>2022-03-19T14:34:46Z</time>
      </trkpt>
      <trkpt lat="46.74933" lon="5.67432">
        <ele>347.2</ele>
        <time>2022-03-19T14:34:50Z</time>
      </trkpt>
      <trkpt lat="46.74935" lon="5.6744">
        <ele>347.8</ele>
        <time>2022-03-19T14:34:52Z</time>
      </trkpt>
      <trkpt lat="46.74942" lon="5.67446">
        <ele>348.4</ele>
        <time>2022-03-19T14:34:55Z</time>
      </trkpt>
      <trkpt lat="46.74949" lon="5.6744">
        <ele>348.8</ele>
        <time>2022-03-19T14:34:58Z</time>
      </trkpt>
      <trkpt lat="46.74953" lon="5.67432">
        <ele>349.4</ele>
        <time>2022-03-19T14:35:00Z</time>
      </trkpt>
      <trkpt lat="46.74961" lon="5.67411">
        <ele>350.6</ele>
        <time>2022-03-19T14:35:05Z</time>
      </trkpt>
      <trkpt lat="46.74976" lon="5.67392">
        <ele>351.8</ele>
        <time>2022-03-19T14:35:11Z</time>
      </trkpt>
      <trkpt lat="46.74979" lon="5.67389">
        <ele>352.2</ele>
        <time>2022-03-19T14:35:12Z</time>
      </trkpt>
      <trkpt lat="46.7499" lon="5.6738">
        <ele>353</ele>
        <time>2022-03-19T14:35:16Z</time>
      </trkpt>
      <trkpt lat="46.75004" lon="5.67369">
        <ele>354.2</ele>
        <time>2022-03-19T14:35:21Z</time>
      </trkpt>
      <trkpt lat="46.75019" lon="5.67362">
        <ele>355.4</ele>
        <time>2022-03-19T14:35:26Z</time>
      </trkpt>
      <trkpt lat="46.75025" lon="5.6736">
        <ele>356</ele>
        <time>2022-03-19T14:35:28Z</time>
      </trkpt>
      <trkpt lat="46.7503" lon="5.6736">
        <ele>356.8</ele>
        <time>2022-03-19T14:35:30Z</time>
      </trkpt>
      <trkpt lat="46.75043" lon="5.67362">
        <ele>357.8</ele>
        <time>2022-03-19T14:35:34Z</time>
      </trkpt>
      <trkpt lat="46.75059" lon="5.67365">
        <ele>358.8</ele>
        <time>2022-03-19T14:35:39Z</time>
      </trkpt>
      <trkpt lat="46.75069" lon="5.67368">
        <ele>359.2</ele>
        <time>2022-03-19T14:35:42Z</time>
      </trkpt>
      <trkpt lat="46.75075" lon="5.67372">
        <ele>359.8</ele>
        <time>2022-03-19T14:35:44Z</time>
      </trkpt>
      <trkpt lat="46.75087" lon="5.67382">
        <ele>360.8</ele>
        <time>2022-03-19T14:35:48Z</time>
      </trkpt>
      <trkpt lat="46.7509" lon="5.67384">
        <ele>361</ele>
        <time>2022-03-19T14:35:49Z</time>
      </trkpt>
      <trkpt lat="46.75107" lon="5.67389">
        <ele>362</ele>
        <time>2022-03-19T14:35:54Z</time>
      </trkpt>
      <trkpt lat="46.75119" lon="5.67392">
        <ele>363.2</ele>
        <time>2022-03-19T14:35:58Z</time>
      </trkpt>
      <trkpt lat="46.75138" lon="5.674">
        <ele>364.6</ele>
        <time>2022-03-19T14:36:04Z</time>
      </trkpt>
      <trkpt lat="46.7515" lon="5.67407">
        <ele>365.4</ele>
        <time>2022-03-19T14:36:08Z</time>
      </trkpt>
      <trkpt lat="46.75153" lon="5.67409">
        <ele>365.8</ele>
        <time>2022-03-19T14:36:09Z</time>
      </trkpt>
      <trkpt lat="46.7517" lon="5.67415">
        <ele>367</ele>
        <time>2022-03-19T14:36:14Z</time>
      </trkpt>
      <trkpt lat="46.75177" lon="5.67417">
        <ele>367.4</ele>
        <time>2022-03-19T14:36:16Z</time>
      </trkpt>
      <trkpt lat="46.75191" lon="5.67419">
        <ele>368</ele>
        <time>2022-03-19T14:36:20Z</time>
      </trkpt>
      <trkpt lat="46.75207" lon="5.67418">
        <ele>369</ele>
        <time>2022-03-19T14:36:25Z</time>
      </trkpt>
      <trkpt lat="46.7522" lon="5.67417">
        <ele>370.2</ele>
        <time>2022-03-19T14:36:29Z</time>
      </trkpt>
      <trkpt lat="46.75237" lon="5.67415">
        <ele>371.4</ele>
        <time>2022-03-19T14:36:34Z</time>
      </trkpt>
      <trkpt lat="46.75241" lon="5.67414">
        <ele>371.6</ele>
        <time>2022-03-19T14:36:35Z</time>
      </trkpt>
      <trkpt lat="46.75258" lon="5.67418">
        <ele>372.6</ele>
        <time>2022-03-19T14:36:40Z</time>
      </trkpt>
      <trkpt lat="46.75265" lon="5.6742">
        <ele>373.2</ele>
        <time>2022-03-19T14:36:42Z</time>
      </trkpt>
      <trkpt lat="46.75269" lon="5.67422">
        <ele>373.6</ele>
        <time>2022-03-19T14:36:43Z</time>
      </trkpt>
      <trkpt lat="46.75284" lon="5.67429">
        <ele>374.8</ele>
        <time>2022-03-19T14:36:48Z</time>
      </trkpt>
      <trkpt lat="46.75286" lon="5.6743">
        <ele>375</ele>
        <time>2022-03-19T14:36:49Z</time>
      </trkpt>
      <trkpt lat="46.75298" lon="5.67431">
        <ele>376</ele>
        <time>2022-03-19T14:36:53Z</time>
      </trkpt>
      <trkpt lat="46.75305" lon="5.67432">
        <ele>376.6</ele>
        <time>2022-03-19T14:36:55Z</time>
      </trkpt>
      <trkpt lat="46.75316" lon="5.67434">
        <ele>377.2</ele>
        <time>2022-03-19T14:36:58Z</time>
      </trkpt>
      <trkpt lat="46.75333" lon="5.67439">
        <ele>378.2</ele>
        <time>2022-03-19T14:37:03Z</time>
      </trkpt>
      <trkpt lat="46.75336" lon="5.67441">
        <ele>378.4</ele>
        <time>2022-03-19T14:37:04Z</time>
      </trkpt>
      <trkpt lat="46.75351" lon="5.6745">
        <ele>379.6</ele>
        <time>2022-03-19T14:37:09Z</time>
      </trkpt>
      <trkpt lat="46.75355" lon="5.67454">
        <ele>379.6</ele>
        <time>2022-03-19T14:37:10Z</time>
      </trkpt>
      <trkpt lat="46.75369" lon="5.67469">
        <ele>380.4</ele>
        <time>2022-03-19T14:37:15Z</time>
      </trkpt>
      <trkpt lat="46.75371" lon="5.67471">
        <ele>380.8</ele>
        <time>2022-03-19T14:37:16Z</time>
      </trkpt>
      <trkpt lat="46.75389" lon="5.67482">
        <ele>381.6</ele>
        <time>2022-03-19T14:37:21Z</time>
      </trkpt>
      <trkpt lat="46.75391" lon="5.67484">
        <ele>381.8</ele>
        <time>2022-03-19T14:37:22Z</time>
      </trkpt>
      <trkpt lat="46.75406" lon="5.67486">
        <ele>382.6</ele>
        <time>2022-03-19T14:37:26Z</time>
      </trkpt>
      <trkpt lat="46.75409" lon="5.67486">
        <ele>383</ele>
        <time>2022-03-19T14:37:27Z</time>
      </trkpt>
      <trkpt lat="46.75419" lon="5.6749">
        <ele>384</ele>
        <time>2022-03-19T14:37:31Z</time>
      </trkpt>
      <trkpt lat="46.75427" lon="5.67498">
        <ele>385.2</ele>
        <time>2022-03-19T14:37:35Z</time>
      </trkpt>
      <trkpt lat="46.75431" lon="5.67502">
        <ele>385.8</ele>
        <time>2022-03-19T14:37:37Z</time>
      </trkpt>
      <trkpt lat="46.75436" lon="5.67507">
        <ele>386.4</ele>
        <time>2022-03-19T14:37:39Z</time>
      </trkpt>
      <trkpt lat="46.75446" lon="5.67516">
        <ele>387</ele>
        <time>2022-03-19T14:37:43Z</time>
      </trkpt>
      <trkpt lat="46.75451" lon="5.67522">
        <ele>387.6</ele>
        <time>2022-03-19T14:37:46Z</time>
      </trkpt>
      <trkpt lat="46.75455" lon="5.67527">
        <ele>388</ele>
        <time>2022-03-19T14:37:48Z</time>
      </trkpt>
      <trkpt lat="46.75461" lon="5.67539">
        <ele>388.8</ele>
        <time>2022-03-19T14:37:52Z</time>
      </trkpt>
      <trkpt lat="46.75463" lon="5.67541">
        <ele>389.2</ele>
        <time>2022-03-19T14:37:53Z</time>
      </trkpt>
      <trkpt lat="46.75468" lon="5.67548">
        <ele>389.8</ele>
        <time>2022-03-19T14:37:55Z</time>
      </trkpt>
      <trkpt lat="46.75471" lon="5.67552">
        <ele>389.8</ele>
        <time>2022-03-19T14:37:56Z</time>
      </trkpt>
      <trkpt lat="46.75474" lon="5.67557">
        <ele>390.2</ele>
        <time>2022-03-19T14:37:57Z</time>
      </trkpt>
      <trkpt lat="46.75499" lon="5.67574">
        <ele>391</ele>
        <time>2022-03-19T14:38:02Z</time>
      </trkpt>
      <trkpt lat="46.75505" lon="5.67578">
        <ele>391.4</ele>
        <time>2022-03-19T14:38:04Z</time>
      </trkpt>
      <trkpt lat="46.75516" lon="5.67585">
        <ele>392.2</ele>
        <time>2022-03-19T14:38:08Z</time>
      </trkpt>
      <trkpt lat="46.75523" lon="5.67589">
        <ele>392.8</ele>
        <time>2022-03-19T14:38:11Z</time>
      </trkpt>
      <trkpt lat="46.75527" lon="5.67591">
        <ele>392.8</ele>
        <time>2022-03-19T14:38:12Z</time>
      </trkpt>
      <trkpt lat="46.75535" lon="5.67593">
        <ele>393</ele>
        <time>2022-03-19T14:38:14Z</time>
      </trkpt>
      <trkpt lat="46.75547" lon="5.67598">
        <ele>394.2</ele>
        <time>2022-03-19T14:38:17Z</time>
      </trkpt>
      <trkpt lat="46.75552" lon="5.67599">
        <ele>394.8</ele>
        <time>2022-03-19T14:38:18Z</time>
      </trkpt>
      <trkpt lat="46.75562" lon="5.67604">
        <ele>395.2</ele>
        <time>2022-03-19T14:38:21Z</time>
      </trkpt>
      <trkpt lat="46.7557" lon="5.67607">
        <ele>396</ele>
        <time>2022-03-19T14:38:23Z</time>
      </trkpt>
      <trkpt lat="46.75579" lon="5.6761">
        <ele>396.6</ele>
        <time>2022-03-19T14:38:25Z</time>
      </trkpt>
      <trkpt lat="46.75599" lon="5.67616">
        <ele>397.4</ele>
        <time>2022-03-19T14:38:30Z</time>
      </trkpt>
      <trkpt lat="46.75603" lon="5.67616">
        <ele>397.8</ele>
        <time>2022-03-19T14:38:31Z</time>
      </trkpt>
      <trkpt lat="46.75615" lon="5.67621">
        <ele>398.4</ele>
        <time>2022-03-19T14:38:35Z</time>
      </trkpt>
      <trkpt lat="46.75618" lon="5.67624">
        <ele>399</ele>
        <time>2022-03-19T14:38:36Z</time>
      </trkpt>
      <trkpt lat="46.75621" lon="5.67628">
        <ele>399</ele>
        <time>2022-03-19T14:38:37Z</time>
      </trkpt>
      <trkpt lat="46.75625" lon="5.67636">
        <ele>399.6</ele>
        <time>2022-03-19T14:38:39Z</time>
      </trkpt>
      <trkpt lat="46.75622" lon="5.67641">
        <ele>400.2</ele>
        <time>2022-03-19T14:38:41Z</time>
      </trkpt>
      <trkpt lat="46.7562" lon="5.67642">
        <ele>400.4</ele>
        <time>2022-03-19T14:38:42Z</time>
      </trkpt>
      <trkpt lat="46.75614" lon="5.67642">
        <ele>400.8</ele>
        <time>2022-03-19T14:38:44Z</time>
      </trkpt>
      <trkpt lat="46.7561" lon="5.67641">
        <ele>401.4</ele>
        <time>2022-03-19T14:38:45Z</time>
      </trkpt>
      <trkpt lat="46.75607" lon="5.67639">
        <ele>401.6</ele>
        <time>2022-03-19T14:38:46Z</time>
      </trkpt>
      <trkpt lat="46.75593" lon="5.67636">
        <ele>402.4</ele>
        <time>2022-03-19T14:38:51Z</time>
      </trkpt>
      <trkpt lat="46.75582" lon="5.67639">
        <ele>403.6</ele>
        <time>2022-03-19T14:38:55Z</time>
      </trkpt>
      <trkpt lat="46.75577" lon="5.6764">
        <ele>404</ele>
        <time>2022-03-19T14:38:57Z</time>
      </trkpt>
      <trkpt lat="46.75574" lon="5.6764">
        <ele>404.2</ele>
        <time>2022-03-19T14:38:58Z</time>
      </trkpt>
      <trkpt lat="46.75571" lon="5.6764">
        <ele>404.6</ele>
        <time>2022-03-19T14:38:59Z</time>
      </trkpt>
      <trkpt lat="46.75565" lon="5.67639">
        <ele>405</ele>
        <time>2022-03-19T14:39:01Z</time>
      </trkpt>
      <trkpt lat="46.75554" lon="5.67636">
        <ele>405.8</ele>
        <time>2022-03-19T14:39:04Z</time>
      </trkpt>
      <trkpt lat="46.75541" lon="5.67635">
        <ele>406.4</ele>
        <time>2022-03-19T14:39:08Z</time>
      </trkpt>
      <trkpt lat="46.75534" lon="5.67634">
        <ele>406.8</ele>
        <time>2022-03-19T14:39:10Z</time>
      </trkpt>
      <trkpt lat="46.75522" lon="5.67634">
        <ele>408</ele>
        <time>2022-03-19T14:39:13Z</time>
      </trkpt>
      <trkpt lat="46.7551" lon="5.67632">
        <ele>408.4</ele>
        <time>2022-03-19T14:39:16Z</time>
      </trkpt>
      <trkpt lat="46.755" lon="5.67631">
        <ele>409</ele>
        <time>2022-03-19T14:39:19Z</time>
      </trkpt>
      <trkpt lat="46.75489" lon="5.67629">
        <ele>409.8</ele>
        <time>2022-03-19T14:39:22Z</time>
      </trkpt>
      <trkpt lat="46.75483" lon="5.67626">
        <ele>410.2</ele>
        <time>2022-03-19T14:39:24Z</time>
      </trkpt>
      <trkpt lat="46.75472" lon="5.67619">
        <ele>411.4</ele>
        <time>2022-03-19T14:39:27Z</time>
      </trkpt>
      <trkpt lat="46.75468" lon="5.67617">
        <ele>411.4</ele>
        <time>2022-03-19T14:39:28Z</time>
      </trkpt>
      <trkpt lat="46.75451" lon="5.67619">
        <ele>412.8</ele>
        <time>2022-03-19T14:39:33Z</time>
      </trkpt>
      <trkpt lat="46.75446" lon="5.67618">
        <ele>413</ele>
        <time>2022-03-19T14:39:34Z</time>
      </trkpt>
      <trkpt lat="46.75428" lon="5.67612">
        <ele>413.6</ele>
        <time>2022-03-19T14:39:39Z</time>
      </trkpt>
      <trkpt lat="46.75425" lon="5.67613">
        <ele>413.8</ele>
        <time>2022-03-19T14:39:40Z</time>
      </trkpt>
      <trkpt lat="46.75407" lon="5.67612">
        <ele>415</ele>
        <time>2022-03-19T14:39:45Z</time>
      </trkpt>
      <trkpt lat="46.75399" lon="5.67608">
        <ele>415.6</ele>
        <time>2022-03-19T14:39:47Z</time>
      </trkpt>
      <trkpt lat="46.75393" lon="5.67604">
        <ele>416</ele>
        <time>2022-03-19T14:39:49Z</time>
      </trkpt>
      <trkpt lat="46.75389" lon="5.67601">
        <ele>416.8</ele>
        <time>2022-03-19T14:39:50Z</time>
      </trkpt>
      <trkpt lat="46.75378" lon="5.67596">
        <ele>417.8</ele>
        <time>2022-03-19T14:39:53Z</time>
      </trkpt>
      <trkpt lat="46.75374" lon="5.67593">
        <ele>418.2</ele>
        <time>2022-03-19T14:39:54Z</time>
      </trkpt>
      <trkpt lat="46.75365" lon="5.67588">
        <ele>419</ele>
        <time>2022-03-19T14:39:57Z</time>
      </trkpt>
      <trkpt lat="46.75354" lon="5.67583">
        <ele>419.6</ele>
        <time>2022-03-19T14:40:00Z</time>
      </trkpt>
      <trkpt lat="46.75344" lon="5.67585">
        <ele>420.2</ele>
        <time>2022-03-19T14:40:03Z</time>
      </trkpt>
      <trkpt lat="46.75335" lon="5.67588">
        <ele>421</ele>
        <time>2022-03-19T14:40:06Z</time>
      </trkpt>
      <trkpt lat="46.75332" lon="5.67591">
        <ele>421.2</ele>
        <time>2022-03-19T14:40:07Z</time>
      </trkpt>
      <trkpt lat="46.75321" lon="5.67594">
        <ele>421.8</ele>
        <time>2022-03-19T14:40:10Z</time>
      </trkpt>
      <trkpt lat="46.75318" lon="5.67594">
        <ele>422.2</ele>
        <time>2022-03-19T14:40:11Z</time>
      </trkpt>
      <trkpt lat="46.75309" lon="5.67596">
        <ele>422.6</ele>
        <time>2022-03-19T14:40:14Z</time>
      </trkpt>
      <trkpt lat="46.75306" lon="5.67597">
        <ele>422.8</ele>
        <time>2022-03-19T14:40:15Z</time>
      </trkpt>
      <trkpt lat="46.75293" lon="5.67603">
        <ele>423.4</ele>
        <time>2022-03-19T14:40:19Z</time>
      </trkpt>
      <trkpt lat="46.75286" lon="5.67601">
        <ele>424</ele>
        <time>2022-03-19T14:40:21Z</time>
      </trkpt>
      <trkpt lat="46.75278" lon="5.67599">
        <ele>424.6</ele>
        <time>2022-03-19T14:40:23Z</time>
      </trkpt>
      <trkpt lat="46.7526" lon="5.67594">
        <ele>425.6</ele>
        <time>2022-03-19T14:40:28Z</time>
      </trkpt>
      <trkpt lat="46.75248" lon="5.67592">
        <ele>426.2</ele>
        <time>2022-03-19T14:40:32Z</time>
      </trkpt>
      <trkpt lat="46.75245" lon="5.67593">
        <ele>426.4</ele>
        <time>2022-03-19T14:40:33Z</time>
      </trkpt>
      <trkpt lat="46.75243" lon="5.67598">
        <ele>426.6</ele>
        <time>2022-03-19T14:40:34Z</time>
      </trkpt>
      <trkpt lat="46.7524" lon="5.67601">
        <ele>427</ele>
        <time>2022-03-19T14:40:35Z</time>
      </trkpt>
      <trkpt lat="46.75236" lon="5.67606">
        <ele>427.8</ele>
        <time>2022-03-19T14:40:37Z</time>
      </trkpt>
      <trkpt lat="46.75233" lon="5.67608">
        <ele>428</ele>
        <time>2022-03-19T14:40:38Z</time>
      </trkpt>
      <trkpt lat="46.75221" lon="5.67613">
        <ele>428.8</ele>
        <time>2022-03-19T14:40:42Z</time>
      </trkpt>
      <trkpt lat="46.75211" lon="5.67617">
        <ele>429.4</ele>
        <time>2022-03-19T14:40:45Z</time>
      </trkpt>
      <trkpt lat="46.75204" lon="5.67622">
        <ele>430</ele>
        <time>2022-03-19T14:40:47Z</time>
      </trkpt>
      <trkpt lat="46.75193" lon="5.67624">
        <ele>431.2</ele>
        <time>2022-03-19T14:40:50Z</time>
      </trkpt>
      <trkpt lat="46.75187" lon="5.67625">
        <ele>431.6</ele>
        <time>2022-03-19T14:40:52Z</time>
      </trkpt>
      <trkpt lat="46.75174" lon="5.67632">
        <ele>432.2</ele>
        <time>2022-03-19T14:40:56Z</time>
      </trkpt>
      <trkpt lat="46.75169" lon="5.67635">
        <ele>432.6</ele>
        <time>2022-03-19T14:40:58Z</time>
      </trkpt>
      <trkpt lat="46.75161" lon="5.67637">
        <ele>433.4</ele>
        <time>2022-03-19T14:41:01Z</time>
      </trkpt>
      <trkpt lat="46.75148" lon="5.67646">
        <ele>434.2</ele>
        <time>2022-03-19T14:41:04Z</time>
      </trkpt>
      <trkpt lat="46.75144" lon="5.6765">
        <ele>434.4</ele>
        <time>2022-03-19T14:41:05Z</time>
      </trkpt>
      <trkpt lat="46.75137" lon="5.67659">
        <ele>435.6</ele>
        <time>2022-03-19T14:41:08Z</time>
      </trkpt>
      <trkpt lat="46.75134" lon="5.6766">
        <ele>435.8</ele>
        <time>2022-03-19T14:41:09Z</time>
      </trkpt>
      <trkpt lat="46.75124" lon="5.67667">
        <ele>436.6</ele>
        <time>2022-03-19T14:41:12Z</time>
      </trkpt>
      <trkpt lat="46.75115" lon="5.67668">
        <ele>437.4</ele>
        <time>2022-03-19T14:41:15Z</time>
      </trkpt>
      <trkpt lat="46.75106" lon="5.67679">
        <ele>437.8</ele>
        <time>2022-03-19T14:41:18Z</time>
      </trkpt>
      <trkpt lat="46.75101" lon="5.67682">
        <ele>438</ele>
        <time>2022-03-19T14:41:20Z</time>
      </trkpt>
      <trkpt lat="46.75094" lon="5.67686">
        <ele>438.8</ele>
        <time>2022-03-19T14:41:22Z</time>
      </trkpt>
      <trkpt lat="46.75084" lon="5.67699">
        <ele>439.6</ele>
        <time>2022-03-19T14:41:26Z</time>
      </trkpt>
      <trkpt lat="46.75081" lon="5.67704">
        <ele>439.8</ele>
        <time>2022-03-19T14:41:27Z</time>
      </trkpt>
      <trkpt lat="46.7507" lon="5.67715">
        <ele>441.2</ele>
        <time>2022-03-19T14:41:31Z</time>
      </trkpt>
      <trkpt lat="46.75062" lon="5.67737">
        <ele>442.2</ele>
        <time>2022-03-19T14:41:36Z</time>
      </trkpt>
      <trkpt lat="46.7506" lon="5.67743">
        <ele>442.4</ele>
        <time>2022-03-19T14:41:37Z</time>
      </trkpt>
      <trkpt lat="46.75047" lon="5.67769">
        <ele>443.4</ele>
        <time>2022-03-19T14:41:43Z</time>
      </trkpt>
      <trkpt lat="46.75039" lon="5.6778">
        <ele>443.8</ele>
        <time>2022-03-19T14:41:46Z</time>
      </trkpt>
      <trkpt lat="46.75037" lon="5.67784">
        <ele>444.4</ele>
        <time>2022-03-19T14:41:47Z</time>
      </trkpt>
      <trkpt lat="46.75034" lon="5.67786">
        <ele>444.6</ele>
        <time>2022-03-19T14:41:48Z</time>
      </trkpt>
      <trkpt lat="46.7502" lon="5.67802">
        <ele>445.4</ele>
        <time>2022-03-19T14:41:53Z</time>
      </trkpt>
      <trkpt lat="46.75018" lon="5.67809">
        <ele>445.6</ele>
        <time>2022-03-19T14:41:54Z</time>
      </trkpt>
      <trkpt lat="46.75016" lon="5.67814">
        <ele>445.8</ele>
        <time>2022-03-19T14:41:55Z</time>
      </trkpt>
      <trkpt lat="46.75011" lon="5.67828">
        <ele>446.6</ele>
        <time>2022-03-19T14:41:58Z</time>
      </trkpt>
      <trkpt lat="46.7501" lon="5.67831">
        <ele>446.8</ele>
        <time>2022-03-19T14:41:59Z</time>
      </trkpt>
      <trkpt lat="46.74997" lon="5.67863">
        <ele>448.2</ele>
        <time>2022-03-19T14:42:05Z</time>
      </trkpt>
      <trkpt lat="46.74987" lon="5.67883">
        <ele>449.2</ele>
        <time>2022-03-19T14:42:09Z</time>
      </trkpt>
      <trkpt lat="46.74985" lon="5.67886">
        <ele>449.4</ele>
        <time>2022-03-19T14:42:10Z</time>
      </trkpt>
      <trkpt lat="46.74979" lon="5.67897">
        <ele>450</ele>
        <time>2022-03-19T14:42:13Z</time>
      </trkpt>
      <trkpt lat="46.74974" lon="5.67899">
        <ele>450</ele>
        <time>2022-03-19T14:42:14Z</time>
      </trkpt>
      <trkpt lat="46.7497" lon="5.67905">
        <ele>450.2</ele>
        <time>2022-03-19T14:42:15Z</time>
      </trkpt>
      <trkpt lat="46.74968" lon="5.6791">
        <ele>450.4</ele>
        <time>2022-03-19T14:42:16Z</time>
      </trkpt>
      <trkpt lat="46.74964" lon="5.67916">
        <ele>450.6</ele>
        <time>2022-03-19T14:42:17Z</time>
      </trkpt>
      <trkpt lat="46.74964" lon="5.67922">
        <ele>450.8</ele>
        <time>2022-03-19T14:42:18Z</time>
      </trkpt>
      <trkpt lat="46.74962" lon="5.67933">
        <ele>451.2</ele>
        <time>2022-03-19T14:42:20Z</time>
      </trkpt>
      <trkpt lat="46.7496" lon="5.67939">
        <ele>451.6</ele>
        <time>2022-03-19T14:42:21Z</time>
      </trkpt>
      <trkpt lat="46.74956" lon="5.67955">
        <ele>452.4</ele>
        <time>2022-03-19T14:42:24Z</time>
      </trkpt>
      <trkpt lat="46.74953" lon="5.67961">
        <ele>452.6</ele>
        <time>2022-03-19T14:42:25Z</time>
      </trkpt>
      <trkpt lat="46.74945" lon="5.67984">
        <ele>453.2</ele>
        <time>2022-03-19T14:42:29Z</time>
      </trkpt>
      <trkpt lat="46.74944" lon="5.67989">
        <ele>453.6</ele>
        <time>2022-03-19T14:42:30Z</time>
      </trkpt>
      <trkpt lat="46.74937" lon="5.68005">
        <ele>454.2</ele>
        <time>2022-03-19T14:42:33Z</time>
      </trkpt>
      <trkpt lat="46.74932" lon="5.68016">
        <ele>454.8</ele>
        <time>2022-03-19T14:42:35Z</time>
      </trkpt>
      <trkpt lat="46.74928" lon="5.68027">
        <ele>455.2</ele>
        <time>2022-03-19T14:42:37Z</time>
      </trkpt>
      <trkpt lat="46.74926" lon="5.68037">
        <ele>455.8</ele>
        <time>2022-03-19T14:42:39Z</time>
      </trkpt>
      <trkpt lat="46.74924" lon="5.68044">
        <ele>456.2</ele>
        <time>2022-03-19T14:42:40Z</time>
      </trkpt>
      <trkpt lat="46.74923" lon="5.6805">
        <ele>456.2</ele>
        <time>2022-03-19T14:42:41Z</time>
      </trkpt>
      <trkpt lat="46.74913" lon="5.68071">
        <ele>456.8</ele>
        <time>2022-03-19T14:42:45Z</time>
      </trkpt>
      <trkpt lat="46.74911" lon="5.68075">
        <ele>456.8</ele>
        <time>2022-03-19T14:42:46Z</time>
      </trkpt>
      <trkpt lat="46.7491" lon="5.68079">
        <ele>457</ele>
        <time>2022-03-19T14:42:47Z</time>
      </trkpt>
      <trkpt lat="46.74908" lon="5.68088">
        <ele>457.4</ele>
        <time>2022-03-19T14:42:49Z</time>
      </trkpt>
      <trkpt lat="46.74902" lon="5.68111">
        <ele>458</ele>
        <time>2022-03-19T14:42:53Z</time>
      </trkpt>
      <trkpt lat="46.74901" lon="5.68117">
        <ele>458.2</ele>
        <time>2022-03-19T14:42:54Z</time>
      </trkpt>
      <trkpt lat="46.74894" lon="5.68137">
        <ele>459</ele>
        <time>2022-03-19T14:42:58Z</time>
      </trkpt>
      <trkpt lat="46.74892" lon="5.68142">
        <ele>459.2</ele>
        <time>2022-03-19T14:42:59Z</time>
      </trkpt>
      <trkpt lat="46.74889" lon="5.68163">
        <ele>460</ele>
        <time>2022-03-19T14:43:03Z</time>
      </trkpt>
      <trkpt lat="46.74888" lon="5.68172">
        <ele>460.6</ele>
        <time>2022-03-19T14:43:05Z</time>
      </trkpt>
      <trkpt lat="46.74883" lon="5.68187">
        <ele>461.2</ele>
        <time>2022-03-19T14:43:08Z</time>
      </trkpt>
      <trkpt lat="46.74877" lon="5.68209">
        <ele>462</ele>
        <time>2022-03-19T14:43:12Z</time>
      </trkpt>
      <trkpt lat="46.74875" lon="5.68215">
        <ele>462.2</ele>
        <time>2022-03-19T14:43:13Z</time>
      </trkpt>
      <trkpt lat="46.74867" lon="5.68244">
        <ele>463.4</ele>
        <time>2022-03-19T14:43:18Z</time>
      </trkpt>
      <trkpt lat="46.74858" lon="5.68262">
        <ele>464</ele>
        <time>2022-03-19T14:43:22Z</time>
      </trkpt>
      <trkpt lat="46.74855" lon="5.68267">
        <ele>464.2</ele>
        <time>2022-03-19T14:43:23Z</time>
      </trkpt>
      <trkpt lat="46.74851" lon="5.68272">
        <ele>464.4</ele>
        <time>2022-03-19T14:43:24Z</time>
      </trkpt>
      <trkpt lat="46.74845" lon="5.68279">
        <ele>465</ele>
        <time>2022-03-19T14:43:26Z</time>
      </trkpt>
      <trkpt lat="46.74841" lon="5.68282">
        <ele>465</ele>
        <time>2022-03-19T14:43:27Z</time>
      </trkpt>
      <trkpt lat="46.74834" lon="5.68285">
        <ele>465.2</ele>
        <time>2022-03-19T14:43:29Z</time>
      </trkpt>
      <trkpt lat="46.74831" lon="5.68285">
        <ele>465.4</ele>
        <time>2022-03-19T14:43:30Z</time>
      </trkpt>
      <trkpt lat="46.74821" lon="5.68284">
        <ele>466.6</ele>
        <time>2022-03-19T14:43:33Z</time>
      </trkpt>
      <trkpt lat="46.74817" lon="5.68283">
        <ele>466.6</ele>
        <time>2022-03-19T14:43:34Z</time>
      </trkpt>
      <trkpt lat="46.7481" lon="5.68284">
        <ele>467</ele>
        <time>2022-03-19T14:43:36Z</time>
      </trkpt>
      <trkpt lat="46.74807" lon="5.68284">
        <ele>467.4</ele>
        <time>2022-03-19T14:43:37Z</time>
      </trkpt>
      <trkpt lat="46.74803" lon="5.68283">
        <ele>467.6</ele>
        <time>2022-03-19T14:43:38Z</time>
      </trkpt>
      <trkpt lat="46.74794" lon="5.68279">
        <ele>468.2</ele>
        <time>2022-03-19T14:43:40Z</time>
      </trkpt>
      <trkpt lat="46.7479" lon="5.6828">
        <ele>468.4</ele>
        <time>2022-03-19T14:43:41Z</time>
      </trkpt>
      <trkpt lat="46.74786" lon="5.6828">
        <ele>468.6</ele>
        <time>2022-03-19T14:43:42Z</time>
      </trkpt>
      <trkpt lat="46.74775" lon="5.6828">
        <ele>469.2</ele>
        <time>2022-03-19T14:43:44Z</time>
      </trkpt>
      <trkpt lat="46.74765" lon="5.68284">
        <ele>469.8</ele>
        <time>2022-03-19T14:43:46Z</time>
      </trkpt>
      <trkpt lat="46.74734" lon="5.68298">
        <ele>471</ele>
        <time>2022-03-19T14:43:51Z</time>
      </trkpt>
      <trkpt lat="46.74727" lon="5.68302">
        <ele>471.2</ele>
        <time>2022-03-19T14:43:53Z</time>
      </trkpt>
      <trkpt lat="46.74719" lon="5.68304">
        <ele>471.6</ele>
        <time>2022-03-19T14:43:55Z</time>
      </trkpt>
      <trkpt lat="46.74712" lon="5.68304">
        <ele>472</ele>
        <time>2022-03-19T14:43:56Z</time>
      </trkpt>
      <trkpt lat="46.747" lon="5.68303">
        <ele>472.8</ele>
        <time>2022-03-19T14:43:59Z</time>
      </trkpt>
      <trkpt lat="46.74696" lon="5.68301">
        <ele>473.2</ele>
        <time>2022-03-19T14:44:00Z</time>
      </trkpt>
      <trkpt lat="46.74674" lon="5.68305">
        <ele>474.4</ele>
        <time>2022-03-19T14:44:04Z</time>
      </trkpt>
      <trkpt lat="46.74665" lon="5.68303">
        <ele>474.6</ele>
        <time>2022-03-19T14:44:06Z</time>
      </trkpt>
      <trkpt lat="46.74658" lon="5.68303">
        <ele>475</ele>
        <time>2022-03-19T14:44:08Z</time>
      </trkpt>
      <trkpt lat="46.74655" lon="5.68302">
        <ele>475.4</ele>
        <time>2022-03-19T14:44:09Z</time>
      </trkpt>
      <trkpt lat="46.74641" lon="5.68306">
        <ele>475.8</ele>
        <time>2022-03-19T14:44:12Z</time>
      </trkpt>
      <trkpt lat="46.74631" lon="5.68304">
        <ele>475.8</ele>
        <time>2022-03-19T14:44:14Z</time>
      </trkpt>
      <trkpt lat="46.74627" lon="5.68303">
        <ele>476</ele>
        <time>2022-03-19T14:44:15Z</time>
      </trkpt>
      <trkpt lat="46.74622" lon="5.68297">
        <ele>476</ele>
        <time>2022-03-19T14:44:16Z</time>
      </trkpt>
      <trkpt lat="46.74614" lon="5.68288">
        <ele>476</ele>
        <time>2022-03-19T14:44:18Z</time>
      </trkpt>
      <trkpt lat="46.74613" lon="5.68284">
        <ele>476.4</ele>
        <time>2022-03-19T14:44:20Z</time>
      </trkpt>
      <trkpt lat="46.74615" lon="5.68283">
        <ele>476.6</ele>
        <time>2022-03-19T14:44:21Z</time>
      </trkpt>
      <trkpt lat="46.74617" lon="5.68284">
        <ele>477</ele>
        <time>2022-03-19T14:44:25Z</time>
      </trkpt>
      <trkpt lat="46.7462" lon="5.68284">
        <ele>477.2</ele>
        <time>2022-03-19T14:44:26Z</time>
      </trkpt>
      <trkpt lat="46.74625" lon="5.68283">
        <ele>477.4</ele>
        <time>2022-03-19T14:44:27Z</time>
      </trkpt>
      <trkpt lat="46.74629" lon="5.68282">
        <ele>477.6</ele>
        <time>2022-03-19T14:44:28Z</time>
      </trkpt>
      <trkpt lat="46.74634" lon="5.68282">
        <ele>477.6</ele>
        <time>2022-03-19T14:44:29Z</time>
      </trkpt>
      <trkpt lat="46.7464" lon="5.6828">
        <ele>478</ele>
        <time>2022-03-19T14:44:30Z</time>
      </trkpt>
      <trkpt lat="46.74648" lon="5.68273">
        <ele>478.2</ele>
        <time>2022-03-19T14:44:32Z</time>
      </trkpt>
      <trkpt lat="46.74652" lon="5.68262">
        <ele>478.6</ele>
        <time>2022-03-19T14:44:34Z</time>
      </trkpt>
      <trkpt lat="46.74646" lon="5.68253">
        <ele>478.6</ele>
        <time>2022-03-19T14:44:35Z</time>
      </trkpt>
      <trkpt lat="46.74638" lon="5.68243">
        <ele>478.8</ele>
        <time>2022-03-19T14:44:36Z</time>
      </trkpt>
      <trkpt lat="46.74626" lon="5.68217">
        <ele>479</ele>
        <time>2022-03-19T14:44:39Z</time>
      </trkpt>
      <trkpt lat="46.74625" lon="5.68209">
        <ele>478.8</ele>
        <time>2022-03-19T14:44:41Z</time>
      </trkpt>
      <trkpt lat="46.74625" lon="5.68206">
        <ele>479.2</ele>
        <time>2022-03-19T14:44:42Z</time>
      </trkpt>
      <trkpt lat="46.74625" lon="5.68198">
        <ele>479.6</ele>
        <time>2022-03-19T14:44:45Z</time>
      </trkpt>
      <trkpt lat="46.74622" lon="5.68193">
        <ele>480</ele>
        <time>2022-03-19T14:44:46Z</time>
      </trkpt>
      <trkpt lat="46.74609" lon="5.68166">
        <ele>480.8</ele>
        <time>2022-03-19T14:44:49Z</time>
      </trkpt>
      <trkpt lat="46.74604" lon="5.68152">
        <ele>481.6</ele>
        <time>2022-03-19T14:44:51Z</time>
      </trkpt>
      <trkpt lat="46.74601" lon="5.6814">
        <ele>482.2</ele>
        <time>2022-03-19T14:44:53Z</time>
      </trkpt>
      <trkpt lat="46.74598" lon="5.68123">
        <ele>482.8</ele>
        <time>2022-03-19T14:44:56Z</time>
      </trkpt>
      <trkpt lat="46.74597" lon="5.68119">
        <ele>483</ele>
        <time>2022-03-19T14:44:57Z</time>
      </trkpt>
      <trkpt lat="46.74596" lon="5.68115">
        <ele>483.2</ele>
        <time>2022-03-19T14:44:59Z</time>
      </trkpt>
      <trkpt lat="46.7459" lon="5.68097">
        <ele>484</ele>
        <time>2022-03-19T14:45:03Z</time>
      </trkpt>
      <trkpt lat="46.74588" lon="5.68091">
        <ele>484.2</ele>
        <time>2022-03-19T14:45:04Z</time>
      </trkpt>
      <trkpt lat="46.74589" lon="5.68075">
        <ele>485.4</ele>
        <time>2022-03-19T14:45:07Z</time>
      </trkpt>
      <trkpt lat="46.74593" lon="5.68067">
        <ele>485.8</ele>
        <time>2022-03-19T14:45:09Z</time>
      </trkpt>
      <trkpt lat="46.74597" lon="5.6806">
        <ele>486.2</ele>
        <time>2022-03-19T14:45:11Z</time>
      </trkpt>
      <trkpt lat="46.74598" lon="5.68057">
        <ele>486.6</ele>
        <time>2022-03-19T14:45:12Z</time>
      </trkpt>
      <trkpt lat="46.74602" lon="5.6805">
        <ele>487</ele>
        <time>2022-03-19T14:45:14Z</time>
      </trkpt>
      <trkpt lat="46.74604" lon="5.68042">
        <ele>487.4</ele>
        <time>2022-03-19T14:45:16Z</time>
      </trkpt>
      <trkpt lat="46.74598" lon="5.68028">
        <ele>488</ele>
        <time>2022-03-19T14:45:18Z</time>
      </trkpt>
      <trkpt lat="46.7459" lon="5.68009">
        <ele>489.2</ele>
        <time>2022-03-19T14:45:21Z</time>
      </trkpt>
      <trkpt lat="46.74583" lon="5.68002">
        <ele>489.4</ele>
        <time>2022-03-19T14:45:22Z</time>
      </trkpt>
      <trkpt lat="46.74572" lon="5.67976">
        <ele>490.4</ele>
        <time>2022-03-19T14:45:25Z</time>
      </trkpt>
      <trkpt lat="46.7457" lon="5.67966">
        <ele>490.4</ele>
        <time>2022-03-19T14:45:26Z</time>
      </trkpt>
      <trkpt lat="46.74564" lon="5.67945">
        <ele>490.8</ele>
        <time>2022-03-19T14:45:28Z</time>
      </trkpt>
      <trkpt lat="46.74564" lon="5.67936">
        <ele>490.8</ele>
        <time>2022-03-19T14:45:29Z</time>
      </trkpt>
      <trkpt lat="46.74564" lon="5.67907">
        <ele>491.6</ele>
        <time>2022-03-19T14:45:33Z</time>
      </trkpt>
      <trkpt lat="46.74564" lon="5.67902">
        <ele>491.8</ele>
        <time>2022-03-19T14:45:34Z</time>
      </trkpt>
      <trkpt lat="46.74561" lon="5.67896">
        <ele>492</ele>
        <time>2022-03-19T14:45:35Z</time>
      </trkpt>
      <trkpt lat="46.74549" lon="5.67881">
        <ele>492.6</ele>
        <time>2022-03-19T14:45:37Z</time>
      </trkpt>
      <trkpt lat="46.74548" lon="5.67874">
        <ele>492.8</ele>
        <time>2022-03-19T14:45:38Z</time>
      </trkpt>
      <trkpt lat="46.74549" lon="5.67849">
        <ele>493.6</ele>
        <time>2022-03-19T14:45:41Z</time>
      </trkpt>
      <trkpt lat="46.74551" lon="5.67843">
        <ele>493.6</ele>
        <time>2022-03-19T14:45:42Z</time>
      </trkpt>
      <trkpt lat="46.74556" lon="5.67832">
        <ele>494</ele>
        <time>2022-03-19T14:45:44Z</time>
      </trkpt>
      <trkpt lat="46.74557" lon="5.67827">
        <ele>494.2</ele>
        <time>2022-03-19T14:45:45Z</time>
      </trkpt>
      <trkpt lat="46.74563" lon="5.67795">
        <ele>494.8</ele>
        <time>2022-03-19T14:45:49Z</time>
      </trkpt>
      <trkpt lat="46.74569" lon="5.67774">
        <ele>495.6</ele>
        <time>2022-03-19T14:45:52Z</time>
      </trkpt>
      <trkpt lat="46.7457" lon="5.67769">
        <ele>496</ele>
        <time>2022-03-19T14:45:53Z</time>
      </trkpt>
      <trkpt lat="46.74578" lon="5.67739">
        <ele>497.2</ele>
        <time>2022-03-19T14:45:58Z</time>
      </trkpt>
      <trkpt lat="46.7458" lon="5.67733">
        <ele>497.4</ele>
        <time>2022-03-19T14:45:59Z</time>
      </trkpt>
      <trkpt lat="46.74581" lon="5.67727">
        <ele>497.6</ele>
        <time>2022-03-19T14:46:00Z</time>
      </trkpt>
      <trkpt lat="46.74582" lon="5.67716">
        <ele>498.2</ele>
        <time>2022-03-19T14:46:02Z</time>
      </trkpt>
      <trkpt lat="46.7459" lon="5.67693">
        <ele>499.4</ele>
        <time>2022-03-19T14:46:06Z</time>
      </trkpt>
      <trkpt lat="46.74596" lon="5.67677">
        <ele>500.4</ele>
        <time>2022-03-19T14:46:09Z</time>
      </trkpt>
      <trkpt lat="46.74594" lon="5.67668">
        <ele>500.4</ele>
        <time>2022-03-19T14:46:10Z</time>
      </trkpt>
      <trkpt lat="46.74591" lon="5.67661">
        <ele>500.8</ele>
        <time>2022-03-19T14:46:11Z</time>
      </trkpt>
      <trkpt lat="46.74593" lon="5.67648">
        <ele>501.4</ele>
        <time>2022-03-19T14:46:13Z</time>
      </trkpt>
      <trkpt lat="46.74595" lon="5.67644">
        <ele>501.6</ele>
        <time>2022-03-19T14:46:14Z</time>
      </trkpt>
      <trkpt lat="46.74602" lon="5.6763">
        <ele>502.4</ele>
        <time>2022-03-19T14:46:17Z</time>
      </trkpt>
      <trkpt lat="46.74604" lon="5.6762">
        <ele>502.6</ele>
        <time>2022-03-19T14:46:18Z</time>
      </trkpt>
      <trkpt lat="46.74604" lon="5.67614">
        <ele>502.8</ele>
        <time>2022-03-19T14:46:19Z</time>
      </trkpt>
      <trkpt lat="46.7461" lon="5.67594">
        <ele>503.6</ele>
        <time>2022-03-19T14:46:22Z</time>
      </trkpt>
      <trkpt lat="46.74612" lon="5.67587">
        <ele>504</ele>
        <time>2022-03-19T14:46:23Z</time>
      </trkpt>
      <trkpt lat="46.74621" lon="5.67563">
        <ele>505</ele>
        <time>2022-03-19T14:46:27Z</time>
      </trkpt>
      <trkpt lat="46.74628" lon="5.67534">
        <ele>506</ele>
        <time>2022-03-19T14:46:32Z</time>
      </trkpt>
      <trkpt lat="46.74639" lon="5.67518">
        <ele>506.8</ele>
        <time>2022-03-19T14:46:35Z</time>
      </trkpt>
      <trkpt lat="46.74644" lon="5.67512">
        <ele>507.2</ele>
        <time>2022-03-19T14:46:36Z</time>
      </trkpt>
      <trkpt lat="46.74645" lon="5.67507">
        <ele>507.2</ele>
        <time>2022-03-19T14:46:37Z</time>
      </trkpt>
      <trkpt lat="46.74639" lon="5.67494">
        <ele>508</ele>
        <time>2022-03-19T14:46:39Z</time>
      </trkpt>
      <trkpt lat="46.74636" lon="5.67487">
        <ele>508.2</ele>
        <time>2022-03-19T14:46:40Z</time>
      </trkpt>
      <trkpt lat="46.74635" lon="5.67475">
        <ele>508.8</ele>
        <time>2022-03-19T14:46:42Z</time>
      </trkpt>
      <trkpt lat="46.74634" lon="5.67469">
        <ele>509.4</ele>
        <time>2022-03-19T14:46:43Z</time>
      </trkpt>
      <trkpt lat="46.74634" lon="5.67462">
        <ele>509.6</ele>
        <time>2022-03-19T14:46:44Z</time>
      </trkpt>
      <trkpt lat="46.74632" lon="5.67451">
        <ele>510.2</ele>
        <time>2022-03-19T14:46:47Z</time>
      </trkpt>
      <trkpt lat="46.74629" lon="5.67447">
        <ele>510.6</ele>
        <time>2022-03-19T14:46:48Z</time>
      </trkpt>
      <trkpt lat="46.74616" lon="5.67437">
        <ele>511</ele>
        <time>2022-03-19T14:46:51Z</time>
      </trkpt>
      <trkpt lat="46.74608" lon="5.67431">
        <ele>511.8</ele>
        <time>2022-03-19T14:46:53Z</time>
      </trkpt>
      <trkpt lat="46.74595" lon="5.67428">
        <ele>512.8</ele>
        <time>2022-03-19T14:46:56Z</time>
      </trkpt>
      <trkpt lat="46.74591" lon="5.67427">
        <ele>513</ele>
        <time>2022-03-19T14:46:57Z</time>
      </trkpt>
      <trkpt lat="46.74587" lon="5.67425">
        <ele>513</ele>
        <time>2022-03-19T14:46:58Z</time>
      </trkpt>
      <trkpt lat="46.74577" lon="5.67422">
        <ele>514</ele>
        <time>2022-03-19T14:47:01Z</time>
      </trkpt>
      <trkpt lat="46.74571" lon="5.67421">
        <ele>514.2</ele>
        <time>2022-03-19T14:47:03Z</time>
      </trkpt>
      <trkpt lat="46.74556" lon="5.67414">
        <ele>515</ele>
        <time>2022-03-19T14:47:07Z</time>
      </trkpt>
      <trkpt lat="46.74552" lon="5.67413">
        <ele>515.2</ele>
        <time>2022-03-19T14:47:08Z</time>
      </trkpt>
      <trkpt lat="46.74541" lon="5.67403">
        <ele>516</ele>
        <time>2022-03-19T14:47:11Z</time>
      </trkpt>
      <trkpt lat="46.74537" lon="5.67398">
        <ele>516.2</ele>
        <time>2022-03-19T14:47:12Z</time>
      </trkpt>
      <trkpt lat="46.74524" lon="5.67377">
        <ele>516.8</ele>
        <time>2022-03-19T14:47:17Z</time>
      </trkpt>
      <trkpt lat="46.74523" lon="5.67373">
        <ele>517.4</ele>
        <time>2022-03-19T14:47:18Z</time>
      </trkpt>
      <trkpt lat="46.74519" lon="5.67361">
        <ele>518</ele>
        <time>2022-03-19T14:47:21Z</time>
      </trkpt>
      <trkpt lat="46.74515" lon="5.67355">
        <ele>518.4</ele>
        <time>2022-03-19T14:47:23Z</time>
      </trkpt>
      <trkpt lat="46.74511" lon="5.67351">
        <ele>518.6</ele>
        <time>2022-03-19T14:47:24Z</time>
      </trkpt>
      <trkpt lat="46.74507" lon="5.67345">
        <ele>519</ele>
        <time>2022-03-19T14:47:26Z</time>
      </trkpt>
      <trkpt lat="46.74504" lon="5.67339">
        <ele>519.6</ele>
        <time>2022-03-19T14:47:28Z</time>
      </trkpt>
      <trkpt lat="46.74494" lon="5.67323">
        <ele>520.6</ele>
        <time>2022-03-19T14:47:32Z</time>
      </trkpt>
      <trkpt lat="46.74488" lon="5.67317">
        <ele>520.8</ele>
        <time>2022-03-19T14:47:33Z</time>
      </trkpt>
      <trkpt lat="46.74478" lon="5.67296">
        <ele>522</ele>
        <time>2022-03-19T14:47:37Z</time>
      </trkpt>
      <trkpt lat="46.74463" lon="5.67266">
        <ele>522.8</ele>
        <time>2022-03-19T14:47:42Z</time>
      </trkpt>
      <trkpt lat="46.74462" lon="5.6726">
        <ele>523.2</ele>
        <time>2022-03-19T14:47:43Z</time>
      </trkpt>
      <trkpt lat="46.74448" lon="5.67241">
        <ele>524.4</ele>
        <time>2022-03-19T14:47:48Z</time>
      </trkpt>
      <trkpt lat="46.74438" lon="5.67238">
        <ele>525.2</ele>
        <time>2022-03-19T14:47:51Z</time>
      </trkpt>
      <trkpt lat="46.74435" lon="5.67241">
        <ele>525.4</ele>
        <time>2022-03-19T14:47:52Z</time>
      </trkpt>
      <trkpt lat="46.74425" lon="5.67264">
        <ele>526.4</ele>
        <time>2022-03-19T14:47:56Z</time>
      </trkpt>
      <trkpt lat="46.74425" lon="5.67264">
        <ele>526.6</ele>
        <time>2022-03-19T14:47:57Z</time>
      </trkpt>
      <trkpt lat="46.74416" lon="5.67286">
        <ele>527.6</ele>
        <time>2022-03-19T14:48:02Z</time>
      </trkpt>
      <trkpt lat="46.74407" lon="5.67302">
        <ele>529.2</ele>
        <time>2022-03-19T14:48:06Z</time>
      </trkpt>
      <trkpt lat="46.74397" lon="5.67317">
        <ele>530.6</ele>
        <time>2022-03-19T14:48:10Z</time>
      </trkpt>
      <trkpt lat="46.74388" lon="5.67329">
        <ele>531.8</ele>
        <time>2022-03-19T14:48:15Z</time>
      </trkpt>
      <trkpt lat="46.74386" lon="5.6733">
        <ele>532</ele>
        <time>2022-03-19T14:48:16Z</time>
      </trkpt>
      <trkpt lat="46.74383" lon="5.67333">
        <ele>532.8</ele>
        <time>2022-03-19T14:48:19Z</time>
      </trkpt>
      <trkpt lat="46.74379" lon="5.67335">
        <ele>533.2</ele>
        <time>2022-03-19T14:48:22Z</time>
      </trkpt>
      <trkpt lat="46.74367" lon="5.67331">
        <ele>533.4</ele>
        <time>2022-03-19T14:48:27Z</time>
      </trkpt>
      <trkpt lat="46.74367" lon="5.67331">
        <ele>533.6</ele>
        <time>2022-03-19T14:48:28Z</time>
      </trkpt>
      <trkpt lat="46.74361" lon="5.67323">
        <ele>533.8</ele>
        <time>2022-03-19T14:48:31Z</time>
      </trkpt>
      <trkpt lat="46.74357" lon="5.67318">
        <ele>534.4</ele>
        <time>2022-03-19T14:48:34Z</time>
      </trkpt>
      <trkpt lat="46.74351" lon="5.67315">
        <ele>534.8</ele>
        <time>2022-03-19T14:48:37Z</time>
      </trkpt>
      <trkpt lat="46.7435" lon="5.67315">
        <ele>535</ele>
        <time>2022-03-19T14:48:38Z</time>
      </trkpt>
      <trkpt lat="46.74347" lon="5.67318">
        <ele>535.2</ele>
        <time>2022-03-19T14:48:40Z</time>
      </trkpt>
      <trkpt lat="46.74345" lon="5.67322">
        <ele>535.4</ele>
        <time>2022-03-19T14:48:42Z</time>
      </trkpt>
      <trkpt lat="46.74339" lon="5.67327">
        <ele>535.8</ele>
        <time>2022-03-19T14:48:44Z</time>
      </trkpt>
      <trkpt lat="46.74337" lon="5.67329">
        <ele>535.8</ele>
        <time>2022-03-19T14:48:45Z</time>
      </trkpt>
      <trkpt lat="46.74322" lon="5.6734">
        <ele>536</ele>
        <time>2022-03-19T14:48:52Z</time>
      </trkpt>
      <trkpt lat="46.7429" lon="5.67348">
        <ele>536.2</ele>
        <time>2022-03-19T14:49:01Z</time>
      </trkpt>
      <trkpt lat="46.74284" lon="5.67349">
        <ele>536.4</ele>
        <time>2022-03-19T14:49:04Z</time>
      </trkpt>
      <trkpt lat="46.74281" lon="5.67353">
        <ele>536.4</ele>
        <time>2022-03-19T14:49:06Z</time>
      </trkpt>
      <trkpt lat="46.7428" lon="5.67355">
        <ele>536.8</ele>
        <time>2022-03-19T14:49:10Z</time>
      </trkpt>
      <trkpt lat="46.74275" lon="5.67355">
        <ele>536.6</ele>
        <time>2022-03-19T14:50:14Z</time>
      </trkpt>
      <trkpt lat="46.74272" lon="5.67356">
        <ele>536.4</ele>
        <time>2022-03-19T14:50:17Z</time>
      </trkpt>
      <trkpt lat="46.7427" lon="5.67355">
        <ele>536.6</ele>
        <time>2022-03-19T14:50:20Z</time>
      </trkpt>
      <trkpt lat="46.74261" lon="5.67355">
        <ele>538</ele>
        <time>2022-03-19T14:57:11Z</time>
      </trkpt>
      <trkpt lat="46.74258" lon="5.67354">
        <ele>538</ele>
        <time>2022-03-19T14:57:12Z</time>
      </trkpt>
      <trkpt lat="46.74237" lon="5.67347">
        <ele>538.2</ele>
        <time>2022-03-19T14:57:18Z</time>
      </trkpt>
      <trkpt lat="46.74213" lon="5.67343">
        <ele>538.8</ele>
        <time>2022-03-19T14:57:24Z</time>
      </trkpt>
      <trkpt lat="46.74203" lon="5.67345">
        <ele>539</ele>
        <time>2022-03-19T14:57:27Z</time>
      </trkpt>
      <trkpt lat="46.74194" lon="5.67349">
        <ele>539.4</ele>
        <time>2022-03-19T14:57:30Z</time>
      </trkpt>
      <trkpt lat="46.74175" lon="5.67362">
        <ele>539.8</ele>
        <time>2022-03-19T14:57:36Z</time>
      </trkpt>
      <trkpt lat="46.74149" lon="5.67388">
        <ele>539</ele>
        <time>2022-03-19T14:57:42Z</time>
      </trkpt>
      <trkpt lat="46.74124" lon="5.67415">
        <ele>538.2</ele>
        <time>2022-03-19T14:57:47Z</time>
      </trkpt>
      <trkpt lat="46.74115" lon="5.67421">
        <ele>538</ele>
        <time>2022-03-19T14:57:49Z</time>
      </trkpt>
      <trkpt lat="46.74099" lon="5.67427">
        <ele>537.6</ele>
        <time>2022-03-19T14:57:52Z</time>
      </trkpt>
      <trkpt lat="46.74073" lon="5.67429">
        <ele>537.6</ele>
        <time>2022-03-19T14:57:57Z</time>
      </trkpt>
      <trkpt lat="46.74059" lon="5.67427">
        <ele>537.8</ele>
        <time>2022-03-19T14:58:00Z</time>
      </trkpt>
      <trkpt lat="46.74039" lon="5.67426">
        <ele>537.6</ele>
        <time>2022-03-19T14:58:04Z</time>
      </trkpt>
      <trkpt lat="46.74029" lon="5.67431">
        <ele>537.6</ele>
        <time>2022-03-19T14:58:06Z</time>
      </trkpt>
      <trkpt lat="46.74017" lon="5.67439">
        <ele>537.4</ele>
        <time>2022-03-19T14:58:09Z</time>
      </trkpt>
      <trkpt lat="46.74009" lon="5.67448">
        <ele>537.4</ele>
        <time>2022-03-19T14:58:11Z</time>
      </trkpt>
      <trkpt lat="46.73974" lon="5.67488">
        <ele>538.2</ele>
        <time>2022-03-19T14:58:20Z</time>
      </trkpt>
      <trkpt lat="46.73965" lon="5.67503">
        <ele>538.6</ele>
        <time>2022-03-19T14:58:23Z</time>
      </trkpt>
      <trkpt lat="46.7396" lon="5.67515">
        <ele>538.8</ele>
        <time>2022-03-19T14:58:25Z</time>
      </trkpt>
      <trkpt lat="46.73954" lon="5.67532">
        <ele>539.2</ele>
        <time>2022-03-19T14:58:28Z</time>
      </trkpt>
      <trkpt lat="46.73951" lon="5.67536">
        <ele>539.4</ele>
        <time>2022-03-19T14:58:29Z</time>
      </trkpt>
      <trkpt lat="46.73948" lon="5.67547">
        <ele>539.6</ele>
        <time>2022-03-19T14:58:31Z</time>
      </trkpt>
      <trkpt lat="46.73945" lon="5.67558">
        <ele>540.4</ele>
        <time>2022-03-19T14:58:33Z</time>
      </trkpt>
      <trkpt lat="46.73938" lon="5.67582">
        <ele>541.6</ele>
        <time>2022-03-19T14:58:38Z</time>
      </trkpt>
      <trkpt lat="46.73934" lon="5.67601">
        <ele>543</ele>
        <time>2022-03-19T14:58:42Z</time>
      </trkpt>
      <trkpt lat="46.73932" lon="5.67615">
        <ele>544</ele>
        <time>2022-03-19T14:58:45Z</time>
      </trkpt>
      <trkpt lat="46.73924" lon="5.67652">
        <ele>545.2</ele>
        <time>2022-03-19T14:58:51Z</time>
      </trkpt>
      <trkpt lat="46.73922" lon="5.67658">
        <ele>545.4</ele>
        <time>2022-03-19T14:58:52Z</time>
      </trkpt>
      <trkpt lat="46.73918" lon="5.67697">
        <ele>546.4</ele>
        <time>2022-03-19T14:58:58Z</time>
      </trkpt>
      <trkpt lat="46.73917" lon="5.67702">
        <ele>546.6</ele>
        <time>2022-03-19T14:58:59Z</time>
      </trkpt>
      <trkpt lat="46.73913" lon="5.67725">
        <ele>547.6</ele>
        <time>2022-03-19T14:59:03Z</time>
      </trkpt>
      <trkpt lat="46.73912" lon="5.67731">
        <ele>547.6</ele>
        <time>2022-03-19T14:59:04Z</time>
      </trkpt>
      <trkpt lat="46.73904" lon="5.67762">
        <ele>548.2</ele>
        <time>2022-03-19T14:59:09Z</time>
      </trkpt>
      <trkpt lat="46.73902" lon="5.67774">
        <ele>548.2</ele>
        <time>2022-03-19T14:59:11Z</time>
      </trkpt>
      <trkpt lat="46.73896" lon="5.67795">
        <ele>548.2</ele>
        <time>2022-03-19T14:59:14Z</time>
      </trkpt>
      <trkpt lat="46.73888" lon="5.6783">
        <ele>548</ele>
        <time>2022-03-19T14:59:18Z</time>
      </trkpt>
      <trkpt lat="46.73878" lon="5.67872">
        <ele>546.6</ele>
        <time>2022-03-19T14:59:23Z</time>
      </trkpt>
      <trkpt lat="46.73872" lon="5.67895">
        <ele>546</ele>
        <time>2022-03-19T14:59:26Z</time>
      </trkpt>
      <trkpt lat="46.73863" lon="5.67933">
        <ele>545.6</ele>
        <time>2022-03-19T14:59:31Z</time>
      </trkpt>
      <trkpt lat="46.73857" lon="5.67961">
        <ele>545.8</ele>
        <time>2022-03-19T14:59:35Z</time>
      </trkpt>
      <trkpt lat="46.73849" lon="5.68024">
        <ele>546.2</ele>
        <time>2022-03-19T14:59:43Z</time>
      </trkpt>
      <trkpt lat="46.73847" lon="5.68097">
        <ele>546.4</ele>
        <time>2022-03-19T14:59:52Z</time>
      </trkpt>
      <trkpt lat="46.73849" lon="5.68109">
        <ele>546.4</ele>
        <time>2022-03-19T14:59:54Z</time>
      </trkpt>
      <trkpt lat="46.73853" lon="5.68123">
        <ele>546.4</ele>
        <time>2022-03-19T14:59:56Z</time>
      </trkpt>
      <trkpt lat="46.73859" lon="5.68133">
        <ele>546.2</ele>
        <time>2022-03-19T14:59:58Z</time>
      </trkpt>
      <trkpt lat="46.73866" lon="5.68142">
        <ele>546.2</ele>
        <time>2022-03-19T15:00:00Z</time>
      </trkpt>
      <trkpt lat="46.73868" lon="5.68146">
        <ele>546.2</ele>
        <time>2022-03-19T15:00:01Z</time>
      </trkpt>
      <trkpt lat="46.7387" lon="5.68153">
        <ele>546.2</ele>
        <time>2022-03-19T15:00:02Z</time>
      </trkpt>
      <trkpt lat="46.7387" lon="5.68173">
        <ele>546</ele>
        <time>2022-03-19T15:00:05Z</time>
      </trkpt>
      <trkpt lat="46.73862" lon="5.68218">
        <ele>546</ele>
        <time>2022-03-19T15:00:11Z</time>
      </trkpt>
      <trkpt lat="46.73857" lon="5.6824">
        <ele>546</ele>
        <time>2022-03-19T15:00:14Z</time>
      </trkpt>
      <trkpt lat="46.73853" lon="5.68277">
        <ele>546.8</ele>
        <time>2022-03-19T15:00:19Z</time>
      </trkpt>
      <trkpt lat="46.73852" lon="5.68292">
        <ele>547</ele>
        <time>2022-03-19T15:00:21Z</time>
      </trkpt>
      <trkpt lat="46.73853" lon="5.68318">
        <ele>547.2</ele>
        <time>2022-03-19T15:00:24Z</time>
      </trkpt>
      <trkpt lat="46.73854" lon="5.6834">
        <ele>548</ele>
        <time>2022-03-19T15:00:27Z</time>
      </trkpt>
      <trkpt lat="46.73855" lon="5.68384">
        <ele>549.2</ele>
        <time>2022-03-19T15:00:32Z</time>
      </trkpt>
      <trkpt lat="46.73848" lon="5.68448">
        <ele>549</ele>
        <time>2022-03-19T15:00:38Z</time>
      </trkpt>
      <trkpt lat="46.73843" lon="5.6849">
        <ele>548</ele>
        <time>2022-03-19T15:00:42Z</time>
      </trkpt>
      <trkpt lat="46.73842" lon="5.68521">
        <ele>547.4</ele>
        <time>2022-03-19T15:00:45Z</time>
      </trkpt>
      <trkpt lat="46.73834" lon="5.68571">
        <ele>547.2</ele>
        <time>2022-03-19T15:00:50Z</time>
      </trkpt>
      <trkpt lat="46.73825" lon="5.68633">
        <ele>547.6</ele>
        <time>2022-03-19T15:00:57Z</time>
      </trkpt>
      <trkpt lat="46.73815" lon="5.68702">
        <ele>547.6</ele>
        <time>2022-03-19T15:01:04Z</time>
      </trkpt>
      <trkpt lat="46.73813" lon="5.6871">
        <ele>547.4</ele>
        <time>2022-03-19T15:01:05Z</time>
      </trkpt>
      <trkpt lat="46.73811" lon="5.6872">
        <ele>547.2</ele>
        <time>2022-03-19T15:01:06Z</time>
      </trkpt>
      <trkpt lat="46.73807" lon="5.68731">
        <ele>547.2</ele>
        <time>2022-03-19T15:01:07Z</time>
      </trkpt>
      <trkpt lat="46.73798" lon="5.68753">
        <ele>546.8</ele>
        <time>2022-03-19T15:01:09Z</time>
      </trkpt>
      <trkpt lat="46.73793" lon="5.68766">
        <ele>546.6</ele>
        <time>2022-03-19T15:01:10Z</time>
      </trkpt>
      <trkpt lat="46.73788" lon="5.68787">
        <ele>545.8</ele>
        <time>2022-03-19T15:01:12Z</time>
      </trkpt>
      <trkpt lat="46.73785" lon="5.68801">
        <ele>545.4</ele>
        <time>2022-03-19T15:01:13Z</time>
      </trkpt>
      <trkpt lat="46.73775" lon="5.68843">
        <ele>544.6</ele>
        <time>2022-03-19T15:01:17Z</time>
      </trkpt>
      <trkpt lat="46.73768" lon="5.68865">
        <ele>544</ele>
        <time>2022-03-19T15:01:19Z</time>
      </trkpt>
      <trkpt lat="46.73757" lon="5.6889">
        <ele>544</ele>
        <time>2022-03-19T15:01:22Z</time>
      </trkpt>
      <trkpt lat="46.73753" lon="5.68897">
        <ele>544</ele>
        <time>2022-03-19T15:01:23Z</time>
      </trkpt>
      <trkpt lat="46.73733" lon="5.68933">
        <ele>544.8</ele>
        <time>2022-03-19T15:01:28Z</time>
      </trkpt>
      <trkpt lat="46.7373" lon="5.68941">
        <ele>545</ele>
        <time>2022-03-19T15:01:29Z</time>
      </trkpt>
      <trkpt lat="46.73723" lon="5.68964">
        <ele>545.8</ele>
        <time>2022-03-19T15:01:32Z</time>
      </trkpt>
      <trkpt lat="46.73719" lon="5.68985">
        <ele>546.4</ele>
        <time>2022-03-19T15:01:35Z</time>
      </trkpt>
      <trkpt lat="46.73715" lon="5.69003">
        <ele>546.8</ele>
        <time>2022-03-19T15:01:37Z</time>
      </trkpt>
      <trkpt lat="46.73706" lon="5.69033">
        <ele>547.6</ele>
        <time>2022-03-19T15:01:41Z</time>
      </trkpt>
      <trkpt lat="46.73703" lon="5.6904">
        <ele>547.8</ele>
        <time>2022-03-19T15:01:42Z</time>
      </trkpt>
      <trkpt lat="46.73698" lon="5.69054">
        <ele>547.8</ele>
        <time>2022-03-19T15:01:44Z</time>
      </trkpt>
      <trkpt lat="46.73685" lon="5.69088">
        <ele>548.4</ele>
        <time>2022-03-19T15:01:49Z</time>
      </trkpt>
      <trkpt lat="46.73678" lon="5.69119">
        <ele>548.8</ele>
        <time>2022-03-19T15:01:53Z</time>
      </trkpt>
      <trkpt lat="46.73677" lon="5.69127">
        <ele>548.8</ele>
        <time>2022-03-19T15:01:54Z</time>
      </trkpt>
      <trkpt lat="46.73677" lon="5.69151">
        <ele>549.2</ele>
        <time>2022-03-19T15:01:57Z</time>
      </trkpt>
      <trkpt lat="46.73678" lon="5.69167">
        <ele>549.4</ele>
        <time>2022-03-19T15:01:59Z</time>
      </trkpt>
      <trkpt lat="46.73679" lon="5.69181">
        <ele>549.8</ele>
        <time>2022-03-19T15:02:01Z</time>
      </trkpt>
      <trkpt lat="46.73683" lon="5.69201">
        <ele>550.6</ele>
        <time>2022-03-19T15:02:04Z</time>
      </trkpt>
      <trkpt lat="46.73685" lon="5.6922">
        <ele>551.8</ele>
        <time>2022-03-19T15:02:07Z</time>
      </trkpt>
      <trkpt lat="46.73686" lon="5.69229">
        <ele>551.8</ele>
        <time>2022-03-19T15:02:08Z</time>
      </trkpt>
      <trkpt lat="46.73687" lon="5.6927">
        <ele>552.8</ele>
        <time>2022-03-19T15:02:14Z</time>
      </trkpt>
      <trkpt lat="46.73686" lon="5.69289">
        <ele>553</ele>
        <time>2022-03-19T15:02:17Z</time>
      </trkpt>
      <trkpt lat="46.73684" lon="5.69316">
        <ele>554</ele>
        <time>2022-03-19T15:02:21Z</time>
      </trkpt>
      <trkpt lat="46.7368" lon="5.69347">
        <ele>554.8</ele>
        <time>2022-03-19T15:02:26Z</time>
      </trkpt>
      <trkpt lat="46.73679" lon="5.69354">
        <ele>555.2</ele>
        <time>2022-03-19T15:02:27Z</time>
      </trkpt>
      <trkpt lat="46.73675" lon="5.69379">
        <ele>555.6</ele>
        <time>2022-03-19T15:02:31Z</time>
      </trkpt>
      <trkpt lat="46.73671" lon="5.69419">
        <ele>556</ele>
        <time>2022-03-19T15:02:37Z</time>
      </trkpt>
      <trkpt lat="46.73662" lon="5.69457">
        <ele>556.2</ele>
        <time>2022-03-19T15:02:42Z</time>
      </trkpt>
      <trkpt lat="46.7366" lon="5.69463">
        <ele>556</ele>
        <time>2022-03-19T15:02:43Z</time>
      </trkpt>
      <trkpt lat="46.73648" lon="5.69489">
        <ele>555.6</ele>
        <time>2022-03-19T15:02:46Z</time>
      </trkpt>
      <trkpt lat="46.73641" lon="5.69504">
        <ele>555</ele>
        <time>2022-03-19T15:02:48Z</time>
      </trkpt>
      <trkpt lat="46.7363" lon="5.69521">
        <ele>554.4</ele>
        <time>2022-03-19T15:02:50Z</time>
      </trkpt>
      <trkpt lat="46.73619" lon="5.69539">
        <ele>553.2</ele>
        <time>2022-03-19T15:02:52Z</time>
      </trkpt>
      <trkpt lat="46.73616" lon="5.69548">
        <ele>552.8</ele>
        <time>2022-03-19T15:02:53Z</time>
      </trkpt>
      <trkpt lat="46.73604" lon="5.69581">
        <ele>551.6</ele>
        <time>2022-03-19T15:02:56Z</time>
      </trkpt>
      <trkpt lat="46.73596" lon="5.69599">
        <ele>550.8</ele>
        <time>2022-03-19T15:02:58Z</time>
      </trkpt>
      <trkpt lat="46.7359" lon="5.69609">
        <ele>550.4</ele>
        <time>2022-03-19T15:02:59Z</time>
      </trkpt>
      <trkpt lat="46.73574" lon="5.69638">
        <ele>550</ele>
        <time>2022-03-19T15:03:02Z</time>
      </trkpt>
      <trkpt lat="46.73564" lon="5.69658">
        <ele>549.4</ele>
        <time>2022-03-19T15:03:04Z</time>
      </trkpt>
      <trkpt lat="46.7356" lon="5.69668">
        <ele>549</ele>
        <time>2022-03-19T15:03:05Z</time>
      </trkpt>
      <trkpt lat="46.73554" lon="5.69686">
        <ele>548.4</ele>
        <time>2022-03-19T15:03:07Z</time>
      </trkpt>
      <trkpt lat="46.73551" lon="5.69696">
        <ele>548.2</ele>
        <time>2022-03-19T15:03:08Z</time>
      </trkpt>
      <trkpt lat="46.73538" lon="5.69734">
        <ele>548.2</ele>
        <time>2022-03-19T15:03:12Z</time>
      </trkpt>
      <trkpt lat="46.73532" lon="5.69754">
        <ele>548.2</ele>
        <time>2022-03-19T15:03:14Z</time>
      </trkpt>
      <trkpt lat="46.73526" lon="5.69774">
        <ele>548.4</ele>
        <time>2022-03-19T15:03:17Z</time>
      </trkpt>
      <trkpt lat="46.73522" lon="5.69786">
        <ele>548.4</ele>
        <time>2022-03-19T15:03:19Z</time>
      </trkpt>
      <trkpt lat="46.73518" lon="5.69792">
        <ele>548.4</ele>
        <time>2022-03-19T15:03:21Z</time>
      </trkpt>
      <trkpt lat="46.7351" lon="5.69797">
        <ele>549</ele>
        <time>2022-03-19T15:03:25Z</time>
      </trkpt>
      <trkpt lat="46.73509" lon="5.69798">
        <ele>549</ele>
        <time>2022-03-19T15:03:29Z</time>
      </trkpt>
      <trkpt lat="46.73505" lon="5.69794">
        <ele>548.8</ele>
        <time>2022-03-19T15:03:48Z</time>
      </trkpt>
      <trkpt lat="46.73494" lon="5.6978">
        <ele>548.6</ele>
        <time>2022-03-19T15:03:53Z</time>
      </trkpt>
      <trkpt lat="46.73485" lon="5.69771">
        <ele>548.4</ele>
        <time>2022-03-19T15:03:55Z</time>
      </trkpt>
      <trkpt lat="46.73472" lon="5.69762">
        <ele>548.2</ele>
        <time>2022-03-19T15:03:58Z</time>
      </trkpt>
      <trkpt lat="46.7344" lon="5.69739">
        <ele>547.4</ele>
        <time>2022-03-19T15:04:04Z</time>
      </trkpt>
      <trkpt lat="46.73435" lon="5.69735">
        <ele>547.4</ele>
        <time>2022-03-19T15:04:05Z</time>
      </trkpt>
      <trkpt lat="46.734" lon="5.69707">
        <ele>547.6</ele>
        <time>2022-03-19T15:04:13Z</time>
      </trkpt>
      <trkpt lat="46.73379" lon="5.6969">
        <ele>548.6</ele>
        <time>2022-03-19T15:04:18Z</time>
      </trkpt>
      <trkpt lat="46.73364" lon="5.69679">
        <ele>549.4</ele>
        <time>2022-03-19T15:04:22Z</time>
      </trkpt>
      <trkpt lat="46.73322" lon="5.69648">
        <ele>549.4</ele>
        <time>2022-03-19T15:04:28Z</time>
      </trkpt>
      <trkpt lat="46.73307" lon="5.69635">
        <ele>549</ele>
        <time>2022-03-19T15:04:31Z</time>
      </trkpt>
      <trkpt lat="46.73299" lon="5.69619">
        <ele>548.8</ele>
        <time>2022-03-19T15:04:33Z</time>
      </trkpt>
      <trkpt lat="46.73297" lon="5.69603">
        <ele>548.8</ele>
        <time>2022-03-19T15:04:35Z</time>
      </trkpt>
      <trkpt lat="46.73297" lon="5.69584">
        <ele>548.8</ele>
        <time>2022-03-19T15:04:37Z</time>
      </trkpt>
      <trkpt lat="46.73301" lon="5.69503">
        <ele>549</ele>
        <time>2022-03-19T15:04:46Z</time>
      </trkpt>
      <trkpt lat="46.73302" lon="5.69477">
        <ele>549</ele>
        <time>2022-03-19T15:04:49Z</time>
      </trkpt>
      <trkpt lat="46.73305" lon="5.69415">
        <ele>548.8</ele>
        <time>2022-03-19T15:04:56Z</time>
      </trkpt>
      <trkpt lat="46.73304" lon="5.69406">
        <ele>548.8</ele>
        <time>2022-03-19T15:04:57Z</time>
      </trkpt>
      <trkpt lat="46.73306" lon="5.69348">
        <ele>549.8</ele>
        <time>2022-03-19T15:05:04Z</time>
      </trkpt>
      <trkpt lat="46.7331" lon="5.69301">
        <ele>551</ele>
        <time>2022-03-19T15:05:10Z</time>
      </trkpt>
      <trkpt lat="46.7331" lon="5.69293">
        <ele>551.2</ele>
        <time>2022-03-19T15:05:11Z</time>
      </trkpt>
      <trkpt lat="46.73311" lon="5.69249">
        <ele>552.4</ele>
        <time>2022-03-19T15:05:17Z</time>
      </trkpt>
      <trkpt lat="46.73312" lon="5.69241">
        <ele>552.6</ele>
        <time>2022-03-19T15:05:18Z</time>
      </trkpt>
      <trkpt lat="46.73313" lon="5.69224">
        <ele>553</ele>
        <time>2022-03-19T15:05:20Z</time>
      </trkpt>
      <trkpt lat="46.73313" lon="5.69218">
        <ele>553.4</ele>
        <time>2022-03-19T15:05:22Z</time>
      </trkpt>
      <trkpt lat="46.73309" lon="5.69157">
        <ele>554.4</ele>
        <time>2022-03-19T15:05:28Z</time>
      </trkpt>
      <trkpt lat="46.73294" lon="5.69096">
        <ele>554.2</ele>
        <time>2022-03-19T15:05:35Z</time>
      </trkpt>
      <trkpt lat="46.73281" lon="5.69044">
        <ele>553.2</ele>
        <time>2022-03-19T15:05:40Z</time>
      </trkpt>
      <trkpt lat="46.73271" lon="5.69006">
        <ele>552.2</ele>
        <time>2022-03-19T15:05:43Z</time>
      </trkpt>
      <trkpt lat="46.73262" lon="5.68968">
        <ele>551.6</ele>
        <time>2022-03-19T15:05:46Z</time>
      </trkpt>
      <trkpt lat="46.73259" lon="5.68955">
        <ele>551.2</ele>
        <time>2022-03-19T15:05:47Z</time>
      </trkpt>
      <trkpt lat="46.73254" lon="5.68931">
        <ele>550.2</ele>
        <time>2022-03-19T15:05:49Z</time>
      </trkpt>
      <trkpt lat="46.73252" lon="5.68915">
        <ele>549.6</ele>
        <time>2022-03-19T15:05:50Z</time>
      </trkpt>
      <trkpt lat="46.73251" lon="5.68904">
        <ele>549.2</ele>
        <time>2022-03-19T15:05:51Z</time>
      </trkpt>
      <trkpt lat="46.73252" lon="5.68888">
        <ele>548.8</ele>
        <time>2022-03-19T15:05:52Z</time>
      </trkpt>
      <trkpt lat="46.73257" lon="5.68834">
        <ele>547.8</ele>
        <time>2022-03-19T15:05:56Z</time>
      </trkpt>
      <trkpt lat="46.73262" lon="5.68793">
        <ele>546.4</ele>
        <time>2022-03-19T15:05:59Z</time>
      </trkpt>
      <trkpt lat="46.73266" lon="5.68749">
        <ele>545.4</ele>
        <time>2022-03-19T15:06:02Z</time>
      </trkpt>
      <trkpt lat="46.73266" lon="5.68735">
        <ele>544.8</ele>
        <time>2022-03-19T15:06:03Z</time>
      </trkpt>
      <trkpt lat="46.73265" lon="5.68717">
        <ele>544.4</ele>
        <time>2022-03-19T15:06:04Z</time>
      </trkpt>
      <trkpt lat="46.73263" lon="5.68707">
        <ele>543.6</ele>
        <time>2022-03-19T15:06:05Z</time>
      </trkpt>
      <trkpt lat="46.73259" lon="5.68692">
        <ele>543</ele>
        <time>2022-03-19T15:06:06Z</time>
      </trkpt>
      <trkpt lat="46.73251" lon="5.68672">
        <ele>542.6</ele>
        <time>2022-03-19T15:06:08Z</time>
      </trkpt>
      <trkpt lat="46.73211" lon="5.68603">
        <ele>542.4</ele>
        <time>2022-03-19T15:06:15Z</time>
      </trkpt>
      <trkpt lat="46.73168" lon="5.68552">
        <ele>541.8</ele>
        <time>2022-03-19T15:06:22Z</time>
      </trkpt>
      <trkpt lat="46.73136" lon="5.68515">
        <ele>542.6</ele>
        <time>2022-03-19T15:06:28Z</time>
      </trkpt>
      <trkpt lat="46.73114" lon="5.68485">
        <ele>543.8</ele>
        <time>2022-03-19T15:06:33Z</time>
      </trkpt>
      <trkpt lat="46.73109" lon="5.68477">
        <ele>544</ele>
        <time>2022-03-19T15:06:34Z</time>
      </trkpt>
      <trkpt lat="46.73101" lon="5.68465">
        <ele>544.8</ele>
        <time>2022-03-19T15:06:36Z</time>
      </trkpt>
      <trkpt lat="46.73081" lon="5.68424">
        <ele>545.6</ele>
        <time>2022-03-19T15:06:41Z</time>
      </trkpt>
      <trkpt lat="46.73049" lon="5.68354">
        <ele>545.4</ele>
        <time>2022-03-19T15:06:49Z</time>
      </trkpt>
      <trkpt lat="46.73045" lon="5.68344">
        <ele>545.4</ele>
        <time>2022-03-19T15:06:50Z</time>
      </trkpt>
      <trkpt lat="46.73009" lon="5.68275">
        <ele>544</ele>
        <time>2022-03-19T15:06:57Z</time>
      </trkpt>
      <trkpt lat="46.73005" lon="5.68268">
        <ele>543.8</ele>
        <time>2022-03-19T15:06:58Z</time>
      </trkpt>
      <trkpt lat="46.72999" lon="5.68261">
        <ele>543.8</ele>
        <time>2022-03-19T15:06:59Z</time>
      </trkpt>
      <trkpt lat="46.72985" lon="5.68247">
        <ele>543.6</ele>
        <time>2022-03-19T15:07:01Z</time>
      </trkpt>
      <trkpt lat="46.72979" lon="5.68243">
        <ele>543.6</ele>
        <time>2022-03-19T15:07:02Z</time>
      </trkpt>
      <trkpt lat="46.72935" lon="5.68227">
        <ele>543</ele>
        <time>2022-03-19T15:07:07Z</time>
      </trkpt>
      <trkpt lat="46.72926" lon="5.68224">
        <ele>542.8</ele>
        <time>2022-03-19T15:07:08Z</time>
      </trkpt>
      <trkpt lat="46.72891" lon="5.68204">
        <ele>541.6</ele>
        <time>2022-03-19T15:07:12Z</time>
      </trkpt>
      <trkpt lat="46.72865" lon="5.68179">
        <ele>540.6</ele>
        <time>2022-03-19T15:07:15Z</time>
      </trkpt>
      <trkpt lat="46.72852" lon="5.68164">
        <ele>540</ele>
        <time>2022-03-19T15:07:17Z</time>
      </trkpt>
      <trkpt lat="46.72826" lon="5.6814">
        <ele>539.4</ele>
        <time>2022-03-19T15:07:20Z</time>
      </trkpt>
      <trkpt lat="46.72809" lon="5.68128">
        <ele>538.6</ele>
        <time>2022-03-19T15:07:22Z</time>
      </trkpt>
      <trkpt lat="46.728" lon="5.68121">
        <ele>538.2</ele>
        <time>2022-03-19T15:07:23Z</time>
      </trkpt>
      <trkpt lat="46.72771" lon="5.68106">
        <ele>537.2</ele>
        <time>2022-03-19T15:07:26Z</time>
      </trkpt>
      <trkpt lat="46.7276" lon="5.68101">
        <ele>537</ele>
        <time>2022-03-19T15:07:27Z</time>
      </trkpt>
      <trkpt lat="46.72718" lon="5.68083">
        <ele>536.6</ele>
        <time>2022-03-19T15:07:32Z</time>
      </trkpt>
      <trkpt lat="46.72704" lon="5.68069">
        <ele>536.6</ele>
        <time>2022-03-19T15:07:34Z</time>
      </trkpt>
      <trkpt lat="46.72693" lon="5.68053">
        <ele>536.6</ele>
        <time>2022-03-19T15:07:36Z</time>
      </trkpt>
      <trkpt lat="46.72661" lon="5.67996">
        <ele>536.6</ele>
        <time>2022-03-19T15:07:41Z</time>
      </trkpt>
      <trkpt lat="46.7265" lon="5.67969">
        <ele>536</ele>
        <time>2022-03-19T15:07:43Z</time>
      </trkpt>
      <trkpt lat="46.72642" lon="5.67945">
        <ele>534.4</ele>
        <time>2022-03-19T15:07:45Z</time>
      </trkpt>
      <trkpt lat="46.72638" lon="5.67931">
        <ele>534</ele>
        <time>2022-03-19T15:07:46Z</time>
      </trkpt>
      <trkpt lat="46.72632" lon="5.67903">
        <ele>533</ele>
        <time>2022-03-19T15:07:48Z</time>
      </trkpt>
      <trkpt lat="46.72625" lon="5.67862">
        <ele>531.6</ele>
        <time>2022-03-19T15:07:51Z</time>
      </trkpt>
      <trkpt lat="46.72616" lon="5.67803">
        <ele>531.4</ele>
        <time>2022-03-19T15:07:56Z</time>
      </trkpt>
      <trkpt lat="46.72607" lon="5.67763">
        <ele>533.2</ele>
        <time>2022-03-19T15:08:00Z</time>
      </trkpt>
      <trkpt lat="46.72601" lon="5.67744">
        <ele>534.2</ele>
        <time>2022-03-19T15:08:02Z</time>
      </trkpt>
      <trkpt lat="46.72598" lon="5.67737">
        <ele>534.4</ele>
        <time>2022-03-19T15:08:03Z</time>
      </trkpt>
      <trkpt lat="46.72583" lon="5.677">
        <ele>535.6</ele>
        <time>2022-03-19T15:08:07Z</time>
      </trkpt>
      <trkpt lat="46.72579" lon="5.6769">
        <ele>535.8</ele>
        <time>2022-03-19T15:08:08Z</time>
      </trkpt>
      <trkpt lat="46.7255" lon="5.67618">
        <ele>536</ele>
        <time>2022-03-19T15:08:15Z</time>
      </trkpt>
      <trkpt lat="46.72543" lon="5.676">
        <ele>536</ele>
        <time>2022-03-19T15:08:17Z</time>
      </trkpt>
      <trkpt lat="46.72521" lon="5.67544">
        <ele>536.2</ele>
        <time>2022-03-19T15:08:23Z</time>
      </trkpt>
      <trkpt lat="46.72511" lon="5.6752">
        <ele>536.8</ele>
        <time>2022-03-19T15:08:26Z</time>
      </trkpt>
      <trkpt lat="46.72492" lon="5.6748">
        <ele>537.6</ele>
        <time>2022-03-19T15:08:31Z</time>
      </trkpt>
      <trkpt lat="46.72488" lon="5.67474">
        <ele>537.8</ele>
        <time>2022-03-19T15:08:32Z</time>
      </trkpt>
      <trkpt lat="46.7247" lon="5.6745">
        <ele>538.6</ele>
        <time>2022-03-19T15:08:36Z</time>
      </trkpt>
      <trkpt lat="46.72463" lon="5.67444">
        <ele>539</ele>
        <time>2022-03-19T15:08:37Z</time>
      </trkpt>
      <trkpt lat="46.72439" lon="5.67423">
        <ele>540</ele>
        <time>2022-03-19T15:08:41Z</time>
      </trkpt>
      <trkpt lat="46.7239" lon="5.67382">
        <ele>539</ele>
        <time>2022-03-19T15:08:48Z</time>
      </trkpt>
      <trkpt lat="46.72383" lon="5.67377">
        <ele>538.8</ele>
        <time>2022-03-19T15:08:49Z</time>
      </trkpt>
      <trkpt lat="46.72329" lon="5.67332">
        <ele>538.6</ele>
        <time>2022-03-19T15:08:57Z</time>
      </trkpt>
      <trkpt lat="46.72291" lon="5.67288">
        <ele>538.4</ele>
        <time>2022-03-19T15:09:03Z</time>
      </trkpt>
      <trkpt lat="46.72283" lon="5.67279">
        <ele>538.2</ele>
        <time>2022-03-19T15:09:04Z</time>
      </trkpt>
      <trkpt lat="46.72276" lon="5.67272">
        <ele>537.8</ele>
        <time>2022-03-19T15:09:05Z</time>
      </trkpt>
      <trkpt lat="46.72268" lon="5.67266">
        <ele>537.4</ele>
        <time>2022-03-19T15:09:06Z</time>
      </trkpt>
      <trkpt lat="46.72259" lon="5.67262">
        <ele>537.2</ele>
        <time>2022-03-19T15:09:07Z</time>
      </trkpt>
      <trkpt lat="46.7225" lon="5.67259">
        <ele>537</ele>
        <time>2022-03-19T15:09:08Z</time>
      </trkpt>
      <trkpt lat="46.72233" lon="5.67258">
        <ele>536.8</ele>
        <time>2022-03-19T15:09:10Z</time>
      </trkpt>
      <trkpt lat="46.72225" lon="5.67259">
        <ele>536.4</ele>
        <time>2022-03-19T15:09:11Z</time>
      </trkpt>
      <trkpt lat="46.72201" lon="5.67268">
        <ele>536.6</ele>
        <time>2022-03-19T15:09:14Z</time>
      </trkpt>
      <trkpt lat="46.72153" lon="5.67282">
        <ele>537.2</ele>
        <time>2022-03-19T15:09:20Z</time>
      </trkpt>
      <trkpt lat="46.72123" lon="5.67279">
        <ele>537.6</ele>
        <time>2022-03-19T15:09:24Z</time>
      </trkpt>
      <trkpt lat="46.72116" lon="5.67277">
        <ele>537.8</ele>
        <time>2022-03-19T15:09:25Z</time>
      </trkpt>
      <trkpt lat="46.72104" lon="5.67273">
        <ele>538.2</ele>
        <time>2022-03-19T15:09:27Z</time>
      </trkpt>
      <trkpt lat="46.72097" lon="5.67269">
        <ele>538.4</ele>
        <time>2022-03-19T15:09:28Z</time>
      </trkpt>
      <trkpt lat="46.72072" lon="5.67254">
        <ele>539.2</ele>
        <time>2022-03-19T15:09:32Z</time>
      </trkpt>
      <trkpt lat="46.72053" lon="5.67243">
        <ele>539.6</ele>
        <time>2022-03-19T15:09:35Z</time>
      </trkpt>
      <trkpt lat="46.72018" lon="5.67219">
        <ele>540</ele>
        <time>2022-03-19T15:09:40Z</time>
      </trkpt>
      <trkpt lat="46.71966" lon="5.67187">
        <ele>540</ele>
        <time>2022-03-19T15:09:47Z</time>
      </trkpt>
      <trkpt lat="46.71913" lon="5.6715">
        <ele>539.4</ele>
        <time>2022-03-19T15:09:54Z</time>
      </trkpt>
      <trkpt lat="46.71885" lon="5.67131">
        <ele>539.2</ele>
        <time>2022-03-19T15:09:58Z</time>
      </trkpt>
      <trkpt lat="46.71832" lon="5.67094">
        <ele>539.4</ele>
        <time>2022-03-19T15:10:06Z</time>
      </trkpt>
      <trkpt lat="46.71784" lon="5.67061">
        <ele>539.6</ele>
        <time>2022-03-19T15:10:12Z</time>
      </trkpt>
      <trkpt lat="46.71734" lon="5.67026">
        <ele>538.4</ele>
        <time>2022-03-19T15:10:18Z</time>
      </trkpt>
      <trkpt lat="46.71719" lon="5.67015">
        <ele>538</ele>
        <time>2022-03-19T15:10:20Z</time>
      </trkpt>
      <trkpt lat="46.71674" lon="5.66985">
        <ele>537.2</ele>
        <time>2022-03-19T15:10:25Z</time>
      </trkpt>
      <trkpt lat="46.71647" lon="5.66966">
        <ele>536.8</ele>
        <time>2022-03-19T15:10:28Z</time>
      </trkpt>
      <trkpt lat="46.7161" lon="5.6694">
        <ele>536.6</ele>
        <time>2022-03-19T15:10:33Z</time>
      </trkpt>
      <trkpt lat="46.71566" lon="5.66909">
        <ele>536.6</ele>
        <time>2022-03-19T15:10:39Z</time>
      </trkpt>
      <trkpt lat="46.71511" lon="5.66871">
        <ele>536.6</ele>
        <time>2022-03-19T15:10:46Z</time>
      </trkpt>
      <trkpt lat="46.71497" lon="5.66862">
        <ele>536.6</ele>
        <time>2022-03-19T15:10:48Z</time>
      </trkpt>
      <trkpt lat="46.71443" lon="5.66825">
        <ele>536.6</ele>
        <time>2022-03-19T15:10:55Z</time>
      </trkpt>
      <trkpt lat="46.71415" lon="5.66806">
        <ele>536.8</ele>
        <time>2022-03-19T15:10:59Z</time>
      </trkpt>
      <trkpt lat="46.71362" lon="5.6677">
        <ele>536.8</ele>
        <time>2022-03-19T15:11:06Z</time>
      </trkpt>
      <trkpt lat="46.71348" lon="5.6676">
        <ele>536.2</ele>
        <time>2022-03-19T15:11:08Z</time>
      </trkpt>
      <trkpt lat="46.71323" lon="5.66743">
        <ele>535.2</ele>
        <time>2022-03-19T15:11:11Z</time>
      </trkpt>
      <trkpt lat="46.7129" lon="5.6672">
        <ele>534.2</ele>
        <time>2022-03-19T15:11:15Z</time>
      </trkpt>
      <trkpt lat="46.7128" lon="5.66713">
        <ele>534</ele>
        <time>2022-03-19T15:11:16Z</time>
      </trkpt>
      <trkpt lat="46.71263" lon="5.66702">
        <ele>532.8</ele>
        <time>2022-03-19T15:11:18Z</time>
      </trkpt>
      <trkpt lat="46.71229" lon="5.66679">
        <ele>531.8</ele>
        <time>2022-03-19T15:11:22Z</time>
      </trkpt>
      <trkpt lat="46.71212" lon="5.66667">
        <ele>531.4</ele>
        <time>2022-03-19T15:11:24Z</time>
      </trkpt>
      <trkpt lat="46.71203" lon="5.66661">
        <ele>530.8</ele>
        <time>2022-03-19T15:11:25Z</time>
      </trkpt>
      <trkpt lat="46.71166" lon="5.66636">
        <ele>529.6</ele>
        <time>2022-03-19T15:11:29Z</time>
      </trkpt>
      <trkpt lat="46.71139" lon="5.66617">
        <ele>528.4</ele>
        <time>2022-03-19T15:11:32Z</time>
      </trkpt>
      <trkpt lat="46.7113" lon="5.66611">
        <ele>528.4</ele>
        <time>2022-03-19T15:11:33Z</time>
      </trkpt>
      <trkpt lat="46.71114" lon="5.666">
        <ele>527.4</ele>
        <time>2022-03-19T15:11:35Z</time>
      </trkpt>
      <trkpt lat="46.7108" lon="5.66576">
        <ele>526.6</ele>
        <time>2022-03-19T15:11:39Z</time>
      </trkpt>
      <trkpt lat="46.71054" lon="5.66559">
        <ele>526</ele>
        <time>2022-03-19T15:11:42Z</time>
      </trkpt>
      <trkpt lat="46.71001" lon="5.66522">
        <ele>526</ele>
        <time>2022-03-19T15:11:49Z</time>
      </trkpt>
      <trkpt lat="46.70947" lon="5.66487">
        <ele>526</ele>
        <time>2022-03-19T15:11:56Z</time>
      </trkpt>
      <trkpt lat="46.70924" lon="5.66471">
        <ele>526.2</ele>
        <time>2022-03-19T15:11:59Z</time>
      </trkpt>
      <trkpt lat="46.70872" lon="5.66436">
        <ele>526.6</ele>
        <time>2022-03-19T15:12:06Z</time>
      </trkpt>
      <trkpt lat="46.70839" lon="5.66416">
        <ele>526.6</ele>
        <time>2022-03-19T15:12:11Z</time>
      </trkpt>
      <trkpt lat="46.70794" lon="5.66386">
        <ele>527.4</ele>
        <time>2022-03-19T15:12:18Z</time>
      </trkpt>
      <trkpt lat="46.70788" lon="5.66381">
        <ele>527.6</ele>
        <time>2022-03-19T15:12:19Z</time>
      </trkpt>
      <trkpt lat="46.70754" lon="5.66355">
        <ele>528.2</ele>
        <time>2022-03-19T15:12:25Z</time>
      </trkpt>
      <trkpt lat="46.70717" lon="5.66329">
        <ele>528.6</ele>
        <time>2022-03-19T15:12:31Z</time>
      </trkpt>
      <trkpt lat="46.70711" lon="5.66325">
        <ele>528.8</ele>
        <time>2022-03-19T15:12:32Z</time>
      </trkpt>
      <trkpt lat="46.70672" lon="5.66307">
        <ele>529.8</ele>
        <time>2022-03-19T15:12:38Z</time>
      </trkpt>
      <trkpt lat="46.70663" lon="5.66304">
        <ele>529.8</ele>
        <time>2022-03-19T15:12:39Z</time>
      </trkpt>
      <trkpt lat="46.70636" lon="5.66296">
        <ele>530.4</ele>
        <time>2022-03-19T15:12:43Z</time>
      </trkpt>
      <trkpt lat="46.70621" lon="5.66294">
        <ele>530.2</ele>
        <time>2022-03-19T15:12:45Z</time>
      </trkpt>
      <trkpt lat="46.70565" lon="5.66287">
        <ele>530</ele>
        <time>2022-03-19T15:12:52Z</time>
      </trkpt>
      <trkpt lat="46.70557" lon="5.66286">
        <ele>529.8</ele>
        <time>2022-03-19T15:12:53Z</time>
      </trkpt>
      <trkpt lat="46.70499" lon="5.66279">
        <ele>529.2</ele>
        <time>2022-03-19T15:13:00Z</time>
      </trkpt>
      <trkpt lat="46.70475" lon="5.66276">
        <ele>529.2</ele>
        <time>2022-03-19T15:13:03Z</time>
      </trkpt>
      <trkpt lat="46.70425" lon="5.66267">
        <ele>529.4</ele>
        <time>2022-03-19T15:13:10Z</time>
      </trkpt>
      <trkpt lat="46.70389" lon="5.66259">
        <ele>530</ele>
        <time>2022-03-19T15:13:15Z</time>
      </trkpt>
      <trkpt lat="46.70352" lon="5.66249">
        <ele>531</ele>
        <time>2022-03-19T15:13:20Z</time>
      </trkpt>
      <trkpt lat="46.70339" lon="5.66243">
        <ele>531.2</ele>
        <time>2022-03-19T15:13:22Z</time>
      </trkpt>
      <trkpt lat="46.70315" lon="5.66228">
        <ele>532</ele>
        <time>2022-03-19T15:13:26Z</time>
      </trkpt>
      <trkpt lat="46.70303" lon="5.66219">
        <ele>532.8</ele>
        <time>2022-03-19T15:13:28Z</time>
      </trkpt>
      <trkpt lat="46.70291" lon="5.66212">
        <ele>533.2</ele>
        <time>2022-03-19T15:13:30Z</time>
      </trkpt>
      <trkpt lat="46.70279" lon="5.66209">
        <ele>533.6</ele>
        <time>2022-03-19T15:13:32Z</time>
      </trkpt>
      <trkpt lat="46.70272" lon="5.66208">
        <ele>534.2</ele>
        <time>2022-03-19T15:13:33Z</time>
      </trkpt>
      <trkpt lat="46.70265" lon="5.66209">
        <ele>534.2</ele>
        <time>2022-03-19T15:13:34Z</time>
      </trkpt>
      <trkpt lat="46.70259" lon="5.66209">
        <ele>534.4</ele>
        <time>2022-03-19T15:13:35Z</time>
      </trkpt>
      <trkpt lat="46.70239" lon="5.66215">
        <ele>535.2</ele>
        <time>2022-03-19T15:13:38Z</time>
      </trkpt>
      <trkpt lat="46.70232" lon="5.66218">
        <ele>535.4</ele>
        <time>2022-03-19T15:13:39Z</time>
      </trkpt>
      <trkpt lat="46.70195" lon="5.6623">
        <ele>535.6</ele>
        <time>2022-03-19T15:13:44Z</time>
      </trkpt>
      <trkpt lat="46.70175" lon="5.66231">
        <ele>535.2</ele>
        <time>2022-03-19T15:13:46Z</time>
      </trkpt>
      <trkpt lat="46.70167" lon="5.6623">
        <ele>535</ele>
        <time>2022-03-19T15:13:47Z</time>
      </trkpt>
      <trkpt lat="46.70157" lon="5.66227">
        <ele>534.8</ele>
        <time>2022-03-19T15:13:48Z</time>
      </trkpt>
      <trkpt lat="46.70131" lon="5.66212">
        <ele>534.4</ele>
        <time>2022-03-19T15:13:51Z</time>
      </trkpt>
      <trkpt lat="46.70099" lon="5.6619">
        <ele>534.2</ele>
        <time>2022-03-19T15:13:56Z</time>
      </trkpt>
      <trkpt lat="46.70087" lon="5.66188">
        <ele>534.4</ele>
        <time>2022-03-19T15:13:58Z</time>
      </trkpt>
      <trkpt lat="46.70076" lon="5.66191">
        <ele>534.8</ele>
        <time>2022-03-19T15:14:00Z</time>
      </trkpt>
      <trkpt lat="46.70066" lon="5.66196">
        <ele>535.4</ele>
        <time>2022-03-19T15:14:02Z</time>
      </trkpt>
      <trkpt lat="46.70061" lon="5.662">
        <ele>535.8</ele>
        <time>2022-03-19T15:14:03Z</time>
      </trkpt>
      <trkpt lat="46.70056" lon="5.66204">
        <ele>536.2</ele>
        <time>2022-03-19T15:14:04Z</time>
      </trkpt>
      <trkpt lat="46.70051" lon="5.66208">
        <ele>536.6</ele>
        <time>2022-03-19T15:14:05Z</time>
      </trkpt>
      <trkpt lat="46.70047" lon="5.66211">
        <ele>536.8</ele>
        <time>2022-03-19T15:14:06Z</time>
      </trkpt>
      <trkpt lat="46.70035" lon="5.66217">
        <ele>537.4</ele>
        <time>2022-03-19T15:14:08Z</time>
      </trkpt>
      <trkpt lat="46.70028" lon="5.66218">
        <ele>537.6</ele>
        <time>2022-03-19T15:14:09Z</time>
      </trkpt>
      <trkpt lat="46.70022" lon="5.66219">
        <ele>537.8</ele>
        <time>2022-03-19T15:14:10Z</time>
      </trkpt>
      <trkpt lat="46.69996" lon="5.6622">
        <ele>538</ele>
        <time>2022-03-19T15:14:13Z</time>
      </trkpt>
      <trkpt lat="46.69943" lon="5.66218">
        <ele>537.6</ele>
        <time>2022-03-19T15:14:19Z</time>
      </trkpt>
      <trkpt lat="46.69925" lon="5.66217">
        <ele>536.6</ele>
        <time>2022-03-19T15:14:21Z</time>
      </trkpt>
      <trkpt lat="46.69892" lon="5.66217">
        <ele>534.8</ele>
        <time>2022-03-19T15:14:24Z</time>
      </trkpt>
      <trkpt lat="46.69884" lon="5.66217">
        <ele>534.6</ele>
        <time>2022-03-19T15:14:25Z</time>
      </trkpt>
      <trkpt lat="46.69872" lon="5.66218">
        <ele>533.8</ele>
        <time>2022-03-19T15:14:26Z</time>
      </trkpt>
      <trkpt lat="46.69853" lon="5.66221">
        <ele>532.8</ele>
        <time>2022-03-19T15:14:28Z</time>
      </trkpt>
      <trkpt lat="46.69836" lon="5.66225">
        <ele>532.4</ele>
        <time>2022-03-19T15:14:30Z</time>
      </trkpt>
      <trkpt lat="46.69817" lon="5.66233">
        <ele>532</ele>
        <time>2022-03-19T15:14:32Z</time>
      </trkpt>
      <trkpt lat="46.69808" lon="5.66239">
        <ele>531.8</ele>
        <time>2022-03-19T15:14:33Z</time>
      </trkpt>
      <trkpt lat="46.69801" lon="5.66246">
        <ele>531.6</ele>
        <time>2022-03-19T15:14:34Z</time>
      </trkpt>
      <trkpt lat="46.69789" lon="5.66265">
        <ele>531.2</ele>
        <time>2022-03-19T15:14:36Z</time>
      </trkpt>
      <trkpt lat="46.69784" lon="5.66275">
        <ele>531.2</ele>
        <time>2022-03-19T15:14:37Z</time>
      </trkpt>
      <trkpt lat="46.6977" lon="5.66309">
        <ele>531.2</ele>
        <time>2022-03-19T15:14:40Z</time>
      </trkpt>
      <trkpt lat="46.69758" lon="5.66328">
        <ele>531.4</ele>
        <time>2022-03-19T15:14:42Z</time>
      </trkpt>
      <trkpt lat="46.69736" lon="5.66347">
        <ele>531.4</ele>
        <time>2022-03-19T15:14:45Z</time>
      </trkpt>
      <trkpt lat="46.69728" lon="5.6635">
        <ele>531.4</ele>
        <time>2022-03-19T15:14:46Z</time>
      </trkpt>
      <trkpt lat="46.69694" lon="5.66353">
        <ele>531.6</ele>
        <time>2022-03-19T15:14:50Z</time>
      </trkpt>
      <trkpt lat="46.69678" lon="5.66348">
        <ele>531.4</ele>
        <time>2022-03-19T15:14:52Z</time>
      </trkpt>
      <trkpt lat="46.69665" lon="5.66339">
        <ele>531.4</ele>
        <time>2022-03-19T15:14:54Z</time>
      </trkpt>
      <trkpt lat="46.69619" lon="5.66294">
        <ele>532.2</ele>
        <time>2022-03-19T15:15:01Z</time>
      </trkpt>
      <trkpt lat="46.69566" lon="5.66259">
        <ele>532.4</ele>
        <time>2022-03-19T15:15:08Z</time>
      </trkpt>
      <trkpt lat="46.69552" lon="5.66259">
        <ele>532.4</ele>
        <time>2022-03-19T15:15:10Z</time>
      </trkpt>
      <trkpt lat="46.69545" lon="5.66262">
        <ele>532.4</ele>
        <time>2022-03-19T15:15:11Z</time>
      </trkpt>
      <trkpt lat="46.69538" lon="5.66266">
        <ele>532.6</ele>
        <time>2022-03-19T15:15:12Z</time>
      </trkpt>
      <trkpt lat="46.69526" lon="5.66278">
        <ele>532.8</ele>
        <time>2022-03-19T15:15:14Z</time>
      </trkpt>
      <trkpt lat="46.6952" lon="5.66285">
        <ele>533</ele>
        <time>2022-03-19T15:15:15Z</time>
      </trkpt>
      <trkpt lat="46.69485" lon="5.66325">
        <ele>534</ele>
        <time>2022-03-19T15:15:21Z</time>
      </trkpt>
      <trkpt lat="46.69463" lon="5.66351">
        <ele>534.6</ele>
        <time>2022-03-19T15:15:25Z</time>
      </trkpt>
      <trkpt lat="46.69425" lon="5.66387">
        <ele>535.2</ele>
        <time>2022-03-19T15:15:31Z</time>
      </trkpt>
      <trkpt lat="46.69413" lon="5.66394">
        <ele>535.4</ele>
        <time>2022-03-19T15:15:33Z</time>
      </trkpt>
      <trkpt lat="46.69388" lon="5.66401">
        <ele>536.2</ele>
        <time>2022-03-19T15:15:37Z</time>
      </trkpt>
      <trkpt lat="46.69375" lon="5.66406">
        <ele>536.8</ele>
        <time>2022-03-19T15:15:39Z</time>
      </trkpt>
      <trkpt lat="46.69363" lon="5.66418">
        <ele>537.2</ele>
        <time>2022-03-19T15:15:41Z</time>
      </trkpt>
      <trkpt lat="46.69358" lon="5.66426">
        <ele>537.4</ele>
        <time>2022-03-19T15:15:42Z</time>
      </trkpt>
      <trkpt lat="46.69354" lon="5.66435">
        <ele>537.4</ele>
        <time>2022-03-19T15:15:43Z</time>
      </trkpt>
      <trkpt lat="46.69349" lon="5.66458">
        <ele>537.8</ele>
        <time>2022-03-19T15:15:45Z</time>
      </trkpt>
      <trkpt lat="46.69345" lon="5.66506">
        <ele>537.8</ele>
        <time>2022-03-19T15:15:49Z</time>
      </trkpt>
      <trkpt lat="46.69343" lon="5.66518">
        <ele>537.8</ele>
        <time>2022-03-19T15:15:50Z</time>
      </trkpt>
      <trkpt lat="46.6934" lon="5.66529">
        <ele>537.6</ele>
        <time>2022-03-19T15:15:51Z</time>
      </trkpt>
      <trkpt lat="46.6933" lon="5.66548">
        <ele>537.2</ele>
        <time>2022-03-19T15:15:53Z</time>
      </trkpt>
      <trkpt lat="46.69316" lon="5.66557">
        <ele>537.4</ele>
        <time>2022-03-19T15:15:55Z</time>
      </trkpt>
      <trkpt lat="46.69307" lon="5.66559">
        <ele>537.4</ele>
        <time>2022-03-19T15:15:56Z</time>
      </trkpt>
      <trkpt lat="46.69249" lon="5.66571">
        <ele>536.8</ele>
        <time>2022-03-19T15:16:03Z</time>
      </trkpt>
      <trkpt lat="46.6923" lon="5.66567">
        <ele>536.8</ele>
        <time>2022-03-19T15:16:05Z</time>
      </trkpt>
      <trkpt lat="46.69222" lon="5.66563">
        <ele>536.8</ele>
        <time>2022-03-19T15:16:06Z</time>
      </trkpt>
      <trkpt lat="46.69214" lon="5.66557">
        <ele>536.4</ele>
        <time>2022-03-19T15:16:07Z</time>
      </trkpt>
      <trkpt lat="46.69198" lon="5.66539">
        <ele>535.8</ele>
        <time>2022-03-19T15:16:09Z</time>
      </trkpt>
      <trkpt lat="46.69178" lon="5.66495">
        <ele>535</ele>
        <time>2022-03-19T15:16:13Z</time>
      </trkpt>
      <trkpt lat="46.69173" lon="5.66484">
        <ele>535</ele>
        <time>2022-03-19T15:16:14Z</time>
      </trkpt>
      <trkpt lat="46.69139" lon="5.66416">
        <ele>533.8</ele>
        <time>2022-03-19T15:16:20Z</time>
      </trkpt>
      <trkpt lat="46.69133" lon="5.66404">
        <ele>533.4</ele>
        <time>2022-03-19T15:16:21Z</time>
      </trkpt>
      <trkpt lat="46.69117" lon="5.6637">
        <ele>532.6</ele>
        <time>2022-03-19T15:16:24Z</time>
      </trkpt>
      <trkpt lat="46.69099" lon="5.66336">
        <ele>531.4</ele>
        <time>2022-03-19T15:16:27Z</time>
      </trkpt>
      <trkpt lat="46.69086" lon="5.66315">
        <ele>530.6</ele>
        <time>2022-03-19T15:16:29Z</time>
      </trkpt>
      <trkpt lat="46.69067" lon="5.66285">
        <ele>530.4</ele>
        <time>2022-03-19T15:16:32Z</time>
      </trkpt>
      <trkpt lat="46.69048" lon="5.66262">
        <ele>530.4</ele>
        <time>2022-03-19T15:16:35Z</time>
      </trkpt>
      <trkpt lat="46.69015" lon="5.66227">
        <ele>530.8</ele>
        <time>2022-03-19T15:16:40Z</time>
      </trkpt>
      <trkpt lat="46.68996" lon="5.66208">
        <ele>531.6</ele>
        <time>2022-03-19T15:16:43Z</time>
      </trkpt>
      <trkpt lat="46.68973" lon="5.66184">
        <ele>532.8</ele>
        <time>2022-03-19T15:16:47Z</time>
      </trkpt>
      <trkpt lat="46.68967" lon="5.66178">
        <ele>533.2</ele>
        <time>2022-03-19T15:16:48Z</time>
      </trkpt>
      <trkpt lat="46.6895" lon="5.66157">
        <ele>534.2</ele>
        <time>2022-03-19T15:16:51Z</time>
      </trkpt>
      <trkpt lat="46.68927" lon="5.66129">
        <ele>535</ele>
        <time>2022-03-19T15:16:55Z</time>
      </trkpt>
      <trkpt lat="46.68886" lon="5.66095">
        <ele>534.8</ele>
        <time>2022-03-19T15:17:01Z</time>
      </trkpt>
      <trkpt lat="46.68847" lon="5.66064">
        <ele>534.4</ele>
        <time>2022-03-19T15:17:07Z</time>
      </trkpt>
      <trkpt lat="46.68831" lon="5.66053">
        <ele>534.8</ele>
        <time>2022-03-19T15:17:11Z</time>
      </trkpt>
      <trkpt lat="46.68829" lon="5.66052">
        <ele>535.4</ele>
        <time>2022-03-19T15:17:13Z</time>
      </trkpt>
      <trkpt lat="46.68829" lon="5.66052">
        <ele>536.2</ele>
        <time>2022-03-19T15:17:15Z</time>
      </trkpt>
      <trkpt lat="46.68825" lon="5.66051">
        <ele>537</ele>
        <time>2022-03-19T15:17:28Z</time>
      </trkpt>
      <trkpt lat="46.68819" lon="5.66049">
        <ele>537</ele>
        <time>2022-03-19T15:17:30Z</time>
      </trkpt>
      <trkpt lat="46.68806" lon="5.66049">
        <ele>537</ele>
        <time>2022-03-19T15:17:33Z</time>
      </trkpt>
      <trkpt lat="46.68798" lon="5.66047">
        <ele>537</ele>
        <time>2022-03-19T15:17:35Z</time>
      </trkpt>
      <trkpt lat="46.68794" lon="5.66046">
        <ele>537</ele>
        <time>2022-03-19T15:17:36Z</time>
      </trkpt>
      <trkpt lat="46.68764" lon="5.66041">
        <ele>537</ele>
        <time>2022-03-19T15:17:42Z</time>
      </trkpt>
      <trkpt lat="46.68738" lon="5.66035">
        <ele>537.4</ele>
        <time>2022-03-19T15:17:47Z</time>
      </trkpt>
      <trkpt lat="46.68723" lon="5.66034">
        <ele>538.2</ele>
        <time>2022-03-19T15:17:50Z</time>
      </trkpt>
      <trkpt lat="46.68674" lon="5.66027">
        <ele>538.6</ele>
        <time>2022-03-19T15:17:59Z</time>
      </trkpt>
      <trkpt lat="46.68637" lon="5.66009">
        <ele>538.2</ele>
        <time>2022-03-19T15:18:05Z</time>
      </trkpt>
      <trkpt lat="46.68605" lon="5.65992">
        <ele>538.2</ele>
        <time>2022-03-19T15:18:11Z</time>
      </trkpt>
      <trkpt lat="46.686" lon="5.6599">
        <ele>538.2</ele>
        <time>2022-03-19T15:18:12Z</time>
      </trkpt>
      <trkpt lat="46.68579" lon="5.65976">
        <ele>539</ele>
        <time>2022-03-19T15:18:16Z</time>
      </trkpt>
      <trkpt lat="46.68544" lon="5.65948">
        <ele>539.4</ele>
        <time>2022-03-19T15:18:22Z</time>
      </trkpt>
      <trkpt lat="46.68533" lon="5.65937">
        <ele>539.2</ele>
        <time>2022-03-19T15:18:24Z</time>
      </trkpt>
      <trkpt lat="46.68524" lon="5.65921">
        <ele>539.2</ele>
        <time>2022-03-19T15:18:26Z</time>
      </trkpt>
      <trkpt lat="46.68516" lon="5.65881">
        <ele>538.2</ele>
        <time>2022-03-19T15:18:30Z</time>
      </trkpt>
      <trkpt lat="46.68513" lon="5.65871">
        <ele>538</ele>
        <time>2022-03-19T15:18:31Z</time>
      </trkpt>
      <trkpt lat="46.68509" lon="5.65863">
        <ele>537.8</ele>
        <time>2022-03-19T15:18:32Z</time>
      </trkpt>
      <trkpt lat="46.68497" lon="5.65852">
        <ele>537.2</ele>
        <time>2022-03-19T15:18:34Z</time>
      </trkpt>
      <trkpt lat="46.68459" lon="5.65837">
        <ele>536.2</ele>
        <time>2022-03-19T15:18:39Z</time>
      </trkpt>
      <trkpt lat="46.6845" lon="5.65834">
        <ele>535.8</ele>
        <time>2022-03-19T15:18:40Z</time>
      </trkpt>
      <trkpt lat="46.68425" lon="5.65825">
        <ele>534.8</ele>
        <time>2022-03-19T15:18:43Z</time>
      </trkpt>
      <trkpt lat="46.68408" lon="5.65821">
        <ele>533.6</ele>
        <time>2022-03-19T15:18:45Z</time>
      </trkpt>
      <trkpt lat="46.68389" lon="5.65813">
        <ele>532.8</ele>
        <time>2022-03-19T15:18:47Z</time>
      </trkpt>
      <trkpt lat="46.6838" lon="5.6581">
        <ele>532.4</ele>
        <time>2022-03-19T15:18:48Z</time>
      </trkpt>
      <trkpt lat="46.68354" lon="5.658">
        <ele>531.4</ele>
        <time>2022-03-19T15:18:51Z</time>
      </trkpt>
      <trkpt lat="46.68345" lon="5.65799">
        <ele>530.8</ele>
        <time>2022-03-19T15:18:52Z</time>
      </trkpt>
      <trkpt lat="46.6832" lon="5.65796">
        <ele>530.2</ele>
        <time>2022-03-19T15:18:55Z</time>
      </trkpt>
      <trkpt lat="46.68295" lon="5.65794">
        <ele>530</ele>
        <time>2022-03-19T15:18:58Z</time>
      </trkpt>
      <trkpt lat="46.68238" lon="5.65798">
        <ele>529.8</ele>
        <time>2022-03-19T15:19:05Z</time>
      </trkpt>
      <trkpt lat="46.68216" lon="5.65799">
        <ele>529.8</ele>
        <time>2022-03-19T15:19:08Z</time>
      </trkpt>
      <trkpt lat="46.682" lon="5.65795">
        <ele>529.8</ele>
        <time>2022-03-19T15:19:10Z</time>
      </trkpt>
      <trkpt lat="46.68141" lon="5.65774">
        <ele>530.4</ele>
        <time>2022-03-19T15:19:18Z</time>
      </trkpt>
      <trkpt lat="46.68134" lon="5.65771">
        <ele>530.4</ele>
        <time>2022-03-19T15:19:19Z</time>
      </trkpt>
      <trkpt lat="46.68099" lon="5.65743">
        <ele>530.6</ele>
        <time>2022-03-19T15:19:24Z</time>
      </trkpt>
      <trkpt lat="46.68066" lon="5.6572">
        <ele>530.4</ele>
        <time>2022-03-19T15:19:29Z</time>
      </trkpt>
      <trkpt lat="46.68059" lon="5.65717">
        <ele>530.6</ele>
        <time>2022-03-19T15:19:30Z</time>
      </trkpt>
      <trkpt lat="46.68005" lon="5.65699">
        <ele>531.2</ele>
        <time>2022-03-19T15:19:37Z</time>
      </trkpt>
      <trkpt lat="46.67953" lon="5.65677">
        <ele>531.2</ele>
        <time>2022-03-19T15:19:44Z</time>
      </trkpt>
      <trkpt lat="46.67946" lon="5.65673">
        <ele>531.2</ele>
        <time>2022-03-19T15:19:45Z</time>
      </trkpt>
      <trkpt lat="46.67925" lon="5.65662">
        <ele>531.6</ele>
        <time>2022-03-19T15:19:48Z</time>
      </trkpt>
      <trkpt lat="46.67878" lon="5.65635">
        <ele>532</ele>
        <time>2022-03-19T15:19:55Z</time>
      </trkpt>
      <trkpt lat="46.67845" lon="5.65613">
        <ele>532.6</ele>
        <time>2022-03-19T15:20:00Z</time>
      </trkpt>
      <trkpt lat="46.6781" lon="5.6559">
        <ele>533</ele>
        <time>2022-03-19T15:20:05Z</time>
      </trkpt>
      <trkpt lat="46.67759" lon="5.65552">
        <ele>533.4</ele>
        <time>2022-03-19T15:20:13Z</time>
      </trkpt>
      <trkpt lat="46.67753" lon="5.65547">
        <ele>533.4</ele>
        <time>2022-03-19T15:20:14Z</time>
      </trkpt>
      <trkpt lat="46.67747" lon="5.65544">
        <ele>533.8</ele>
        <time>2022-03-19T15:20:15Z</time>
      </trkpt>
      <trkpt lat="46.6772" lon="5.65535">
        <ele>534.4</ele>
        <time>2022-03-19T15:20:19Z</time>
      </trkpt>
      <trkpt lat="46.677" lon="5.65533">
        <ele>535</ele>
        <time>2022-03-19T15:20:22Z</time>
      </trkpt>
      <trkpt lat="46.67694" lon="5.65533">
        <ele>535</ele>
        <time>2022-03-19T15:20:23Z</time>
      </trkpt>
      <trkpt lat="46.67682" lon="5.6553">
        <ele>535.4</ele>
        <time>2022-03-19T15:20:25Z</time>
      </trkpt>
      <trkpt lat="46.67655" lon="5.65518">
        <ele>536</ele>
        <time>2022-03-19T15:20:29Z</time>
      </trkpt>
      <trkpt lat="46.67642" lon="5.6551">
        <ele>536.2</ele>
        <time>2022-03-19T15:20:31Z</time>
      </trkpt>
      <trkpt lat="46.67585" lon="5.65481">
        <ele>536.8</ele>
        <time>2022-03-19T15:20:39Z</time>
      </trkpt>
      <trkpt lat="46.67563" lon="5.65469">
        <ele>536.8</ele>
        <time>2022-03-19T15:20:42Z</time>
      </trkpt>
      <trkpt lat="46.67517" lon="5.65439">
        <ele>536.4</ele>
        <time>2022-03-19T15:20:48Z</time>
      </trkpt>
      <trkpt lat="46.67473" lon="5.65398">
        <ele>534.8</ele>
        <time>2022-03-19T15:20:54Z</time>
      </trkpt>
      <trkpt lat="46.67424" lon="5.65368">
        <ele>533.6</ele>
        <time>2022-03-19T15:21:00Z</time>
      </trkpt>
      <trkpt lat="46.67399" lon="5.65354">
        <ele>533.2</ele>
        <time>2022-03-19T15:21:03Z</time>
      </trkpt>
      <trkpt lat="46.67347" lon="5.65326">
        <ele>532.6</ele>
        <time>2022-03-19T15:21:09Z</time>
      </trkpt>
      <trkpt lat="46.67311" lon="5.65309">
        <ele>532.2</ele>
        <time>2022-03-19T15:21:13Z</time>
      </trkpt>
      <trkpt lat="46.67249" lon="5.65296">
        <ele>532</ele>
        <time>2022-03-19T15:21:20Z</time>
      </trkpt>
      <trkpt lat="46.67187" lon="5.65285">
        <ele>532.2</ele>
        <time>2022-03-19T15:21:27Z</time>
      </trkpt>
      <trkpt lat="46.6717" lon="5.65282">
        <ele>532.2</ele>
        <time>2022-03-19T15:21:29Z</time>
      </trkpt>
      <trkpt lat="46.67111" lon="5.65269">
        <ele>532.2</ele>
        <time>2022-03-19T15:21:36Z</time>
      </trkpt>
      <trkpt lat="46.67103" lon="5.65268">
        <ele>532.2</ele>
        <time>2022-03-19T15:21:37Z</time>
      </trkpt>
      <trkpt lat="46.67058" lon="5.65263">
        <ele>533</ele>
        <time>2022-03-19T15:21:43Z</time>
      </trkpt>
      <trkpt lat="46.67023" lon="5.65251">
        <ele>533.8</ele>
        <time>2022-03-19T15:21:48Z</time>
      </trkpt>
      <trkpt lat="46.66982" lon="5.6523">
        <ele>535</ele>
        <time>2022-03-19T15:21:54Z</time>
      </trkpt>
      <trkpt lat="46.66975" lon="5.65227">
        <ele>535.4</ele>
        <time>2022-03-19T15:21:55Z</time>
      </trkpt>
      <trkpt lat="46.66968" lon="5.65224">
        <ele>535.6</ele>
        <time>2022-03-19T15:21:56Z</time>
      </trkpt>
      <trkpt lat="46.66939" lon="5.65217">
        <ele>536.2</ele>
        <time>2022-03-19T15:22:00Z</time>
      </trkpt>
      <trkpt lat="46.66924" lon="5.65216">
        <ele>536.8</ele>
        <time>2022-03-19T15:22:02Z</time>
      </trkpt>
      <trkpt lat="46.66917" lon="5.65216">
        <ele>537</ele>
        <time>2022-03-19T15:22:03Z</time>
      </trkpt>
      <trkpt lat="46.6687" lon="5.65229">
        <ele>537.4</ele>
        <time>2022-03-19T15:22:09Z</time>
      </trkpt>
      <trkpt lat="46.66839" lon="5.65247">
        <ele>537</ele>
        <time>2022-03-19T15:22:13Z</time>
      </trkpt>
      <trkpt lat="46.6681" lon="5.65274">
        <ele>536</ele>
        <time>2022-03-19T15:22:17Z</time>
      </trkpt>
      <trkpt lat="46.66802" lon="5.65278">
        <ele>535.8</ele>
        <time>2022-03-19T15:22:18Z</time>
      </trkpt>
      <trkpt lat="46.66795" lon="5.65281">
        <ele>535.6</ele>
        <time>2022-03-19T15:22:19Z</time>
      </trkpt>
      <trkpt lat="46.66787" lon="5.65283">
        <ele>535.4</ele>
        <time>2022-03-19T15:22:20Z</time>
      </trkpt>
      <trkpt lat="46.6677" lon="5.65284">
        <ele>535.4</ele>
        <time>2022-03-19T15:22:22Z</time>
      </trkpt>
      <trkpt lat="46.66739" lon="5.65277">
        <ele>535.6</ele>
        <time>2022-03-19T15:22:26Z</time>
      </trkpt>
      <trkpt lat="46.66706" lon="5.65255">
        <ele>536.4</ele>
        <time>2022-03-19T15:22:31Z</time>
      </trkpt>
      <trkpt lat="46.667" lon="5.6525">
        <ele>536.6</ele>
        <time>2022-03-19T15:22:32Z</time>
      </trkpt>
      <trkpt lat="46.66676" lon="5.65234">
        <ele>537.6</ele>
        <time>2022-03-19T15:22:36Z</time>
      </trkpt>
      <trkpt lat="46.66672" lon="5.65231">
        <ele>537.8</ele>
        <time>2022-03-19T15:22:37Z</time>
      </trkpt>
      <trkpt lat="46.66646" lon="5.65212">
        <ele>538.6</ele>
        <time>2022-03-19T15:22:42Z</time>
      </trkpt>
      <trkpt lat="46.6664" lon="5.65208">
        <ele>538.8</ele>
        <time>2022-03-19T15:22:43Z</time>
      </trkpt>
      <trkpt lat="46.66628" lon="5.65196">
        <ele>539.6</ele>
        <time>2022-03-19T15:22:47Z</time>
      </trkpt>
      <trkpt lat="46.66624" lon="5.65184">
        <ele>540</ele>
        <time>2022-03-19T15:22:49Z</time>
      </trkpt>
      <trkpt lat="46.66621" lon="5.65171">
        <ele>540.4</ele>
        <time>2022-03-19T15:22:51Z</time>
      </trkpt>
      <trkpt lat="46.66615" lon="5.65153">
        <ele>540.6</ele>
        <time>2022-03-19T15:22:53Z</time>
      </trkpt>
      <trkpt lat="46.66606" lon="5.65137">
        <ele>540.6</ele>
        <time>2022-03-19T15:22:55Z</time>
      </trkpt>
      <trkpt lat="46.66579" lon="5.651">
        <ele>540.4</ele>
        <time>2022-03-19T15:23:00Z</time>
      </trkpt>
      <trkpt lat="46.66573" lon="5.65093">
        <ele>540.2</ele>
        <time>2022-03-19T15:23:01Z</time>
      </trkpt>
      <trkpt lat="46.66544" lon="5.65059">
        <ele>539.6</ele>
        <time>2022-03-19T15:23:06Z</time>
      </trkpt>
      <trkpt lat="46.6654" lon="5.65053">
        <ele>539.2</ele>
        <time>2022-03-19T15:23:07Z</time>
      </trkpt>
      <trkpt lat="46.66533" lon="5.65043">
        <ele>539.2</ele>
        <time>2022-03-19T15:23:09Z</time>
      </trkpt>
      <trkpt lat="46.66523" lon="5.6504">
        <ele>539.2</ele>
        <time>2022-03-19T15:23:11Z</time>
      </trkpt>
      <trkpt lat="46.66518" lon="5.65039">
        <ele>539.2</ele>
        <time>2022-03-19T15:23:12Z</time>
      </trkpt>
      <trkpt lat="46.66513" lon="5.65037">
        <ele>539.2</ele>
        <time>2022-03-19T15:23:13Z</time>
      </trkpt>
      <trkpt lat="46.66499" lon="5.65028">
        <ele>539.6</ele>
        <time>2022-03-19T15:23:16Z</time>
      </trkpt>
      <trkpt lat="46.66474" lon="5.65006">
        <ele>540.6</ele>
        <time>2022-03-19T15:23:21Z</time>
      </trkpt>
      <trkpt lat="46.6646" lon="5.64992">
        <ele>541</ele>
        <time>2022-03-19T15:23:24Z</time>
      </trkpt>
      <trkpt lat="46.66457" lon="5.64983">
        <ele>541</ele>
        <time>2022-03-19T15:23:25Z</time>
      </trkpt>
      <trkpt lat="46.66456" lon="5.64974">
        <ele>541</ele>
        <time>2022-03-19T15:23:26Z</time>
      </trkpt>
      <trkpt lat="46.66456" lon="5.64957">
        <ele>541</ele>
        <time>2022-03-19T15:23:28Z</time>
      </trkpt>
      <trkpt lat="46.66457" lon="5.64883">
        <ele>540.8</ele>
        <time>2022-03-19T15:23:36Z</time>
      </trkpt>
      <trkpt lat="46.66457" lon="5.64875">
        <ele>540.8</ele>
        <time>2022-03-19T15:23:37Z</time>
      </trkpt>
      <trkpt lat="46.66455" lon="5.64861">
        <ele>541</ele>
        <time>2022-03-19T15:23:39Z</time>
      </trkpt>
      <trkpt lat="46.66452" lon="5.64853">
        <ele>541.2</ele>
        <time>2022-03-19T15:23:40Z</time>
      </trkpt>
      <trkpt lat="46.66441" lon="5.64829">
        <ele>542.6</ele>
        <time>2022-03-19T15:23:44Z</time>
      </trkpt>
      <trkpt lat="46.66438" lon="5.64821">
        <ele>542.8</ele>
        <time>2022-03-19T15:23:45Z</time>
      </trkpt>
      <trkpt lat="46.66435" lon="5.64815">
        <ele>543.2</ele>
        <time>2022-03-19T15:23:46Z</time>
      </trkpt>
      <trkpt lat="46.66433" lon="5.64807">
        <ele>543.4</ele>
        <time>2022-03-19T15:23:47Z</time>
      </trkpt>
      <trkpt lat="46.66432" lon="5.64797">
        <ele>543.6</ele>
        <time>2022-03-19T15:23:48Z</time>
      </trkpt>
      <trkpt lat="46.66431" lon="5.6478">
        <ele>544</ele>
        <time>2022-03-19T15:23:50Z</time>
      </trkpt>
      <trkpt lat="46.66428" lon="5.64765">
        <ele>544.2</ele>
        <time>2022-03-19T15:23:52Z</time>
      </trkpt>
      <trkpt lat="46.66421" lon="5.64749">
        <ele>544.4</ele>
        <time>2022-03-19T15:23:54Z</time>
      </trkpt>
      <trkpt lat="46.66417" lon="5.64743">
        <ele>544.6</ele>
        <time>2022-03-19T15:23:55Z</time>
      </trkpt>
      <trkpt lat="46.66406" lon="5.64733">
        <ele>544.8</ele>
        <time>2022-03-19T15:23:57Z</time>
      </trkpt>
      <trkpt lat="46.66401" lon="5.64728">
        <ele>544.8</ele>
        <time>2022-03-19T15:23:58Z</time>
      </trkpt>
      <trkpt lat="46.6636" lon="5.64694">
        <ele>545</ele>
        <time>2022-03-19T15:24:05Z</time>
      </trkpt>
      <trkpt lat="46.6632" lon="5.64669">
        <ele>544.6</ele>
        <time>2022-03-19T15:24:11Z</time>
      </trkpt>
      <trkpt lat="46.66265" lon="5.64644">
        <ele>544.6</ele>
        <time>2022-03-19T15:24:19Z</time>
      </trkpt>
      <trkpt lat="46.66209" lon="5.64625">
        <ele>544.8</ele>
        <time>2022-03-19T15:24:27Z</time>
      </trkpt>
      <trkpt lat="46.66201" lon="5.64622">
        <ele>544.6</ele>
        <time>2022-03-19T15:24:28Z</time>
      </trkpt>
      <trkpt lat="46.6615" lon="5.64593">
        <ele>543.4</ele>
        <time>2022-03-19T15:24:34Z</time>
      </trkpt>
      <trkpt lat="46.66102" lon="5.64544">
        <ele>542.8</ele>
        <time>2022-03-19T15:24:41Z</time>
      </trkpt>
      <trkpt lat="46.66069" lon="5.64513">
        <ele>542.8</ele>
        <time>2022-03-19T15:24:46Z</time>
      </trkpt>
      <trkpt lat="46.66044" lon="5.64494">
        <ele>543.6</ele>
        <time>2022-03-19T15:24:50Z</time>
      </trkpt>
      <trkpt lat="46.66037" lon="5.6449">
        <ele>543.6</ele>
        <time>2022-03-19T15:24:51Z</time>
      </trkpt>
      <trkpt lat="46.66029" lon="5.64487">
        <ele>544</ele>
        <time>2022-03-19T15:24:52Z</time>
      </trkpt>
      <trkpt lat="46.66007" lon="5.64484">
        <ele>545.2</ele>
        <time>2022-03-19T15:24:55Z</time>
      </trkpt>
      <trkpt lat="46.65967" lon="5.6448">
        <ele>546.2</ele>
        <time>2022-03-19T15:25:00Z</time>
      </trkpt>
      <trkpt lat="46.65908" lon="5.64472">
        <ele>544.6</ele>
        <time>2022-03-19T15:25:06Z</time>
      </trkpt>
      <trkpt lat="46.65898" lon="5.6447">
        <ele>544.4</ele>
        <time>2022-03-19T15:25:07Z</time>
      </trkpt>
      <trkpt lat="46.65888" lon="5.64468">
        <ele>543.8</ele>
        <time>2022-03-19T15:25:08Z</time>
      </trkpt>
      <trkpt lat="46.65857" lon="5.64463">
        <ele>542.8</ele>
        <time>2022-03-19T15:25:11Z</time>
      </trkpt>
      <trkpt lat="46.65837" lon="5.6446">
        <ele>542</ele>
        <time>2022-03-19T15:25:13Z</time>
      </trkpt>
      <trkpt lat="46.65826" lon="5.64459">
        <ele>541.8</ele>
        <time>2022-03-19T15:25:14Z</time>
      </trkpt>
      <trkpt lat="46.65789" lon="5.64457">
        <ele>540.2</ele>
        <time>2022-03-19T15:25:17Z</time>
      </trkpt>
      <trkpt lat="46.6578" lon="5.64457">
        <ele>539.6</ele>
        <time>2022-03-19T15:25:18Z</time>
      </trkpt>
      <trkpt lat="46.65755" lon="5.64458">
        <ele>538.6</ele>
        <time>2022-03-19T15:25:20Z</time>
      </trkpt>
      <trkpt lat="46.65732" lon="5.64459">
        <ele>537.6</ele>
        <time>2022-03-19T15:25:22Z</time>
      </trkpt>
      <trkpt lat="46.65698" lon="5.64457">
        <ele>536.6</ele>
        <time>2022-03-19T15:25:25Z</time>
      </trkpt>
      <trkpt lat="46.65686" lon="5.64455">
        <ele>535.8</ele>
        <time>2022-03-19T15:25:26Z</time>
      </trkpt>
      <trkpt lat="46.65666" lon="5.64452">
        <ele>534.8</ele>
        <time>2022-03-19T15:25:28Z</time>
      </trkpt>
      <trkpt lat="46.65624" lon="5.64448">
        <ele>533.8</ele>
        <time>2022-03-19T15:25:32Z</time>
      </trkpt>
      <trkpt lat="46.65613" lon="5.64449">
        <ele>533.8</ele>
        <time>2022-03-19T15:25:33Z</time>
      </trkpt>
      <trkpt lat="46.65582" lon="5.64455">
        <ele>534</ele>
        <time>2022-03-19T15:25:36Z</time>
      </trkpt>
      <trkpt lat="46.65563" lon="5.64459">
        <ele>534</ele>
        <time>2022-03-19T15:25:38Z</time>
      </trkpt>
      <trkpt lat="46.65545" lon="5.64457">
        <ele>534.2</ele>
        <time>2022-03-19T15:25:40Z</time>
      </trkpt>
      <trkpt lat="46.65511" lon="5.64441">
        <ele>534.4</ele>
        <time>2022-03-19T15:25:44Z</time>
      </trkpt>
      <trkpt lat="46.65473" lon="5.64424">
        <ele>534.6</ele>
        <time>2022-03-19T15:25:49Z</time>
      </trkpt>
      <trkpt lat="46.65467" lon="5.64423">
        <ele>535</ele>
        <time>2022-03-19T15:25:50Z</time>
      </trkpt>
      <trkpt lat="46.6545" lon="5.64423">
        <ele>535.8</ele>
        <time>2022-03-19T15:25:52Z</time>
      </trkpt>
      <trkpt lat="46.65441" lon="5.64425">
        <ele>536</ele>
        <time>2022-03-19T15:25:53Z</time>
      </trkpt>
      <trkpt lat="46.65419" lon="5.64428">
        <ele>537</ele>
        <time>2022-03-19T15:25:56Z</time>
      </trkpt>
      <trkpt lat="46.65391" lon="5.64428">
        <ele>537.8</ele>
        <time>2022-03-19T15:26:00Z</time>
      </trkpt>
      <trkpt lat="46.65382" lon="5.64426">
        <ele>538</ele>
        <time>2022-03-19T15:26:01Z</time>
      </trkpt>
      <trkpt lat="46.65374" lon="5.64423">
        <ele>538.2</ele>
        <time>2022-03-19T15:26:02Z</time>
      </trkpt>
      <trkpt lat="46.65368" lon="5.64419">
        <ele>538.6</ele>
        <time>2022-03-19T15:26:03Z</time>
      </trkpt>
      <trkpt lat="46.65361" lon="5.64414">
        <ele>538.6</ele>
        <time>2022-03-19T15:26:04Z</time>
      </trkpt>
      <trkpt lat="46.65355" lon="5.64407">
        <ele>538.8</ele>
        <time>2022-03-19T15:26:05Z</time>
      </trkpt>
      <trkpt lat="46.65346" lon="5.64392">
        <ele>539</ele>
        <time>2022-03-19T15:26:07Z</time>
      </trkpt>
      <trkpt lat="46.65334" lon="5.64365">
        <ele>539.4</ele>
        <time>2022-03-19T15:26:10Z</time>
      </trkpt>
      <trkpt lat="46.65325" lon="5.64349">
        <ele>539.8</ele>
        <time>2022-03-19T15:26:12Z</time>
      </trkpt>
      <trkpt lat="46.65321" lon="5.64343">
        <ele>540</ele>
        <time>2022-03-19T15:26:13Z</time>
      </trkpt>
      <trkpt lat="46.65315" lon="5.64337">
        <ele>540</ele>
        <time>2022-03-19T15:26:14Z</time>
      </trkpt>
      <trkpt lat="46.65301" lon="5.64326">
        <ele>540.4</ele>
        <time>2022-03-19T15:26:16Z</time>
      </trkpt>
      <trkpt lat="46.65294" lon="5.64323">
        <ele>540.4</ele>
        <time>2022-03-19T15:26:17Z</time>
      </trkpt>
      <trkpt lat="46.65243" lon="5.64308">
        <ele>540.6</ele>
        <time>2022-03-19T15:26:24Z</time>
      </trkpt>
      <trkpt lat="46.65196" lon="5.64294">
        <ele>540.6</ele>
        <time>2022-03-19T15:26:31Z</time>
      </trkpt>
      <trkpt lat="46.65184" lon="5.6429">
        <ele>540.8</ele>
        <time>2022-03-19T15:26:33Z</time>
      </trkpt>
      <trkpt lat="46.65166" lon="5.64284">
        <ele>541.6</ele>
        <time>2022-03-19T15:26:36Z</time>
      </trkpt>
      <trkpt lat="46.65139" lon="5.64276">
        <ele>542.2</ele>
        <time>2022-03-19T15:26:40Z</time>
      </trkpt>
      <trkpt lat="46.65081" lon="5.64265">
        <ele>542</ele>
        <time>2022-03-19T15:26:48Z</time>
      </trkpt>
      <trkpt lat="46.65034" lon="5.6427">
        <ele>541.2</ele>
        <time>2022-03-19T15:26:54Z</time>
      </trkpt>
      <trkpt lat="46.65015" lon="5.64274">
        <ele>540.6</ele>
        <time>2022-03-19T15:26:56Z</time>
      </trkpt>
      <trkpt lat="46.6499" lon="5.64283">
        <ele>539.6</ele>
        <time>2022-03-19T15:26:59Z</time>
      </trkpt>
      <trkpt lat="46.64978" lon="5.64289">
        <ele>539.2</ele>
        <time>2022-03-19T15:27:00Z</time>
      </trkpt>
      <trkpt lat="46.64949" lon="5.64303">
        <ele>537.6</ele>
        <time>2022-03-19T15:27:03Z</time>
      </trkpt>
      <trkpt lat="46.64929" lon="5.64312">
        <ele>536.4</ele>
        <time>2022-03-19T15:27:05Z</time>
      </trkpt>
      <trkpt lat="46.64889" lon="5.64326">
        <ele>535.2</ele>
        <time>2022-03-19T15:27:09Z</time>
      </trkpt>
      <trkpt lat="46.64879" lon="5.64327">
        <ele>534.6</ele>
        <time>2022-03-19T15:27:10Z</time>
      </trkpt>
      <trkpt lat="46.6486" lon="5.64324">
        <ele>534</ele>
        <time>2022-03-19T15:27:12Z</time>
      </trkpt>
      <trkpt lat="46.64842" lon="5.64318">
        <ele>533.4</ele>
        <time>2022-03-19T15:27:14Z</time>
      </trkpt>
      <trkpt lat="46.64798" lon="5.64294">
        <ele>532.8</ele>
        <time>2022-03-19T15:27:19Z</time>
      </trkpt>
      <trkpt lat="46.64779" lon="5.64285">
        <ele>532.6</ele>
        <time>2022-03-19T15:27:21Z</time>
      </trkpt>
      <trkpt lat="46.64761" lon="5.64278">
        <ele>532.4</ele>
        <time>2022-03-19T15:27:23Z</time>
      </trkpt>
      <trkpt lat="46.64741" lon="5.64276">
        <ele>532.2</ele>
        <time>2022-03-19T15:27:25Z</time>
      </trkpt>
      <trkpt lat="46.64696" lon="5.64282">
        <ele>531.8</ele>
        <time>2022-03-19T15:27:30Z</time>
      </trkpt>
      <trkpt lat="46.64688" lon="5.64284">
        <ele>532</ele>
        <time>2022-03-19T15:27:31Z</time>
      </trkpt>
      <trkpt lat="46.64655" lon="5.64282">
        <ele>531.6</ele>
        <time>2022-03-19T15:27:35Z</time>
      </trkpt>
      <trkpt lat="46.64615" lon="5.64269">
        <ele>532.2</ele>
        <time>2022-03-19T15:27:41Z</time>
      </trkpt>
      <trkpt lat="46.64598" lon="5.64262">
        <ele>533.2</ele>
        <time>2022-03-19T15:27:44Z</time>
      </trkpt>
      <trkpt lat="46.64578" lon="5.64256">
        <ele>534</ele>
        <time>2022-03-19T15:27:47Z</time>
      </trkpt>
      <trkpt lat="46.64571" lon="5.64256">
        <ele>534.2</ele>
        <time>2022-03-19T15:27:48Z</time>
      </trkpt>
      <trkpt lat="46.64566" lon="5.64256">
        <ele>534.4</ele>
        <time>2022-03-19T15:27:49Z</time>
      </trkpt>
      <trkpt lat="46.64536" lon="5.64263">
        <ele>535.2</ele>
        <time>2022-03-19T15:27:54Z</time>
      </trkpt>
      <trkpt lat="46.64526" lon="5.64269">
        <ele>535.8</ele>
        <time>2022-03-19T15:27:56Z</time>
      </trkpt>
      <trkpt lat="46.6451" lon="5.64281">
        <ele>536.4</ele>
        <time>2022-03-19T15:27:59Z</time>
      </trkpt>
      <trkpt lat="46.64506" lon="5.64286">
        <ele>537</ele>
        <time>2022-03-19T15:28:00Z</time>
      </trkpt>
      <trkpt lat="46.64492" lon="5.64301">
        <ele>538.2</ele>
        <time>2022-03-19T15:28:03Z</time>
      </trkpt>
      <trkpt lat="46.64477" lon="5.64325">
        <ele>539</ele>
        <time>2022-03-19T15:28:07Z</time>
      </trkpt>
      <trkpt lat="46.6447" lon="5.64339">
        <ele>539.4</ele>
        <time>2022-03-19T15:28:09Z</time>
      </trkpt>
      <trkpt lat="46.6446" lon="5.6436">
        <ele>540.4</ele>
        <time>2022-03-19T15:28:12Z</time>
      </trkpt>
      <trkpt lat="46.64452" lon="5.64382">
        <ele>541.4</ele>
        <time>2022-03-19T15:28:15Z</time>
      </trkpt>
      <trkpt lat="46.64449" lon="5.64389">
        <ele>541.6</ele>
        <time>2022-03-19T15:28:16Z</time>
      </trkpt>
      <trkpt lat="46.6444" lon="5.6442">
        <ele>543</ele>
        <time>2022-03-19T15:28:20Z</time>
      </trkpt>
      <trkpt lat="46.64429" lon="5.64454">
        <ele>544</ele>
        <time>2022-03-19T15:28:24Z</time>
      </trkpt>
      <trkpt lat="46.64425" lon="5.64462">
        <ele>544.2</ele>
        <time>2022-03-19T15:28:25Z</time>
      </trkpt>
      <trkpt lat="46.64401" lon="5.64503">
        <ele>544.8</ele>
        <time>2022-03-19T15:28:31Z</time>
      </trkpt>
      <trkpt lat="46.64392" lon="5.64513">
        <ele>545</ele>
        <time>2022-03-19T15:28:33Z</time>
      </trkpt>
      <trkpt lat="46.64376" lon="5.64524">
        <ele>545.4</ele>
        <time>2022-03-19T15:28:36Z</time>
      </trkpt>
      <trkpt lat="46.64342" lon="5.64536">
        <ele>546.2</ele>
        <time>2022-03-19T15:28:42Z</time>
      </trkpt>
      <trkpt lat="46.64335" lon="5.64537">
        <ele>546.4</ele>
        <time>2022-03-19T15:28:43Z</time>
      </trkpt>
      <trkpt lat="46.64288" lon="5.64554">
        <ele>547</ele>
        <time>2022-03-19T15:28:50Z</time>
      </trkpt>
      <trkpt lat="46.64244" lon="5.64573">
        <ele>546.6</ele>
        <time>2022-03-19T15:28:56Z</time>
      </trkpt>
      <trkpt lat="46.64191" lon="5.64592">
        <ele>546.2</ele>
        <time>2022-03-19T15:29:03Z</time>
      </trkpt>
      <trkpt lat="46.64185" lon="5.64593">
        <ele>546</ele>
        <time>2022-03-19T15:29:04Z</time>
      </trkpt>
      <trkpt lat="46.64168" lon="5.64592">
        <ele>546</ele>
        <time>2022-03-19T15:29:06Z</time>
      </trkpt>
      <trkpt lat="46.64153" lon="5.64588">
        <ele>545.8</ele>
        <time>2022-03-19T15:29:08Z</time>
      </trkpt>
      <trkpt lat="46.6411" lon="5.6457">
        <ele>545.8</ele>
        <time>2022-03-19T15:29:14Z</time>
      </trkpt>
      <trkpt lat="46.6407" lon="5.64563">
        <ele>546.4</ele>
        <time>2022-03-19T15:29:20Z</time>
      </trkpt>
      <trkpt lat="46.64042" lon="5.6457">
        <ele>547.6</ele>
        <time>2022-03-19T15:29:24Z</time>
      </trkpt>
      <trkpt lat="46.64028" lon="5.64575">
        <ele>547.8</ele>
        <time>2022-03-19T15:29:26Z</time>
      </trkpt>
      <trkpt lat="46.63987" lon="5.64581">
        <ele>548.2</ele>
        <time>2022-03-19T15:29:31Z</time>
      </trkpt>
      <trkpt lat="46.63945" lon="5.64573">
        <ele>547.4</ele>
        <time>2022-03-19T15:29:36Z</time>
      </trkpt>
      <trkpt lat="46.63909" lon="5.64552">
        <ele>546.6</ele>
        <time>2022-03-19T15:29:41Z</time>
      </trkpt>
      <trkpt lat="46.63866" lon="5.64518">
        <ele>547</ele>
        <time>2022-03-19T15:29:48Z</time>
      </trkpt>
      <trkpt lat="46.63837" lon="5.64494">
        <ele>547.8</ele>
        <time>2022-03-19T15:29:54Z</time>
      </trkpt>
      <trkpt lat="46.63822" lon="5.64482">
        <ele>548.8</ele>
        <time>2022-03-19T15:29:57Z</time>
      </trkpt>
      <trkpt lat="46.63804" lon="5.64467">
        <ele>550</ele>
        <time>2022-03-19T15:30:01Z</time>
      </trkpt>
      <trkpt lat="46.63794" lon="5.64459">
        <ele>550.8</ele>
        <time>2022-03-19T15:30:03Z</time>
      </trkpt>
      <trkpt lat="46.6379" lon="5.64455">
        <ele>551.2</ele>
        <time>2022-03-19T15:30:04Z</time>
      </trkpt>
      <trkpt lat="46.63758" lon="5.64426">
        <ele>552.2</ele>
        <time>2022-03-19T15:30:11Z</time>
      </trkpt>
      <trkpt lat="46.63754" lon="5.64423">
        <ele>552.6</ele>
        <time>2022-03-19T15:30:12Z</time>
      </trkpt>
      <trkpt lat="46.6374" lon="5.64411">
        <ele>553.4</ele>
        <time>2022-03-19T15:30:15Z</time>
      </trkpt>
      <trkpt lat="46.63721" lon="5.64398">
        <ele>554.4</ele>
        <time>2022-03-19T15:30:19Z</time>
      </trkpt>
      <trkpt lat="46.63716" lon="5.64395">
        <ele>554.6</ele>
        <time>2022-03-19T15:30:20Z</time>
      </trkpt>
      <trkpt lat="46.63694" lon="5.64381">
        <ele>555.6</ele>
        <time>2022-03-19T15:30:25Z</time>
      </trkpt>
      <trkpt lat="46.63666" lon="5.64365">
        <ele>556.6</ele>
        <time>2022-03-19T15:30:31Z</time>
      </trkpt>
      <trkpt lat="46.63656" lon="5.64359">
        <ele>557.2</ele>
        <time>2022-03-19T15:30:33Z</time>
      </trkpt>
      <trkpt lat="46.63643" lon="5.64349">
        <ele>557.8</ele>
        <time>2022-03-19T15:30:36Z</time>
      </trkpt>
      <trkpt lat="46.6362" lon="5.64332">
        <ele>558.6</ele>
        <time>2022-03-19T15:30:41Z</time>
      </trkpt>
      <trkpt lat="46.63615" lon="5.6433">
        <ele>558.6</ele>
        <time>2022-03-19T15:30:42Z</time>
      </trkpt>
      <trkpt lat="46.6361" lon="5.64326">
        <ele>558.8</ele>
        <time>2022-03-19T15:30:43Z</time>
      </trkpt>
      <trkpt lat="46.63605" lon="5.64321">
        <ele>558.8</ele>
        <time>2022-03-19T15:30:44Z</time>
      </trkpt>
      <trkpt lat="46.63595" lon="5.64311">
        <ele>558.8</ele>
        <time>2022-03-19T15:30:46Z</time>
      </trkpt>
      <trkpt lat="46.63556" lon="5.64276">
        <ele>558.4</ele>
        <time>2022-03-19T15:30:53Z</time>
      </trkpt>
      <trkpt lat="46.63518" lon="5.64253">
        <ele>558.2</ele>
        <time>2022-03-19T15:30:59Z</time>
      </trkpt>
      <trkpt lat="46.63501" lon="5.64243">
        <ele>558.8</ele>
        <time>2022-03-19T15:31:02Z</time>
      </trkpt>
      <trkpt lat="46.6349" lon="5.64232">
        <ele>559.2</ele>
        <time>2022-03-19T15:31:04Z</time>
      </trkpt>
      <trkpt lat="46.63462" lon="5.64178">
        <ele>559.4</ele>
        <time>2022-03-19T15:31:11Z</time>
      </trkpt>
      <trkpt lat="46.63434" lon="5.64117">
        <ele>558.6</ele>
        <time>2022-03-19T15:31:19Z</time>
      </trkpt>
      <trkpt lat="46.63423" lon="5.6411">
        <ele>558.6</ele>
        <time>2022-03-19T15:31:22Z</time>
      </trkpt>
      <trkpt lat="46.63412" lon="5.64124">
        <ele>558.6</ele>
        <time>2022-03-19T15:31:26Z</time>
      </trkpt>
      <trkpt lat="46.63398" lon="5.64149">
        <ele>559</ele>
        <time>2022-03-19T15:31:30Z</time>
      </trkpt>
      <trkpt lat="46.63374" lon="5.64189">
        <ele>559.4</ele>
        <time>2022-03-19T15:31:36Z</time>
      </trkpt>
      <trkpt lat="46.63346" lon="5.64231">
        <ele>559.6</ele>
        <time>2022-03-19T15:31:42Z</time>
      </trkpt>
      <trkpt lat="46.63341" lon="5.64236">
        <ele>559.4</ele>
        <time>2022-03-19T15:31:43Z</time>
      </trkpt>
      <trkpt lat="46.63336" lon="5.6424">
        <ele>559.4</ele>
        <time>2022-03-19T15:31:44Z</time>
      </trkpt>
      <trkpt lat="46.63319" lon="5.6425">
        <ele>559.8</ele>
        <time>2022-03-19T15:31:47Z</time>
      </trkpt>
      <trkpt lat="46.63296" lon="5.64262">
        <ele>560</ele>
        <time>2022-03-19T15:31:51Z</time>
      </trkpt>
      <trkpt lat="46.63287" lon="5.6427">
        <ele>560.2</ele>
        <time>2022-03-19T15:31:53Z</time>
      </trkpt>
      <trkpt lat="46.63262" lon="5.643">
        <ele>561.2</ele>
        <time>2022-03-19T15:31:58Z</time>
      </trkpt>
      <trkpt lat="46.63258" lon="5.64306">
        <ele>561.2</ele>
        <time>2022-03-19T15:31:59Z</time>
      </trkpt>
      <trkpt lat="46.63236" lon="5.64328">
        <ele>561.2</ele>
        <time>2022-03-19T15:32:03Z</time>
      </trkpt>
      <trkpt lat="46.63229" lon="5.64331">
        <ele>561.2</ele>
        <time>2022-03-19T15:32:04Z</time>
      </trkpt>
      <trkpt lat="46.63222" lon="5.64334">
        <ele>561.2</ele>
        <time>2022-03-19T15:32:05Z</time>
      </trkpt>
      <trkpt lat="46.63201" lon="5.64334">
        <ele>561.2</ele>
        <time>2022-03-19T15:32:08Z</time>
      </trkpt>
      <trkpt lat="46.63157" lon="5.64331">
        <ele>561.4</ele>
        <time>2022-03-19T15:32:15Z</time>
      </trkpt>
      <trkpt lat="46.63134" lon="5.64335">
        <ele>562.8</ele>
        <time>2022-03-19T15:32:19Z</time>
      </trkpt>
      <trkpt lat="46.63117" lon="5.64338">
        <ele>563.8</ele>
        <time>2022-03-19T15:32:22Z</time>
      </trkpt>
      <trkpt lat="46.63111" lon="5.64339">
        <ele>564</ele>
        <time>2022-03-19T15:32:23Z</time>
      </trkpt>
      <trkpt lat="46.63089" lon="5.64338">
        <ele>565</ele>
        <time>2022-03-19T15:32:27Z</time>
      </trkpt>
      <trkpt lat="46.63083" lon="5.64338">
        <ele>565.2</ele>
        <time>2022-03-19T15:32:28Z</time>
      </trkpt>
      <trkpt lat="46.6305" lon="5.64332">
        <ele>566</ele>
        <time>2022-03-19T15:32:33Z</time>
      </trkpt>
      <trkpt lat="46.63027" lon="5.64329">
        <ele>565.8</ele>
        <time>2022-03-19T15:32:36Z</time>
      </trkpt>
      <trkpt lat="46.63011" lon="5.64327">
        <ele>565.6</ele>
        <time>2022-03-19T15:32:38Z</time>
      </trkpt>
      <trkpt lat="46.62967" lon="5.6432">
        <ele>563.8</ele>
        <time>2022-03-19T15:32:43Z</time>
      </trkpt>
      <trkpt lat="46.62957" lon="5.64318">
        <ele>563.4</ele>
        <time>2022-03-19T15:32:44Z</time>
      </trkpt>
      <trkpt lat="46.62932" lon="5.64314">
        <ele>562</ele>
        <time>2022-03-19T15:32:47Z</time>
      </trkpt>
      <trkpt lat="46.62914" lon="5.64311">
        <ele>560.8</ele>
        <time>2022-03-19T15:32:49Z</time>
      </trkpt>
      <trkpt lat="46.62885" lon="5.64307">
        <ele>559.4</ele>
        <time>2022-03-19T15:32:52Z</time>
      </trkpt>
      <trkpt lat="46.62875" lon="5.64305">
        <ele>559.2</ele>
        <time>2022-03-19T15:32:53Z</time>
      </trkpt>
      <trkpt lat="46.62848" lon="5.64301">
        <ele>558</ele>
        <time>2022-03-19T15:32:56Z</time>
      </trkpt>
      <trkpt lat="46.62805" lon="5.64293">
        <ele>557</ele>
        <time>2022-03-19T15:33:01Z</time>
      </trkpt>
      <trkpt lat="46.62797" lon="5.64292">
        <ele>556.8</ele>
        <time>2022-03-19T15:33:02Z</time>
      </trkpt>
      <trkpt lat="46.62757" lon="5.64275">
        <ele>556.2</ele>
        <time>2022-03-19T15:33:07Z</time>
      </trkpt>
      <trkpt lat="46.62734" lon="5.6426">
        <ele>555.6</ele>
        <time>2022-03-19T15:33:10Z</time>
      </trkpt>
      <trkpt lat="46.62702" lon="5.64242">
        <ele>554.8</ele>
        <time>2022-03-19T15:33:14Z</time>
      </trkpt>
      <trkpt lat="46.62694" lon="5.64238">
        <ele>554.4</ele>
        <time>2022-03-19T15:33:15Z</time>
      </trkpt>
      <trkpt lat="46.62663" lon="5.64232">
        <ele>554.2</ele>
        <time>2022-03-19T15:33:19Z</time>
      </trkpt>
      <trkpt lat="46.62621" lon="5.6423">
        <ele>554.4</ele>
        <time>2022-03-19T15:33:25Z</time>
      </trkpt>
      <trkpt lat="46.6258" lon="5.6423">
        <ele>555.8</ele>
        <time>2022-03-19T15:33:32Z</time>
      </trkpt>
      <trkpt lat="46.62551" lon="5.64231">
        <ele>557</ele>
        <time>2022-03-19T15:33:37Z</time>
      </trkpt>
      <trkpt lat="46.6254" lon="5.64228">
        <ele>557.8</ele>
        <time>2022-03-19T15:33:39Z</time>
      </trkpt>
      <trkpt lat="46.62535" lon="5.64225">
        <ele>558</ele>
        <time>2022-03-19T15:33:40Z</time>
      </trkpt>
      <trkpt lat="46.62513" lon="5.64207">
        <ele>559.6</ele>
        <time>2022-03-19T15:33:45Z</time>
      </trkpt>
      <trkpt lat="46.62505" lon="5.64198">
        <ele>560.8</ele>
        <time>2022-03-19T15:33:47Z</time>
      </trkpt>
      <trkpt lat="46.62489" lon="5.6418">
        <ele>562</ele>
        <time>2022-03-19T15:33:51Z</time>
      </trkpt>
      <trkpt lat="46.62472" lon="5.64162">
        <ele>563</ele>
        <time>2022-03-19T15:33:55Z</time>
      </trkpt>
      <trkpt lat="46.62448" lon="5.64138">
        <ele>564.4</ele>
        <time>2022-03-19T15:34:01Z</time>
      </trkpt>
      <trkpt lat="46.62443" lon="5.64133">
        <ele>564.4</ele>
        <time>2022-03-19T15:34:02Z</time>
      </trkpt>
      <trkpt lat="46.62419" lon="5.64112">
        <ele>565.4</ele>
        <time>2022-03-19T15:34:07Z</time>
      </trkpt>
      <trkpt lat="46.62409" lon="5.64104">
        <ele>565.6</ele>
        <time>2022-03-19T15:34:09Z</time>
      </trkpt>
      <trkpt lat="46.62369" lon="5.64077">
        <ele>565.8</ele>
        <time>2022-03-19T15:34:16Z</time>
      </trkpt>
      <trkpt lat="46.62326" lon="5.64055">
        <ele>565</ele>
        <time>2022-03-19T15:34:22Z</time>
      </trkpt>
      <trkpt lat="46.62303" lon="5.64048">
        <ele>564.4</ele>
        <time>2022-03-19T15:34:25Z</time>
      </trkpt>
      <trkpt lat="46.62288" lon="5.64047">
        <ele>564</ele>
        <time>2022-03-19T15:34:27Z</time>
      </trkpt>
      <trkpt lat="46.62267" lon="5.64049">
        <ele>564</ele>
        <time>2022-03-19T15:34:30Z</time>
      </trkpt>
      <trkpt lat="46.62254" lon="5.64053">
        <ele>564</ele>
        <time>2022-03-19T15:34:32Z</time>
      </trkpt>
      <trkpt lat="46.62217" lon="5.64074">
        <ele>565.4</ele>
        <time>2022-03-19T15:34:38Z</time>
      </trkpt>
      <trkpt lat="46.62175" lon="5.64098">
        <ele>566</ele>
        <time>2022-03-19T15:34:44Z</time>
      </trkpt>
      <trkpt lat="46.62136" lon="5.641">
        <ele>565.2</ele>
        <time>2022-03-19T15:34:49Z</time>
      </trkpt>
      <trkpt lat="46.62099" lon="5.64103">
        <ele>565</ele>
        <time>2022-03-19T15:34:54Z</time>
      </trkpt>
      <trkpt lat="46.62092" lon="5.64105">
        <ele>565</ele>
        <time>2022-03-19T15:34:55Z</time>
      </trkpt>
      <trkpt lat="46.62036" lon="5.64125">
        <ele>566</ele>
        <time>2022-03-19T15:35:03Z</time>
      </trkpt>
      <trkpt lat="46.6203" lon="5.64126">
        <ele>566</ele>
        <time>2022-03-19T15:35:04Z</time>
      </trkpt>
      <trkpt lat="46.62004" lon="5.6413">
        <ele>566.4</ele>
        <time>2022-03-19T15:35:08Z</time>
      </trkpt>
      <trkpt lat="46.61992" lon="5.64131">
        <ele>566.8</ele>
        <time>2022-03-19T15:35:10Z</time>
      </trkpt>
      <trkpt lat="46.61974" lon="5.64132">
        <ele>567.6</ele>
        <time>2022-03-19T15:35:13Z</time>
      </trkpt>
      <trkpt lat="46.61944" lon="5.64135">
        <ele>568.8</ele>
        <time>2022-03-19T15:35:18Z</time>
      </trkpt>
      <trkpt lat="46.61938" lon="5.64135">
        <ele>569.2</ele>
        <time>2022-03-19T15:35:19Z</time>
      </trkpt>
      <trkpt lat="46.61925" lon="5.64136">
        <ele>570</ele>
        <time>2022-03-19T15:35:21Z</time>
      </trkpt>
      <trkpt lat="46.61898" lon="5.6414">
        <ele>571.4</ele>
        <time>2022-03-19T15:35:25Z</time>
      </trkpt>
      <trkpt lat="46.61891" lon="5.64141">
        <ele>571.6</ele>
        <time>2022-03-19T15:35:26Z</time>
      </trkpt>
      <trkpt lat="46.6184" lon="5.64144">
        <ele>572.4</ele>
        <time>2022-03-19T15:35:34Z</time>
      </trkpt>
      <trkpt lat="46.61809" lon="5.64145">
        <ele>573.4</ele>
        <time>2022-03-19T15:35:39Z</time>
      </trkpt>
      <trkpt lat="46.61789" lon="5.64146">
        <ele>573.8</ele>
        <time>2022-03-19T15:35:42Z</time>
      </trkpt>
      <trkpt lat="46.61744" lon="5.64151">
        <ele>574.4</ele>
        <time>2022-03-19T15:35:49Z</time>
      </trkpt>
      <trkpt lat="46.61738" lon="5.64153">
        <ele>574.6</ele>
        <time>2022-03-19T15:35:50Z</time>
      </trkpt>
      <trkpt lat="46.61726" lon="5.6416">
        <ele>575</ele>
        <time>2022-03-19T15:35:52Z</time>
      </trkpt>
      <trkpt lat="46.61715" lon="5.64171">
        <ele>575.4</ele>
        <time>2022-03-19T15:35:54Z</time>
      </trkpt>
      <trkpt lat="46.61696" lon="5.64203">
        <ele>575.4</ele>
        <time>2022-03-19T15:35:58Z</time>
      </trkpt>
      <trkpt lat="46.61672" lon="5.64248">
        <ele>575.2</ele>
        <time>2022-03-19T15:36:03Z</time>
      </trkpt>
      <trkpt lat="46.61667" lon="5.64256">
        <ele>575</ele>
        <time>2022-03-19T15:36:04Z</time>
      </trkpt>
      <trkpt lat="46.61655" lon="5.64272">
        <ele>575</ele>
        <time>2022-03-19T15:36:06Z</time>
      </trkpt>
      <trkpt lat="46.61642" lon="5.64287">
        <ele>574.8</ele>
        <time>2022-03-19T15:36:08Z</time>
      </trkpt>
      <trkpt lat="46.61635" lon="5.64293">
        <ele>574.8</ele>
        <time>2022-03-19T15:36:09Z</time>
      </trkpt>
      <trkpt lat="46.6162" lon="5.64302">
        <ele>574.8</ele>
        <time>2022-03-19T15:36:11Z</time>
      </trkpt>
      <trkpt lat="46.61605" lon="5.64307">
        <ele>574.8</ele>
        <time>2022-03-19T15:36:13Z</time>
      </trkpt>
      <trkpt lat="46.61575" lon="5.64311">
        <ele>575</ele>
        <time>2022-03-19T15:36:17Z</time>
      </trkpt>
      <trkpt lat="46.61567" lon="5.64314">
        <ele>575</ele>
        <time>2022-03-19T15:36:18Z</time>
      </trkpt>
      <trkpt lat="46.6156" lon="5.6432">
        <ele>575</ele>
        <time>2022-03-19T15:36:19Z</time>
      </trkpt>
      <trkpt lat="46.61543" lon="5.64335">
        <ele>574.8</ele>
        <time>2022-03-19T15:36:21Z</time>
      </trkpt>
      <trkpt lat="46.61536" lon="5.64344">
        <ele>574.8</ele>
        <time>2022-03-19T15:36:22Z</time>
      </trkpt>
      <trkpt lat="46.61493" lon="5.64392">
        <ele>573.6</ele>
        <time>2022-03-19T15:36:28Z</time>
      </trkpt>
      <trkpt lat="46.61485" lon="5.64399">
        <ele>573.4</ele>
        <time>2022-03-19T15:36:29Z</time>
      </trkpt>
      <trkpt lat="46.61459" lon="5.64418">
        <ele>573</ele>
        <time>2022-03-19T15:36:32Z</time>
      </trkpt>
      <trkpt lat="46.6145" lon="5.64422">
        <ele>573</ele>
        <time>2022-03-19T15:36:33Z</time>
      </trkpt>
      <trkpt lat="46.61441" lon="5.64426">
        <ele>572.8</ele>
        <time>2022-03-19T15:36:34Z</time>
      </trkpt>
      <trkpt lat="46.61422" lon="5.64432">
        <ele>572</ele>
        <time>2022-03-19T15:36:36Z</time>
      </trkpt>
      <trkpt lat="46.61403" lon="5.64436">
        <ele>571.2</ele>
        <time>2022-03-19T15:36:38Z</time>
      </trkpt>
      <trkpt lat="46.61386" lon="5.64439">
        <ele>571</ele>
        <time>2022-03-19T15:36:40Z</time>
      </trkpt>
      <trkpt lat="46.61343" lon="5.64446">
        <ele>570.8</ele>
        <time>2022-03-19T15:36:45Z</time>
      </trkpt>
      <trkpt lat="46.61295" lon="5.64449">
        <ele>572</ele>
        <time>2022-03-19T15:36:51Z</time>
      </trkpt>
      <trkpt lat="46.61288" lon="5.64448">
        <ele>572.2</ele>
        <time>2022-03-19T15:36:52Z</time>
      </trkpt>
      <trkpt lat="46.61255" lon="5.64441">
        <ele>573.2</ele>
        <time>2022-03-19T15:36:57Z</time>
      </trkpt>
      <trkpt lat="46.61233" lon="5.64434">
        <ele>574.2</ele>
        <time>2022-03-19T15:37:01Z</time>
      </trkpt>
      <trkpt lat="46.61228" lon="5.64431">
        <ele>574.8</ele>
        <time>2022-03-19T15:37:02Z</time>
      </trkpt>
      <trkpt lat="46.61218" lon="5.64422">
        <ele>575.8</ele>
        <time>2022-03-19T15:37:04Z</time>
      </trkpt>
      <trkpt lat="46.61213" lon="5.64417">
        <ele>576.2</ele>
        <time>2022-03-19T15:37:05Z</time>
      </trkpt>
      <trkpt lat="46.61199" lon="5.64403">
        <ele>577.4</ele>
        <time>2022-03-19T15:37:08Z</time>
      </trkpt>
      <trkpt lat="46.61176" lon="5.64375">
        <ele>578.2</ele>
        <time>2022-03-19T15:37:13Z</time>
      </trkpt>
      <trkpt lat="46.61173" lon="5.64368">
        <ele>578.4</ele>
        <time>2022-03-19T15:37:14Z</time>
      </trkpt>
      <trkpt lat="46.61171" lon="5.64361">
        <ele>578.8</ele>
        <time>2022-03-19T15:37:15Z</time>
      </trkpt>
      <trkpt lat="46.61169" lon="5.64352">
        <ele>579</ele>
        <time>2022-03-19T15:37:16Z</time>
      </trkpt>
      <trkpt lat="46.61168" lon="5.64344">
        <ele>579.2</ele>
        <time>2022-03-19T15:37:17Z</time>
      </trkpt>
      <trkpt lat="46.61169" lon="5.64327">
        <ele>579.6</ele>
        <time>2022-03-19T15:37:19Z</time>
      </trkpt>
      <trkpt lat="46.6117" lon="5.64319">
        <ele>579.8</ele>
        <time>2022-03-19T15:37:20Z</time>
      </trkpt>
      <trkpt lat="46.61175" lon="5.64277">
        <ele>580.8</ele>
        <time>2022-03-19T15:37:25Z</time>
      </trkpt>
      <trkpt lat="46.61178" lon="5.64246">
        <ele>582.2</ele>
        <time>2022-03-19T15:37:29Z</time>
      </trkpt>
      <trkpt lat="46.61177" lon="5.6423">
        <ele>582.8</ele>
        <time>2022-03-19T15:37:31Z</time>
      </trkpt>
      <trkpt lat="46.61176" lon="5.64223">
        <ele>583.4</ele>
        <time>2022-03-19T15:37:32Z</time>
      </trkpt>
      <trkpt lat="46.61175" lon="5.64215">
        <ele>583.8</ele>
        <time>2022-03-19T15:37:33Z</time>
      </trkpt>
      <trkpt lat="46.61172" lon="5.64209">
        <ele>584.4</ele>
        <time>2022-03-19T15:37:34Z</time>
      </trkpt>
      <trkpt lat="46.61168" lon="5.64204">
        <ele>584.6</ele>
        <time>2022-03-19T15:37:35Z</time>
      </trkpt>
      <trkpt lat="46.6116" lon="5.64195">
        <ele>585.2</ele>
        <time>2022-03-19T15:37:37Z</time>
      </trkpt>
      <trkpt lat="46.61156" lon="5.64191">
        <ele>585.8</ele>
        <time>2022-03-19T15:37:38Z</time>
      </trkpt>
      <trkpt lat="46.61142" lon="5.64177">
        <ele>587</ele>
        <time>2022-03-19T15:37:41Z</time>
      </trkpt>
      <trkpt lat="46.61121" lon="5.64157">
        <ele>588</ele>
        <time>2022-03-19T15:37:46Z</time>
      </trkpt>
      <trkpt lat="46.61116" lon="5.64154">
        <ele>588.6</ele>
        <time>2022-03-19T15:37:47Z</time>
      </trkpt>
      <trkpt lat="46.6111" lon="5.6415">
        <ele>588.8</ele>
        <time>2022-03-19T15:37:48Z</time>
      </trkpt>
      <trkpt lat="46.61105" lon="5.64148">
        <ele>589</ele>
        <time>2022-03-19T15:37:49Z</time>
      </trkpt>
      <trkpt lat="46.61089" lon="5.64145">
        <ele>589.6</ele>
        <time>2022-03-19T15:37:52Z</time>
      </trkpt>
      <trkpt lat="46.61041" lon="5.64148">
        <ele>589.6</ele>
        <time>2022-03-19T15:37:59Z</time>
      </trkpt>
      <trkpt lat="46.6099" lon="5.64154">
        <ele>589</ele>
        <time>2022-03-19T15:38:06Z</time>
      </trkpt>
      <trkpt lat="46.60939" lon="5.64153">
        <ele>588.2</ele>
        <time>2022-03-19T15:38:12Z</time>
      </trkpt>
      <trkpt lat="46.6093" lon="5.64152">
        <ele>588</ele>
        <time>2022-03-19T15:38:13Z</time>
      </trkpt>
      <trkpt lat="46.60886" lon="5.64151">
        <ele>587</ele>
        <time>2022-03-19T15:38:18Z</time>
      </trkpt>
      <trkpt lat="46.60877" lon="5.64151">
        <ele>586.8</ele>
        <time>2022-03-19T15:38:19Z</time>
      </trkpt>
      <trkpt lat="46.6084" lon="5.6415">
        <ele>585.6</ele>
        <time>2022-03-19T15:38:23Z</time>
      </trkpt>
      <trkpt lat="46.60824" lon="5.64151">
        <ele>585</ele>
        <time>2022-03-19T15:38:25Z</time>
      </trkpt>
      <trkpt lat="46.60805" lon="5.64153">
        <ele>584.4</ele>
        <time>2022-03-19T15:38:27Z</time>
      </trkpt>
      <trkpt lat="46.60762" lon="5.64159">
        <ele>584</ele>
        <time>2022-03-19T15:38:32Z</time>
      </trkpt>
      <trkpt lat="46.60723" lon="5.6416">
        <ele>584.2</ele>
        <time>2022-03-19T15:38:37Z</time>
      </trkpt>
      <trkpt lat="46.60679" lon="5.64147">
        <ele>584.8</ele>
        <time>2022-03-19T15:38:43Z</time>
      </trkpt>
      <trkpt lat="46.60623" lon="5.64132">
        <ele>584.8</ele>
        <time>2022-03-19T15:38:50Z</time>
      </trkpt>
      <trkpt lat="46.60613" lon="5.64132">
        <ele>584.8</ele>
        <time>2022-03-19T15:38:51Z</time>
      </trkpt>
      <trkpt lat="46.60571" lon="5.64143">
        <ele>584.2</ele>
        <time>2022-03-19T15:38:56Z</time>
      </trkpt>
      <trkpt lat="46.60531" lon="5.64147">
        <ele>583.4</ele>
        <time>2022-03-19T15:39:00Z</time>
      </trkpt>
      <trkpt lat="46.60506" lon="5.64145">
        <ele>582</ele>
        <time>2022-03-19T15:39:03Z</time>
      </trkpt>
      <trkpt lat="46.6048" lon="5.64144">
        <ele>581.4</ele>
        <time>2022-03-19T15:39:06Z</time>
      </trkpt>
      <trkpt lat="46.60464" lon="5.64141">
        <ele>581.2</ele>
        <time>2022-03-19T15:39:08Z</time>
      </trkpt>
      <trkpt lat="46.60436" lon="5.64133">
        <ele>581</ele>
        <time>2022-03-19T15:39:12Z</time>
      </trkpt>
      <trkpt lat="46.60421" lon="5.64127">
        <ele>580.8</ele>
        <time>2022-03-19T15:39:14Z</time>
      </trkpt>
      <trkpt lat="46.60413" lon="5.64125">
        <ele>580.6</ele>
        <time>2022-03-19T15:39:15Z</time>
      </trkpt>
      <trkpt lat="46.60386" lon="5.64115">
        <ele>580.2</ele>
        <time>2022-03-19T15:39:19Z</time>
      </trkpt>
      <trkpt lat="46.60364" lon="5.64108">
        <ele>579.8</ele>
        <time>2022-03-19T15:39:22Z</time>
      </trkpt>
      <trkpt lat="46.60331" lon="5.64099">
        <ele>579.4</ele>
        <time>2022-03-19T15:39:27Z</time>
      </trkpt>
      <trkpt lat="46.60307" lon="5.64092">
        <ele>579</ele>
        <time>2022-03-19T15:39:31Z</time>
      </trkpt>
      <trkpt lat="46.60302" lon="5.6409">
        <ele>579</ele>
        <time>2022-03-19T15:39:32Z</time>
      </trkpt>
      <trkpt lat="46.60298" lon="5.64088">
        <ele>579</ele>
        <time>2022-03-19T15:39:33Z</time>
      </trkpt>
      <trkpt lat="46.60286" lon="5.64086">
        <ele>579</ele>
        <time>2022-03-19T15:39:36Z</time>
      </trkpt>
      <trkpt lat="46.60255" lon="5.64078">
        <ele>579</ele>
        <time>2022-03-19T15:39:43Z</time>
      </trkpt>
      <trkpt lat="46.6024" lon="5.64078">
        <ele>578.8</ele>
        <time>2022-03-19T15:39:46Z</time>
      </trkpt>
      <trkpt lat="46.60224" lon="5.64079">
        <ele>578.8</ele>
        <time>2022-03-19T15:39:49Z</time>
      </trkpt>
      <trkpt lat="46.6022" lon="5.6408">
        <ele>578.8</ele>
        <time>2022-03-19T15:39:50Z</time>
      </trkpt>
      <trkpt lat="46.60199" lon="5.64078">
        <ele>579</ele>
        <time>2022-03-19T15:39:54Z</time>
      </trkpt>
      <trkpt lat="46.60164" lon="5.64073">
        <ele>579</ele>
        <time>2022-03-19T15:40:02Z</time>
      </trkpt>
      <trkpt lat="46.60135" lon="5.64067">
        <ele>579.6</ele>
        <time>2022-03-19T15:40:09Z</time>
      </trkpt>
      <trkpt lat="46.60128" lon="5.64066">
        <ele>579.8</ele>
        <time>2022-03-19T15:40:11Z</time>
      </trkpt>
      <trkpt lat="46.60111" lon="5.64065">
        <ele>580.6</ele>
        <time>2022-03-19T15:40:16Z</time>
      </trkpt>
      <trkpt lat="46.60105" lon="5.64066">
        <ele>581.2</ele>
        <time>2022-03-19T15:40:18Z</time>
      </trkpt>
      <trkpt lat="46.60097" lon="5.64061">
        <ele>581.4</ele>
        <time>2022-03-19T15:40:21Z</time>
      </trkpt>
      <trkpt lat="46.60087" lon="5.64051">
        <ele>581.6</ele>
        <time>2022-03-19T15:40:26Z</time>
      </trkpt>
      <trkpt lat="46.60082" lon="5.64049">
        <ele>581.6</ele>
        <time>2022-03-19T15:40:28Z</time>
      </trkpt>
      <trkpt lat="46.60074" lon="5.64043">
        <ele>581.8</ele>
        <time>2022-03-19T15:40:31Z</time>
      </trkpt>
      <trkpt lat="46.60053" lon="5.64035">
        <ele>581.8</ele>
        <time>2022-03-19T15:40:37Z</time>
      </trkpt>
      <trkpt lat="46.60028" lon="5.64026">
        <ele>581.6</ele>
        <time>2022-03-19T15:40:44Z</time>
      </trkpt>
      <trkpt lat="46.60007" lon="5.64017">
        <ele>580.6</ele>
        <time>2022-03-19T15:40:51Z</time>
      </trkpt>
      <trkpt lat="46.60005" lon="5.64014">
        <ele>580.2</ele>
        <time>2022-03-19T15:40:54Z</time>
      </trkpt>
      <trkpt lat="46.60006" lon="5.64007">
        <ele>579.2</ele>
        <time>2022-03-19T15:41:22Z</time>
      </trkpt>
      <trkpt lat="46.6001" lon="5.63999">
        <ele>579.2</ele>
        <time>2022-03-19T15:41:24Z</time>
      </trkpt>
      <trkpt lat="46.60024" lon="5.6397">
        <ele>579</ele>
        <time>2022-03-19T15:41:31Z</time>
      </trkpt>
      <trkpt lat="46.60045" lon="5.63931">
        <ele>578.4</ele>
        <time>2022-03-19T15:41:39Z</time>
      </trkpt>
      <trkpt lat="46.60047" lon="5.63925">
        <ele>578.4</ele>
        <time>2022-03-19T15:41:40Z</time>
      </trkpt>
      <trkpt lat="46.6005" lon="5.63911">
        <ele>578.2</ele>
        <time>2022-03-19T15:41:42Z</time>
      </trkpt>
      <trkpt lat="46.6005" lon="5.63903">
        <ele>578.2</ele>
        <time>2022-03-19T15:41:43Z</time>
      </trkpt>
      <trkpt lat="46.60048" lon="5.63898">
        <ele>577.8</ele>
        <time>2022-03-19T15:41:44Z</time>
      </trkpt>
      <trkpt lat="46.60042" lon="5.63884">
        <ele>577.6</ele>
        <time>2022-03-19T15:41:46Z</time>
      </trkpt>
      <trkpt lat="46.60017" lon="5.63857">
        <ele>577.2</ele>
        <time>2022-03-19T15:41:52Z</time>
      </trkpt>
      <trkpt lat="46.59996" lon="5.63836">
        <ele>577.2</ele>
        <time>2022-03-19T15:41:57Z</time>
      </trkpt>
      <trkpt lat="46.59972" lon="5.63813">
        <ele>576.6</ele>
        <time>2022-03-19T15:42:02Z</time>
      </trkpt>
      <trkpt lat="46.59951" lon="5.63793">
        <ele>576</ele>
        <time>2022-03-19T15:42:06Z</time>
      </trkpt>
      <trkpt lat="46.59935" lon="5.63776">
        <ele>575.4</ele>
        <time>2022-03-19T15:42:09Z</time>
      </trkpt>
      <trkpt lat="46.5993" lon="5.63769">
        <ele>575.2</ele>
        <time>2022-03-19T15:42:10Z</time>
      </trkpt>
      <trkpt lat="46.59916" lon="5.63748">
        <ele>574.8</ele>
        <time>2022-03-19T15:42:13Z</time>
      </trkpt>
      <trkpt lat="46.59898" lon="5.63709">
        <ele>573.6</ele>
        <time>2022-03-19T15:42:18Z</time>
      </trkpt>
      <trkpt lat="46.59892" lon="5.63693">
        <ele>573.6</ele>
        <time>2022-03-19T15:42:20Z</time>
      </trkpt>
      <trkpt lat="46.59867" lon="5.63624">
        <ele>573.4</ele>
        <time>2022-03-19T15:42:29Z</time>
      </trkpt>
      <trkpt lat="46.59848" lon="5.63579">
        <ele>573.8</ele>
        <time>2022-03-19T15:42:36Z</time>
      </trkpt>
      <trkpt lat="46.59835" lon="5.63562">
        <ele>574.2</ele>
        <time>2022-03-19T15:42:40Z</time>
      </trkpt>
      <trkpt lat="46.59831" lon="5.63558">
        <ele>574.4</ele>
        <time>2022-03-19T15:42:41Z</time>
      </trkpt>
      <trkpt lat="46.59822" lon="5.63553">
        <ele>574.8</ele>
        <time>2022-03-19T15:42:43Z</time>
      </trkpt>
      <trkpt lat="46.59807" lon="5.63541">
        <ele>576</ele>
        <time>2022-03-19T15:42:47Z</time>
      </trkpt>
      <trkpt lat="46.59803" lon="5.63539">
        <ele>576</ele>
        <time>2022-03-19T15:42:48Z</time>
      </trkpt>
      <trkpt lat="46.59768" lon="5.63512">
        <ele>576.2</ele>
        <time>2022-03-19T15:42:56Z</time>
      </trkpt>
      <trkpt lat="46.59755" lon="5.63495">
        <ele>575.8</ele>
        <time>2022-03-19T15:42:59Z</time>
      </trkpt>
      <trkpt lat="46.59748" lon="5.6348">
        <ele>575.6</ele>
        <time>2022-03-19T15:43:01Z</time>
      </trkpt>
      <trkpt lat="46.59742" lon="5.63462">
        <ele>575.2</ele>
        <time>2022-03-19T15:43:03Z</time>
      </trkpt>
      <trkpt lat="46.59741" lon="5.63453">
        <ele>574.8</ele>
        <time>2022-03-19T15:43:04Z</time>
      </trkpt>
      <trkpt lat="46.59741" lon="5.63443">
        <ele>574.6</ele>
        <time>2022-03-19T15:43:05Z</time>
      </trkpt>
      <trkpt lat="46.59741" lon="5.63434">
        <ele>574.2</ele>
        <time>2022-03-19T15:43:06Z</time>
      </trkpt>
      <trkpt lat="46.59742" lon="5.63416">
        <ele>573.4</ele>
        <time>2022-03-19T15:43:08Z</time>
      </trkpt>
      <trkpt lat="46.59745" lon="5.63394">
        <ele>572.8</ele>
        <time>2022-03-19T15:43:10Z</time>
      </trkpt>
      <trkpt lat="46.59749" lon="5.63365">
        <ele>572.2</ele>
        <time>2022-03-19T15:43:13Z</time>
      </trkpt>
      <trkpt lat="46.59755" lon="5.63321">
        <ele>571.4</ele>
        <time>2022-03-19T15:43:17Z</time>
      </trkpt>
      <trkpt lat="46.59755" lon="5.6331">
        <ele>570.8</ele>
        <time>2022-03-19T15:43:18Z</time>
      </trkpt>
      <trkpt lat="46.59755" lon="5.63286">
        <ele>570</ele>
        <time>2022-03-19T15:43:20Z</time>
      </trkpt>
      <trkpt lat="46.59754" lon="5.63263">
        <ele>569.4</ele>
        <time>2022-03-19T15:43:22Z</time>
      </trkpt>
      <trkpt lat="46.59751" lon="5.63219">
        <ele>568.8</ele>
        <time>2022-03-19T15:43:26Z</time>
      </trkpt>
      <trkpt lat="46.59748" lon="5.63165">
        <ele>568</ele>
        <time>2022-03-19T15:43:31Z</time>
      </trkpt>
      <trkpt lat="46.59748" lon="5.63145">
        <ele>567.8</ele>
        <time>2022-03-19T15:43:33Z</time>
      </trkpt>
      <trkpt lat="46.59748" lon="5.63117">
        <ele>567.8</ele>
        <time>2022-03-19T15:43:36Z</time>
      </trkpt>
      <trkpt lat="46.59751" lon="5.63082">
        <ele>567.8</ele>
        <time>2022-03-19T15:43:40Z</time>
      </trkpt>
      <trkpt lat="46.59751" lon="5.63074">
        <ele>567.8</ele>
        <time>2022-03-19T15:43:41Z</time>
      </trkpt>
      <trkpt lat="46.5975" lon="5.63063">
        <ele>568</ele>
        <time>2022-03-19T15:43:42Z</time>
      </trkpt>
      <trkpt lat="46.59746" lon="5.63046">
        <ele>568</ele>
        <time>2022-03-19T15:43:44Z</time>
      </trkpt>
      <trkpt lat="46.59742" lon="5.63039">
        <ele>568</ele>
        <time>2022-03-19T15:43:45Z</time>
      </trkpt>
      <trkpt lat="46.59736" lon="5.63035">
        <ele>568</ele>
        <time>2022-03-19T15:43:46Z</time>
      </trkpt>
      <trkpt lat="46.59723" lon="5.63031">
        <ele>567.8</ele>
        <time>2022-03-19T15:43:48Z</time>
      </trkpt>
      <trkpt lat="46.59686" lon="5.6302">
        <ele>566.8</ele>
        <time>2022-03-19T15:43:53Z</time>
      </trkpt>
      <trkpt lat="46.59679" lon="5.63017">
        <ele>566.6</ele>
        <time>2022-03-19T15:43:54Z</time>
      </trkpt>
      <trkpt lat="46.59667" lon="5.63008">
        <ele>566.4</ele>
        <time>2022-03-19T15:43:56Z</time>
      </trkpt>
      <trkpt lat="46.59662" lon="5.63002">
        <ele>566.4</ele>
        <time>2022-03-19T15:43:57Z</time>
      </trkpt>
      <trkpt lat="46.59659" lon="5.62995">
        <ele>566.4</ele>
        <time>2022-03-19T15:43:58Z</time>
      </trkpt>
      <trkpt lat="46.59645" lon="5.6297">
        <ele>566.2</ele>
        <time>2022-03-19T15:44:02Z</time>
      </trkpt>
      <trkpt lat="46.59632" lon="5.62948">
        <ele>566.4</ele>
        <time>2022-03-19T15:44:07Z</time>
      </trkpt>
      <trkpt lat="46.59624" lon="5.62936">
        <ele>566.6</ele>
        <time>2022-03-19T15:44:11Z</time>
      </trkpt>
      <trkpt lat="46.59613" lon="5.62937">
        <ele>566.8</ele>
        <time>2022-03-19T15:44:15Z</time>
      </trkpt>
      <trkpt lat="46.59593" lon="5.62943">
        <ele>566.8</ele>
        <time>2022-03-19T15:44:20Z</time>
      </trkpt>
      <trkpt lat="46.5958" lon="5.62946">
        <ele>566.8</ele>
        <time>2022-03-19T15:44:23Z</time>
      </trkpt>
      <trkpt lat="46.59563" lon="5.62948">
        <ele>566.8</ele>
        <time>2022-03-19T15:44:26Z</time>
      </trkpt>
      <trkpt lat="46.59522" lon="5.62955">
        <ele>567</ele>
        <time>2022-03-19T15:44:33Z</time>
      </trkpt>
      <trkpt lat="46.59485" lon="5.62962">
        <ele>567.6</ele>
        <time>2022-03-19T15:44:40Z</time>
      </trkpt>
      <trkpt lat="46.59475" lon="5.62964">
        <ele>567.6</ele>
        <time>2022-03-19T15:44:42Z</time>
      </trkpt>
      <trkpt lat="46.59444" lon="5.62968">
        <ele>568.6</ele>
        <time>2022-03-19T15:44:48Z</time>
      </trkpt>
      <trkpt lat="46.59434" lon="5.62969">
        <ele>568.6</ele>
        <time>2022-03-19T15:44:50Z</time>
      </trkpt>
      <trkpt lat="46.59428" lon="5.6297">
        <ele>568.8</ele>
        <time>2022-03-19T15:44:51Z</time>
      </trkpt>
      <trkpt lat="46.59407" lon="5.62973">
        <ele>569.2</ele>
        <time>2022-03-19T15:44:55Z</time>
      </trkpt>
      <trkpt lat="46.59373" lon="5.62979">
        <ele>569.8</ele>
        <time>2022-03-19T15:45:01Z</time>
      </trkpt>
      <trkpt lat="46.59346" lon="5.62984">
        <ele>570.2</ele>
        <time>2022-03-19T15:45:06Z</time>
      </trkpt>
      <trkpt lat="46.59288" lon="5.62994">
        <ele>569.6</ele>
        <time>2022-03-19T15:45:16Z</time>
      </trkpt>
      <trkpt lat="46.59231" lon="5.62994">
        <ele>569.6</ele>
        <time>2022-03-19T15:45:25Z</time>
      </trkpt>
      <trkpt lat="46.59185" lon="5.62988">
        <ele>569</ele>
        <time>2022-03-19T15:45:32Z</time>
      </trkpt>
      <trkpt lat="46.59171" lon="5.62986">
        <ele>568.8</ele>
        <time>2022-03-19T15:45:34Z</time>
      </trkpt>
      <trkpt lat="46.59117" lon="5.62978">
        <ele>568.2</ele>
        <time>2022-03-19T15:45:42Z</time>
      </trkpt>
      <trkpt lat="46.59089" lon="5.62974">
        <ele>567.8</ele>
        <time>2022-03-19T15:45:46Z</time>
      </trkpt>
      <trkpt lat="46.59082" lon="5.62974">
        <ele>567.6</ele>
        <time>2022-03-19T15:45:47Z</time>
      </trkpt>
      <trkpt lat="46.59025" lon="5.62966">
        <ele>567.4</ele>
        <time>2022-03-19T15:45:55Z</time>
      </trkpt>
      <trkpt lat="46.59003" lon="5.62963">
        <ele>567</ele>
        <time>2022-03-19T15:45:58Z</time>
      </trkpt>
      <trkpt lat="46.58981" lon="5.6296">
        <ele>566.8</ele>
        <time>2022-03-19T15:46:01Z</time>
      </trkpt>
      <trkpt lat="46.58929" lon="5.62952">
        <ele>566.4</ele>
        <time>2022-03-19T15:46:08Z</time>
      </trkpt>
      <trkpt lat="46.58869" lon="5.62944">
        <ele>566</ele>
        <time>2022-03-19T15:46:16Z</time>
      </trkpt>
      <trkpt lat="46.5884" lon="5.6294">
        <ele>565.8</ele>
        <time>2022-03-19T15:46:20Z</time>
      </trkpt>
      <trkpt lat="46.58782" lon="5.62932">
        <ele>566</ele>
        <time>2022-03-19T15:46:28Z</time>
      </trkpt>
      <trkpt lat="46.58774" lon="5.62931">
        <ele>566</ele>
        <time>2022-03-19T15:46:29Z</time>
      </trkpt>
      <trkpt lat="46.5873" lon="5.62923">
        <ele>565.8</ele>
        <time>2022-03-19T15:46:35Z</time>
      </trkpt>
      <trkpt lat="46.58693" lon="5.62912">
        <ele>565.6</ele>
        <time>2022-03-19T15:46:40Z</time>
      </trkpt>
      <trkpt lat="46.58635" lon="5.62896">
        <ele>565</ele>
        <time>2022-03-19T15:46:48Z</time>
      </trkpt>
      <trkpt lat="46.58628" lon="5.62893">
        <ele>565</ele>
        <time>2022-03-19T15:46:49Z</time>
      </trkpt>
      <trkpt lat="46.58614" lon="5.6289">
        <ele>564.6</ele>
        <time>2022-03-19T15:46:51Z</time>
      </trkpt>
      <trkpt lat="46.58578" lon="5.62882">
        <ele>563.6</ele>
        <time>2022-03-19T15:46:56Z</time>
      </trkpt>
      <trkpt lat="46.58569" lon="5.62881">
        <ele>563.4</ele>
        <time>2022-03-19T15:46:57Z</time>
      </trkpt>
      <trkpt lat="46.5854" lon="5.62886">
        <ele>562.8</ele>
        <time>2022-03-19T15:47:01Z</time>
      </trkpt>
      <trkpt lat="46.58525" lon="5.62891">
        <ele>562.4</ele>
        <time>2022-03-19T15:47:03Z</time>
      </trkpt>
      <trkpt lat="46.58493" lon="5.62906">
        <ele>561.6</ele>
        <time>2022-03-19T15:47:07Z</time>
      </trkpt>
      <trkpt lat="46.58477" lon="5.62914">
        <ele>561.2</ele>
        <time>2022-03-19T15:47:09Z</time>
      </trkpt>
      <trkpt lat="46.58438" lon="5.62933">
        <ele>560</ele>
        <time>2022-03-19T15:47:14Z</time>
      </trkpt>
      <trkpt lat="46.58423" lon="5.62941">
        <ele>559.6</ele>
        <time>2022-03-19T15:47:16Z</time>
      </trkpt>
      <trkpt lat="46.58385" lon="5.62959">
        <ele>559</ele>
        <time>2022-03-19T15:47:21Z</time>
      </trkpt>
      <trkpt lat="46.58347" lon="5.62978">
        <ele>558.4</ele>
        <time>2022-03-19T15:47:26Z</time>
      </trkpt>
      <trkpt lat="46.58309" lon="5.62996">
        <ele>557.8</ele>
        <time>2022-03-19T15:47:31Z</time>
      </trkpt>
      <trkpt lat="46.58302" lon="5.63">
        <ele>557.8</ele>
        <time>2022-03-19T15:47:32Z</time>
      </trkpt>
      <trkpt lat="46.58262" lon="5.63019">
        <ele>556.8</ele>
        <time>2022-03-19T15:47:37Z</time>
      </trkpt>
      <trkpt lat="46.58223" lon="5.63038">
        <ele>556.2</ele>
        <time>2022-03-19T15:47:42Z</time>
      </trkpt>
      <trkpt lat="46.58192" lon="5.63047">
        <ele>555.8</ele>
        <time>2022-03-19T15:47:46Z</time>
      </trkpt>
      <trkpt lat="46.58184" lon="5.63048">
        <ele>555.6</ele>
        <time>2022-03-19T15:47:47Z</time>
      </trkpt>
      <trkpt lat="46.58159" lon="5.63042">
        <ele>555.2</ele>
        <time>2022-03-19T15:47:50Z</time>
      </trkpt>
      <trkpt lat="46.58151" lon="5.63039">
        <ele>555.2</ele>
        <time>2022-03-19T15:47:51Z</time>
      </trkpt>
      <trkpt lat="46.58143" lon="5.63034">
        <ele>555</ele>
        <time>2022-03-19T15:47:52Z</time>
      </trkpt>
      <trkpt lat="46.58128" lon="5.63022">
        <ele>554.6</ele>
        <time>2022-03-19T15:47:54Z</time>
      </trkpt>
      <trkpt lat="46.58121" lon="5.63016">
        <ele>554.2</ele>
        <time>2022-03-19T15:47:55Z</time>
      </trkpt>
      <trkpt lat="46.58102" lon="5.62992">
        <ele>553.2</ele>
        <time>2022-03-19T15:47:58Z</time>
      </trkpt>
      <trkpt lat="46.58082" lon="5.62968">
        <ele>552.8</ele>
        <time>2022-03-19T15:48:01Z</time>
      </trkpt>
      <trkpt lat="46.58056" lon="5.62935">
        <ele>552</ele>
        <time>2022-03-19T15:48:05Z</time>
      </trkpt>
      <trkpt lat="46.58035" lon="5.62913">
        <ele>551</ele>
        <time>2022-03-19T15:48:08Z</time>
      </trkpt>
      <trkpt lat="46.58029" lon="5.62908">
        <ele>550.8</ele>
        <time>2022-03-19T15:48:09Z</time>
      </trkpt>
      <trkpt lat="46.57999" lon="5.62883">
        <ele>550</ele>
        <time>2022-03-19T15:48:13Z</time>
      </trkpt>
      <trkpt lat="46.57974" lon="5.62867">
        <ele>549.4</ele>
        <time>2022-03-19T15:48:16Z</time>
      </trkpt>
      <trkpt lat="46.57959" lon="5.62859">
        <ele>548.8</ele>
        <time>2022-03-19T15:48:18Z</time>
      </trkpt>
      <trkpt lat="46.57915" lon="5.62842">
        <ele>547.6</ele>
        <time>2022-03-19T15:48:23Z</time>
      </trkpt>
      <trkpt lat="46.57853" lon="5.62825">
        <ele>547</ele>
        <time>2022-03-19T15:48:30Z</time>
      </trkpt>
      <trkpt lat="46.57835" lon="5.6282">
        <ele>546.8</ele>
        <time>2022-03-19T15:48:32Z</time>
      </trkpt>
      <trkpt lat="46.57817" lon="5.62814">
        <ele>546.4</ele>
        <time>2022-03-19T15:48:34Z</time>
      </trkpt>
      <trkpt lat="46.57773" lon="5.628">
        <ele>545.2</ele>
        <time>2022-03-19T15:48:39Z</time>
      </trkpt>
      <trkpt lat="46.57754" lon="5.62791">
        <ele>544.6</ele>
        <time>2022-03-19T15:48:41Z</time>
      </trkpt>
      <trkpt lat="46.57736" lon="5.62783">
        <ele>544</ele>
        <time>2022-03-19T15:48:43Z</time>
      </trkpt>
      <trkpt lat="46.57682" lon="5.62755">
        <ele>543</ele>
        <time>2022-03-19T15:48:49Z</time>
      </trkpt>
      <trkpt lat="46.57672" lon="5.62751">
        <ele>542.8</ele>
        <time>2022-03-19T15:48:50Z</time>
      </trkpt>
      <trkpt lat="46.57647" lon="5.62738">
        <ele>541.6</ele>
        <time>2022-03-19T15:48:53Z</time>
      </trkpt>
      <trkpt lat="46.57618" lon="5.62724">
        <ele>540.6</ele>
        <time>2022-03-19T15:48:56Z</time>
      </trkpt>
      <trkpt lat="46.57572" lon="5.62699">
        <ele>539.4</ele>
        <time>2022-03-19T15:49:01Z</time>
      </trkpt>
      <trkpt lat="46.57554" lon="5.62686">
        <ele>539.2</ele>
        <time>2022-03-19T15:49:03Z</time>
      </trkpt>
      <trkpt lat="46.57537" lon="5.62672">
        <ele>538.2</ele>
        <time>2022-03-19T15:49:05Z</time>
      </trkpt>
      <trkpt lat="46.57504" lon="5.62641">
        <ele>537</ele>
        <time>2022-03-19T15:49:09Z</time>
      </trkpt>
      <trkpt lat="46.5749" lon="5.62628">
        <ele>536.8</ele>
        <time>2022-03-19T15:49:11Z</time>
      </trkpt>
      <trkpt lat="46.57443" lon="5.62585">
        <ele>536.4</ele>
        <time>2022-03-19T15:49:17Z</time>
      </trkpt>
      <trkpt lat="46.57426" lon="5.62569">
        <ele>536.2</ele>
        <time>2022-03-19T15:49:19Z</time>
      </trkpt>
      <trkpt lat="46.57379" lon="5.62534">
        <ele>536.4</ele>
        <time>2022-03-19T15:49:25Z</time>
      </trkpt>
      <trkpt lat="46.57339" lon="5.6252">
        <ele>536.4</ele>
        <time>2022-03-19T15:49:30Z</time>
      </trkpt>
      <trkpt lat="46.57279" lon="5.625">
        <ele>536.4</ele>
        <time>2022-03-19T15:49:37Z</time>
      </trkpt>
      <trkpt lat="46.57263" lon="5.62496">
        <ele>536.4</ele>
        <time>2022-03-19T15:49:39Z</time>
      </trkpt>
      <trkpt lat="46.57207" lon="5.62491">
        <ele>537</ele>
        <time>2022-03-19T15:49:46Z</time>
      </trkpt>
      <trkpt lat="46.57151" lon="5.62498">
        <ele>537.6</ele>
        <time>2022-03-19T15:49:53Z</time>
      </trkpt>
      <trkpt lat="46.57128" lon="5.62492">
        <ele>537.6</ele>
        <time>2022-03-19T15:49:56Z</time>
      </trkpt>
      <trkpt lat="46.5712" lon="5.62488">
        <ele>537.6</ele>
        <time>2022-03-19T15:49:57Z</time>
      </trkpt>
      <trkpt lat="46.57079" lon="5.62453">
        <ele>537.6</ele>
        <time>2022-03-19T15:50:03Z</time>
      </trkpt>
      <trkpt lat="46.57032" lon="5.62408">
        <ele>538</ele>
        <time>2022-03-19T15:50:10Z</time>
      </trkpt>
      <trkpt lat="46.57013" lon="5.6239">
        <ele>538</ele>
        <time>2022-03-19T15:50:13Z</time>
      </trkpt>
      <trkpt lat="46.56993" lon="5.62371">
        <ele>538</ele>
        <time>2022-03-19T15:50:16Z</time>
      </trkpt>
      <trkpt lat="46.56972" lon="5.62351">
        <ele>538.2</ele>
        <time>2022-03-19T15:50:19Z</time>
      </trkpt>
      <trkpt lat="46.56922" lon="5.62305">
        <ele>538.2</ele>
        <time>2022-03-19T15:50:26Z</time>
      </trkpt>
      <trkpt lat="46.56902" lon="5.62286">
        <ele>537.8</ele>
        <time>2022-03-19T15:50:29Z</time>
      </trkpt>
      <trkpt lat="46.56849" lon="5.62237">
        <ele>537.2</ele>
        <time>2022-03-19T15:50:36Z</time>
      </trkpt>
      <trkpt lat="46.56813" lon="5.62203">
        <ele>537</ele>
        <time>2022-03-19T15:50:41Z</time>
      </trkpt>
      <trkpt lat="46.56799" lon="5.62191">
        <ele>536.8</ele>
        <time>2022-03-19T15:50:43Z</time>
      </trkpt>
      <trkpt lat="46.56769" lon="5.62163">
        <ele>536</ele>
        <time>2022-03-19T15:50:47Z</time>
      </trkpt>
      <trkpt lat="46.56738" lon="5.62133">
        <ele>534.8</ele>
        <time>2022-03-19T15:50:51Z</time>
      </trkpt>
      <trkpt lat="46.56722" lon="5.62119">
        <ele>534.4</ele>
        <time>2022-03-19T15:50:53Z</time>
      </trkpt>
      <trkpt lat="46.56699" lon="5.62097">
        <ele>533.6</ele>
        <time>2022-03-19T15:50:56Z</time>
      </trkpt>
      <trkpt lat="46.56653" lon="5.62055">
        <ele>532.6</ele>
        <time>2022-03-19T15:51:02Z</time>
      </trkpt>
      <trkpt lat="46.56637" lon="5.6204">
        <ele>532.6</ele>
        <time>2022-03-19T15:51:04Z</time>
      </trkpt>
      <trkpt lat="46.56589" lon="5.61994">
        <ele>533.4</ele>
        <time>2022-03-19T15:51:11Z</time>
      </trkpt>
      <trkpt lat="46.56574" lon="5.6198">
        <ele>533.4</ele>
        <time>2022-03-19T15:51:13Z</time>
      </trkpt>
      <trkpt lat="46.56523" lon="5.61932">
        <ele>534</ele>
        <time>2022-03-19T15:51:21Z</time>
      </trkpt>
      <trkpt lat="46.56517" lon="5.61926">
        <ele>534</ele>
        <time>2022-03-19T15:51:22Z</time>
      </trkpt>
      <trkpt lat="46.56467" lon="5.6188">
        <ele>534.4</ele>
        <time>2022-03-19T15:51:30Z</time>
      </trkpt>
      <trkpt lat="46.56461" lon="5.61874">
        <ele>534.6</ele>
        <time>2022-03-19T15:51:31Z</time>
      </trkpt>
      <trkpt lat="46.56442" lon="5.61856">
        <ele>534.8</ele>
        <time>2022-03-19T15:51:34Z</time>
      </trkpt>
      <trkpt lat="46.56397" lon="5.61807">
        <ele>536</ele>
        <time>2022-03-19T15:51:42Z</time>
      </trkpt>
      <trkpt lat="46.56354" lon="5.61754">
        <ele>536.8</ele>
        <time>2022-03-19T15:51:50Z</time>
      </trkpt>
      <trkpt lat="46.5631" lon="5.61697">
        <ele>537</ele>
        <time>2022-03-19T15:51:58Z</time>
      </trkpt>
      <trkpt lat="46.563" lon="5.61685">
        <ele>537</ele>
        <time>2022-03-19T15:52:00Z</time>
      </trkpt>
      <trkpt lat="46.56255" lon="5.61628">
        <ele>536.8</ele>
        <time>2022-03-19T15:52:08Z</time>
      </trkpt>
      <trkpt lat="46.56223" lon="5.61574">
        <ele>536.4</ele>
        <time>2022-03-19T15:52:15Z</time>
      </trkpt>
      <trkpt lat="46.56189" lon="5.61506">
        <ele>536.8</ele>
        <time>2022-03-19T15:52:23Z</time>
      </trkpt>
      <trkpt lat="46.56185" lon="5.61498">
        <ele>536.8</ele>
        <time>2022-03-19T15:52:24Z</time>
      </trkpt>
      <trkpt lat="46.5616" lon="5.61446">
        <ele>537.2</ele>
        <time>2022-03-19T15:52:30Z</time>
      </trkpt>
      <trkpt lat="46.56135" lon="5.61392">
        <ele>538</ele>
        <time>2022-03-19T15:52:36Z</time>
      </trkpt>
      <trkpt lat="46.56101" lon="5.61325">
        <ele>537.8</ele>
        <time>2022-03-19T15:52:44Z</time>
      </trkpt>
      <trkpt lat="46.56088" lon="5.61298">
        <ele>537.6</ele>
        <time>2022-03-19T15:52:47Z</time>
      </trkpt>
      <trkpt lat="46.56057" lon="5.61234">
        <ele>538.2</ele>
        <time>2022-03-19T15:52:55Z</time>
      </trkpt>
      <trkpt lat="46.56049" lon="5.61218">
        <ele>538.4</ele>
        <time>2022-03-19T15:52:57Z</time>
      </trkpt>
      <trkpt lat="46.56028" lon="5.61175">
        <ele>539.2</ele>
        <time>2022-03-19T15:53:03Z</time>
      </trkpt>
      <trkpt lat="46.56017" lon="5.61152">
        <ele>539.4</ele>
        <time>2022-03-19T15:53:06Z</time>
      </trkpt>
      <trkpt lat="46.55991" lon="5.61099">
        <ele>540.2</ele>
        <time>2022-03-19T15:53:13Z</time>
      </trkpt>
      <trkpt lat="46.55979" lon="5.61067">
        <ele>540.4</ele>
        <time>2022-03-19T15:53:17Z</time>
      </trkpt>
      <trkpt lat="46.55971" lon="5.61038">
        <ele>540.6</ele>
        <time>2022-03-19T15:53:20Z</time>
      </trkpt>
      <trkpt lat="46.55953" lon="5.60964">
        <ele>541.2</ele>
        <time>2022-03-19T15:53:28Z</time>
      </trkpt>
      <trkpt lat="46.55949" lon="5.60948">
        <ele>541.4</ele>
        <time>2022-03-19T15:53:30Z</time>
      </trkpt>
      <trkpt lat="46.55941" lon="5.60912">
        <ele>541.6</ele>
        <time>2022-03-19T15:53:34Z</time>
      </trkpt>
      <trkpt lat="46.55936" lon="5.60883">
        <ele>542</ele>
        <time>2022-03-19T15:53:37Z</time>
      </trkpt>
      <trkpt lat="46.55935" lon="5.60867">
        <ele>542.2</ele>
        <time>2022-03-19T15:53:39Z</time>
      </trkpt>
      <trkpt lat="46.55935" lon="5.60847">
        <ele>542.2</ele>
        <time>2022-03-19T15:53:41Z</time>
      </trkpt>
      <trkpt lat="46.55928" lon="5.60766">
        <ele>542.4</ele>
        <time>2022-03-19T15:53:49Z</time>
      </trkpt>
      <trkpt lat="46.55926" lon="5.60754">
        <ele>542.4</ele>
        <time>2022-03-19T15:53:50Z</time>
      </trkpt>
      <trkpt lat="46.55912" lon="5.6069">
        <ele>541.8</ele>
        <time>2022-03-19T15:53:56Z</time>
      </trkpt>
      <trkpt lat="46.55892" lon="5.6061">
        <ele>540.8</ele>
        <time>2022-03-19T15:54:03Z</time>
      </trkpt>
      <trkpt lat="46.55889" lon="5.60599">
        <ele>540.8</ele>
        <time>2022-03-19T15:54:04Z</time>
      </trkpt>
      <trkpt lat="46.55885" lon="5.60588">
        <ele>540.6</ele>
        <time>2022-03-19T15:54:05Z</time>
      </trkpt>
      <trkpt lat="46.55881" lon="5.6058">
        <ele>540.4</ele>
        <time>2022-03-19T15:54:06Z</time>
      </trkpt>
      <trkpt lat="46.55875" lon="5.6057">
        <ele>540.2</ele>
        <time>2022-03-19T15:54:07Z</time>
      </trkpt>
      <trkpt lat="46.55867" lon="5.6056">
        <ele>540</ele>
        <time>2022-03-19T15:54:08Z</time>
      </trkpt>
      <trkpt lat="46.55853" lon="5.60547">
        <ele>539.4</ele>
        <time>2022-03-19T15:54:10Z</time>
      </trkpt>
      <trkpt lat="46.55844" lon="5.60542">
        <ele>539.4</ele>
        <time>2022-03-19T15:54:11Z</time>
      </trkpt>
      <trkpt lat="46.55835" lon="5.60538">
        <ele>539.2</ele>
        <time>2022-03-19T15:54:12Z</time>
      </trkpt>
      <trkpt lat="46.55785" lon="5.60526">
        <ele>538.4</ele>
        <time>2022-03-19T15:54:17Z</time>
      </trkpt>
      <trkpt lat="46.55749" lon="5.60509">
        <ele>537.2</ele>
        <time>2022-03-19T15:54:21Z</time>
      </trkpt>
      <trkpt lat="46.55732" lon="5.60491">
        <ele>536.6</ele>
        <time>2022-03-19T15:54:23Z</time>
      </trkpt>
      <trkpt lat="46.55726" lon="5.60482">
        <ele>536.4</ele>
        <time>2022-03-19T15:54:24Z</time>
      </trkpt>
      <trkpt lat="46.5572" lon="5.60471">
        <ele>536.2</ele>
        <time>2022-03-19T15:54:25Z</time>
      </trkpt>
      <trkpt lat="46.55713" lon="5.60456">
        <ele>535.8</ele>
        <time>2022-03-19T15:54:26Z</time>
      </trkpt>
      <trkpt lat="46.55702" lon="5.6043">
        <ele>535.4</ele>
        <time>2022-03-19T15:54:28Z</time>
      </trkpt>
      <trkpt lat="46.55685" lon="5.60395">
        <ele>534.6</ele>
        <time>2022-03-19T15:54:31Z</time>
      </trkpt>
      <trkpt lat="46.55677" lon="5.60382">
        <ele>534.4</ele>
        <time>2022-03-19T15:54:32Z</time>
      </trkpt>
      <trkpt lat="46.55668" lon="5.60372">
        <ele>534.2</ele>
        <time>2022-03-19T15:54:33Z</time>
      </trkpt>
      <trkpt lat="46.55661" lon="5.60366">
        <ele>534</ele>
        <time>2022-03-19T15:54:34Z</time>
      </trkpt>
      <trkpt lat="46.55639" lon="5.60353">
        <ele>533.6</ele>
        <time>2022-03-19T15:54:36Z</time>
      </trkpt>
      <trkpt lat="46.5562" lon="5.60349">
        <ele>533.2</ele>
        <time>2022-03-19T15:54:38Z</time>
      </trkpt>
      <trkpt lat="46.55595" lon="5.60348">
        <ele>532.8</ele>
        <time>2022-03-19T15:54:40Z</time>
      </trkpt>
      <trkpt lat="46.55573" lon="5.60346">
        <ele>532.4</ele>
        <time>2022-03-19T15:54:42Z</time>
      </trkpt>
      <trkpt lat="46.55542" lon="5.60344">
        <ele>531.2</ele>
        <time>2022-03-19T15:54:45Z</time>
      </trkpt>
      <trkpt lat="46.5552" lon="5.60341">
        <ele>530.6</ele>
        <time>2022-03-19T15:54:47Z</time>
      </trkpt>
      <trkpt lat="46.55497" lon="5.60335">
        <ele>530</ele>
        <time>2022-03-19T15:54:49Z</time>
      </trkpt>
      <trkpt lat="46.55457" lon="5.60321">
        <ele>529.2</ele>
        <time>2022-03-19T15:54:53Z</time>
      </trkpt>
      <trkpt lat="46.55444" lon="5.60317">
        <ele>528.8</ele>
        <time>2022-03-19T15:54:54Z</time>
      </trkpt>
      <trkpt lat="46.55394" lon="5.60299">
        <ele>527.6</ele>
        <time>2022-03-19T15:54:59Z</time>
      </trkpt>
      <trkpt lat="46.55342" lon="5.60281">
        <ele>527.2</ele>
        <time>2022-03-19T15:55:04Z</time>
      </trkpt>
      <trkpt lat="46.55312" lon="5.60278">
        <ele>526.6</ele>
        <time>2022-03-19T15:55:07Z</time>
      </trkpt>
      <trkpt lat="46.55302" lon="5.6028">
        <ele>526.4</ele>
        <time>2022-03-19T15:55:08Z</time>
      </trkpt>
      <trkpt lat="46.55255" lon="5.60299">
        <ele>526</ele>
        <time>2022-03-19T15:55:13Z</time>
      </trkpt>
      <trkpt lat="46.55226" lon="5.60311">
        <ele>525.4</ele>
        <time>2022-03-19T15:55:16Z</time>
      </trkpt>
      <trkpt lat="46.55186" lon="5.60323">
        <ele>525</ele>
        <time>2022-03-19T15:55:21Z</time>
      </trkpt>
      <trkpt lat="46.55166" lon="5.60321">
        <ele>524.6</ele>
        <time>2022-03-19T15:55:23Z</time>
      </trkpt>
      <trkpt lat="46.55146" lon="5.60313">
        <ele>524.4</ele>
        <time>2022-03-19T15:55:25Z</time>
      </trkpt>
      <trkpt lat="46.55128" lon="5.60299">
        <ele>523.8</ele>
        <time>2022-03-19T15:55:27Z</time>
      </trkpt>
      <trkpt lat="46.5512" lon="5.6029">
        <ele>523.6</ele>
        <time>2022-03-19T15:55:28Z</time>
      </trkpt>
      <trkpt lat="46.55112" lon="5.6028">
        <ele>523.6</ele>
        <time>2022-03-19T15:55:29Z</time>
      </trkpt>
      <trkpt lat="46.55099" lon="5.60258">
        <ele>523.2</ele>
        <time>2022-03-19T15:55:31Z</time>
      </trkpt>
      <trkpt lat="46.55093" lon="5.60247">
        <ele>523.2</ele>
        <time>2022-03-19T15:55:32Z</time>
      </trkpt>
      <trkpt lat="46.55059" lon="5.60192">
        <ele>523.2</ele>
        <time>2022-03-19T15:55:37Z</time>
      </trkpt>
      <trkpt lat="46.55051" lon="5.60184">
        <ele>523.2</ele>
        <time>2022-03-19T15:55:38Z</time>
      </trkpt>
      <trkpt lat="46.55008" lon="5.6015">
        <ele>522.4</ele>
        <time>2022-03-19T15:55:43Z</time>
      </trkpt>
      <trkpt lat="46.54956" lon="5.60114">
        <ele>521.6</ele>
        <time>2022-03-19T15:55:49Z</time>
      </trkpt>
      <trkpt lat="46.54947" lon="5.60104">
        <ele>521.4</ele>
        <time>2022-03-19T15:55:50Z</time>
      </trkpt>
      <trkpt lat="46.54909" lon="5.60063">
        <ele>520.6</ele>
        <time>2022-03-19T15:55:55Z</time>
      </trkpt>
      <trkpt lat="46.54901" lon="5.60057">
        <ele>520.6</ele>
        <time>2022-03-19T15:55:56Z</time>
      </trkpt>
      <trkpt lat="46.54892" lon="5.60052">
        <ele>520.4</ele>
        <time>2022-03-19T15:55:57Z</time>
      </trkpt>
      <trkpt lat="46.54874" lon="5.60044">
        <ele>520.4</ele>
        <time>2022-03-19T15:55:59Z</time>
      </trkpt>
      <trkpt lat="46.54862" lon="5.6004">
        <ele>520.4</ele>
        <time>2022-03-19T15:56:00Z</time>
      </trkpt>
      <trkpt lat="46.54808" lon="5.60019">
        <ele>519.8</ele>
        <time>2022-03-19T15:56:06Z</time>
      </trkpt>
      <trkpt lat="46.548" lon="5.60012">
        <ele>519.8</ele>
        <time>2022-03-19T15:56:07Z</time>
      </trkpt>
      <trkpt lat="46.54792" lon="5.60004">
        <ele>519.4</ele>
        <time>2022-03-19T15:56:08Z</time>
      </trkpt>
      <trkpt lat="46.54778" lon="5.59985">
        <ele>519</ele>
        <time>2022-03-19T15:56:10Z</time>
      </trkpt>
      <trkpt lat="46.54749" lon="5.59944">
        <ele>518.4</ele>
        <time>2022-03-19T15:56:14Z</time>
      </trkpt>
      <trkpt lat="46.54741" lon="5.59937">
        <ele>518.4</ele>
        <time>2022-03-19T15:56:15Z</time>
      </trkpt>
      <trkpt lat="46.54734" lon="5.59933">
        <ele>518.2</ele>
        <time>2022-03-19T15:56:16Z</time>
      </trkpt>
      <trkpt lat="46.54713" lon="5.59929">
        <ele>518.2</ele>
        <time>2022-03-19T15:56:18Z</time>
      </trkpt>
      <trkpt lat="46.54694" lon="5.59934">
        <ele>518.2</ele>
        <time>2022-03-19T15:56:20Z</time>
      </trkpt>
      <trkpt lat="46.54687" lon="5.59937">
        <ele>518</ele>
        <time>2022-03-19T15:56:21Z</time>
      </trkpt>
      <trkpt lat="46.54633" lon="5.59968">
        <ele>517.6</ele>
        <time>2022-03-19T15:56:27Z</time>
      </trkpt>
      <trkpt lat="46.54624" lon="5.59972">
        <ele>517.6</ele>
        <time>2022-03-19T15:56:28Z</time>
      </trkpt>
      <trkpt lat="46.54584" lon="5.59981">
        <ele>517.4</ele>
        <time>2022-03-19T15:56:32Z</time>
      </trkpt>
      <trkpt lat="46.54558" lon="5.5998">
        <ele>517</ele>
        <time>2022-03-19T15:56:35Z</time>
      </trkpt>
      <trkpt lat="46.54539" lon="5.59975">
        <ele>516.8</ele>
        <time>2022-03-19T15:56:37Z</time>
      </trkpt>
      <trkpt lat="46.54491" lon="5.59958">
        <ele>515.8</ele>
        <time>2022-03-19T15:56:42Z</time>
      </trkpt>
      <trkpt lat="46.54482" lon="5.59954">
        <ele>515.4</ele>
        <time>2022-03-19T15:56:43Z</time>
      </trkpt>
      <trkpt lat="46.54457" lon="5.59945">
        <ele>514.6</ele>
        <time>2022-03-19T15:56:46Z</time>
      </trkpt>
      <trkpt lat="46.54424" lon="5.59932">
        <ele>513.8</ele>
        <time>2022-03-19T15:56:50Z</time>
      </trkpt>
      <trkpt lat="46.54419" lon="5.5993">
        <ele>513.6</ele>
        <time>2022-03-19T15:56:51Z</time>
      </trkpt>
      <trkpt lat="46.54414" lon="5.59928">
        <ele>513.6</ele>
        <time>2022-03-19T15:56:52Z</time>
      </trkpt>
      <trkpt lat="46.54411" lon="5.59925">
        <ele>513.6</ele>
        <time>2022-03-19T15:56:53Z</time>
      </trkpt>
      <trkpt lat="46.54406" lon="5.5992">
        <ele>513.8</ele>
        <time>2022-03-19T15:56:57Z</time>
      </trkpt>
      <trkpt lat="46.54406" lon="5.5992">
        <ele>513.8</ele>
        <time>2022-03-19T15:56:58Z</time>
      </trkpt>
      <trkpt lat="46.54402" lon="5.59915">
        <ele>513.8</ele>
        <time>2022-03-19T15:57:02Z</time>
      </trkpt>
      <trkpt lat="46.54398" lon="5.59912">
        <ele>514</ele>
        <time>2022-03-19T15:57:04Z</time>
      </trkpt>
      <trkpt lat="46.54389" lon="5.59895">
        <ele>513.8</ele>
        <time>2022-03-19T15:57:08Z</time>
      </trkpt>
      <trkpt lat="46.54388" lon="5.59886">
        <ele>513.6</ele>
        <time>2022-03-19T15:57:09Z</time>
      </trkpt>
      <trkpt lat="46.54394" lon="5.59843">
        <ele>512.8</ele>
        <time>2022-03-19T15:57:16Z</time>
      </trkpt>
      <trkpt lat="46.54402" lon="5.59782">
        <ele>513.2</ele>
        <time>2022-03-19T15:57:26Z</time>
      </trkpt>
      <trkpt lat="46.54409" lon="5.59721">
        <ele>513.8</ele>
        <time>2022-03-19T15:57:34Z</time>
      </trkpt>
      <trkpt lat="46.54418" lon="5.5964">
        <ele>514.4</ele>
        <time>2022-03-19T15:57:45Z</time>
      </trkpt>
      <trkpt lat="46.54419" lon="5.59632">
        <ele>514.6</ele>
        <time>2022-03-19T15:57:46Z</time>
      </trkpt>
      <trkpt lat="46.54426" lon="5.59581">
        <ele>515.8</ele>
        <time>2022-03-19T15:57:53Z</time>
      </trkpt>
      <trkpt lat="46.54428" lon="5.59557">
        <ele>516.4</ele>
        <time>2022-03-19T15:57:56Z</time>
      </trkpt>
      <trkpt lat="46.5443" lon="5.59539">
        <ele>517</ele>
        <time>2022-03-19T15:57:59Z</time>
      </trkpt>
      <trkpt lat="46.54434" lon="5.59504">
        <ele>517.8</ele>
        <time>2022-03-19T15:58:04Z</time>
      </trkpt>
      <trkpt lat="46.54435" lon="5.59499">
        <ele>518</ele>
        <time>2022-03-19T15:58:05Z</time>
      </trkpt>
      <trkpt lat="46.54441" lon="5.59449">
        <ele>519.2</ele>
        <time>2022-03-19T15:58:12Z</time>
      </trkpt>
      <trkpt lat="46.54442" lon="5.59441">
        <ele>519.4</ele>
        <time>2022-03-19T15:58:13Z</time>
      </trkpt>
      <trkpt lat="46.54448" lon="5.59391">
        <ele>520.4</ele>
        <time>2022-03-19T15:58:20Z</time>
      </trkpt>
      <trkpt lat="46.54451" lon="5.59363">
        <ele>521</ele>
        <time>2022-03-19T15:58:24Z</time>
      </trkpt>
      <trkpt lat="46.54453" lon="5.5935">
        <ele>521.6</ele>
        <time>2022-03-19T15:58:26Z</time>
      </trkpt>
      <trkpt lat="46.54454" lon="5.59342">
        <ele>521.8</ele>
        <time>2022-03-19T15:58:27Z</time>
      </trkpt>
      <trkpt lat="46.54461" lon="5.59317">
        <ele>522.4</ele>
        <time>2022-03-19T15:58:31Z</time>
      </trkpt>
      <trkpt lat="46.54464" lon="5.59309">
        <ele>522.6</ele>
        <time>2022-03-19T15:58:32Z</time>
      </trkpt>
      <trkpt lat="46.54481" lon="5.59273">
        <ele>523.4</ele>
        <time>2022-03-19T15:58:38Z</time>
      </trkpt>
      <trkpt lat="46.54486" lon="5.59262">
        <ele>523.6</ele>
        <time>2022-03-19T15:58:40Z</time>
      </trkpt>
      <trkpt lat="46.5449" lon="5.59241">
        <ele>524</ele>
        <time>2022-03-19T15:58:43Z</time>
      </trkpt>
      <trkpt lat="46.54494" lon="5.59174">
        <ele>524.2</ele>
        <time>2022-03-19T15:58:51Z</time>
      </trkpt>
      <trkpt lat="46.54502" lon="5.59104">
        <ele>524.4</ele>
        <time>2022-03-19T15:59:00Z</time>
      </trkpt>
      <trkpt lat="46.54505" lon="5.59082">
        <ele>524.6</ele>
        <time>2022-03-19T15:59:03Z</time>
      </trkpt>
      <trkpt lat="46.54508" lon="5.59035">
        <ele>525.8</ele>
        <time>2022-03-19T15:59:09Z</time>
      </trkpt>
      <trkpt lat="46.54511" lon="5.5897">
        <ele>526.8</ele>
        <time>2022-03-19T15:59:17Z</time>
      </trkpt>
      <trkpt lat="46.54511" lon="5.58961">
        <ele>526.8</ele>
        <time>2022-03-19T15:59:18Z</time>
      </trkpt>
      <trkpt lat="46.54513" lon="5.58898">
        <ele>526.6</ele>
        <time>2022-03-19T15:59:25Z</time>
      </trkpt>
      <trkpt lat="46.54515" lon="5.58819">
        <ele>526</ele>
        <time>2022-03-19T15:59:33Z</time>
      </trkpt>
      <trkpt lat="46.54515" lon="5.58812">
        <ele>526</ele>
        <time>2022-03-19T15:59:34Z</time>
      </trkpt>
      <trkpt lat="46.54516" lon="5.58745">
        <ele>526.4</ele>
        <time>2022-03-19T15:59:41Z</time>
      </trkpt>
      <trkpt lat="46.54518" lon="5.58729">
        <ele>526.8</ele>
        <time>2022-03-19T15:59:43Z</time>
      </trkpt>
      <trkpt lat="46.54522" lon="5.58679">
        <ele>528</ele>
        <time>2022-03-19T15:59:49Z</time>
      </trkpt>
      <trkpt lat="46.54524" lon="5.58659">
        <ele>528</ele>
        <time>2022-03-19T15:59:51Z</time>
      </trkpt>
      <trkpt lat="46.54531" lon="5.58595">
        <ele>527.8</ele>
        <time>2022-03-19T15:59:58Z</time>
      </trkpt>
      <trkpt lat="46.5454" lon="5.58511">
        <ele>527.8</ele>
        <time>2022-03-19T16:00:07Z</time>
      </trkpt>
      <trkpt lat="46.54541" lon="5.585">
        <ele>527.8</ele>
        <time>2022-03-19T16:00:08Z</time>
      </trkpt>
      <trkpt lat="46.54542" lon="5.58477">
        <ele>528.2</ele>
        <time>2022-03-19T16:00:11Z</time>
      </trkpt>
      <trkpt lat="46.54541" lon="5.58459">
        <ele>528.4</ele>
        <time>2022-03-19T16:00:13Z</time>
      </trkpt>
      <trkpt lat="46.54541" lon="5.58453">
        <ele>528.6</ele>
        <time>2022-03-19T16:00:14Z</time>
      </trkpt>
      <trkpt lat="46.54537" lon="5.5844">
        <ele>529</ele>
        <time>2022-03-19T16:00:16Z</time>
      </trkpt>
      <trkpt lat="46.54534" lon="5.58435">
        <ele>529.2</ele>
        <time>2022-03-19T16:00:17Z</time>
      </trkpt>
      <trkpt lat="46.54529" lon="5.58431">
        <ele>529.2</ele>
        <time>2022-03-19T16:00:18Z</time>
      </trkpt>
      <trkpt lat="46.54513" lon="5.58425">
        <ele>529.8</ele>
        <time>2022-03-19T16:00:21Z</time>
      </trkpt>
      <trkpt lat="46.54501" lon="5.58422">
        <ele>530.2</ele>
        <time>2022-03-19T16:00:23Z</time>
      </trkpt>
      <trkpt lat="46.54475" lon="5.58415">
        <ele>530.6</ele>
        <time>2022-03-19T16:00:27Z</time>
      </trkpt>
      <trkpt lat="46.54434" lon="5.584">
        <ele>529.2</ele>
        <time>2022-03-19T16:00:33Z</time>
      </trkpt>
      <trkpt lat="46.54427" lon="5.58396">
        <ele>528.6</ele>
        <time>2022-03-19T16:00:34Z</time>
      </trkpt>
      <trkpt lat="46.5442" lon="5.58393">
        <ele>528.2</ele>
        <time>2022-03-19T16:00:35Z</time>
      </trkpt>
      <trkpt lat="46.54371" lon="5.58369">
        <ele>527</ele>
        <time>2022-03-19T16:00:42Z</time>
      </trkpt>
      <trkpt lat="46.54335" lon="5.58351">
        <ele>526</ele>
        <time>2022-03-19T16:00:47Z</time>
      </trkpt>
      <trkpt lat="46.54291" lon="5.58328">
        <ele>525.4</ele>
        <time>2022-03-19T16:00:53Z</time>
      </trkpt>
      <trkpt lat="46.54273" lon="5.58319">
        <ele>525</ele>
        <time>2022-03-19T16:00:55Z</time>
      </trkpt>
      <trkpt lat="46.54235" lon="5.583">
        <ele>524</ele>
        <time>2022-03-19T16:01:00Z</time>
      </trkpt>
      <trkpt lat="46.54213" lon="5.58288">
        <ele>523.8</ele>
        <time>2022-03-19T16:01:03Z</time>
      </trkpt>
      <trkpt lat="46.54199" lon="5.58278">
        <ele>523.8</ele>
        <time>2022-03-19T16:01:05Z</time>
      </trkpt>
      <trkpt lat="46.54189" lon="5.58265">
        <ele>523.8</ele>
        <time>2022-03-19T16:01:07Z</time>
      </trkpt>
      <trkpt lat="46.54178" lon="5.58239">
        <ele>523.8</ele>
        <time>2022-03-19T16:01:10Z</time>
      </trkpt>
      <trkpt lat="46.54177" lon="5.58231">
        <ele>523.8</ele>
        <time>2022-03-19T16:01:11Z</time>
      </trkpt>
      <trkpt lat="46.54167" lon="5.58185">
        <ele>524.6</ele>
        <time>2022-03-19T16:01:16Z</time>
      </trkpt>
      <trkpt lat="46.54164" lon="5.58178">
        <ele>525.2</ele>
        <time>2022-03-19T16:01:17Z</time>
      </trkpt>
      <trkpt lat="46.54161" lon="5.58172">
        <ele>525.4</ele>
        <time>2022-03-19T16:01:18Z</time>
      </trkpt>
      <trkpt lat="46.54155" lon="5.58161">
        <ele>526</ele>
        <time>2022-03-19T16:01:20Z</time>
      </trkpt>
      <trkpt lat="46.54151" lon="5.58155">
        <ele>526.8</ele>
        <time>2022-03-19T16:01:21Z</time>
      </trkpt>
      <trkpt lat="46.5414" lon="5.58139">
        <ele>528</ele>
        <time>2022-03-19T16:01:24Z</time>
      </trkpt>
      <trkpt lat="46.54127" lon="5.58124">
        <ele>528.8</ele>
        <time>2022-03-19T16:01:27Z</time>
      </trkpt>
      <trkpt lat="46.54123" lon="5.58119">
        <ele>529.2</ele>
        <time>2022-03-19T16:01:28Z</time>
      </trkpt>
      <trkpt lat="46.54101" lon="5.58099">
        <ele>530.4</ele>
        <time>2022-03-19T16:01:33Z</time>
      </trkpt>
      <trkpt lat="46.54087" lon="5.58081">
        <ele>531</ele>
        <time>2022-03-19T16:01:37Z</time>
      </trkpt>
      <trkpt lat="46.5408" lon="5.58073">
        <ele>531.4</ele>
        <time>2022-03-19T16:01:39Z</time>
      </trkpt>
      <trkpt lat="46.54068" lon="5.58056">
        <ele>532.6</ele>
        <time>2022-03-19T16:01:43Z</time>
      </trkpt>
      <trkpt lat="46.54065" lon="5.58053">
        <ele>533</ele>
        <time>2022-03-19T16:01:44Z</time>
      </trkpt>
      <trkpt lat="46.54059" lon="5.58045">
        <ele>533.6</ele>
        <time>2022-03-19T16:01:46Z</time>
      </trkpt>
      <trkpt lat="46.54036" lon="5.58025">
        <ele>534.6</ele>
        <time>2022-03-19T16:01:52Z</time>
      </trkpt>
      <trkpt lat="46.54023" lon="5.58015">
        <ele>534.6</ele>
        <time>2022-03-19T16:01:55Z</time>
      </trkpt>
      <trkpt lat="46.54003" lon="5.58002">
        <ele>534.4</ele>
        <time>2022-03-19T16:01:59Z</time>
      </trkpt>
      <trkpt lat="46.5398" lon="5.57993">
        <ele>533.6</ele>
        <time>2022-03-19T16:02:03Z</time>
      </trkpt>
      <trkpt lat="46.53967" lon="5.5799">
        <ele>533.4</ele>
        <time>2022-03-19T16:02:05Z</time>
      </trkpt>
      <trkpt lat="46.53943" lon="5.57984">
        <ele>532.4</ele>
        <time>2022-03-19T16:02:08Z</time>
      </trkpt>
      <trkpt lat="46.53936" lon="5.57983">
        <ele>532.2</ele>
        <time>2022-03-19T16:02:09Z</time>
      </trkpt>
      <trkpt lat="46.53905" lon="5.57979">
        <ele>530.2</ele>
        <time>2022-03-19T16:02:12Z</time>
      </trkpt>
      <trkpt lat="46.53893" lon="5.57977">
        <ele>529.8</ele>
        <time>2022-03-19T16:02:13Z</time>
      </trkpt>
      <trkpt lat="46.53882" lon="5.57974">
        <ele>528.8</ele>
        <time>2022-03-19T16:02:14Z</time>
      </trkpt>
      <trkpt lat="46.53858" lon="5.57967">
        <ele>526.8</ele>
        <time>2022-03-19T16:02:16Z</time>
      </trkpt>
      <trkpt lat="46.53847" lon="5.57964">
        <ele>525.4</ele>
        <time>2022-03-19T16:02:17Z</time>
      </trkpt>
      <trkpt lat="46.53823" lon="5.57957">
        <ele>523.4</ele>
        <time>2022-03-19T16:02:19Z</time>
      </trkpt>
      <trkpt lat="46.538" lon="5.57951">
        <ele>522.2</ele>
        <time>2022-03-19T16:02:21Z</time>
      </trkpt>
      <trkpt lat="46.53766" lon="5.57941">
        <ele>520.8</ele>
        <time>2022-03-19T16:02:24Z</time>
      </trkpt>
      <trkpt lat="46.53744" lon="5.57934">
        <ele>519.4</ele>
        <time>2022-03-19T16:02:26Z</time>
      </trkpt>
      <trkpt lat="46.53733" lon="5.57931">
        <ele>519</ele>
        <time>2022-03-19T16:02:27Z</time>
      </trkpt>
      <trkpt lat="46.53711" lon="5.57925">
        <ele>517.8</ele>
        <time>2022-03-19T16:02:29Z</time>
      </trkpt>
      <trkpt lat="46.5369" lon="5.57918">
        <ele>516.6</ele>
        <time>2022-03-19T16:02:31Z</time>
      </trkpt>
      <trkpt lat="46.53668" lon="5.57912">
        <ele>515.2</ele>
        <time>2022-03-19T16:02:33Z</time>
      </trkpt>
      <trkpt lat="46.53658" lon="5.57909">
        <ele>515</ele>
        <time>2022-03-19T16:02:34Z</time>
      </trkpt>
      <trkpt lat="46.53638" lon="5.57902">
        <ele>514.2</ele>
        <time>2022-03-19T16:02:36Z</time>
      </trkpt>
      <trkpt lat="46.53628" lon="5.57898">
        <ele>512.8</ele>
        <time>2022-03-19T16:02:37Z</time>
      </trkpt>
      <trkpt lat="46.53588" lon="5.57882">
        <ele>511.8</ele>
        <time>2022-03-19T16:02:41Z</time>
      </trkpt>
      <trkpt lat="46.53579" lon="5.57878">
        <ele>511.8</ele>
        <time>2022-03-19T16:02:42Z</time>
      </trkpt>
      <trkpt lat="46.53539" lon="5.57856">
        <ele>511.8</ele>
        <time>2022-03-19T16:02:47Z</time>
      </trkpt>
      <trkpt lat="46.53509" lon="5.57833">
        <ele>512.6</ele>
        <time>2022-03-19T16:02:52Z</time>
      </trkpt>
      <trkpt lat="46.53504" lon="5.57828">
        <ele>513</ele>
        <time>2022-03-19T16:02:53Z</time>
      </trkpt>
      <trkpt lat="46.53484" lon="5.57808">
        <ele>514</ele>
        <time>2022-03-19T16:02:58Z</time>
      </trkpt>
      <trkpt lat="46.5348" lon="5.57803">
        <ele>514.4</ele>
        <time>2022-03-19T16:02:59Z</time>
      </trkpt>
      <trkpt lat="46.53472" lon="5.57794">
        <ele>515.2</ele>
        <time>2022-03-19T16:03:01Z</time>
      </trkpt>
      <trkpt lat="46.5346" lon="5.57784">
        <ele>516.4</ele>
        <time>2022-03-19T16:03:04Z</time>
      </trkpt>
      <trkpt lat="46.53445" lon="5.57773">
        <ele>517.8</ele>
        <time>2022-03-19T16:03:07Z</time>
      </trkpt>
      <trkpt lat="46.53408" lon="5.57755">
        <ele>518.4</ele>
        <time>2022-03-19T16:03:14Z</time>
      </trkpt>
      <trkpt lat="46.53364" lon="5.57743">
        <ele>517.8</ele>
        <time>2022-03-19T16:03:21Z</time>
      </trkpt>
      <trkpt lat="46.5333" lon="5.57727">
        <ele>518.2</ele>
        <time>2022-03-19T16:03:27Z</time>
      </trkpt>
      <trkpt lat="46.53312" lon="5.57712">
        <ele>518.8</ele>
        <time>2022-03-19T16:03:31Z</time>
      </trkpt>
      <trkpt lat="46.53304" lon="5.57702">
        <ele>519</ele>
        <time>2022-03-19T16:03:33Z</time>
      </trkpt>
      <trkpt lat="46.533" lon="5.57697">
        <ele>519.4</ele>
        <time>2022-03-19T16:03:34Z</time>
      </trkpt>
      <trkpt lat="46.53297" lon="5.57691">
        <ele>519.8</ele>
        <time>2022-03-19T16:03:35Z</time>
      </trkpt>
      <trkpt lat="46.53294" lon="5.57684">
        <ele>520</ele>
        <time>2022-03-19T16:03:36Z</time>
      </trkpt>
      <trkpt lat="46.53289" lon="5.5767">
        <ele>520.2</ele>
        <time>2022-03-19T16:03:38Z</time>
      </trkpt>
      <trkpt lat="46.53287" lon="5.57654">
        <ele>520.2</ele>
        <time>2022-03-19T16:03:40Z</time>
      </trkpt>
      <trkpt lat="46.53286" lon="5.57635">
        <ele>520.2</ele>
        <time>2022-03-19T16:03:42Z</time>
      </trkpt>
      <trkpt lat="46.53287" lon="5.57625">
        <ele>520.2</ele>
        <time>2022-03-19T16:03:43Z</time>
      </trkpt>
      <trkpt lat="46.53287" lon="5.57595">
        <ele>520</ele>
        <time>2022-03-19T16:03:46Z</time>
      </trkpt>
      <trkpt lat="46.53285" lon="5.57574">
        <ele>519.8</ele>
        <time>2022-03-19T16:03:48Z</time>
      </trkpt>
      <trkpt lat="46.53281" lon="5.57553">
        <ele>519.6</ele>
        <time>2022-03-19T16:03:50Z</time>
      </trkpt>
      <trkpt lat="46.53263" lon="5.57485">
        <ele>519.2</ele>
        <time>2022-03-19T16:03:57Z</time>
      </trkpt>
      <trkpt lat="46.5326" lon="5.57479">
        <ele>519.4</ele>
        <time>2022-03-19T16:03:58Z</time>
      </trkpt>
      <trkpt lat="46.53242" lon="5.57448">
        <ele>519.8</ele>
        <time>2022-03-19T16:04:02Z</time>
      </trkpt>
      <trkpt lat="46.53195" lon="5.57395">
        <ele>520</ele>
        <time>2022-03-19T16:04:10Z</time>
      </trkpt>
      <trkpt lat="46.53151" lon="5.57358">
        <ele>519.2</ele>
        <time>2022-03-19T16:04:16Z</time>
      </trkpt>
      <trkpt lat="46.53137" lon="5.57347">
        <ele>518.6</ele>
        <time>2022-03-19T16:04:18Z</time>
      </trkpt>
      <trkpt lat="46.53105" lon="5.5732">
        <ele>517.6</ele>
        <time>2022-03-19T16:04:22Z</time>
      </trkpt>
      <trkpt lat="46.53082" lon="5.57281">
        <ele>516.6</ele>
        <time>2022-03-19T16:04:26Z</time>
      </trkpt>
      <trkpt lat="46.53073" lon="5.57261">
        <ele>516.4</ele>
        <time>2022-03-19T16:04:28Z</time>
      </trkpt>
      <trkpt lat="46.53056" lon="5.57217">
        <ele>515.4</ele>
        <time>2022-03-19T16:04:32Z</time>
      </trkpt>
      <trkpt lat="46.53042" lon="5.57183">
        <ele>514.8</ele>
        <time>2022-03-19T16:04:35Z</time>
      </trkpt>
      <trkpt lat="46.53019" lon="5.57125">
        <ele>514.2</ele>
        <time>2022-03-19T16:04:40Z</time>
      </trkpt>
      <trkpt lat="46.5301" lon="5.57103">
        <ele>513.4</ele>
        <time>2022-03-19T16:04:42Z</time>
      </trkpt>
      <trkpt lat="46.53006" lon="5.57092">
        <ele>513</ele>
        <time>2022-03-19T16:04:43Z</time>
      </trkpt>
      <trkpt lat="46.52983" lon="5.5704">
        <ele>512.8</ele>
        <time>2022-03-19T16:04:48Z</time>
      </trkpt>
      <trkpt lat="46.52955" lon="5.56998">
        <ele>513.4</ele>
        <time>2022-03-19T16:04:53Z</time>
      </trkpt>
      <trkpt lat="46.52937" lon="5.56956">
        <ele>513.8</ele>
        <time>2022-03-19T16:04:57Z</time>
      </trkpt>
      <trkpt lat="46.52934" lon="5.56948">
        <ele>513.8</ele>
        <time>2022-03-19T16:04:58Z</time>
      </trkpt>
      <trkpt lat="46.52926" lon="5.56915">
        <ele>514.2</ele>
        <time>2022-03-19T16:05:01Z</time>
      </trkpt>
      <trkpt lat="46.52919" lon="5.56883">
        <ele>514.4</ele>
        <time>2022-03-19T16:05:04Z</time>
      </trkpt>
      <trkpt lat="46.52903" lon="5.56808">
        <ele>514.6</ele>
        <time>2022-03-19T16:05:11Z</time>
      </trkpt>
      <trkpt lat="46.529" lon="5.56797">
        <ele>514.6</ele>
        <time>2022-03-19T16:05:12Z</time>
      </trkpt>
      <trkpt lat="46.52882" lon="5.56721">
        <ele>514.8</ele>
        <time>2022-03-19T16:05:19Z</time>
      </trkpt>
      <trkpt lat="46.52874" lon="5.56685">
        <ele>514.8</ele>
        <time>2022-03-19T16:05:22Z</time>
      </trkpt>
      <trkpt lat="46.52855" lon="5.56607">
        <ele>513.8</ele>
        <time>2022-03-19T16:05:29Z</time>
      </trkpt>
      <trkpt lat="46.52846" lon="5.56571">
        <ele>513.2</ele>
        <time>2022-03-19T16:05:32Z</time>
      </trkpt>
      <trkpt lat="46.52843" lon="5.56559">
        <ele>513.2</ele>
        <time>2022-03-19T16:05:33Z</time>
      </trkpt>
      <trkpt lat="46.52823" lon="5.56479">
        <ele>512.2</ele>
        <time>2022-03-19T16:05:40Z</time>
      </trkpt>
      <trkpt lat="46.5282" lon="5.56467">
        <ele>512</ele>
        <time>2022-03-19T16:05:41Z</time>
      </trkpt>
      <trkpt lat="46.52803" lon="5.56396">
        <ele>510.8</ele>
        <time>2022-03-19T16:05:47Z</time>
      </trkpt>
      <trkpt lat="46.52789" lon="5.56342">
        <ele>510.2</ele>
        <time>2022-03-19T16:05:52Z</time>
      </trkpt>
      <trkpt lat="46.52771" lon="5.56269">
        <ele>510.2</ele>
        <time>2022-03-19T16:05:59Z</time>
      </trkpt>
      <trkpt lat="46.52763" lon="5.56237">
        <ele>510.2</ele>
        <time>2022-03-19T16:06:02Z</time>
      </trkpt>
      <trkpt lat="46.52743" lon="5.56157">
        <ele>510</ele>
        <time>2022-03-19T16:06:10Z</time>
      </trkpt>
      <trkpt lat="46.52726" lon="5.5609">
        <ele>510.2</ele>
        <time>2022-03-19T16:06:17Z</time>
      </trkpt>
      <trkpt lat="46.52717" lon="5.56076">
        <ele>510.2</ele>
        <time>2022-03-19T16:06:19Z</time>
      </trkpt>
      <trkpt lat="46.52711" lon="5.56073">
        <ele>510.2</ele>
        <time>2022-03-19T16:06:20Z</time>
      </trkpt>
      <trkpt lat="46.52704" lon="5.56074">
        <ele>510.2</ele>
        <time>2022-03-19T16:06:21Z</time>
      </trkpt>
      <trkpt lat="46.52691" lon="5.56079">
        <ele>510.2</ele>
        <time>2022-03-19T16:06:23Z</time>
      </trkpt>
      <trkpt lat="46.52645" lon="5.56098">
        <ele>510.2</ele>
        <time>2022-03-19T16:06:30Z</time>
      </trkpt>
      <trkpt lat="46.52633" lon="5.56104">
        <ele>510</ele>
        <time>2022-03-19T16:06:32Z</time>
      </trkpt>
      <trkpt lat="46.52618" lon="5.56107">
        <ele>509.8</ele>
        <time>2022-03-19T16:06:35Z</time>
      </trkpt>
      <trkpt lat="46.52616" lon="5.56105">
        <ele>509.8</ele>
        <time>2022-03-19T16:06:36Z</time>
      </trkpt>
      <trkpt lat="46.52614" lon="5.56103">
        <ele>509.8</ele>
        <time>2022-03-19T16:06:37Z</time>
      </trkpt>
      <trkpt lat="46.52613" lon="5.561">
        <ele>509.8</ele>
        <time>2022-03-19T16:06:38Z</time>
      </trkpt>
      <trkpt lat="46.52613" lon="5.5608">
        <ele>509.8</ele>
        <time>2022-03-19T16:06:42Z</time>
      </trkpt>
      <trkpt lat="46.52617" lon="5.56045">
        <ele>509.4</ele>
        <time>2022-03-19T16:06:47Z</time>
      </trkpt>
      <trkpt lat="46.52618" lon="5.56007">
        <ele>508.8</ele>
        <time>2022-03-19T16:06:52Z</time>
      </trkpt>
      <trkpt lat="46.52619" lon="5.55989">
        <ele>508.6</ele>
        <time>2022-03-19T16:06:54Z</time>
      </trkpt>
      <trkpt lat="46.52624" lon="5.55933">
        <ele>508.6</ele>
        <time>2022-03-19T16:07:00Z</time>
      </trkpt>
      <trkpt lat="46.5263" lon="5.55869">
        <ele>508.8</ele>
        <time>2022-03-19T16:07:07Z</time>
      </trkpt>
      <trkpt lat="46.5264" lon="5.55785">
        <ele>509.2</ele>
        <time>2022-03-19T16:07:16Z</time>
      </trkpt>
      <trkpt lat="46.52642" lon="5.55766">
        <ele>509.2</ele>
        <time>2022-03-19T16:07:18Z</time>
      </trkpt>
      <trkpt lat="46.52648" lon="5.5568">
        <ele>508.8</ele>
        <time>2022-03-19T16:07:27Z</time>
      </trkpt>
      <trkpt lat="46.5265" lon="5.55661">
        <ele>508.8</ele>
        <time>2022-03-19T16:07:29Z</time>
      </trkpt>
      <trkpt lat="46.52658" lon="5.55575">
        <ele>508.8</ele>
        <time>2022-03-19T16:07:38Z</time>
      </trkpt>
      <trkpt lat="46.52664" lon="5.55499">
        <ele>509.2</ele>
        <time>2022-03-19T16:07:46Z</time>
      </trkpt>
      <trkpt lat="46.52671" lon="5.55416">
        <ele>509.2</ele>
        <time>2022-03-19T16:07:55Z</time>
      </trkpt>
      <trkpt lat="46.52671" lon="5.55406">
        <ele>509.2</ele>
        <time>2022-03-19T16:07:56Z</time>
      </trkpt>
      <trkpt lat="46.52677" lon="5.55345">
        <ele>510</ele>
        <time>2022-03-19T16:08:03Z</time>
      </trkpt>
      <trkpt lat="46.5268" lon="5.55302">
        <ele>510.6</ele>
        <time>2022-03-19T16:08:08Z</time>
      </trkpt>
      <trkpt lat="46.52683" lon="5.55267">
        <ele>511.2</ele>
        <time>2022-03-19T16:08:12Z</time>
      </trkpt>
      <trkpt lat="46.52687" lon="5.55212">
        <ele>511.8</ele>
        <time>2022-03-19T16:08:18Z</time>
      </trkpt>
      <trkpt lat="46.52694" lon="5.55128">
        <ele>512.2</ele>
        <time>2022-03-19T16:08:27Z</time>
      </trkpt>
      <trkpt lat="46.52694" lon="5.55119">
        <ele>512.2</ele>
        <time>2022-03-19T16:08:28Z</time>
      </trkpt>
      <trkpt lat="46.52701" lon="5.55035">
        <ele>512.6</ele>
        <time>2022-03-19T16:08:37Z</time>
      </trkpt>
      <trkpt lat="46.52702" lon="5.55017">
        <ele>512.8</ele>
        <time>2022-03-19T16:08:39Z</time>
      </trkpt>
      <trkpt lat="46.52707" lon="5.54958">
        <ele>513.4</ele>
        <time>2022-03-19T16:08:46Z</time>
      </trkpt>
      <trkpt lat="46.52707" lon="5.5495">
        <ele>513.4</ele>
        <time>2022-03-19T16:08:47Z</time>
      </trkpt>
      <trkpt lat="46.5271" lon="5.54906">
        <ele>514.8</ele>
        <time>2022-03-19T16:08:53Z</time>
      </trkpt>
      <trkpt lat="46.52711" lon="5.54899">
        <ele>514.8</ele>
        <time>2022-03-19T16:08:54Z</time>
      </trkpt>
      <trkpt lat="46.52713" lon="5.54872">
        <ele>516.2</ele>
        <time>2022-03-19T16:08:58Z</time>
      </trkpt>
      <trkpt lat="46.52715" lon="5.54835">
        <ele>517</ele>
        <time>2022-03-19T16:09:03Z</time>
      </trkpt>
      <trkpt lat="46.52716" lon="5.54821">
        <ele>517.4</ele>
        <time>2022-03-19T16:09:05Z</time>
      </trkpt>
      <trkpt lat="46.52719" lon="5.54779">
        <ele>518.4</ele>
        <time>2022-03-19T16:09:11Z</time>
      </trkpt>
      <trkpt lat="46.5272" lon="5.54766">
        <ele>518.6</ele>
        <time>2022-03-19T16:09:13Z</time>
      </trkpt>
      <trkpt lat="46.52724" lon="5.54712">
        <ele>519.4</ele>
        <time>2022-03-19T16:09:20Z</time>
      </trkpt>
      <trkpt lat="46.52725" lon="5.54697">
        <ele>519.6</ele>
        <time>2022-03-19T16:09:22Z</time>
      </trkpt>
      <trkpt lat="46.52729" lon="5.54647">
        <ele>520.6</ele>
        <time>2022-03-19T16:09:29Z</time>
      </trkpt>
      <trkpt lat="46.52731" lon="5.54633">
        <ele>521</ele>
        <time>2022-03-19T16:09:31Z</time>
      </trkpt>
      <trkpt lat="46.52735" lon="5.54621">
        <ele>521.4</ele>
        <time>2022-03-19T16:09:33Z</time>
      </trkpt>
      <trkpt lat="46.52738" lon="5.54616">
        <ele>521.6</ele>
        <time>2022-03-19T16:09:34Z</time>
      </trkpt>
      <trkpt lat="46.52742" lon="5.54612">
        <ele>521.8</ele>
        <time>2022-03-19T16:09:35Z</time>
      </trkpt>
      <trkpt lat="46.52758" lon="5.54607">
        <ele>522.8</ele>
        <time>2022-03-19T16:09:39Z</time>
      </trkpt>
      <trkpt lat="46.52766" lon="5.54607">
        <ele>523.4</ele>
        <time>2022-03-19T16:09:41Z</time>
      </trkpt>
      <trkpt lat="46.52775" lon="5.54607">
        <ele>524</ele>
        <time>2022-03-19T16:09:43Z</time>
      </trkpt>
      <trkpt lat="46.52783" lon="5.54608">
        <ele>524.8</ele>
        <time>2022-03-19T16:09:45Z</time>
      </trkpt>
      <trkpt lat="46.52792" lon="5.54609">
        <ele>525</ele>
        <time>2022-03-19T16:09:47Z</time>
      </trkpt>
      <trkpt lat="46.52805" lon="5.5461">
        <ele>526.2</ele>
        <time>2022-03-19T16:09:50Z</time>
      </trkpt>
      <trkpt lat="46.52818" lon="5.54609">
        <ele>526.8</ele>
        <time>2022-03-19T16:09:53Z</time>
      </trkpt>
      <trkpt lat="46.52825" lon="5.54609">
        <ele>527.4</ele>
        <time>2022-03-19T16:09:55Z</time>
      </trkpt>
      <trkpt lat="46.52835" lon="5.5461">
        <ele>528.2</ele>
        <time>2022-03-19T16:09:58Z</time>
      </trkpt>
      <trkpt lat="46.52838" lon="5.5461">
        <ele>528.4</ele>
        <time>2022-03-19T16:09:59Z</time>
      </trkpt>
      <trkpt lat="46.52854" lon="5.54611">
        <ele>529.4</ele>
        <time>2022-03-19T16:10:03Z</time>
      </trkpt>
      <trkpt lat="46.52858" lon="5.54611">
        <ele>529.8</ele>
        <time>2022-03-19T16:10:04Z</time>
      </trkpt>
      <trkpt lat="46.52872" lon="5.54613">
        <ele>530.6</ele>
        <time>2022-03-19T16:10:07Z</time>
      </trkpt>
      <trkpt lat="46.52895" lon="5.54615">
        <ele>531.2</ele>
        <time>2022-03-19T16:10:12Z</time>
      </trkpt>
      <trkpt lat="46.529" lon="5.54615">
        <ele>531.4</ele>
        <time>2022-03-19T16:10:13Z</time>
      </trkpt>
      <trkpt lat="46.5291" lon="5.54616">
        <ele>531.8</ele>
        <time>2022-03-19T16:10:15Z</time>
      </trkpt>
      <trkpt lat="46.52919" lon="5.54617">
        <ele>532</ele>
        <time>2022-03-19T16:10:17Z</time>
      </trkpt>
      <trkpt lat="46.52932" lon="5.54619">
        <ele>532.8</ele>
        <time>2022-03-19T16:10:20Z</time>
      </trkpt>
      <trkpt lat="46.52971" lon="5.54622">
        <ele>533.8</ele>
        <time>2022-03-19T16:10:28Z</time>
      </trkpt>
      <trkpt lat="46.52979" lon="5.54622">
        <ele>534.2</ele>
        <time>2022-03-19T16:10:30Z</time>
      </trkpt>
      <trkpt lat="46.53014" lon="5.54625">
        <ele>534.8</ele>
        <time>2022-03-19T16:10:37Z</time>
      </trkpt>
      <trkpt lat="46.53037" lon="5.54629">
        <ele>535.6</ele>
        <time>2022-03-19T16:10:42Z</time>
      </trkpt>
      <trkpt lat="46.53046" lon="5.54629">
        <ele>536</ele>
        <time>2022-03-19T16:10:44Z</time>
      </trkpt>
      <trkpt lat="46.53073" lon="5.54631">
        <ele>537.2</ele>
        <time>2022-03-19T16:10:50Z</time>
      </trkpt>
      <trkpt lat="46.53124" lon="5.54635">
        <ele>538.2</ele>
        <time>2022-03-19T16:11:00Z</time>
      </trkpt>
      <trkpt lat="46.53152" lon="5.54641">
        <ele>539.4</ele>
        <time>2022-03-19T16:11:06Z</time>
      </trkpt>
      <trkpt lat="46.5317" lon="5.54647">
        <ele>540.4</ele>
        <time>2022-03-19T16:11:10Z</time>
      </trkpt>
      <trkpt lat="46.53174" lon="5.54648">
        <ele>540.6</ele>
        <time>2022-03-19T16:11:11Z</time>
      </trkpt>
      <trkpt lat="46.53197" lon="5.5465">
        <ele>541.8</ele>
        <time>2022-03-19T16:11:16Z</time>
      </trkpt>
      <trkpt lat="46.53205" lon="5.54651">
        <ele>542.2</ele>
        <time>2022-03-19T16:11:18Z</time>
      </trkpt>
      <trkpt lat="46.5322" lon="5.54654">
        <ele>542.6</ele>
        <time>2022-03-19T16:11:21Z</time>
      </trkpt>
      <trkpt lat="46.5324" lon="5.54657">
        <ele>543.6</ele>
        <time>2022-03-19T16:11:25Z</time>
      </trkpt>
      <trkpt lat="46.5325" lon="5.54658">
        <ele>544</ele>
        <time>2022-03-19T16:11:27Z</time>
      </trkpt>
      <trkpt lat="46.53269" lon="5.54662">
        <ele>544.6</ele>
        <time>2022-03-19T16:11:31Z</time>
      </trkpt>
      <trkpt lat="46.53294" lon="5.54668">
        <ele>545.8</ele>
        <time>2022-03-19T16:11:36Z</time>
      </trkpt>
      <trkpt lat="46.53304" lon="5.54671">
        <ele>546</ele>
        <time>2022-03-19T16:11:38Z</time>
      </trkpt>
      <trkpt lat="46.53336" lon="5.54682">
        <ele>546.8</ele>
        <time>2022-03-19T16:11:45Z</time>
      </trkpt>
      <trkpt lat="46.53364" lon="5.54691">
        <ele>547.8</ele>
        <time>2022-03-19T16:11:51Z</time>
      </trkpt>
      <trkpt lat="46.53368" lon="5.54692">
        <ele>548</ele>
        <time>2022-03-19T16:11:52Z</time>
      </trkpt>
      <trkpt lat="46.53375" lon="5.54694">
        <ele>548</ele>
        <time>2022-03-19T16:11:53Z</time>
      </trkpt>
      <trkpt lat="46.53412" lon="5.54707">
        <ele>548.6</ele>
        <time>2022-03-19T16:12:00Z</time>
      </trkpt>
      <trkpt lat="46.53423" lon="5.5471">
        <ele>548.8</ele>
        <time>2022-03-19T16:12:02Z</time>
      </trkpt>
      <trkpt lat="46.53458" lon="5.54723">
        <ele>549.6</ele>
        <time>2022-03-19T16:12:09Z</time>
      </trkpt>
      <trkpt lat="46.53466" lon="5.54726">
        <ele>550</ele>
        <time>2022-03-19T16:12:11Z</time>
      </trkpt>
      <trkpt lat="46.53495" lon="5.54735">
        <ele>551</ele>
        <time>2022-03-19T16:12:17Z</time>
      </trkpt>
      <trkpt lat="46.5353" lon="5.54746">
        <ele>552.2</ele>
        <time>2022-03-19T16:12:24Z</time>
      </trkpt>
      <trkpt lat="46.53563" lon="5.54757">
        <ele>553.4</ele>
        <time>2022-03-19T16:12:31Z</time>
      </trkpt>
      <trkpt lat="46.53597" lon="5.54768">
        <ele>554.6</ele>
        <time>2022-03-19T16:12:38Z</time>
      </trkpt>
      <trkpt lat="46.53621" lon="5.54776">
        <ele>555.4</ele>
        <time>2022-03-19T16:12:43Z</time>
      </trkpt>
      <trkpt lat="46.5363" lon="5.54779">
        <ele>555.6</ele>
        <time>2022-03-19T16:12:45Z</time>
      </trkpt>
      <trkpt lat="46.53658" lon="5.54789">
        <ele>556.8</ele>
        <time>2022-03-19T16:12:51Z</time>
      </trkpt>
      <trkpt lat="46.53667" lon="5.54792">
        <ele>557</ele>
        <time>2022-03-19T16:12:53Z</time>
      </trkpt>
      <trkpt lat="46.53691" lon="5.548">
        <ele>558</ele>
        <time>2022-03-19T16:12:58Z</time>
      </trkpt>
      <trkpt lat="46.53718" lon="5.5481">
        <ele>558.8</ele>
        <time>2022-03-19T16:13:04Z</time>
      </trkpt>
      <trkpt lat="46.53722" lon="5.54811">
        <ele>559</ele>
        <time>2022-03-19T16:13:05Z</time>
      </trkpt>
      <trkpt lat="46.53763" lon="5.54824">
        <ele>560</ele>
        <time>2022-03-19T16:13:13Z</time>
      </trkpt>
      <trkpt lat="46.53794" lon="5.54821">
        <ele>561.2</ele>
        <time>2022-03-19T16:13:19Z</time>
      </trkpt>
      <trkpt lat="46.538" lon="5.5482">
        <ele>561.2</ele>
        <time>2022-03-19T16:13:20Z</time>
      </trkpt>
      <trkpt lat="46.5385" lon="5.54808">
        <ele>562.2</ele>
        <time>2022-03-19T16:13:30Z</time>
      </trkpt>
      <trkpt lat="46.53855" lon="5.54806">
        <ele>562.4</ele>
        <time>2022-03-19T16:13:31Z</time>
      </trkpt>
      <trkpt lat="46.53894" lon="5.54797">
        <ele>563.4</ele>
        <time>2022-03-19T16:13:39Z</time>
      </trkpt>
      <trkpt lat="46.53906" lon="5.54792">
        <ele>563.6</ele>
        <time>2022-03-19T16:13:41Z</time>
      </trkpt>
      <trkpt lat="46.53911" lon="5.54789">
        <ele>563.8</ele>
        <time>2022-03-19T16:13:42Z</time>
      </trkpt>
      <trkpt lat="46.53934" lon="5.54772">
        <ele>564.2</ele>
        <time>2022-03-19T16:13:47Z</time>
      </trkpt>
      <trkpt lat="46.53952" lon="5.54756">
        <ele>564.6</ele>
        <time>2022-03-19T16:13:51Z</time>
      </trkpt>
      <trkpt lat="46.53972" lon="5.54733">
        <ele>565.2</ele>
        <time>2022-03-19T16:13:56Z</time>
      </trkpt>
      <trkpt lat="46.53994" lon="5.54695">
        <ele>565</ele>
        <time>2022-03-19T16:14:02Z</time>
      </trkpt>
      <trkpt lat="46.53997" lon="5.54687">
        <ele>565</ele>
        <time>2022-03-19T16:14:03Z</time>
      </trkpt>
      <trkpt lat="46.54005" lon="5.5466">
        <ele>564.8</ele>
        <time>2022-03-19T16:14:06Z</time>
      </trkpt>
      <trkpt lat="46.54024" lon="5.54603">
        <ele>564</ele>
        <time>2022-03-19T16:14:12Z</time>
      </trkpt>
      <trkpt lat="46.54043" lon="5.54533">
        <ele>563.2</ele>
        <time>2022-03-19T16:14:19Z</time>
      </trkpt>
      <trkpt lat="46.54063" lon="5.54459">
        <ele>562.2</ele>
        <time>2022-03-19T16:14:26Z</time>
      </trkpt>
      <trkpt lat="46.54066" lon="5.54449">
        <ele>562.2</ele>
        <time>2022-03-19T16:14:27Z</time>
      </trkpt>
      <trkpt lat="46.54069" lon="5.54438">
        <ele>562.2</ele>
        <time>2022-03-19T16:14:28Z</time>
      </trkpt>
      <trkpt lat="46.5409" lon="5.54358">
        <ele>561.2</ele>
        <time>2022-03-19T16:14:35Z</time>
      </trkpt>
      <trkpt lat="46.54093" lon="5.54346">
        <ele>561</ele>
        <time>2022-03-19T16:14:36Z</time>
      </trkpt>
      <trkpt lat="46.54111" lon="5.54281">
        <ele>559.6</ele>
        <time>2022-03-19T16:14:41Z</time>
      </trkpt>
      <trkpt lat="46.54115" lon="5.54267">
        <ele>559.4</ele>
        <time>2022-03-19T16:14:42Z</time>
      </trkpt>
      <trkpt lat="46.54123" lon="5.54239">
        <ele>558.4</ele>
        <time>2022-03-19T16:14:44Z</time>
      </trkpt>
      <trkpt lat="46.54131" lon="5.54211">
        <ele>557</ele>
        <time>2022-03-19T16:14:46Z</time>
      </trkpt>
      <trkpt lat="46.54139" lon="5.54182">
        <ele>555.2</ele>
        <time>2022-03-19T16:14:48Z</time>
      </trkpt>
      <trkpt lat="46.54147" lon="5.54154">
        <ele>553.8</ele>
        <time>2022-03-19T16:14:50Z</time>
      </trkpt>
      <trkpt lat="46.54151" lon="5.5414">
        <ele>552.8</ele>
        <time>2022-03-19T16:14:51Z</time>
      </trkpt>
      <trkpt lat="46.54167" lon="5.54086">
        <ele>551.6</ele>
        <time>2022-03-19T16:14:55Z</time>
      </trkpt>
      <trkpt lat="46.54185" lon="5.5402">
        <ele>550.6</ele>
        <time>2022-03-19T16:15:00Z</time>
      </trkpt>
      <trkpt lat="46.54191" lon="5.53994">
        <ele>550.6</ele>
        <time>2022-03-19T16:15:02Z</time>
      </trkpt>
      <trkpt lat="46.54205" lon="5.53932">
        <ele>549.6</ele>
        <time>2022-03-19T16:15:07Z</time>
      </trkpt>
      <trkpt lat="46.54206" lon="5.53916">
        <ele>549.6</ele>
        <time>2022-03-19T16:15:08Z</time>
      </trkpt>
      <trkpt lat="46.54207" lon="5.53856">
        <ele>549.6</ele>
        <time>2022-03-19T16:15:13Z</time>
      </trkpt>
      <trkpt lat="46.54208" lon="5.53818">
        <ele>549.4</ele>
        <time>2022-03-19T16:15:16Z</time>
      </trkpt>
      <trkpt lat="46.54209" lon="5.53779">
        <ele>549.4</ele>
        <time>2022-03-19T16:15:19Z</time>
      </trkpt>
      <trkpt lat="46.54209" lon="5.53767">
        <ele>549.2</ele>
        <time>2022-03-19T16:15:20Z</time>
      </trkpt>
      <trkpt lat="46.5421" lon="5.53743">
        <ele>549</ele>
        <time>2022-03-19T16:15:22Z</time>
      </trkpt>
      <trkpt lat="46.54211" lon="5.53731">
        <ele>548.8</ele>
        <time>2022-03-19T16:15:23Z</time>
      </trkpt>
      <trkpt lat="46.54217" lon="5.53683">
        <ele>548.6</ele>
        <time>2022-03-19T16:15:27Z</time>
      </trkpt>
      <trkpt lat="46.5422" lon="5.53672">
        <ele>548.6</ele>
        <time>2022-03-19T16:15:28Z</time>
      </trkpt>
      <trkpt lat="46.54223" lon="5.5366">
        <ele>548.2</ele>
        <time>2022-03-19T16:15:29Z</time>
      </trkpt>
      <trkpt lat="46.54241" lon="5.5362">
        <ele>547.6</ele>
        <time>2022-03-19T16:15:33Z</time>
      </trkpt>
      <trkpt lat="46.54256" lon="5.53588">
        <ele>547.2</ele>
        <time>2022-03-19T16:15:36Z</time>
      </trkpt>
      <trkpt lat="46.54274" lon="5.53546">
        <ele>546.6</ele>
        <time>2022-03-19T16:15:40Z</time>
      </trkpt>
      <trkpt lat="46.54282" lon="5.53524">
        <ele>546.6</ele>
        <time>2022-03-19T16:15:42Z</time>
      </trkpt>
      <trkpt lat="46.54292" lon="5.53491">
        <ele>546.4</ele>
        <time>2022-03-19T16:15:45Z</time>
      </trkpt>
      <trkpt lat="46.54301" lon="5.5347">
        <ele>546.2</ele>
        <time>2022-03-19T16:15:47Z</time>
      </trkpt>
      <trkpt lat="46.54306" lon="5.53461">
        <ele>546</ele>
        <time>2022-03-19T16:15:48Z</time>
      </trkpt>
      <trkpt lat="46.54312" lon="5.53452">
        <ele>546</ele>
        <time>2022-03-19T16:15:49Z</time>
      </trkpt>
      <trkpt lat="46.5435" lon="5.53404">
        <ele>544.6</ele>
        <time>2022-03-19T16:15:55Z</time>
      </trkpt>
      <trkpt lat="46.54354" lon="5.53394">
        <ele>544.4</ele>
        <time>2022-03-19T16:15:56Z</time>
      </trkpt>
      <trkpt lat="46.54357" lon="5.53383">
        <ele>543.8</ele>
        <time>2022-03-19T16:15:57Z</time>
      </trkpt>
      <trkpt lat="46.54359" lon="5.53374">
        <ele>543.6</ele>
        <time>2022-03-19T16:15:58Z</time>
      </trkpt>
      <trkpt lat="46.54367" lon="5.53339">
        <ele>542.8</ele>
        <time>2022-03-19T16:16:01Z</time>
      </trkpt>
      <trkpt lat="46.5437" lon="5.53328">
        <ele>542.4</ele>
        <time>2022-03-19T16:16:02Z</time>
      </trkpt>
      <trkpt lat="46.54374" lon="5.53316">
        <ele>541.8</ele>
        <time>2022-03-19T16:16:03Z</time>
      </trkpt>
      <trkpt lat="46.54386" lon="5.53295">
        <ele>541.6</ele>
        <time>2022-03-19T16:16:05Z</time>
      </trkpt>
      <trkpt lat="46.54402" lon="5.5328">
        <ele>541.2</ele>
        <time>2022-03-19T16:16:07Z</time>
      </trkpt>
      <trkpt lat="46.54411" lon="5.53274">
        <ele>541</ele>
        <time>2022-03-19T16:16:08Z</time>
      </trkpt>
      <trkpt lat="46.5442" lon="5.5327">
        <ele>541</ele>
        <time>2022-03-19T16:16:09Z</time>
      </trkpt>
      <trkpt lat="46.54429" lon="5.53267">
        <ele>540</ele>
        <time>2022-03-19T16:16:10Z</time>
      </trkpt>
      <trkpt lat="46.5445" lon="5.53261">
        <ele>539</ele>
        <time>2022-03-19T16:16:12Z</time>
      </trkpt>
      <trkpt lat="46.54468" lon="5.53257">
        <ele>538</ele>
        <time>2022-03-19T16:16:14Z</time>
      </trkpt>
      <trkpt lat="46.5449" lon="5.53252">
        <ele>536.6</ele>
        <time>2022-03-19T16:16:16Z</time>
      </trkpt>
      <trkpt lat="46.54511" lon="5.53246">
        <ele>536</ele>
        <time>2022-03-19T16:16:18Z</time>
      </trkpt>
      <trkpt lat="46.54522" lon="5.53243">
        <ele>535.4</ele>
        <time>2022-03-19T16:16:19Z</time>
      </trkpt>
      <trkpt lat="46.54533" lon="5.53241">
        <ele>534.2</ele>
        <time>2022-03-19T16:16:20Z</time>
      </trkpt>
      <trkpt lat="46.54554" lon="5.53235">
        <ele>532.6</ele>
        <time>2022-03-19T16:16:22Z</time>
      </trkpt>
      <trkpt lat="46.54574" lon="5.53229">
        <ele>530.8</ele>
        <time>2022-03-19T16:16:24Z</time>
      </trkpt>
      <trkpt lat="46.54587" lon="5.53224">
        <ele>530.4</ele>
        <time>2022-03-19T16:16:25Z</time>
      </trkpt>
      <trkpt lat="46.54609" lon="5.53216">
        <ele>529</ele>
        <time>2022-03-19T16:16:27Z</time>
      </trkpt>
      <trkpt lat="46.54629" lon="5.53208">
        <ele>527.2</ele>
        <time>2022-03-19T16:16:29Z</time>
      </trkpt>
      <trkpt lat="46.54652" lon="5.53201">
        <ele>525.4</ele>
        <time>2022-03-19T16:16:31Z</time>
      </trkpt>
      <trkpt lat="46.54676" lon="5.53198">
        <ele>523.6</ele>
        <time>2022-03-19T16:16:33Z</time>
      </trkpt>
      <trkpt lat="46.547" lon="5.532">
        <ele>522.6</ele>
        <time>2022-03-19T16:16:35Z</time>
      </trkpt>
      <trkpt lat="46.54712" lon="5.53201">
        <ele>521.6</ele>
        <time>2022-03-19T16:16:36Z</time>
      </trkpt>
      <trkpt lat="46.54737" lon="5.53202">
        <ele>519.8</ele>
        <time>2022-03-19T16:16:38Z</time>
      </trkpt>
      <trkpt lat="46.5476" lon="5.532">
        <ele>518.6</ele>
        <time>2022-03-19T16:16:40Z</time>
      </trkpt>
      <trkpt lat="46.54784" lon="5.53193">
        <ele>517.2</ele>
        <time>2022-03-19T16:16:42Z</time>
      </trkpt>
      <trkpt lat="46.54806" lon="5.53182">
        <ele>516.4</ele>
        <time>2022-03-19T16:16:44Z</time>
      </trkpt>
      <trkpt lat="46.54817" lon="5.53176">
        <ele>515.6</ele>
        <time>2022-03-19T16:16:45Z</time>
      </trkpt>
      <trkpt lat="46.54839" lon="5.53163">
        <ele>514.6</ele>
        <time>2022-03-19T16:16:47Z</time>
      </trkpt>
      <trkpt lat="46.5486" lon="5.5315">
        <ele>513.6</ele>
        <time>2022-03-19T16:16:49Z</time>
      </trkpt>
      <trkpt lat="46.54869" lon="5.53143">
        <ele>513</ele>
        <time>2022-03-19T16:16:50Z</time>
      </trkpt>
      <trkpt lat="46.54878" lon="5.53134">
        <ele>512.8</ele>
        <time>2022-03-19T16:16:51Z</time>
      </trkpt>
      <trkpt lat="46.54886" lon="5.53123">
        <ele>512.4</ele>
        <time>2022-03-19T16:16:52Z</time>
      </trkpt>
      <trkpt lat="46.549" lon="5.53098">
        <ele>512</ele>
        <time>2022-03-19T16:16:54Z</time>
      </trkpt>
      <trkpt lat="46.54919" lon="5.53057">
        <ele>511.2</ele>
        <time>2022-03-19T16:16:57Z</time>
      </trkpt>
      <trkpt lat="46.54932" lon="5.53029">
        <ele>510.2</ele>
        <time>2022-03-19T16:16:59Z</time>
      </trkpt>
      <trkpt lat="46.54948" lon="5.52986">
        <ele>508.8</ele>
        <time>2022-03-19T16:17:02Z</time>
      </trkpt>
      <trkpt lat="46.5496" lon="5.52935">
        <ele>507.4</ele>
        <time>2022-03-19T16:17:05Z</time>
      </trkpt>
      <trkpt lat="46.54967" lon="5.52907">
        <ele>506.6</ele>
        <time>2022-03-19T16:17:07Z</time>
      </trkpt>
      <trkpt lat="46.54973" lon="5.52889">
        <ele>506.2</ele>
        <time>2022-03-19T16:17:08Z</time>
      </trkpt>
      <trkpt lat="46.54991" lon="5.5285">
        <ele>505.4</ele>
        <time>2022-03-19T16:17:11Z</time>
      </trkpt>
      <trkpt lat="46.54997" lon="5.52841">
        <ele>505</ele>
        <time>2022-03-19T16:17:12Z</time>
      </trkpt>
      <trkpt lat="46.55027" lon="5.52802">
        <ele>504</ele>
        <time>2022-03-19T16:17:16Z</time>
      </trkpt>
      <trkpt lat="46.5504" lon="5.52782">
        <ele>504</ele>
        <time>2022-03-19T16:17:18Z</time>
      </trkpt>
      <trkpt lat="46.55051" lon="5.5276">
        <ele>504</ele>
        <time>2022-03-19T16:17:20Z</time>
      </trkpt>
      <trkpt lat="46.5508" lon="5.5269">
        <ele>504</ele>
        <time>2022-03-19T16:17:26Z</time>
      </trkpt>
      <trkpt lat="46.55097" lon="5.52646">
        <ele>504</ele>
        <time>2022-03-19T16:17:30Z</time>
      </trkpt>
      <trkpt lat="46.551" lon="5.52635">
        <ele>504</ele>
        <time>2022-03-19T16:17:31Z</time>
      </trkpt>
      <trkpt lat="46.55101" lon="5.52624">
        <ele>504</ele>
        <time>2022-03-19T16:17:32Z</time>
      </trkpt>
      <trkpt lat="46.551" lon="5.52603">
        <ele>504</ele>
        <time>2022-03-19T16:17:34Z</time>
      </trkpt>
      <trkpt lat="46.55093" lon="5.52576">
        <ele>505</ele>
        <time>2022-03-19T16:17:37Z</time>
      </trkpt>
      <trkpt lat="46.5509" lon="5.52569">
        <ele>505.2</ele>
        <time>2022-03-19T16:17:38Z</time>
      </trkpt>
      <trkpt lat="46.55083" lon="5.52548">
        <ele>506.4</ele>
        <time>2022-03-19T16:17:41Z</time>
      </trkpt>
      <trkpt lat="46.55079" lon="5.52536">
        <ele>507</ele>
        <time>2022-03-19T16:17:43Z</time>
      </trkpt>
      <trkpt lat="46.55076" lon="5.5253">
        <ele>507.4</ele>
        <time>2022-03-19T16:17:44Z</time>
      </trkpt>
      <trkpt lat="46.55074" lon="5.52525">
        <ele>508</ele>
        <time>2022-03-19T16:17:45Z</time>
      </trkpt>
      <trkpt lat="46.55066" lon="5.52501">
        <ele>509.2</ele>
        <time>2022-03-19T16:17:49Z</time>
      </trkpt>
      <trkpt lat="46.55062" lon="5.5249">
        <ele>509.8</ele>
        <time>2022-03-19T16:17:51Z</time>
      </trkpt>
      <trkpt lat="46.55058" lon="5.52479">
        <ele>510.4</ele>
        <time>2022-03-19T16:17:53Z</time>
      </trkpt>
      <trkpt lat="46.55048" lon="5.52452">
        <ele>511.4</ele>
        <time>2022-03-19T16:17:58Z</time>
      </trkpt>
      <trkpt lat="46.55038" lon="5.52425">
        <ele>512.8</ele>
        <time>2022-03-19T16:18:03Z</time>
      </trkpt>
      <trkpt lat="46.55028" lon="5.52397">
        <ele>514</ele>
        <time>2022-03-19T16:18:08Z</time>
      </trkpt>
      <trkpt lat="46.55017" lon="5.52363">
        <ele>515.2</ele>
        <time>2022-03-19T16:18:14Z</time>
      </trkpt>
      <trkpt lat="46.55014" lon="5.52352">
        <ele>516</ele>
        <time>2022-03-19T16:18:16Z</time>
      </trkpt>
      <trkpt lat="46.55007" lon="5.52336">
        <ele>516.8</ele>
        <time>2022-03-19T16:18:19Z</time>
      </trkpt>
      <trkpt lat="46.54998" lon="5.52317">
        <ele>518</ele>
        <time>2022-03-19T16:18:23Z</time>
      </trkpt>
      <trkpt lat="46.54996" lon="5.52312">
        <ele>518.6</ele>
        <time>2022-03-19T16:18:24Z</time>
      </trkpt>
      <trkpt lat="46.54988" lon="5.523">
        <ele>519</ele>
        <time>2022-03-19T16:18:27Z</time>
      </trkpt>
      <trkpt lat="46.54976" lon="5.52286">
        <ele>520</ele>
        <time>2022-03-19T16:18:31Z</time>
      </trkpt>
      <trkpt lat="46.54973" lon="5.52283">
        <ele>520.2</ele>
        <time>2022-03-19T16:18:32Z</time>
      </trkpt>
      <trkpt lat="46.54966" lon="5.52276">
        <ele>521</ele>
        <time>2022-03-19T16:18:34Z</time>
      </trkpt>
      <trkpt lat="46.54963" lon="5.52274">
        <ele>521.2</ele>
        <time>2022-03-19T16:18:35Z</time>
      </trkpt>
      <trkpt lat="46.54943" lon="5.52262">
        <ele>522.4</ele>
        <time>2022-03-19T16:18:40Z</time>
      </trkpt>
      <trkpt lat="46.5492" lon="5.52253">
        <ele>523.4</ele>
        <time>2022-03-19T16:18:46Z</time>
      </trkpt>
      <trkpt lat="46.549" lon="5.52245">
        <ele>524.6</ele>
        <time>2022-03-19T16:18:51Z</time>
      </trkpt>
      <trkpt lat="46.54896" lon="5.52243">
        <ele>524.8</ele>
        <time>2022-03-19T16:18:52Z</time>
      </trkpt>
      <trkpt lat="46.54879" lon="5.52237">
        <ele>525.8</ele>
        <time>2022-03-19T16:18:56Z</time>
      </trkpt>
      <trkpt lat="46.54864" lon="5.52231">
        <ele>526.8</ele>
        <time>2022-03-19T16:19:00Z</time>
      </trkpt>
      <trkpt lat="46.54856" lon="5.52227">
        <ele>527.4</ele>
        <time>2022-03-19T16:19:02Z</time>
      </trkpt>
      <trkpt lat="46.54845" lon="5.52222">
        <ele>528</ele>
        <time>2022-03-19T16:19:05Z</time>
      </trkpt>
      <trkpt lat="46.54822" lon="5.52208">
        <ele>529.4</ele>
        <time>2022-03-19T16:19:11Z</time>
      </trkpt>
      <trkpt lat="46.54819" lon="5.52206">
        <ele>529.6</ele>
        <time>2022-03-19T16:19:12Z</time>
      </trkpt>
      <trkpt lat="46.54805" lon="5.52196">
        <ele>530.4</ele>
        <time>2022-03-19T16:19:16Z</time>
      </trkpt>
      <trkpt lat="46.5479" lon="5.52184">
        <ele>531.6</ele>
        <time>2022-03-19T16:19:20Z</time>
      </trkpt>
      <trkpt lat="46.54779" lon="5.52175">
        <ele>532.6</ele>
        <time>2022-03-19T16:19:23Z</time>
      </trkpt>
      <trkpt lat="46.54765" lon="5.52164">
        <ele>533.2</ele>
        <time>2022-03-19T16:19:27Z</time>
      </trkpt>
      <trkpt lat="46.54758" lon="5.52159">
        <ele>533.8</ele>
        <time>2022-03-19T16:19:29Z</time>
      </trkpt>
      <trkpt lat="46.54739" lon="5.5215">
        <ele>535</ele>
        <time>2022-03-19T16:19:34Z</time>
      </trkpt>
      <trkpt lat="46.5472" lon="5.52142">
        <ele>536.2</ele>
        <time>2022-03-19T16:19:39Z</time>
      </trkpt>
      <trkpt lat="46.547" lon="5.52136">
        <ele>537.4</ele>
        <time>2022-03-19T16:19:44Z</time>
      </trkpt>
      <trkpt lat="46.54692" lon="5.52133">
        <ele>538</ele>
        <time>2022-03-19T16:19:46Z</time>
      </trkpt>
      <trkpt lat="46.54684" lon="5.5213">
        <ele>538.6</ele>
        <time>2022-03-19T16:19:48Z</time>
      </trkpt>
      <trkpt lat="46.54666" lon="5.5212">
        <ele>539.8</ele>
        <time>2022-03-19T16:19:53Z</time>
      </trkpt>
      <trkpt lat="46.54657" lon="5.52116">
        <ele>540.6</ele>
        <time>2022-03-19T16:19:55Z</time>
      </trkpt>
      <trkpt lat="46.54653" lon="5.52113">
        <ele>540.8</ele>
        <time>2022-03-19T16:19:56Z</time>
      </trkpt>
      <trkpt lat="46.5463" lon="5.52097">
        <ele>541.8</ele>
        <time>2022-03-19T16:20:02Z</time>
      </trkpt>
      <trkpt lat="46.54627" lon="5.52094">
        <ele>542</ele>
        <time>2022-03-19T16:20:03Z</time>
      </trkpt>
      <trkpt lat="46.5462" lon="5.52087">
        <ele>542.2</ele>
        <time>2022-03-19T16:20:05Z</time>
      </trkpt>
      <trkpt lat="46.5461" lon="5.52077">
        <ele>543.2</ele>
        <time>2022-03-19T16:20:08Z</time>
      </trkpt>
      <trkpt lat="46.54594" lon="5.5206">
        <ele>543.8</ele>
        <time>2022-03-19T16:20:12Z</time>
      </trkpt>
      <trkpt lat="46.54578" lon="5.52041">
        <ele>544.4</ele>
        <time>2022-03-19T16:20:16Z</time>
      </trkpt>
      <trkpt lat="46.5456" lon="5.52021">
        <ele>544.4</ele>
        <time>2022-03-19T16:20:20Z</time>
      </trkpt>
      <trkpt lat="46.54526" lon="5.51983">
        <ele>544.8</ele>
        <time>2022-03-19T16:20:27Z</time>
      </trkpt>
      <trkpt lat="46.54488" lon="5.51941">
        <ele>544.8</ele>
        <time>2022-03-19T16:20:34Z</time>
      </trkpt>
      <trkpt lat="46.54452" lon="5.51901">
        <ele>544.2</ele>
        <time>2022-03-19T16:20:40Z</time>
      </trkpt>
      <trkpt lat="46.54409" lon="5.51854">
        <ele>543.8</ele>
        <time>2022-03-19T16:20:48Z</time>
      </trkpt>
      <trkpt lat="46.5438" lon="5.51823">
        <ele>545.2</ele>
        <time>2022-03-19T16:20:54Z</time>
      </trkpt>
      <trkpt lat="46.54376" lon="5.51817">
        <ele>545.4</ele>
        <time>2022-03-19T16:20:55Z</time>
      </trkpt>
      <trkpt lat="46.54346" lon="5.5179">
        <ele>546.4</ele>
        <time>2022-03-19T16:21:01Z</time>
      </trkpt>
      <trkpt lat="46.54341" lon="5.51787">
        <ele>546.8</ele>
        <time>2022-03-19T16:21:02Z</time>
      </trkpt>
      <trkpt lat="46.5432" lon="5.51775">
        <ele>548</ele>
        <time>2022-03-19T16:21:06Z</time>
      </trkpt>
      <trkpt lat="46.54297" lon="5.51767">
        <ele>549</ele>
        <time>2022-03-19T16:21:10Z</time>
      </trkpt>
      <trkpt lat="46.54291" lon="5.51765">
        <ele>549</ele>
        <time>2022-03-19T16:21:11Z</time>
      </trkpt>
      <trkpt lat="46.54285" lon="5.51763">
        <ele>549</ele>
        <time>2022-03-19T16:21:12Z</time>
      </trkpt>
      <trkpt lat="46.54269" lon="5.51757">
        <ele>550</ele>
        <time>2022-03-19T16:21:15Z</time>
      </trkpt>
      <trkpt lat="46.54265" lon="5.51755">
        <ele>550.4</ele>
        <time>2022-03-19T16:21:16Z</time>
      </trkpt>
      <trkpt lat="46.54243" lon="5.51743">
        <ele>551.4</ele>
        <time>2022-03-19T16:21:21Z</time>
      </trkpt>
      <trkpt lat="46.54239" lon="5.5174">
        <ele>551.4</ele>
        <time>2022-03-19T16:21:22Z</time>
      </trkpt>
      <trkpt lat="46.54229" lon="5.5173">
        <ele>551.8</ele>
        <time>2022-03-19T16:21:25Z</time>
      </trkpt>
      <trkpt lat="46.54209" lon="5.5171">
        <ele>552.4</ele>
        <time>2022-03-19T16:21:31Z</time>
      </trkpt>
      <trkpt lat="46.54206" lon="5.51706">
        <ele>552.4</ele>
        <time>2022-03-19T16:21:32Z</time>
      </trkpt>
      <trkpt lat="46.54186" lon="5.51681">
        <ele>552.6</ele>
        <time>2022-03-19T16:21:38Z</time>
      </trkpt>
      <trkpt lat="46.54173" lon="5.5166">
        <ele>553</ele>
        <time>2022-03-19T16:21:44Z</time>
      </trkpt>
      <trkpt lat="46.54171" lon="5.51655">
        <ele>553.2</ele>
        <time>2022-03-19T16:21:49Z</time>
      </trkpt>
      <trkpt lat="46.54176" lon="5.51645">
        <ele>553.2</ele>
        <time>2022-03-19T16:27:02Z</time>
      </trkpt>
      <trkpt lat="46.54177" lon="5.5164">
        <ele>553.2</ele>
        <time>2022-03-19T16:27:04Z</time>
      </trkpt>
      <trkpt lat="46.54173" lon="5.51617">
        <ele>553.4</ele>
        <time>2022-03-19T16:27:09Z</time>
      </trkpt>
      <trkpt lat="46.54173" lon="5.51607">
        <ele>553.6</ele>
        <time>2022-03-19T16:27:11Z</time>
      </trkpt>
      <trkpt lat="46.54172" lon="5.51593">
        <ele>553.8</ele>
        <time>2022-03-19T16:27:14Z</time>
      </trkpt>
      <trkpt lat="46.54171" lon="5.51566">
        <ele>554.4</ele>
        <time>2022-03-19T16:27:19Z</time>
      </trkpt>
      <trkpt lat="46.54171" lon="5.51561">
        <ele>554.6</ele>
        <time>2022-03-19T16:27:20Z</time>
      </trkpt>
      <trkpt lat="46.54178" lon="5.51535">
        <ele>554.8</ele>
        <time>2022-03-19T16:27:25Z</time>
      </trkpt>
      <trkpt lat="46.54196" lon="5.51487">
        <ele>555.4</ele>
        <time>2022-03-19T16:27:34Z</time>
      </trkpt>
      <trkpt lat="46.54199" lon="5.51481">
        <ele>555.8</ele>
        <time>2022-03-19T16:27:35Z</time>
      </trkpt>
      <trkpt lat="46.54215" lon="5.51451">
        <ele>556.8</ele>
        <time>2022-03-19T16:27:42Z</time>
      </trkpt>
      <trkpt lat="46.54222" lon="5.51429">
        <ele>557.8</ele>
        <time>2022-03-19T16:27:47Z</time>
      </trkpt>
      <trkpt lat="46.54223" lon="5.51419">
        <ele>558.4</ele>
        <time>2022-03-19T16:27:49Z</time>
      </trkpt>
      <trkpt lat="46.54229" lon="5.51398">
        <ele>559.4</ele>
        <time>2022-03-19T16:27:53Z</time>
      </trkpt>
      <trkpt lat="46.5423" lon="5.51393">
        <ele>559.6</ele>
        <time>2022-03-19T16:27:54Z</time>
      </trkpt>
      <trkpt lat="46.54233" lon="5.51364">
        <ele>560.6</ele>
        <time>2022-03-19T16:27:59Z</time>
      </trkpt>
      <trkpt lat="46.54233" lon="5.51358">
        <ele>560.8</ele>
        <time>2022-03-19T16:28:00Z</time>
      </trkpt>
      <trkpt lat="46.54235" lon="5.51319">
        <ele>561.8</ele>
        <time>2022-03-19T16:28:06Z</time>
      </trkpt>
      <trkpt lat="46.54237" lon="5.51306">
        <ele>562.4</ele>
        <time>2022-03-19T16:28:08Z</time>
      </trkpt>
      <trkpt lat="46.54238" lon="5.513">
        <ele>562.4</ele>
        <time>2022-03-19T16:28:09Z</time>
      </trkpt>
      <trkpt lat="46.5424" lon="5.51294">
        <ele>562.8</ele>
        <time>2022-03-19T16:28:10Z</time>
      </trkpt>
      <trkpt lat="46.54246" lon="5.5128">
        <ele>563.6</ele>
        <time>2022-03-19T16:28:13Z</time>
      </trkpt>
      <trkpt lat="46.54251" lon="5.51273">
        <ele>564</ele>
        <time>2022-03-19T16:28:15Z</time>
      </trkpt>
      <trkpt lat="46.54263" lon="5.51262">
        <ele>564.2</ele>
        <time>2022-03-19T16:28:18Z</time>
      </trkpt>
      <trkpt lat="46.54287" lon="5.51242">
        <ele>564.4</ele>
        <time>2022-03-19T16:28:24Z</time>
      </trkpt>
      <trkpt lat="46.54311" lon="5.51216">
        <ele>564.4</ele>
        <time>2022-03-19T16:28:30Z</time>
      </trkpt>
      <trkpt lat="46.54314" lon="5.5121">
        <ele>564.2</ele>
        <time>2022-03-19T16:28:31Z</time>
      </trkpt>
      <trkpt lat="46.54317" lon="5.51203">
        <ele>564.2</ele>
        <time>2022-03-19T16:28:32Z</time>
      </trkpt>
      <trkpt lat="46.54321" lon="5.51188">
        <ele>563.6</ele>
        <time>2022-03-19T16:28:34Z</time>
      </trkpt>
      <trkpt lat="46.54322" lon="5.51179">
        <ele>563.4</ele>
        <time>2022-03-19T16:28:35Z</time>
      </trkpt>
      <trkpt lat="46.54326" lon="5.51137">
        <ele>562.8</ele>
        <time>2022-03-19T16:28:40Z</time>
      </trkpt>
      <trkpt lat="46.54329" lon="5.51129">
        <ele>562.8</ele>
        <time>2022-03-19T16:28:41Z</time>
      </trkpt>
      <trkpt lat="46.54347" lon="5.5109">
        <ele>562.2</ele>
        <time>2022-03-19T16:28:46Z</time>
      </trkpt>
      <trkpt lat="46.5436" lon="5.51069">
        <ele>561.6</ele>
        <time>2022-03-19T16:28:49Z</time>
      </trkpt>
      <trkpt lat="46.54381" lon="5.51046">
        <ele>561.2</ele>
        <time>2022-03-19T16:28:53Z</time>
      </trkpt>
      <trkpt lat="46.54399" lon="5.51031">
        <ele>560.4</ele>
        <time>2022-03-19T16:28:56Z</time>
      </trkpt>
      <trkpt lat="46.54413" lon="5.51021">
        <ele>560.2</ele>
        <time>2022-03-19T16:28:58Z</time>
      </trkpt>
      <trkpt lat="46.54451" lon="5.50995">
        <ele>559</ele>
        <time>2022-03-19T16:29:03Z</time>
      </trkpt>
      <trkpt lat="46.54474" lon="5.50979">
        <ele>558.2</ele>
        <time>2022-03-19T16:29:06Z</time>
      </trkpt>
      <trkpt lat="46.54482" lon="5.50974">
        <ele>557.8</ele>
        <time>2022-03-19T16:29:07Z</time>
      </trkpt>
      <trkpt lat="46.54504" lon="5.50956">
        <ele>556.4</ele>
        <time>2022-03-19T16:29:10Z</time>
      </trkpt>
      <trkpt lat="46.54531" lon="5.50932">
        <ele>555.4</ele>
        <time>2022-03-19T16:29:14Z</time>
      </trkpt>
      <trkpt lat="46.5457" lon="5.50894">
        <ele>554.2</ele>
        <time>2022-03-19T16:29:20Z</time>
      </trkpt>
      <trkpt lat="46.54576" lon="5.50887">
        <ele>553.8</ele>
        <time>2022-03-19T16:29:21Z</time>
      </trkpt>
      <trkpt lat="46.54604" lon="5.50858">
        <ele>553</ele>
        <time>2022-03-19T16:29:25Z</time>
      </trkpt>
      <trkpt lat="46.54629" lon="5.5083">
        <ele>552.2</ele>
        <time>2022-03-19T16:29:29Z</time>
      </trkpt>
      <trkpt lat="46.54636" lon="5.50823">
        <ele>551.8</ele>
        <time>2022-03-19T16:29:30Z</time>
      </trkpt>
      <trkpt lat="46.54664" lon="5.50802">
        <ele>550.8</ele>
        <time>2022-03-19T16:29:34Z</time>
      </trkpt>
      <trkpt lat="46.54672" lon="5.50798">
        <ele>550.6</ele>
        <time>2022-03-19T16:29:35Z</time>
      </trkpt>
      <trkpt lat="46.54728" lon="5.50772">
        <ele>549.2</ele>
        <time>2022-03-19T16:29:42Z</time>
      </trkpt>
      <trkpt lat="46.54759" lon="5.50757">
        <ele>548</ele>
        <time>2022-03-19T16:29:46Z</time>
      </trkpt>
      <trkpt lat="46.54767" lon="5.5075">
        <ele>547.8</ele>
        <time>2022-03-19T16:29:47Z</time>
      </trkpt>
      <trkpt lat="46.54775" lon="5.50743">
        <ele>547.4</ele>
        <time>2022-03-19T16:29:48Z</time>
      </trkpt>
      <trkpt lat="46.54783" lon="5.50733">
        <ele>546.8</ele>
        <time>2022-03-19T16:29:49Z</time>
      </trkpt>
      <trkpt lat="46.54788" lon="5.50721">
        <ele>546.4</ele>
        <time>2022-03-19T16:29:50Z</time>
      </trkpt>
      <trkpt lat="46.5479" lon="5.50707">
        <ele>545.6</ele>
        <time>2022-03-19T16:29:51Z</time>
      </trkpt>
      <trkpt lat="46.5479" lon="5.50693">
        <ele>545.4</ele>
        <time>2022-03-19T16:29:52Z</time>
      </trkpt>
      <trkpt lat="46.54787" lon="5.50678">
        <ele>544.6</ele>
        <time>2022-03-19T16:29:53Z</time>
      </trkpt>
      <trkpt lat="46.54781" lon="5.50666">
        <ele>544.2</ele>
        <time>2022-03-19T16:29:54Z</time>
      </trkpt>
      <trkpt lat="46.54774" lon="5.50654">
        <ele>543.2</ele>
        <time>2022-03-19T16:29:55Z</time>
      </trkpt>
      <trkpt lat="46.54767" lon="5.50643">
        <ele>542.6</ele>
        <time>2022-03-19T16:29:56Z</time>
      </trkpt>
      <trkpt lat="46.54759" lon="5.50633">
        <ele>542.2</ele>
        <time>2022-03-19T16:29:57Z</time>
      </trkpt>
      <trkpt lat="46.5475" lon="5.50624">
        <ele>541.6</ele>
        <time>2022-03-19T16:29:58Z</time>
      </trkpt>
      <trkpt lat="46.5474" lon="5.50614">
        <ele>541.2</ele>
        <time>2022-03-19T16:29:59Z</time>
      </trkpt>
      <trkpt lat="46.54731" lon="5.50606">
        <ele>540.4</ele>
        <time>2022-03-19T16:30:00Z</time>
      </trkpt>
      <trkpt lat="46.54711" lon="5.50591">
        <ele>539.2</ele>
        <time>2022-03-19T16:30:02Z</time>
      </trkpt>
      <trkpt lat="46.54692" lon="5.50577">
        <ele>537.6</ele>
        <time>2022-03-19T16:30:04Z</time>
      </trkpt>
      <trkpt lat="46.54683" lon="5.50572">
        <ele>536.4</ele>
        <time>2022-03-19T16:30:05Z</time>
      </trkpt>
      <trkpt lat="46.54664" lon="5.50559">
        <ele>534.8</ele>
        <time>2022-03-19T16:30:07Z</time>
      </trkpt>
      <trkpt lat="46.54642" lon="5.50543">
        <ele>533.8</ele>
        <time>2022-03-19T16:30:10Z</time>
      </trkpt>
      <trkpt lat="46.54639" lon="5.50541">
        <ele>532.6</ele>
        <time>2022-03-19T16:30:11Z</time>
      </trkpt>
      <trkpt lat="46.54639" lon="5.50539">
        <ele>532</ele>
        <time>2022-03-19T16:30:12Z</time>
      </trkpt>
      <trkpt lat="46.54638" lon="5.50536">
        <ele>531.8</ele>
        <time>2022-03-19T16:30:13Z</time>
      </trkpt>
      <trkpt lat="46.54639" lon="5.50529">
        <ele>531</ele>
        <time>2022-03-19T16:30:14Z</time>
      </trkpt>
      <trkpt lat="46.54644" lon="5.50526">
        <ele>531</ele>
        <time>2022-03-19T16:30:15Z</time>
      </trkpt>
      <trkpt lat="46.54658" lon="5.50526">
        <ele>530</ele>
        <time>2022-03-19T16:30:17Z</time>
      </trkpt>
      <trkpt lat="46.54666" lon="5.50527">
        <ele>529.2</ele>
        <time>2022-03-19T16:30:18Z</time>
      </trkpt>
      <trkpt lat="46.54674" lon="5.50529">
        <ele>528.4</ele>
        <time>2022-03-19T16:30:19Z</time>
      </trkpt>
      <trkpt lat="46.547" lon="5.50533">
        <ele>527.4</ele>
        <time>2022-03-19T16:30:22Z</time>
      </trkpt>
      <trkpt lat="46.54709" lon="5.50534">
        <ele>526.8</ele>
        <time>2022-03-19T16:30:23Z</time>
      </trkpt>
      <trkpt lat="46.5473" lon="5.50533">
        <ele>525.8</ele>
        <time>2022-03-19T16:30:25Z</time>
      </trkpt>
      <trkpt lat="46.5475" lon="5.50531">
        <ele>524.8</ele>
        <time>2022-03-19T16:30:27Z</time>
      </trkpt>
      <trkpt lat="46.54772" lon="5.50526">
        <ele>523.6</ele>
        <time>2022-03-19T16:30:29Z</time>
      </trkpt>
      <trkpt lat="46.54794" lon="5.50523">
        <ele>522.2</ele>
        <time>2022-03-19T16:30:31Z</time>
      </trkpt>
      <trkpt lat="46.54805" lon="5.50522">
        <ele>521.4</ele>
        <time>2022-03-19T16:30:32Z</time>
      </trkpt>
      <trkpt lat="46.54829" lon="5.50522">
        <ele>519.8</ele>
        <time>2022-03-19T16:30:34Z</time>
      </trkpt>
      <trkpt lat="46.54852" lon="5.50521">
        <ele>518.4</ele>
        <time>2022-03-19T16:30:36Z</time>
      </trkpt>
      <trkpt lat="46.54865" lon="5.50519">
        <ele>517.2</ele>
        <time>2022-03-19T16:30:37Z</time>
      </trkpt>
      <trkpt lat="46.54888" lon="5.50506">
        <ele>515.8</ele>
        <time>2022-03-19T16:30:39Z</time>
      </trkpt>
      <trkpt lat="46.54897" lon="5.50494">
        <ele>515.6</ele>
        <time>2022-03-19T16:30:40Z</time>
      </trkpt>
      <trkpt lat="46.54904" lon="5.50479">
        <ele>513.6</ele>
        <time>2022-03-19T16:30:41Z</time>
      </trkpt>
      <trkpt lat="46.54908" lon="5.50462">
        <ele>512.8</ele>
        <time>2022-03-19T16:30:42Z</time>
      </trkpt>
      <trkpt lat="46.54914" lon="5.50443">
        <ele>510.8</ele>
        <time>2022-03-19T16:30:43Z</time>
      </trkpt>
      <trkpt lat="46.54918" lon="5.50431">
        <ele>509.6</ele>
        <time>2022-03-19T16:30:44Z</time>
      </trkpt>
      <trkpt lat="46.54924" lon="5.50418">
        <ele>509.4</ele>
        <time>2022-03-19T16:30:45Z</time>
      </trkpt>
      <trkpt lat="46.54946" lon="5.5039">
        <ele>508.8</ele>
        <time>2022-03-19T16:30:48Z</time>
      </trkpt>
      <trkpt lat="46.54971" lon="5.50363">
        <ele>509.6</ele>
        <time>2022-03-19T16:30:52Z</time>
      </trkpt>
      <trkpt lat="46.54987" lon="5.50349">
        <ele>511</ele>
        <time>2022-03-19T16:30:55Z</time>
      </trkpt>
      <trkpt lat="46.54998" lon="5.50342">
        <ele>511.6</ele>
        <time>2022-03-19T16:30:57Z</time>
      </trkpt>
      <trkpt lat="46.55008" lon="5.50337">
        <ele>512.2</ele>
        <time>2022-03-19T16:30:59Z</time>
      </trkpt>
      <trkpt lat="46.55016" lon="5.50333">
        <ele>513.4</ele>
        <time>2022-03-19T16:31:01Z</time>
      </trkpt>
      <trkpt lat="46.55021" lon="5.50331">
        <ele>513.8</ele>
        <time>2022-03-19T16:31:02Z</time>
      </trkpt>
      <trkpt lat="46.55029" lon="5.50326">
        <ele>514.6</ele>
        <time>2022-03-19T16:31:04Z</time>
      </trkpt>
      <trkpt lat="46.55043" lon="5.50317">
        <ele>516.2</ele>
        <time>2022-03-19T16:31:07Z</time>
      </trkpt>
      <trkpt lat="46.55047" lon="5.50313">
        <ele>516.4</ele>
        <time>2022-03-19T16:31:08Z</time>
      </trkpt>
      <trkpt lat="46.55064" lon="5.50297">
        <ele>517.4</ele>
        <time>2022-03-19T16:31:12Z</time>
      </trkpt>
      <trkpt lat="46.5508" lon="5.50283">
        <ele>518.4</ele>
        <time>2022-03-19T16:31:16Z</time>
      </trkpt>
      <trkpt lat="46.55104" lon="5.50263">
        <ele>519.6</ele>
        <time>2022-03-19T16:31:22Z</time>
      </trkpt>
      <trkpt lat="46.55108" lon="5.5026">
        <ele>520</ele>
        <time>2022-03-19T16:31:23Z</time>
      </trkpt>
      <trkpt lat="46.55119" lon="5.5025">
        <ele>520.8</ele>
        <time>2022-03-19T16:31:26Z</time>
      </trkpt>
      <trkpt lat="46.55134" lon="5.50236">
        <ele>522</ele>
        <time>2022-03-19T16:31:30Z</time>
      </trkpt>
      <trkpt lat="46.55145" lon="5.50226">
        <ele>522.6</ele>
        <time>2022-03-19T16:31:33Z</time>
      </trkpt>
      <trkpt lat="46.55156" lon="5.50217">
        <ele>523.4</ele>
        <time>2022-03-19T16:31:36Z</time>
      </trkpt>
      <trkpt lat="46.55175" lon="5.50204">
        <ele>524.6</ele>
        <time>2022-03-19T16:31:41Z</time>
      </trkpt>
      <trkpt lat="46.55179" lon="5.50201">
        <ele>524.6</ele>
        <time>2022-03-19T16:31:42Z</time>
      </trkpt>
      <trkpt lat="46.55189" lon="5.50194">
        <ele>525.6</ele>
        <time>2022-03-19T16:31:45Z</time>
      </trkpt>
      <trkpt lat="46.55207" lon="5.50182">
        <ele>527.2</ele>
        <time>2022-03-19T16:31:50Z</time>
      </trkpt>
      <trkpt lat="46.55223" lon="5.50171">
        <ele>528</ele>
        <time>2022-03-19T16:31:54Z</time>
      </trkpt>
      <trkpt lat="46.55232" lon="5.50167">
        <ele>528.2</ele>
        <time>2022-03-19T16:31:56Z</time>
      </trkpt>
      <trkpt lat="46.5525" lon="5.50154">
        <ele>529.4</ele>
        <time>2022-03-19T16:32:01Z</time>
      </trkpt>
      <trkpt lat="46.55263" lon="5.50146">
        <ele>530.2</ele>
        <time>2022-03-19T16:32:04Z</time>
      </trkpt>
      <trkpt lat="46.55268" lon="5.50142">
        <ele>530.4</ele>
        <time>2022-03-19T16:32:05Z</time>
      </trkpt>
      <trkpt lat="46.55284" lon="5.50132">
        <ele>531.6</ele>
        <time>2022-03-19T16:32:09Z</time>
      </trkpt>
      <trkpt lat="46.55295" lon="5.50124">
        <ele>532.4</ele>
        <time>2022-03-19T16:32:12Z</time>
      </trkpt>
      <trkpt lat="46.55299" lon="5.50121">
        <ele>532.6</ele>
        <time>2022-03-19T16:32:13Z</time>
      </trkpt>
      <trkpt lat="46.55322" lon="5.50101">
        <ele>533.8</ele>
        <time>2022-03-19T16:32:19Z</time>
      </trkpt>
      <trkpt lat="46.55329" lon="5.50094">
        <ele>534</ele>
        <time>2022-03-19T16:32:21Z</time>
      </trkpt>
      <trkpt lat="46.55343" lon="5.5008">
        <ele>534.8</ele>
        <time>2022-03-19T16:32:25Z</time>
      </trkpt>
      <trkpt lat="46.55363" lon="5.50058">
        <ele>535.8</ele>
        <time>2022-03-19T16:32:30Z</time>
      </trkpt>
      <trkpt lat="46.55367" lon="5.50052">
        <ele>536.2</ele>
        <time>2022-03-19T16:32:31Z</time>
      </trkpt>
      <trkpt lat="46.55382" lon="5.50027">
        <ele>537.4</ele>
        <time>2022-03-19T16:32:36Z</time>
      </trkpt>
      <trkpt lat="46.55384" lon="5.50021">
        <ele>537.6</ele>
        <time>2022-03-19T16:32:37Z</time>
      </trkpt>
      <trkpt lat="46.55386" lon="5.50015">
        <ele>538</ele>
        <time>2022-03-19T16:32:38Z</time>
      </trkpt>
      <trkpt lat="46.5539" lon="5.49996">
        <ele>538.6</ele>
        <time>2022-03-19T16:32:41Z</time>
      </trkpt>
      <trkpt lat="46.55391" lon="5.49989">
        <ele>539.2</ele>
        <time>2022-03-19T16:32:42Z</time>
      </trkpt>
      <trkpt lat="46.55391" lon="5.49977">
        <ele>539.8</ele>
        <time>2022-03-19T16:32:44Z</time>
      </trkpt>
      <trkpt lat="46.55388" lon="5.49958">
        <ele>540.6</ele>
        <time>2022-03-19T16:32:47Z</time>
      </trkpt>
      <trkpt lat="46.55387" lon="5.49954">
        <ele>540.8</ele>
        <time>2022-03-19T16:32:48Z</time>
      </trkpt>
      <trkpt lat="46.55386" lon="5.49948">
        <ele>540.8</ele>
        <time>2022-03-19T16:32:49Z</time>
      </trkpt>
      <trkpt lat="46.55382" lon="5.49932">
        <ele>542</ele>
        <time>2022-03-19T16:32:52Z</time>
      </trkpt>
      <trkpt lat="46.55381" lon="5.49927">
        <ele>542.4</ele>
        <time>2022-03-19T16:32:53Z</time>
      </trkpt>
      <trkpt lat="46.55373" lon="5.499">
        <ele>543.2</ele>
        <time>2022-03-19T16:32:58Z</time>
      </trkpt>
      <trkpt lat="46.5537" lon="5.49886">
        <ele>543.4</ele>
        <time>2022-03-19T16:33:00Z</time>
      </trkpt>
      <trkpt lat="46.5537" lon="5.49881">
        <ele>543.4</ele>
        <time>2022-03-19T16:33:01Z</time>
      </trkpt>
      <trkpt lat="46.55371" lon="5.49867">
        <ele>543.4</ele>
        <time>2022-03-19T16:33:03Z</time>
      </trkpt>
      <trkpt lat="46.55374" lon="5.49846">
        <ele>543.4</ele>
        <time>2022-03-19T16:33:06Z</time>
      </trkpt>
      <trkpt lat="46.55389" lon="5.49787">
        <ele>542.8</ele>
        <time>2022-03-19T16:33:15Z</time>
      </trkpt>
      <trkpt lat="46.55396" lon="5.49761">
        <ele>542.6</ele>
        <time>2022-03-19T16:33:21Z</time>
      </trkpt>
      <trkpt lat="46.55397" lon="5.49755">
        <ele>542.6</ele>
        <time>2022-03-19T16:33:22Z</time>
      </trkpt>
      <trkpt lat="46.55396" lon="5.49742">
        <ele>542.6</ele>
        <time>2022-03-19T16:33:24Z</time>
      </trkpt>
      <trkpt lat="46.55391" lon="5.49732">
        <ele>542.4</ele>
        <time>2022-03-19T16:33:26Z</time>
      </trkpt>
      <trkpt lat="46.55383" lon="5.49722">
        <ele>542.2</ele>
        <time>2022-03-19T16:33:28Z</time>
      </trkpt>
      <trkpt lat="46.55358" lon="5.49689">
        <ele>540.8</ele>
        <time>2022-03-19T16:33:33Z</time>
      </trkpt>
      <trkpt lat="46.55338" lon="5.49655">
        <ele>539.4</ele>
        <time>2022-03-19T16:33:37Z</time>
      </trkpt>
      <trkpt lat="46.55332" lon="5.49645">
        <ele>538.4</ele>
        <time>2022-03-19T16:33:38Z</time>
      </trkpt>
      <trkpt lat="46.55326" lon="5.49634">
        <ele>538</ele>
        <time>2022-03-19T16:33:39Z</time>
      </trkpt>
      <trkpt lat="46.55309" lon="5.49603">
        <ele>536.2</ele>
        <time>2022-03-19T16:33:42Z</time>
      </trkpt>
      <trkpt lat="46.55302" lon="5.4959">
        <ele>535.6</ele>
        <time>2022-03-19T16:33:43Z</time>
      </trkpt>
      <trkpt lat="46.55299" lon="5.4958">
        <ele>534.6</ele>
        <time>2022-03-19T16:33:44Z</time>
      </trkpt>
      <trkpt lat="46.55298" lon="5.49568">
        <ele>534</ele>
        <time>2022-03-19T16:33:45Z</time>
      </trkpt>
      <trkpt lat="46.55297" lon="5.49555">
        <ele>533</ele>
        <time>2022-03-19T16:33:46Z</time>
      </trkpt>
      <trkpt lat="46.55298" lon="5.49542">
        <ele>531.4</ele>
        <time>2022-03-19T16:33:47Z</time>
      </trkpt>
      <trkpt lat="46.55304" lon="5.49516">
        <ele>530</ele>
        <time>2022-03-19T16:33:49Z</time>
      </trkpt>
      <trkpt lat="46.5531" lon="5.49489">
        <ele>527.8</ele>
        <time>2022-03-19T16:33:51Z</time>
      </trkpt>
      <trkpt lat="46.55312" lon="5.49475">
        <ele>527.2</ele>
        <time>2022-03-19T16:33:52Z</time>
      </trkpt>
      <trkpt lat="46.55314" lon="5.49461">
        <ele>526.6</ele>
        <time>2022-03-19T16:33:53Z</time>
      </trkpt>
      <trkpt lat="46.55316" lon="5.49435">
        <ele>525</ele>
        <time>2022-03-19T16:33:55Z</time>
      </trkpt>
      <trkpt lat="46.55317" lon="5.49422">
        <ele>524.2</ele>
        <time>2022-03-19T16:33:56Z</time>
      </trkpt>
      <trkpt lat="46.55318" lon="5.49408">
        <ele>524</ele>
        <time>2022-03-19T16:33:57Z</time>
      </trkpt>
      <trkpt lat="46.55318" lon="5.49399">
        <ele>522.8</ele>
        <time>2022-03-19T16:33:58Z</time>
      </trkpt>
      <trkpt lat="46.5532" lon="5.49382">
        <ele>521</ele>
        <time>2022-03-19T16:34:00Z</time>
      </trkpt>
      <trkpt lat="46.55322" lon="5.49376">
        <ele>520.6</ele>
        <time>2022-03-19T16:34:01Z</time>
      </trkpt>
      <trkpt lat="46.55324" lon="5.4937">
        <ele>520</ele>
        <time>2022-03-19T16:34:02Z</time>
      </trkpt>
      <trkpt lat="46.55325" lon="5.49365">
        <ele>519.6</ele>
        <time>2022-03-19T16:34:03Z</time>
      </trkpt>
      <trkpt lat="46.55326" lon="5.49361">
        <ele>519.2</ele>
        <time>2022-03-19T16:34:04Z</time>
      </trkpt>
      <trkpt lat="46.55327" lon="5.49348">
        <ele>518</ele>
        <time>2022-03-19T16:34:07Z</time>
      </trkpt>
      <trkpt lat="46.55327" lon="5.49348">
        <ele>517.8</ele>
        <time>2022-03-19T16:34:08Z</time>
      </trkpt>
      <trkpt lat="46.55325" lon="5.49341">
        <ele>517.2</ele>
        <time>2022-03-19T16:34:11Z</time>
      </trkpt>
      <trkpt lat="46.55323" lon="5.49339">
        <ele>517</ele>
        <time>2022-03-19T16:34:12Z</time>
      </trkpt>
      <trkpt lat="46.55321" lon="5.49339">
        <ele>517</ele>
        <time>2022-03-19T16:34:13Z</time>
      </trkpt>
      <trkpt lat="46.55307" lon="5.49335">
        <ele>516.8</ele>
        <time>2022-03-19T16:34:18Z</time>
      </trkpt>
      <trkpt lat="46.55281" lon="5.49328">
        <ele>517</ele>
        <time>2022-03-19T16:34:25Z</time>
      </trkpt>
      <trkpt lat="46.55262" lon="5.49312">
        <ele>517.4</ele>
        <time>2022-03-19T16:34:31Z</time>
      </trkpt>
      <trkpt lat="46.55251" lon="5.49292">
        <ele>517.8</ele>
        <time>2022-03-19T16:34:36Z</time>
      </trkpt>
      <trkpt lat="46.55258" lon="5.49275">
        <ele>517.8</ele>
        <time>2022-03-19T16:34:40Z</time>
      </trkpt>
      <trkpt lat="46.55278" lon="5.49241">
        <ele>517.4</ele>
        <time>2022-03-19T16:34:47Z</time>
      </trkpt>
      <trkpt lat="46.5529" lon="5.49222">
        <ele>516.8</ele>
        <time>2022-03-19T16:34:50Z</time>
      </trkpt>
      <trkpt lat="46.55297" lon="5.49211">
        <ele>516.6</ele>
        <time>2022-03-19T16:34:52Z</time>
      </trkpt>
      <trkpt lat="46.55301" lon="5.49204">
        <ele>516.4</ele>
        <time>2022-03-19T16:34:53Z</time>
      </trkpt>
      <trkpt lat="46.55304" lon="5.49196">
        <ele>516.2</ele>
        <time>2022-03-19T16:34:54Z</time>
      </trkpt>
      <trkpt lat="46.5531" lon="5.49181">
        <ele>515.6</ele>
        <time>2022-03-19T16:34:56Z</time>
      </trkpt>
      <trkpt lat="46.55332" lon="5.4913">
        <ele>515.4</ele>
        <time>2022-03-19T16:35:03Z</time>
      </trkpt>
      <trkpt lat="46.55335" lon="5.49124">
        <ele>515.6</ele>
        <time>2022-03-19T16:35:04Z</time>
      </trkpt>
      <trkpt lat="46.55343" lon="5.49116">
        <ele>515.6</ele>
        <time>2022-03-19T16:35:06Z</time>
      </trkpt>
      <trkpt lat="46.55347" lon="5.49112">
        <ele>515.6</ele>
        <time>2022-03-19T16:35:07Z</time>
      </trkpt>
      <trkpt lat="46.55375" lon="5.49104">
        <ele>517.2</ele>
        <time>2022-03-19T16:35:14Z</time>
      </trkpt>
      <trkpt lat="46.55391" lon="5.49102">
        <ele>518.6</ele>
        <time>2022-03-19T16:35:18Z</time>
      </trkpt>
      <trkpt lat="46.55405" lon="5.49101">
        <ele>519.6</ele>
        <time>2022-03-19T16:35:21Z</time>
      </trkpt>
      <trkpt lat="46.55409" lon="5.491">
        <ele>519.8</ele>
        <time>2022-03-19T16:35:22Z</time>
      </trkpt>
      <trkpt lat="46.55413" lon="5.49101">
        <ele>520</ele>
        <time>2022-03-19T16:35:23Z</time>
      </trkpt>
      <trkpt lat="46.55422" lon="5.49104">
        <ele>520.4</ele>
        <time>2022-03-19T16:35:25Z</time>
      </trkpt>
      <trkpt lat="46.55426" lon="5.49107">
        <ele>520.6</ele>
        <time>2022-03-19T16:35:26Z</time>
      </trkpt>
      <trkpt lat="46.5543" lon="5.4911">
        <ele>520.8</ele>
        <time>2022-03-19T16:35:27Z</time>
      </trkpt>
      <trkpt lat="46.55433" lon="5.49114">
        <ele>521</ele>
        <time>2022-03-19T16:35:28Z</time>
      </trkpt>
      <trkpt lat="46.55443" lon="5.49125">
        <ele>521.4</ele>
        <time>2022-03-19T16:35:31Z</time>
      </trkpt>
      <trkpt lat="46.55466" lon="5.49148">
        <ele>521.8</ele>
        <time>2022-03-19T16:35:38Z</time>
      </trkpt>
      <trkpt lat="46.55499" lon="5.49187">
        <ele>521.2</ele>
        <time>2022-03-19T16:35:48Z</time>
      </trkpt>
      <trkpt lat="46.55502" lon="5.4919">
        <ele>521.2</ele>
        <time>2022-03-19T16:35:49Z</time>
      </trkpt>
      <trkpt lat="46.55523" lon="5.49203">
        <ele>521</ele>
        <time>2022-03-19T16:35:54Z</time>
      </trkpt>
      <trkpt lat="46.55556" lon="5.49222">
        <ele>520.2</ele>
        <time>2022-03-19T16:36:01Z</time>
      </trkpt>
      <trkpt lat="46.55574" lon="5.49231">
        <ele>520</ele>
        <time>2022-03-19T16:36:04Z</time>
      </trkpt>
      <trkpt lat="46.55593" lon="5.49241">
        <ele>519.4</ele>
        <time>2022-03-19T16:36:07Z</time>
      </trkpt>
      <trkpt lat="46.55613" lon="5.49252">
        <ele>518.6</ele>
        <time>2022-03-19T16:36:10Z</time>
      </trkpt>
      <trkpt lat="46.55642" lon="5.49268">
        <ele>517.6</ele>
        <time>2022-03-19T16:36:14Z</time>
      </trkpt>
      <trkpt lat="46.55662" lon="5.4928">
        <ele>516.6</ele>
        <time>2022-03-19T16:36:17Z</time>
      </trkpt>
      <trkpt lat="46.55679" lon="5.49291">
        <ele>515.6</ele>
        <time>2022-03-19T16:36:20Z</time>
      </trkpt>
      <trkpt lat="46.55684" lon="5.49294">
        <ele>515.6</ele>
        <time>2022-03-19T16:36:21Z</time>
      </trkpt>
      <trkpt lat="46.5569" lon="5.49294">
        <ele>515.2</ele>
        <time>2022-03-19T16:36:22Z</time>
      </trkpt>
      <trkpt lat="46.557" lon="5.49287">
        <ele>514.6</ele>
        <time>2022-03-19T16:36:24Z</time>
      </trkpt>
      <trkpt lat="46.55704" lon="5.49273">
        <ele>514.2</ele>
        <time>2022-03-19T16:36:26Z</time>
      </trkpt>
      <trkpt lat="46.55701" lon="5.49266">
        <ele>513.8</ele>
        <time>2022-03-19T16:36:27Z</time>
      </trkpt>
      <trkpt lat="46.5569" lon="5.49249">
        <ele>512.8</ele>
        <time>2022-03-19T16:36:29Z</time>
      </trkpt>
      <trkpt lat="46.55685" lon="5.4924">
        <ele>512.6</ele>
        <time>2022-03-19T16:36:30Z</time>
      </trkpt>
      <trkpt lat="46.55679" lon="5.49231">
        <ele>511.8</ele>
        <time>2022-03-19T16:36:31Z</time>
      </trkpt>
      <trkpt lat="46.55675" lon="5.49221">
        <ele>511.6</ele>
        <time>2022-03-19T16:36:32Z</time>
      </trkpt>
      <trkpt lat="46.55672" lon="5.4921">
        <ele>510.8</ele>
        <time>2022-03-19T16:36:33Z</time>
      </trkpt>
      <trkpt lat="46.55669" lon="5.49198">
        <ele>510.2</ele>
        <time>2022-03-19T16:36:34Z</time>
      </trkpt>
      <trkpt lat="46.55668" lon="5.49185">
        <ele>509.4</ele>
        <time>2022-03-19T16:36:35Z</time>
      </trkpt>
      <trkpt lat="46.55668" lon="5.49172">
        <ele>508.6</ele>
        <time>2022-03-19T16:36:36Z</time>
      </trkpt>
      <trkpt lat="46.55669" lon="5.4916">
        <ele>508.4</ele>
        <time>2022-03-19T16:36:37Z</time>
      </trkpt>
      <trkpt lat="46.55671" lon="5.49147">
        <ele>507.4</ele>
        <time>2022-03-19T16:36:38Z</time>
      </trkpt>
      <trkpt lat="46.55674" lon="5.49135">
        <ele>507.2</ele>
        <time>2022-03-19T16:36:39Z</time>
      </trkpt>
      <trkpt lat="46.55679" lon="5.49123">
        <ele>506.6</ele>
        <time>2022-03-19T16:36:40Z</time>
      </trkpt>
      <trkpt lat="46.55684" lon="5.49111">
        <ele>506.4</ele>
        <time>2022-03-19T16:36:41Z</time>
      </trkpt>
      <trkpt lat="46.5569" lon="5.491">
        <ele>505.8</ele>
        <time>2022-03-19T16:36:42Z</time>
      </trkpt>
      <trkpt lat="46.55696" lon="5.49089">
        <ele>505.2</ele>
        <time>2022-03-19T16:36:43Z</time>
      </trkpt>
      <trkpt lat="46.55703" lon="5.49078">
        <ele>504.6</ele>
        <time>2022-03-19T16:36:44Z</time>
      </trkpt>
      <trkpt lat="46.5571" lon="5.49068">
        <ele>504</ele>
        <time>2022-03-19T16:36:45Z</time>
      </trkpt>
      <trkpt lat="46.55727" lon="5.49053">
        <ele>502.2</ele>
        <time>2022-03-19T16:36:47Z</time>
      </trkpt>
      <trkpt lat="46.55742" lon="5.49038">
        <ele>501.4</ele>
        <time>2022-03-19T16:36:49Z</time>
      </trkpt>
      <trkpt lat="46.55758" lon="5.49021">
        <ele>500.2</ele>
        <time>2022-03-19T16:36:51Z</time>
      </trkpt>
      <trkpt lat="46.55762" lon="5.49014">
        <ele>499.4</ele>
        <time>2022-03-19T16:36:52Z</time>
      </trkpt>
      <trkpt lat="46.55767" lon="5.49004">
        <ele>499</ele>
        <time>2022-03-19T16:36:53Z</time>
      </trkpt>
      <trkpt lat="46.55776" lon="5.48982">
        <ele>498.6</ele>
        <time>2022-03-19T16:36:55Z</time>
      </trkpt>
      <trkpt lat="46.55779" lon="5.4897">
        <ele>498</ele>
        <time>2022-03-19T16:36:56Z</time>
      </trkpt>
      <trkpt lat="46.55788" lon="5.48931">
        <ele>496.4</ele>
        <time>2022-03-19T16:36:59Z</time>
      </trkpt>
      <trkpt lat="46.5579" lon="5.48914">
        <ele>496.2</ele>
        <time>2022-03-19T16:37:00Z</time>
      </trkpt>
      <trkpt lat="46.5579" lon="5.489">
        <ele>495.4</ele>
        <time>2022-03-19T16:37:01Z</time>
      </trkpt>
      <trkpt lat="46.55788" lon="5.48858">
        <ele>494.2</ele>
        <time>2022-03-19T16:37:04Z</time>
      </trkpt>
      <trkpt lat="46.55784" lon="5.48811">
        <ele>492.6</ele>
        <time>2022-03-19T16:37:07Z</time>
      </trkpt>
      <trkpt lat="46.55782" lon="5.48782">
        <ele>491</ele>
        <time>2022-03-19T16:37:09Z</time>
      </trkpt>
      <trkpt lat="46.55781" lon="5.48766">
        <ele>490.4</ele>
        <time>2022-03-19T16:37:10Z</time>
      </trkpt>
      <trkpt lat="46.55781" lon="5.48754">
        <ele>490</ele>
        <time>2022-03-19T16:37:11Z</time>
      </trkpt>
      <trkpt lat="46.55777" lon="5.4872">
        <ele>488.8</ele>
        <time>2022-03-19T16:37:14Z</time>
      </trkpt>
      <trkpt lat="46.55774" lon="5.48707">
        <ele>488.8</ele>
        <time>2022-03-19T16:37:15Z</time>
      </trkpt>
      <trkpt lat="46.55764" lon="5.48676">
        <ele>488.8</ele>
        <time>2022-03-19T16:37:19Z</time>
      </trkpt>
      <trkpt lat="46.55741" lon="5.48638">
        <ele>489</ele>
        <time>2022-03-19T16:37:24Z</time>
      </trkpt>
      <trkpt lat="46.55702" lon="5.4858">
        <ele>487.6</ele>
        <time>2022-03-19T16:37:31Z</time>
      </trkpt>
      <trkpt lat="46.55688" lon="5.48543">
        <ele>486.6</ele>
        <time>2022-03-19T16:37:35Z</time>
      </trkpt>
      <trkpt lat="46.55684" lon="5.48522">
        <ele>486</ele>
        <time>2022-03-19T16:37:37Z</time>
      </trkpt>
      <trkpt lat="46.55682" lon="5.48494">
        <ele>485.4</ele>
        <time>2022-03-19T16:37:40Z</time>
      </trkpt>
      <trkpt lat="46.55681" lon="5.48437">
        <ele>484.4</ele>
        <time>2022-03-19T16:37:46Z</time>
      </trkpt>
      <trkpt lat="46.55686" lon="5.48418">
        <ele>484.2</ele>
        <time>2022-03-19T16:37:48Z</time>
      </trkpt>
      <trkpt lat="46.55693" lon="5.48402">
        <ele>484</ele>
        <time>2022-03-19T16:37:50Z</time>
      </trkpt>
      <trkpt lat="46.55702" lon="5.48386">
        <ele>483.2</ele>
        <time>2022-03-19T16:37:52Z</time>
      </trkpt>
      <trkpt lat="46.55717" lon="5.48348">
        <ele>482</ele>
        <time>2022-03-19T16:37:56Z</time>
      </trkpt>
      <trkpt lat="46.55721" lon="5.48336">
        <ele>481.8</ele>
        <time>2022-03-19T16:37:57Z</time>
      </trkpt>
      <trkpt lat="46.55724" lon="5.48306">
        <ele>481.2</ele>
        <time>2022-03-19T16:38:00Z</time>
      </trkpt>
      <trkpt lat="46.55723" lon="5.48295">
        <ele>480.6</ele>
        <time>2022-03-19T16:38:01Z</time>
      </trkpt>
      <trkpt lat="46.55722" lon="5.48266">
        <ele>479.8</ele>
        <time>2022-03-19T16:38:04Z</time>
      </trkpt>
      <trkpt lat="46.55724" lon="5.48257">
        <ele>479.6</ele>
        <time>2022-03-19T16:38:05Z</time>
      </trkpt>
      <trkpt lat="46.55728" lon="5.48252">
        <ele>479.4</ele>
        <time>2022-03-19T16:38:06Z</time>
      </trkpt>
      <trkpt lat="46.55738" lon="5.48247">
        <ele>479.2</ele>
        <time>2022-03-19T16:38:08Z</time>
      </trkpt>
      <trkpt lat="46.5575" lon="5.48253">
        <ele>479</ele>
        <time>2022-03-19T16:38:10Z</time>
      </trkpt>
      <trkpt lat="46.55773" lon="5.48269">
        <ele>478.4</ele>
        <time>2022-03-19T16:38:13Z</time>
      </trkpt>
      <trkpt lat="46.55801" lon="5.48281">
        <ele>477</ele>
        <time>2022-03-19T16:38:16Z</time>
      </trkpt>
      <trkpt lat="46.55818" lon="5.48287">
        <ele>476</ele>
        <time>2022-03-19T16:38:18Z</time>
      </trkpt>
      <trkpt lat="46.55829" lon="5.48291">
        <ele>475.6</ele>
        <time>2022-03-19T16:38:19Z</time>
      </trkpt>
      <trkpt lat="46.55847" lon="5.48296">
        <ele>474</ele>
        <time>2022-03-19T16:38:21Z</time>
      </trkpt>
      <trkpt lat="46.55866" lon="5.48297">
        <ele>472.6</ele>
        <time>2022-03-19T16:38:23Z</time>
      </trkpt>
      <trkpt lat="46.55887" lon="5.48287">
        <ele>471</ele>
        <time>2022-03-19T16:38:25Z</time>
      </trkpt>
      <trkpt lat="46.55896" lon="5.48278">
        <ele>470.6</ele>
        <time>2022-03-19T16:38:26Z</time>
      </trkpt>
      <trkpt lat="46.55902" lon="5.48271">
        <ele>469.4</ele>
        <time>2022-03-19T16:38:27Z</time>
      </trkpt>
      <trkpt lat="46.5591" lon="5.48261">
        <ele>468</ele>
        <time>2022-03-19T16:38:28Z</time>
      </trkpt>
      <trkpt lat="46.5593" lon="5.48235">
        <ele>467</ele>
        <time>2022-03-19T16:38:31Z</time>
      </trkpt>
      <trkpt lat="46.55936" lon="5.48225">
        <ele>466.8</ele>
        <time>2022-03-19T16:38:32Z</time>
      </trkpt>
      <trkpt lat="46.55943" lon="5.48216">
        <ele>466.8</ele>
        <time>2022-03-19T16:38:33Z</time>
      </trkpt>
      <trkpt lat="46.55955" lon="5.48209">
        <ele>466.8</ele>
        <time>2022-03-19T16:38:35Z</time>
      </trkpt>
      <trkpt lat="46.55969" lon="5.48211">
        <ele>467.2</ele>
        <time>2022-03-19T16:38:37Z</time>
      </trkpt>
      <trkpt lat="46.55975" lon="5.48213">
        <ele>467.4</ele>
        <time>2022-03-19T16:38:38Z</time>
      </trkpt>
      <trkpt lat="46.55981" lon="5.48214">
        <ele>467.4</ele>
        <time>2022-03-19T16:38:39Z</time>
      </trkpt>
      <trkpt lat="46.55993" lon="5.48209">
        <ele>467.6</ele>
        <time>2022-03-19T16:38:41Z</time>
      </trkpt>
      <trkpt lat="46.56002" lon="5.48196">
        <ele>467.8</ele>
        <time>2022-03-19T16:38:43Z</time>
      </trkpt>
      <trkpt lat="46.56005" lon="5.48186">
        <ele>468</ele>
        <time>2022-03-19T16:38:44Z</time>
      </trkpt>
      <trkpt lat="46.56014" lon="5.48151">
        <ele>468.8</ele>
        <time>2022-03-19T16:38:49Z</time>
      </trkpt>
      <trkpt lat="46.56016" lon="5.48138">
        <ele>469</ele>
        <time>2022-03-19T16:38:51Z</time>
      </trkpt>
      <trkpt lat="46.56017" lon="5.4812">
        <ele>469.8</ele>
        <time>2022-03-19T16:38:54Z</time>
      </trkpt>
      <trkpt lat="46.56016" lon="5.48114">
        <ele>470</ele>
        <time>2022-03-19T16:38:55Z</time>
      </trkpt>
      <trkpt lat="46.56011" lon="5.48105">
        <ele>470.2</ele>
        <time>2022-03-19T16:38:57Z</time>
      </trkpt>
      <trkpt lat="46.56008" lon="5.48099">
        <ele>471</ele>
        <time>2022-03-19T16:38:59Z</time>
      </trkpt>
      <trkpt lat="46.56007" lon="5.48098">
        <ele>471.6</ele>
        <time>2022-03-19T16:39:00Z</time>
      </trkpt>
      <trkpt lat="46.56" lon="5.48091">
        <ele>472.6</ele>
        <time>2022-03-19T16:39:04Z</time>
      </trkpt>
      <trkpt lat="46.55998" lon="5.4809">
        <ele>472.8</ele>
        <time>2022-03-19T16:39:05Z</time>
      </trkpt>
      <trkpt lat="46.55994" lon="5.48087">
        <ele>473.8</ele>
        <time>2022-03-19T16:39:07Z</time>
      </trkpt>
      <trkpt lat="46.55989" lon="5.48083">
        <ele>474.8</ele>
        <time>2022-03-19T16:39:09Z</time>
      </trkpt>
      <trkpt lat="46.55987" lon="5.4808">
        <ele>475.2</ele>
        <time>2022-03-19T16:39:10Z</time>
      </trkpt>
      <trkpt lat="46.55984" lon="5.48076">
        <ele>476</ele>
        <time>2022-03-19T16:39:12Z</time>
      </trkpt>
      <trkpt lat="46.55978" lon="5.4807">
        <ele>477</ele>
        <time>2022-03-19T16:39:15Z</time>
      </trkpt>
      <trkpt lat="46.55975" lon="5.48066">
        <ele>477.6</ele>
        <time>2022-03-19T16:39:17Z</time>
      </trkpt>
      <trkpt lat="46.55973" lon="5.48063">
        <ele>478</ele>
        <time>2022-03-19T16:39:18Z</time>
      </trkpt>
      <trkpt lat="46.55967" lon="5.48054">
        <ele>479.4</ele>
        <time>2022-03-19T16:39:22Z</time>
      </trkpt>
      <trkpt lat="46.55965" lon="5.48052">
        <ele>480</ele>
        <time>2022-03-19T16:39:23Z</time>
      </trkpt>
      <trkpt lat="46.5596" lon="5.48045">
        <ele>480.4</ele>
        <time>2022-03-19T16:39:25Z</time>
      </trkpt>
      <trkpt lat="46.55952" lon="5.48033">
        <ele>481.8</ele>
        <time>2022-03-19T16:39:29Z</time>
      </trkpt>
      <trkpt lat="46.55946" lon="5.48025">
        <ele>483</ele>
        <time>2022-03-19T16:39:32Z</time>
      </trkpt>
      <trkpt lat="46.55942" lon="5.4802">
        <ele>483.4</ele>
        <time>2022-03-19T16:39:34Z</time>
      </trkpt>
      <trkpt lat="46.55934" lon="5.4801">
        <ele>484.4</ele>
        <time>2022-03-19T16:39:38Z</time>
      </trkpt>
      <trkpt lat="46.55928" lon="5.48006">
        <ele>485</ele>
        <time>2022-03-19T16:39:41Z</time>
      </trkpt>
      <trkpt lat="46.55921" lon="5.48001">
        <ele>485.4</ele>
        <time>2022-03-19T16:39:44Z</time>
      </trkpt>
      <trkpt lat="46.55912" lon="5.47992">
        <ele>486.4</ele>
        <time>2022-03-19T16:39:49Z</time>
      </trkpt>
      <trkpt lat="46.5591" lon="5.4798">
        <ele>487</ele>
        <time>2022-03-19T16:39:54Z</time>
      </trkpt>
      <trkpt lat="46.55911" lon="5.47977">
        <ele>487.4</ele>
        <time>2022-03-19T16:39:56Z</time>
      </trkpt>
      <trkpt lat="46.55914" lon="5.47977">
        <ele>488</ele>
        <time>2022-03-19T16:39:58Z</time>
      </trkpt>
      <trkpt lat="46.55917" lon="5.47979">
        <ele>488.6</ele>
        <time>2022-03-19T16:40:00Z</time>
      </trkpt>
      <trkpt lat="46.55922" lon="5.47983">
        <ele>489.4</ele>
        <time>2022-03-19T16:40:03Z</time>
      </trkpt>
      <trkpt lat="46.55924" lon="5.47984">
        <ele>489.8</ele>
        <time>2022-03-19T16:40:04Z</time>
      </trkpt>
      <trkpt lat="46.55935" lon="5.47992">
        <ele>491</ele>
        <time>2022-03-19T16:40:10Z</time>
      </trkpt>
      <trkpt lat="46.55936" lon="5.47993">
        <ele>491.4</ele>
        <time>2022-03-19T16:40:11Z</time>
      </trkpt>
      <trkpt lat="46.55939" lon="5.47996">
        <ele>492.2</ele>
        <time>2022-03-19T16:40:14Z</time>
      </trkpt>
      <trkpt lat="46.55941" lon="5.47997">
        <ele>492.4</ele>
        <time>2022-03-19T16:40:15Z</time>
      </trkpt>
      <trkpt lat="46.5595" lon="5.47998">
        <ele>493.2</ele>
        <time>2022-03-19T16:40:19Z</time>
      </trkpt>
      <trkpt lat="46.55952" lon="5.47997">
        <ele>493.4</ele>
        <time>2022-03-19T16:40:20Z</time>
      </trkpt>
      <trkpt lat="46.55953" lon="5.47994">
        <ele>493.6</ele>
        <time>2022-03-19T16:40:21Z</time>
      </trkpt>
      <trkpt lat="46.55955" lon="5.47989">
        <ele>494.2</ele>
        <time>2022-03-19T16:40:23Z</time>
      </trkpt>
      <trkpt lat="46.55955" lon="5.47986">
        <ele>494.4</ele>
        <time>2022-03-19T16:40:24Z</time>
      </trkpt>
      <trkpt lat="46.55954" lon="5.47981">
        <ele>495.2</ele>
        <time>2022-03-19T16:40:26Z</time>
      </trkpt>
      <trkpt lat="46.55953" lon="5.47978">
        <ele>495.6</ele>
        <time>2022-03-19T16:40:27Z</time>
      </trkpt>
      <trkpt lat="46.55949" lon="5.47969">
        <ele>496.6</ele>
        <time>2022-03-19T16:40:32Z</time>
      </trkpt>
      <trkpt lat="46.55948" lon="5.47967">
        <ele>497.2</ele>
        <time>2022-03-19T16:40:33Z</time>
      </trkpt>
      <trkpt lat="46.55946" lon="5.47961">
        <ele>498</ele>
        <time>2022-03-19T16:40:36Z</time>
      </trkpt>
      <trkpt lat="46.55943" lon="5.47953">
        <ele>499.2</ele>
        <time>2022-03-19T16:40:40Z</time>
      </trkpt>
      <trkpt lat="46.55938" lon="5.47941">
        <ele>500.6</ele>
        <time>2022-03-19T16:40:45Z</time>
      </trkpt>
      <trkpt lat="46.55936" lon="5.47937">
        <ele>501</ele>
        <time>2022-03-19T16:40:47Z</time>
      </trkpt>
      <trkpt lat="46.55934" lon="5.47932">
        <ele>501.6</ele>
        <time>2022-03-19T16:40:49Z</time>
      </trkpt>
      <trkpt lat="46.5593" lon="5.47925">
        <ele>502.4</ele>
        <time>2022-03-19T16:40:52Z</time>
      </trkpt>
      <trkpt lat="46.55928" lon="5.47919">
        <ele>503</ele>
        <time>2022-03-19T16:40:54Z</time>
      </trkpt>
      <trkpt lat="46.55924" lon="5.47909">
        <ele>504</ele>
        <time>2022-03-19T16:40:58Z</time>
      </trkpt>
      <trkpt lat="46.55923" lon="5.47906">
        <ele>504.4</ele>
        <time>2022-03-19T16:40:59Z</time>
      </trkpt>
      <trkpt lat="46.5592" lon="5.47901">
        <ele>505.2</ele>
        <time>2022-03-19T16:41:01Z</time>
      </trkpt>
      <trkpt lat="46.55915" lon="5.4789">
        <ele>506</ele>
        <time>2022-03-19T16:41:05Z</time>
      </trkpt>
      <trkpt lat="46.55913" lon="5.47885">
        <ele>506.4</ele>
        <time>2022-03-19T16:41:07Z</time>
      </trkpt>
      <trkpt lat="46.55907" lon="5.47878">
        <ele>507.4</ele>
        <time>2022-03-19T16:41:10Z</time>
      </trkpt>
      <trkpt lat="46.55906" lon="5.47876">
        <ele>507.6</ele>
        <time>2022-03-19T16:41:11Z</time>
      </trkpt>
      <trkpt lat="46.559" lon="5.47869">
        <ele>508.4</ele>
        <time>2022-03-19T16:41:15Z</time>
      </trkpt>
      <trkpt lat="46.55894" lon="5.47862">
        <ele>509.4</ele>
        <time>2022-03-19T16:41:19Z</time>
      </trkpt>
      <trkpt lat="46.55892" lon="5.47861">
        <ele>509.4</ele>
        <time>2022-03-19T16:41:20Z</time>
      </trkpt>
      <trkpt lat="46.55885" lon="5.47856">
        <ele>510.6</ele>
        <time>2022-03-19T16:41:24Z</time>
      </trkpt>
      <trkpt lat="46.55881" lon="5.47852">
        <ele>511.2</ele>
        <time>2022-03-19T16:41:26Z</time>
      </trkpt>
      <trkpt lat="46.55876" lon="5.47849">
        <ele>511.8</ele>
        <time>2022-03-19T16:41:28Z</time>
      </trkpt>
      <trkpt lat="46.55868" lon="5.47843">
        <ele>512.8</ele>
        <time>2022-03-19T16:41:32Z</time>
      </trkpt>
      <trkpt lat="46.55866" lon="5.47841">
        <ele>513.2</ele>
        <time>2022-03-19T16:41:33Z</time>
      </trkpt>
      <trkpt lat="46.55862" lon="5.47838">
        <ele>514</ele>
        <time>2022-03-19T16:41:35Z</time>
      </trkpt>
      <trkpt lat="46.55856" lon="5.4783">
        <ele>515</ele>
        <time>2022-03-19T16:41:39Z</time>
      </trkpt>
      <trkpt lat="46.55852" lon="5.47825">
        <ele>516.2</ele>
        <time>2022-03-19T16:41:42Z</time>
      </trkpt>
      <trkpt lat="46.55845" lon="5.47813">
        <ele>517.4</ele>
        <time>2022-03-19T16:41:48Z</time>
      </trkpt>
      <trkpt lat="46.55844" lon="5.47811">
        <ele>517.6</ele>
        <time>2022-03-19T16:41:49Z</time>
      </trkpt>
      <trkpt lat="46.55842" lon="5.47805">
        <ele>518.4</ele>
        <time>2022-03-19T16:41:52Z</time>
      </trkpt>
      <trkpt lat="46.5584" lon="5.47795">
        <ele>519.6</ele>
        <time>2022-03-19T16:41:56Z</time>
      </trkpt>
      <trkpt lat="46.55839" lon="5.47791">
        <ele>520.6</ele>
        <time>2022-03-19T16:41:58Z</time>
      </trkpt>
      <trkpt lat="46.55838" lon="5.47785">
        <ele>521.6</ele>
        <time>2022-03-19T16:42:01Z</time>
      </trkpt>
      <trkpt lat="46.55838" lon="5.47783">
        <ele>522</ele>
        <time>2022-03-19T16:42:02Z</time>
      </trkpt>
      <trkpt lat="46.55838" lon="5.47781">
        <ele>522.2</ele>
        <time>2022-03-19T16:42:03Z</time>
      </trkpt>
      <trkpt lat="46.55837" lon="5.47776">
        <ele>522.8</ele>
        <time>2022-03-19T16:42:05Z</time>
      </trkpt>
      <trkpt lat="46.55836" lon="5.4777">
        <ele>523.2</ele>
        <time>2022-03-19T16:42:07Z</time>
      </trkpt>
      <trkpt lat="46.55834" lon="5.47763">
        <ele>523.4</ele>
        <time>2022-03-19T16:42:09Z</time>
      </trkpt>
      <trkpt lat="46.55832" lon="5.47753">
        <ele>524.2</ele>
        <time>2022-03-19T16:42:11Z</time>
      </trkpt>
      <trkpt lat="46.55832" lon="5.47746">
        <ele>524.6</ele>
        <time>2022-03-19T16:42:13Z</time>
      </trkpt>
      <trkpt lat="46.55832" lon="5.47738">
        <ele>525.2</ele>
        <time>2022-03-19T16:42:15Z</time>
      </trkpt>
      <trkpt lat="46.55835" lon="5.47733">
        <ele>525.8</ele>
        <time>2022-03-19T16:42:17Z</time>
      </trkpt>
      <trkpt lat="46.55837" lon="5.47731">
        <ele>526.2</ele>
        <time>2022-03-19T16:42:18Z</time>
      </trkpt>
      <trkpt lat="46.55839" lon="5.4773">
        <ele>526.2</ele>
        <time>2022-03-19T16:42:19Z</time>
      </trkpt>
      <trkpt lat="46.55842" lon="5.4773">
        <ele>526.6</ele>
        <time>2022-03-19T16:42:20Z</time>
      </trkpt>
      <trkpt lat="46.55846" lon="5.47733">
        <ele>527.2</ele>
        <time>2022-03-19T16:42:22Z</time>
      </trkpt>
      <trkpt lat="46.55848" lon="5.47735">
        <ele>527.4</ele>
        <time>2022-03-19T16:42:23Z</time>
      </trkpt>
      <trkpt lat="46.55855" lon="5.47741">
        <ele>528.6</ele>
        <time>2022-03-19T16:42:27Z</time>
      </trkpt>
      <trkpt lat="46.55863" lon="5.47747">
        <ele>529.8</ele>
        <time>2022-03-19T16:42:31Z</time>
      </trkpt>
      <trkpt lat="46.55865" lon="5.47748">
        <ele>530.2</ele>
        <time>2022-03-19T16:42:32Z</time>
      </trkpt>
      <trkpt lat="46.55871" lon="5.4775">
        <ele>530.8</ele>
        <time>2022-03-19T16:42:35Z</time>
      </trkpt>
      <trkpt lat="46.55877" lon="5.47754">
        <ele>531.8</ele>
        <time>2022-03-19T16:42:38Z</time>
      </trkpt>
      <trkpt lat="46.55885" lon="5.47756">
        <ele>532.8</ele>
        <time>2022-03-19T16:42:42Z</time>
      </trkpt>
      <trkpt lat="46.55893" lon="5.47759">
        <ele>534</ele>
        <time>2022-03-19T16:42:46Z</time>
      </trkpt>
      <trkpt lat="46.55902" lon="5.47761">
        <ele>535.2</ele>
        <time>2022-03-19T16:42:50Z</time>
      </trkpt>
      <trkpt lat="46.55906" lon="5.47762">
        <ele>535.8</ele>
        <time>2022-03-19T16:42:52Z</time>
      </trkpt>
      <trkpt lat="46.5591" lon="5.47762">
        <ele>536.4</ele>
        <time>2022-03-19T16:42:54Z</time>
      </trkpt>
      <trkpt lat="46.5592" lon="5.47759">
        <ele>537.6</ele>
        <time>2022-03-19T16:42:59Z</time>
      </trkpt>
      <trkpt lat="46.55922" lon="5.47757">
        <ele>538</ele>
        <time>2022-03-19T16:43:00Z</time>
      </trkpt>
      <trkpt lat="46.55925" lon="5.4775">
        <ele>538.6</ele>
        <time>2022-03-19T16:43:03Z</time>
      </trkpt>
      <trkpt lat="46.55925" lon="5.47747">
        <ele>538.8</ele>
        <time>2022-03-19T16:43:04Z</time>
      </trkpt>
      <trkpt lat="46.55925" lon="5.47744">
        <ele>539</ele>
        <time>2022-03-19T16:43:05Z</time>
      </trkpt>
      <trkpt lat="46.55926" lon="5.47734">
        <ele>540</ele>
        <time>2022-03-19T16:43:08Z</time>
      </trkpt>
      <trkpt lat="46.55927" lon="5.47726">
        <ele>541</ele>
        <time>2022-03-19T16:43:11Z</time>
      </trkpt>
      <trkpt lat="46.55928" lon="5.47721">
        <ele>541.6</ele>
        <time>2022-03-19T16:43:13Z</time>
      </trkpt>
      <trkpt lat="46.55933" lon="5.47707">
        <ele>543</ele>
        <time>2022-03-19T16:43:18Z</time>
      </trkpt>
      <trkpt lat="46.55934" lon="5.477">
        <ele>543.2</ele>
        <time>2022-03-19T16:43:20Z</time>
      </trkpt>
      <trkpt lat="46.55938" lon="5.47687">
        <ele>544.4</ele>
        <time>2022-03-19T16:43:24Z</time>
      </trkpt>
      <trkpt lat="46.5594" lon="5.47679">
        <ele>544.8</ele>
        <time>2022-03-19T16:43:26Z</time>
      </trkpt>
      <trkpt lat="46.55941" lon="5.47676">
        <ele>545</ele>
        <time>2022-03-19T16:43:27Z</time>
      </trkpt>
      <trkpt lat="46.55943" lon="5.47668">
        <ele>545.6</ele>
        <time>2022-03-19T16:43:29Z</time>
      </trkpt>
      <trkpt lat="46.55946" lon="5.47649">
        <ele>546.8</ele>
        <time>2022-03-19T16:43:34Z</time>
      </trkpt>
      <trkpt lat="46.55947" lon="5.47642">
        <ele>547.4</ele>
        <time>2022-03-19T16:43:36Z</time>
      </trkpt>
      <trkpt lat="46.55949" lon="5.47635">
        <ele>548</ele>
        <time>2022-03-19T16:43:38Z</time>
      </trkpt>
      <trkpt lat="46.55956" lon="5.47622">
        <ele>549.4</ele>
        <time>2022-03-19T16:43:43Z</time>
      </trkpt>
      <trkpt lat="46.55958" lon="5.47621">
        <ele>549.4</ele>
        <time>2022-03-19T16:43:44Z</time>
      </trkpt>
      <trkpt lat="46.55964" lon="5.47616">
        <ele>550.4</ele>
        <time>2022-03-19T16:43:47Z</time>
      </trkpt>
      <trkpt lat="46.5597" lon="5.47611">
        <ele>551.8</ele>
        <time>2022-03-19T16:43:50Z</time>
      </trkpt>
      <trkpt lat="46.55972" lon="5.4761">
        <ele>552</ele>
        <time>2022-03-19T16:43:51Z</time>
      </trkpt>
      <trkpt lat="46.55978" lon="5.47606">
        <ele>553.2</ele>
        <time>2022-03-19T16:43:54Z</time>
      </trkpt>
      <trkpt lat="46.55987" lon="5.47602">
        <ele>554.4</ele>
        <time>2022-03-19T16:43:58Z</time>
      </trkpt>
      <trkpt lat="46.55993" lon="5.47599">
        <ele>555.2</ele>
        <time>2022-03-19T16:44:01Z</time>
      </trkpt>
      <trkpt lat="46.55997" lon="5.47599">
        <ele>555.6</ele>
        <time>2022-03-19T16:44:03Z</time>
      </trkpt>
      <trkpt lat="46.56003" lon="5.47599">
        <ele>556.8</ele>
        <time>2022-03-19T16:44:06Z</time>
      </trkpt>
      <trkpt lat="46.56006" lon="5.476">
        <ele>557.4</ele>
        <time>2022-03-19T16:44:08Z</time>
      </trkpt>
      <trkpt lat="46.56011" lon="5.47603">
        <ele>558.2</ele>
        <time>2022-03-19T16:44:10Z</time>
      </trkpt>
      <trkpt lat="46.56017" lon="5.47607">
        <ele>559.4</ele>
        <time>2022-03-19T16:44:13Z</time>
      </trkpt>
      <trkpt lat="46.5602" lon="5.47612">
        <ele>559.8</ele>
        <time>2022-03-19T16:44:15Z</time>
      </trkpt>
      <trkpt lat="46.56024" lon="5.47616">
        <ele>560.6</ele>
        <time>2022-03-19T16:44:17Z</time>
      </trkpt>
      <trkpt lat="46.56032" lon="5.47621">
        <ele>561.4</ele>
        <time>2022-03-19T16:44:21Z</time>
      </trkpt>
      <trkpt lat="46.56034" lon="5.4762">
        <ele>562</ele>
        <time>2022-03-19T16:44:22Z</time>
      </trkpt>
      <trkpt lat="46.56041" lon="5.47619">
        <ele>563.2</ele>
        <time>2022-03-19T16:44:26Z</time>
      </trkpt>
      <trkpt lat="46.56045" lon="5.47617">
        <ele>563.4</ele>
        <time>2022-03-19T16:44:28Z</time>
      </trkpt>
      <trkpt lat="46.56053" lon="5.47615">
        <ele>564.4</ele>
        <time>2022-03-19T16:44:33Z</time>
      </trkpt>
      <trkpt lat="46.56062" lon="5.47613">
        <ele>565.2</ele>
        <time>2022-03-19T16:44:37Z</time>
      </trkpt>
      <trkpt lat="46.56065" lon="5.47613">
        <ele>565.8</ele>
        <time>2022-03-19T16:44:38Z</time>
      </trkpt>
      <trkpt lat="46.56076" lon="5.47611">
        <ele>566.8</ele>
        <time>2022-03-19T16:44:43Z</time>
      </trkpt>
      <trkpt lat="46.56086" lon="5.47609">
        <ele>567.8</ele>
        <time>2022-03-19T16:44:47Z</time>
      </trkpt>
      <trkpt lat="46.5609" lon="5.47609">
        <ele>568</ele>
        <time>2022-03-19T16:44:49Z</time>
      </trkpt>
      <trkpt lat="46.56102" lon="5.47606">
        <ele>569.2</ele>
        <time>2022-03-19T16:44:54Z</time>
      </trkpt>
      <trkpt lat="46.5611" lon="5.47603">
        <ele>569.4</ele>
        <time>2022-03-19T16:44:57Z</time>
      </trkpt>
      <trkpt lat="46.5612" lon="5.47598">
        <ele>570</ele>
        <time>2022-03-19T16:45:00Z</time>
      </trkpt>
      <trkpt lat="46.56125" lon="5.47592">
        <ele>570.6</ele>
        <time>2022-03-19T16:45:02Z</time>
      </trkpt>
      <trkpt lat="46.56134" lon="5.47572">
        <ele>571.2</ele>
        <time>2022-03-19T16:45:07Z</time>
      </trkpt>
      <trkpt lat="46.56136" lon="5.47568">
        <ele>571.2</ele>
        <time>2022-03-19T16:45:08Z</time>
      </trkpt>
      <trkpt lat="46.56139" lon="5.4755">
        <ele>572.2</ele>
        <time>2022-03-19T16:45:12Z</time>
      </trkpt>
      <trkpt lat="46.5614" lon="5.47535">
        <ele>572.6</ele>
        <time>2022-03-19T16:45:15Z</time>
      </trkpt>
      <trkpt lat="46.5614" lon="5.47522">
        <ele>573.2</ele>
        <time>2022-03-19T16:45:18Z</time>
      </trkpt>
      <trkpt lat="46.5614" lon="5.47505">
        <ele>574.4</ele>
        <time>2022-03-19T16:45:22Z</time>
      </trkpt>
      <trkpt lat="46.56139" lon="5.47496">
        <ele>575</ele>
        <time>2022-03-19T16:45:24Z</time>
      </trkpt>
      <trkpt lat="46.56138" lon="5.47488">
        <ele>575.6</ele>
        <time>2022-03-19T16:45:26Z</time>
      </trkpt>
      <trkpt lat="46.56132" lon="5.47457">
        <ele>576.8</ele>
        <time>2022-03-19T16:45:33Z</time>
      </trkpt>
      <trkpt lat="46.56126" lon="5.47435">
        <ele>577.8</ele>
        <time>2022-03-19T16:45:38Z</time>
      </trkpt>
      <trkpt lat="46.56122" lon="5.4742">
        <ele>577.8</ele>
        <time>2022-03-19T16:45:41Z</time>
      </trkpt>
      <trkpt lat="46.56122" lon="5.47402">
        <ele>577.8</ele>
        <time>2022-03-19T16:45:43Z</time>
      </trkpt>
      <trkpt lat="46.56124" lon="5.47394">
        <ele>577.8</ele>
        <time>2022-03-19T16:45:44Z</time>
      </trkpt>
      <trkpt lat="46.5613" lon="5.47379">
        <ele>577.8</ele>
        <time>2022-03-19T16:45:46Z</time>
      </trkpt>
      <trkpt lat="46.56143" lon="5.47366">
        <ele>576.6</ele>
        <time>2022-03-19T16:45:48Z</time>
      </trkpt>
      <trkpt lat="46.56159" lon="5.47363">
        <ele>575.4</ele>
        <time>2022-03-19T16:45:50Z</time>
      </trkpt>
      <trkpt lat="46.56168" lon="5.47364">
        <ele>575</ele>
        <time>2022-03-19T16:45:51Z</time>
      </trkpt>
      <trkpt lat="46.56176" lon="5.47365">
        <ele>574</ele>
        <time>2022-03-19T16:45:52Z</time>
      </trkpt>
      <trkpt lat="46.56184" lon="5.47366">
        <ele>572.8</ele>
        <time>2022-03-19T16:45:53Z</time>
      </trkpt>
      <trkpt lat="46.56198" lon="5.47367">
        <ele>570.8</ele>
        <time>2022-03-19T16:45:55Z</time>
      </trkpt>
      <trkpt lat="46.56214" lon="5.47366">
        <ele>568.8</ele>
        <time>2022-03-19T16:45:57Z</time>
      </trkpt>
      <trkpt lat="46.56228" lon="5.47359">
        <ele>567</ele>
        <time>2022-03-19T16:45:59Z</time>
      </trkpt>
      <trkpt lat="46.56236" lon="5.47353">
        <ele>566.2</ele>
        <time>2022-03-19T16:46:00Z</time>
      </trkpt>
      <trkpt lat="46.56243" lon="5.47348">
        <ele>565.6</ele>
        <time>2022-03-19T16:46:01Z</time>
      </trkpt>
      <trkpt lat="46.56256" lon="5.47337">
        <ele>564</ele>
        <time>2022-03-19T16:46:03Z</time>
      </trkpt>
      <trkpt lat="46.5627" lon="5.47329">
        <ele>562.8</ele>
        <time>2022-03-19T16:46:05Z</time>
      </trkpt>
      <trkpt lat="46.56277" lon="5.47326">
        <ele>561.6</ele>
        <time>2022-03-19T16:46:06Z</time>
      </trkpt>
      <trkpt lat="46.56289" lon="5.47323">
        <ele>560.4</ele>
        <time>2022-03-19T16:46:08Z</time>
      </trkpt>
      <trkpt lat="46.56294" lon="5.47322">
        <ele>559.6</ele>
        <time>2022-03-19T16:46:09Z</time>
      </trkpt>
      <trkpt lat="46.56299" lon="5.47321">
        <ele>559</ele>
        <time>2022-03-19T16:46:10Z</time>
      </trkpt>
      <trkpt lat="46.56303" lon="5.47322">
        <ele>557.8</ele>
        <time>2022-03-19T16:46:11Z</time>
      </trkpt>
      <trkpt lat="46.56312" lon="5.47324">
        <ele>556.6</ele>
        <time>2022-03-19T16:46:13Z</time>
      </trkpt>
      <trkpt lat="46.5633" lon="5.47329">
        <ele>555.6</ele>
        <time>2022-03-19T16:46:18Z</time>
      </trkpt>
      <trkpt lat="46.56337" lon="5.47329">
        <ele>555.2</ele>
        <time>2022-03-19T16:46:20Z</time>
      </trkpt>
      <trkpt lat="46.56343" lon="5.47329">
        <ele>554.6</ele>
        <time>2022-03-19T16:46:22Z</time>
      </trkpt>
      <trkpt lat="46.56345" lon="5.47328">
        <ele>554.2</ele>
        <time>2022-03-19T16:46:23Z</time>
      </trkpt>
      <trkpt lat="46.56346" lon="5.47327">
        <ele>553.8</ele>
        <time>2022-03-19T16:46:24Z</time>
      </trkpt>
      <trkpt lat="46.56347" lon="5.47324">
        <ele>553.2</ele>
        <time>2022-03-19T16:46:25Z</time>
      </trkpt>
      <trkpt lat="46.56347" lon="5.47322">
        <ele>553</ele>
        <time>2022-03-19T16:46:26Z</time>
      </trkpt>
      <trkpt lat="46.56346" lon="5.4732">
        <ele>552.6</ele>
        <time>2022-03-19T16:46:28Z</time>
      </trkpt>
      <trkpt lat="46.56346" lon="5.4732">
        <ele>552.6</ele>
        <time>2022-03-19T16:46:30Z</time>
      </trkpt>
      <trkpt lat="46.56344" lon="5.47316">
        <ele>552.4</ele>
        <time>2022-03-19T16:48:53Z</time>
      </trkpt>
      <trkpt lat="46.56342" lon="5.47314">
        <ele>552.6</ele>
        <time>2022-03-19T16:48:54Z</time>
      </trkpt>
      <trkpt lat="46.56331" lon="5.47299">
        <ele>553.2</ele>
        <time>2022-03-19T16:49:00Z</time>
      </trkpt>
      <trkpt lat="46.56321" lon="5.47287">
        <ele>554.2</ele>
        <time>2022-03-19T16:49:05Z</time>
      </trkpt>
      <trkpt lat="46.56318" lon="5.47283">
        <ele>554.8</ele>
        <time>2022-03-19T16:49:07Z</time>
      </trkpt>
      <trkpt lat="46.56312" lon="5.47277">
        <ele>555.4</ele>
        <time>2022-03-19T16:49:10Z</time>
      </trkpt>
      <trkpt lat="46.56301" lon="5.47268">
        <ele>555.6</ele>
        <time>2022-03-19T16:49:15Z</time>
      </trkpt>
      <trkpt lat="46.5628" lon="5.47263">
        <ele>555.8</ele>
        <time>2022-03-19T16:49:22Z</time>
      </trkpt>
      <trkpt lat="46.56258" lon="5.47268">
        <ele>555.6</ele>
        <time>2022-03-19T16:49:27Z</time>
      </trkpt>
      <trkpt lat="46.5623" lon="5.47276">
        <ele>554</ele>
        <time>2022-03-19T16:49:32Z</time>
      </trkpt>
      <trkpt lat="46.56218" lon="5.47278">
        <ele>553.4</ele>
        <time>2022-03-19T16:49:34Z</time>
      </trkpt>
      <trkpt lat="46.56205" lon="5.47277">
        <ele>553</ele>
        <time>2022-03-19T16:49:36Z</time>
      </trkpt>
      <trkpt lat="46.56198" lon="5.47276">
        <ele>553</ele>
        <time>2022-03-19T16:49:37Z</time>
      </trkpt>
      <trkpt lat="46.56184" lon="5.47273">
        <ele>552.4</ele>
        <time>2022-03-19T16:49:39Z</time>
      </trkpt>
      <trkpt lat="46.56169" lon="5.47268">
        <ele>551.6</ele>
        <time>2022-03-19T16:49:41Z</time>
      </trkpt>
      <trkpt lat="46.56145" lon="5.47259">
        <ele>550.4</ele>
        <time>2022-03-19T16:49:44Z</time>
      </trkpt>
      <trkpt lat="46.5613" lon="5.47254">
        <ele>549</ele>
        <time>2022-03-19T16:49:46Z</time>
      </trkpt>
      <trkpt lat="46.5612" lon="5.4725">
        <ele>548.6</ele>
        <time>2022-03-19T16:49:47Z</time>
      </trkpt>
      <trkpt lat="46.56103" lon="5.47245">
        <ele>547.6</ele>
        <time>2022-03-19T16:49:49Z</time>
      </trkpt>
      <trkpt lat="46.56087" lon="5.47241">
        <ele>546.6</ele>
        <time>2022-03-19T16:49:51Z</time>
      </trkpt>
      <trkpt lat="46.56066" lon="5.47234">
        <ele>545.8</ele>
        <time>2022-03-19T16:49:53Z</time>
      </trkpt>
      <trkpt lat="46.56057" lon="5.4723">
        <ele>545</ele>
        <time>2022-03-19T16:49:54Z</time>
      </trkpt>
      <trkpt lat="46.56039" lon="5.47224">
        <ele>543.8</ele>
        <time>2022-03-19T16:49:56Z</time>
      </trkpt>
      <trkpt lat="46.56018" lon="5.47216">
        <ele>542.6</ele>
        <time>2022-03-19T16:49:58Z</time>
      </trkpt>
      <trkpt lat="46.56" lon="5.4721">
        <ele>542</ele>
        <time>2022-03-19T16:50:00Z</time>
      </trkpt>
      <trkpt lat="46.55987" lon="5.47206">
        <ele>541.2</ele>
        <time>2022-03-19T16:50:01Z</time>
      </trkpt>
      <trkpt lat="46.55966" lon="5.47201">
        <ele>540</ele>
        <time>2022-03-19T16:50:03Z</time>
      </trkpt>
      <trkpt lat="46.55946" lon="5.47198">
        <ele>539.4</ele>
        <time>2022-03-19T16:50:05Z</time>
      </trkpt>
      <trkpt lat="46.55934" lon="5.47197">
        <ele>538.2</ele>
        <time>2022-03-19T16:50:06Z</time>
      </trkpt>
      <trkpt lat="46.55923" lon="5.47194">
        <ele>537.8</ele>
        <time>2022-03-19T16:50:07Z</time>
      </trkpt>
      <trkpt lat="46.55912" lon="5.4719">
        <ele>537</ele>
        <time>2022-03-19T16:50:08Z</time>
      </trkpt>
      <trkpt lat="46.55903" lon="5.47185">
        <ele>536.4</ele>
        <time>2022-03-19T16:50:09Z</time>
      </trkpt>
      <trkpt lat="46.5589" lon="5.47178">
        <ele>535.6</ele>
        <time>2022-03-19T16:50:10Z</time>
      </trkpt>
      <trkpt lat="46.55867" lon="5.47166">
        <ele>534.4</ele>
        <time>2022-03-19T16:50:12Z</time>
      </trkpt>
      <trkpt lat="46.55847" lon="5.47155">
        <ele>532.6</ele>
        <time>2022-03-19T16:50:14Z</time>
      </trkpt>
      <trkpt lat="46.55833" lon="5.47148">
        <ele>531.6</ele>
        <time>2022-03-19T16:50:15Z</time>
      </trkpt>
      <trkpt lat="46.55821" lon="5.47144">
        <ele>531.4</ele>
        <time>2022-03-19T16:50:16Z</time>
      </trkpt>
      <trkpt lat="46.55798" lon="5.47137">
        <ele>529.2</ele>
        <time>2022-03-19T16:50:18Z</time>
      </trkpt>
      <trkpt lat="46.55773" lon="5.47129">
        <ele>527.8</ele>
        <time>2022-03-19T16:50:20Z</time>
      </trkpt>
      <trkpt lat="46.55753" lon="5.47119">
        <ele>527</ele>
        <time>2022-03-19T16:50:22Z</time>
      </trkpt>
      <trkpt lat="46.55742" lon="5.47111">
        <ele>526.6</ele>
        <time>2022-03-19T16:50:23Z</time>
      </trkpt>
      <trkpt lat="46.5572" lon="5.47094">
        <ele>525.4</ele>
        <time>2022-03-19T16:50:25Z</time>
      </trkpt>
      <trkpt lat="46.5571" lon="5.47085">
        <ele>524</ele>
        <time>2022-03-19T16:50:26Z</time>
      </trkpt>
      <trkpt lat="46.55689" lon="5.47066">
        <ele>523</ele>
        <time>2022-03-19T16:50:28Z</time>
      </trkpt>
      <trkpt lat="46.5568" lon="5.47054">
        <ele>522.2</ele>
        <time>2022-03-19T16:50:29Z</time>
      </trkpt>
      <trkpt lat="46.55672" lon="5.4704">
        <ele>521.8</ele>
        <time>2022-03-19T16:50:30Z</time>
      </trkpt>
      <trkpt lat="46.55659" lon="5.4701">
        <ele>520</ele>
        <time>2022-03-19T16:50:32Z</time>
      </trkpt>
      <trkpt lat="46.55654" lon="5.46994">
        <ele>518.4</ele>
        <time>2022-03-19T16:50:33Z</time>
      </trkpt>
      <trkpt lat="46.55642" lon="5.4696">
        <ele>517</ele>
        <time>2022-03-19T16:50:35Z</time>
      </trkpt>
      <trkpt lat="46.55629" lon="5.46932">
        <ele>515.8</ele>
        <time>2022-03-19T16:50:37Z</time>
      </trkpt>
      <trkpt lat="46.55617" lon="5.46914">
        <ele>514.8</ele>
        <time>2022-03-19T16:50:39Z</time>
      </trkpt>
      <trkpt lat="46.55607" lon="5.46905">
        <ele>514.2</ele>
        <time>2022-03-19T16:50:40Z</time>
      </trkpt>
      <trkpt lat="46.55597" lon="5.469">
        <ele>513.6</ele>
        <time>2022-03-19T16:50:41Z</time>
      </trkpt>
      <trkpt lat="46.55587" lon="5.46896">
        <ele>512.4</ele>
        <time>2022-03-19T16:50:42Z</time>
      </trkpt>
      <trkpt lat="46.55566" lon="5.46889">
        <ele>511.6</ele>
        <time>2022-03-19T16:50:44Z</time>
      </trkpt>
      <trkpt lat="46.55557" lon="5.46885">
        <ele>511.2</ele>
        <time>2022-03-19T16:50:45Z</time>
      </trkpt>
      <trkpt lat="46.55542" lon="5.46877">
        <ele>510</ele>
        <time>2022-03-19T16:50:47Z</time>
      </trkpt>
      <trkpt lat="46.5553" lon="5.46867">
        <ele>509</ele>
        <time>2022-03-19T16:50:49Z</time>
      </trkpt>
      <trkpt lat="46.55518" lon="5.46853">
        <ele>508.4</ele>
        <time>2022-03-19T16:50:51Z</time>
      </trkpt>
      <trkpt lat="46.55512" lon="5.46846">
        <ele>507.6</ele>
        <time>2022-03-19T16:50:52Z</time>
      </trkpt>
      <trkpt lat="46.55488" lon="5.46807">
        <ele>506.6</ele>
        <time>2022-03-19T16:50:57Z</time>
      </trkpt>
      <trkpt lat="46.55486" lon="5.46798">
        <ele>506.6</ele>
        <time>2022-03-19T16:50:58Z</time>
      </trkpt>
      <trkpt lat="46.55484" lon="5.46785">
        <ele>506.4</ele>
        <time>2022-03-19T16:50:59Z</time>
      </trkpt>
      <trkpt lat="46.55484" lon="5.46774">
        <ele>506.4</ele>
        <time>2022-03-19T16:51:00Z</time>
      </trkpt>
      <trkpt lat="46.55488" lon="5.46725">
        <ele>506.4</ele>
        <time>2022-03-19T16:51:05Z</time>
      </trkpt>
      <trkpt lat="46.55486" lon="5.46719">
        <ele>506.4</ele>
        <time>2022-03-19T16:51:06Z</time>
      </trkpt>
      <trkpt lat="46.55483" lon="5.46715">
        <ele>506.4</ele>
        <time>2022-03-19T16:51:07Z</time>
      </trkpt>
      <trkpt lat="46.55473" lon="5.46702">
        <ele>506.4</ele>
        <time>2022-03-19T16:51:09Z</time>
      </trkpt>
      <trkpt lat="46.55467" lon="5.46697">
        <ele>506.4</ele>
        <time>2022-03-19T16:51:10Z</time>
      </trkpt>
      <trkpt lat="46.55434" lon="5.46666">
        <ele>506</ele>
        <time>2022-03-19T16:51:15Z</time>
      </trkpt>
      <trkpt lat="46.55422" lon="5.46653">
        <ele>504.8</ele>
        <time>2022-03-19T16:51:17Z</time>
      </trkpt>
      <trkpt lat="46.55405" lon="5.46639">
        <ele>503.6</ele>
        <time>2022-03-19T16:51:19Z</time>
      </trkpt>
      <trkpt lat="46.55397" lon="5.46632">
        <ele>503.2</ele>
        <time>2022-03-19T16:51:20Z</time>
      </trkpt>
      <trkpt lat="46.55389" lon="5.46624">
        <ele>502.8</ele>
        <time>2022-03-19T16:51:21Z</time>
      </trkpt>
      <trkpt lat="46.55384" lon="5.46617">
        <ele>502.2</ele>
        <time>2022-03-19T16:51:22Z</time>
      </trkpt>
      <trkpt lat="46.55375" lon="5.46604">
        <ele>502.2</ele>
        <time>2022-03-19T16:51:23Z</time>
      </trkpt>
      <trkpt lat="46.5536" lon="5.4658">
        <ele>501.2</ele>
        <time>2022-03-19T16:51:25Z</time>
      </trkpt>
      <trkpt lat="46.55352" lon="5.46567">
        <ele>499.2</ele>
        <time>2022-03-19T16:51:26Z</time>
      </trkpt>
      <trkpt lat="46.55345" lon="5.46554">
        <ele>498.4</ele>
        <time>2022-03-19T16:51:27Z</time>
      </trkpt>
      <trkpt lat="46.55339" lon="5.46539">
        <ele>497.6</ele>
        <time>2022-03-19T16:51:28Z</time>
      </trkpt>
      <trkpt lat="46.55329" lon="5.46508">
        <ele>495.6</ele>
        <time>2022-03-19T16:51:30Z</time>
      </trkpt>
      <trkpt lat="46.55324" lon="5.46494">
        <ele>493.2</ele>
        <time>2022-03-19T16:51:31Z</time>
      </trkpt>
      <trkpt lat="46.55318" lon="5.46481">
        <ele>492.4</ele>
        <time>2022-03-19T16:51:32Z</time>
      </trkpt>
      <trkpt lat="46.55312" lon="5.4647">
        <ele>491.8</ele>
        <time>2022-03-19T16:51:33Z</time>
      </trkpt>
      <trkpt lat="46.55306" lon="5.4646">
        <ele>491.4</ele>
        <time>2022-03-19T16:51:34Z</time>
      </trkpt>
      <trkpt lat="46.55292" lon="5.46444">
        <ele>491.2</ele>
        <time>2022-03-19T16:51:36Z</time>
      </trkpt>
      <trkpt lat="46.55245" lon="5.464">
        <ele>491.6</ele>
        <time>2022-03-19T16:51:42Z</time>
      </trkpt>
      <trkpt lat="46.55206" lon="5.46363">
        <ele>490.8</ele>
        <time>2022-03-19T16:51:47Z</time>
      </trkpt>
      <trkpt lat="46.55192" lon="5.4635">
        <ele>490.4</ele>
        <time>2022-03-19T16:51:49Z</time>
      </trkpt>
      <trkpt lat="46.55163" lon="5.4633">
        <ele>490.4</ele>
        <time>2022-03-19T16:51:53Z</time>
      </trkpt>
      <trkpt lat="46.55156" lon="5.46327">
        <ele>490.2</ele>
        <time>2022-03-19T16:51:54Z</time>
      </trkpt>
      <trkpt lat="46.55148" lon="5.46325">
        <ele>490.2</ele>
        <time>2022-03-19T16:51:55Z</time>
      </trkpt>
      <trkpt lat="46.55117" lon="5.46316">
        <ele>489.8</ele>
        <time>2022-03-19T16:51:59Z</time>
      </trkpt>
      <trkpt lat="46.55109" lon="5.46312">
        <ele>489.2</ele>
        <time>2022-03-19T16:52:00Z</time>
      </trkpt>
      <trkpt lat="46.55091" lon="5.46301">
        <ele>488.2</ele>
        <time>2022-03-19T16:52:02Z</time>
      </trkpt>
      <trkpt lat="46.55075" lon="5.4629">
        <ele>487.4</ele>
        <time>2022-03-19T16:52:04Z</time>
      </trkpt>
      <trkpt lat="46.55066" lon="5.46284">
        <ele>486.4</ele>
        <time>2022-03-19T16:52:05Z</time>
      </trkpt>
      <trkpt lat="46.55048" lon="5.46273">
        <ele>485.2</ele>
        <time>2022-03-19T16:52:07Z</time>
      </trkpt>
      <trkpt lat="46.5503" lon="5.46263">
        <ele>484.6</ele>
        <time>2022-03-19T16:52:09Z</time>
      </trkpt>
      <trkpt lat="46.55013" lon="5.46254">
        <ele>482.8</ele>
        <time>2022-03-19T16:52:11Z</time>
      </trkpt>
      <trkpt lat="46.54999" lon="5.46245">
        <ele>481.4</ele>
        <time>2022-03-19T16:52:13Z</time>
      </trkpt>
      <trkpt lat="46.54995" lon="5.46242">
        <ele>480.4</ele>
        <time>2022-03-19T16:52:14Z</time>
      </trkpt>
      <trkpt lat="46.54986" lon="5.46228">
        <ele>478.6</ele>
        <time>2022-03-19T16:52:16Z</time>
      </trkpt>
      <trkpt lat="46.54985" lon="5.4622">
        <ele>477.8</ele>
        <time>2022-03-19T16:52:17Z</time>
      </trkpt>
      <trkpt lat="46.54987" lon="5.46213">
        <ele>476.4</ele>
        <time>2022-03-19T16:52:18Z</time>
      </trkpt>
      <trkpt lat="46.54993" lon="5.46198">
        <ele>475.2</ele>
        <time>2022-03-19T16:52:20Z</time>
      </trkpt>
      <trkpt lat="46.55002" lon="5.46183">
        <ele>474</ele>
        <time>2022-03-19T16:52:22Z</time>
      </trkpt>
      <trkpt lat="46.55017" lon="5.4616">
        <ele>473.2</ele>
        <time>2022-03-19T16:52:25Z</time>
      </trkpt>
      <trkpt lat="46.55029" lon="5.46144">
        <ele>472.8</ele>
        <time>2022-03-19T16:52:27Z</time>
      </trkpt>
      <trkpt lat="46.55045" lon="5.46117">
        <ele>471.6</ele>
        <time>2022-03-19T16:52:30Z</time>
      </trkpt>
      <trkpt lat="46.55049" lon="5.46108">
        <ele>471.4</ele>
        <time>2022-03-19T16:52:31Z</time>
      </trkpt>
      <trkpt lat="46.55059" lon="5.46076">
        <ele>470.4</ele>
        <time>2022-03-19T16:52:34Z</time>
      </trkpt>
      <trkpt lat="46.55061" lon="5.46064">
        <ele>470.2</ele>
        <time>2022-03-19T16:52:35Z</time>
      </trkpt>
      <trkpt lat="46.55064" lon="5.46043">
        <ele>469</ele>
        <time>2022-03-19T16:52:37Z</time>
      </trkpt>
      <trkpt lat="46.55066" lon="5.46029">
        <ele>468.8</ele>
        <time>2022-03-19T16:52:38Z</time>
      </trkpt>
      <trkpt lat="46.55074" lon="5.46009">
        <ele>468.2</ele>
        <time>2022-03-19T16:52:40Z</time>
      </trkpt>
      <trkpt lat="46.55079" lon="5.46001">
        <ele>467.8</ele>
        <time>2022-03-19T16:52:41Z</time>
      </trkpt>
      <trkpt lat="46.55087" lon="5.45993">
        <ele>467.6</ele>
        <time>2022-03-19T16:52:42Z</time>
      </trkpt>
      <trkpt lat="46.55095" lon="5.45986">
        <ele>467.6</ele>
        <time>2022-03-19T16:52:43Z</time>
      </trkpt>
      <trkpt lat="46.55111" lon="5.45973">
        <ele>466.8</ele>
        <time>2022-03-19T16:52:45Z</time>
      </trkpt>
      <trkpt lat="46.55119" lon="5.45966">
        <ele>465.8</ele>
        <time>2022-03-19T16:52:46Z</time>
      </trkpt>
      <trkpt lat="46.55126" lon="5.45955">
        <ele>465.4</ele>
        <time>2022-03-19T16:52:47Z</time>
      </trkpt>
      <trkpt lat="46.55138" lon="5.45932">
        <ele>464.4</ele>
        <time>2022-03-19T16:52:49Z</time>
      </trkpt>
      <trkpt lat="46.55148" lon="5.45909">
        <ele>463.2</ele>
        <time>2022-03-19T16:52:51Z</time>
      </trkpt>
      <trkpt lat="46.55153" lon="5.45898">
        <ele>462</ele>
        <time>2022-03-19T16:52:52Z</time>
      </trkpt>
      <trkpt lat="46.55159" lon="5.45885">
        <ele>460.8</ele>
        <time>2022-03-19T16:52:53Z</time>
      </trkpt>
      <trkpt lat="46.55165" lon="5.45879">
        <ele>460.6</ele>
        <time>2022-03-19T16:52:54Z</time>
      </trkpt>
      <trkpt lat="46.55172" lon="5.45876">
        <ele>459.6</ele>
        <time>2022-03-19T16:52:55Z</time>
      </trkpt>
      <trkpt lat="46.55177" lon="5.45876">
        <ele>459.2</ele>
        <time>2022-03-19T16:52:56Z</time>
      </trkpt>
      <trkpt lat="46.55182" lon="5.45876">
        <ele>458.6</ele>
        <time>2022-03-19T16:52:57Z</time>
      </trkpt>
      <trkpt lat="46.55186" lon="5.45873">
        <ele>458.4</ele>
        <time>2022-03-19T16:52:58Z</time>
      </trkpt>
      <trkpt lat="46.55187" lon="5.45865">
        <ele>458</ele>
        <time>2022-03-19T16:52:59Z</time>
      </trkpt>
      <trkpt lat="46.55182" lon="5.45854">
        <ele>457.4</ele>
        <time>2022-03-19T16:53:01Z</time>
      </trkpt>
      <trkpt lat="46.55176" lon="5.45848">
        <ele>456.8</ele>
        <time>2022-03-19T16:53:02Z</time>
      </trkpt>
      <trkpt lat="46.55162" lon="5.45834">
        <ele>455.8</ele>
        <time>2022-03-19T16:53:04Z</time>
      </trkpt>
      <trkpt lat="46.55157" lon="5.45827">
        <ele>455.4</ele>
        <time>2022-03-19T16:53:05Z</time>
      </trkpt>
      <trkpt lat="46.55152" lon="5.45814">
        <ele>454</ele>
        <time>2022-03-19T16:53:06Z</time>
      </trkpt>
      <trkpt lat="46.55143" lon="5.45788">
        <ele>452.2</ele>
        <time>2022-03-19T16:53:08Z</time>
      </trkpt>
      <trkpt lat="46.55139" lon="5.45759">
        <ele>451</ele>
        <time>2022-03-19T16:53:10Z</time>
      </trkpt>
      <trkpt lat="46.55139" lon="5.45743">
        <ele>450.2</ele>
        <time>2022-03-19T16:53:11Z</time>
      </trkpt>
      <trkpt lat="46.55137" lon="5.45729">
        <ele>449.8</ele>
        <time>2022-03-19T16:53:12Z</time>
      </trkpt>
      <trkpt lat="46.55132" lon="5.45703">
        <ele>448.8</ele>
        <time>2022-03-19T16:53:14Z</time>
      </trkpt>
      <trkpt lat="46.55129" lon="5.45693">
        <ele>448.2</ele>
        <time>2022-03-19T16:53:15Z</time>
      </trkpt>
      <trkpt lat="46.55115" lon="5.45654">
        <ele>447</ele>
        <time>2022-03-19T16:53:18Z</time>
      </trkpt>
      <trkpt lat="46.55107" lon="5.45634">
        <ele>446.4</ele>
        <time>2022-03-19T16:53:20Z</time>
      </trkpt>
      <trkpt lat="46.55091" lon="5.45604">
        <ele>446</ele>
        <time>2022-03-19T16:53:23Z</time>
      </trkpt>
      <trkpt lat="46.5508" lon="5.45583">
        <ele>445.8</ele>
        <time>2022-03-19T16:53:25Z</time>
      </trkpt>
      <trkpt lat="46.55061" lon="5.45531">
        <ele>445.6</ele>
        <time>2022-03-19T16:53:30Z</time>
      </trkpt>
      <trkpt lat="46.55051" lon="5.45498">
        <ele>444.8</ele>
        <time>2022-03-19T16:53:33Z</time>
      </trkpt>
      <trkpt lat="46.55041" lon="5.45466">
        <ele>444.4</ele>
        <time>2022-03-19T16:53:36Z</time>
      </trkpt>
      <trkpt lat="46.55031" lon="5.45433">
        <ele>444.4</ele>
        <time>2022-03-19T16:53:39Z</time>
      </trkpt>
      <trkpt lat="46.55027" lon="5.45424">
        <ele>444.4</ele>
        <time>2022-03-19T16:53:40Z</time>
      </trkpt>
      <trkpt lat="46.54994" lon="5.45365">
        <ele>443.8</ele>
        <time>2022-03-19T16:53:47Z</time>
      </trkpt>
      <trkpt lat="46.54989" lon="5.45358">
        <ele>443.8</ele>
        <time>2022-03-19T16:53:48Z</time>
      </trkpt>
      <trkpt lat="46.54954" lon="5.45317">
        <ele>443</ele>
        <time>2022-03-19T16:53:54Z</time>
      </trkpt>
      <trkpt lat="46.54935" lon="5.45295">
        <ele>442.8</ele>
        <time>2022-03-19T16:53:57Z</time>
      </trkpt>
      <trkpt lat="46.54902" lon="5.45258">
        <ele>442.6</ele>
        <time>2022-03-19T16:54:03Z</time>
      </trkpt>
      <trkpt lat="46.54864" lon="5.4524">
        <ele>442.4</ele>
        <time>2022-03-19T16:54:08Z</time>
      </trkpt>
      <trkpt lat="46.54837" lon="5.45218">
        <ele>441.6</ele>
        <time>2022-03-19T16:54:12Z</time>
      </trkpt>
      <trkpt lat="46.5483" lon="5.45212">
        <ele>441.6</ele>
        <time>2022-03-19T16:54:13Z</time>
      </trkpt>
      <trkpt lat="46.54782" lon="5.45165">
        <ele>440.6</ele>
        <time>2022-03-19T16:54:21Z</time>
      </trkpt>
      <trkpt lat="46.54762" lon="5.45146">
        <ele>440.4</ele>
        <time>2022-03-19T16:54:24Z</time>
      </trkpt>
      <trkpt lat="46.54736" lon="5.45123">
        <ele>439.4</ele>
        <time>2022-03-19T16:54:28Z</time>
      </trkpt>
      <trkpt lat="46.54706" lon="5.45094">
        <ele>438.4</ele>
        <time>2022-03-19T16:54:32Z</time>
      </trkpt>
      <trkpt lat="46.54687" lon="5.45072">
        <ele>437.2</ele>
        <time>2022-03-19T16:54:35Z</time>
      </trkpt>
      <trkpt lat="46.54677" lon="5.45057">
        <ele>436.8</ele>
        <time>2022-03-19T16:54:37Z</time>
      </trkpt>
      <trkpt lat="46.54654" lon="5.45023">
        <ele>436.2</ele>
        <time>2022-03-19T16:54:41Z</time>
      </trkpt>
      <trkpt lat="46.54627" lon="5.44988">
        <ele>435.8</ele>
        <time>2022-03-19T16:54:45Z</time>
      </trkpt>
      <trkpt lat="46.54615" lon="5.44972">
        <ele>435.2</ele>
        <time>2022-03-19T16:54:47Z</time>
      </trkpt>
      <trkpt lat="46.5459" lon="5.44935">
        <ele>434</ele>
        <time>2022-03-19T16:54:51Z</time>
      </trkpt>
      <trkpt lat="46.54584" lon="5.44926">
        <ele>433.8</ele>
        <time>2022-03-19T16:54:52Z</time>
      </trkpt>
      <trkpt lat="46.54561" lon="5.44884">
        <ele>433.2</ele>
        <time>2022-03-19T16:54:57Z</time>
      </trkpt>
      <trkpt lat="46.54532" lon="5.44831">
        <ele>434.4</ele>
        <time>2022-03-19T16:55:04Z</time>
      </trkpt>
      <trkpt lat="46.54513" lon="5.44801">
        <ele>435</ele>
        <time>2022-03-19T16:55:08Z</time>
      </trkpt>
      <trkpt lat="46.54499" lon="5.44781">
        <ele>435</ele>
        <time>2022-03-19T16:55:11Z</time>
      </trkpt>
      <trkpt lat="46.54489" lon="5.44762">
        <ele>435</ele>
        <time>2022-03-19T16:55:13Z</time>
      </trkpt>
      <trkpt lat="46.54482" lon="5.44741">
        <ele>434.8</ele>
        <time>2022-03-19T16:55:15Z</time>
      </trkpt>
      <trkpt lat="46.54473" lon="5.44708">
        <ele>433.8</ele>
        <time>2022-03-19T16:55:18Z</time>
      </trkpt>
      <trkpt lat="46.5446" lon="5.44666">
        <ele>433.2</ele>
        <time>2022-03-19T16:55:22Z</time>
      </trkpt>
      <trkpt lat="46.54441" lon="5.44614">
        <ele>432.8</ele>
        <time>2022-03-19T16:55:27Z</time>
      </trkpt>
      <trkpt lat="46.5442" lon="5.44565">
        <ele>432.8</ele>
        <time>2022-03-19T16:55:32Z</time>
      </trkpt>
      <trkpt lat="46.54389" lon="5.44514">
        <ele>432</ele>
        <time>2022-03-19T16:55:38Z</time>
      </trkpt>
      <trkpt lat="46.54383" lon="5.44504">
        <ele>431.8</ele>
        <time>2022-03-19T16:55:39Z</time>
      </trkpt>
      <trkpt lat="46.54374" lon="5.44484">
        <ele>431.2</ele>
        <time>2022-03-19T16:55:41Z</time>
      </trkpt>
      <trkpt lat="46.5437" lon="5.44473">
        <ele>430.6</ele>
        <time>2022-03-19T16:55:42Z</time>
      </trkpt>
      <trkpt lat="46.54366" lon="5.44461">
        <ele>430</ele>
        <time>2022-03-19T16:55:43Z</time>
      </trkpt>
      <trkpt lat="46.54363" lon="5.44449">
        <ele>429.4</ele>
        <time>2022-03-19T16:55:44Z</time>
      </trkpt>
      <trkpt lat="46.54356" lon="5.44426">
        <ele>428.8</ele>
        <time>2022-03-19T16:55:46Z</time>
      </trkpt>
      <trkpt lat="46.54347" lon="5.44406">
        <ele>428.2</ele>
        <time>2022-03-19T16:55:48Z</time>
      </trkpt>
      <trkpt lat="46.54314" lon="5.44357">
        <ele>427.8</ele>
        <time>2022-03-19T16:55:54Z</time>
      </trkpt>
      <trkpt lat="46.5428" lon="5.44296">
        <ele>428.4</ele>
        <time>2022-03-19T16:56:01Z</time>
      </trkpt>
      <trkpt lat="46.54244" lon="5.44226">
        <ele>427.2</ele>
        <time>2022-03-19T16:56:09Z</time>
      </trkpt>
      <trkpt lat="46.5424" lon="5.44216">
        <ele>427.2</ele>
        <time>2022-03-19T16:56:10Z</time>
      </trkpt>
      <trkpt lat="46.54238" lon="5.44205">
        <ele>427</ele>
        <time>2022-03-19T16:56:11Z</time>
      </trkpt>
      <trkpt lat="46.54233" lon="5.44172">
        <ele>427</ele>
        <time>2022-03-19T16:56:14Z</time>
      </trkpt>
      <trkpt lat="46.54228" lon="5.44151">
        <ele>426.8</ele>
        <time>2022-03-19T16:56:16Z</time>
      </trkpt>
      <trkpt lat="46.54221" lon="5.44132">
        <ele>426.6</ele>
        <time>2022-03-19T16:56:18Z</time>
      </trkpt>
      <trkpt lat="46.54196" lon="5.44084">
        <ele>427.6</ele>
        <time>2022-03-19T16:56:24Z</time>
      </trkpt>
      <trkpt lat="46.54177" lon="5.44059">
        <ele>428.2</ele>
        <time>2022-03-19T16:56:28Z</time>
      </trkpt>
      <trkpt lat="46.54162" lon="5.44039">
        <ele>428.6</ele>
        <time>2022-03-19T16:56:31Z</time>
      </trkpt>
      <trkpt lat="46.54122" lon="5.4398">
        <ele>428.4</ele>
        <time>2022-03-19T16:56:39Z</time>
      </trkpt>
      <trkpt lat="46.54091" lon="5.4393">
        <ele>427</ele>
        <time>2022-03-19T16:56:45Z</time>
      </trkpt>
      <trkpt lat="46.54086" lon="5.43921">
        <ele>427</ele>
        <time>2022-03-19T16:56:46Z</time>
      </trkpt>
      <trkpt lat="46.54049" lon="5.43855">
        <ele>427</ele>
        <time>2022-03-19T16:56:54Z</time>
      </trkpt>
      <trkpt lat="46.54039" lon="5.43838">
        <ele>427</ele>
        <time>2022-03-19T16:56:56Z</time>
      </trkpt>
      <trkpt lat="46.54004" lon="5.43779">
        <ele>426</ele>
        <time>2022-03-19T16:57:03Z</time>
      </trkpt>
      <trkpt lat="46.53989" lon="5.43752">
        <ele>425.4</ele>
        <time>2022-03-19T16:57:06Z</time>
      </trkpt>
      <trkpt lat="46.53947" lon="5.43687">
        <ele>425</ele>
        <time>2022-03-19T16:57:14Z</time>
      </trkpt>
      <trkpt lat="46.53941" lon="5.43679">
        <ele>424.8</ele>
        <time>2022-03-19T16:57:15Z</time>
      </trkpt>
      <trkpt lat="46.53908" lon="5.43629">
        <ele>424.6</ele>
        <time>2022-03-19T16:57:21Z</time>
      </trkpt>
      <trkpt lat="46.53869" lon="5.43562">
        <ele>424</ele>
        <time>2022-03-19T16:57:29Z</time>
      </trkpt>
      <trkpt lat="46.5386" lon="5.43546">
        <ele>424</ele>
        <time>2022-03-19T16:57:31Z</time>
      </trkpt>
      <trkpt lat="46.5384" lon="5.435">
        <ele>425.2</ele>
        <time>2022-03-19T16:57:37Z</time>
      </trkpt>
      <trkpt lat="46.53826" lon="5.43454">
        <ele>426.4</ele>
        <time>2022-03-19T16:57:43Z</time>
      </trkpt>
      <trkpt lat="46.53817" lon="5.43414">
        <ele>427.6</ele>
        <time>2022-03-19T16:57:48Z</time>
      </trkpt>
      <trkpt lat="46.53814" lon="5.43407">
        <ele>427.8</ele>
        <time>2022-03-19T16:57:49Z</time>
      </trkpt>
      <trkpt lat="46.53811" lon="5.434">
        <ele>428</ele>
        <time>2022-03-19T16:57:50Z</time>
      </trkpt>
      <trkpt lat="46.53792" lon="5.43366">
        <ele>428.6</ele>
        <time>2022-03-19T16:57:55Z</time>
      </trkpt>
      <trkpt lat="46.53772" lon="5.4333">
        <ele>429.4</ele>
        <time>2022-03-19T16:58:00Z</time>
      </trkpt>
      <trkpt lat="46.53744" lon="5.43285">
        <ele>429.8</ele>
        <time>2022-03-19T16:58:07Z</time>
      </trkpt>
      <trkpt lat="46.53732" lon="5.43267">
        <ele>430.2</ele>
        <time>2022-03-19T16:58:10Z</time>
      </trkpt>
      <trkpt lat="46.53725" lon="5.43255">
        <ele>430.8</ele>
        <time>2022-03-19T16:58:12Z</time>
      </trkpt>
      <trkpt lat="46.53722" lon="5.43248">
        <ele>431</ele>
        <time>2022-03-19T16:58:13Z</time>
      </trkpt>
      <trkpt lat="46.5372" lon="5.43235">
        <ele>431.6</ele>
        <time>2022-03-19T16:58:15Z</time>
      </trkpt>
      <trkpt lat="46.53719" lon="5.43222">
        <ele>431.8</ele>
        <time>2022-03-19T16:58:17Z</time>
      </trkpt>
      <trkpt lat="46.5372" lon="5.43208">
        <ele>432.2</ele>
        <time>2022-03-19T16:58:19Z</time>
      </trkpt>
      <trkpt lat="46.53721" lon="5.43202">
        <ele>432.4</ele>
        <time>2022-03-19T16:58:20Z</time>
      </trkpt>
      <trkpt lat="46.53722" lon="5.43195">
        <ele>432.6</ele>
        <time>2022-03-19T16:58:21Z</time>
      </trkpt>
      <trkpt lat="46.53722" lon="5.43182">
        <ele>433.4</ele>
        <time>2022-03-19T16:58:23Z</time>
      </trkpt>
      <trkpt lat="46.5372" lon="5.43176">
        <ele>433.6</ele>
        <time>2022-03-19T16:58:24Z</time>
      </trkpt>
      <trkpt lat="46.53716" lon="5.43163">
        <ele>434</ele>
        <time>2022-03-19T16:58:26Z</time>
      </trkpt>
      <trkpt lat="46.53713" lon="5.43157">
        <ele>434.4</ele>
        <time>2022-03-19T16:58:27Z</time>
      </trkpt>
      <trkpt lat="46.53703" lon="5.43139">
        <ele>435</ele>
        <time>2022-03-19T16:58:30Z</time>
      </trkpt>
      <trkpt lat="46.53697" lon="5.43128">
        <ele>435.6</ele>
        <time>2022-03-19T16:58:32Z</time>
      </trkpt>
      <trkpt lat="46.53681" lon="5.43098">
        <ele>436.6</ele>
        <time>2022-03-19T16:58:37Z</time>
      </trkpt>
      <trkpt lat="46.53675" lon="5.43086">
        <ele>437</ele>
        <time>2022-03-19T16:58:39Z</time>
      </trkpt>
      <trkpt lat="46.5366" lon="5.43055">
        <ele>437.8</ele>
        <time>2022-03-19T16:58:44Z</time>
      </trkpt>
      <trkpt lat="46.5364" lon="5.43018">
        <ele>438.2</ele>
        <time>2022-03-19T16:58:50Z</time>
      </trkpt>
      <trkpt lat="46.53606" lon="5.42952">
        <ele>439</ele>
        <time>2022-03-19T16:59:00Z</time>
      </trkpt>
      <trkpt lat="46.53602" lon="5.42945">
        <ele>439</ele>
        <time>2022-03-19T16:59:01Z</time>
      </trkpt>
      <trkpt lat="46.53576" lon="5.42889">
        <ele>439.2</ele>
        <time>2022-03-19T16:59:09Z</time>
      </trkpt>
      <trkpt lat="46.53563" lon="5.42865">
        <ele>440</ele>
        <time>2022-03-19T16:59:13Z</time>
      </trkpt>
      <trkpt lat="46.53548" lon="5.42841">
        <ele>440.6</ele>
        <time>2022-03-19T16:59:17Z</time>
      </trkpt>
      <trkpt lat="46.53522" lon="5.428">
        <ele>441</ele>
        <time>2022-03-19T16:59:24Z</time>
      </trkpt>
      <trkpt lat="46.53506" lon="5.42778">
        <ele>442.2</ele>
        <time>2022-03-19T16:59:29Z</time>
      </trkpt>
      <trkpt lat="46.53503" lon="5.42775">
        <ele>442.4</ele>
        <time>2022-03-19T16:59:30Z</time>
      </trkpt>
      <trkpt lat="46.53494" lon="5.42768">
        <ele>443.2</ele>
        <time>2022-03-19T16:59:33Z</time>
      </trkpt>
      <trkpt lat="46.53485" lon="5.42762">
        <ele>443.6</ele>
        <time>2022-03-19T16:59:36Z</time>
      </trkpt>
      <trkpt lat="46.53467" lon="5.42753">
        <ele>443.6</ele>
        <time>2022-03-19T16:59:43Z</time>
      </trkpt>
      <trkpt lat="46.53453" lon="5.42746">
        <ele>443.2</ele>
        <time>2022-03-19T16:59:49Z</time>
      </trkpt>
      <trkpt lat="46.53446" lon="5.42742">
        <ele>442.2</ele>
        <time>2022-03-19T16:59:54Z</time>
      </trkpt>
      <trkpt lat="46.53446" lon="5.42742">
        <ele>441.6</ele>
        <time>2022-03-19T16:59:57Z</time>
      </trkpt>
      <trkpt lat="46.53444" lon="5.42739">
        <ele>441.4</ele>
        <time>2022-03-19T17:01:01Z</time>
      </trkpt>
      <trkpt lat="46.53444" lon="5.42736">
        <ele>441.4</ele>
        <time>2022-03-19T17:01:02Z</time>
      </trkpt>
      <trkpt lat="46.53441" lon="5.42714">
        <ele>441.4</ele>
        <time>2022-03-19T17:01:06Z</time>
      </trkpt>
      <trkpt lat="46.53433" lon="5.42672">
        <ele>440.8</ele>
        <time>2022-03-19T17:01:11Z</time>
      </trkpt>
      <trkpt lat="46.53422" lon="5.42643">
        <ele>440.2</ele>
        <time>2022-03-19T17:01:14Z</time>
      </trkpt>
      <trkpt lat="46.53413" lon="5.42623">
        <ele>439.6</ele>
        <time>2022-03-19T17:01:16Z</time>
      </trkpt>
      <trkpt lat="46.534" lon="5.42602">
        <ele>439.2</ele>
        <time>2022-03-19T17:01:18Z</time>
      </trkpt>
      <trkpt lat="46.53388" lon="5.42585">
        <ele>438.4</ele>
        <time>2022-03-19T17:01:20Z</time>
      </trkpt>
      <trkpt lat="46.53375" lon="5.42564">
        <ele>437.8</ele>
        <time>2022-03-19T17:01:22Z</time>
      </trkpt>
      <trkpt lat="46.53357" lon="5.42526">
        <ele>436.4</ele>
        <time>2022-03-19T17:01:25Z</time>
      </trkpt>
      <trkpt lat="46.53346" lon="5.42499">
        <ele>435.2</ele>
        <time>2022-03-19T17:01:27Z</time>
      </trkpt>
      <trkpt lat="46.53336" lon="5.42469">
        <ele>433.8</ele>
        <time>2022-03-19T17:01:29Z</time>
      </trkpt>
      <trkpt lat="46.53327" lon="5.42439">
        <ele>432.6</ele>
        <time>2022-03-19T17:01:31Z</time>
      </trkpt>
      <trkpt lat="46.53317" lon="5.42409">
        <ele>431.4</ele>
        <time>2022-03-19T17:01:33Z</time>
      </trkpt>
      <trkpt lat="46.53305" lon="5.42379">
        <ele>429.6</ele>
        <time>2022-03-19T17:01:35Z</time>
      </trkpt>
      <trkpt lat="46.533" lon="5.42364">
        <ele>429.2</ele>
        <time>2022-03-19T17:01:36Z</time>
      </trkpt>
      <trkpt lat="46.53288" lon="5.42334">
        <ele>428.4</ele>
        <time>2022-03-19T17:01:38Z</time>
      </trkpt>
      <trkpt lat="46.5328" lon="5.42304">
        <ele>427.2</ele>
        <time>2022-03-19T17:01:40Z</time>
      </trkpt>
      <trkpt lat="46.53276" lon="5.42288">
        <ele>426.4</ele>
        <time>2022-03-19T17:01:41Z</time>
      </trkpt>
      <trkpt lat="46.53274" lon="5.42272">
        <ele>426</ele>
        <time>2022-03-19T17:01:42Z</time>
      </trkpt>
      <trkpt lat="46.5327" lon="5.42256">
        <ele>425.6</ele>
        <time>2022-03-19T17:01:43Z</time>
      </trkpt>
      <trkpt lat="46.5326" lon="5.42227">
        <ele>424.8</ele>
        <time>2022-03-19T17:01:45Z</time>
      </trkpt>
      <trkpt lat="46.5324" lon="5.42188">
        <ele>423.2</ele>
        <time>2022-03-19T17:01:48Z</time>
      </trkpt>
      <trkpt lat="46.53235" lon="5.42172">
        <ele>423</ele>
        <time>2022-03-19T17:01:49Z</time>
      </trkpt>
      <trkpt lat="46.53231" lon="5.42156">
        <ele>422.4</ele>
        <time>2022-03-19T17:01:50Z</time>
      </trkpt>
      <trkpt lat="46.53228" lon="5.42139">
        <ele>421.6</ele>
        <time>2022-03-19T17:01:51Z</time>
      </trkpt>
      <trkpt lat="46.53223" lon="5.42121">
        <ele>421.2</ele>
        <time>2022-03-19T17:01:52Z</time>
      </trkpt>
      <trkpt lat="46.53218" lon="5.42104">
        <ele>419.8</ele>
        <time>2022-03-19T17:01:53Z</time>
      </trkpt>
      <trkpt lat="46.53209" lon="5.42071">
        <ele>418.2</ele>
        <time>2022-03-19T17:01:55Z</time>
      </trkpt>
      <trkpt lat="46.53209" lon="5.42053">
        <ele>417.6</ele>
        <time>2022-03-19T17:01:56Z</time>
      </trkpt>
      <trkpt lat="46.53211" lon="5.42036">
        <ele>416.8</ele>
        <time>2022-03-19T17:01:57Z</time>
      </trkpt>
      <trkpt lat="46.5322" lon="5.42003">
        <ele>415.6</ele>
        <time>2022-03-19T17:01:59Z</time>
      </trkpt>
      <trkpt lat="46.53227" lon="5.41984">
        <ele>414.2</ele>
        <time>2022-03-19T17:02:00Z</time>
      </trkpt>
      <trkpt lat="46.53237" lon="5.41956">
        <ele>413</ele>
        <time>2022-03-19T17:02:02Z</time>
      </trkpt>
      <trkpt lat="46.53256" lon="5.41914">
        <ele>412</ele>
        <time>2022-03-19T17:02:05Z</time>
      </trkpt>
      <trkpt lat="46.53281" lon="5.4186">
        <ele>411</ele>
        <time>2022-03-19T17:02:09Z</time>
      </trkpt>
      <trkpt lat="46.53284" lon="5.41828">
        <ele>410.8</ele>
        <time>2022-03-19T17:02:11Z</time>
      </trkpt>
      <trkpt lat="46.5328" lon="5.41812">
        <ele>410.8</ele>
        <time>2022-03-19T17:02:12Z</time>
      </trkpt>
      <trkpt lat="46.53277" lon="5.41796">
        <ele>410.4</ele>
        <time>2022-03-19T17:02:13Z</time>
      </trkpt>
      <trkpt lat="46.53277" lon="5.41763">
        <ele>409.4</ele>
        <time>2022-03-19T17:02:15Z</time>
      </trkpt>
      <trkpt lat="46.53288" lon="5.41733">
        <ele>407.8</ele>
        <time>2022-03-19T17:02:17Z</time>
      </trkpt>
      <trkpt lat="46.53296" lon="5.41719">
        <ele>406.6</ele>
        <time>2022-03-19T17:02:18Z</time>
      </trkpt>
      <trkpt lat="46.53313" lon="5.41695">
        <ele>404.4</ele>
        <time>2022-03-19T17:02:20Z</time>
      </trkpt>
      <trkpt lat="46.53333" lon="5.41674">
        <ele>402.8</ele>
        <time>2022-03-19T17:02:22Z</time>
      </trkpt>
      <trkpt lat="46.53343" lon="5.41664">
        <ele>401.6</ele>
        <time>2022-03-19T17:02:23Z</time>
      </trkpt>
      <trkpt lat="46.53354" lon="5.41656">
        <ele>401.2</ele>
        <time>2022-03-19T17:02:24Z</time>
      </trkpt>
      <trkpt lat="46.53365" lon="5.41648">
        <ele>400.6</ele>
        <time>2022-03-19T17:02:25Z</time>
      </trkpt>
      <trkpt lat="46.53377" lon="5.41639">
        <ele>399.8</ele>
        <time>2022-03-19T17:02:26Z</time>
      </trkpt>
      <trkpt lat="46.53387" lon="5.41627">
        <ele>399</ele>
        <time>2022-03-19T17:02:27Z</time>
      </trkpt>
      <trkpt lat="46.53397" lon="5.41614">
        <ele>398.6</ele>
        <time>2022-03-19T17:02:28Z</time>
      </trkpt>
      <trkpt lat="46.53405" lon="5.41598">
        <ele>397.4</ele>
        <time>2022-03-19T17:02:29Z</time>
      </trkpt>
      <trkpt lat="46.53412" lon="5.41581">
        <ele>396.6</ele>
        <time>2022-03-19T17:02:30Z</time>
      </trkpt>
      <trkpt lat="46.53417" lon="5.41564">
        <ele>395.2</ele>
        <time>2022-03-19T17:02:31Z</time>
      </trkpt>
      <trkpt lat="46.53423" lon="5.41546">
        <ele>394.2</ele>
        <time>2022-03-19T17:02:32Z</time>
      </trkpt>
      <trkpt lat="46.53428" lon="5.41528">
        <ele>393.6</ele>
        <time>2022-03-19T17:02:33Z</time>
      </trkpt>
      <trkpt lat="46.53432" lon="5.41508">
        <ele>392.8</ele>
        <time>2022-03-19T17:02:34Z</time>
      </trkpt>
      <trkpt lat="46.53434" lon="5.41489">
        <ele>392.4</ele>
        <time>2022-03-19T17:02:35Z</time>
      </trkpt>
      <trkpt lat="46.53435" lon="5.4147">
        <ele>391.6</ele>
        <time>2022-03-19T17:02:36Z</time>
      </trkpt>
      <trkpt lat="46.53436" lon="5.41451">
        <ele>391.2</ele>
        <time>2022-03-19T17:02:37Z</time>
      </trkpt>
      <trkpt lat="46.53439" lon="5.41433">
        <ele>389.4</ele>
        <time>2022-03-19T17:02:38Z</time>
      </trkpt>
      <trkpt lat="46.53443" lon="5.41415">
        <ele>388.2</ele>
        <time>2022-03-19T17:02:39Z</time>
      </trkpt>
      <trkpt lat="46.53448" lon="5.41401">
        <ele>387.6</ele>
        <time>2022-03-19T17:02:40Z</time>
      </trkpt>
      <trkpt lat="46.53456" lon="5.4139">
        <ele>386</ele>
        <time>2022-03-19T17:02:41Z</time>
      </trkpt>
      <trkpt lat="46.53465" lon="5.41383">
        <ele>385.4</ele>
        <time>2022-03-19T17:02:42Z</time>
      </trkpt>
      <trkpt lat="46.53475" lon="5.41382">
        <ele>384</ele>
        <time>2022-03-19T17:02:43Z</time>
      </trkpt>
      <trkpt lat="46.53485" lon="5.41385">
        <ele>383.4</ele>
        <time>2022-03-19T17:02:44Z</time>
      </trkpt>
      <trkpt lat="46.53496" lon="5.41389">
        <ele>382.4</ele>
        <time>2022-03-19T17:02:45Z</time>
      </trkpt>
      <trkpt lat="46.53517" lon="5.41396">
        <ele>382</ele>
        <time>2022-03-19T17:02:47Z</time>
      </trkpt>
      <trkpt lat="46.53528" lon="5.41395">
        <ele>381.6</ele>
        <time>2022-03-19T17:02:48Z</time>
      </trkpt>
      <trkpt lat="46.5354" lon="5.41391">
        <ele>381.4</ele>
        <time>2022-03-19T17:02:49Z</time>
      </trkpt>
      <trkpt lat="46.5355" lon="5.41383">
        <ele>380.6</ele>
        <time>2022-03-19T17:02:50Z</time>
      </trkpt>
      <trkpt lat="46.53559" lon="5.41372">
        <ele>380.2</ele>
        <time>2022-03-19T17:02:51Z</time>
      </trkpt>
      <trkpt lat="46.5357" lon="5.41364">
        <ele>379.6</ele>
        <time>2022-03-19T17:02:52Z</time>
      </trkpt>
      <trkpt lat="46.53582" lon="5.41358">
        <ele>379</ele>
        <time>2022-03-19T17:02:53Z</time>
      </trkpt>
      <trkpt lat="46.53594" lon="5.41355">
        <ele>378.2</ele>
        <time>2022-03-19T17:02:54Z</time>
      </trkpt>
      <trkpt lat="46.53606" lon="5.41354">
        <ele>377</ele>
        <time>2022-03-19T17:02:55Z</time>
      </trkpt>
      <trkpt lat="46.53618" lon="5.41353">
        <ele>376.2</ele>
        <time>2022-03-19T17:02:56Z</time>
      </trkpt>
      <trkpt lat="46.5363" lon="5.4135">
        <ele>374.6</ele>
        <time>2022-03-19T17:02:57Z</time>
      </trkpt>
      <trkpt lat="46.53648" lon="5.41337">
        <ele>372.6</ele>
        <time>2022-03-19T17:02:59Z</time>
      </trkpt>
      <trkpt lat="46.53654" lon="5.4131">
        <ele>370.8</ele>
        <time>2022-03-19T17:03:01Z</time>
      </trkpt>
      <trkpt lat="46.53645" lon="5.41284">
        <ele>369.8</ele>
        <time>2022-03-19T17:03:03Z</time>
      </trkpt>
      <trkpt lat="46.53612" lon="5.41237">
        <ele>369.2</ele>
        <time>2022-03-19T17:03:07Z</time>
      </trkpt>
      <trkpt lat="46.53603" lon="5.41224">
        <ele>368.4</ele>
        <time>2022-03-19T17:03:08Z</time>
      </trkpt>
      <trkpt lat="46.53585" lon="5.41196">
        <ele>366.6</ele>
        <time>2022-03-19T17:03:10Z</time>
      </trkpt>
      <trkpt lat="46.53575" lon="5.41182">
        <ele>365.4</ele>
        <time>2022-03-19T17:03:11Z</time>
      </trkpt>
      <trkpt lat="46.53566" lon="5.41167">
        <ele>364.8</ele>
        <time>2022-03-19T17:03:12Z</time>
      </trkpt>
      <trkpt lat="46.53556" lon="5.41153">
        <ele>363.4</ele>
        <time>2022-03-19T17:03:13Z</time>
      </trkpt>
      <trkpt lat="46.53535" lon="5.41123">
        <ele>360.8</ele>
        <time>2022-03-19T17:03:15Z</time>
      </trkpt>
      <trkpt lat="46.53515" lon="5.4109">
        <ele>358.4</ele>
        <time>2022-03-19T17:03:17Z</time>
      </trkpt>
      <trkpt lat="46.53507" lon="5.41071">
        <ele>356</ele>
        <time>2022-03-19T17:03:18Z</time>
      </trkpt>
      <trkpt lat="46.53494" lon="5.41029">
        <ele>352.8</ele>
        <time>2022-03-19T17:03:20Z</time>
      </trkpt>
      <trkpt lat="46.5349" lon="5.41002">
        <ele>351.6</ele>
        <time>2022-03-19T17:03:21Z</time>
      </trkpt>
      <trkpt lat="46.5349" lon="5.40979">
        <ele>349</ele>
        <time>2022-03-19T17:03:22Z</time>
      </trkpt>
      <trkpt lat="46.53492" lon="5.40956">
        <ele>347.8</ele>
        <time>2022-03-19T17:03:23Z</time>
      </trkpt>
      <trkpt lat="46.53495" lon="5.40938">
        <ele>345.6</ele>
        <time>2022-03-19T17:03:24Z</time>
      </trkpt>
      <trkpt lat="46.53499" lon="5.40917">
        <ele>344</ele>
        <time>2022-03-19T17:03:25Z</time>
      </trkpt>
      <trkpt lat="46.53505" lon="5.40897">
        <ele>342</ele>
        <time>2022-03-19T17:03:26Z</time>
      </trkpt>
      <trkpt lat="46.53515" lon="5.40874">
        <ele>340.2</ele>
        <time>2022-03-19T17:03:27Z</time>
      </trkpt>
      <trkpt lat="46.53524" lon="5.40856">
        <ele>339.2</ele>
        <time>2022-03-19T17:03:28Z</time>
      </trkpt>
      <trkpt lat="46.53532" lon="5.40842">
        <ele>337.8</ele>
        <time>2022-03-19T17:03:29Z</time>
      </trkpt>
      <trkpt lat="46.53555" lon="5.40805">
        <ele>334.6</ele>
        <time>2022-03-19T17:03:31Z</time>
      </trkpt>
      <trkpt lat="46.53565" lon="5.40788">
        <ele>333.8</ele>
        <time>2022-03-19T17:03:32Z</time>
      </trkpt>
      <trkpt lat="46.53572" lon="5.40773">
        <ele>332</ele>
        <time>2022-03-19T17:03:33Z</time>
      </trkpt>
      <trkpt lat="46.53579" lon="5.40753">
        <ele>329.8</ele>
        <time>2022-03-19T17:03:34Z</time>
      </trkpt>
      <trkpt lat="46.5359" lon="5.40714">
        <ele>327.2</ele>
        <time>2022-03-19T17:03:36Z</time>
      </trkpt>
      <trkpt lat="46.53603" lon="5.40679">
        <ele>324.6</ele>
        <time>2022-03-19T17:03:38Z</time>
      </trkpt>
      <trkpt lat="46.53611" lon="5.40662">
        <ele>324</ele>
        <time>2022-03-19T17:03:39Z</time>
      </trkpt>
      <trkpt lat="46.53619" lon="5.40646">
        <ele>323</ele>
        <time>2022-03-19T17:03:40Z</time>
      </trkpt>
      <trkpt lat="46.53634" lon="5.40613">
        <ele>321.6</ele>
        <time>2022-03-19T17:03:42Z</time>
      </trkpt>
      <trkpt lat="46.53641" lon="5.40597">
        <ele>320.6</ele>
        <time>2022-03-19T17:03:43Z</time>
      </trkpt>
      <trkpt lat="46.53656" lon="5.40565">
        <ele>318.8</ele>
        <time>2022-03-19T17:03:45Z</time>
      </trkpt>
      <trkpt lat="46.53664" lon="5.40549">
        <ele>318.2</ele>
        <time>2022-03-19T17:03:46Z</time>
      </trkpt>
      <trkpt lat="46.53672" lon="5.40534">
        <ele>317.6</ele>
        <time>2022-03-19T17:03:47Z</time>
      </trkpt>
      <trkpt lat="46.53685" lon="5.40501">
        <ele>316.2</ele>
        <time>2022-03-19T17:03:49Z</time>
      </trkpt>
      <trkpt lat="46.53691" lon="5.40484">
        <ele>315.4</ele>
        <time>2022-03-19T17:03:50Z</time>
      </trkpt>
      <trkpt lat="46.53697" lon="5.40467">
        <ele>314.8</ele>
        <time>2022-03-19T17:03:51Z</time>
      </trkpt>
      <trkpt lat="46.53709" lon="5.40434">
        <ele>313.2</ele>
        <time>2022-03-19T17:03:53Z</time>
      </trkpt>
      <trkpt lat="46.53715" lon="5.40417">
        <ele>312</ele>
        <time>2022-03-19T17:03:54Z</time>
      </trkpt>
      <trkpt lat="46.5372" lon="5.40401">
        <ele>311.6</ele>
        <time>2022-03-19T17:03:55Z</time>
      </trkpt>
      <trkpt lat="46.53726" lon="5.40384">
        <ele>310.8</ele>
        <time>2022-03-19T17:03:56Z</time>
      </trkpt>
      <trkpt lat="46.53738" lon="5.40352">
        <ele>309.6</ele>
        <time>2022-03-19T17:03:58Z</time>
      </trkpt>
      <trkpt lat="46.53749" lon="5.40319">
        <ele>308.6</ele>
        <time>2022-03-19T17:04:00Z</time>
      </trkpt>
      <trkpt lat="46.53755" lon="5.40303">
        <ele>307.6</ele>
        <time>2022-03-19T17:04:01Z</time>
      </trkpt>
      <trkpt lat="46.5376" lon="5.40287">
        <ele>307</ele>
        <time>2022-03-19T17:04:02Z</time>
      </trkpt>
      <trkpt lat="46.53765" lon="5.40271">
        <ele>305.8</ele>
        <time>2022-03-19T17:04:03Z</time>
      </trkpt>
      <trkpt lat="46.53776" lon="5.40239">
        <ele>304.8</ele>
        <time>2022-03-19T17:04:05Z</time>
      </trkpt>
      <trkpt lat="46.5379" lon="5.40193">
        <ele>303.2</ele>
        <time>2022-03-19T17:04:08Z</time>
      </trkpt>
      <trkpt lat="46.53802" lon="5.40149">
        <ele>302</ele>
        <time>2022-03-19T17:04:11Z</time>
      </trkpt>
      <trkpt lat="46.53808" lon="5.40122">
        <ele>301.6</ele>
        <time>2022-03-19T17:04:13Z</time>
      </trkpt>
      <trkpt lat="46.53826" lon="5.40042">
        <ele>301.4</ele>
        <time>2022-03-19T17:04:19Z</time>
      </trkpt>
      <trkpt lat="46.53829" lon="5.40028">
        <ele>301.2</ele>
        <time>2022-03-19T17:04:20Z</time>
      </trkpt>
      <trkpt lat="46.53835" lon="5.40001">
        <ele>300.4</ele>
        <time>2022-03-19T17:04:22Z</time>
      </trkpt>
      <trkpt lat="46.53847" lon="5.39962">
        <ele>299.2</ele>
        <time>2022-03-19T17:04:25Z</time>
      </trkpt>
      <trkpt lat="46.53852" lon="5.39949">
        <ele>298.8</ele>
        <time>2022-03-19T17:04:26Z</time>
      </trkpt>
      <trkpt lat="46.53861" lon="5.39921">
        <ele>297.8</ele>
        <time>2022-03-19T17:04:28Z</time>
      </trkpt>
      <trkpt lat="46.5387" lon="5.39893">
        <ele>296.8</ele>
        <time>2022-03-19T17:04:30Z</time>
      </trkpt>
      <trkpt lat="46.53874" lon="5.3988">
        <ele>296</ele>
        <time>2022-03-19T17:04:31Z</time>
      </trkpt>
      <trkpt lat="46.53878" lon="5.39866">
        <ele>295.4</ele>
        <time>2022-03-19T17:04:32Z</time>
      </trkpt>
      <trkpt lat="46.53892" lon="5.39829">
        <ele>294.6</ele>
        <time>2022-03-19T17:04:35Z</time>
      </trkpt>
      <trkpt lat="46.53897" lon="5.39818">
        <ele>294.4</ele>
        <time>2022-03-19T17:04:36Z</time>
      </trkpt>
      <trkpt lat="46.53903" lon="5.39807">
        <ele>294.2</ele>
        <time>2022-03-19T17:04:37Z</time>
      </trkpt>
      <trkpt lat="46.53931" lon="5.3976">
        <ele>294.2</ele>
        <time>2022-03-19T17:04:42Z</time>
      </trkpt>
      <trkpt lat="46.53957" lon="5.39721">
        <ele>294.6</ele>
        <time>2022-03-19T17:04:47Z</time>
      </trkpt>
      <trkpt lat="46.53966" lon="5.39707">
        <ele>294.8</ele>
        <time>2022-03-19T17:04:49Z</time>
      </trkpt>
      <trkpt lat="46.53972" lon="5.39691">
        <ele>294.8</ele>
        <time>2022-03-19T17:04:51Z</time>
      </trkpt>
      <trkpt lat="46.53974" lon="5.39677">
        <ele>294.8</ele>
        <time>2022-03-19T17:04:53Z</time>
      </trkpt>
      <trkpt lat="46.53976" lon="5.39668">
        <ele>294.8</ele>
        <time>2022-03-19T17:04:55Z</time>
      </trkpt>
      <trkpt lat="46.53978" lon="5.39661">
        <ele>294.8</ele>
        <time>2022-03-19T17:04:57Z</time>
      </trkpt>
      <trkpt lat="46.53981" lon="5.39655">
        <ele>294.8</ele>
        <time>2022-03-19T17:05:00Z</time>
      </trkpt>
      <trkpt lat="46.53995" lon="5.3965">
        <ele>294.6</ele>
        <time>2022-03-19T17:05:05Z</time>
      </trkpt>
      <trkpt lat="46.54009" lon="5.39649">
        <ele>294.2</ele>
        <time>2022-03-19T17:05:09Z</time>
      </trkpt>
      <trkpt lat="46.54011" lon="5.39646">
        <ele>294.2</ele>
        <time>2022-03-19T17:05:10Z</time>
      </trkpt>
      <trkpt lat="46.54012" lon="5.39641">
        <ele>294.2</ele>
        <time>2022-03-19T17:05:11Z</time>
      </trkpt>
      <trkpt lat="46.54012" lon="5.39629">
        <ele>294</ele>
        <time>2022-03-19T17:05:13Z</time>
      </trkpt>
      <trkpt lat="46.54006" lon="5.39616">
        <ele>293.8</ele>
        <time>2022-03-19T17:05:15Z</time>
      </trkpt>
      <trkpt lat="46.54002" lon="5.39611">
        <ele>293.8</ele>
        <time>2022-03-19T17:05:16Z</time>
      </trkpt>
      <trkpt lat="46.53997" lon="5.39606">
        <ele>293.6</ele>
        <time>2022-03-19T17:05:17Z</time>
      </trkpt>
      <trkpt lat="46.53979" lon="5.39594">
        <ele>292.6</ele>
        <time>2022-03-19T17:05:20Z</time>
      </trkpt>
      <trkpt lat="46.53972" lon="5.39589">
        <ele>292</ele>
        <time>2022-03-19T17:05:21Z</time>
      </trkpt>
      <trkpt lat="46.5396" lon="5.39579">
        <ele>291.4</ele>
        <time>2022-03-19T17:05:23Z</time>
      </trkpt>
      <trkpt lat="46.53954" lon="5.39566">
        <ele>290.8</ele>
        <time>2022-03-19T17:05:25Z</time>
      </trkpt>
      <trkpt lat="46.53958" lon="5.3955">
        <ele>290.2</ele>
        <time>2022-03-19T17:05:27Z</time>
      </trkpt>
      <trkpt lat="46.53971" lon="5.39543">
        <ele>289.4</ele>
        <time>2022-03-19T17:05:29Z</time>
      </trkpt>
      <trkpt lat="46.53978" lon="5.39541">
        <ele>289</ele>
        <time>2022-03-19T17:05:30Z</time>
      </trkpt>
      <trkpt lat="46.53986" lon="5.3954">
        <ele>288.6</ele>
        <time>2022-03-19T17:05:31Z</time>
      </trkpt>
      <trkpt lat="46.53995" lon="5.39538">
        <ele>287.6</ele>
        <time>2022-03-19T17:05:32Z</time>
      </trkpt>
      <trkpt lat="46.54013" lon="5.39534">
        <ele>286.6</ele>
        <time>2022-03-19T17:05:34Z</time>
      </trkpt>
      <trkpt lat="46.54029" lon="5.39525">
        <ele>285.2</ele>
        <time>2022-03-19T17:05:36Z</time>
      </trkpt>
      <trkpt lat="46.5404" lon="5.39517">
        <ele>284</ele>
        <time>2022-03-19T17:05:37Z</time>
      </trkpt>
      <trkpt lat="46.54049" lon="5.3951">
        <ele>283.6</ele>
        <time>2022-03-19T17:05:38Z</time>
      </trkpt>
      <trkpt lat="46.54058" lon="5.39503">
        <ele>282.6</ele>
        <time>2022-03-19T17:05:39Z</time>
      </trkpt>
      <trkpt lat="46.54076" lon="5.39489">
        <ele>280.6</ele>
        <time>2022-03-19T17:05:41Z</time>
      </trkpt>
      <trkpt lat="46.54093" lon="5.39476">
        <ele>279.4</ele>
        <time>2022-03-19T17:05:43Z</time>
      </trkpt>
      <trkpt lat="46.54119" lon="5.39458">
        <ele>278.2</ele>
        <time>2022-03-19T17:05:46Z</time>
      </trkpt>
      <trkpt lat="46.54127" lon="5.39453">
        <ele>277.8</ele>
        <time>2022-03-19T17:05:47Z</time>
      </trkpt>
      <trkpt lat="46.54136" lon="5.39448">
        <ele>277.2</ele>
        <time>2022-03-19T17:05:48Z</time>
      </trkpt>
      <trkpt lat="46.54162" lon="5.3943">
        <ele>276</ele>
        <time>2022-03-19T17:05:51Z</time>
      </trkpt>
      <trkpt lat="46.54188" lon="5.39409">
        <ele>275.2</ele>
        <time>2022-03-19T17:05:54Z</time>
      </trkpt>
      <trkpt lat="46.54196" lon="5.39402">
        <ele>275</ele>
        <time>2022-03-19T17:05:55Z</time>
      </trkpt>
      <trkpt lat="46.54223" lon="5.3938">
        <ele>273.8</ele>
        <time>2022-03-19T17:05:58Z</time>
      </trkpt>
      <trkpt lat="46.54242" lon="5.39367">
        <ele>273</ele>
        <time>2022-03-19T17:06:00Z</time>
      </trkpt>
      <trkpt lat="46.54251" lon="5.39359">
        <ele>272.6</ele>
        <time>2022-03-19T17:06:01Z</time>
      </trkpt>
      <trkpt lat="46.5426" lon="5.3935">
        <ele>271</ele>
        <time>2022-03-19T17:06:02Z</time>
      </trkpt>
      <trkpt lat="46.54268" lon="5.3934">
        <ele>270.4</ele>
        <time>2022-03-19T17:06:03Z</time>
      </trkpt>
      <trkpt lat="46.54275" lon="5.39328">
        <ele>269.6</ele>
        <time>2022-03-19T17:06:04Z</time>
      </trkpt>
      <trkpt lat="46.54282" lon="5.39316">
        <ele>268.6</ele>
        <time>2022-03-19T17:06:05Z</time>
      </trkpt>
      <trkpt lat="46.54293" lon="5.39289">
        <ele>267</ele>
        <time>2022-03-19T17:06:07Z</time>
      </trkpt>
      <trkpt lat="46.54303" lon="5.3926">
        <ele>265.8</ele>
        <time>2022-03-19T17:06:09Z</time>
      </trkpt>
      <trkpt lat="46.54314" lon="5.39231">
        <ele>264.2</ele>
        <time>2022-03-19T17:06:11Z</time>
      </trkpt>
      <trkpt lat="46.5432" lon="5.39218">
        <ele>264</ele>
        <time>2022-03-19T17:06:12Z</time>
      </trkpt>
      <trkpt lat="46.54327" lon="5.39206">
        <ele>263.4</ele>
        <time>2022-03-19T17:06:13Z</time>
      </trkpt>
      <trkpt lat="46.54335" lon="5.39194">
        <ele>262.6</ele>
        <time>2022-03-19T17:06:14Z</time>
      </trkpt>
      <trkpt lat="46.54351" lon="5.39174">
        <ele>261</ele>
        <time>2022-03-19T17:06:16Z</time>
      </trkpt>
      <trkpt lat="46.5436" lon="5.39165">
        <ele>260.8</ele>
        <time>2022-03-19T17:06:17Z</time>
      </trkpt>
      <trkpt lat="46.54381" lon="5.39143">
        <ele>260</ele>
        <time>2022-03-19T17:06:20Z</time>
      </trkpt>
      <trkpt lat="46.54386" lon="5.39138">
        <ele>259.8</ele>
        <time>2022-03-19T17:06:21Z</time>
      </trkpt>
      <trkpt lat="46.54395" lon="5.39131">
        <ele>259.8</ele>
        <time>2022-03-19T17:06:24Z</time>
      </trkpt>
      <trkpt lat="46.54399" lon="5.39128">
        <ele>259.8</ele>
        <time>2022-03-19T17:06:26Z</time>
      </trkpt>
      <trkpt lat="46.54402" lon="5.39128">
        <ele>259.8</ele>
        <time>2022-03-19T17:06:28Z</time>
      </trkpt>
      <trkpt lat="46.54402" lon="5.39128">
        <ele>259.8</ele>
        <time>2022-03-19T17:06:30Z</time>
      </trkpt>
      <trkpt lat="46.54401" lon="5.39124">
        <ele>259.6</ele>
        <time>2022-03-19T17:06:50Z</time>
      </trkpt>
      <trkpt lat="46.54399" lon="5.39121">
        <ele>259.6</ele>
        <time>2022-03-19T17:06:51Z</time>
      </trkpt>
      <trkpt lat="46.54382" lon="5.39112">
        <ele>259.4</ele>
        <time>2022-03-19T17:06:55Z</time>
      </trkpt>
      <trkpt lat="46.54356" lon="5.39102">
        <ele>258.6</ele>
        <time>2022-03-19T17:06:59Z</time>
      </trkpt>
      <trkpt lat="46.54304" lon="5.39077">
        <ele>257.8</ele>
        <time>2022-03-19T17:07:06Z</time>
      </trkpt>
      <trkpt lat="46.54269" lon="5.39057">
        <ele>257.6</ele>
        <time>2022-03-19T17:07:11Z</time>
      </trkpt>
      <trkpt lat="46.54241" lon="5.39042">
        <ele>257.6</ele>
        <time>2022-03-19T17:07:15Z</time>
      </trkpt>
      <trkpt lat="46.5419" lon="5.39017">
        <ele>258</ele>
        <time>2022-03-19T17:07:23Z</time>
      </trkpt>
      <trkpt lat="46.54159" lon="5.39004">
        <ele>258.6</ele>
        <time>2022-03-19T17:07:28Z</time>
      </trkpt>
      <trkpt lat="46.5414" lon="5.38997">
        <ele>258.8</ele>
        <time>2022-03-19T17:07:31Z</time>
      </trkpt>
      <trkpt lat="46.54083" lon="5.38976">
        <ele>259.2</ele>
        <time>2022-03-19T17:07:40Z</time>
      </trkpt>
      <trkpt lat="46.54071" lon="5.3897">
        <ele>259.2</ele>
        <time>2022-03-19T17:07:42Z</time>
      </trkpt>
      <trkpt lat="46.5402" lon="5.38951">
        <ele>259.4</ele>
        <time>2022-03-19T17:07:50Z</time>
      </trkpt>
      <trkpt lat="46.53961" lon="5.38938">
        <ele>259.4</ele>
        <time>2022-03-19T17:07:59Z</time>
      </trkpt>
      <trkpt lat="46.53954" lon="5.38937">
        <ele>259.4</ele>
        <time>2022-03-19T17:08:00Z</time>
      </trkpt>
      <trkpt lat="46.53921" lon="5.38934">
        <ele>259.8</ele>
        <time>2022-03-19T17:08:05Z</time>
      </trkpt>
      <trkpt lat="46.53895" lon="5.38932">
        <ele>260</ele>
        <time>2022-03-19T17:08:09Z</time>
      </trkpt>
      <trkpt lat="46.53846" lon="5.38926">
        <ele>261</ele>
        <time>2022-03-19T17:08:17Z</time>
      </trkpt>
      <trkpt lat="46.538" lon="5.38908">
        <ele>261.2</ele>
        <time>2022-03-19T17:08:24Z</time>
      </trkpt>
      <trkpt lat="46.53751" lon="5.38893">
        <ele>261.2</ele>
        <time>2022-03-19T17:08:31Z</time>
      </trkpt>
      <trkpt lat="46.53698" lon="5.38872">
        <ele>261</ele>
        <time>2022-03-19T17:08:39Z</time>
      </trkpt>
      <trkpt lat="46.53678" lon="5.38864">
        <ele>261</ele>
        <time>2022-03-19T17:08:42Z</time>
      </trkpt>
      <trkpt lat="46.53641" lon="5.38844">
        <ele>261.4</ele>
        <time>2022-03-19T17:08:48Z</time>
      </trkpt>
      <trkpt lat="46.53593" lon="5.38817">
        <ele>262</ele>
        <time>2022-03-19T17:08:56Z</time>
      </trkpt>
      <trkpt lat="46.53575" lon="5.38806">
        <ele>262</ele>
        <time>2022-03-19T17:08:59Z</time>
      </trkpt>
      <trkpt lat="46.53563" lon="5.38797">
        <ele>262</ele>
        <time>2022-03-19T17:09:01Z</time>
      </trkpt>
      <trkpt lat="46.53552" lon="5.38784">
        <ele>261.8</ele>
        <time>2022-03-19T17:09:03Z</time>
      </trkpt>
      <trkpt lat="46.53532" lon="5.38753">
        <ele>261.4</ele>
        <time>2022-03-19T17:09:07Z</time>
      </trkpt>
      <trkpt lat="46.53525" lon="5.38747">
        <ele>261</ele>
        <time>2022-03-19T17:09:08Z</time>
      </trkpt>
      <trkpt lat="46.53516" lon="5.38743">
        <ele>260.8</ele>
        <time>2022-03-19T17:09:09Z</time>
      </trkpt>
      <trkpt lat="46.5351" lon="5.38743">
        <ele>260.4</ele>
        <time>2022-03-19T17:09:10Z</time>
      </trkpt>
      <trkpt lat="46.53497" lon="5.38745">
        <ele>260.2</ele>
        <time>2022-03-19T17:09:12Z</time>
      </trkpt>
      <trkpt lat="46.53486" lon="5.38739">
        <ele>259.8</ele>
        <time>2022-03-19T17:09:14Z</time>
      </trkpt>
      <trkpt lat="46.53469" lon="5.38722">
        <ele>259.8</ele>
        <time>2022-03-19T17:09:17Z</time>
      </trkpt>
      <trkpt lat="46.53463" lon="5.38717">
        <ele>259.8</ele>
        <time>2022-03-19T17:09:18Z</time>
      </trkpt>
      <trkpt lat="46.53443" lon="5.38708">
        <ele>259.6</ele>
        <time>2022-03-19T17:09:21Z</time>
      </trkpt>
      <trkpt lat="46.53429" lon="5.38704">
        <ele>259.6</ele>
        <time>2022-03-19T17:09:23Z</time>
      </trkpt>
      <trkpt lat="46.53372" lon="5.38698">
        <ele>259.6</ele>
        <time>2022-03-19T17:09:31Z</time>
      </trkpt>
      <trkpt lat="46.53317" lon="5.3869">
        <ele>258.8</ele>
        <time>2022-03-19T17:09:38Z</time>
      </trkpt>
      <trkpt lat="46.5331" lon="5.38688">
        <ele>258.6</ele>
        <time>2022-03-19T17:09:39Z</time>
      </trkpt>
      <trkpt lat="46.53261" lon="5.3867">
        <ele>257.6</ele>
        <time>2022-03-19T17:09:45Z</time>
      </trkpt>
      <trkpt lat="46.53244" lon="5.38663">
        <ele>256.8</ele>
        <time>2022-03-19T17:09:47Z</time>
      </trkpt>
      <trkpt lat="46.53228" lon="5.38656">
        <ele>256.4</ele>
        <time>2022-03-19T17:09:49Z</time>
      </trkpt>
      <trkpt lat="46.53212" lon="5.38647">
        <ele>256</ele>
        <time>2022-03-19T17:09:51Z</time>
      </trkpt>
      <trkpt lat="46.53198" lon="5.38634">
        <ele>255.6</ele>
        <time>2022-03-19T17:09:53Z</time>
      </trkpt>
      <trkpt lat="46.53191" lon="5.38627">
        <ele>255.2</ele>
        <time>2022-03-19T17:09:54Z</time>
      </trkpt>
      <trkpt lat="46.5317" lon="5.38604">
        <ele>254.8</ele>
        <time>2022-03-19T17:09:57Z</time>
      </trkpt>
      <trkpt lat="46.53162" lon="5.38598">
        <ele>254.4</ele>
        <time>2022-03-19T17:09:58Z</time>
      </trkpt>
      <trkpt lat="46.53147" lon="5.38589">
        <ele>254</ele>
        <time>2022-03-19T17:10:00Z</time>
      </trkpt>
      <trkpt lat="46.53134" lon="5.38582">
        <ele>253.4</ele>
        <time>2022-03-19T17:10:02Z</time>
      </trkpt>
      <trkpt lat="46.53127" lon="5.38579">
        <ele>253</ele>
        <time>2022-03-19T17:10:03Z</time>
      </trkpt>
      <trkpt lat="46.53119" lon="5.38577">
        <ele>252.8</ele>
        <time>2022-03-19T17:10:04Z</time>
      </trkpt>
      <trkpt lat="46.53105" lon="5.3858">
        <ele>252.4</ele>
        <time>2022-03-19T17:10:06Z</time>
      </trkpt>
      <trkpt lat="46.53081" lon="5.38587">
        <ele>251.8</ele>
        <time>2022-03-19T17:10:09Z</time>
      </trkpt>
      <trkpt lat="46.53048" lon="5.38595">
        <ele>250.6</ele>
        <time>2022-03-19T17:10:13Z</time>
      </trkpt>
      <trkpt lat="46.53039" lon="5.38598">
        <ele>250.2</ele>
        <time>2022-03-19T17:10:14Z</time>
      </trkpt>
      <trkpt lat="46.53007" lon="5.38604">
        <ele>249.4</ele>
        <time>2022-03-19T17:10:18Z</time>
      </trkpt>
      <trkpt lat="46.52982" lon="5.38602">
        <ele>248.6</ele>
        <time>2022-03-19T17:10:21Z</time>
      </trkpt>
      <trkpt lat="46.52966" lon="5.38599">
        <ele>248.2</ele>
        <time>2022-03-19T17:10:23Z</time>
      </trkpt>
      <trkpt lat="46.52949" lon="5.38598">
        <ele>247.6</ele>
        <time>2022-03-19T17:10:25Z</time>
      </trkpt>
      <trkpt lat="46.52934" lon="5.386">
        <ele>247.2</ele>
        <time>2022-03-19T17:10:27Z</time>
      </trkpt>
      <trkpt lat="46.52923" lon="5.38599">
        <ele>246.2</ele>
        <time>2022-03-19T17:10:29Z</time>
      </trkpt>
      <trkpt lat="46.52919" lon="5.38597">
        <ele>245.8</ele>
        <time>2022-03-19T17:10:30Z</time>
      </trkpt>
      <trkpt lat="46.52913" lon="5.38593">
        <ele>245.6</ele>
        <time>2022-03-19T17:10:32Z</time>
      </trkpt>
      <trkpt lat="46.52908" lon="5.38597">
        <ele>245.2</ele>
        <time>2022-03-19T17:10:34Z</time>
      </trkpt>
      <trkpt lat="46.52902" lon="5.38605">
        <ele>245</ele>
        <time>2022-03-19T17:10:36Z</time>
      </trkpt>
      <trkpt lat="46.52897" lon="5.38607">
        <ele>244.8</ele>
        <time>2022-03-19T17:10:37Z</time>
      </trkpt>
      <trkpt lat="46.52891" lon="5.38607">
        <ele>244.6</ele>
        <time>2022-03-19T17:10:38Z</time>
      </trkpt>
      <trkpt lat="46.52862" lon="5.38602">
        <ele>243.6</ele>
        <time>2022-03-19T17:10:42Z</time>
      </trkpt>
      <trkpt lat="46.52822" lon="5.38592">
        <ele>242.6</ele>
        <time>2022-03-19T17:10:47Z</time>
      </trkpt>
      <trkpt lat="46.52816" lon="5.38588">
        <ele>242</ele>
        <time>2022-03-19T17:10:48Z</time>
      </trkpt>
      <trkpt lat="46.52809" lon="5.38582">
        <ele>242</ele>
        <time>2022-03-19T17:10:49Z</time>
      </trkpt>
      <trkpt lat="46.52797" lon="5.38566">
        <ele>241.8</ele>
        <time>2022-03-19T17:10:51Z</time>
      </trkpt>
      <trkpt lat="46.5279" lon="5.38551">
        <ele>241.4</ele>
        <time>2022-03-19T17:10:53Z</time>
      </trkpt>
      <trkpt lat="46.52783" lon="5.38535">
        <ele>241.4</ele>
        <time>2022-03-19T17:10:55Z</time>
      </trkpt>
      <trkpt lat="46.52772" lon="5.38528">
        <ele>241.4</ele>
        <time>2022-03-19T17:10:57Z</time>
      </trkpt>
      <trkpt lat="46.52759" lon="5.38528">
        <ele>241.6</ele>
        <time>2022-03-19T17:10:59Z</time>
      </trkpt>
      <trkpt lat="46.52754" lon="5.3853">
        <ele>241.6</ele>
        <time>2022-03-19T17:11:00Z</time>
      </trkpt>
      <trkpt lat="46.52738" lon="5.38535">
        <ele>241.8</ele>
        <time>2022-03-19T17:11:03Z</time>
      </trkpt>
      <trkpt lat="46.52727" lon="5.38532">
        <ele>242</ele>
        <time>2022-03-19T17:11:05Z</time>
      </trkpt>
      <trkpt lat="46.52715" lon="5.38525">
        <ele>242.4</ele>
        <time>2022-03-19T17:11:07Z</time>
      </trkpt>
      <trkpt lat="46.52702" lon="5.38519">
        <ele>242.6</ele>
        <time>2022-03-19T17:11:09Z</time>
      </trkpt>
      <trkpt lat="46.52695" lon="5.38517">
        <ele>242.6</ele>
        <time>2022-03-19T17:11:10Z</time>
      </trkpt>
      <trkpt lat="46.52657" lon="5.3851">
        <ele>243.2</ele>
        <time>2022-03-19T17:11:16Z</time>
      </trkpt>
      <trkpt lat="46.52614" lon="5.38503">
        <ele>243.6</ele>
        <time>2022-03-19T17:11:23Z</time>
      </trkpt>
      <trkpt lat="46.52608" lon="5.38502">
        <ele>243.6</ele>
        <time>2022-03-19T17:11:24Z</time>
      </trkpt>
      <trkpt lat="46.52585" lon="5.38495">
        <ele>244.6</ele>
        <time>2022-03-19T17:11:28Z</time>
      </trkpt>
      <trkpt lat="46.52574" lon="5.38491">
        <ele>244.8</ele>
        <time>2022-03-19T17:11:30Z</time>
      </trkpt>
      <trkpt lat="46.52563" lon="5.38486">
        <ele>244.8</ele>
        <time>2022-03-19T17:11:32Z</time>
      </trkpt>
      <trkpt lat="46.52544" lon="5.3847">
        <ele>244.8</ele>
        <time>2022-03-19T17:11:36Z</time>
      </trkpt>
      <trkpt lat="46.52539" lon="5.38464">
        <ele>245</ele>
        <time>2022-03-19T17:11:37Z</time>
      </trkpt>
      <trkpt lat="46.52535" lon="5.38458">
        <ele>245.4</ele>
        <time>2022-03-19T17:11:38Z</time>
      </trkpt>
      <trkpt lat="46.52527" lon="5.38436">
        <ele>245.4</ele>
        <time>2022-03-19T17:11:41Z</time>
      </trkpt>
      <trkpt lat="46.52525" lon="5.38421">
        <ele>245.8</ele>
        <time>2022-03-19T17:11:43Z</time>
      </trkpt>
      <trkpt lat="46.52525" lon="5.38404">
        <ele>245.8</ele>
        <time>2022-03-19T17:11:45Z</time>
      </trkpt>
      <trkpt lat="46.52525" lon="5.38394">
        <ele>245.8</ele>
        <time>2022-03-19T17:11:46Z</time>
      </trkpt>
      <trkpt lat="46.52525" lon="5.38364">
        <ele>245.8</ele>
        <time>2022-03-19T17:11:49Z</time>
      </trkpt>
      <trkpt lat="46.52516" lon="5.38307">
        <ele>245.4</ele>
        <time>2022-03-19T17:11:54Z</time>
      </trkpt>
      <trkpt lat="46.52514" lon="5.3827">
        <ele>244.2</ele>
        <time>2022-03-19T17:11:57Z</time>
      </trkpt>
      <trkpt lat="46.52515" lon="5.38257">
        <ele>244</ele>
        <time>2022-03-19T17:11:58Z</time>
      </trkpt>
      <trkpt lat="46.52518" lon="5.3823">
        <ele>243.2</ele>
        <time>2022-03-19T17:12:00Z</time>
      </trkpt>
      <trkpt lat="46.52524" lon="5.38204">
        <ele>242</ele>
        <time>2022-03-19T17:12:02Z</time>
      </trkpt>
      <trkpt lat="46.52528" lon="5.38192">
        <ele>241.8</ele>
        <time>2022-03-19T17:12:03Z</time>
      </trkpt>
      <trkpt lat="46.52534" lon="5.38165">
        <ele>240.8</ele>
        <time>2022-03-19T17:12:05Z</time>
      </trkpt>
      <trkpt lat="46.52545" lon="5.38111">
        <ele>239.8</ele>
        <time>2022-03-19T17:12:09Z</time>
      </trkpt>
      <trkpt lat="46.52546" lon="5.38071">
        <ele>238.8</ele>
        <time>2022-03-19T17:12:12Z</time>
      </trkpt>
      <trkpt lat="46.52544" lon="5.38057">
        <ele>238.6</ele>
        <time>2022-03-19T17:12:13Z</time>
      </trkpt>
      <trkpt lat="46.52528" lon="5.3798">
        <ele>237.8</ele>
        <time>2022-03-19T17:12:19Z</time>
      </trkpt>
      <trkpt lat="46.52523" lon="5.37955">
        <ele>237.8</ele>
        <time>2022-03-19T17:12:21Z</time>
      </trkpt>
      <trkpt lat="46.5252" lon="5.37929">
        <ele>237.8</ele>
        <time>2022-03-19T17:12:23Z</time>
      </trkpt>
      <trkpt lat="46.52522" lon="5.3789">
        <ele>237.4</ele>
        <time>2022-03-19T17:12:26Z</time>
      </trkpt>
      <trkpt lat="46.52523" lon="5.37865">
        <ele>236.8</ele>
        <time>2022-03-19T17:12:28Z</time>
      </trkpt>
      <trkpt lat="46.52526" lon="5.37827">
        <ele>236.4</ele>
        <time>2022-03-19T17:12:31Z</time>
      </trkpt>
      <trkpt lat="46.52531" lon="5.37743">
        <ele>236.4</ele>
        <time>2022-03-19T17:12:38Z</time>
      </trkpt>
      <trkpt lat="46.52532" lon="5.37732">
        <ele>236.4</ele>
        <time>2022-03-19T17:12:39Z</time>
      </trkpt>
      <trkpt lat="46.52538" lon="5.3765">
        <ele>236</ele>
        <time>2022-03-19T17:12:46Z</time>
      </trkpt>
      <trkpt lat="46.52541" lon="5.37616">
        <ele>235.6</ele>
        <time>2022-03-19T17:12:49Z</time>
      </trkpt>
      <trkpt lat="46.52549" lon="5.37537">
        <ele>235.6</ele>
        <time>2022-03-19T17:12:56Z</time>
      </trkpt>
      <trkpt lat="46.52554" lon="5.37491">
        <ele>235.6</ele>
        <time>2022-03-19T17:13:00Z</time>
      </trkpt>
      <trkpt lat="46.5256" lon="5.37424">
        <ele>235.4</ele>
        <time>2022-03-19T17:13:06Z</time>
      </trkpt>
      <trkpt lat="46.52562" lon="5.3739">
        <ele>235.2</ele>
        <time>2022-03-19T17:13:09Z</time>
      </trkpt>
      <trkpt lat="46.52565" lon="5.3731">
        <ele>234.8</ele>
        <time>2022-03-19T17:13:16Z</time>
      </trkpt>
      <trkpt lat="46.52564" lon="5.37298">
        <ele>234.6</ele>
        <time>2022-03-19T17:13:17Z</time>
      </trkpt>
      <trkpt lat="46.52554" lon="5.37243">
        <ele>234.8</ele>
        <time>2022-03-19T17:13:22Z</time>
      </trkpt>
      <trkpt lat="46.52551" lon="5.37233">
        <ele>234.6</ele>
        <time>2022-03-19T17:13:23Z</time>
      </trkpt>
      <trkpt lat="46.52537" lon="5.37205">
        <ele>234.4</ele>
        <time>2022-03-19T17:13:26Z</time>
      </trkpt>
      <trkpt lat="46.52507" lon="5.37167">
        <ele>234</ele>
        <time>2022-03-19T17:13:31Z</time>
      </trkpt>
      <trkpt lat="46.52468" lon="5.37115">
        <ele>233.4</ele>
        <time>2022-03-19T17:13:38Z</time>
      </trkpt>
      <trkpt lat="46.52463" lon="5.37107">
        <ele>233.4</ele>
        <time>2022-03-19T17:13:39Z</time>
      </trkpt>
      <trkpt lat="46.52448" lon="5.3707">
        <ele>233.4</ele>
        <time>2022-03-19T17:13:43Z</time>
      </trkpt>
      <trkpt lat="46.52443" lon="5.37051">
        <ele>233.6</ele>
        <time>2022-03-19T17:13:45Z</time>
      </trkpt>
      <trkpt lat="46.52439" lon="5.37032">
        <ele>233.6</ele>
        <time>2022-03-19T17:13:47Z</time>
      </trkpt>
      <trkpt lat="46.52436" lon="5.37024">
        <ele>233.6</ele>
        <time>2022-03-19T17:13:48Z</time>
      </trkpt>
      <trkpt lat="46.52432" lon="5.37019">
        <ele>233.6</ele>
        <time>2022-03-19T17:13:49Z</time>
      </trkpt>
      <trkpt lat="46.52428" lon="5.37016">
        <ele>233.6</ele>
        <time>2022-03-19T17:13:50Z</time>
      </trkpt>
      <trkpt lat="46.52423" lon="5.37018">
        <ele>233.6</ele>
        <time>2022-03-19T17:13:51Z</time>
      </trkpt>
      <trkpt lat="46.52419" lon="5.37022">
        <ele>233.6</ele>
        <time>2022-03-19T17:13:52Z</time>
      </trkpt>
      <trkpt lat="46.52415" lon="5.37029">
        <ele>233.6</ele>
        <time>2022-03-19T17:13:53Z</time>
      </trkpt>
      <trkpt lat="46.524" lon="5.37057">
        <ele>233.8</ele>
        <time>2022-03-19T17:13:57Z</time>
      </trkpt>
      <trkpt lat="46.52365" lon="5.37098">
        <ele>233.8</ele>
        <time>2022-03-19T17:14:04Z</time>
      </trkpt>
      <trkpt lat="46.52346" lon="5.37117">
        <ele>234.4</ele>
        <time>2022-03-19T17:14:08Z</time>
      </trkpt>
      <trkpt lat="46.52329" lon="5.37135">
        <ele>235.4</ele>
        <time>2022-03-19T17:14:12Z</time>
      </trkpt>
      <trkpt lat="46.52325" lon="5.3714">
        <ele>235.6</ele>
        <time>2022-03-19T17:14:13Z</time>
      </trkpt>
      <trkpt lat="46.52306" lon="5.37161">
        <ele>236.6</ele>
        <time>2022-03-19T17:14:18Z</time>
      </trkpt>
      <trkpt lat="46.52299" lon="5.37169">
        <ele>237</ele>
        <time>2022-03-19T17:14:20Z</time>
      </trkpt>
      <trkpt lat="46.52291" lon="5.37177">
        <ele>237.8</ele>
        <time>2022-03-19T17:14:22Z</time>
      </trkpt>
      <trkpt lat="46.52277" lon="5.37193">
        <ele>239</ele>
        <time>2022-03-19T17:14:26Z</time>
      </trkpt>
      <trkpt lat="46.52269" lon="5.372">
        <ele>239.4</ele>
        <time>2022-03-19T17:14:28Z</time>
      </trkpt>
      <trkpt lat="46.52254" lon="5.37217">
        <ele>240</ele>
        <time>2022-03-19T17:14:32Z</time>
      </trkpt>
      <trkpt lat="46.5224" lon="5.3723">
        <ele>241.2</ele>
        <time>2022-03-19T17:14:36Z</time>
      </trkpt>
      <trkpt lat="46.52237" lon="5.37233">
        <ele>241.2</ele>
        <time>2022-03-19T17:14:37Z</time>
      </trkpt>
      <trkpt lat="46.52215" lon="5.37251">
        <ele>242.4</ele>
        <time>2022-03-19T17:14:43Z</time>
      </trkpt>
      <trkpt lat="46.52211" lon="5.37254">
        <ele>242.8</ele>
        <time>2022-03-19T17:14:44Z</time>
      </trkpt>
      <trkpt lat="46.52186" lon="5.37271">
        <ele>243.6</ele>
        <time>2022-03-19T17:14:51Z</time>
      </trkpt>
      <trkpt lat="46.52182" lon="5.37273">
        <ele>243.8</ele>
        <time>2022-03-19T17:14:52Z</time>
      </trkpt>
      <trkpt lat="46.52164" lon="5.37284">
        <ele>244.8</ele>
        <time>2022-03-19T17:14:57Z</time>
      </trkpt>
      <trkpt lat="46.52153" lon="5.37292">
        <ele>245.2</ele>
        <time>2022-03-19T17:15:00Z</time>
      </trkpt>
      <trkpt lat="46.52142" lon="5.37301">
        <ele>245.8</ele>
        <time>2022-03-19T17:15:03Z</time>
      </trkpt>
      <trkpt lat="46.52125" lon="5.37315">
        <ele>246.6</ele>
        <time>2022-03-19T17:15:08Z</time>
      </trkpt>
      <trkpt lat="46.52122" lon="5.37317">
        <ele>247</ele>
        <time>2022-03-19T17:15:09Z</time>
      </trkpt>
      <trkpt lat="46.52098" lon="5.37335">
        <ele>248.2</ele>
        <time>2022-03-19T17:15:16Z</time>
      </trkpt>
      <trkpt lat="46.52086" lon="5.37351">
        <ele>249.4</ele>
        <time>2022-03-19T17:15:21Z</time>
      </trkpt>
      <trkpt lat="46.52082" lon="5.37359">
        <ele>250.2</ele>
        <time>2022-03-19T17:15:23Z</time>
      </trkpt>
      <trkpt lat="46.52079" lon="5.37369">
        <ele>250.6</ele>
        <time>2022-03-19T17:15:25Z</time>
      </trkpt>
      <trkpt lat="46.52072" lon="5.37398">
        <ele>251.4</ele>
        <time>2022-03-19T17:15:30Z</time>
      </trkpt>
      <trkpt lat="46.52066" lon="5.37422">
        <ele>251.8</ele>
        <time>2022-03-19T17:15:34Z</time>
      </trkpt>
      <trkpt lat="46.5206" lon="5.3745">
        <ele>251.8</ele>
        <time>2022-03-19T17:15:38Z</time>
      </trkpt>
      <trkpt lat="46.52046" lon="5.3751">
        <ele>251.8</ele>
        <time>2022-03-19T17:15:45Z</time>
      </trkpt>
      <trkpt lat="46.52029" lon="5.37585">
        <ele>251.4</ele>
        <time>2022-03-19T17:15:54Z</time>
      </trkpt>
      <trkpt lat="46.52025" lon="5.37602">
        <ele>251.4</ele>
        <time>2022-03-19T17:15:55Z</time>
      </trkpt>
      <trkpt lat="46.52021" lon="5.37617">
        <ele>251.4</ele>
        <time>2022-03-19T17:15:57Z</time>
      </trkpt>
      <trkpt lat="46.52011" lon="5.37627">
        <ele>251.4</ele>
        <time>2022-03-19T17:15:59Z</time>
      </trkpt>
      <trkpt lat="46.51975" lon="5.37633">
        <ele>251.8</ele>
        <time>2022-03-19T17:16:05Z</time>
      </trkpt>
      <trkpt lat="46.5192" lon="5.37643">
        <ele>251.8</ele>
        <time>2022-03-19T17:16:13Z</time>
      </trkpt>
      <trkpt lat="46.51869" lon="5.37646">
        <ele>252</ele>
        <time>2022-03-19T17:16:21Z</time>
      </trkpt>
      <trkpt lat="46.51814" lon="5.37648">
        <ele>252.2</ele>
        <time>2022-03-19T17:16:29Z</time>
      </trkpt>
      <trkpt lat="46.51775" lon="5.37644">
        <ele>251.8</ele>
        <time>2022-03-19T17:16:34Z</time>
      </trkpt>
      <trkpt lat="46.51735" lon="5.37633">
        <ele>250.6</ele>
        <time>2022-03-19T17:16:39Z</time>
      </trkpt>
      <trkpt lat="46.5172" lon="5.37629">
        <ele>250.2</ele>
        <time>2022-03-19T17:16:41Z</time>
      </trkpt>
      <trkpt lat="46.51701" lon="5.37629">
        <ele>249.6</ele>
        <time>2022-03-19T17:16:43Z</time>
      </trkpt>
      <trkpt lat="46.51693" lon="5.37631">
        <ele>249.2</ele>
        <time>2022-03-19T17:16:44Z</time>
      </trkpt>
      <trkpt lat="46.51685" lon="5.37636">
        <ele>249</ele>
        <time>2022-03-19T17:16:45Z</time>
      </trkpt>
      <trkpt lat="46.51679" lon="5.3764">
        <ele>248.6</ele>
        <time>2022-03-19T17:16:47Z</time>
      </trkpt>
      <trkpt lat="46.51664" lon="5.37651">
        <ele>248.2</ele>
        <time>2022-03-19T17:16:48Z</time>
      </trkpt>
      <trkpt lat="46.51657" lon="5.37656">
        <ele>248.2</ele>
        <time>2022-03-19T17:16:49Z</time>
      </trkpt>
      <trkpt lat="46.51636" lon="5.37666">
        <ele>248</ele>
        <time>2022-03-19T17:16:52Z</time>
      </trkpt>
      <trkpt lat="46.516" lon="5.37677">
        <ele>248</ele>
        <time>2022-03-19T17:16:57Z</time>
      </trkpt>
      <trkpt lat="46.51593" lon="5.37678">
        <ele>248</ele>
        <time>2022-03-19T17:16:58Z</time>
      </trkpt>
      <trkpt lat="46.51568" lon="5.3768">
        <ele>248.8</ele>
        <time>2022-03-19T17:17:03Z</time>
      </trkpt>
      <trkpt lat="46.51554" lon="5.37682">
        <ele>249.6</ele>
        <time>2022-03-19T17:17:06Z</time>
      </trkpt>
      <trkpt lat="46.5155" lon="5.37683">
        <ele>249.6</ele>
        <time>2022-03-19T17:17:07Z</time>
      </trkpt>
      <trkpt lat="46.51542" lon="5.37686">
        <ele>250</ele>
        <time>2022-03-19T17:17:09Z</time>
      </trkpt>
      <trkpt lat="46.5151" lon="5.37695">
        <ele>250.6</ele>
        <time>2022-03-19T17:17:15Z</time>
      </trkpt>
      <trkpt lat="46.51505" lon="5.37696">
        <ele>250.8</ele>
        <time>2022-03-19T17:17:16Z</time>
      </trkpt>
      <trkpt lat="46.51494" lon="5.37699">
        <ele>251</ele>
        <time>2022-03-19T17:17:18Z</time>
      </trkpt>
      <trkpt lat="46.51453" lon="5.37707">
        <ele>252.2</ele>
        <time>2022-03-19T17:17:25Z</time>
      </trkpt>
      <trkpt lat="46.51442" lon="5.3771">
        <ele>252.6</ele>
        <time>2022-03-19T17:17:28Z</time>
      </trkpt>
      <trkpt lat="46.51415" lon="5.37718">
        <ele>253.2</ele>
        <time>2022-03-19T17:17:32Z</time>
      </trkpt>
      <trkpt lat="46.51394" lon="5.37725">
        <ele>253.8</ele>
        <time>2022-03-19T17:17:36Z</time>
      </trkpt>
      <trkpt lat="46.51372" lon="5.37735">
        <ele>254.2</ele>
        <time>2022-03-19T17:17:40Z</time>
      </trkpt>
      <trkpt lat="46.51333" lon="5.37755">
        <ele>255.2</ele>
        <time>2022-03-19T17:17:48Z</time>
      </trkpt>
      <trkpt lat="46.51328" lon="5.37758">
        <ele>255.4</ele>
        <time>2022-03-19T17:17:49Z</time>
      </trkpt>
      <trkpt lat="46.51296" lon="5.37773">
        <ele>256.4</ele>
        <time>2022-03-19T17:17:56Z</time>
      </trkpt>
      <trkpt lat="46.51286" lon="5.37779">
        <ele>256.6</ele>
        <time>2022-03-19T17:17:58Z</time>
      </trkpt>
      <trkpt lat="46.51251" lon="5.37796">
        <ele>257.2</ele>
        <time>2022-03-19T17:18:05Z</time>
      </trkpt>
      <trkpt lat="46.51246" lon="5.37798">
        <ele>257.6</ele>
        <time>2022-03-19T17:18:06Z</time>
      </trkpt>
      <trkpt lat="46.51242" lon="5.37799">
        <ele>257.6</ele>
        <time>2022-03-19T17:18:07Z</time>
      </trkpt>
      <trkpt lat="46.51195" lon="5.37807">
        <ele>258.4</ele>
        <time>2022-03-19T17:18:16Z</time>
      </trkpt>
      <trkpt lat="46.51186" lon="5.37808">
        <ele>258.6</ele>
        <time>2022-03-19T17:18:18Z</time>
      </trkpt>
      <trkpt lat="46.51175" lon="5.37811">
        <ele>258.8</ele>
        <time>2022-03-19T17:18:20Z</time>
      </trkpt>
      <trkpt lat="46.51171" lon="5.37814">
        <ele>258.8</ele>
        <time>2022-03-19T17:18:21Z</time>
      </trkpt>
      <trkpt lat="46.51153" lon="5.37826">
        <ele>259.8</ele>
        <time>2022-03-19T17:18:25Z</time>
      </trkpt>
      <trkpt lat="46.51136" lon="5.3784">
        <ele>260.6</ele>
        <time>2022-03-19T17:18:29Z</time>
      </trkpt>
      <trkpt lat="46.51127" lon="5.37847">
        <ele>260.8</ele>
        <time>2022-03-19T17:18:31Z</time>
      </trkpt>
      <trkpt lat="46.51098" lon="5.37861">
        <ele>261.4</ele>
        <time>2022-03-19T17:18:37Z</time>
      </trkpt>
      <trkpt lat="46.51084" lon="5.37865">
        <ele>262</ele>
        <time>2022-03-19T17:18:40Z</time>
      </trkpt>
      <trkpt lat="46.51067" lon="5.37868">
        <ele>262.4</ele>
        <time>2022-03-19T17:18:43Z</time>
      </trkpt>
      <trkpt lat="46.51061" lon="5.37868">
        <ele>262.6</ele>
        <time>2022-03-19T17:18:44Z</time>
      </trkpt>
      <trkpt lat="46.51037" lon="5.3787">
        <ele>263</ele>
        <time>2022-03-19T17:18:49Z</time>
      </trkpt>
      <trkpt lat="46.51027" lon="5.37871">
        <ele>263.2</ele>
        <time>2022-03-19T17:18:51Z</time>
      </trkpt>
      <trkpt lat="46.51" lon="5.37875">
        <ele>264.2</ele>
        <time>2022-03-19T17:18:56Z</time>
      </trkpt>
      <trkpt lat="46.50994" lon="5.37877">
        <ele>264.4</ele>
        <time>2022-03-19T17:18:58Z</time>
      </trkpt>
      <trkpt lat="46.50953" lon="5.37888">
        <ele>265.2</ele>
        <time>2022-03-19T17:19:05Z</time>
      </trkpt>
      <trkpt lat="46.50941" lon="5.37892">
        <ele>265.6</ele>
        <time>2022-03-19T17:19:07Z</time>
      </trkpt>
      <trkpt lat="46.50905" lon="5.379">
        <ele>266</ele>
        <time>2022-03-19T17:19:13Z</time>
      </trkpt>
      <trkpt lat="46.50864" lon="5.37899">
        <ele>265.6</ele>
        <time>2022-03-19T17:19:19Z</time>
      </trkpt>
      <trkpt lat="46.50825" lon="5.37894">
        <ele>265.2</ele>
        <time>2022-03-19T17:19:25Z</time>
      </trkpt>
      <trkpt lat="46.50819" lon="5.37891">
        <ele>265.2</ele>
        <time>2022-03-19T17:19:26Z</time>
      </trkpt>
      <trkpt lat="46.50813" lon="5.37888">
        <ele>265.2</ele>
        <time>2022-03-19T17:19:27Z</time>
      </trkpt>
      <trkpt lat="46.50797" lon="5.37871">
        <ele>265.2</ele>
        <time>2022-03-19T17:19:30Z</time>
      </trkpt>
      <trkpt lat="46.50768" lon="5.37827">
        <ele>265</ele>
        <time>2022-03-19T17:19:36Z</time>
      </trkpt>
      <trkpt lat="46.5076" lon="5.37809">
        <ele>264.8</ele>
        <time>2022-03-19T17:19:38Z</time>
      </trkpt>
      <trkpt lat="46.50752" lon="5.37781">
        <ele>264.8</ele>
        <time>2022-03-19T17:19:41Z</time>
      </trkpt>
      <trkpt lat="46.50744" lon="5.37725">
        <ele>264.2</ele>
        <time>2022-03-19T17:19:46Z</time>
      </trkpt>
      <trkpt lat="46.50744" lon="5.37725">
        <ele>264</ele>
        <time>2022-03-19T17:19:47Z</time>
      </trkpt>
      <trkpt lat="46.50739" lon="5.37643">
        <ele>263.2</ele>
        <time>2022-03-19T17:19:53Z</time>
      </trkpt>
      <trkpt lat="46.50737" lon="5.37633">
        <ele>263</ele>
        <time>2022-03-19T17:19:54Z</time>
      </trkpt>
      <trkpt lat="46.50735" lon="5.37618">
        <ele>262.8</ele>
        <time>2022-03-19T17:19:55Z</time>
      </trkpt>
      <trkpt lat="46.5073" lon="5.37607">
        <ele>262</ele>
        <time>2022-03-19T17:19:56Z</time>
      </trkpt>
      <trkpt lat="46.50726" lon="5.37599">
        <ele>261.6</ele>
        <time>2022-03-19T17:19:57Z</time>
      </trkpt>
      <trkpt lat="46.50714" lon="5.37581">
        <ele>260.4</ele>
        <time>2022-03-19T17:19:59Z</time>
      </trkpt>
      <trkpt lat="46.50708" lon="5.37574">
        <ele>259.8</ele>
        <time>2022-03-19T17:20:00Z</time>
      </trkpt>
      <trkpt lat="46.50704" lon="5.37569">
        <ele>259.4</ele>
        <time>2022-03-19T17:20:01Z</time>
      </trkpt>
      <trkpt lat="46.507" lon="5.37565">
        <ele>259</ele>
        <time>2022-03-19T17:20:02Z</time>
      </trkpt>
      <trkpt lat="46.50696" lon="5.37563">
        <ele>258.4</ele>
        <time>2022-03-19T17:20:03Z</time>
      </trkpt>
      <trkpt lat="46.50692" lon="5.37563">
        <ele>258.4</ele>
        <time>2022-03-19T17:20:04Z</time>
      </trkpt>
      <trkpt lat="46.50687" lon="5.37565">
        <ele>258</ele>
        <time>2022-03-19T17:20:05Z</time>
      </trkpt>
      <trkpt lat="46.50683" lon="5.37569">
        <ele>258</ele>
        <time>2022-03-19T17:20:06Z</time>
      </trkpt>
      <trkpt lat="46.50667" lon="5.37592">
        <ele>258</ele>
        <time>2022-03-19T17:20:10Z</time>
      </trkpt>
      <trkpt lat="46.50639" lon="5.37635">
        <ele>258.6</ele>
        <time>2022-03-19T17:20:16Z</time>
      </trkpt>
      <trkpt lat="46.50606" lon="5.37687">
        <ele>258.8</ele>
        <time>2022-03-19T17:20:23Z</time>
      </trkpt>
      <trkpt lat="46.50585" lon="5.37718">
        <ele>259.4</ele>
        <time>2022-03-19T17:20:28Z</time>
      </trkpt>
      <trkpt lat="46.50582" lon="5.37724">
        <ele>259.4</ele>
        <time>2022-03-19T17:20:29Z</time>
      </trkpt>
      <trkpt lat="46.50571" lon="5.37741">
        <ele>260.6</ele>
        <time>2022-03-19T17:20:32Z</time>
      </trkpt>
      <trkpt lat="46.50557" lon="5.37761">
        <ele>261.8</ele>
        <time>2022-03-19T17:20:36Z</time>
      </trkpt>
      <trkpt lat="46.50553" lon="5.37767">
        <ele>262</ele>
        <time>2022-03-19T17:20:37Z</time>
      </trkpt>
      <trkpt lat="46.5054" lon="5.37787">
        <ele>262.8</ele>
        <time>2022-03-19T17:20:41Z</time>
      </trkpt>
      <trkpt lat="46.50527" lon="5.37806">
        <ele>263.6</ele>
        <time>2022-03-19T17:20:45Z</time>
      </trkpt>
      <trkpt lat="46.50521" lon="5.37816">
        <ele>263.8</ele>
        <time>2022-03-19T17:20:47Z</time>
      </trkpt>
      <trkpt lat="46.50506" lon="5.37839">
        <ele>264.8</ele>
        <time>2022-03-19T17:20:52Z</time>
      </trkpt>
      <trkpt lat="46.50501" lon="5.37848">
        <ele>265.4</ele>
        <time>2022-03-19T17:20:54Z</time>
      </trkpt>
      <trkpt lat="46.50494" lon="5.37858">
        <ele>266</ele>
        <time>2022-03-19T17:20:56Z</time>
      </trkpt>
      <trkpt lat="46.50477" lon="5.37885">
        <ele>267.2</ele>
        <time>2022-03-19T17:21:02Z</time>
      </trkpt>
      <trkpt lat="46.50474" lon="5.37888">
        <ele>267.4</ele>
        <time>2022-03-19T17:21:03Z</time>
      </trkpt>
      <trkpt lat="46.50458" lon="5.37912">
        <ele>268.2</ele>
        <time>2022-03-19T17:21:08Z</time>
      </trkpt>
      <trkpt lat="46.50448" lon="5.37927">
        <ele>268.6</ele>
        <time>2022-03-19T17:21:11Z</time>
      </trkpt>
      <trkpt lat="46.50434" lon="5.37947">
        <ele>269.4</ele>
        <time>2022-03-19T17:21:16Z</time>
      </trkpt>
      <trkpt lat="46.50419" lon="5.37968">
        <ele>270.6</ele>
        <time>2022-03-19T17:21:21Z</time>
      </trkpt>
      <trkpt lat="46.50413" lon="5.37978">
        <ele>271.2</ele>
        <time>2022-03-19T17:21:23Z</time>
      </trkpt>
      <trkpt lat="46.50407" lon="5.37988">
        <ele>271.8</ele>
        <time>2022-03-19T17:21:25Z</time>
      </trkpt>
      <trkpt lat="46.50394" lon="5.38009">
        <ele>272.2</ele>
        <time>2022-03-19T17:21:29Z</time>
      </trkpt>
      <trkpt lat="46.50384" lon="5.38024">
        <ele>273</ele>
        <time>2022-03-19T17:21:32Z</time>
      </trkpt>
      <trkpt lat="46.50376" lon="5.38029">
        <ele>273.4</ele>
        <time>2022-03-19T17:21:34Z</time>
      </trkpt>
      <trkpt lat="46.50368" lon="5.38025">
        <ele>274</ele>
        <time>2022-03-19T17:21:36Z</time>
      </trkpt>
      <trkpt lat="46.50365" lon="5.38019">
        <ele>274.4</ele>
        <time>2022-03-19T17:21:37Z</time>
      </trkpt>
      <trkpt lat="46.50363" lon="5.38013">
        <ele>274.4</ele>
        <time>2022-03-19T17:21:38Z</time>
      </trkpt>
      <trkpt lat="46.50362" lon="5.38002">
        <ele>274.6</ele>
        <time>2022-03-19T17:21:40Z</time>
      </trkpt>
      <trkpt lat="46.50362" lon="5.37996">
        <ele>274.8</ele>
        <time>2022-03-19T17:21:41Z</time>
      </trkpt>
      <trkpt lat="46.50364" lon="5.37963">
        <ele>275.4</ele>
        <time>2022-03-19T17:21:46Z</time>
      </trkpt>
      <trkpt lat="46.50364" lon="5.37949">
        <ele>275.6</ele>
        <time>2022-03-19T17:21:48Z</time>
      </trkpt>
      <trkpt lat="46.50363" lon="5.37936">
        <ele>276</ele>
        <time>2022-03-19T17:21:50Z</time>
      </trkpt>
      <trkpt lat="46.50356" lon="5.37911">
        <ele>276</ele>
        <time>2022-03-19T17:21:53Z</time>
      </trkpt>
      <trkpt lat="46.50353" lon="5.37903">
        <ele>276</ele>
        <time>2022-03-19T17:21:54Z</time>
      </trkpt>
      <trkpt lat="46.50344" lon="5.37888">
        <ele>276</ele>
        <time>2022-03-19T17:21:56Z</time>
      </trkpt>
      <trkpt lat="46.50339" lon="5.37882">
        <ele>276</ele>
        <time>2022-03-19T17:21:57Z</time>
      </trkpt>
      <trkpt lat="46.503" lon="5.37843">
        <ele>275.6</ele>
        <time>2022-03-19T17:22:04Z</time>
      </trkpt>
      <trkpt lat="46.50248" lon="5.37794">
        <ele>275</ele>
        <time>2022-03-19T17:22:13Z</time>
      </trkpt>
      <trkpt lat="46.50208" lon="5.37763">
        <ele>274.8</ele>
        <time>2022-03-19T17:22:19Z</time>
      </trkpt>
      <trkpt lat="46.50185" lon="5.37753">
        <ele>274.4</ele>
        <time>2022-03-19T17:22:22Z</time>
      </trkpt>
      <trkpt lat="46.5017" lon="5.37748">
        <ele>274.2</ele>
        <time>2022-03-19T17:22:24Z</time>
      </trkpt>
      <trkpt lat="46.5013" lon="5.37739">
        <ele>274.2</ele>
        <time>2022-03-19T17:22:30Z</time>
      </trkpt>
      <trkpt lat="46.50091" lon="5.37727">
        <ele>275.4</ele>
        <time>2022-03-19T17:22:36Z</time>
      </trkpt>
      <trkpt lat="46.50084" lon="5.37725">
        <ele>275.4</ele>
        <time>2022-03-19T17:22:37Z</time>
      </trkpt>
      <trkpt lat="46.50045" lon="5.37708">
        <ele>276.2</ele>
        <time>2022-03-19T17:22:43Z</time>
      </trkpt>
      <trkpt lat="46.50033" lon="5.37702">
        <ele>276.4</ele>
        <time>2022-03-19T17:22:45Z</time>
      </trkpt>
      <trkpt lat="46.49982" lon="5.37677">
        <ele>276.6</ele>
        <time>2022-03-19T17:22:52Z</time>
      </trkpt>
      <trkpt lat="46.49923" lon="5.37653">
        <ele>275.2</ele>
        <time>2022-03-19T17:23:00Z</time>
      </trkpt>
      <trkpt lat="46.4987" lon="5.37635">
        <ele>274.8</ele>
        <time>2022-03-19T17:23:07Z</time>
      </trkpt>
      <trkpt lat="46.49854" lon="5.37629">
        <ele>274.6</ele>
        <time>2022-03-19T17:23:09Z</time>
      </trkpt>
      <trkpt lat="46.49839" lon="5.37622">
        <ele>274.2</ele>
        <time>2022-03-19T17:23:11Z</time>
      </trkpt>
      <trkpt lat="46.49795" lon="5.37598">
        <ele>273.8</ele>
        <time>2022-03-19T17:23:17Z</time>
      </trkpt>
      <trkpt lat="46.49744" lon="5.37565">
        <ele>273.6</ele>
        <time>2022-03-19T17:23:24Z</time>
      </trkpt>
      <trkpt lat="46.49738" lon="5.37561">
        <ele>273.6</ele>
        <time>2022-03-19T17:23:25Z</time>
      </trkpt>
      <trkpt lat="46.49686" lon="5.37533">
        <ele>273.2</ele>
        <time>2022-03-19T17:23:32Z</time>
      </trkpt>
      <trkpt lat="46.49658" lon="5.37521">
        <ele>273</ele>
        <time>2022-03-19T17:23:36Z</time>
      </trkpt>
      <trkpt lat="46.4964" lon="5.37512">
        <ele>273.2</ele>
        <time>2022-03-19T17:23:39Z</time>
      </trkpt>
      <trkpt lat="46.49628" lon="5.37505">
        <ele>273.2</ele>
        <time>2022-03-19T17:23:41Z</time>
      </trkpt>
      <trkpt lat="46.49616" lon="5.37505">
        <ele>273.2</ele>
        <time>2022-03-19T17:23:43Z</time>
      </trkpt>
      <trkpt lat="46.49605" lon="5.3751">
        <ele>273.2</ele>
        <time>2022-03-19T17:23:45Z</time>
      </trkpt>
      <trkpt lat="46.49593" lon="5.37518">
        <ele>273.2</ele>
        <time>2022-03-19T17:23:47Z</time>
      </trkpt>
      <trkpt lat="46.49578" lon="5.3753">
        <ele>273.8</ele>
        <time>2022-03-19T17:23:50Z</time>
      </trkpt>
      <trkpt lat="46.49569" lon="5.37539">
        <ele>274.4</ele>
        <time>2022-03-19T17:23:52Z</time>
      </trkpt>
      <trkpt lat="46.49561" lon="5.37547">
        <ele>274.8</ele>
        <time>2022-03-19T17:23:54Z</time>
      </trkpt>
      <trkpt lat="46.49555" lon="5.37551">
        <ele>275.2</ele>
        <time>2022-03-19T17:23:55Z</time>
      </trkpt>
      <trkpt lat="46.4955" lon="5.37555">
        <ele>275.6</ele>
        <time>2022-03-19T17:23:56Z</time>
      </trkpt>
      <trkpt lat="46.4953" lon="5.37572">
        <ele>276.4</ele>
        <time>2022-03-19T17:24:00Z</time>
      </trkpt>
      <trkpt lat="46.49526" lon="5.37575">
        <ele>276.8</ele>
        <time>2022-03-19T17:24:01Z</time>
      </trkpt>
      <trkpt lat="46.49493" lon="5.37604">
        <ele>278</ele>
        <time>2022-03-19T17:24:08Z</time>
      </trkpt>
      <trkpt lat="46.49476" lon="5.37619">
        <ele>278.6</ele>
        <time>2022-03-19T17:24:12Z</time>
      </trkpt>
      <trkpt lat="46.49462" lon="5.3763">
        <ele>279.2</ele>
        <time>2022-03-19T17:24:15Z</time>
      </trkpt>
      <trkpt lat="46.4945" lon="5.3764">
        <ele>280</ele>
        <time>2022-03-19T17:24:18Z</time>
      </trkpt>
      <trkpt lat="46.49447" lon="5.37643">
        <ele>280.2</ele>
        <time>2022-03-19T17:24:19Z</time>
      </trkpt>
      <trkpt lat="46.49443" lon="5.37647">
        <ele>280.4</ele>
        <time>2022-03-19T17:24:20Z</time>
      </trkpt>
      <trkpt lat="46.49426" lon="5.37663">
        <ele>281.4</ele>
        <time>2022-03-19T17:24:25Z</time>
      </trkpt>
      <trkpt lat="46.49423" lon="5.37667">
        <ele>281.6</ele>
        <time>2022-03-19T17:24:26Z</time>
      </trkpt>
      <trkpt lat="46.49419" lon="5.37672">
        <ele>282.2</ele>
        <time>2022-03-19T17:24:27Z</time>
      </trkpt>
      <trkpt lat="46.49413" lon="5.37682">
        <ele>282.6</ele>
        <time>2022-03-19T17:24:29Z</time>
      </trkpt>
      <trkpt lat="46.49405" lon="5.37697">
        <ele>283.4</ele>
        <time>2022-03-19T17:24:32Z</time>
      </trkpt>
      <trkpt lat="46.494" lon="5.37708">
        <ele>284</ele>
        <time>2022-03-19T17:24:34Z</time>
      </trkpt>
      <trkpt lat="46.4939" lon="5.37736">
        <ele>285.2</ele>
        <time>2022-03-19T17:24:39Z</time>
      </trkpt>
      <trkpt lat="46.49386" lon="5.37747">
        <ele>285.6</ele>
        <time>2022-03-19T17:24:41Z</time>
      </trkpt>
      <trkpt lat="46.49382" lon="5.37758">
        <ele>286</ele>
        <time>2022-03-19T17:24:43Z</time>
      </trkpt>
      <trkpt lat="46.49381" lon="5.37763">
        <ele>286.2</ele>
        <time>2022-03-19T17:24:44Z</time>
      </trkpt>
      <trkpt lat="46.49373" lon="5.37786">
        <ele>287.2</ele>
        <time>2022-03-19T17:24:48Z</time>
      </trkpt>
      <trkpt lat="46.4937" lon="5.37792">
        <ele>287.4</ele>
        <time>2022-03-19T17:24:49Z</time>
      </trkpt>
      <trkpt lat="46.49368" lon="5.378">
        <ele>287.4</ele>
        <time>2022-03-19T17:24:50Z</time>
      </trkpt>
      <trkpt lat="46.49358" lon="5.37831">
        <ele>287.8</ele>
        <time>2022-03-19T17:24:55Z</time>
      </trkpt>
      <trkpt lat="46.49345" lon="5.37872">
        <ele>288</ele>
        <time>2022-03-19T17:25:01Z</time>
      </trkpt>
      <trkpt lat="46.49334" lon="5.37919">
        <ele>287.6</ele>
        <time>2022-03-19T17:25:06Z</time>
      </trkpt>
      <trkpt lat="46.49324" lon="5.37974">
        <ele>285.8</ele>
        <time>2022-03-19T17:25:11Z</time>
      </trkpt>
      <trkpt lat="46.49318" lon="5.38005">
        <ele>285.4</ele>
        <time>2022-03-19T17:25:14Z</time>
      </trkpt>
      <trkpt lat="46.49305" lon="5.3807">
        <ele>285.4</ele>
        <time>2022-03-19T17:25:21Z</time>
      </trkpt>
      <trkpt lat="46.4929" lon="5.38148">
        <ele>286.8</ele>
        <time>2022-03-19T17:25:30Z</time>
      </trkpt>
      <trkpt lat="46.49289" lon="5.38156">
        <ele>287</ele>
        <time>2022-03-19T17:25:31Z</time>
      </trkpt>
      <trkpt lat="46.49278" lon="5.38213">
        <ele>288.2</ele>
        <time>2022-03-19T17:25:38Z</time>
      </trkpt>
      <trkpt lat="46.49271" lon="5.38251">
        <ele>289.4</ele>
        <time>2022-03-19T17:25:43Z</time>
      </trkpt>
      <trkpt lat="46.49263" lon="5.38294">
        <ele>290.4</ele>
        <time>2022-03-19T17:25:49Z</time>
      </trkpt>
      <trkpt lat="46.49257" lon="5.38317">
        <ele>291</ele>
        <time>2022-03-19T17:25:52Z</time>
      </trkpt>
      <trkpt lat="46.49253" lon="5.38329">
        <ele>291.4</ele>
        <time>2022-03-19T17:25:54Z</time>
      </trkpt>
      <trkpt lat="46.4925" lon="5.38333">
        <ele>291.6</ele>
        <time>2022-03-19T17:25:55Z</time>
      </trkpt>
      <trkpt lat="46.49245" lon="5.38337">
        <ele>291.8</ele>
        <time>2022-03-19T17:25:56Z</time>
      </trkpt>
      <trkpt lat="46.49236" lon="5.38337">
        <ele>292</ele>
        <time>2022-03-19T17:25:58Z</time>
      </trkpt>
      <trkpt lat="46.49207" lon="5.38322">
        <ele>292.2</ele>
        <time>2022-03-19T17:26:03Z</time>
      </trkpt>
      <trkpt lat="46.49164" lon="5.38303">
        <ele>291.8</ele>
        <time>2022-03-19T17:26:09Z</time>
      </trkpt>
      <trkpt lat="46.49134" lon="5.38294">
        <ele>290.4</ele>
        <time>2022-03-19T17:26:13Z</time>
      </trkpt>
      <trkpt lat="46.49117" lon="5.3829">
        <ele>290.2</ele>
        <time>2022-03-19T17:26:15Z</time>
      </trkpt>
      <trkpt lat="46.4911" lon="5.38287">
        <ele>290</ele>
        <time>2022-03-19T17:26:16Z</time>
      </trkpt>
      <trkpt lat="46.49099" lon="5.38278">
        <ele>289.6</ele>
        <time>2022-03-19T17:26:18Z</time>
      </trkpt>
      <trkpt lat="46.49093" lon="5.38269">
        <ele>289.4</ele>
        <time>2022-03-19T17:26:19Z</time>
      </trkpt>
      <trkpt lat="46.49089" lon="5.38259">
        <ele>289.4</ele>
        <time>2022-03-19T17:26:20Z</time>
      </trkpt>
      <trkpt lat="46.49078" lon="5.38225">
        <ele>289</ele>
        <time>2022-03-19T17:26:23Z</time>
      </trkpt>
      <trkpt lat="46.49068" lon="5.38191">
        <ele>287.8</ele>
        <time>2022-03-19T17:26:26Z</time>
      </trkpt>
      <trkpt lat="46.49056" lon="5.38153">
        <ele>286.6</ele>
        <time>2022-03-19T17:26:29Z</time>
      </trkpt>
      <trkpt lat="46.49049" lon="5.38127">
        <ele>285.8</ele>
        <time>2022-03-19T17:26:31Z</time>
      </trkpt>
      <trkpt lat="46.49045" lon="5.38115">
        <ele>285.4</ele>
        <time>2022-03-19T17:26:32Z</time>
      </trkpt>
      <trkpt lat="46.49033" lon="5.38074">
        <ele>284.2</ele>
        <time>2022-03-19T17:26:35Z</time>
      </trkpt>
      <trkpt lat="46.49024" lon="5.38051">
        <ele>283.4</ele>
        <time>2022-03-19T17:26:37Z</time>
      </trkpt>
      <trkpt lat="46.4902" lon="5.38038">
        <ele>282.8</ele>
        <time>2022-03-19T17:26:38Z</time>
      </trkpt>
      <trkpt lat="46.49009" lon="5.37998">
        <ele>281.8</ele>
        <time>2022-03-19T17:26:41Z</time>
      </trkpt>
      <trkpt lat="46.48993" lon="5.37943">
        <ele>280.6</ele>
        <time>2022-03-19T17:26:45Z</time>
      </trkpt>
      <trkpt lat="46.48977" lon="5.3789">
        <ele>279.2</ele>
        <time>2022-03-19T17:26:49Z</time>
      </trkpt>
      <trkpt lat="46.48958" lon="5.37828">
        <ele>278</ele>
        <time>2022-03-19T17:26:54Z</time>
      </trkpt>
      <trkpt lat="46.48955" lon="5.37815">
        <ele>278</ele>
        <time>2022-03-19T17:26:55Z</time>
      </trkpt>
      <trkpt lat="46.48932" lon="5.37743">
        <ele>277.4</ele>
        <time>2022-03-19T17:27:01Z</time>
      </trkpt>
      <trkpt lat="46.48925" lon="5.37718">
        <ele>277.2</ele>
        <time>2022-03-19T17:27:03Z</time>
      </trkpt>
      <trkpt lat="46.48909" lon="5.37669">
        <ele>277.2</ele>
        <time>2022-03-19T17:27:08Z</time>
      </trkpt>
      <trkpt lat="46.48901" lon="5.37643">
        <ele>277.4</ele>
        <time>2022-03-19T17:27:11Z</time>
      </trkpt>
      <trkpt lat="46.48892" lon="5.3763">
        <ele>277.8</ele>
        <time>2022-03-19T17:27:13Z</time>
      </trkpt>
      <trkpt lat="46.48881" lon="5.37627">
        <ele>278</ele>
        <time>2022-03-19T17:27:15Z</time>
      </trkpt>
      <trkpt lat="46.48876" lon="5.37627">
        <ele>278.2</ele>
        <time>2022-03-19T17:27:16Z</time>
      </trkpt>
      <trkpt lat="46.48866" lon="5.37622">
        <ele>278.8</ele>
        <time>2022-03-19T17:27:18Z</time>
      </trkpt>
      <trkpt lat="46.48863" lon="5.37618">
        <ele>279</ele>
        <time>2022-03-19T17:27:19Z</time>
      </trkpt>
      <trkpt lat="46.48858" lon="5.37602">
        <ele>279.6</ele>
        <time>2022-03-19T17:27:22Z</time>
      </trkpt>
      <trkpt lat="46.48856" lon="5.37595">
        <ele>279.8</ele>
        <time>2022-03-19T17:27:23Z</time>
      </trkpt>
      <trkpt lat="46.48852" lon="5.3758">
        <ele>280.2</ele>
        <time>2022-03-19T17:27:25Z</time>
      </trkpt>
      <trkpt lat="46.4885" lon="5.37572">
        <ele>280.4</ele>
        <time>2022-03-19T17:27:26Z</time>
      </trkpt>
      <trkpt lat="46.48847" lon="5.37565">
        <ele>280.6</ele>
        <time>2022-03-19T17:27:27Z</time>
      </trkpt>
      <trkpt lat="46.4883" lon="5.37528">
        <ele>281.4</ele>
        <time>2022-03-19T17:27:32Z</time>
      </trkpt>
      <trkpt lat="46.48811" lon="5.37499">
        <ele>282.6</ele>
        <time>2022-03-19T17:27:37Z</time>
      </trkpt>
      <trkpt lat="46.48803" lon="5.37488">
        <ele>283.4</ele>
        <time>2022-03-19T17:27:39Z</time>
      </trkpt>
      <trkpt lat="46.48794" lon="5.37477">
        <ele>283.8</ele>
        <time>2022-03-19T17:27:41Z</time>
      </trkpt>
      <trkpt lat="46.48767" lon="5.37435">
        <ele>284</ele>
        <time>2022-03-19T17:27:47Z</time>
      </trkpt>
      <trkpt lat="46.48736" lon="5.37386">
        <ele>283</ele>
        <time>2022-03-19T17:27:53Z</time>
      </trkpt>
      <trkpt lat="46.48726" lon="5.37372">
        <ele>282.4</ele>
        <time>2022-03-19T17:27:55Z</time>
      </trkpt>
      <trkpt lat="46.48698" lon="5.37334">
        <ele>281.4</ele>
        <time>2022-03-19T17:28:00Z</time>
      </trkpt>
      <trkpt lat="46.48692" lon="5.37324">
        <ele>281.2</ele>
        <time>2022-03-19T17:28:01Z</time>
      </trkpt>
      <trkpt lat="46.48651" lon="5.3727">
        <ele>280.8</ele>
        <time>2022-03-19T17:28:09Z</time>
      </trkpt>
    </trkseg>
  </trk>
</gpx>